<?xml version="1.0" encoding="UTF-8" standalone="no" ?>
<gpx xmlns="http://www.topografix.com/GPX/1/1" xmlns:xsi="http://www.w3.org/2001/XMLSchema-instance" xsi:schemaLocation="http://www.topografix.com/GPX/1/1 http://www.topografix.com/GPX/1/1/gpx.xsd" version="1.1" creator="VisuGPX - https://www.visugpx.com">
  <metadata>
    <name>Brognard et Vaudois</name>
    <desc><![CDATA[Brognard et Vaudois, froid et pluie, ca sent l'hiver]]></desc>
  </metadata>
  <wpt lat="47.52482" lon="6.83037">
    <ele>340</ele>
    <name><![CDATA[Point de cheminement 1]]></name>
    <desc><![CDATA[]]></desc>
  </wpt>
  <wpt lat="47.52872" lon="6.85686">
    <ele>325</ele>
    <name><![CDATA[Point de cheminement 2]]></name>
    <desc><![CDATA[]]></desc>
  </wpt>
  <wpt lat="47.54088" lon="6.85896">
    <ele>324</ele>
    <name><![CDATA[Point de cheminement 3]]></name>
    <desc><![CDATA[]]></desc>
  </wpt>
  <wpt lat="47.56016" lon="6.83086">
    <ele>367</ele>
    <name><![CDATA[Point de cheminement 4]]></name>
    <desc><![CDATA[]]></desc>
  </wpt>
  <wpt lat="47.57757" lon="6.80067">
    <ele>434</ele>
    <name><![CDATA[Point de cheminement 5]]></name>
    <desc><![CDATA[]]></desc>
  </wpt>
  <wpt lat="47.59784" lon="6.78336">
    <ele>400</ele>
    <name><![CDATA[Point de cheminement 6]]></name>
    <desc><![CDATA[]]></desc>
  </wpt>
  <wpt lat="47.59653" lon="6.77803">
    <ele>412</ele>
    <name><![CDATA[Point de cheminement 7]]></name>
    <desc><![CDATA[]]></desc>
  </wpt>
  <wpt lat="47.59717" lon="6.7655">
    <ele>517</ele>
    <name><![CDATA[Point de cheminement 8]]></name>
    <desc><![CDATA[]]></desc>
  </wpt>
  <wpt lat="47.59517" lon="6.7703">
    <ele>478</ele>
    <name><![CDATA[Point de cheminement 9]]></name>
    <desc><![CDATA[]]></desc>
  </wpt>
  <wpt lat="47.57882" lon="6.79101">
    <ele>394</ele>
    <name><![CDATA[Point de cheminement 10]]></name>
    <desc><![CDATA[]]></desc>
  </wpt>
  <wpt lat="47.55894" lon="6.79139">
    <ele>396</ele>
    <name><![CDATA[Point de cheminement 11]]></name>
    <desc><![CDATA[]]></desc>
  </wpt>
  <wpt lat="47.5357" lon="6.77386">
    <ele>374</ele>
    <name><![CDATA[Point de cheminement 12]]></name>
    <desc><![CDATA[]]></desc>
  </wpt>
  <wpt lat="47.51804" lon="6.77481">
    <ele>388</ele>
    <name><![CDATA[Point de cheminement 13]]></name>
    <desc><![CDATA[]]></desc>
  </wpt>
  <trk>
    <name><![CDATA[Rue Antoine Coysevox]]></name>
    <desc><![CDATA[]]></desc>
    <trkseg>
      <trkpt lat="47.5198" lon="6.7773">
        <ele>394</ele>
        <time>2016-10-23T06:49:51.000Z</time>
      </trkpt>
      <trkpt lat="47.5198" lon="6.77736">
        <ele>394</ele>
        <time>2016-10-23T06:49:52.000Z</time>
      </trkpt>
      <trkpt lat="47.51982" lon="6.77741">
        <ele>394</ele>
        <time>2016-10-23T06:49:53.000Z</time>
      </trkpt>
      <trkpt lat="47.51982" lon="6.77747">
        <ele>394</ele>
        <time>2016-10-23T06:49:54.000Z</time>
      </trkpt>
      <trkpt lat="47.5198" lon="6.77752">
        <ele>395</ele>
        <time>2016-10-23T06:49:55.000Z</time>
      </trkpt>
      <trkpt lat="47.51979" lon="6.77757">
        <ele>395</ele>
        <time>2016-10-23T06:49:56.000Z</time>
      </trkpt>
      <trkpt lat="47.51984" lon="6.77764">
        <ele>395</ele>
        <time>2016-10-23T06:49:57.000Z</time>
      </trkpt>
      <trkpt lat="47.51984" lon="6.7777">
        <ele>395</ele>
        <time>2016-10-23T06:49:58.000Z</time>
      </trkpt>
      <trkpt lat="47.51983" lon="6.77775">
        <ele>395</ele>
        <time>2016-10-23T06:49:59.000Z</time>
      </trkpt>
      <trkpt lat="47.51981" lon="6.77779">
        <ele>395</ele>
        <time>2016-10-23T06:50:00.000Z</time>
      </trkpt>
      <trkpt lat="47.51977" lon="6.77783">
        <ele>395</ele>
        <time>2016-10-23T06:50:01.000Z</time>
      </trkpt>
      <trkpt lat="47.51975" lon="6.77788">
        <ele>395</ele>
        <time>2016-10-23T06:50:02.000Z</time>
      </trkpt>
      <trkpt lat="47.51973" lon="6.77793">
        <ele>395</ele>
        <time>2016-10-23T06:50:03.000Z</time>
      </trkpt>
      <trkpt lat="47.51969" lon="6.77798">
        <ele>395</ele>
        <time>2016-10-23T06:50:04.000Z</time>
      </trkpt>
      <trkpt lat="47.51964" lon="6.778">
        <ele>395</ele>
        <time>2016-10-23T06:50:05.000Z</time>
      </trkpt>
      <trkpt lat="47.51961" lon="6.77805">
        <ele>395</ele>
        <time>2016-10-23T06:50:06.000Z</time>
      </trkpt>
      <trkpt lat="47.51959" lon="6.77813">
        <ele>395</ele>
        <time>2016-10-23T06:50:07.000Z</time>
      </trkpt>
      <trkpt lat="47.51958" lon="6.7782">
        <ele>395</ele>
        <time>2016-10-23T06:50:08.000Z</time>
      </trkpt>
      <trkpt lat="47.51959" lon="6.77828">
        <ele>396</ele>
        <time>2016-10-23T06:50:09.000Z</time>
      </trkpt>
      <trkpt lat="47.5196" lon="6.77834">
        <ele>396</ele>
        <time>2016-10-23T06:50:10.000Z</time>
      </trkpt>
      <trkpt lat="47.51961" lon="6.7784">
        <ele>396</ele>
        <time>2016-10-23T06:50:11.000Z</time>
      </trkpt>
      <trkpt lat="47.51964" lon="6.77847">
        <ele>396</ele>
        <time>2016-10-23T06:50:12.000Z</time>
      </trkpt>
      <trkpt lat="47.51967" lon="6.77852">
        <ele>396</ele>
        <time>2016-10-23T06:50:13.000Z</time>
      </trkpt>
      <trkpt lat="47.51969" lon="6.77857">
        <ele>396</ele>
        <time>2016-10-23T06:50:14.000Z</time>
      </trkpt>
      <trkpt lat="47.51971" lon="6.77863">
        <ele>396</ele>
        <time>2016-10-23T06:50:15.000Z</time>
      </trkpt>
      <trkpt lat="47.51973" lon="6.77869">
        <ele>396</ele>
        <time>2016-10-23T06:50:16.000Z</time>
      </trkpt>
      <trkpt lat="47.51975" lon="6.77875">
        <ele>396</ele>
        <time>2016-10-23T06:50:17.000Z</time>
      </trkpt>
      <trkpt lat="47.51977" lon="6.77881">
        <ele>396</ele>
        <time>2016-10-23T06:50:18.000Z</time>
      </trkpt>
      <trkpt lat="47.51979" lon="6.77886">
        <ele>396</ele>
        <time>2016-10-23T06:50:19.000Z</time>
      </trkpt>
      <trkpt lat="47.51982" lon="6.77891">
        <ele>396</ele>
        <time>2016-10-23T06:50:20.000Z</time>
      </trkpt>
      <trkpt lat="47.51985" lon="6.77895">
        <ele>396</ele>
        <time>2016-10-23T06:50:21.000Z</time>
      </trkpt>
      <trkpt lat="47.51988" lon="6.77901">
        <ele>396</ele>
        <time>2016-10-23T06:50:22.000Z</time>
      </trkpt>
      <trkpt lat="47.51991" lon="6.77906">
        <ele>396</ele>
        <time>2016-10-23T06:50:23.000Z</time>
      </trkpt>
      <trkpt lat="47.51994" lon="6.77911">
        <ele>397</ele>
        <time>2016-10-23T06:50:24.000Z</time>
      </trkpt>
      <trkpt lat="47.51998" lon="6.77915">
        <ele>397</ele>
        <time>2016-10-23T06:50:25.000Z</time>
      </trkpt>
      <trkpt lat="47.52001" lon="6.7792">
        <ele>397</ele>
        <time>2016-10-23T06:50:26.000Z</time>
      </trkpt>
      <trkpt lat="47.52004" lon="6.77924">
        <ele>397</ele>
        <time>2016-10-23T06:50:27.000Z</time>
      </trkpt>
      <trkpt lat="47.52007" lon="6.77928">
        <ele>396</ele>
        <time>2016-10-23T06:50:28.000Z</time>
      </trkpt>
      <trkpt lat="47.52011" lon="6.77932">
        <ele>396</ele>
        <time>2016-10-23T06:50:29.000Z</time>
      </trkpt>
      <trkpt lat="47.52013" lon="6.77937">
        <ele>396</ele>
        <time>2016-10-23T06:50:30.000Z</time>
      </trkpt>
      <trkpt lat="47.52015" lon="6.77942">
        <ele>396</ele>
        <time>2016-10-23T06:50:31.000Z</time>
      </trkpt>
      <trkpt lat="47.52017" lon="6.77947">
        <ele>396</ele>
        <time>2016-10-23T06:50:32.000Z</time>
      </trkpt>
      <trkpt lat="47.52019" lon="6.77952">
        <ele>396</ele>
        <time>2016-10-23T06:50:33.000Z</time>
      </trkpt>
      <trkpt lat="47.52021" lon="6.77958">
        <ele>396</ele>
        <time>2016-10-23T06:50:34.000Z</time>
      </trkpt>
      <trkpt lat="47.52023" lon="6.77964">
        <ele>395</ele>
        <time>2016-10-23T06:50:35.000Z</time>
      </trkpt>
      <trkpt lat="47.52024" lon="6.77972">
        <ele>395</ele>
        <time>2016-10-23T06:50:36.000Z</time>
      </trkpt>
      <trkpt lat="47.52025" lon="6.77978">
        <ele>395</ele>
        <time>2016-10-23T06:50:37.000Z</time>
      </trkpt>
      <trkpt lat="47.52025" lon="6.77985">
        <ele>395</ele>
        <time>2016-10-23T06:50:38.000Z</time>
      </trkpt>
      <trkpt lat="47.52027" lon="6.77991">
        <ele>395</ele>
        <time>2016-10-23T06:50:39.000Z</time>
      </trkpt>
      <trkpt lat="47.52028" lon="6.77997">
        <ele>395</ele>
        <time>2016-10-23T06:50:40.000Z</time>
      </trkpt>
      <trkpt lat="47.52028" lon="6.78003">
        <ele>396</ele>
        <time>2016-10-23T06:50:41.000Z</time>
      </trkpt>
      <trkpt lat="47.52027" lon="6.7801">
        <ele>396</ele>
        <time>2016-10-23T06:50:42.000Z</time>
      </trkpt>
      <trkpt lat="47.52026" lon="6.78016">
        <ele>396</ele>
        <time>2016-10-23T06:50:43.000Z</time>
      </trkpt>
      <trkpt lat="47.52023" lon="6.78023">
        <ele>396</ele>
        <time>2016-10-23T06:50:44.000Z</time>
      </trkpt>
      <trkpt lat="47.52021" lon="6.78029">
        <ele>396</ele>
        <time>2016-10-23T06:50:45.000Z</time>
      </trkpt>
      <trkpt lat="47.52018" lon="6.78035">
        <ele>396</ele>
        <time>2016-10-23T06:50:46.000Z</time>
      </trkpt>
      <trkpt lat="47.52014" lon="6.78038">
        <ele>396</ele>
        <time>2016-10-23T06:50:47.000Z</time>
      </trkpt>
      <trkpt lat="47.52011" lon="6.7804">
        <ele>396</ele>
        <time>2016-10-23T06:50:48.000Z</time>
      </trkpt>
      <trkpt lat="47.52007" lon="6.78043">
        <ele>396</ele>
        <time>2016-10-23T06:50:49.000Z</time>
      </trkpt>
      <trkpt lat="47.52003" lon="6.78046">
        <ele>396</ele>
        <time>2016-10-23T06:50:50.000Z</time>
      </trkpt>
      <trkpt lat="47.51998" lon="6.78051">
        <ele>396</ele>
        <time>2016-10-23T06:50:51.000Z</time>
      </trkpt>
      <trkpt lat="47.51994" lon="6.78056">
        <ele>396</ele>
        <time>2016-10-23T06:50:52.000Z</time>
      </trkpt>
      <trkpt lat="47.5199" lon="6.78059">
        <ele>396</ele>
        <time>2016-10-23T06:50:53.000Z</time>
      </trkpt>
      <trkpt lat="47.51985" lon="6.78063">
        <ele>396</ele>
        <time>2016-10-23T06:50:54.002Z</time>
      </trkpt>
      <trkpt lat="47.51981" lon="6.78067">
        <ele>396</ele>
        <time>2016-10-23T06:50:55.000Z</time>
      </trkpt>
      <trkpt lat="47.51978" lon="6.78071">
        <ele>395</ele>
        <time>2016-10-23T06:50:56.000Z</time>
      </trkpt>
      <trkpt lat="47.51974" lon="6.78078">
        <ele>395</ele>
        <time>2016-10-23T06:50:57.000Z</time>
      </trkpt>
      <trkpt lat="47.5197" lon="6.78084">
        <ele>395</ele>
        <time>2016-10-23T06:50:58.000Z</time>
      </trkpt>
      <trkpt lat="47.51965" lon="6.78087">
        <ele>395</ele>
        <time>2016-10-23T06:50:59.000Z</time>
      </trkpt>
      <trkpt lat="47.5196" lon="6.78095">
        <ele>395</ele>
        <time>2016-10-23T06:51:00.000Z</time>
      </trkpt>
      <trkpt lat="47.51958" lon="6.78104">
        <ele>395</ele>
        <time>2016-10-23T06:51:01.000Z</time>
      </trkpt>
      <trkpt lat="47.51956" lon="6.78113">
        <ele>395</ele>
        <time>2016-10-23T06:51:02.000Z</time>
      </trkpt>
      <trkpt lat="47.51959" lon="6.78121">
        <ele>395</ele>
        <time>2016-10-23T06:51:03.000Z</time>
      </trkpt>
      <trkpt lat="47.51962" lon="6.78129">
        <ele>395</ele>
        <time>2016-10-23T06:51:04.000Z</time>
      </trkpt>
      <trkpt lat="47.51965" lon="6.78137">
        <ele>395</ele>
        <time>2016-10-23T06:51:05.000Z</time>
      </trkpt>
      <trkpt lat="47.51968" lon="6.78146">
        <ele>395</ele>
        <time>2016-10-23T06:51:06.001Z</time>
      </trkpt>
      <trkpt lat="47.51972" lon="6.78154">
        <ele>396</ele>
        <time>2016-10-23T06:51:07.000Z</time>
      </trkpt>
      <trkpt lat="47.51976" lon="6.78162">
        <ele>396</ele>
        <time>2016-10-23T06:51:08.000Z</time>
      </trkpt>
      <trkpt lat="47.51979" lon="6.7817">
        <ele>395</ele>
        <time>2016-10-23T06:51:09.000Z</time>
      </trkpt>
      <trkpt lat="47.51982" lon="6.78177">
        <ele>395</ele>
        <time>2016-10-23T06:51:10.000Z</time>
      </trkpt>
      <trkpt lat="47.51984" lon="6.78185">
        <ele>395</ele>
        <time>2016-10-23T06:51:11.000Z</time>
      </trkpt>
      <trkpt lat="47.51987" lon="6.78193">
        <ele>395</ele>
        <time>2016-10-23T06:51:12.000Z</time>
      </trkpt>
      <trkpt lat="47.51988" lon="6.78201">
        <ele>394</ele>
        <time>2016-10-23T06:51:13.000Z</time>
      </trkpt>
      <trkpt lat="47.5199" lon="6.78208">
        <ele>394</ele>
        <time>2016-10-23T06:51:14.000Z</time>
      </trkpt>
      <trkpt lat="47.51992" lon="6.78217">
        <ele>393</ele>
        <time>2016-10-23T06:51:15.000Z</time>
      </trkpt>
      <trkpt lat="47.51994" lon="6.78225">
        <ele>393</ele>
        <time>2016-10-23T06:51:16.000Z</time>
      </trkpt>
      <trkpt lat="47.51997" lon="6.78234">
        <ele>393</ele>
        <time>2016-10-23T06:51:17.000Z</time>
      </trkpt>
      <trkpt lat="47.51996" lon="6.78243">
        <ele>392</ele>
        <time>2016-10-23T06:51:18.000Z</time>
      </trkpt>
      <trkpt lat="47.51996" lon="6.78251">
        <ele>392</ele>
        <time>2016-10-23T06:51:19.000Z</time>
      </trkpt>
      <trkpt lat="47.51998" lon="6.78259">
        <ele>391</ele>
        <time>2016-10-23T06:51:20.000Z</time>
      </trkpt>
      <trkpt lat="47.51999" lon="6.78268">
        <ele>391</ele>
        <time>2016-10-23T06:51:21.000Z</time>
      </trkpt>
      <trkpt lat="47.52001" lon="6.78276">
        <ele>392</ele>
        <time>2016-10-23T06:51:22.000Z</time>
      </trkpt>
      <trkpt lat="47.52005" lon="6.78286">
        <ele>392</ele>
        <time>2016-10-23T06:51:23.000Z</time>
      </trkpt>
      <trkpt lat="47.52008" lon="6.78294">
        <ele>392</ele>
        <time>2016-10-23T06:51:24.000Z</time>
      </trkpt>
      <trkpt lat="47.52009" lon="6.78306">
        <ele>392</ele>
        <time>2016-10-23T06:51:25.000Z</time>
      </trkpt>
      <trkpt lat="47.5201" lon="6.78316">
        <ele>391</ele>
        <time>2016-10-23T06:51:26.000Z</time>
      </trkpt>
      <trkpt lat="47.52013" lon="6.78326">
        <ele>391</ele>
        <time>2016-10-23T06:51:27.000Z</time>
      </trkpt>
      <trkpt lat="47.52017" lon="6.78334">
        <ele>390</ele>
        <time>2016-10-23T06:51:27.998Z</time>
      </trkpt>
      <trkpt lat="47.52019" lon="6.78345">
        <ele>390</ele>
        <time>2016-10-23T06:51:29.000Z</time>
      </trkpt>
      <trkpt lat="47.52022" lon="6.78355">
        <ele>390</ele>
        <time>2016-10-23T06:51:30.000Z</time>
      </trkpt>
      <trkpt lat="47.52025" lon="6.78364">
        <ele>390</ele>
        <time>2016-10-23T06:51:31.000Z</time>
      </trkpt>
      <trkpt lat="47.52027" lon="6.78374">
        <ele>390</ele>
        <time>2016-10-23T06:51:32.000Z</time>
      </trkpt>
      <trkpt lat="47.52031" lon="6.78383">
        <ele>389</ele>
        <time>2016-10-23T06:51:33.000Z</time>
      </trkpt>
      <trkpt lat="47.52034" lon="6.78393">
        <ele>389</ele>
        <time>2016-10-23T06:51:34.000Z</time>
      </trkpt>
      <trkpt lat="47.52036" lon="6.78403">
        <ele>389</ele>
        <time>2016-10-23T06:51:35.000Z</time>
      </trkpt>
      <trkpt lat="47.52038" lon="6.78413">
        <ele>389</ele>
        <time>2016-10-23T06:51:35.999Z</time>
      </trkpt>
      <trkpt lat="47.52043" lon="6.78425">
        <ele>386</ele>
        <time>2016-10-23T06:51:37.000Z</time>
      </trkpt>
      <trkpt lat="47.52046" lon="6.78435">
        <ele>386</ele>
        <time>2016-10-23T06:51:37.999Z</time>
      </trkpt>
      <trkpt lat="47.52048" lon="6.78447">
        <ele>386</ele>
        <time>2016-10-23T06:51:39.000Z</time>
      </trkpt>
      <trkpt lat="47.52052" lon="6.78459">
        <ele>385</ele>
        <time>2016-10-23T06:51:40.000Z</time>
      </trkpt>
      <trkpt lat="47.52054" lon="6.78469">
        <ele>385</ele>
        <time>2016-10-23T06:51:41.000Z</time>
      </trkpt>
      <trkpt lat="47.52058" lon="6.78478">
        <ele>385</ele>
        <time>2016-10-23T06:51:41.999Z</time>
      </trkpt>
      <trkpt lat="47.52061" lon="6.78489">
        <ele>384</ele>
        <time>2016-10-23T06:51:43.000Z</time>
      </trkpt>
      <trkpt lat="47.52064" lon="6.785">
        <ele>384</ele>
        <time>2016-10-23T06:51:44.000Z</time>
      </trkpt>
      <trkpt lat="47.52067" lon="6.78509">
        <ele>382</ele>
        <time>2016-10-23T06:51:45.000Z</time>
      </trkpt>
      <trkpt lat="47.52067" lon="6.7852">
        <ele>381</ele>
        <time>2016-10-23T06:51:46.000Z</time>
      </trkpt>
      <trkpt lat="47.52069" lon="6.78529">
        <ele>381</ele>
        <time>2016-10-23T06:51:47.000Z</time>
      </trkpt>
      <trkpt lat="47.5207" lon="6.78538">
        <ele>380</ele>
        <time>2016-10-23T06:51:48.001Z</time>
      </trkpt>
      <trkpt lat="47.52073" lon="6.78547">
        <ele>380</ele>
        <time>2016-10-23T06:51:49.000Z</time>
      </trkpt>
      <trkpt lat="47.52076" lon="6.78558">
        <ele>380</ele>
        <time>2016-10-23T06:51:50.000Z</time>
      </trkpt>
      <trkpt lat="47.5208" lon="6.78569">
        <ele>380</ele>
        <time>2016-10-23T06:51:51.000Z</time>
      </trkpt>
      <trkpt lat="47.52082" lon="6.78579">
        <ele>380</ele>
        <time>2016-10-23T06:51:52.000Z</time>
      </trkpt>
      <trkpt lat="47.52086" lon="6.78591">
        <ele>378</ele>
        <time>2016-10-23T06:51:53.000Z</time>
      </trkpt>
      <trkpt lat="47.52089" lon="6.78601">
        <ele>377</ele>
        <time>2016-10-23T06:51:54.000Z</time>
      </trkpt>
      <trkpt lat="47.52092" lon="6.78613">
        <ele>376</ele>
        <time>2016-10-23T06:51:55.000Z</time>
      </trkpt>
      <trkpt lat="47.52094" lon="6.78624">
        <ele>375</ele>
        <time>2016-10-23T06:51:56.000Z</time>
      </trkpt>
      <trkpt lat="47.52096" lon="6.78635">
        <ele>374</ele>
        <time>2016-10-23T06:51:57.000Z</time>
      </trkpt>
      <trkpt lat="47.52097" lon="6.78647">
        <ele>373</ele>
        <time>2016-10-23T06:51:58.000Z</time>
      </trkpt>
      <trkpt lat="47.52099" lon="6.7866">
        <ele>373</ele>
        <time>2016-10-23T06:51:59.000Z</time>
      </trkpt>
      <trkpt lat="47.521" lon="6.78671">
        <ele>369</ele>
        <time>2016-10-23T06:52:00.000Z</time>
      </trkpt>
      <trkpt lat="47.52098" lon="6.78684">
        <ele>368</ele>
        <time>2016-10-23T06:52:01.000Z</time>
      </trkpt>
      <trkpt lat="47.52095" lon="6.78697">
        <ele>368</ele>
        <time>2016-10-23T06:52:02.000Z</time>
      </trkpt>
      <trkpt lat="47.52092" lon="6.7871">
        <ele>367</ele>
        <time>2016-10-23T06:52:03.000Z</time>
      </trkpt>
      <trkpt lat="47.52091" lon="6.78724">
        <ele>367</ele>
        <time>2016-10-23T06:52:04.000Z</time>
      </trkpt>
      <trkpt lat="47.52089" lon="6.78737">
        <ele>367</ele>
        <time>2016-10-23T06:52:05.000Z</time>
      </trkpt>
      <trkpt lat="47.52087" lon="6.78751">
        <ele>367</ele>
        <time>2016-10-23T06:52:06.000Z</time>
      </trkpt>
      <trkpt lat="47.52085" lon="6.78765">
        <ele>364</ele>
        <time>2016-10-23T06:52:07.000Z</time>
      </trkpt>
      <trkpt lat="47.52082" lon="6.78779">
        <ele>366</ele>
        <time>2016-10-23T06:52:08.000Z</time>
      </trkpt>
      <trkpt lat="47.5208" lon="6.78792">
        <ele>366</ele>
        <time>2016-10-23T06:52:09.000Z</time>
      </trkpt>
      <trkpt lat="47.52078" lon="6.78805">
        <ele>365</ele>
        <time>2016-10-23T06:52:10.000Z</time>
      </trkpt>
      <trkpt lat="47.52077" lon="6.7882">
        <ele>364</ele>
        <time>2016-10-23T06:52:11.000Z</time>
      </trkpt>
      <trkpt lat="47.52076" lon="6.78834">
        <ele>363</ele>
        <time>2016-10-23T06:52:12.000Z</time>
      </trkpt>
      <trkpt lat="47.52076" lon="6.78848">
        <ele>362</ele>
        <time>2016-10-23T06:52:13.000Z</time>
      </trkpt>
      <trkpt lat="47.52077" lon="6.78861">
        <ele>362</ele>
        <time>2016-10-23T06:52:14.000Z</time>
      </trkpt>
      <trkpt lat="47.52079" lon="6.78876">
        <ele>361</ele>
        <time>2016-10-23T06:52:15.000Z</time>
      </trkpt>
      <trkpt lat="47.52081" lon="6.7889">
        <ele>360</ele>
        <time>2016-10-23T06:52:16.000Z</time>
      </trkpt>
      <trkpt lat="47.52083" lon="6.78904">
        <ele>359</ele>
        <time>2016-10-23T06:52:17.000Z</time>
      </trkpt>
      <trkpt lat="47.52084" lon="6.78918">
        <ele>357</ele>
        <time>2016-10-23T06:52:18.000Z</time>
      </trkpt>
      <trkpt lat="47.52085" lon="6.78932">
        <ele>354</ele>
        <time>2016-10-23T06:52:19.000Z</time>
      </trkpt>
      <trkpt lat="47.52086" lon="6.78945">
        <ele>353</ele>
        <time>2016-10-23T06:52:20.000Z</time>
      </trkpt>
      <trkpt lat="47.52089" lon="6.78959">
        <ele>353</ele>
        <time>2016-10-23T06:52:21.000Z</time>
      </trkpt>
      <trkpt lat="47.52091" lon="6.78973">
        <ele>353</ele>
        <time>2016-10-23T06:52:22.000Z</time>
      </trkpt>
      <trkpt lat="47.52095" lon="6.78988">
        <ele>354</ele>
        <time>2016-10-23T06:52:23.000Z</time>
      </trkpt>
      <trkpt lat="47.52096" lon="6.79003">
        <ele>354</ele>
        <time>2016-10-23T06:52:24.000Z</time>
      </trkpt>
      <trkpt lat="47.52098" lon="6.79017">
        <ele>353</ele>
        <time>2016-10-23T06:52:25.000Z</time>
      </trkpt>
      <trkpt lat="47.521" lon="6.79033">
        <ele>352</ele>
        <time>2016-10-23T06:52:26.000Z</time>
      </trkpt>
      <trkpt lat="47.52104" lon="6.79048">
        <ele>352</ele>
        <time>2016-10-23T06:52:27.000Z</time>
      </trkpt>
      <trkpt lat="47.52106" lon="6.79063">
        <ele>352</ele>
        <time>2016-10-23T06:52:28.000Z</time>
      </trkpt>
      <trkpt lat="47.52109" lon="6.79077">
        <ele>352</ele>
        <time>2016-10-23T06:52:29.000Z</time>
      </trkpt>
      <trkpt lat="47.52111" lon="6.79091">
        <ele>352</ele>
        <time>2016-10-23T06:52:30.000Z</time>
      </trkpt>
      <trkpt lat="47.52115" lon="6.79105">
        <ele>352</ele>
        <time>2016-10-23T06:52:31.000Z</time>
      </trkpt>
      <trkpt lat="47.52119" lon="6.79118">
        <ele>352</ele>
        <time>2016-10-23T06:52:32.000Z</time>
      </trkpt>
      <trkpt lat="47.52123" lon="6.79128">
        <ele>352</ele>
        <time>2016-10-23T06:52:33.000Z</time>
      </trkpt>
      <trkpt lat="47.52127" lon="6.79139">
        <ele>352</ele>
        <time>2016-10-23T06:52:34.000Z</time>
      </trkpt>
      <trkpt lat="47.5213" lon="6.79149">
        <ele>352</ele>
        <time>2016-10-23T06:52:35.000Z</time>
      </trkpt>
      <trkpt lat="47.52135" lon="6.79159">
        <ele>352</ele>
        <time>2016-10-23T06:52:36.000Z</time>
      </trkpt>
      <trkpt lat="47.52138" lon="6.79169">
        <ele>352</ele>
        <time>2016-10-23T06:52:37.000Z</time>
      </trkpt>
      <trkpt lat="47.52141" lon="6.7918">
        <ele>352</ele>
        <time>2016-10-23T06:52:38.000Z</time>
      </trkpt>
      <trkpt lat="47.52145" lon="6.7919">
        <ele>352</ele>
        <time>2016-10-23T06:52:39.000Z</time>
      </trkpt>
      <trkpt lat="47.52148" lon="6.792">
        <ele>352</ele>
        <time>2016-10-23T06:52:40.000Z</time>
      </trkpt>
      <trkpt lat="47.52152" lon="6.7921">
        <ele>352</ele>
        <time>2016-10-23T06:52:41.000Z</time>
      </trkpt>
      <trkpt lat="47.52155" lon="6.79219">
        <ele>352</ele>
        <time>2016-10-23T06:52:42.000Z</time>
      </trkpt>
      <trkpt lat="47.5216" lon="6.79227">
        <ele>352</ele>
        <time>2016-10-23T06:52:43.000Z</time>
      </trkpt>
      <trkpt lat="47.52165" lon="6.79233">
        <ele>351</ele>
        <time>2016-10-23T06:52:44.000Z</time>
      </trkpt>
      <trkpt lat="47.52171" lon="6.79235">
        <ele>350</ele>
        <time>2016-10-23T06:52:45.000Z</time>
      </trkpt>
      <trkpt lat="47.52178" lon="6.79232">
        <ele>350</ele>
        <time>2016-10-23T06:52:46.000Z</time>
      </trkpt>
      <trkpt lat="47.52185" lon="6.79227">
        <ele>350</ele>
        <time>2016-10-23T06:52:47.000Z</time>
      </trkpt>
      <trkpt lat="47.52193" lon="6.79224">
        <ele>350</ele>
        <time>2016-10-23T06:52:48.000Z</time>
      </trkpt>
      <trkpt lat="47.522" lon="6.7922">
        <ele>349</ele>
        <time>2016-10-23T06:52:49.000Z</time>
      </trkpt>
      <trkpt lat="47.52207" lon="6.79216">
        <ele>349</ele>
        <time>2016-10-23T06:52:50.000Z</time>
      </trkpt>
      <trkpt lat="47.52214" lon="6.79217">
        <ele>349</ele>
        <time>2016-10-23T06:52:51.000Z</time>
      </trkpt>
      <trkpt lat="47.52221" lon="6.79216">
        <ele>349</ele>
        <time>2016-10-23T06:52:52.000Z</time>
      </trkpt>
      <trkpt lat="47.52228" lon="6.79217">
        <ele>349</ele>
        <time>2016-10-23T06:52:53.000Z</time>
      </trkpt>
      <trkpt lat="47.52236" lon="6.79218">
        <ele>349</ele>
        <time>2016-10-23T06:52:54.000Z</time>
      </trkpt>
      <trkpt lat="47.52243" lon="6.7922">
        <ele>349</ele>
        <time>2016-10-23T06:52:55.000Z</time>
      </trkpt>
      <trkpt lat="47.52251" lon="6.79221">
        <ele>345</ele>
        <time>2016-10-23T06:52:56.000Z</time>
      </trkpt>
      <trkpt lat="47.52259" lon="6.7922">
        <ele>345</ele>
        <time>2016-10-23T06:52:57.000Z</time>
      </trkpt>
      <trkpt lat="47.52267" lon="6.79223">
        <ele>345</ele>
        <time>2016-10-23T06:52:58.000Z</time>
      </trkpt>
      <trkpt lat="47.52275" lon="6.79224">
        <ele>345</ele>
        <time>2016-10-23T06:52:59.000Z</time>
      </trkpt>
      <trkpt lat="47.52284" lon="6.79229">
        <ele>345</ele>
        <time>2016-10-23T06:53:00.000Z</time>
      </trkpt>
      <trkpt lat="47.52292" lon="6.79236">
        <ele>344</ele>
        <time>2016-10-23T06:53:01.000Z</time>
      </trkpt>
      <trkpt lat="47.52298" lon="6.79243">
        <ele>344</ele>
        <time>2016-10-23T06:53:02.000Z</time>
      </trkpt>
      <trkpt lat="47.52304" lon="6.79251">
        <ele>345</ele>
        <time>2016-10-23T06:53:03.000Z</time>
      </trkpt>
      <trkpt lat="47.5231" lon="6.79259">
        <ele>345</ele>
        <time>2016-10-23T06:53:04.001Z</time>
      </trkpt>
      <trkpt lat="47.52315" lon="6.79268">
        <ele>345</ele>
        <time>2016-10-23T06:53:05.000Z</time>
      </trkpt>
      <trkpt lat="47.52318" lon="6.79278">
        <ele>345</ele>
        <time>2016-10-23T06:53:06.000Z</time>
      </trkpt>
      <trkpt lat="47.52323" lon="6.79288">
        <ele>346</ele>
        <time>2016-10-23T06:53:07.000Z</time>
      </trkpt>
      <trkpt lat="47.52328" lon="6.79296">
        <ele>346</ele>
        <time>2016-10-23T06:53:08.000Z</time>
      </trkpt>
      <trkpt lat="47.52332" lon="6.79305">
        <ele>346</ele>
        <time>2016-10-23T06:53:09.000Z</time>
      </trkpt>
      <trkpt lat="47.52337" lon="6.79315">
        <ele>344</ele>
        <time>2016-10-23T06:53:10.000Z</time>
      </trkpt>
      <trkpt lat="47.52342" lon="6.79323">
        <ele>345</ele>
        <time>2016-10-23T06:53:11.000Z</time>
      </trkpt>
      <trkpt lat="47.52345" lon="6.79332">
        <ele>345</ele>
        <time>2016-10-23T06:53:12.000Z</time>
      </trkpt>
      <trkpt lat="47.5235" lon="6.7934">
        <ele>345</ele>
        <time>2016-10-23T06:53:13.000Z</time>
      </trkpt>
      <trkpt lat="47.52353" lon="6.79348">
        <ele>345</ele>
        <time>2016-10-23T06:53:14.000Z</time>
      </trkpt>
      <trkpt lat="47.52357" lon="6.79356">
        <ele>345</ele>
        <time>2016-10-23T06:53:15.000Z</time>
      </trkpt>
      <trkpt lat="47.52362" lon="6.79364">
        <ele>345</ele>
        <time>2016-10-23T06:53:16.000Z</time>
      </trkpt>
      <trkpt lat="47.52365" lon="6.79372">
        <ele>344</ele>
        <time>2016-10-23T06:53:17.000Z</time>
      </trkpt>
      <trkpt lat="47.5237" lon="6.7938">
        <ele>344</ele>
        <time>2016-10-23T06:53:18.000Z</time>
      </trkpt>
      <trkpt lat="47.52374" lon="6.79388">
        <ele>344</ele>
        <time>2016-10-23T06:53:19.000Z</time>
      </trkpt>
      <trkpt lat="47.52378" lon="6.79396">
        <ele>344</ele>
        <time>2016-10-23T06:53:20.000Z</time>
      </trkpt>
      <trkpt lat="47.52383" lon="6.79403">
        <ele>344</ele>
        <time>2016-10-23T06:53:21.000Z</time>
      </trkpt>
      <trkpt lat="47.52388" lon="6.79412">
        <ele>343</ele>
        <time>2016-10-23T06:53:22.000Z</time>
      </trkpt>
      <trkpt lat="47.52393" lon="6.79419">
        <ele>343</ele>
        <time>2016-10-23T06:53:23.000Z</time>
      </trkpt>
      <trkpt lat="47.52397" lon="6.79427">
        <ele>343</ele>
        <time>2016-10-23T06:53:24.000Z</time>
      </trkpt>
      <trkpt lat="47.52402" lon="6.79436">
        <ele>343</ele>
        <time>2016-10-23T06:53:25.000Z</time>
      </trkpt>
      <trkpt lat="47.52407" lon="6.79445">
        <ele>343</ele>
        <time>2016-10-23T06:53:26.000Z</time>
      </trkpt>
      <trkpt lat="47.52413" lon="6.79452">
        <ele>344</ele>
        <time>2016-10-23T06:53:27.000Z</time>
      </trkpt>
      <trkpt lat="47.52419" lon="6.79458">
        <ele>341</ele>
        <time>2016-10-23T06:53:28.000Z</time>
      </trkpt>
      <trkpt lat="47.52426" lon="6.79464">
        <ele>341</ele>
        <time>2016-10-23T06:53:29.000Z</time>
      </trkpt>
      <trkpt lat="47.52431" lon="6.79471">
        <ele>341</ele>
        <time>2016-10-23T06:53:30.000Z</time>
      </trkpt>
      <trkpt lat="47.52438" lon="6.79477">
        <ele>341</ele>
        <time>2016-10-23T06:53:31.000Z</time>
      </trkpt>
      <trkpt lat="47.52444" lon="6.79484">
        <ele>341</ele>
        <time>2016-10-23T06:53:32.000Z</time>
      </trkpt>
      <trkpt lat="47.5245" lon="6.7949">
        <ele>340</ele>
        <time>2016-10-23T06:53:33.000Z</time>
      </trkpt>
      <trkpt lat="47.52456" lon="6.79496">
        <ele>340</ele>
        <time>2016-10-23T06:53:34.000Z</time>
      </trkpt>
      <trkpt lat="47.52463" lon="6.79501">
        <ele>340</ele>
        <time>2016-10-23T06:53:35.000Z</time>
      </trkpt>
      <trkpt lat="47.5247" lon="6.79507">
        <ele>340</ele>
        <time>2016-10-23T06:53:36.000Z</time>
      </trkpt>
      <trkpt lat="47.52477" lon="6.79513">
        <ele>339</ele>
        <time>2016-10-23T06:53:37.000Z</time>
      </trkpt>
      <trkpt lat="47.52484" lon="6.79518">
        <ele>339</ele>
        <time>2016-10-23T06:53:38.000Z</time>
      </trkpt>
      <trkpt lat="47.52491" lon="6.79524">
        <ele>339</ele>
        <time>2016-10-23T06:53:39.000Z</time>
      </trkpt>
      <trkpt lat="47.525" lon="6.79531">
        <ele>339</ele>
        <time>2016-10-23T06:53:40.000Z</time>
      </trkpt>
      <trkpt lat="47.52507" lon="6.79539">
        <ele>336</ele>
        <time>2016-10-23T06:53:41.000Z</time>
      </trkpt>
      <trkpt lat="47.52514" lon="6.7955">
        <ele>336</ele>
        <time>2016-10-23T06:53:42.000Z</time>
      </trkpt>
      <trkpt lat="47.5252" lon="6.79562">
        <ele>336</ele>
        <time>2016-10-23T06:53:43.000Z</time>
      </trkpt>
      <trkpt lat="47.52534" lon="6.79586">
        <ele>332</ele>
        <time>2016-10-23T06:53:45.000Z</time>
      </trkpt>
      <trkpt lat="47.52542" lon="6.79597">
        <ele>331</ele>
        <time>2016-10-23T06:53:46.000Z</time>
      </trkpt>
      <trkpt lat="47.5255" lon="6.79606">
        <ele>330</ele>
        <time>2016-10-23T06:53:47.000Z</time>
      </trkpt>
      <trkpt lat="47.52558" lon="6.79615">
        <ele>330</ele>
        <time>2016-10-23T06:53:48.000Z</time>
      </trkpt>
      <trkpt lat="47.52565" lon="6.79624">
        <ele>329</ele>
        <time>2016-10-23T06:53:49.000Z</time>
      </trkpt>
      <trkpt lat="47.52572" lon="6.79631">
        <ele>328</ele>
        <time>2016-10-23T06:53:50.000Z</time>
      </trkpt>
      <trkpt lat="47.52577" lon="6.79638">
        <ele>327</ele>
        <time>2016-10-23T06:53:51.000Z</time>
      </trkpt>
      <trkpt lat="47.52579" lon="6.79643">
        <ele>327</ele>
        <time>2016-10-23T06:53:52.000Z</time>
      </trkpt>
      <trkpt lat="47.52579" lon="6.79647">
        <ele>326</ele>
        <time>2016-10-23T06:53:53.000Z</time>
      </trkpt>
      <trkpt lat="47.5258" lon="6.79652">
        <ele>326</ele>
        <time>2016-10-23T06:53:54.000Z</time>
      </trkpt>
      <trkpt lat="47.52582" lon="6.79656">
        <ele>325</ele>
        <time>2016-10-23T06:53:55.000Z</time>
      </trkpt>
      <trkpt lat="47.52587" lon="6.79658">
        <ele>324</ele>
        <time>2016-10-23T06:53:56.000Z</time>
      </trkpt>
      <trkpt lat="47.52592" lon="6.79658">
        <ele>324</ele>
        <time>2016-10-23T06:53:57.000Z</time>
      </trkpt>
      <trkpt lat="47.52598" lon="6.79658">
        <ele>325</ele>
        <time>2016-10-23T06:53:58.000Z</time>
      </trkpt>
      <trkpt lat="47.52603" lon="6.79659">
        <ele>325</ele>
        <time>2016-10-23T06:53:59.000Z</time>
      </trkpt>
      <trkpt lat="47.52609" lon="6.79659">
        <ele>325</ele>
        <time>2016-10-23T06:54:00.000Z</time>
      </trkpt>
      <trkpt lat="47.52615" lon="6.7966">
        <ele>326</ele>
        <time>2016-10-23T06:54:01.000Z</time>
      </trkpt>
      <trkpt lat="47.52621" lon="6.7966">
        <ele>326</ele>
        <time>2016-10-23T06:54:02.000Z</time>
      </trkpt>
      <trkpt lat="47.52627" lon="6.79662">
        <ele>326</ele>
        <time>2016-10-23T06:54:03.000Z</time>
      </trkpt>
      <trkpt lat="47.52633" lon="6.79662">
        <ele>326</ele>
        <time>2016-10-23T06:54:04.000Z</time>
      </trkpt>
      <trkpt lat="47.52639" lon="6.79664">
        <ele>326</ele>
        <time>2016-10-23T06:54:05.000Z</time>
      </trkpt>
      <trkpt lat="47.52645" lon="6.79665">
        <ele>326</ele>
        <time>2016-10-23T06:54:06.000Z</time>
      </trkpt>
      <trkpt lat="47.52652" lon="6.79667">
        <ele>324</ele>
        <time>2016-10-23T06:54:07.000Z</time>
      </trkpt>
      <trkpt lat="47.52658" lon="6.79668">
        <ele>324</ele>
        <time>2016-10-23T06:54:08.000Z</time>
      </trkpt>
      <trkpt lat="47.52664" lon="6.7967">
        <ele>325</ele>
        <time>2016-10-23T06:54:09.000Z</time>
      </trkpt>
      <trkpt lat="47.52671" lon="6.79671">
        <ele>325</ele>
        <time>2016-10-23T06:54:10.000Z</time>
      </trkpt>
      <trkpt lat="47.52676" lon="6.79673">
        <ele>324</ele>
        <time>2016-10-23T06:54:11.000Z</time>
      </trkpt>
      <trkpt lat="47.52681" lon="6.79678">
        <ele>324</ele>
        <time>2016-10-23T06:54:12.000Z</time>
      </trkpt>
      <trkpt lat="47.52685" lon="6.79684">
        <ele>324</ele>
        <time>2016-10-23T06:54:13.000Z</time>
      </trkpt>
      <trkpt lat="47.52687" lon="6.79694">
        <ele>323</ele>
        <time>2016-10-23T06:54:14.000Z</time>
      </trkpt>
      <trkpt lat="47.52687" lon="6.79706">
        <ele>323</ele>
        <time>2016-10-23T06:54:15.000Z</time>
      </trkpt>
      <trkpt lat="47.52687" lon="6.79717">
        <ele>323</ele>
        <time>2016-10-23T06:54:16.000Z</time>
      </trkpt>
      <trkpt lat="47.52685" lon="6.79724">
        <ele>322</ele>
        <time>2016-10-23T06:54:17.000Z</time>
      </trkpt>
      <trkpt lat="47.5268" lon="6.79729">
        <ele>322</ele>
        <time>2016-10-23T06:54:18.000Z</time>
      </trkpt>
      <trkpt lat="47.52677" lon="6.79736">
        <ele>322</ele>
        <time>2016-10-23T06:54:19.001Z</time>
      </trkpt>
      <trkpt lat="47.52672" lon="6.7974">
        <ele>321</ele>
        <time>2016-10-23T06:54:20.000Z</time>
      </trkpt>
      <trkpt lat="47.52669" lon="6.79747">
        <ele>320</ele>
        <time>2016-10-23T06:54:21.000Z</time>
      </trkpt>
      <trkpt lat="47.52659" lon="6.79752">
        <ele>320</ele>
        <time>2016-10-23T06:54:22.000Z</time>
      </trkpt>
      <trkpt lat="47.52651" lon="6.7976">
        <ele>320</ele>
        <time>2016-10-23T06:54:23.000Z</time>
      </trkpt>
      <trkpt lat="47.52646" lon="6.79767">
        <ele>320</ele>
        <time>2016-10-23T06:54:24.000Z</time>
      </trkpt>
      <trkpt lat="47.5264" lon="6.79774">
        <ele>320</ele>
        <time>2016-10-23T06:54:25.000Z</time>
      </trkpt>
      <trkpt lat="47.52636" lon="6.79781">
        <ele>320</ele>
        <time>2016-10-23T06:54:26.000Z</time>
      </trkpt>
      <trkpt lat="47.52632" lon="6.79789">
        <ele>320</ele>
        <time>2016-10-23T06:54:27.000Z</time>
      </trkpt>
      <trkpt lat="47.52628" lon="6.79796">
        <ele>320</ele>
        <time>2016-10-23T06:54:28.000Z</time>
      </trkpt>
      <trkpt lat="47.52623" lon="6.79804">
        <ele>320</ele>
        <time>2016-10-23T06:54:29.000Z</time>
      </trkpt>
      <trkpt lat="47.52618" lon="6.79808">
        <ele>320</ele>
        <time>2016-10-23T06:54:30.000Z</time>
      </trkpt>
      <trkpt lat="47.52613" lon="6.79813">
        <ele>320</ele>
        <time>2016-10-23T06:54:31.000Z</time>
      </trkpt>
      <trkpt lat="47.52608" lon="6.79816">
        <ele>320</ele>
        <time>2016-10-23T06:54:32.000Z</time>
      </trkpt>
      <trkpt lat="47.52602" lon="6.79819">
        <ele>320</ele>
        <time>2016-10-23T06:54:33.000Z</time>
      </trkpt>
      <trkpt lat="47.52596" lon="6.79812">
        <ele>320</ele>
        <time>2016-10-23T06:54:34.000Z</time>
      </trkpt>
      <trkpt lat="47.52589" lon="6.79808">
        <ele>320</ele>
        <time>2016-10-23T06:54:35.000Z</time>
      </trkpt>
      <trkpt lat="47.52584" lon="6.79807">
        <ele>320</ele>
        <time>2016-10-23T06:54:36.000Z</time>
      </trkpt>
      <trkpt lat="47.52579" lon="6.79805">
        <ele>320</ele>
        <time>2016-10-23T06:54:37.000Z</time>
      </trkpt>
      <trkpt lat="47.52572" lon="6.79802">
        <ele>320</ele>
        <time>2016-10-23T06:54:38.000Z</time>
      </trkpt>
      <trkpt lat="47.52566" lon="6.79801">
        <ele>320</ele>
        <time>2016-10-23T06:54:39.001Z</time>
      </trkpt>
      <trkpt lat="47.52559" lon="6.79803">
        <ele>320</ele>
        <time>2016-10-23T06:54:40.000Z</time>
      </trkpt>
      <trkpt lat="47.52551" lon="6.79803">
        <ele>320</ele>
        <time>2016-10-23T06:54:41.000Z</time>
      </trkpt>
      <trkpt lat="47.52545" lon="6.79804">
        <ele>320</ele>
        <time>2016-10-23T06:54:42.000Z</time>
      </trkpt>
      <trkpt lat="47.52538" lon="6.79806">
        <ele>320</ele>
        <time>2016-10-23T06:54:43.000Z</time>
      </trkpt>
      <trkpt lat="47.52532" lon="6.79808">
        <ele>320</ele>
        <time>2016-10-23T06:54:44.000Z</time>
      </trkpt>
      <trkpt lat="47.52527" lon="6.7981">
        <ele>320</ele>
        <time>2016-10-23T06:54:45.000Z</time>
      </trkpt>
      <trkpt lat="47.5252" lon="6.79812">
        <ele>320</ele>
        <time>2016-10-23T06:54:46.000Z</time>
      </trkpt>
      <trkpt lat="47.52514" lon="6.79815">
        <ele>320</ele>
        <time>2016-10-23T06:54:47.000Z</time>
      </trkpt>
      <trkpt lat="47.52508" lon="6.79817">
        <ele>320</ele>
        <time>2016-10-23T06:54:48.000Z</time>
      </trkpt>
      <trkpt lat="47.52503" lon="6.79818">
        <ele>320</ele>
        <time>2016-10-23T06:54:49.000Z</time>
      </trkpt>
      <trkpt lat="47.52497" lon="6.79821">
        <ele>320</ele>
        <time>2016-10-23T06:54:50.000Z</time>
      </trkpt>
      <trkpt lat="47.52492" lon="6.79822">
        <ele>320</ele>
        <time>2016-10-23T06:54:51.000Z</time>
      </trkpt>
      <trkpt lat="47.52486" lon="6.79825">
        <ele>320</ele>
        <time>2016-10-23T06:54:52.000Z</time>
      </trkpt>
      <trkpt lat="47.52481" lon="6.79828">
        <ele>320</ele>
        <time>2016-10-23T06:54:53.000Z</time>
      </trkpt>
      <trkpt lat="47.52476" lon="6.7983">
        <ele>320</ele>
        <time>2016-10-23T06:54:54.000Z</time>
      </trkpt>
      <trkpt lat="47.5247" lon="6.79832">
        <ele>320</ele>
        <time>2016-10-23T06:54:55.000Z</time>
      </trkpt>
      <trkpt lat="47.52465" lon="6.79834">
        <ele>319</ele>
        <time>2016-10-23T06:54:56.000Z</time>
      </trkpt>
      <trkpt lat="47.52461" lon="6.79837">
        <ele>319</ele>
        <time>2016-10-23T06:54:57.000Z</time>
      </trkpt>
      <trkpt lat="47.52455" lon="6.7984">
        <ele>319</ele>
        <time>2016-10-23T06:54:58.000Z</time>
      </trkpt>
      <trkpt lat="47.52449" lon="6.79842">
        <ele>319</ele>
        <time>2016-10-23T06:54:59.000Z</time>
      </trkpt>
      <trkpt lat="47.52443" lon="6.79845">
        <ele>319</ele>
        <time>2016-10-23T06:55:00.000Z</time>
      </trkpt>
      <trkpt lat="47.52438" lon="6.79849">
        <ele>319</ele>
        <time>2016-10-23T06:55:01.000Z</time>
      </trkpt>
      <trkpt lat="47.52433" lon="6.79852">
        <ele>319</ele>
        <time>2016-10-23T06:55:02.000Z</time>
      </trkpt>
      <trkpt lat="47.52428" lon="6.79856">
        <ele>319</ele>
        <time>2016-10-23T06:55:03.000Z</time>
      </trkpt>
      <trkpt lat="47.52423" lon="6.79859">
        <ele>319</ele>
        <time>2016-10-23T06:55:04.000Z</time>
      </trkpt>
      <trkpt lat="47.52419" lon="6.79862">
        <ele>319</ele>
        <time>2016-10-23T06:55:05.000Z</time>
      </trkpt>
      <trkpt lat="47.52415" lon="6.79867">
        <ele>320</ele>
        <time>2016-10-23T06:55:06.000Z</time>
      </trkpt>
      <trkpt lat="47.52411" lon="6.79871">
        <ele>320</ele>
        <time>2016-10-23T06:55:07.000Z</time>
      </trkpt>
      <trkpt lat="47.52407" lon="6.79877">
        <ele>320</ele>
        <time>2016-10-23T06:55:08.000Z</time>
      </trkpt>
      <trkpt lat="47.52404" lon="6.79882">
        <ele>320</ele>
        <time>2016-10-23T06:55:09.000Z</time>
      </trkpt>
      <trkpt lat="47.52401" lon="6.79888">
        <ele>320</ele>
        <time>2016-10-23T06:55:10.000Z</time>
      </trkpt>
      <trkpt lat="47.524" lon="6.79892">
        <ele>320</ele>
        <time>2016-10-23T06:55:11.000Z</time>
      </trkpt>
      <trkpt lat="47.52397" lon="6.79898">
        <ele>320</ele>
        <time>2016-10-23T06:55:12.000Z</time>
      </trkpt>
      <trkpt lat="47.52394" lon="6.79904">
        <ele>320</ele>
        <time>2016-10-23T06:55:12.999Z</time>
      </trkpt>
      <trkpt lat="47.52392" lon="6.7991">
        <ele>320</ele>
        <time>2016-10-23T06:55:14.001Z</time>
      </trkpt>
      <trkpt lat="47.52389" lon="6.79918">
        <ele>319</ele>
        <time>2016-10-23T06:55:15.000Z</time>
      </trkpt>
      <trkpt lat="47.52388" lon="6.79925">
        <ele>319</ele>
        <time>2016-10-23T06:55:16.000Z</time>
      </trkpt>
      <trkpt lat="47.52386" lon="6.79932">
        <ele>319</ele>
        <time>2016-10-23T06:55:17.000Z</time>
      </trkpt>
      <trkpt lat="47.52384" lon="6.7994">
        <ele>319</ele>
        <time>2016-10-23T06:55:18.000Z</time>
      </trkpt>
      <trkpt lat="47.52383" lon="6.79947">
        <ele>319</ele>
        <time>2016-10-23T06:55:19.000Z</time>
      </trkpt>
      <trkpt lat="47.52382" lon="6.79954">
        <ele>319</ele>
        <time>2016-10-23T06:55:20.000Z</time>
      </trkpt>
      <trkpt lat="47.52381" lon="6.79962">
        <ele>319</ele>
        <time>2016-10-23T06:55:21.000Z</time>
      </trkpt>
      <trkpt lat="47.52381" lon="6.79969">
        <ele>319</ele>
        <time>2016-10-23T06:55:22.000Z</time>
      </trkpt>
      <trkpt lat="47.52381" lon="6.79976">
        <ele>319</ele>
        <time>2016-10-23T06:55:23.000Z</time>
      </trkpt>
      <trkpt lat="47.52378" lon="6.79983">
        <ele>319</ele>
        <time>2016-10-23T06:55:24.000Z</time>
      </trkpt>
      <trkpt lat="47.52378" lon="6.79991">
        <ele>319</ele>
        <time>2016-10-23T06:55:25.000Z</time>
      </trkpt>
      <trkpt lat="47.52377" lon="6.79998">
        <ele>319</ele>
        <time>2016-10-23T06:55:26.000Z</time>
      </trkpt>
      <trkpt lat="47.52376" lon="6.80005">
        <ele>319</ele>
        <time>2016-10-23T06:55:27.000Z</time>
      </trkpt>
      <trkpt lat="47.52376" lon="6.80013">
        <ele>319</ele>
        <time>2016-10-23T06:55:28.000Z</time>
      </trkpt>
      <trkpt lat="47.52375" lon="6.80021">
        <ele>319</ele>
        <time>2016-10-23T06:55:29.000Z</time>
      </trkpt>
      <trkpt lat="47.52375" lon="6.80028">
        <ele>319</ele>
        <time>2016-10-23T06:55:30.000Z</time>
      </trkpt>
      <trkpt lat="47.52375" lon="6.80035">
        <ele>319</ele>
        <time>2016-10-23T06:55:31.000Z</time>
      </trkpt>
      <trkpt lat="47.52375" lon="6.80041">
        <ele>319</ele>
        <time>2016-10-23T06:55:32.000Z</time>
      </trkpt>
      <trkpt lat="47.52374" lon="6.80048">
        <ele>319</ele>
        <time>2016-10-23T06:55:33.000Z</time>
      </trkpt>
      <trkpt lat="47.52373" lon="6.80056">
        <ele>319</ele>
        <time>2016-10-23T06:55:33.999Z</time>
      </trkpt>
      <trkpt lat="47.52373" lon="6.80062">
        <ele>319</ele>
        <time>2016-10-23T06:55:35.000Z</time>
      </trkpt>
      <trkpt lat="47.52372" lon="6.8007">
        <ele>319</ele>
        <time>2016-10-23T06:55:36.000Z</time>
      </trkpt>
      <trkpt lat="47.52371" lon="6.80077">
        <ele>319</ele>
        <time>2016-10-23T06:55:37.000Z</time>
      </trkpt>
      <trkpt lat="47.5237" lon="6.80084">
        <ele>319</ele>
        <time>2016-10-23T06:55:38.001Z</time>
      </trkpt>
      <trkpt lat="47.52369" lon="6.80091">
        <ele>319</ele>
        <time>2016-10-23T06:55:39.000Z</time>
      </trkpt>
      <trkpt lat="47.52366" lon="6.80099">
        <ele>319</ele>
        <time>2016-10-23T06:55:40.000Z</time>
      </trkpt>
      <trkpt lat="47.52365" lon="6.80107">
        <ele>319</ele>
        <time>2016-10-23T06:55:41.000Z</time>
      </trkpt>
      <trkpt lat="47.52364" lon="6.80115">
        <ele>319</ele>
        <time>2016-10-23T06:55:42.001Z</time>
      </trkpt>
      <trkpt lat="47.52363" lon="6.80122">
        <ele>319</ele>
        <time>2016-10-23T06:55:43.001Z</time>
      </trkpt>
      <trkpt lat="47.52363" lon="6.80129">
        <ele>319</ele>
        <time>2016-10-23T06:55:44.000Z</time>
      </trkpt>
      <trkpt lat="47.52363" lon="6.80137">
        <ele>318</ele>
        <time>2016-10-23T06:55:44.999Z</time>
      </trkpt>
      <trkpt lat="47.52364" lon="6.80144">
        <ele>318</ele>
        <time>2016-10-23T06:55:46.000Z</time>
      </trkpt>
      <trkpt lat="47.52363" lon="6.80152">
        <ele>318</ele>
        <time>2016-10-23T06:55:47.000Z</time>
      </trkpt>
      <trkpt lat="47.52363" lon="6.8016">
        <ele>318</ele>
        <time>2016-10-23T06:55:48.000Z</time>
      </trkpt>
      <trkpt lat="47.52362" lon="6.80168">
        <ele>318</ele>
        <time>2016-10-23T06:55:49.000Z</time>
      </trkpt>
      <trkpt lat="47.52362" lon="6.80175">
        <ele>318</ele>
        <time>2016-10-23T06:55:50.000Z</time>
      </trkpt>
      <trkpt lat="47.52362" lon="6.80183">
        <ele>318</ele>
        <time>2016-10-23T06:55:50.999Z</time>
      </trkpt>
      <trkpt lat="47.52362" lon="6.8019">
        <ele>318</ele>
        <time>2016-10-23T06:55:52.000Z</time>
      </trkpt>
      <trkpt lat="47.52361" lon="6.80197">
        <ele>318</ele>
        <time>2016-10-23T06:55:53.000Z</time>
      </trkpt>
      <trkpt lat="47.5236" lon="6.80203">
        <ele>318</ele>
        <time>2016-10-23T06:55:54.000Z</time>
      </trkpt>
      <trkpt lat="47.52359" lon="6.8021">
        <ele>318</ele>
        <time>2016-10-23T06:55:54.999Z</time>
      </trkpt>
      <trkpt lat="47.52358" lon="6.80217">
        <ele>318</ele>
        <time>2016-10-23T06:55:56.000Z</time>
      </trkpt>
      <trkpt lat="47.52358" lon="6.80225">
        <ele>319</ele>
        <time>2016-10-23T06:55:57.000Z</time>
      </trkpt>
      <trkpt lat="47.52358" lon="6.80234">
        <ele>319</ele>
        <time>2016-10-23T06:55:58.000Z</time>
      </trkpt>
      <trkpt lat="47.52358" lon="6.8024">
        <ele>319</ele>
        <time>2016-10-23T06:55:59.000Z</time>
      </trkpt>
      <trkpt lat="47.52357" lon="6.80248">
        <ele>319</ele>
        <time>2016-10-23T06:56:00.000Z</time>
      </trkpt>
      <trkpt lat="47.52356" lon="6.80257">
        <ele>319</ele>
        <time>2016-10-23T06:56:01.000Z</time>
      </trkpt>
      <trkpt lat="47.52355" lon="6.80264">
        <ele>319</ele>
        <time>2016-10-23T06:56:02.000Z</time>
      </trkpt>
      <trkpt lat="47.52355" lon="6.80273">
        <ele>319</ele>
        <time>2016-10-23T06:56:03.000Z</time>
      </trkpt>
      <trkpt lat="47.52354" lon="6.80281">
        <ele>319</ele>
        <time>2016-10-23T06:56:04.000Z</time>
      </trkpt>
      <trkpt lat="47.52354" lon="6.80288">
        <ele>319</ele>
        <time>2016-10-23T06:56:05.000Z</time>
      </trkpt>
      <trkpt lat="47.52354" lon="6.80295">
        <ele>319</ele>
        <time>2016-10-23T06:56:06.000Z</time>
      </trkpt>
      <trkpt lat="47.52354" lon="6.80304">
        <ele>319</ele>
        <time>2016-10-23T06:56:07.000Z</time>
      </trkpt>
      <trkpt lat="47.52353" lon="6.80312">
        <ele>319</ele>
        <time>2016-10-23T06:56:08.000Z</time>
      </trkpt>
      <trkpt lat="47.52352" lon="6.80318">
        <ele>320</ele>
        <time>2016-10-23T06:56:09.000Z</time>
      </trkpt>
      <trkpt lat="47.52352" lon="6.80324">
        <ele>320</ele>
        <time>2016-10-23T06:56:10.000Z</time>
      </trkpt>
      <trkpt lat="47.52352" lon="6.80331">
        <ele>320</ele>
        <time>2016-10-23T06:56:11.000Z</time>
      </trkpt>
      <trkpt lat="47.52351" lon="6.80338">
        <ele>321</ele>
        <time>2016-10-23T06:56:12.000Z</time>
      </trkpt>
      <trkpt lat="47.5235" lon="6.80345">
        <ele>321</ele>
        <time>2016-10-23T06:56:13.001Z</time>
      </trkpt>
      <trkpt lat="47.52349" lon="6.80353">
        <ele>321</ele>
        <time>2016-10-23T06:56:14.000Z</time>
      </trkpt>
      <trkpt lat="47.52348" lon="6.8036">
        <ele>321</ele>
        <time>2016-10-23T06:56:15.000Z</time>
      </trkpt>
      <trkpt lat="47.52348" lon="6.80367">
        <ele>321</ele>
        <time>2016-10-23T06:56:16.000Z</time>
      </trkpt>
      <trkpt lat="47.52348" lon="6.80376">
        <ele>321</ele>
        <time>2016-10-23T06:56:17.000Z</time>
      </trkpt>
      <trkpt lat="47.52348" lon="6.80385">
        <ele>321</ele>
        <time>2016-10-23T06:56:18.000Z</time>
      </trkpt>
      <trkpt lat="47.52347" lon="6.80393">
        <ele>321</ele>
        <time>2016-10-23T06:56:19.000Z</time>
      </trkpt>
      <trkpt lat="47.52347" lon="6.80401">
        <ele>321</ele>
        <time>2016-10-23T06:56:20.000Z</time>
      </trkpt>
      <trkpt lat="47.52347" lon="6.80409">
        <ele>320</ele>
        <time>2016-10-23T06:56:20.999Z</time>
      </trkpt>
      <trkpt lat="47.52347" lon="6.80416">
        <ele>320</ele>
        <time>2016-10-23T06:56:22.000Z</time>
      </trkpt>
      <trkpt lat="47.52347" lon="6.80425">
        <ele>323</ele>
        <time>2016-10-23T06:56:23.000Z</time>
      </trkpt>
      <trkpt lat="47.52347" lon="6.80432">
        <ele>324</ele>
        <time>2016-10-23T06:56:24.000Z</time>
      </trkpt>
      <trkpt lat="47.52348" lon="6.80439">
        <ele>325</ele>
        <time>2016-10-23T06:56:25.000Z</time>
      </trkpt>
      <trkpt lat="47.52348" lon="6.80447">
        <ele>326</ele>
        <time>2016-10-23T06:56:26.000Z</time>
      </trkpt>
      <trkpt lat="47.52349" lon="6.80455">
        <ele>326</ele>
        <time>2016-10-23T06:56:27.000Z</time>
      </trkpt>
      <trkpt lat="47.5235" lon="6.80463">
        <ele>327</ele>
        <time>2016-10-23T06:56:28.000Z</time>
      </trkpt>
      <trkpt lat="47.52351" lon="6.80472">
        <ele>327</ele>
        <time>2016-10-23T06:56:29.000Z</time>
      </trkpt>
      <trkpt lat="47.52351" lon="6.8048">
        <ele>327</ele>
        <time>2016-10-23T06:56:30.000Z</time>
      </trkpt>
      <trkpt lat="47.52352" lon="6.80489">
        <ele>327</ele>
        <time>2016-10-23T06:56:31.000Z</time>
      </trkpt>
      <trkpt lat="47.52352" lon="6.80496">
        <ele>327</ele>
        <time>2016-10-23T06:56:32.000Z</time>
      </trkpt>
      <trkpt lat="47.52355" lon="6.80505">
        <ele>330</ele>
        <time>2016-10-23T06:56:33.000Z</time>
      </trkpt>
      <trkpt lat="47.52357" lon="6.80515">
        <ele>331</ele>
        <time>2016-10-23T06:56:34.000Z</time>
      </trkpt>
      <trkpt lat="47.52359" lon="6.80523">
        <ele>331</ele>
        <time>2016-10-23T06:56:35.000Z</time>
      </trkpt>
      <trkpt lat="47.52363" lon="6.80533">
        <ele>332</ele>
        <time>2016-10-23T06:56:36.000Z</time>
      </trkpt>
      <trkpt lat="47.52365" lon="6.80543">
        <ele>332</ele>
        <time>2016-10-23T06:56:37.000Z</time>
      </trkpt>
      <trkpt lat="47.52366" lon="6.80551">
        <ele>332</ele>
        <time>2016-10-23T06:56:38.000Z</time>
      </trkpt>
      <trkpt lat="47.52369" lon="6.8056">
        <ele>332</ele>
        <time>2016-10-23T06:56:39.000Z</time>
      </trkpt>
      <trkpt lat="47.52372" lon="6.80569">
        <ele>333</ele>
        <time>2016-10-23T06:56:40.000Z</time>
      </trkpt>
      <trkpt lat="47.52374" lon="6.80579">
        <ele>333</ele>
        <time>2016-10-23T06:56:41.000Z</time>
      </trkpt>
      <trkpt lat="47.52376" lon="6.80589">
        <ele>332</ele>
        <time>2016-10-23T06:56:42.000Z</time>
      </trkpt>
      <trkpt lat="47.52379" lon="6.80598">
        <ele>332</ele>
        <time>2016-10-23T06:56:43.000Z</time>
      </trkpt>
      <trkpt lat="47.52382" lon="6.80607">
        <ele>333</ele>
        <time>2016-10-23T06:56:44.000Z</time>
      </trkpt>
      <trkpt lat="47.52384" lon="6.80617">
        <ele>332</ele>
        <time>2016-10-23T06:56:45.000Z</time>
      </trkpt>
      <trkpt lat="47.52387" lon="6.80626">
        <ele>332</ele>
        <time>2016-10-23T06:56:46.000Z</time>
      </trkpt>
      <trkpt lat="47.52391" lon="6.80634">
        <ele>332</ele>
        <time>2016-10-23T06:56:47.000Z</time>
      </trkpt>
      <trkpt lat="47.52394" lon="6.80643">
        <ele>332</ele>
        <time>2016-10-23T06:56:48.000Z</time>
      </trkpt>
      <trkpt lat="47.52396" lon="6.80651">
        <ele>332</ele>
        <time>2016-10-23T06:56:49.000Z</time>
      </trkpt>
      <trkpt lat="47.52399" lon="6.80661">
        <ele>332</ele>
        <time>2016-10-23T06:56:50.000Z</time>
      </trkpt>
      <trkpt lat="47.52401" lon="6.8067">
        <ele>332</ele>
        <time>2016-10-23T06:56:51.000Z</time>
      </trkpt>
      <trkpt lat="47.52404" lon="6.80679">
        <ele>331</ele>
        <time>2016-10-23T06:56:52.000Z</time>
      </trkpt>
      <trkpt lat="47.52406" lon="6.80687">
        <ele>331</ele>
        <time>2016-10-23T06:56:53.000Z</time>
      </trkpt>
      <trkpt lat="47.52409" lon="6.80696">
        <ele>331</ele>
        <time>2016-10-23T06:56:54.000Z</time>
      </trkpt>
      <trkpt lat="47.52412" lon="6.80705">
        <ele>331</ele>
        <time>2016-10-23T06:56:55.000Z</time>
      </trkpt>
      <trkpt lat="47.52415" lon="6.80713">
        <ele>330</ele>
        <time>2016-10-23T06:56:56.000Z</time>
      </trkpt>
      <trkpt lat="47.52418" lon="6.80722">
        <ele>337</ele>
        <time>2016-10-23T06:56:57.000Z</time>
      </trkpt>
      <trkpt lat="47.52421" lon="6.8073">
        <ele>336</ele>
        <time>2016-10-23T06:56:58.000Z</time>
      </trkpt>
      <trkpt lat="47.52423" lon="6.80738">
        <ele>334</ele>
        <time>2016-10-23T06:56:59.000Z</time>
      </trkpt>
      <trkpt lat="47.52426" lon="6.80746">
        <ele>333</ele>
        <time>2016-10-23T06:57:00.000Z</time>
      </trkpt>
      <trkpt lat="47.52429" lon="6.80754">
        <ele>332</ele>
        <time>2016-10-23T06:57:01.000Z</time>
      </trkpt>
      <trkpt lat="47.52431" lon="6.80763">
        <ele>333</ele>
        <time>2016-10-23T06:57:02.000Z</time>
      </trkpt>
      <trkpt lat="47.52434" lon="6.80771">
        <ele>334</ele>
        <time>2016-10-23T06:57:03.000Z</time>
      </trkpt>
      <trkpt lat="47.52436" lon="6.8078">
        <ele>334</ele>
        <time>2016-10-23T06:57:04.000Z</time>
      </trkpt>
      <trkpt lat="47.52439" lon="6.80787">
        <ele>334</ele>
        <time>2016-10-23T06:57:05.000Z</time>
      </trkpt>
      <trkpt lat="47.52441" lon="6.80795">
        <ele>334</ele>
        <time>2016-10-23T06:57:06.000Z</time>
      </trkpt>
      <trkpt lat="47.52443" lon="6.80802">
        <ele>334</ele>
        <time>2016-10-23T06:57:07.000Z</time>
      </trkpt>
      <trkpt lat="47.52446" lon="6.8081">
        <ele>334</ele>
        <time>2016-10-23T06:57:08.000Z</time>
      </trkpt>
      <trkpt lat="47.52448" lon="6.80817">
        <ele>334</ele>
        <time>2016-10-23T06:57:09.000Z</time>
      </trkpt>
      <trkpt lat="47.52451" lon="6.80825">
        <ele>334</ele>
        <time>2016-10-23T06:57:10.000Z</time>
      </trkpt>
      <trkpt lat="47.52454" lon="6.80832">
        <ele>334</ele>
        <time>2016-10-23T06:57:11.000Z</time>
      </trkpt>
      <trkpt lat="47.52456" lon="6.8084">
        <ele>332</ele>
        <time>2016-10-23T06:57:12.000Z</time>
      </trkpt>
      <trkpt lat="47.52458" lon="6.80846">
        <ele>332</ele>
        <time>2016-10-23T06:57:13.000Z</time>
      </trkpt>
      <trkpt lat="47.52459" lon="6.80853">
        <ele>332</ele>
        <time>2016-10-23T06:57:14.000Z</time>
      </trkpt>
      <trkpt lat="47.52461" lon="6.80861">
        <ele>332</ele>
        <time>2016-10-23T06:57:15.000Z</time>
      </trkpt>
      <trkpt lat="47.52463" lon="6.80869">
        <ele>332</ele>
        <time>2016-10-23T06:57:16.000Z</time>
      </trkpt>
      <trkpt lat="47.52465" lon="6.80878">
        <ele>332</ele>
        <time>2016-10-23T06:57:17.000Z</time>
      </trkpt>
      <trkpt lat="47.52467" lon="6.80886">
        <ele>332</ele>
        <time>2016-10-23T06:57:18.000Z</time>
      </trkpt>
      <trkpt lat="47.52467" lon="6.80894">
        <ele>332</ele>
        <time>2016-10-23T06:57:19.000Z</time>
      </trkpt>
      <trkpt lat="47.52469" lon="6.80902">
        <ele>332</ele>
        <time>2016-10-23T06:57:20.000Z</time>
      </trkpt>
      <trkpt lat="47.5247" lon="6.8091">
        <ele>332</ele>
        <time>2016-10-23T06:57:21.000Z</time>
      </trkpt>
      <trkpt lat="47.52471" lon="6.80919">
        <ele>330</ele>
        <time>2016-10-23T06:57:22.000Z</time>
      </trkpt>
      <trkpt lat="47.52473" lon="6.80928">
        <ele>330</ele>
        <time>2016-10-23T06:57:23.000Z</time>
      </trkpt>
      <trkpt lat="47.52473" lon="6.80936">
        <ele>329</ele>
        <time>2016-10-23T06:57:24.000Z</time>
      </trkpt>
      <trkpt lat="47.52474" lon="6.80943">
        <ele>329</ele>
        <time>2016-10-23T06:57:25.000Z</time>
      </trkpt>
      <trkpt lat="47.52474" lon="6.80951">
        <ele>329</ele>
        <time>2016-10-23T06:57:26.000Z</time>
      </trkpt>
      <trkpt lat="47.52475" lon="6.80959">
        <ele>328</ele>
        <time>2016-10-23T06:57:27.000Z</time>
      </trkpt>
      <trkpt lat="47.52475" lon="6.80967">
        <ele>328</ele>
        <time>2016-10-23T06:57:28.000Z</time>
      </trkpt>
      <trkpt lat="47.52475" lon="6.80975">
        <ele>328</ele>
        <time>2016-10-23T06:57:29.000Z</time>
      </trkpt>
      <trkpt lat="47.52475" lon="6.80982">
        <ele>328</ele>
        <time>2016-10-23T06:57:30.000Z</time>
      </trkpt>
      <trkpt lat="47.52475" lon="6.8099">
        <ele>327</ele>
        <time>2016-10-23T06:57:31.000Z</time>
      </trkpt>
      <trkpt lat="47.52475" lon="6.80998">
        <ele>327</ele>
        <time>2016-10-23T06:57:32.000Z</time>
      </trkpt>
      <trkpt lat="47.52475" lon="6.81005">
        <ele>325</ele>
        <time>2016-10-23T06:57:33.000Z</time>
      </trkpt>
      <trkpt lat="47.52475" lon="6.81013">
        <ele>325</ele>
        <time>2016-10-23T06:57:34.000Z</time>
      </trkpt>
      <trkpt lat="47.52476" lon="6.8102">
        <ele>325</ele>
        <time>2016-10-23T06:57:35.000Z</time>
      </trkpt>
      <trkpt lat="47.52476" lon="6.81027">
        <ele>325</ele>
        <time>2016-10-23T06:57:36.000Z</time>
      </trkpt>
      <trkpt lat="47.52476" lon="6.81034">
        <ele>325</ele>
        <time>2016-10-23T06:57:37.000Z</time>
      </trkpt>
      <trkpt lat="47.52476" lon="6.81042">
        <ele>325</ele>
        <time>2016-10-23T06:57:38.000Z</time>
      </trkpt>
      <trkpt lat="47.52475" lon="6.81049">
        <ele>325</ele>
        <time>2016-10-23T06:57:39.000Z</time>
      </trkpt>
      <trkpt lat="47.52473" lon="6.81057">
        <ele>325</ele>
        <time>2016-10-23T06:57:40.000Z</time>
      </trkpt>
      <trkpt lat="47.5247" lon="6.81065">
        <ele>325</ele>
        <time>2016-10-23T06:57:41.000Z</time>
      </trkpt>
      <trkpt lat="47.52468" lon="6.81072">
        <ele>325</ele>
        <time>2016-10-23T06:57:42.000Z</time>
      </trkpt>
      <trkpt lat="47.52466" lon="6.8108">
        <ele>325</ele>
        <time>2016-10-23T06:57:43.000Z</time>
      </trkpt>
      <trkpt lat="47.52464" lon="6.81086">
        <ele>324</ele>
        <time>2016-10-23T06:57:44.000Z</time>
      </trkpt>
      <trkpt lat="47.52461" lon="6.81093">
        <ele>324</ele>
        <time>2016-10-23T06:57:45.000Z</time>
      </trkpt>
      <trkpt lat="47.52459" lon="6.81099">
        <ele>324</ele>
        <time>2016-10-23T06:57:46.000Z</time>
      </trkpt>
      <trkpt lat="47.52456" lon="6.81104">
        <ele>324</ele>
        <time>2016-10-23T06:57:47.000Z</time>
      </trkpt>
      <trkpt lat="47.52454" lon="6.8111">
        <ele>324</ele>
        <time>2016-10-23T06:57:48.000Z</time>
      </trkpt>
      <trkpt lat="47.52451" lon="6.81115">
        <ele>324</ele>
        <time>2016-10-23T06:57:48.999Z</time>
      </trkpt>
      <trkpt lat="47.52447" lon="6.81119">
        <ele>324</ele>
        <time>2016-10-23T06:57:50.000Z</time>
      </trkpt>
      <trkpt lat="47.52445" lon="6.81124">
        <ele>324</ele>
        <time>2016-10-23T06:57:51.000Z</time>
      </trkpt>
      <trkpt lat="47.52441" lon="6.8113">
        <ele>324</ele>
        <time>2016-10-23T06:57:52.000Z</time>
      </trkpt>
      <trkpt lat="47.52438" lon="6.81136">
        <ele>324</ele>
        <time>2016-10-23T06:57:53.000Z</time>
      </trkpt>
      <trkpt lat="47.52435" lon="6.81141">
        <ele>324</ele>
        <time>2016-10-23T06:57:54.000Z</time>
      </trkpt>
      <trkpt lat="47.5244" lon="6.81149">
        <ele>324</ele>
        <time>2016-10-23T06:57:55.000Z</time>
      </trkpt>
      <trkpt lat="47.52441" lon="6.81156">
        <ele>324</ele>
        <time>2016-10-23T06:57:56.000Z</time>
      </trkpt>
      <trkpt lat="47.52442" lon="6.81163">
        <ele>324</ele>
        <time>2016-10-23T06:57:57.000Z</time>
      </trkpt>
      <trkpt lat="47.52445" lon="6.81172">
        <ele>325</ele>
        <time>2016-10-23T06:57:58.000Z</time>
      </trkpt>
      <trkpt lat="47.5245" lon="6.81178">
        <ele>325</ele>
        <time>2016-10-23T06:57:59.000Z</time>
      </trkpt>
      <trkpt lat="47.52454" lon="6.81183">
        <ele>325</ele>
        <time>2016-10-23T06:58:00.000Z</time>
      </trkpt>
      <trkpt lat="47.52458" lon="6.81186">
        <ele>325</ele>
        <time>2016-10-23T06:58:01.000Z</time>
      </trkpt>
      <trkpt lat="47.52462" lon="6.81191">
        <ele>325</ele>
        <time>2016-10-23T06:58:02.001Z</time>
      </trkpt>
      <trkpt lat="47.52466" lon="6.81194">
        <ele>325</ele>
        <time>2016-10-23T06:58:03.000Z</time>
      </trkpt>
      <trkpt lat="47.52473" lon="6.81194">
        <ele>325</ele>
        <time>2016-10-23T06:58:04.000Z</time>
      </trkpt>
      <trkpt lat="47.52478" lon="6.81196">
        <ele>325</ele>
        <time>2016-10-23T06:58:05.000Z</time>
      </trkpt>
      <trkpt lat="47.52484" lon="6.81196">
        <ele>325</ele>
        <time>2016-10-23T06:58:06.000Z</time>
      </trkpt>
      <trkpt lat="47.52489" lon="6.81195">
        <ele>325</ele>
        <time>2016-10-23T06:58:07.000Z</time>
      </trkpt>
      <trkpt lat="47.52495" lon="6.81195">
        <ele>325</ele>
        <time>2016-10-23T06:58:07.999Z</time>
      </trkpt>
      <trkpt lat="47.525" lon="6.81194">
        <ele>325</ele>
        <time>2016-10-23T06:58:09.000Z</time>
      </trkpt>
      <trkpt lat="47.52505" lon="6.81193">
        <ele>325</ele>
        <time>2016-10-23T06:58:09.999Z</time>
      </trkpt>
      <trkpt lat="47.52511" lon="6.81194">
        <ele>325</ele>
        <time>2016-10-23T06:58:11.000Z</time>
      </trkpt>
      <trkpt lat="47.52515" lon="6.81194">
        <ele>325</ele>
        <time>2016-10-23T06:58:12.000Z</time>
      </trkpt>
      <trkpt lat="47.52519" lon="6.81193">
        <ele>325</ele>
        <time>2016-10-23T06:58:13.000Z</time>
      </trkpt>
      <trkpt lat="47.52525" lon="6.81194">
        <ele>326</ele>
        <time>2016-10-23T06:58:14.000Z</time>
      </trkpt>
      <trkpt lat="47.52531" lon="6.81195">
        <ele>326</ele>
        <time>2016-10-23T06:58:15.000Z</time>
      </trkpt>
      <trkpt lat="47.52536" lon="6.81195">
        <ele>326</ele>
        <time>2016-10-23T06:58:16.000Z</time>
      </trkpt>
      <trkpt lat="47.52542" lon="6.81196">
        <ele>326</ele>
        <time>2016-10-23T06:58:17.000Z</time>
      </trkpt>
      <trkpt lat="47.52543" lon="6.81203">
        <ele>326</ele>
        <time>2016-10-23T06:58:18.000Z</time>
      </trkpt>
      <trkpt lat="47.52547" lon="6.81208">
        <ele>326</ele>
        <time>2016-10-23T06:58:19.000Z</time>
      </trkpt>
      <trkpt lat="47.52549" lon="6.81212">
        <ele>326</ele>
        <time>2016-10-23T06:58:20.000Z</time>
      </trkpt>
      <trkpt lat="47.52553" lon="6.81218">
        <ele>326</ele>
        <time>2016-10-23T06:58:21.000Z</time>
      </trkpt>
      <trkpt lat="47.52555" lon="6.81223">
        <ele>326</ele>
        <time>2016-10-23T06:58:22.000Z</time>
      </trkpt>
      <trkpt lat="47.52558" lon="6.8123">
        <ele>326</ele>
        <time>2016-10-23T06:58:23.000Z</time>
      </trkpt>
      <trkpt lat="47.52561" lon="6.81238">
        <ele>326</ele>
        <time>2016-10-23T06:58:24.000Z</time>
      </trkpt>
      <trkpt lat="47.52565" lon="6.81243">
        <ele>326</ele>
        <time>2016-10-23T06:58:25.000Z</time>
      </trkpt>
      <trkpt lat="47.52568" lon="6.8125">
        <ele>325</ele>
        <time>2016-10-23T06:58:26.000Z</time>
      </trkpt>
      <trkpt lat="47.52571" lon="6.81255">
        <ele>326</ele>
        <time>2016-10-23T06:58:27.000Z</time>
      </trkpt>
      <trkpt lat="47.52574" lon="6.81261">
        <ele>326</ele>
        <time>2016-10-23T06:58:28.001Z</time>
      </trkpt>
      <trkpt lat="47.52578" lon="6.81266">
        <ele>326</ele>
        <time>2016-10-23T06:58:29.001Z</time>
      </trkpt>
      <trkpt lat="47.52581" lon="6.81272">
        <ele>326</ele>
        <time>2016-10-23T06:58:30.000Z</time>
      </trkpt>
      <trkpt lat="47.52584" lon="6.81277">
        <ele>325</ele>
        <time>2016-10-23T06:58:31.000Z</time>
      </trkpt>
      <trkpt lat="47.52587" lon="6.81283">
        <ele>325</ele>
        <time>2016-10-23T06:58:32.000Z</time>
      </trkpt>
      <trkpt lat="47.5259" lon="6.81287">
        <ele>325</ele>
        <time>2016-10-23T06:58:33.000Z</time>
      </trkpt>
      <trkpt lat="47.52593" lon="6.81293">
        <ele>325</ele>
        <time>2016-10-23T06:58:34.001Z</time>
      </trkpt>
      <trkpt lat="47.52594" lon="6.81299">
        <ele>325</ele>
        <time>2016-10-23T06:58:35.000Z</time>
      </trkpt>
      <trkpt lat="47.52597" lon="6.81304">
        <ele>325</ele>
        <time>2016-10-23T06:58:36.000Z</time>
      </trkpt>
      <trkpt lat="47.52598" lon="6.8131">
        <ele>325</ele>
        <time>2016-10-23T06:58:37.000Z</time>
      </trkpt>
      <trkpt lat="47.52601" lon="6.81316">
        <ele>325</ele>
        <time>2016-10-23T06:58:38.000Z</time>
      </trkpt>
      <trkpt lat="47.52604" lon="6.81322">
        <ele>325</ele>
        <time>2016-10-23T06:58:39.000Z</time>
      </trkpt>
      <trkpt lat="47.52608" lon="6.81328">
        <ele>325</ele>
        <time>2016-10-23T06:58:40.000Z</time>
      </trkpt>
      <trkpt lat="47.52611" lon="6.81334">
        <ele>325</ele>
        <time>2016-10-23T06:58:41.000Z</time>
      </trkpt>
      <trkpt lat="47.52615" lon="6.81339">
        <ele>325</ele>
        <time>2016-10-23T06:58:42.000Z</time>
      </trkpt>
      <trkpt lat="47.52618" lon="6.81345">
        <ele>325</ele>
        <time>2016-10-23T06:58:43.000Z</time>
      </trkpt>
      <trkpt lat="47.52622" lon="6.81351">
        <ele>325</ele>
        <time>2016-10-23T06:58:44.000Z</time>
      </trkpt>
      <trkpt lat="47.52624" lon="6.81354">
        <ele>325</ele>
        <time>2016-10-23T06:58:45.000Z</time>
      </trkpt>
      <trkpt lat="47.52627" lon="6.8136">
        <ele>325</ele>
        <time>2016-10-23T06:58:46.000Z</time>
      </trkpt>
      <trkpt lat="47.5263" lon="6.81366">
        <ele>325</ele>
        <time>2016-10-23T06:58:46.998Z</time>
      </trkpt>
      <trkpt lat="47.52632" lon="6.81371">
        <ele>325</ele>
        <time>2016-10-23T06:58:48.000Z</time>
      </trkpt>
      <trkpt lat="47.52634" lon="6.81377">
        <ele>325</ele>
        <time>2016-10-23T06:58:49.000Z</time>
      </trkpt>
      <trkpt lat="47.52635" lon="6.81384">
        <ele>325</ele>
        <time>2016-10-23T06:58:50.000Z</time>
      </trkpt>
      <trkpt lat="47.52636" lon="6.81391">
        <ele>325</ele>
        <time>2016-10-23T06:58:50.999Z</time>
      </trkpt>
      <trkpt lat="47.52636" lon="6.81398">
        <ele>325</ele>
        <time>2016-10-23T06:58:52.000Z</time>
      </trkpt>
      <trkpt lat="47.52638" lon="6.81403">
        <ele>325</ele>
        <time>2016-10-23T06:58:53.000Z</time>
      </trkpt>
      <trkpt lat="47.52641" lon="6.81407">
        <ele>325</ele>
        <time>2016-10-23T06:58:55.000Z</time>
      </trkpt>
      <trkpt lat="47.52643" lon="6.81409">
        <ele>325</ele>
        <time>2016-10-23T06:58:56.000Z</time>
      </trkpt>
      <trkpt lat="47.52645" lon="6.81413">
        <ele>325</ele>
        <time>2016-10-23T06:58:59.000Z</time>
      </trkpt>
      <trkpt lat="47.52646" lon="6.81414">
        <ele>325</ele>
        <time>2016-10-23T06:59:00.000Z</time>
      </trkpt>
      <trkpt lat="47.52649" lon="6.81418">
        <ele>325</ele>
        <time>2016-10-23T06:59:03.000Z</time>
      </trkpt>
      <trkpt lat="47.5265" lon="6.8142">
        <ele>325</ele>
        <time>2016-10-23T06:59:04.000Z</time>
      </trkpt>
      <trkpt lat="47.52653" lon="6.81422">
        <ele>325</ele>
        <time>2016-10-23T06:59:06.000Z</time>
      </trkpt>
      <trkpt lat="47.52655" lon="6.81423">
        <ele>325</ele>
        <time>2016-10-23T06:59:07.000Z</time>
      </trkpt>
      <trkpt lat="47.52658" lon="6.81426">
        <ele>325</ele>
        <time>2016-10-23T06:59:11.000Z</time>
      </trkpt>
      <trkpt lat="47.52659" lon="6.81428">
        <ele>325</ele>
        <time>2016-10-23T06:59:12.000Z</time>
      </trkpt>
      <trkpt lat="47.52662" lon="6.81432">
        <ele>325</ele>
        <time>2016-10-23T06:59:15.000Z</time>
      </trkpt>
      <trkpt lat="47.52662" lon="6.81433">
        <ele>325</ele>
        <time>2016-10-23T06:59:16.000Z</time>
      </trkpt>
      <trkpt lat="47.52665" lon="6.81438">
        <ele>325</ele>
        <time>2016-10-23T06:59:23.000Z</time>
      </trkpt>
      <trkpt lat="47.52666" lon="6.8144">
        <ele>325</ele>
        <time>2016-10-23T06:59:24.000Z</time>
      </trkpt>
      <trkpt lat="47.52667" lon="6.81444">
        <ele>325</ele>
        <time>2016-10-23T06:59:26.000Z</time>
      </trkpt>
      <trkpt lat="47.52668" lon="6.81446">
        <ele>325</ele>
        <time>2016-10-23T06:59:27.000Z</time>
      </trkpt>
      <trkpt lat="47.5267" lon="6.81451">
        <ele>325</ele>
        <time>2016-10-23T06:59:29.000Z</time>
      </trkpt>
      <trkpt lat="47.52671" lon="6.81454">
        <ele>325</ele>
        <time>2016-10-23T06:59:30.000Z</time>
      </trkpt>
      <trkpt lat="47.52672" lon="6.81459">
        <ele>326</ele>
        <time>2016-10-23T06:59:32.000Z</time>
      </trkpt>
      <trkpt lat="47.52672" lon="6.81462">
        <ele>326</ele>
        <time>2016-10-23T06:59:33.000Z</time>
      </trkpt>
      <trkpt lat="47.52674" lon="6.81468">
        <ele>326</ele>
        <time>2016-10-23T06:59:36.000Z</time>
      </trkpt>
      <trkpt lat="47.52675" lon="6.81469">
        <ele>326</ele>
        <time>2016-10-23T06:59:37.000Z</time>
      </trkpt>
      <trkpt lat="47.52678" lon="6.81472">
        <ele>326</ele>
        <time>2016-10-23T06:59:39.000Z</time>
      </trkpt>
      <trkpt lat="47.52681" lon="6.81473">
        <ele>326</ele>
        <time>2016-10-23T06:59:40.000Z</time>
      </trkpt>
      <trkpt lat="47.52684" lon="6.81473">
        <ele>326</ele>
        <time>2016-10-23T06:59:41.000Z</time>
      </trkpt>
      <trkpt lat="47.52689" lon="6.81472">
        <ele>326</ele>
        <time>2016-10-23T06:59:42.000Z</time>
      </trkpt>
      <trkpt lat="47.52693" lon="6.81472">
        <ele>326</ele>
        <time>2016-10-23T06:59:43.000Z</time>
      </trkpt>
      <trkpt lat="47.52698" lon="6.81473">
        <ele>326</ele>
        <time>2016-10-23T06:59:44.000Z</time>
      </trkpt>
      <trkpt lat="47.52702" lon="6.81475">
        <ele>326</ele>
        <time>2016-10-23T06:59:45.000Z</time>
      </trkpt>
      <trkpt lat="47.52706" lon="6.81477">
        <ele>326</ele>
        <time>2016-10-23T06:59:46.000Z</time>
      </trkpt>
      <trkpt lat="47.5271" lon="6.81481">
        <ele>326</ele>
        <time>2016-10-23T06:59:47.000Z</time>
      </trkpt>
      <trkpt lat="47.52713" lon="6.81484">
        <ele>326</ele>
        <time>2016-10-23T06:59:48.000Z</time>
      </trkpt>
      <trkpt lat="47.52716" lon="6.81488">
        <ele>326</ele>
        <time>2016-10-23T06:59:48.999Z</time>
      </trkpt>
      <trkpt lat="47.52717" lon="6.81494">
        <ele>326</ele>
        <time>2016-10-23T06:59:50.000Z</time>
      </trkpt>
      <trkpt lat="47.52719" lon="6.81499">
        <ele>326</ele>
        <time>2016-10-23T06:59:51.000Z</time>
      </trkpt>
      <trkpt lat="47.5272" lon="6.81504">
        <ele>326</ele>
        <time>2016-10-23T06:59:51.999Z</time>
      </trkpt>
      <trkpt lat="47.52718" lon="6.8151">
        <ele>326</ele>
        <time>2016-10-23T06:59:53.000Z</time>
      </trkpt>
      <trkpt lat="47.52717" lon="6.81515">
        <ele>326</ele>
        <time>2016-10-23T06:59:54.000Z</time>
      </trkpt>
      <trkpt lat="47.52713" lon="6.81521">
        <ele>326</ele>
        <time>2016-10-23T06:59:55.000Z</time>
      </trkpt>
      <trkpt lat="47.52712" lon="6.81526">
        <ele>326</ele>
        <time>2016-10-23T06:59:56.000Z</time>
      </trkpt>
      <trkpt lat="47.5271" lon="6.81531">
        <ele>326</ele>
        <time>2016-10-23T06:59:57.000Z</time>
      </trkpt>
      <trkpt lat="47.52711" lon="6.81536">
        <ele>326</ele>
        <time>2016-10-23T06:59:58.000Z</time>
      </trkpt>
      <trkpt lat="47.52714" lon="6.8154">
        <ele>326</ele>
        <time>2016-10-23T06:59:59.000Z</time>
      </trkpt>
      <trkpt lat="47.52715" lon="6.81544">
        <ele>326</ele>
        <time>2016-10-23T07:00:00.000Z</time>
      </trkpt>
      <trkpt lat="47.52717" lon="6.81549">
        <ele>326</ele>
        <time>2016-10-23T07:00:01.001Z</time>
      </trkpt>
      <trkpt lat="47.52717" lon="6.81554">
        <ele>326</ele>
        <time>2016-10-23T07:00:02.001Z</time>
      </trkpt>
      <trkpt lat="47.52706" lon="6.81567">
        <ele>326</ele>
        <time>2016-10-23T07:00:03.001Z</time>
      </trkpt>
      <trkpt lat="47.52703" lon="6.81576">
        <ele>326</ele>
        <time>2016-10-23T07:00:04.000Z</time>
      </trkpt>
      <trkpt lat="47.527" lon="6.81583">
        <ele>326</ele>
        <time>2016-10-23T07:00:05.000Z</time>
      </trkpt>
      <trkpt lat="47.52697" lon="6.8159">
        <ele>326</ele>
        <time>2016-10-23T07:00:06.000Z</time>
      </trkpt>
      <trkpt lat="47.52695" lon="6.81599">
        <ele>326</ele>
        <time>2016-10-23T07:00:07.000Z</time>
      </trkpt>
      <trkpt lat="47.52692" lon="6.81605">
        <ele>326</ele>
        <time>2016-10-23T07:00:08.000Z</time>
      </trkpt>
      <trkpt lat="47.52691" lon="6.81611">
        <ele>326</ele>
        <time>2016-10-23T07:00:09.000Z</time>
      </trkpt>
      <trkpt lat="47.52691" lon="6.81616">
        <ele>326</ele>
        <time>2016-10-23T07:00:10.000Z</time>
      </trkpt>
      <trkpt lat="47.52691" lon="6.81621">
        <ele>326</ele>
        <time>2016-10-23T07:00:11.000Z</time>
      </trkpt>
      <trkpt lat="47.52691" lon="6.81626">
        <ele>326</ele>
        <time>2016-10-23T07:00:12.001Z</time>
      </trkpt>
      <trkpt lat="47.52688" lon="6.81629">
        <ele>326</ele>
        <time>2016-10-23T07:00:13.000Z</time>
      </trkpt>
      <trkpt lat="47.52688" lon="6.81638">
        <ele>326</ele>
        <time>2016-10-23T07:00:14.000Z</time>
      </trkpt>
      <trkpt lat="47.52687" lon="6.81645">
        <ele>326</ele>
        <time>2016-10-23T07:00:15.000Z</time>
      </trkpt>
      <trkpt lat="47.52687" lon="6.81653">
        <ele>326</ele>
        <time>2016-10-23T07:00:16.000Z</time>
      </trkpt>
      <trkpt lat="47.52687" lon="6.8166">
        <ele>326</ele>
        <time>2016-10-23T07:00:17.000Z</time>
      </trkpt>
      <trkpt lat="47.52688" lon="6.81667">
        <ele>326</ele>
        <time>2016-10-23T07:00:18.000Z</time>
      </trkpt>
      <trkpt lat="47.52689" lon="6.81676">
        <ele>326</ele>
        <time>2016-10-23T07:00:19.000Z</time>
      </trkpt>
      <trkpt lat="47.52691" lon="6.81684">
        <ele>326</ele>
        <time>2016-10-23T07:00:20.000Z</time>
      </trkpt>
      <trkpt lat="47.52691" lon="6.81694">
        <ele>326</ele>
        <time>2016-10-23T07:00:21.000Z</time>
      </trkpt>
      <trkpt lat="47.52693" lon="6.81701">
        <ele>326</ele>
        <time>2016-10-23T07:00:22.000Z</time>
      </trkpt>
      <trkpt lat="47.52695" lon="6.81709">
        <ele>327</ele>
        <time>2016-10-23T07:00:22.999Z</time>
      </trkpt>
      <trkpt lat="47.52697" lon="6.81715">
        <ele>327</ele>
        <time>2016-10-23T07:00:24.000Z</time>
      </trkpt>
      <trkpt lat="47.527" lon="6.81724">
        <ele>327</ele>
        <time>2016-10-23T07:00:25.000Z</time>
      </trkpt>
      <trkpt lat="47.52701" lon="6.81731">
        <ele>327</ele>
        <time>2016-10-23T07:00:26.000Z</time>
      </trkpt>
      <trkpt lat="47.52703" lon="6.81736">
        <ele>327</ele>
        <time>2016-10-23T07:00:27.000Z</time>
      </trkpt>
      <trkpt lat="47.52704" lon="6.81742">
        <ele>327</ele>
        <time>2016-10-23T07:00:28.000Z</time>
      </trkpt>
      <trkpt lat="47.52705" lon="6.81749">
        <ele>327</ele>
        <time>2016-10-23T07:00:29.001Z</time>
      </trkpt>
      <trkpt lat="47.52707" lon="6.81759">
        <ele>327</ele>
        <time>2016-10-23T07:00:30.000Z</time>
      </trkpt>
      <trkpt lat="47.52707" lon="6.81765">
        <ele>327</ele>
        <time>2016-10-23T07:00:31.000Z</time>
      </trkpt>
      <trkpt lat="47.52706" lon="6.81772">
        <ele>327</ele>
        <time>2016-10-23T07:00:32.000Z</time>
      </trkpt>
      <trkpt lat="47.52705" lon="6.8178">
        <ele>327</ele>
        <time>2016-10-23T07:00:33.000Z</time>
      </trkpt>
      <trkpt lat="47.52705" lon="6.81788">
        <ele>327</ele>
        <time>2016-10-23T07:00:33.999Z</time>
      </trkpt>
      <trkpt lat="47.52705" lon="6.81796">
        <ele>326</ele>
        <time>2016-10-23T07:00:35.000Z</time>
      </trkpt>
      <trkpt lat="47.52704" lon="6.81801">
        <ele>326</ele>
        <time>2016-10-23T07:00:36.000Z</time>
      </trkpt>
      <trkpt lat="47.52702" lon="6.8181">
        <ele>326</ele>
        <time>2016-10-23T07:00:37.000Z</time>
      </trkpt>
      <trkpt lat="47.527" lon="6.81817">
        <ele>326</ele>
        <time>2016-10-23T07:00:37.999Z</time>
      </trkpt>
      <trkpt lat="47.527" lon="6.81823">
        <ele>326</ele>
        <time>2016-10-23T07:00:39.000Z</time>
      </trkpt>
      <trkpt lat="47.52699" lon="6.81832">
        <ele>326</ele>
        <time>2016-10-23T07:00:40.000Z</time>
      </trkpt>
      <trkpt lat="47.52697" lon="6.81839">
        <ele>326</ele>
        <time>2016-10-23T07:00:41.001Z</time>
      </trkpt>
      <trkpt lat="47.52695" lon="6.81846">
        <ele>326</ele>
        <time>2016-10-23T07:00:42.000Z</time>
      </trkpt>
      <trkpt lat="47.52692" lon="6.81851">
        <ele>326</ele>
        <time>2016-10-23T07:00:43.000Z</time>
      </trkpt>
      <trkpt lat="47.5269" lon="6.81858">
        <ele>326</ele>
        <time>2016-10-23T07:00:44.000Z</time>
      </trkpt>
      <trkpt lat="47.52687" lon="6.81864">
        <ele>326</ele>
        <time>2016-10-23T07:00:45.000Z</time>
      </trkpt>
      <trkpt lat="47.5269" lon="6.81869">
        <ele>326</ele>
        <time>2016-10-23T07:00:46.000Z</time>
      </trkpt>
      <trkpt lat="47.5269" lon="6.81871">
        <ele>326</ele>
        <time>2016-10-23T07:00:47.000Z</time>
      </trkpt>
      <trkpt lat="47.52687" lon="6.81874">
        <ele>326</ele>
        <time>2016-10-23T07:00:49.000Z</time>
      </trkpt>
      <trkpt lat="47.52684" lon="6.81875">
        <ele>326</ele>
        <time>2016-10-23T07:00:50.000Z</time>
      </trkpt>
      <trkpt lat="47.5268" lon="6.81876">
        <ele>326</ele>
        <time>2016-10-23T07:00:51.000Z</time>
      </trkpt>
      <trkpt lat="47.52677" lon="6.81878">
        <ele>326</ele>
        <time>2016-10-23T07:00:52.000Z</time>
      </trkpt>
      <trkpt lat="47.52673" lon="6.8188">
        <ele>326</ele>
        <time>2016-10-23T07:00:53.001Z</time>
      </trkpt>
      <trkpt lat="47.5267" lon="6.81876">
        <ele>326</ele>
        <time>2016-10-23T07:00:54.000Z</time>
      </trkpt>
      <trkpt lat="47.52666" lon="6.81877">
        <ele>326</ele>
        <time>2016-10-23T07:00:55.000Z</time>
      </trkpt>
      <trkpt lat="47.52663" lon="6.81877">
        <ele>326</ele>
        <time>2016-10-23T07:00:56.000Z</time>
      </trkpt>
      <trkpt lat="47.52665" lon="6.81881">
        <ele>326</ele>
        <time>2016-10-23T07:01:00.001Z</time>
      </trkpt>
      <trkpt lat="47.52672" lon="6.81877">
        <ele>326</ele>
        <time>2016-10-23T07:01:01.000Z</time>
      </trkpt>
      <trkpt lat="47.52676" lon="6.81876">
        <ele>326</ele>
        <time>2016-10-23T07:01:02.000Z</time>
      </trkpt>
      <trkpt lat="47.5268" lon="6.81875">
        <ele>326</ele>
        <time>2016-10-23T07:01:03.000Z</time>
      </trkpt>
      <trkpt lat="47.52684" lon="6.81874">
        <ele>326</ele>
        <time>2016-10-23T07:01:04.000Z</time>
      </trkpt>
      <trkpt lat="47.52688" lon="6.81874">
        <ele>326</ele>
        <time>2016-10-23T07:01:05.000Z</time>
      </trkpt>
      <trkpt lat="47.52692" lon="6.81877">
        <ele>326</ele>
        <time>2016-10-23T07:01:06.000Z</time>
      </trkpt>
      <trkpt lat="47.52696" lon="6.81881">
        <ele>326</ele>
        <time>2016-10-23T07:01:07.000Z</time>
      </trkpt>
      <trkpt lat="47.52698" lon="6.81888">
        <ele>326</ele>
        <time>2016-10-23T07:01:08.000Z</time>
      </trkpt>
      <trkpt lat="47.52699" lon="6.81903">
        <ele>326</ele>
        <time>2016-10-23T07:01:09.000Z</time>
      </trkpt>
      <trkpt lat="47.527" lon="6.81909">
        <ele>326</ele>
        <time>2016-10-23T07:01:10.000Z</time>
      </trkpt>
      <trkpt lat="47.52702" lon="6.81915">
        <ele>326</ele>
        <time>2016-10-23T07:01:11.000Z</time>
      </trkpt>
      <trkpt lat="47.52704" lon="6.81921">
        <ele>327</ele>
        <time>2016-10-23T07:01:12.000Z</time>
      </trkpt>
      <trkpt lat="47.52705" lon="6.81928">
        <ele>327</ele>
        <time>2016-10-23T07:01:13.000Z</time>
      </trkpt>
      <trkpt lat="47.52706" lon="6.81934">
        <ele>328</ele>
        <time>2016-10-23T07:01:14.000Z</time>
      </trkpt>
      <trkpt lat="47.52707" lon="6.81941">
        <ele>328</ele>
        <time>2016-10-23T07:01:15.000Z</time>
      </trkpt>
      <trkpt lat="47.52707" lon="6.81949">
        <ele>328</ele>
        <time>2016-10-23T07:01:16.000Z</time>
      </trkpt>
      <trkpt lat="47.52708" lon="6.81957">
        <ele>328</ele>
        <time>2016-10-23T07:01:17.000Z</time>
      </trkpt>
      <trkpt lat="47.5271" lon="6.81964">
        <ele>328</ele>
        <time>2016-10-23T07:01:18.000Z</time>
      </trkpt>
      <trkpt lat="47.52712" lon="6.81971">
        <ele>328</ele>
        <time>2016-10-23T07:01:19.000Z</time>
      </trkpt>
      <trkpt lat="47.52713" lon="6.81978">
        <ele>328</ele>
        <time>2016-10-23T07:01:20.000Z</time>
      </trkpt>
      <trkpt lat="47.52715" lon="6.81984">
        <ele>328</ele>
        <time>2016-10-23T07:01:21.000Z</time>
      </trkpt>
      <trkpt lat="47.52718" lon="6.81991">
        <ele>328</ele>
        <time>2016-10-23T07:01:22.000Z</time>
      </trkpt>
      <trkpt lat="47.52721" lon="6.81998">
        <ele>329</ele>
        <time>2016-10-23T07:01:23.000Z</time>
      </trkpt>
      <trkpt lat="47.52723" lon="6.82005">
        <ele>330</ele>
        <time>2016-10-23T07:01:24.000Z</time>
      </trkpt>
      <trkpt lat="47.52726" lon="6.82011">
        <ele>330</ele>
        <time>2016-10-23T07:01:25.000Z</time>
      </trkpt>
      <trkpt lat="47.5273" lon="6.82018">
        <ele>330</ele>
        <time>2016-10-23T07:01:26.000Z</time>
      </trkpt>
      <trkpt lat="47.52733" lon="6.82023">
        <ele>330</ele>
        <time>2016-10-23T07:01:27.000Z</time>
      </trkpt>
      <trkpt lat="47.52736" lon="6.82029">
        <ele>330</ele>
        <time>2016-10-23T07:01:28.000Z</time>
      </trkpt>
      <trkpt lat="47.52738" lon="6.82036">
        <ele>330</ele>
        <time>2016-10-23T07:01:29.000Z</time>
      </trkpt>
      <trkpt lat="47.52741" lon="6.82042">
        <ele>330</ele>
        <time>2016-10-23T07:01:30.000Z</time>
      </trkpt>
      <trkpt lat="47.52744" lon="6.82048">
        <ele>330</ele>
        <time>2016-10-23T07:01:31.000Z</time>
      </trkpt>
      <trkpt lat="47.52746" lon="6.82055">
        <ele>330</ele>
        <time>2016-10-23T07:01:32.000Z</time>
      </trkpt>
      <trkpt lat="47.52748" lon="6.82061">
        <ele>330</ele>
        <time>2016-10-23T07:01:33.000Z</time>
      </trkpt>
      <trkpt lat="47.52751" lon="6.82068">
        <ele>330</ele>
        <time>2016-10-23T07:01:34.000Z</time>
      </trkpt>
      <trkpt lat="47.52752" lon="6.82074">
        <ele>330</ele>
        <time>2016-10-23T07:01:35.000Z</time>
      </trkpt>
      <trkpt lat="47.52754" lon="6.8208">
        <ele>330</ele>
        <time>2016-10-23T07:01:36.000Z</time>
      </trkpt>
      <trkpt lat="47.52756" lon="6.82087">
        <ele>330</ele>
        <time>2016-10-23T07:01:37.000Z</time>
      </trkpt>
      <trkpt lat="47.52758" lon="6.82093">
        <ele>330</ele>
        <time>2016-10-23T07:01:38.000Z</time>
      </trkpt>
      <trkpt lat="47.5276" lon="6.82098">
        <ele>331</ele>
        <time>2016-10-23T07:01:39.000Z</time>
      </trkpt>
      <trkpt lat="47.52761" lon="6.82106">
        <ele>331</ele>
        <time>2016-10-23T07:01:40.000Z</time>
      </trkpt>
      <trkpt lat="47.52761" lon="6.82111">
        <ele>331</ele>
        <time>2016-10-23T07:01:41.000Z</time>
      </trkpt>
      <trkpt lat="47.52761" lon="6.82117">
        <ele>331</ele>
        <time>2016-10-23T07:01:42.000Z</time>
      </trkpt>
      <trkpt lat="47.5276" lon="6.82122">
        <ele>331</ele>
        <time>2016-10-23T07:01:43.000Z</time>
      </trkpt>
      <trkpt lat="47.52764" lon="6.82125">
        <ele>331</ele>
        <time>2016-10-23T07:01:44.000Z</time>
      </trkpt>
      <trkpt lat="47.52765" lon="6.82129">
        <ele>331</ele>
        <time>2016-10-23T07:01:44.999Z</time>
      </trkpt>
      <trkpt lat="47.52768" lon="6.82132">
        <ele>331</ele>
        <time>2016-10-23T07:01:46.000Z</time>
      </trkpt>
      <trkpt lat="47.5277" lon="6.82135">
        <ele>331</ele>
        <time>2016-10-23T07:01:47.001Z</time>
      </trkpt>
      <trkpt lat="47.52771" lon="6.82138">
        <ele>331</ele>
        <time>2016-10-23T07:01:48.000Z</time>
      </trkpt>
      <trkpt lat="47.52773" lon="6.82143">
        <ele>331</ele>
        <time>2016-10-23T07:01:50.000Z</time>
      </trkpt>
      <trkpt lat="47.52774" lon="6.82146">
        <ele>331</ele>
        <time>2016-10-23T07:01:51.002Z</time>
      </trkpt>
      <trkpt lat="47.52772" lon="6.82151">
        <ele>331</ele>
        <time>2016-10-23T07:01:57.000Z</time>
      </trkpt>
      <trkpt lat="47.52773" lon="6.82154">
        <ele>331</ele>
        <time>2016-10-23T07:01:58.000Z</time>
      </trkpt>
      <trkpt lat="47.52773" lon="6.82158">
        <ele>331</ele>
        <time>2016-10-23T07:01:59.000Z</time>
      </trkpt>
      <trkpt lat="47.52774" lon="6.82163">
        <ele>331</ele>
        <time>2016-10-23T07:02:00.000Z</time>
      </trkpt>
      <trkpt lat="47.52774" lon="6.82168">
        <ele>332</ele>
        <time>2016-10-23T07:02:01.000Z</time>
      </trkpt>
      <trkpt lat="47.52774" lon="6.82173">
        <ele>332</ele>
        <time>2016-10-23T07:02:02.000Z</time>
      </trkpt>
      <trkpt lat="47.52773" lon="6.82178">
        <ele>332</ele>
        <time>2016-10-23T07:02:03.000Z</time>
      </trkpt>
      <trkpt lat="47.52774" lon="6.8219">
        <ele>332</ele>
        <time>2016-10-23T07:02:04.000Z</time>
      </trkpt>
      <trkpt lat="47.52774" lon="6.82197">
        <ele>332</ele>
        <time>2016-10-23T07:02:05.001Z</time>
      </trkpt>
      <trkpt lat="47.52774" lon="6.82202">
        <ele>332</ele>
        <time>2016-10-23T07:02:06.001Z</time>
      </trkpt>
      <trkpt lat="47.52774" lon="6.82208">
        <ele>332</ele>
        <time>2016-10-23T07:02:07.000Z</time>
      </trkpt>
      <trkpt lat="47.52774" lon="6.82214">
        <ele>332</ele>
        <time>2016-10-23T07:02:08.000Z</time>
      </trkpt>
      <trkpt lat="47.52775" lon="6.8222">
        <ele>332</ele>
        <time>2016-10-23T07:02:08.999Z</time>
      </trkpt>
      <trkpt lat="47.52773" lon="6.82225">
        <ele>332</ele>
        <time>2016-10-23T07:02:11.000Z</time>
      </trkpt>
      <trkpt lat="47.52773" lon="6.82227">
        <ele>332</ele>
        <time>2016-10-23T07:02:12.001Z</time>
      </trkpt>
      <trkpt lat="47.52773" lon="6.82232">
        <ele>332</ele>
        <time>2016-10-23T07:02:17.000Z</time>
      </trkpt>
      <trkpt lat="47.52774" lon="6.82236">
        <ele>332</ele>
        <time>2016-10-23T07:02:18.000Z</time>
      </trkpt>
      <trkpt lat="47.52773" lon="6.8224">
        <ele>332</ele>
        <time>2016-10-23T07:02:19.000Z</time>
      </trkpt>
      <trkpt lat="47.52772" lon="6.82245">
        <ele>332</ele>
        <time>2016-10-23T07:02:20.000Z</time>
      </trkpt>
      <trkpt lat="47.5277" lon="6.82249">
        <ele>332</ele>
        <time>2016-10-23T07:02:21.000Z</time>
      </trkpt>
      <trkpt lat="47.52768" lon="6.82254">
        <ele>332</ele>
        <time>2016-10-23T07:02:22.000Z</time>
      </trkpt>
      <trkpt lat="47.52766" lon="6.82258">
        <ele>332</ele>
        <time>2016-10-23T07:02:22.999Z</time>
      </trkpt>
      <trkpt lat="47.52763" lon="6.82262">
        <ele>332</ele>
        <time>2016-10-23T07:02:24.000Z</time>
      </trkpt>
      <trkpt lat="47.5276" lon="6.82266">
        <ele>332</ele>
        <time>2016-10-23T07:02:25.001Z</time>
      </trkpt>
      <trkpt lat="47.52756" lon="6.82268">
        <ele>332</ele>
        <time>2016-10-23T07:02:26.000Z</time>
      </trkpt>
      <trkpt lat="47.52752" lon="6.82269">
        <ele>332</ele>
        <time>2016-10-23T07:02:27.000Z</time>
      </trkpt>
      <trkpt lat="47.52748" lon="6.82269">
        <ele>332</ele>
        <time>2016-10-23T07:02:28.000Z</time>
      </trkpt>
      <trkpt lat="47.52744" lon="6.82268">
        <ele>332</ele>
        <time>2016-10-23T07:02:29.000Z</time>
      </trkpt>
      <trkpt lat="47.5274" lon="6.82267">
        <ele>332</ele>
        <time>2016-10-23T07:02:30.000Z</time>
      </trkpt>
      <trkpt lat="47.52736" lon="6.82267">
        <ele>332</ele>
        <time>2016-10-23T07:02:31.000Z</time>
      </trkpt>
      <trkpt lat="47.52733" lon="6.82266">
        <ele>332</ele>
        <time>2016-10-23T07:02:32.000Z</time>
      </trkpt>
      <trkpt lat="47.52729" lon="6.82265">
        <ele>332</ele>
        <time>2016-10-23T07:02:33.000Z</time>
      </trkpt>
      <trkpt lat="47.52726" lon="6.82265">
        <ele>332</ele>
        <time>2016-10-23T07:02:34.000Z</time>
      </trkpt>
      <trkpt lat="47.52721" lon="6.82266">
        <ele>332</ele>
        <time>2016-10-23T07:02:35.000Z</time>
      </trkpt>
      <trkpt lat="47.52717" lon="6.82267">
        <ele>332</ele>
        <time>2016-10-23T07:02:36.000Z</time>
      </trkpt>
      <trkpt lat="47.52713" lon="6.82268">
        <ele>332</ele>
        <time>2016-10-23T07:02:37.000Z</time>
      </trkpt>
      <trkpt lat="47.52705" lon="6.8227">
        <ele>332</ele>
        <time>2016-10-23T07:02:38.000Z</time>
      </trkpt>
      <trkpt lat="47.52699" lon="6.82272">
        <ele>332</ele>
        <time>2016-10-23T07:02:39.000Z</time>
      </trkpt>
      <trkpt lat="47.52693" lon="6.82273">
        <ele>332</ele>
        <time>2016-10-23T07:02:40.000Z</time>
      </trkpt>
      <trkpt lat="47.52687" lon="6.82278">
        <ele>332</ele>
        <time>2016-10-23T07:02:41.000Z</time>
      </trkpt>
      <trkpt lat="47.52682" lon="6.8228">
        <ele>332</ele>
        <time>2016-10-23T07:02:42.000Z</time>
      </trkpt>
      <trkpt lat="47.52677" lon="6.82282">
        <ele>332</ele>
        <time>2016-10-23T07:02:43.000Z</time>
      </trkpt>
      <trkpt lat="47.52672" lon="6.82284">
        <ele>332</ele>
        <time>2016-10-23T07:02:44.000Z</time>
      </trkpt>
      <trkpt lat="47.52667" lon="6.82284">
        <ele>332</ele>
        <time>2016-10-23T07:02:45.000Z</time>
      </trkpt>
      <trkpt lat="47.52661" lon="6.82286">
        <ele>332</ele>
        <time>2016-10-23T07:02:46.000Z</time>
      </trkpt>
      <trkpt lat="47.52658" lon="6.82292">
        <ele>332</ele>
        <time>2016-10-23T07:02:47.000Z</time>
      </trkpt>
      <trkpt lat="47.52655" lon="6.82301">
        <ele>332</ele>
        <time>2016-10-23T07:02:48.000Z</time>
      </trkpt>
      <trkpt lat="47.52652" lon="6.82308">
        <ele>332</ele>
        <time>2016-10-23T07:02:49.000Z</time>
      </trkpt>
      <trkpt lat="47.5265" lon="6.82316">
        <ele>332</ele>
        <time>2016-10-23T07:02:50.000Z</time>
      </trkpt>
      <trkpt lat="47.52648" lon="6.82324">
        <ele>333</ele>
        <time>2016-10-23T07:02:51.000Z</time>
      </trkpt>
      <trkpt lat="47.52645" lon="6.82331">
        <ele>333</ele>
        <time>2016-10-23T07:02:52.000Z</time>
      </trkpt>
      <trkpt lat="47.52643" lon="6.82337">
        <ele>333</ele>
        <time>2016-10-23T07:02:53.000Z</time>
      </trkpt>
      <trkpt lat="47.5264" lon="6.82343">
        <ele>333</ele>
        <time>2016-10-23T07:02:54.000Z</time>
      </trkpt>
      <trkpt lat="47.52638" lon="6.8235">
        <ele>333</ele>
        <time>2016-10-23T07:02:55.000Z</time>
      </trkpt>
      <trkpt lat="47.52636" lon="6.82357">
        <ele>333</ele>
        <time>2016-10-23T07:02:56.000Z</time>
      </trkpt>
      <trkpt lat="47.52635" lon="6.82364">
        <ele>333</ele>
        <time>2016-10-23T07:02:57.000Z</time>
      </trkpt>
      <trkpt lat="47.52634" lon="6.82372">
        <ele>333</ele>
        <time>2016-10-23T07:02:58.000Z</time>
      </trkpt>
      <trkpt lat="47.52632" lon="6.82379">
        <ele>333</ele>
        <time>2016-10-23T07:02:59.000Z</time>
      </trkpt>
      <trkpt lat="47.5263" lon="6.82387">
        <ele>333</ele>
        <time>2016-10-23T07:03:00.000Z</time>
      </trkpt>
      <trkpt lat="47.52628" lon="6.82395">
        <ele>333</ele>
        <time>2016-10-23T07:03:01.000Z</time>
      </trkpt>
      <trkpt lat="47.52625" lon="6.82402">
        <ele>333</ele>
        <time>2016-10-23T07:03:02.000Z</time>
      </trkpt>
      <trkpt lat="47.52622" lon="6.82409">
        <ele>333</ele>
        <time>2016-10-23T07:03:03.000Z</time>
      </trkpt>
      <trkpt lat="47.52619" lon="6.82415">
        <ele>333</ele>
        <time>2016-10-23T07:03:04.000Z</time>
      </trkpt>
      <trkpt lat="47.52617" lon="6.82422">
        <ele>333</ele>
        <time>2016-10-23T07:03:05.000Z</time>
      </trkpt>
      <trkpt lat="47.52615" lon="6.82429">
        <ele>333</ele>
        <time>2016-10-23T07:03:06.000Z</time>
      </trkpt>
      <trkpt lat="47.52614" lon="6.82437">
        <ele>333</ele>
        <time>2016-10-23T07:03:07.000Z</time>
      </trkpt>
      <trkpt lat="47.52612" lon="6.82445">
        <ele>333</ele>
        <time>2016-10-23T07:03:08.000Z</time>
      </trkpt>
      <trkpt lat="47.5261" lon="6.82453">
        <ele>333</ele>
        <time>2016-10-23T07:03:09.000Z</time>
      </trkpt>
      <trkpt lat="47.52608" lon="6.82459">
        <ele>333</ele>
        <time>2016-10-23T07:03:10.000Z</time>
      </trkpt>
      <trkpt lat="47.52606" lon="6.82465">
        <ele>333</ele>
        <time>2016-10-23T07:03:11.000Z</time>
      </trkpt>
      <trkpt lat="47.52605" lon="6.82472">
        <ele>333</ele>
        <time>2016-10-23T07:03:12.000Z</time>
      </trkpt>
      <trkpt lat="47.52604" lon="6.8248">
        <ele>333</ele>
        <time>2016-10-23T07:03:13.000Z</time>
      </trkpt>
      <trkpt lat="47.52603" lon="6.82487">
        <ele>333</ele>
        <time>2016-10-23T07:03:14.000Z</time>
      </trkpt>
      <trkpt lat="47.52601" lon="6.82494">
        <ele>333</ele>
        <time>2016-10-23T07:03:15.000Z</time>
      </trkpt>
      <trkpt lat="47.526" lon="6.825">
        <ele>333</ele>
        <time>2016-10-23T07:03:16.000Z</time>
      </trkpt>
      <trkpt lat="47.52599" lon="6.82508">
        <ele>333</ele>
        <time>2016-10-23T07:03:17.000Z</time>
      </trkpt>
      <trkpt lat="47.52598" lon="6.82514">
        <ele>333</ele>
        <time>2016-10-23T07:03:18.000Z</time>
      </trkpt>
      <trkpt lat="47.52598" lon="6.82523">
        <ele>333</ele>
        <time>2016-10-23T07:03:19.000Z</time>
      </trkpt>
      <trkpt lat="47.52599" lon="6.8253">
        <ele>333</ele>
        <time>2016-10-23T07:03:20.000Z</time>
      </trkpt>
      <trkpt lat="47.52601" lon="6.82537">
        <ele>333</ele>
        <time>2016-10-23T07:03:21.000Z</time>
      </trkpt>
      <trkpt lat="47.52603" lon="6.82543">
        <ele>333</ele>
        <time>2016-10-23T07:03:22.000Z</time>
      </trkpt>
      <trkpt lat="47.52607" lon="6.82551">
        <ele>333</ele>
        <time>2016-10-23T07:03:23.000Z</time>
      </trkpt>
      <trkpt lat="47.5261" lon="6.82558">
        <ele>333</ele>
        <time>2016-10-23T07:03:24.000Z</time>
      </trkpt>
      <trkpt lat="47.52612" lon="6.82565">
        <ele>333</ele>
        <time>2016-10-23T07:03:25.000Z</time>
      </trkpt>
      <trkpt lat="47.52615" lon="6.82572">
        <ele>334</ele>
        <time>2016-10-23T07:03:25.999Z</time>
      </trkpt>
      <trkpt lat="47.52617" lon="6.82578">
        <ele>334</ele>
        <time>2016-10-23T07:03:27.000Z</time>
      </trkpt>
      <trkpt lat="47.52618" lon="6.82583">
        <ele>334</ele>
        <time>2016-10-23T07:03:28.000Z</time>
      </trkpt>
      <trkpt lat="47.5262" lon="6.82589">
        <ele>335</ele>
        <time>2016-10-23T07:03:28.999Z</time>
      </trkpt>
      <trkpt lat="47.52625" lon="6.82595">
        <ele>335</ele>
        <time>2016-10-23T07:03:30.000Z</time>
      </trkpt>
      <trkpt lat="47.52627" lon="6.82601">
        <ele>335</ele>
        <time>2016-10-23T07:03:31.000Z</time>
      </trkpt>
      <trkpt lat="47.5263" lon="6.82608">
        <ele>335</ele>
        <time>2016-10-23T07:03:32.000Z</time>
      </trkpt>
      <trkpt lat="47.52632" lon="6.82615">
        <ele>335</ele>
        <time>2016-10-23T07:03:32.999Z</time>
      </trkpt>
      <trkpt lat="47.52633" lon="6.82621">
        <ele>335</ele>
        <time>2016-10-23T07:03:34.001Z</time>
      </trkpt>
      <trkpt lat="47.52634" lon="6.82626">
        <ele>335</ele>
        <time>2016-10-23T07:03:35.000Z</time>
      </trkpt>
      <trkpt lat="47.52633" lon="6.82633">
        <ele>335</ele>
        <time>2016-10-23T07:03:36.000Z</time>
      </trkpt>
      <trkpt lat="47.52632" lon="6.8264">
        <ele>335</ele>
        <time>2016-10-23T07:03:37.000Z</time>
      </trkpt>
      <trkpt lat="47.52632" lon="6.82647">
        <ele>335</ele>
        <time>2016-10-23T07:03:38.000Z</time>
      </trkpt>
      <trkpt lat="47.52631" lon="6.82655">
        <ele>335</ele>
        <time>2016-10-23T07:03:39.000Z</time>
      </trkpt>
      <trkpt lat="47.5263" lon="6.82663">
        <ele>335</ele>
        <time>2016-10-23T07:03:40.000Z</time>
      </trkpt>
      <trkpt lat="47.5263" lon="6.82668">
        <ele>336</ele>
        <time>2016-10-23T07:03:41.000Z</time>
      </trkpt>
      <trkpt lat="47.52628" lon="6.82675">
        <ele>336</ele>
        <time>2016-10-23T07:03:42.000Z</time>
      </trkpt>
      <trkpt lat="47.52627" lon="6.8268">
        <ele>336</ele>
        <time>2016-10-23T07:03:43.000Z</time>
      </trkpt>
      <trkpt lat="47.52626" lon="6.82686">
        <ele>336</ele>
        <time>2016-10-23T07:03:44.000Z</time>
      </trkpt>
      <trkpt lat="47.52625" lon="6.82693">
        <ele>336</ele>
        <time>2016-10-23T07:03:45.000Z</time>
      </trkpt>
      <trkpt lat="47.52623" lon="6.82701">
        <ele>336</ele>
        <time>2016-10-23T07:03:46.000Z</time>
      </trkpt>
      <trkpt lat="47.52622" lon="6.82707">
        <ele>336</ele>
        <time>2016-10-23T07:03:47.000Z</time>
      </trkpt>
      <trkpt lat="47.52619" lon="6.82709">
        <ele>336</ele>
        <time>2016-10-23T07:03:48.000Z</time>
      </trkpt>
      <trkpt lat="47.52618" lon="6.82714">
        <ele>336</ele>
        <time>2016-10-23T07:03:49.000Z</time>
      </trkpt>
      <trkpt lat="47.52616" lon="6.82721">
        <ele>336</ele>
        <time>2016-10-23T07:03:50.000Z</time>
      </trkpt>
      <trkpt lat="47.52614" lon="6.82726">
        <ele>336</ele>
        <time>2016-10-23T07:03:51.000Z</time>
      </trkpt>
      <trkpt lat="47.52615" lon="6.82734">
        <ele>336</ele>
        <time>2016-10-23T07:03:52.000Z</time>
      </trkpt>
      <trkpt lat="47.52612" lon="6.82739">
        <ele>336</ele>
        <time>2016-10-23T07:03:53.000Z</time>
      </trkpt>
      <trkpt lat="47.5261" lon="6.82748">
        <ele>336</ele>
        <time>2016-10-23T07:03:54.000Z</time>
      </trkpt>
      <trkpt lat="47.52608" lon="6.82755">
        <ele>337</ele>
        <time>2016-10-23T07:03:55.000Z</time>
      </trkpt>
      <trkpt lat="47.52607" lon="6.82762">
        <ele>337</ele>
        <time>2016-10-23T07:03:56.000Z</time>
      </trkpt>
      <trkpt lat="47.52607" lon="6.8277">
        <ele>337</ele>
        <time>2016-10-23T07:03:57.000Z</time>
      </trkpt>
      <trkpt lat="47.52605" lon="6.82776">
        <ele>337</ele>
        <time>2016-10-23T07:03:58.000Z</time>
      </trkpt>
      <trkpt lat="47.52604" lon="6.82783">
        <ele>338</ele>
        <time>2016-10-23T07:03:59.000Z</time>
      </trkpt>
      <trkpt lat="47.52602" lon="6.8279">
        <ele>338</ele>
        <time>2016-10-23T07:04:00.000Z</time>
      </trkpt>
      <trkpt lat="47.526" lon="6.82797">
        <ele>338</ele>
        <time>2016-10-23T07:04:01.000Z</time>
      </trkpt>
      <trkpt lat="47.52597" lon="6.82802">
        <ele>338</ele>
        <time>2016-10-23T07:04:02.000Z</time>
      </trkpt>
      <trkpt lat="47.52594" lon="6.82808">
        <ele>338</ele>
        <time>2016-10-23T07:04:03.000Z</time>
      </trkpt>
      <trkpt lat="47.52591" lon="6.82814">
        <ele>338</ele>
        <time>2016-10-23T07:04:04.000Z</time>
      </trkpt>
      <trkpt lat="47.5259" lon="6.8282">
        <ele>337</ele>
        <time>2016-10-23T07:04:05.000Z</time>
      </trkpt>
      <trkpt lat="47.52585" lon="6.82824">
        <ele>337</ele>
        <time>2016-10-23T07:04:05.999Z</time>
      </trkpt>
      <trkpt lat="47.52582" lon="6.8283">
        <ele>337</ele>
        <time>2016-10-23T07:04:07.001Z</time>
      </trkpt>
      <trkpt lat="47.52579" lon="6.82837">
        <ele>337</ele>
        <time>2016-10-23T07:04:08.001Z</time>
      </trkpt>
      <trkpt lat="47.52579" lon="6.82844">
        <ele>338</ele>
        <time>2016-10-23T07:04:09.000Z</time>
      </trkpt>
      <trkpt lat="47.52578" lon="6.82849">
        <ele>338</ele>
        <time>2016-10-23T07:04:10.000Z</time>
      </trkpt>
      <trkpt lat="47.52577" lon="6.82854">
        <ele>338</ele>
        <time>2016-10-23T07:04:11.000Z</time>
      </trkpt>
      <trkpt lat="47.52576" lon="6.82858">
        <ele>338</ele>
        <time>2016-10-23T07:04:12.000Z</time>
      </trkpt>
      <trkpt lat="47.52573" lon="6.82863">
        <ele>338</ele>
        <time>2016-10-23T07:04:13.000Z</time>
      </trkpt>
      <trkpt lat="47.52569" lon="6.82867">
        <ele>338</ele>
        <time>2016-10-23T07:04:14.000Z</time>
      </trkpt>
      <trkpt lat="47.52566" lon="6.82873">
        <ele>339</ele>
        <time>2016-10-23T07:04:15.000Z</time>
      </trkpt>
      <trkpt lat="47.52563" lon="6.82878">
        <ele>339</ele>
        <time>2016-10-23T07:04:16.000Z</time>
      </trkpt>
      <trkpt lat="47.52558" lon="6.82882">
        <ele>339</ele>
        <time>2016-10-23T07:04:17.000Z</time>
      </trkpt>
      <trkpt lat="47.52554" lon="6.82888">
        <ele>339</ele>
        <time>2016-10-23T07:04:18.000Z</time>
      </trkpt>
      <trkpt lat="47.5255" lon="6.82891">
        <ele>339</ele>
        <time>2016-10-23T07:04:19.000Z</time>
      </trkpt>
      <trkpt lat="47.52545" lon="6.82895">
        <ele>339</ele>
        <time>2016-10-23T07:04:20.000Z</time>
      </trkpt>
      <trkpt lat="47.52541" lon="6.82901">
        <ele>339</ele>
        <time>2016-10-23T07:04:21.000Z</time>
      </trkpt>
      <trkpt lat="47.52537" lon="6.82905">
        <ele>339</ele>
        <time>2016-10-23T07:04:22.000Z</time>
      </trkpt>
      <trkpt lat="47.52534" lon="6.82909">
        <ele>339</ele>
        <time>2016-10-23T07:04:23.000Z</time>
      </trkpt>
      <trkpt lat="47.52532" lon="6.82917">
        <ele>340</ele>
        <time>2016-10-23T07:04:24.000Z</time>
      </trkpt>
      <trkpt lat="47.52529" lon="6.82924">
        <ele>340</ele>
        <time>2016-10-23T07:04:25.000Z</time>
      </trkpt>
      <trkpt lat="47.52527" lon="6.82931">
        <ele>340</ele>
        <time>2016-10-23T07:04:26.000Z</time>
      </trkpt>
      <trkpt lat="47.52525" lon="6.82937">
        <ele>340</ele>
        <time>2016-10-23T07:04:27.000Z</time>
      </trkpt>
      <trkpt lat="47.52522" lon="6.82939">
        <ele>340</ele>
        <time>2016-10-23T07:04:28.000Z</time>
      </trkpt>
      <trkpt lat="47.52518" lon="6.82945">
        <ele>340</ele>
        <time>2016-10-23T07:04:29.000Z</time>
      </trkpt>
      <trkpt lat="47.52515" lon="6.82949">
        <ele>340</ele>
        <time>2016-10-23T07:04:30.000Z</time>
      </trkpt>
      <trkpt lat="47.52512" lon="6.82952">
        <ele>340</ele>
        <time>2016-10-23T07:04:31.000Z</time>
      </trkpt>
      <trkpt lat="47.52509" lon="6.82955">
        <ele>340</ele>
        <time>2016-10-23T07:04:32.000Z</time>
      </trkpt>
      <trkpt lat="47.52507" lon="6.8296">
        <ele>341</ele>
        <time>2016-10-23T07:04:33.000Z</time>
      </trkpt>
      <trkpt lat="47.52504" lon="6.82967">
        <ele>341</ele>
        <time>2016-10-23T07:04:34.000Z</time>
      </trkpt>
      <trkpt lat="47.525" lon="6.82971">
        <ele>341</ele>
        <time>2016-10-23T07:04:35.000Z</time>
      </trkpt>
      <trkpt lat="47.52497" lon="6.82976">
        <ele>341</ele>
        <time>2016-10-23T07:04:36.000Z</time>
      </trkpt>
      <trkpt lat="47.52494" lon="6.8298">
        <ele>341</ele>
        <time>2016-10-23T07:04:37.000Z</time>
      </trkpt>
      <trkpt lat="47.52492" lon="6.82988">
        <ele>341</ele>
        <time>2016-10-23T07:04:38.000Z</time>
      </trkpt>
      <trkpt lat="47.52489" lon="6.82994">
        <ele>341</ele>
        <time>2016-10-23T07:04:39.000Z</time>
      </trkpt>
      <trkpt lat="47.52487" lon="6.83002">
        <ele>341</ele>
        <time>2016-10-23T07:04:40.000Z</time>
      </trkpt>
      <trkpt lat="47.52485" lon="6.8301">
        <ele>340</ele>
        <time>2016-10-23T07:04:41.000Z</time>
      </trkpt>
      <trkpt lat="47.52483" lon="6.83019">
        <ele>340</ele>
        <time>2016-10-23T07:04:42.000Z</time>
      </trkpt>
      <trkpt lat="47.52481" lon="6.83026">
        <ele>340</ele>
        <time>2016-10-23T07:04:42.998Z</time>
      </trkpt>
      <trkpt lat="47.52482" lon="6.83037">
        <ele>340</ele>
        <time>2016-10-23T07:04:44.000Z</time>
      </trkpt>
      <trkpt lat="47.52481" lon="6.83046">
        <ele>340</ele>
        <time>2016-10-23T07:04:45.000Z</time>
      </trkpt>
      <trkpt lat="47.52479" lon="6.83054">
        <ele>340</ele>
        <time>2016-10-23T07:04:46.001Z</time>
      </trkpt>
      <trkpt lat="47.52478" lon="6.83064">
        <ele>340</ele>
        <time>2016-10-23T07:04:47.000Z</time>
      </trkpt>
      <trkpt lat="47.52477" lon="6.83073">
        <ele>340</ele>
        <time>2016-10-23T07:04:48.000Z</time>
      </trkpt>
      <trkpt lat="47.52474" lon="6.83085">
        <ele>338</ele>
        <time>2016-10-23T07:04:49.000Z</time>
      </trkpt>
      <trkpt lat="47.52473" lon="6.83094">
        <ele>338</ele>
        <time>2016-10-23T07:04:49.999Z</time>
      </trkpt>
      <trkpt lat="47.52473" lon="6.83105">
        <ele>338</ele>
        <time>2016-10-23T07:04:51.000Z</time>
      </trkpt>
      <trkpt lat="47.52471" lon="6.83115">
        <ele>338</ele>
        <time>2016-10-23T07:04:52.000Z</time>
      </trkpt>
      <trkpt lat="47.5247" lon="6.83125">
        <ele>337</ele>
        <time>2016-10-23T07:04:53.000Z</time>
      </trkpt>
      <trkpt lat="47.52469" lon="6.83135">
        <ele>337</ele>
        <time>2016-10-23T07:04:54.000Z</time>
      </trkpt>
      <trkpt lat="47.52468" lon="6.83147">
        <ele>337</ele>
        <time>2016-10-23T07:04:55.000Z</time>
      </trkpt>
      <trkpt lat="47.52466" lon="6.83157">
        <ele>337</ele>
        <time>2016-10-23T07:04:56.000Z</time>
      </trkpt>
      <trkpt lat="47.52464" lon="6.83168">
        <ele>335</ele>
        <time>2016-10-23T07:04:57.000Z</time>
      </trkpt>
      <trkpt lat="47.52463" lon="6.8318">
        <ele>335</ele>
        <time>2016-10-23T07:04:58.000Z</time>
      </trkpt>
      <trkpt lat="47.52462" lon="6.83192">
        <ele>335</ele>
        <time>2016-10-23T07:04:59.000Z</time>
      </trkpt>
      <trkpt lat="47.52461" lon="6.83203">
        <ele>335</ele>
        <time>2016-10-23T07:05:00.000Z</time>
      </trkpt>
      <trkpt lat="47.52459" lon="6.83214">
        <ele>335</ele>
        <time>2016-10-23T07:05:01.000Z</time>
      </trkpt>
      <trkpt lat="47.52458" lon="6.83225">
        <ele>336</ele>
        <time>2016-10-23T07:05:02.000Z</time>
      </trkpt>
      <trkpt lat="47.52457" lon="6.83235">
        <ele>336</ele>
        <time>2016-10-23T07:05:03.000Z</time>
      </trkpt>
      <trkpt lat="47.52457" lon="6.83246">
        <ele>336</ele>
        <time>2016-10-23T07:05:03.999Z</time>
      </trkpt>
      <trkpt lat="47.52455" lon="6.83257">
        <ele>335</ele>
        <time>2016-10-23T07:05:05.000Z</time>
      </trkpt>
      <trkpt lat="47.52455" lon="6.83267">
        <ele>335</ele>
        <time>2016-10-23T07:05:05.999Z</time>
      </trkpt>
      <trkpt lat="47.52454" lon="6.83278">
        <ele>335</ele>
        <time>2016-10-23T07:05:07.000Z</time>
      </trkpt>
      <trkpt lat="47.52453" lon="6.83287">
        <ele>335</ele>
        <time>2016-10-23T07:05:08.000Z</time>
      </trkpt>
      <trkpt lat="47.52451" lon="6.83296">
        <ele>335</ele>
        <time>2016-10-23T07:05:09.001Z</time>
      </trkpt>
      <trkpt lat="47.52449" lon="6.83307">
        <ele>335</ele>
        <time>2016-10-23T07:05:10.000Z</time>
      </trkpt>
      <trkpt lat="47.52447" lon="6.83316">
        <ele>335</ele>
        <time>2016-10-23T07:05:11.000Z</time>
      </trkpt>
      <trkpt lat="47.52445" lon="6.83325">
        <ele>335</ele>
        <time>2016-10-23T07:05:12.000Z</time>
      </trkpt>
      <trkpt lat="47.52444" lon="6.83335">
        <ele>335</ele>
        <time>2016-10-23T07:05:13.000Z</time>
      </trkpt>
      <trkpt lat="47.52441" lon="6.83343">
        <ele>335</ele>
        <time>2016-10-23T07:05:14.000Z</time>
      </trkpt>
      <trkpt lat="47.5244" lon="6.83352">
        <ele>335</ele>
        <time>2016-10-23T07:05:15.000Z</time>
      </trkpt>
      <trkpt lat="47.52439" lon="6.83361">
        <ele>335</ele>
        <time>2016-10-23T07:05:15.999Z</time>
      </trkpt>
      <trkpt lat="47.52436" lon="6.83368">
        <ele>335</ele>
        <time>2016-10-23T07:05:17.000Z</time>
      </trkpt>
      <trkpt lat="47.52433" lon="6.83376">
        <ele>335</ele>
        <time>2016-10-23T07:05:18.000Z</time>
      </trkpt>
      <trkpt lat="47.52431" lon="6.83385">
        <ele>335</ele>
        <time>2016-10-23T07:05:19.000Z</time>
      </trkpt>
      <trkpt lat="47.52429" lon="6.83394">
        <ele>335</ele>
        <time>2016-10-23T07:05:19.999Z</time>
      </trkpt>
      <trkpt lat="47.52428" lon="6.83401">
        <ele>335</ele>
        <time>2016-10-23T07:05:21.000Z</time>
      </trkpt>
      <trkpt lat="47.52427" lon="6.83408">
        <ele>335</ele>
        <time>2016-10-23T07:05:22.000Z</time>
      </trkpt>
      <trkpt lat="47.52427" lon="6.83417">
        <ele>335</ele>
        <time>2016-10-23T07:05:23.000Z</time>
      </trkpt>
      <trkpt lat="47.52426" lon="6.83426">
        <ele>335</ele>
        <time>2016-10-23T07:05:24.000Z</time>
      </trkpt>
      <trkpt lat="47.52426" lon="6.83435">
        <ele>335</ele>
        <time>2016-10-23T07:05:25.000Z</time>
      </trkpt>
      <trkpt lat="47.52426" lon="6.83444">
        <ele>335</ele>
        <time>2016-10-23T07:05:26.000Z</time>
      </trkpt>
      <trkpt lat="47.52425" lon="6.83452">
        <ele>335</ele>
        <time>2016-10-23T07:05:26.999Z</time>
      </trkpt>
      <trkpt lat="47.52426" lon="6.8346">
        <ele>335</ele>
        <time>2016-10-23T07:05:28.000Z</time>
      </trkpt>
      <trkpt lat="47.52428" lon="6.83468">
        <ele>335</ele>
        <time>2016-10-23T07:05:29.000Z</time>
      </trkpt>
      <trkpt lat="47.52429" lon="6.83475">
        <ele>335</ele>
        <time>2016-10-23T07:05:29.999Z</time>
      </trkpt>
      <trkpt lat="47.52428" lon="6.83484">
        <ele>335</ele>
        <time>2016-10-23T07:05:31.000Z</time>
      </trkpt>
      <trkpt lat="47.52429" lon="6.83492">
        <ele>336</ele>
        <time>2016-10-23T07:05:32.000Z</time>
      </trkpt>
      <trkpt lat="47.52429" lon="6.83498">
        <ele>336</ele>
        <time>2016-10-23T07:05:33.000Z</time>
      </trkpt>
      <trkpt lat="47.5243" lon="6.83506">
        <ele>336</ele>
        <time>2016-10-23T07:05:34.000Z</time>
      </trkpt>
      <trkpt lat="47.5243" lon="6.83515">
        <ele>336</ele>
        <time>2016-10-23T07:05:35.000Z</time>
      </trkpt>
      <trkpt lat="47.52431" lon="6.83523">
        <ele>336</ele>
        <time>2016-10-23T07:05:36.000Z</time>
      </trkpt>
      <trkpt lat="47.52432" lon="6.83533">
        <ele>335</ele>
        <time>2016-10-23T07:05:37.000Z</time>
      </trkpt>
      <trkpt lat="47.52432" lon="6.83542">
        <ele>335</ele>
        <time>2016-10-23T07:05:38.000Z</time>
      </trkpt>
      <trkpt lat="47.52433" lon="6.8355">
        <ele>335</ele>
        <time>2016-10-23T07:05:39.000Z</time>
      </trkpt>
      <trkpt lat="47.52432" lon="6.83559">
        <ele>335</ele>
        <time>2016-10-23T07:05:40.000Z</time>
      </trkpt>
      <trkpt lat="47.52432" lon="6.83566">
        <ele>336</ele>
        <time>2016-10-23T07:05:41.000Z</time>
      </trkpt>
      <trkpt lat="47.52432" lon="6.83574">
        <ele>336</ele>
        <time>2016-10-23T07:05:42.000Z</time>
      </trkpt>
      <trkpt lat="47.52432" lon="6.83583">
        <ele>336</ele>
        <time>2016-10-23T07:05:43.000Z</time>
      </trkpt>
      <trkpt lat="47.52431" lon="6.83588">
        <ele>335</ele>
        <time>2016-10-23T07:05:44.000Z</time>
      </trkpt>
      <trkpt lat="47.52431" lon="6.83598">
        <ele>335</ele>
        <time>2016-10-23T07:05:45.000Z</time>
      </trkpt>
      <trkpt lat="47.52431" lon="6.83606">
        <ele>335</ele>
        <time>2016-10-23T07:05:46.000Z</time>
      </trkpt>
      <trkpt lat="47.52432" lon="6.83613">
        <ele>335</ele>
        <time>2016-10-23T07:05:47.000Z</time>
      </trkpt>
      <trkpt lat="47.52434" lon="6.83622">
        <ele>334</ele>
        <time>2016-10-23T07:05:48.000Z</time>
      </trkpt>
      <trkpt lat="47.52434" lon="6.83629">
        <ele>334</ele>
        <time>2016-10-23T07:05:48.999Z</time>
      </trkpt>
      <trkpt lat="47.52434" lon="6.83636">
        <ele>334</ele>
        <time>2016-10-23T07:05:50.000Z</time>
      </trkpt>
      <trkpt lat="47.52434" lon="6.83642">
        <ele>334</ele>
        <time>2016-10-23T07:05:51.000Z</time>
      </trkpt>
      <trkpt lat="47.52434" lon="6.8365">
        <ele>334</ele>
        <time>2016-10-23T07:05:52.000Z</time>
      </trkpt>
      <trkpt lat="47.52435" lon="6.83656">
        <ele>334</ele>
        <time>2016-10-23T07:05:53.000Z</time>
      </trkpt>
      <trkpt lat="47.52435" lon="6.83664">
        <ele>334</ele>
        <time>2016-10-23T07:05:54.000Z</time>
      </trkpt>
      <trkpt lat="47.52435" lon="6.83671">
        <ele>333</ele>
        <time>2016-10-23T07:05:54.999Z</time>
      </trkpt>
      <trkpt lat="47.52436" lon="6.8368">
        <ele>333</ele>
        <time>2016-10-23T07:05:56.000Z</time>
      </trkpt>
      <trkpt lat="47.52436" lon="6.83687">
        <ele>333</ele>
        <time>2016-10-23T07:05:57.000Z</time>
      </trkpt>
      <trkpt lat="47.52436" lon="6.83694">
        <ele>333</ele>
        <time>2016-10-23T07:05:58.000Z</time>
      </trkpt>
      <trkpt lat="47.52436" lon="6.837">
        <ele>333</ele>
        <time>2016-10-23T07:05:59.000Z</time>
      </trkpt>
      <trkpt lat="47.52436" lon="6.83707">
        <ele>333</ele>
        <time>2016-10-23T07:06:00.000Z</time>
      </trkpt>
      <trkpt lat="47.52436" lon="6.83717">
        <ele>333</ele>
        <time>2016-10-23T07:06:01.000Z</time>
      </trkpt>
      <trkpt lat="47.52436" lon="6.83725">
        <ele>333</ele>
        <time>2016-10-23T07:06:02.000Z</time>
      </trkpt>
      <trkpt lat="47.52435" lon="6.83733">
        <ele>333</ele>
        <time>2016-10-23T07:06:03.000Z</time>
      </trkpt>
      <trkpt lat="47.52432" lon="6.8374">
        <ele>333</ele>
        <time>2016-10-23T07:06:04.000Z</time>
      </trkpt>
      <trkpt lat="47.5243" lon="6.83748">
        <ele>333</ele>
        <time>2016-10-23T07:06:05.000Z</time>
      </trkpt>
      <trkpt lat="47.52426" lon="6.83756">
        <ele>332</ele>
        <time>2016-10-23T07:06:06.000Z</time>
      </trkpt>
      <trkpt lat="47.52421" lon="6.83762">
        <ele>332</ele>
        <time>2016-10-23T07:06:07.000Z</time>
      </trkpt>
      <trkpt lat="47.52417" lon="6.83768">
        <ele>332</ele>
        <time>2016-10-23T07:06:08.000Z</time>
      </trkpt>
      <trkpt lat="47.52413" lon="6.83775">
        <ele>331</ele>
        <time>2016-10-23T07:06:09.000Z</time>
      </trkpt>
      <trkpt lat="47.52409" lon="6.83783">
        <ele>331</ele>
        <time>2016-10-23T07:06:10.000Z</time>
      </trkpt>
      <trkpt lat="47.52405" lon="6.8379">
        <ele>331</ele>
        <time>2016-10-23T07:06:11.000Z</time>
      </trkpt>
      <trkpt lat="47.524" lon="6.83797">
        <ele>330</ele>
        <time>2016-10-23T07:06:12.000Z</time>
      </trkpt>
      <trkpt lat="47.52397" lon="6.83804">
        <ele>330</ele>
        <time>2016-10-23T07:06:13.000Z</time>
      </trkpt>
      <trkpt lat="47.52393" lon="6.83814">
        <ele>330</ele>
        <time>2016-10-23T07:06:14.000Z</time>
      </trkpt>
      <trkpt lat="47.52389" lon="6.83824">
        <ele>330</ele>
        <time>2016-10-23T07:06:15.000Z</time>
      </trkpt>
      <trkpt lat="47.52386" lon="6.83834">
        <ele>328</ele>
        <time>2016-10-23T07:06:16.000Z</time>
      </trkpt>
      <trkpt lat="47.52381" lon="6.83843">
        <ele>328</ele>
        <time>2016-10-23T07:06:17.000Z</time>
      </trkpt>
      <trkpt lat="47.52378" lon="6.83851">
        <ele>328</ele>
        <time>2016-10-23T07:06:18.000Z</time>
      </trkpt>
      <trkpt lat="47.52374" lon="6.83859">
        <ele>327</ele>
        <time>2016-10-23T07:06:19.000Z</time>
      </trkpt>
      <trkpt lat="47.5237" lon="6.83867">
        <ele>327</ele>
        <time>2016-10-23T07:06:19.999Z</time>
      </trkpt>
      <trkpt lat="47.52362" lon="6.83871">
        <ele>327</ele>
        <time>2016-10-23T07:06:21.000Z</time>
      </trkpt>
      <trkpt lat="47.52359" lon="6.83879">
        <ele>327</ele>
        <time>2016-10-23T07:06:22.001Z</time>
      </trkpt>
      <trkpt lat="47.52357" lon="6.83884">
        <ele>327</ele>
        <time>2016-10-23T07:06:23.000Z</time>
      </trkpt>
      <trkpt lat="47.52355" lon="6.83891">
        <ele>326</ele>
        <time>2016-10-23T07:06:24.000Z</time>
      </trkpt>
      <trkpt lat="47.52353" lon="6.83896">
        <ele>326</ele>
        <time>2016-10-23T07:06:26.000Z</time>
      </trkpt>
      <trkpt lat="47.52353" lon="6.83899">
        <ele>326</ele>
        <time>2016-10-23T07:06:27.000Z</time>
      </trkpt>
      <trkpt lat="47.52354" lon="6.83904">
        <ele>326</ele>
        <time>2016-10-23T07:06:29.001Z</time>
      </trkpt>
      <trkpt lat="47.52354" lon="6.83913">
        <ele>326</ele>
        <time>2016-10-23T07:06:30.000Z</time>
      </trkpt>
      <trkpt lat="47.52353" lon="6.83919">
        <ele>324</ele>
        <time>2016-10-23T07:06:31.000Z</time>
      </trkpt>
      <trkpt lat="47.52352" lon="6.83924">
        <ele>324</ele>
        <time>2016-10-23T07:06:31.999Z</time>
      </trkpt>
      <trkpt lat="47.52354" lon="6.83933">
        <ele>324</ele>
        <time>2016-10-23T07:06:33.000Z</time>
      </trkpt>
      <trkpt lat="47.52355" lon="6.83942">
        <ele>324</ele>
        <time>2016-10-23T07:06:34.000Z</time>
      </trkpt>
      <trkpt lat="47.52353" lon="6.83952">
        <ele>324</ele>
        <time>2016-10-23T07:06:35.000Z</time>
      </trkpt>
      <trkpt lat="47.52352" lon="6.83962">
        <ele>324</ele>
        <time>2016-10-23T07:06:35.999Z</time>
      </trkpt>
      <trkpt lat="47.52351" lon="6.83969">
        <ele>324</ele>
        <time>2016-10-23T07:06:37.001Z</time>
      </trkpt>
      <trkpt lat="47.52348" lon="6.83976">
        <ele>323</ele>
        <time>2016-10-23T07:06:38.001Z</time>
      </trkpt>
      <trkpt lat="47.52346" lon="6.83989">
        <ele>323</ele>
        <time>2016-10-23T07:06:39.000Z</time>
      </trkpt>
      <trkpt lat="47.52344" lon="6.83999">
        <ele>322</ele>
        <time>2016-10-23T07:06:40.000Z</time>
      </trkpt>
      <trkpt lat="47.52341" lon="6.8401">
        <ele>321</ele>
        <time>2016-10-23T07:06:41.000Z</time>
      </trkpt>
      <trkpt lat="47.52338" lon="6.8402">
        <ele>321</ele>
        <time>2016-10-23T07:06:42.000Z</time>
      </trkpt>
      <trkpt lat="47.52336" lon="6.84031">
        <ele>321</ele>
        <time>2016-10-23T07:06:43.000Z</time>
      </trkpt>
      <trkpt lat="47.52335" lon="6.84041">
        <ele>321</ele>
        <time>2016-10-23T07:06:44.000Z</time>
      </trkpt>
      <trkpt lat="47.52334" lon="6.84053">
        <ele>321</ele>
        <time>2016-10-23T07:06:45.000Z</time>
      </trkpt>
      <trkpt lat="47.52333" lon="6.84064">
        <ele>320</ele>
        <time>2016-10-23T07:06:46.000Z</time>
      </trkpt>
      <trkpt lat="47.52332" lon="6.84074">
        <ele>320</ele>
        <time>2016-10-23T07:06:47.000Z</time>
      </trkpt>
      <trkpt lat="47.52331" lon="6.84085">
        <ele>320</ele>
        <time>2016-10-23T07:06:48.000Z</time>
      </trkpt>
      <trkpt lat="47.52331" lon="6.84094">
        <ele>320</ele>
        <time>2016-10-23T07:06:49.000Z</time>
      </trkpt>
      <trkpt lat="47.5233" lon="6.84103">
        <ele>320</ele>
        <time>2016-10-23T07:06:50.000Z</time>
      </trkpt>
      <trkpt lat="47.52328" lon="6.84113">
        <ele>320</ele>
        <time>2016-10-23T07:06:51.000Z</time>
      </trkpt>
      <trkpt lat="47.52325" lon="6.84122">
        <ele>320</ele>
        <time>2016-10-23T07:06:52.000Z</time>
      </trkpt>
      <trkpt lat="47.52322" lon="6.84129">
        <ele>319</ele>
        <time>2016-10-23T07:06:53.000Z</time>
      </trkpt>
      <trkpt lat="47.52319" lon="6.84136">
        <ele>319</ele>
        <time>2016-10-23T07:06:54.000Z</time>
      </trkpt>
      <trkpt lat="47.52314" lon="6.84143">
        <ele>319</ele>
        <time>2016-10-23T07:06:55.000Z</time>
      </trkpt>
      <trkpt lat="47.52311" lon="6.8415">
        <ele>319</ele>
        <time>2016-10-23T07:06:56.001Z</time>
      </trkpt>
      <trkpt lat="47.52305" lon="6.84156">
        <ele>319</ele>
        <time>2016-10-23T07:06:57.000Z</time>
      </trkpt>
      <trkpt lat="47.52302" lon="6.84162">
        <ele>319</ele>
        <time>2016-10-23T07:06:58.000Z</time>
      </trkpt>
      <trkpt lat="47.52297" lon="6.84169">
        <ele>319</ele>
        <time>2016-10-23T07:06:59.001Z</time>
      </trkpt>
      <trkpt lat="47.52292" lon="6.84175">
        <ele>319</ele>
        <time>2016-10-23T07:07:00.000Z</time>
      </trkpt>
      <trkpt lat="47.52288" lon="6.84179">
        <ele>319</ele>
        <time>2016-10-23T07:07:01.000Z</time>
      </trkpt>
      <trkpt lat="47.52282" lon="6.84186">
        <ele>319</ele>
        <time>2016-10-23T07:07:02.000Z</time>
      </trkpt>
      <trkpt lat="47.52277" lon="6.84192">
        <ele>319</ele>
        <time>2016-10-23T07:07:03.000Z</time>
      </trkpt>
      <trkpt lat="47.52274" lon="6.84197">
        <ele>319</ele>
        <time>2016-10-23T07:07:04.000Z</time>
      </trkpt>
      <trkpt lat="47.52272" lon="6.84206">
        <ele>319</ele>
        <time>2016-10-23T07:07:05.000Z</time>
      </trkpt>
      <trkpt lat="47.52271" lon="6.84214">
        <ele>319</ele>
        <time>2016-10-23T07:07:06.000Z</time>
      </trkpt>
      <trkpt lat="47.52267" lon="6.84221">
        <ele>319</ele>
        <time>2016-10-23T07:07:07.000Z</time>
      </trkpt>
      <trkpt lat="47.52261" lon="6.84227">
        <ele>319</ele>
        <time>2016-10-23T07:07:08.000Z</time>
      </trkpt>
      <trkpt lat="47.52258" lon="6.84233">
        <ele>319</ele>
        <time>2016-10-23T07:07:09.000Z</time>
      </trkpt>
      <trkpt lat="47.52254" lon="6.84239">
        <ele>319</ele>
        <time>2016-10-23T07:07:10.000Z</time>
      </trkpt>
      <trkpt lat="47.5225" lon="6.84246">
        <ele>319</ele>
        <time>2016-10-23T07:07:11.000Z</time>
      </trkpt>
      <trkpt lat="47.52247" lon="6.84253">
        <ele>319</ele>
        <time>2016-10-23T07:07:12.000Z</time>
      </trkpt>
      <trkpt lat="47.52242" lon="6.84259">
        <ele>319</ele>
        <time>2016-10-23T07:07:13.000Z</time>
      </trkpt>
      <trkpt lat="47.52238" lon="6.84266">
        <ele>319</ele>
        <time>2016-10-23T07:07:14.000Z</time>
      </trkpt>
      <trkpt lat="47.52236" lon="6.84273">
        <ele>319</ele>
        <time>2016-10-23T07:07:15.000Z</time>
      </trkpt>
      <trkpt lat="47.52232" lon="6.84279">
        <ele>318</ele>
        <time>2016-10-23T07:07:16.000Z</time>
      </trkpt>
      <trkpt lat="47.52228" lon="6.84286">
        <ele>318</ele>
        <time>2016-10-23T07:07:17.000Z</time>
      </trkpt>
      <trkpt lat="47.52224" lon="6.84292">
        <ele>318</ele>
        <time>2016-10-23T07:07:18.000Z</time>
      </trkpt>
      <trkpt lat="47.52221" lon="6.84299">
        <ele>318</ele>
        <time>2016-10-23T07:07:19.000Z</time>
      </trkpt>
      <trkpt lat="47.52217" lon="6.84307">
        <ele>318</ele>
        <time>2016-10-23T07:07:20.000Z</time>
      </trkpt>
      <trkpt lat="47.52213" lon="6.84313">
        <ele>318</ele>
        <time>2016-10-23T07:07:21.000Z</time>
      </trkpt>
      <trkpt lat="47.52208" lon="6.8432">
        <ele>318</ele>
        <time>2016-10-23T07:07:22.000Z</time>
      </trkpt>
      <trkpt lat="47.52205" lon="6.84326">
        <ele>318</ele>
        <time>2016-10-23T07:07:23.000Z</time>
      </trkpt>
      <trkpt lat="47.52202" lon="6.84331">
        <ele>318</ele>
        <time>2016-10-23T07:07:24.000Z</time>
      </trkpt>
      <trkpt lat="47.52199" lon="6.84338">
        <ele>318</ele>
        <time>2016-10-23T07:07:25.000Z</time>
      </trkpt>
      <trkpt lat="47.52196" lon="6.84344">
        <ele>318</ele>
        <time>2016-10-23T07:07:26.000Z</time>
      </trkpt>
      <trkpt lat="47.52193" lon="6.84351">
        <ele>318</ele>
        <time>2016-10-23T07:07:26.999Z</time>
      </trkpt>
      <trkpt lat="47.52192" lon="6.84357">
        <ele>318</ele>
        <time>2016-10-23T07:07:28.000Z</time>
      </trkpt>
      <trkpt lat="47.52191" lon="6.84364">
        <ele>318</ele>
        <time>2016-10-23T07:07:29.000Z</time>
      </trkpt>
      <trkpt lat="47.52186" lon="6.84369">
        <ele>318</ele>
        <time>2016-10-23T07:07:30.000Z</time>
      </trkpt>
      <trkpt lat="47.52184" lon="6.84374">
        <ele>318</ele>
        <time>2016-10-23T07:07:31.000Z</time>
      </trkpt>
      <trkpt lat="47.52181" lon="6.84381">
        <ele>318</ele>
        <time>2016-10-23T07:07:32.000Z</time>
      </trkpt>
      <trkpt lat="47.52177" lon="6.84387">
        <ele>317</ele>
        <time>2016-10-23T07:07:33.000Z</time>
      </trkpt>
      <trkpt lat="47.52173" lon="6.8439">
        <ele>317</ele>
        <time>2016-10-23T07:07:34.000Z</time>
      </trkpt>
      <trkpt lat="47.52169" lon="6.84397">
        <ele>317</ele>
        <time>2016-10-23T07:07:35.000Z</time>
      </trkpt>
      <trkpt lat="47.52165" lon="6.84403">
        <ele>317</ele>
        <time>2016-10-23T07:07:36.000Z</time>
      </trkpt>
      <trkpt lat="47.52161" lon="6.84409">
        <ele>317</ele>
        <time>2016-10-23T07:07:36.999Z</time>
      </trkpt>
      <trkpt lat="47.52154" lon="6.84413">
        <ele>317</ele>
        <time>2016-10-23T07:07:38.000Z</time>
      </trkpt>
      <trkpt lat="47.52151" lon="6.8442">
        <ele>317</ele>
        <time>2016-10-23T07:07:39.000Z</time>
      </trkpt>
      <trkpt lat="47.52148" lon="6.84427">
        <ele>317</ele>
        <time>2016-10-23T07:07:40.000Z</time>
      </trkpt>
      <trkpt lat="47.52146" lon="6.84435">
        <ele>317</ele>
        <time>2016-10-23T07:07:41.000Z</time>
      </trkpt>
      <trkpt lat="47.52145" lon="6.84447">
        <ele>317</ele>
        <time>2016-10-23T07:07:42.000Z</time>
      </trkpt>
      <trkpt lat="47.52147" lon="6.84455">
        <ele>317</ele>
        <time>2016-10-23T07:07:43.000Z</time>
      </trkpt>
      <trkpt lat="47.52149" lon="6.84463">
        <ele>317</ele>
        <time>2016-10-23T07:07:44.000Z</time>
      </trkpt>
      <trkpt lat="47.52154" lon="6.8447">
        <ele>317</ele>
        <time>2016-10-23T07:07:45.000Z</time>
      </trkpt>
      <trkpt lat="47.52158" lon="6.84476">
        <ele>317</ele>
        <time>2016-10-23T07:07:46.000Z</time>
      </trkpt>
      <trkpt lat="47.52161" lon="6.84482">
        <ele>317</ele>
        <time>2016-10-23T07:07:47.000Z</time>
      </trkpt>
      <trkpt lat="47.52166" lon="6.84488">
        <ele>317</ele>
        <time>2016-10-23T07:07:48.001Z</time>
      </trkpt>
      <trkpt lat="47.52168" lon="6.84494">
        <ele>317</ele>
        <time>2016-10-23T07:07:49.000Z</time>
      </trkpt>
      <trkpt lat="47.52172" lon="6.845">
        <ele>317</ele>
        <time>2016-10-23T07:07:50.000Z</time>
      </trkpt>
      <trkpt lat="47.52174" lon="6.84506">
        <ele>317</ele>
        <time>2016-10-23T07:07:51.000Z</time>
      </trkpt>
      <trkpt lat="47.52177" lon="6.84513">
        <ele>318</ele>
        <time>2016-10-23T07:07:52.000Z</time>
      </trkpt>
      <trkpt lat="47.52179" lon="6.8452">
        <ele>318</ele>
        <time>2016-10-23T07:07:53.000Z</time>
      </trkpt>
      <trkpt lat="47.52179" lon="6.84526">
        <ele>318</ele>
        <time>2016-10-23T07:07:54.000Z</time>
      </trkpt>
      <trkpt lat="47.5218" lon="6.84536">
        <ele>318</ele>
        <time>2016-10-23T07:07:55.000Z</time>
      </trkpt>
      <trkpt lat="47.52181" lon="6.84542">
        <ele>318</ele>
        <time>2016-10-23T07:07:55.999Z</time>
      </trkpt>
      <trkpt lat="47.52187" lon="6.84545">
        <ele>318</ele>
        <time>2016-10-23T07:07:57.000Z</time>
      </trkpt>
      <trkpt lat="47.5219" lon="6.8455">
        <ele>319</ele>
        <time>2016-10-23T07:07:58.000Z</time>
      </trkpt>
      <trkpt lat="47.52194" lon="6.84557">
        <ele>319</ele>
        <time>2016-10-23T07:07:59.000Z</time>
      </trkpt>
      <trkpt lat="47.52197" lon="6.84565">
        <ele>319</ele>
        <time>2016-10-23T07:08:00.000Z</time>
      </trkpt>
      <trkpt lat="47.52201" lon="6.84572">
        <ele>319</ele>
        <time>2016-10-23T07:08:01.000Z</time>
      </trkpt>
      <trkpt lat="47.52206" lon="6.84579">
        <ele>319</ele>
        <time>2016-10-23T07:08:01.999Z</time>
      </trkpt>
      <trkpt lat="47.52208" lon="6.84584">
        <ele>320</ele>
        <time>2016-10-23T07:08:03.000Z</time>
      </trkpt>
      <trkpt lat="47.52213" lon="6.8459">
        <ele>320</ele>
        <time>2016-10-23T07:08:04.000Z</time>
      </trkpt>
      <trkpt lat="47.52218" lon="6.84596">
        <ele>320</ele>
        <time>2016-10-23T07:08:05.000Z</time>
      </trkpt>
      <trkpt lat="47.52219" lon="6.84604">
        <ele>320</ele>
        <time>2016-10-23T07:08:06.000Z</time>
      </trkpt>
      <trkpt lat="47.52224" lon="6.84612">
        <ele>320</ele>
        <time>2016-10-23T07:08:07.000Z</time>
      </trkpt>
      <trkpt lat="47.52227" lon="6.84619">
        <ele>320</ele>
        <time>2016-10-23T07:08:08.000Z</time>
      </trkpt>
      <trkpt lat="47.52231" lon="6.84624">
        <ele>320</ele>
        <time>2016-10-23T07:08:09.000Z</time>
      </trkpt>
      <trkpt lat="47.52234" lon="6.84631">
        <ele>320</ele>
        <time>2016-10-23T07:08:10.000Z</time>
      </trkpt>
      <trkpt lat="47.52238" lon="6.84638">
        <ele>320</ele>
        <time>2016-10-23T07:08:11.000Z</time>
      </trkpt>
      <trkpt lat="47.52241" lon="6.84645">
        <ele>321</ele>
        <time>2016-10-23T07:08:12.000Z</time>
      </trkpt>
      <trkpt lat="47.52245" lon="6.84651">
        <ele>321</ele>
        <time>2016-10-23T07:08:13.000Z</time>
      </trkpt>
      <trkpt lat="47.52249" lon="6.84658">
        <ele>321</ele>
        <time>2016-10-23T07:08:14.000Z</time>
      </trkpt>
      <trkpt lat="47.52253" lon="6.84664">
        <ele>321</ele>
        <time>2016-10-23T07:08:15.000Z</time>
      </trkpt>
      <trkpt lat="47.52257" lon="6.84669">
        <ele>321</ele>
        <time>2016-10-23T07:08:16.000Z</time>
      </trkpt>
      <trkpt lat="47.5226" lon="6.84677">
        <ele>321</ele>
        <time>2016-10-23T07:08:17.000Z</time>
      </trkpt>
      <trkpt lat="47.52265" lon="6.84682">
        <ele>321</ele>
        <time>2016-10-23T07:08:18.000Z</time>
      </trkpt>
      <trkpt lat="47.5227" lon="6.84686">
        <ele>321</ele>
        <time>2016-10-23T07:08:19.000Z</time>
      </trkpt>
      <trkpt lat="47.52274" lon="6.8469">
        <ele>322</ele>
        <time>2016-10-23T07:08:20.000Z</time>
      </trkpt>
      <trkpt lat="47.52279" lon="6.84695">
        <ele>322</ele>
        <time>2016-10-23T07:08:21.000Z</time>
      </trkpt>
      <trkpt lat="47.52284" lon="6.84698">
        <ele>322</ele>
        <time>2016-10-23T07:08:22.000Z</time>
      </trkpt>
      <trkpt lat="47.52288" lon="6.84701">
        <ele>322</ele>
        <time>2016-10-23T07:08:23.000Z</time>
      </trkpt>
      <trkpt lat="47.52292" lon="6.84704">
        <ele>322</ele>
        <time>2016-10-23T07:08:24.000Z</time>
      </trkpt>
      <trkpt lat="47.52295" lon="6.84708">
        <ele>322</ele>
        <time>2016-10-23T07:08:25.000Z</time>
      </trkpt>
      <trkpt lat="47.523" lon="6.84712">
        <ele>322</ele>
        <time>2016-10-23T07:08:26.000Z</time>
      </trkpt>
      <trkpt lat="47.52304" lon="6.84717">
        <ele>322</ele>
        <time>2016-10-23T07:08:27.000Z</time>
      </trkpt>
      <trkpt lat="47.52308" lon="6.84722">
        <ele>322</ele>
        <time>2016-10-23T07:08:28.000Z</time>
      </trkpt>
      <trkpt lat="47.52311" lon="6.84726">
        <ele>322</ele>
        <time>2016-10-23T07:08:29.000Z</time>
      </trkpt>
      <trkpt lat="47.52315" lon="6.84731">
        <ele>322</ele>
        <time>2016-10-23T07:08:30.000Z</time>
      </trkpt>
      <trkpt lat="47.52318" lon="6.84735">
        <ele>322</ele>
        <time>2016-10-23T07:08:31.000Z</time>
      </trkpt>
      <trkpt lat="47.52323" lon="6.84739">
        <ele>322</ele>
        <time>2016-10-23T07:08:32.000Z</time>
      </trkpt>
      <trkpt lat="47.52326" lon="6.84745">
        <ele>323</ele>
        <time>2016-10-23T07:08:33.000Z</time>
      </trkpt>
      <trkpt lat="47.52331" lon="6.8475">
        <ele>323</ele>
        <time>2016-10-23T07:08:34.000Z</time>
      </trkpt>
      <trkpt lat="47.52336" lon="6.84754">
        <ele>323</ele>
        <time>2016-10-23T07:08:35.000Z</time>
      </trkpt>
      <trkpt lat="47.5234" lon="6.84759">
        <ele>322</ele>
        <time>2016-10-23T07:08:36.000Z</time>
      </trkpt>
      <trkpt lat="47.52346" lon="6.84762">
        <ele>322</ele>
        <time>2016-10-23T07:08:37.000Z</time>
      </trkpt>
      <trkpt lat="47.52351" lon="6.84767">
        <ele>322</ele>
        <time>2016-10-23T07:08:38.000Z</time>
      </trkpt>
      <trkpt lat="47.52356" lon="6.84771">
        <ele>322</ele>
        <time>2016-10-23T07:08:39.000Z</time>
      </trkpt>
      <trkpt lat="47.5236" lon="6.84775">
        <ele>322</ele>
        <time>2016-10-23T07:08:40.000Z</time>
      </trkpt>
      <trkpt lat="47.52365" lon="6.84777">
        <ele>322</ele>
        <time>2016-10-23T07:08:41.000Z</time>
      </trkpt>
      <trkpt lat="47.5237" lon="6.8478">
        <ele>322</ele>
        <time>2016-10-23T07:08:42.000Z</time>
      </trkpt>
      <trkpt lat="47.52375" lon="6.84782">
        <ele>322</ele>
        <time>2016-10-23T07:08:43.000Z</time>
      </trkpt>
      <trkpt lat="47.52381" lon="6.84783">
        <ele>322</ele>
        <time>2016-10-23T07:08:44.000Z</time>
      </trkpt>
      <trkpt lat="47.52386" lon="6.84784">
        <ele>321</ele>
        <time>2016-10-23T07:08:45.000Z</time>
      </trkpt>
      <trkpt lat="47.52391" lon="6.84782">
        <ele>321</ele>
        <time>2016-10-23T07:08:46.000Z</time>
      </trkpt>
      <trkpt lat="47.52397" lon="6.84779">
        <ele>321</ele>
        <time>2016-10-23T07:08:47.000Z</time>
      </trkpt>
      <trkpt lat="47.52403" lon="6.84778">
        <ele>321</ele>
        <time>2016-10-23T07:08:48.000Z</time>
      </trkpt>
      <trkpt lat="47.5241" lon="6.84776">
        <ele>321</ele>
        <time>2016-10-23T07:08:49.000Z</time>
      </trkpt>
      <trkpt lat="47.52416" lon="6.84775">
        <ele>321</ele>
        <time>2016-10-23T07:08:50.000Z</time>
      </trkpt>
      <trkpt lat="47.52421" lon="6.84773">
        <ele>321</ele>
        <time>2016-10-23T07:08:51.000Z</time>
      </trkpt>
      <trkpt lat="47.52426" lon="6.8477">
        <ele>321</ele>
        <time>2016-10-23T07:08:52.000Z</time>
      </trkpt>
      <trkpt lat="47.5243" lon="6.8477">
        <ele>321</ele>
        <time>2016-10-23T07:08:53.000Z</time>
      </trkpt>
      <trkpt lat="47.52434" lon="6.84768">
        <ele>321</ele>
        <time>2016-10-23T07:08:54.000Z</time>
      </trkpt>
      <trkpt lat="47.52438" lon="6.84765">
        <ele>321</ele>
        <time>2016-10-23T07:08:55.000Z</time>
      </trkpt>
      <trkpt lat="47.52443" lon="6.84762">
        <ele>321</ele>
        <time>2016-10-23T07:08:56.000Z</time>
      </trkpt>
      <trkpt lat="47.52449" lon="6.84759">
        <ele>321</ele>
        <time>2016-10-23T07:08:57.000Z</time>
      </trkpt>
      <trkpt lat="47.52454" lon="6.84757">
        <ele>321</ele>
        <time>2016-10-23T07:08:58.001Z</time>
      </trkpt>
      <trkpt lat="47.52458" lon="6.84761">
        <ele>321</ele>
        <time>2016-10-23T07:08:59.000Z</time>
      </trkpt>
      <trkpt lat="47.52462" lon="6.84763">
        <ele>321</ele>
        <time>2016-10-23T07:09:00.000Z</time>
      </trkpt>
      <trkpt lat="47.52466" lon="6.84767">
        <ele>321</ele>
        <time>2016-10-23T07:09:01.000Z</time>
      </trkpt>
      <trkpt lat="47.5247" lon="6.8477">
        <ele>321</ele>
        <time>2016-10-23T07:09:02.000Z</time>
      </trkpt>
      <trkpt lat="47.52475" lon="6.84772">
        <ele>321</ele>
        <time>2016-10-23T07:09:03.000Z</time>
      </trkpt>
      <trkpt lat="47.52478" lon="6.84775">
        <ele>321</ele>
        <time>2016-10-23T07:09:04.000Z</time>
      </trkpt>
      <trkpt lat="47.52482" lon="6.84777">
        <ele>321</ele>
        <time>2016-10-23T07:09:05.000Z</time>
      </trkpt>
      <trkpt lat="47.52488" lon="6.8478">
        <ele>321</ele>
        <time>2016-10-23T07:09:06.000Z</time>
      </trkpt>
      <trkpt lat="47.52493" lon="6.84784">
        <ele>321</ele>
        <time>2016-10-23T07:09:07.000Z</time>
      </trkpt>
      <trkpt lat="47.52498" lon="6.84786">
        <ele>321</ele>
        <time>2016-10-23T07:09:08.000Z</time>
      </trkpt>
      <trkpt lat="47.52504" lon="6.84788">
        <ele>321</ele>
        <time>2016-10-23T07:09:09.000Z</time>
      </trkpt>
      <trkpt lat="47.5251" lon="6.84791">
        <ele>321</ele>
        <time>2016-10-23T07:09:10.000Z</time>
      </trkpt>
      <trkpt lat="47.52514" lon="6.84794">
        <ele>321</ele>
        <time>2016-10-23T07:09:11.000Z</time>
      </trkpt>
      <trkpt lat="47.52518" lon="6.84797">
        <ele>321</ele>
        <time>2016-10-23T07:09:12.000Z</time>
      </trkpt>
      <trkpt lat="47.52523" lon="6.848">
        <ele>321</ele>
        <time>2016-10-23T07:09:13.000Z</time>
      </trkpt>
      <trkpt lat="47.52528" lon="6.84803">
        <ele>321</ele>
        <time>2016-10-23T07:09:14.000Z</time>
      </trkpt>
      <trkpt lat="47.52533" lon="6.84806">
        <ele>321</ele>
        <time>2016-10-23T07:09:15.000Z</time>
      </trkpt>
      <trkpt lat="47.52538" lon="6.84809">
        <ele>321</ele>
        <time>2016-10-23T07:09:16.000Z</time>
      </trkpt>
      <trkpt lat="47.52544" lon="6.8481">
        <ele>321</ele>
        <time>2016-10-23T07:09:17.000Z</time>
      </trkpt>
      <trkpt lat="47.52549" lon="6.84811">
        <ele>321</ele>
        <time>2016-10-23T07:09:18.000Z</time>
      </trkpt>
      <trkpt lat="47.52554" lon="6.84813">
        <ele>321</ele>
        <time>2016-10-23T07:09:19.000Z</time>
      </trkpt>
      <trkpt lat="47.52558" lon="6.84813">
        <ele>321</ele>
        <time>2016-10-23T07:09:20.000Z</time>
      </trkpt>
      <trkpt lat="47.52563" lon="6.84814">
        <ele>321</ele>
        <time>2016-10-23T07:09:21.000Z</time>
      </trkpt>
      <trkpt lat="47.52568" lon="6.84812">
        <ele>321</ele>
        <time>2016-10-23T07:09:22.000Z</time>
      </trkpt>
      <trkpt lat="47.52572" lon="6.84813">
        <ele>321</ele>
        <time>2016-10-23T07:09:23.000Z</time>
      </trkpt>
      <trkpt lat="47.52577" lon="6.84811">
        <ele>321</ele>
        <time>2016-10-23T07:09:24.000Z</time>
      </trkpt>
      <trkpt lat="47.52582" lon="6.84809">
        <ele>321</ele>
        <time>2016-10-23T07:09:25.000Z</time>
      </trkpt>
      <trkpt lat="47.52587" lon="6.84807">
        <ele>321</ele>
        <time>2016-10-23T07:09:26.000Z</time>
      </trkpt>
      <trkpt lat="47.52592" lon="6.84805">
        <ele>321</ele>
        <time>2016-10-23T07:09:27.000Z</time>
      </trkpt>
      <trkpt lat="47.52597" lon="6.84804">
        <ele>321</ele>
        <time>2016-10-23T07:09:28.000Z</time>
      </trkpt>
      <trkpt lat="47.52601" lon="6.84803">
        <ele>321</ele>
        <time>2016-10-23T07:09:29.000Z</time>
      </trkpt>
      <trkpt lat="47.52606" lon="6.84802">
        <ele>321</ele>
        <time>2016-10-23T07:09:30.000Z</time>
      </trkpt>
      <trkpt lat="47.52611" lon="6.84801">
        <ele>321</ele>
        <time>2016-10-23T07:09:31.000Z</time>
      </trkpt>
      <trkpt lat="47.52616" lon="6.84798">
        <ele>321</ele>
        <time>2016-10-23T07:09:32.000Z</time>
      </trkpt>
      <trkpt lat="47.52621" lon="6.84797">
        <ele>321</ele>
        <time>2016-10-23T07:09:33.000Z</time>
      </trkpt>
      <trkpt lat="47.52627" lon="6.84794">
        <ele>320</ele>
        <time>2016-10-23T07:09:34.000Z</time>
      </trkpt>
      <trkpt lat="47.52631" lon="6.8479">
        <ele>320</ele>
        <time>2016-10-23T07:09:35.000Z</time>
      </trkpt>
      <trkpt lat="47.52637" lon="6.84786">
        <ele>320</ele>
        <time>2016-10-23T07:09:36.000Z</time>
      </trkpt>
      <trkpt lat="47.52642" lon="6.84781">
        <ele>320</ele>
        <time>2016-10-23T07:09:37.000Z</time>
      </trkpt>
      <trkpt lat="47.52647" lon="6.84777">
        <ele>320</ele>
        <time>2016-10-23T07:09:38.000Z</time>
      </trkpt>
      <trkpt lat="47.52651" lon="6.84774">
        <ele>320</ele>
        <time>2016-10-23T07:09:39.000Z</time>
      </trkpt>
      <trkpt lat="47.52657" lon="6.84773">
        <ele>320</ele>
        <time>2016-10-23T07:09:40.000Z</time>
      </trkpt>
      <trkpt lat="47.52662" lon="6.84772">
        <ele>320</ele>
        <time>2016-10-23T07:09:41.000Z</time>
      </trkpt>
      <trkpt lat="47.52668" lon="6.84771">
        <ele>320</ele>
        <time>2016-10-23T07:09:42.000Z</time>
      </trkpt>
      <trkpt lat="47.52674" lon="6.84773">
        <ele>320</ele>
        <time>2016-10-23T07:09:43.000Z</time>
      </trkpt>
      <trkpt lat="47.52681" lon="6.84773">
        <ele>320</ele>
        <time>2016-10-23T07:09:44.000Z</time>
      </trkpt>
      <trkpt lat="47.52687" lon="6.84772">
        <ele>320</ele>
        <time>2016-10-23T07:09:45.000Z</time>
      </trkpt>
      <trkpt lat="47.52692" lon="6.84771">
        <ele>320</ele>
        <time>2016-10-23T07:09:46.000Z</time>
      </trkpt>
      <trkpt lat="47.52698" lon="6.84771">
        <ele>320</ele>
        <time>2016-10-23T07:09:47.000Z</time>
      </trkpt>
      <trkpt lat="47.52703" lon="6.8477">
        <ele>320</ele>
        <time>2016-10-23T07:09:48.000Z</time>
      </trkpt>
      <trkpt lat="47.52708" lon="6.84767">
        <ele>321</ele>
        <time>2016-10-23T07:09:49.000Z</time>
      </trkpt>
      <trkpt lat="47.52714" lon="6.84765">
        <ele>321</ele>
        <time>2016-10-23T07:09:50.000Z</time>
      </trkpt>
      <trkpt lat="47.52719" lon="6.84763">
        <ele>321</ele>
        <time>2016-10-23T07:09:51.000Z</time>
      </trkpt>
      <trkpt lat="47.52724" lon="6.84762">
        <ele>321</ele>
        <time>2016-10-23T07:09:52.000Z</time>
      </trkpt>
      <trkpt lat="47.52729" lon="6.8476">
        <ele>321</ele>
        <time>2016-10-23T07:09:53.000Z</time>
      </trkpt>
      <trkpt lat="47.52734" lon="6.8476">
        <ele>321</ele>
        <time>2016-10-23T07:09:54.000Z</time>
      </trkpt>
      <trkpt lat="47.5274" lon="6.8476">
        <ele>321</ele>
        <time>2016-10-23T07:09:55.000Z</time>
      </trkpt>
      <trkpt lat="47.52745" lon="6.8476">
        <ele>321</ele>
        <time>2016-10-23T07:09:56.000Z</time>
      </trkpt>
      <trkpt lat="47.5275" lon="6.84759">
        <ele>321</ele>
        <time>2016-10-23T07:09:57.000Z</time>
      </trkpt>
      <trkpt lat="47.52755" lon="6.84757">
        <ele>321</ele>
        <time>2016-10-23T07:09:58.000Z</time>
      </trkpt>
      <trkpt lat="47.5276" lon="6.84756">
        <ele>321</ele>
        <time>2016-10-23T07:09:59.000Z</time>
      </trkpt>
      <trkpt lat="47.52764" lon="6.84753">
        <ele>321</ele>
        <time>2016-10-23T07:10:00.000Z</time>
      </trkpt>
      <trkpt lat="47.52769" lon="6.84748">
        <ele>321</ele>
        <time>2016-10-23T07:10:01.000Z</time>
      </trkpt>
      <trkpt lat="47.52773" lon="6.84744">
        <ele>321</ele>
        <time>2016-10-23T07:10:02.000Z</time>
      </trkpt>
      <trkpt lat="47.52777" lon="6.84738">
        <ele>321</ele>
        <time>2016-10-23T07:10:03.000Z</time>
      </trkpt>
      <trkpt lat="47.52781" lon="6.84733">
        <ele>321</ele>
        <time>2016-10-23T07:10:04.000Z</time>
      </trkpt>
      <trkpt lat="47.52786" lon="6.84728">
        <ele>321</ele>
        <time>2016-10-23T07:10:05.000Z</time>
      </trkpt>
      <trkpt lat="47.5279" lon="6.84725">
        <ele>321</ele>
        <time>2016-10-23T07:10:06.000Z</time>
      </trkpt>
      <trkpt lat="47.52795" lon="6.84727">
        <ele>321</ele>
        <time>2016-10-23T07:10:07.000Z</time>
      </trkpt>
      <trkpt lat="47.52798" lon="6.84732">
        <ele>321</ele>
        <time>2016-10-23T07:10:08.000Z</time>
      </trkpt>
      <trkpt lat="47.52802" lon="6.84739">
        <ele>321</ele>
        <time>2016-10-23T07:10:09.000Z</time>
      </trkpt>
      <trkpt lat="47.52806" lon="6.84747">
        <ele>321</ele>
        <time>2016-10-23T07:10:10.000Z</time>
      </trkpt>
      <trkpt lat="47.52807" lon="6.84754">
        <ele>321</ele>
        <time>2016-10-23T07:10:11.000Z</time>
      </trkpt>
      <trkpt lat="47.52806" lon="6.84763">
        <ele>321</ele>
        <time>2016-10-23T07:10:12.000Z</time>
      </trkpt>
      <trkpt lat="47.52801" lon="6.84767">
        <ele>322</ele>
        <time>2016-10-23T07:10:13.000Z</time>
      </trkpt>
      <trkpt lat="47.52796" lon="6.84768">
        <ele>322</ele>
        <time>2016-10-23T07:10:14.000Z</time>
      </trkpt>
      <trkpt lat="47.52791" lon="6.84771">
        <ele>322</ele>
        <time>2016-10-23T07:10:15.000Z</time>
      </trkpt>
      <trkpt lat="47.52787" lon="6.84774">
        <ele>322</ele>
        <time>2016-10-23T07:10:16.000Z</time>
      </trkpt>
      <trkpt lat="47.52784" lon="6.84778">
        <ele>322</ele>
        <time>2016-10-23T07:10:17.000Z</time>
      </trkpt>
      <trkpt lat="47.52779" lon="6.84782">
        <ele>322</ele>
        <time>2016-10-23T07:10:18.000Z</time>
      </trkpt>
      <trkpt lat="47.52775" lon="6.84786">
        <ele>322</ele>
        <time>2016-10-23T07:10:19.000Z</time>
      </trkpt>
      <trkpt lat="47.52771" lon="6.84791">
        <ele>322</ele>
        <time>2016-10-23T07:10:20.000Z</time>
      </trkpt>
      <trkpt lat="47.52767" lon="6.84795">
        <ele>322</ele>
        <time>2016-10-23T07:10:21.000Z</time>
      </trkpt>
      <trkpt lat="47.52764" lon="6.84801">
        <ele>322</ele>
        <time>2016-10-23T07:10:22.000Z</time>
      </trkpt>
      <trkpt lat="47.5276" lon="6.84806">
        <ele>322</ele>
        <time>2016-10-23T07:10:23.000Z</time>
      </trkpt>
      <trkpt lat="47.52756" lon="6.84809">
        <ele>322</ele>
        <time>2016-10-23T07:10:24.000Z</time>
      </trkpt>
      <trkpt lat="47.52752" lon="6.84814">
        <ele>322</ele>
        <time>2016-10-23T07:10:25.000Z</time>
      </trkpt>
      <trkpt lat="47.5275" lon="6.84821">
        <ele>322</ele>
        <time>2016-10-23T07:10:26.000Z</time>
      </trkpt>
      <trkpt lat="47.52749" lon="6.84828">
        <ele>323</ele>
        <time>2016-10-23T07:10:27.000Z</time>
      </trkpt>
      <trkpt lat="47.52748" lon="6.84836">
        <ele>323</ele>
        <time>2016-10-23T07:10:28.000Z</time>
      </trkpt>
      <trkpt lat="47.52748" lon="6.84844">
        <ele>323</ele>
        <time>2016-10-23T07:10:29.000Z</time>
      </trkpt>
      <trkpt lat="47.52748" lon="6.84851">
        <ele>322</ele>
        <time>2016-10-23T07:10:30.000Z</time>
      </trkpt>
      <trkpt lat="47.52747" lon="6.84859">
        <ele>322</ele>
        <time>2016-10-23T07:10:31.000Z</time>
      </trkpt>
      <trkpt lat="47.52747" lon="6.84866">
        <ele>322</ele>
        <time>2016-10-23T07:10:32.000Z</time>
      </trkpt>
      <trkpt lat="47.52746" lon="6.84874">
        <ele>322</ele>
        <time>2016-10-23T07:10:33.000Z</time>
      </trkpt>
      <trkpt lat="47.52746" lon="6.84881">
        <ele>322</ele>
        <time>2016-10-23T07:10:34.000Z</time>
      </trkpt>
      <trkpt lat="47.52746" lon="6.84889">
        <ele>322</ele>
        <time>2016-10-23T07:10:35.000Z</time>
      </trkpt>
      <trkpt lat="47.52745" lon="6.84896">
        <ele>322</ele>
        <time>2016-10-23T07:10:36.000Z</time>
      </trkpt>
      <trkpt lat="47.52745" lon="6.84905">
        <ele>322</ele>
        <time>2016-10-23T07:10:37.000Z</time>
      </trkpt>
      <trkpt lat="47.52745" lon="6.84914">
        <ele>323</ele>
        <time>2016-10-23T07:10:38.000Z</time>
      </trkpt>
      <trkpt lat="47.52745" lon="6.84922">
        <ele>322</ele>
        <time>2016-10-23T07:10:39.000Z</time>
      </trkpt>
      <trkpt lat="47.52745" lon="6.84931">
        <ele>322</ele>
        <time>2016-10-23T07:10:40.000Z</time>
      </trkpt>
      <trkpt lat="47.52746" lon="6.8494">
        <ele>322</ele>
        <time>2016-10-23T07:10:41.000Z</time>
      </trkpt>
      <trkpt lat="47.52746" lon="6.84948">
        <ele>321</ele>
        <time>2016-10-23T07:10:42.000Z</time>
      </trkpt>
      <trkpt lat="47.52746" lon="6.84957">
        <ele>321</ele>
        <time>2016-10-23T07:10:43.001Z</time>
      </trkpt>
      <trkpt lat="47.52747" lon="6.84965">
        <ele>321</ele>
        <time>2016-10-23T07:10:44.000Z</time>
      </trkpt>
      <trkpt lat="47.52747" lon="6.84974">
        <ele>321</ele>
        <time>2016-10-23T07:10:45.000Z</time>
      </trkpt>
      <trkpt lat="47.52747" lon="6.84982">
        <ele>321</ele>
        <time>2016-10-23T07:10:46.000Z</time>
      </trkpt>
      <trkpt lat="47.52747" lon="6.8499">
        <ele>321</ele>
        <time>2016-10-23T07:10:47.000Z</time>
      </trkpt>
      <trkpt lat="47.52747" lon="6.84998">
        <ele>321</ele>
        <time>2016-10-23T07:10:48.000Z</time>
      </trkpt>
      <trkpt lat="47.52748" lon="6.85006">
        <ele>321</ele>
        <time>2016-10-23T07:10:49.000Z</time>
      </trkpt>
      <trkpt lat="47.52748" lon="6.85015">
        <ele>320</ele>
        <time>2016-10-23T07:10:50.000Z</time>
      </trkpt>
      <trkpt lat="47.52748" lon="6.85023">
        <ele>320</ele>
        <time>2016-10-23T07:10:51.000Z</time>
      </trkpt>
      <trkpt lat="47.52749" lon="6.85031">
        <ele>320</ele>
        <time>2016-10-23T07:10:52.000Z</time>
      </trkpt>
      <trkpt lat="47.52749" lon="6.8504">
        <ele>320</ele>
        <time>2016-10-23T07:10:53.000Z</time>
      </trkpt>
      <trkpt lat="47.52749" lon="6.85048">
        <ele>320</ele>
        <time>2016-10-23T07:10:54.000Z</time>
      </trkpt>
      <trkpt lat="47.52749" lon="6.85056">
        <ele>320</ele>
        <time>2016-10-23T07:10:55.000Z</time>
      </trkpt>
      <trkpt lat="47.52748" lon="6.85065">
        <ele>319</ele>
        <time>2016-10-23T07:10:56.000Z</time>
      </trkpt>
      <trkpt lat="47.52749" lon="6.85074">
        <ele>319</ele>
        <time>2016-10-23T07:10:57.000Z</time>
      </trkpt>
      <trkpt lat="47.52748" lon="6.85082">
        <ele>319</ele>
        <time>2016-10-23T07:10:57.999Z</time>
      </trkpt>
      <trkpt lat="47.52749" lon="6.85091">
        <ele>319</ele>
        <time>2016-10-23T07:10:59.000Z</time>
      </trkpt>
      <trkpt lat="47.52749" lon="6.85099">
        <ele>320</ele>
        <time>2016-10-23T07:11:00.000Z</time>
      </trkpt>
      <trkpt lat="47.52749" lon="6.85107">
        <ele>320</ele>
        <time>2016-10-23T07:11:01.000Z</time>
      </trkpt>
      <trkpt lat="47.52749" lon="6.85114">
        <ele>320</ele>
        <time>2016-10-23T07:11:02.000Z</time>
      </trkpt>
      <trkpt lat="47.52749" lon="6.85122">
        <ele>320</ele>
        <time>2016-10-23T07:11:03.000Z</time>
      </trkpt>
      <trkpt lat="47.52749" lon="6.85131">
        <ele>320</ele>
        <time>2016-10-23T07:11:04.000Z</time>
      </trkpt>
      <trkpt lat="47.5275" lon="6.8514">
        <ele>320</ele>
        <time>2016-10-23T07:11:05.000Z</time>
      </trkpt>
      <trkpt lat="47.5275" lon="6.85148">
        <ele>321</ele>
        <time>2016-10-23T07:11:06.000Z</time>
      </trkpt>
      <trkpt lat="47.52751" lon="6.85155">
        <ele>321</ele>
        <time>2016-10-23T07:11:07.000Z</time>
      </trkpt>
      <trkpt lat="47.52752" lon="6.85163">
        <ele>321</ele>
        <time>2016-10-23T07:11:08.000Z</time>
      </trkpt>
      <trkpt lat="47.52752" lon="6.8517">
        <ele>321</ele>
        <time>2016-10-23T07:11:09.000Z</time>
      </trkpt>
      <trkpt lat="47.52752" lon="6.85178">
        <ele>321</ele>
        <time>2016-10-23T07:11:10.000Z</time>
      </trkpt>
      <trkpt lat="47.52752" lon="6.85185">
        <ele>321</ele>
        <time>2016-10-23T07:11:11.000Z</time>
      </trkpt>
      <trkpt lat="47.52752" lon="6.85193">
        <ele>322</ele>
        <time>2016-10-23T07:11:11.999Z</time>
      </trkpt>
      <trkpt lat="47.5275" lon="6.85199">
        <ele>322</ele>
        <time>2016-10-23T07:11:13.000Z</time>
      </trkpt>
      <trkpt lat="47.52749" lon="6.85206">
        <ele>322</ele>
        <time>2016-10-23T07:11:14.000Z</time>
      </trkpt>
      <trkpt lat="47.52748" lon="6.85213">
        <ele>322</ele>
        <time>2016-10-23T07:11:15.000Z</time>
      </trkpt>
      <trkpt lat="47.52748" lon="6.8522">
        <ele>323</ele>
        <time>2016-10-23T07:11:16.000Z</time>
      </trkpt>
      <trkpt lat="47.52749" lon="6.85226">
        <ele>323</ele>
        <time>2016-10-23T07:11:17.000Z</time>
      </trkpt>
      <trkpt lat="47.5275" lon="6.85232">
        <ele>323</ele>
        <time>2016-10-23T07:11:18.000Z</time>
      </trkpt>
      <trkpt lat="47.52751" lon="6.85236">
        <ele>323</ele>
        <time>2016-10-23T07:11:19.000Z</time>
      </trkpt>
      <trkpt lat="47.52752" lon="6.8524">
        <ele>323</ele>
        <time>2016-10-23T07:11:20.000Z</time>
      </trkpt>
      <trkpt lat="47.52754" lon="6.85246">
        <ele>324</ele>
        <time>2016-10-23T07:11:20.999Z</time>
      </trkpt>
      <trkpt lat="47.52756" lon="6.85248">
        <ele>323</ele>
        <time>2016-10-23T07:11:22.000Z</time>
      </trkpt>
      <trkpt lat="47.52759" lon="6.85255">
        <ele>324</ele>
        <time>2016-10-23T07:11:23.000Z</time>
      </trkpt>
      <trkpt lat="47.52761" lon="6.85262">
        <ele>323</ele>
        <time>2016-10-23T07:11:24.000Z</time>
      </trkpt>
      <trkpt lat="47.52762" lon="6.85268">
        <ele>323</ele>
        <time>2016-10-23T07:11:24.999Z</time>
      </trkpt>
      <trkpt lat="47.52764" lon="6.85276">
        <ele>323</ele>
        <time>2016-10-23T07:11:26.001Z</time>
      </trkpt>
      <trkpt lat="47.52764" lon="6.85283">
        <ele>323</ele>
        <time>2016-10-23T07:11:27.000Z</time>
      </trkpt>
      <trkpt lat="47.52765" lon="6.85291">
        <ele>323</ele>
        <time>2016-10-23T07:11:28.000Z</time>
      </trkpt>
      <trkpt lat="47.52767" lon="6.853">
        <ele>323</ele>
        <time>2016-10-23T07:11:29.000Z</time>
      </trkpt>
      <trkpt lat="47.52767" lon="6.85307">
        <ele>323</ele>
        <time>2016-10-23T07:11:30.000Z</time>
      </trkpt>
      <trkpt lat="47.52768" lon="6.85314">
        <ele>323</ele>
        <time>2016-10-23T07:11:31.000Z</time>
      </trkpt>
      <trkpt lat="47.52768" lon="6.85322">
        <ele>323</ele>
        <time>2016-10-23T07:11:32.000Z</time>
      </trkpt>
      <trkpt lat="47.52767" lon="6.85332">
        <ele>323</ele>
        <time>2016-10-23T07:11:33.000Z</time>
      </trkpt>
      <trkpt lat="47.52766" lon="6.85339">
        <ele>323</ele>
        <time>2016-10-23T07:11:34.000Z</time>
      </trkpt>
      <trkpt lat="47.52765" lon="6.85347">
        <ele>323</ele>
        <time>2016-10-23T07:11:35.000Z</time>
      </trkpt>
      <trkpt lat="47.52764" lon="6.85354">
        <ele>323</ele>
        <time>2016-10-23T07:11:36.000Z</time>
      </trkpt>
      <trkpt lat="47.52762" lon="6.85362">
        <ele>323</ele>
        <time>2016-10-23T07:11:36.999Z</time>
      </trkpt>
      <trkpt lat="47.52761" lon="6.85368">
        <ele>323</ele>
        <time>2016-10-23T07:11:38.000Z</time>
      </trkpt>
      <trkpt lat="47.5276" lon="6.85375">
        <ele>323</ele>
        <time>2016-10-23T07:11:39.000Z</time>
      </trkpt>
      <trkpt lat="47.52765" lon="6.85384">
        <ele>323</ele>
        <time>2016-10-23T07:11:40.001Z</time>
      </trkpt>
      <trkpt lat="47.52768" lon="6.85389">
        <ele>323</ele>
        <time>2016-10-23T07:11:41.000Z</time>
      </trkpt>
      <trkpt lat="47.52773" lon="6.85393">
        <ele>323</ele>
        <time>2016-10-23T07:11:42.000Z</time>
      </trkpt>
      <trkpt lat="47.52779" lon="6.85398">
        <ele>323</ele>
        <time>2016-10-23T07:11:43.000Z</time>
      </trkpt>
      <trkpt lat="47.52784" lon="6.85401">
        <ele>323</ele>
        <time>2016-10-23T07:11:44.000Z</time>
      </trkpt>
      <trkpt lat="47.5279" lon="6.85404">
        <ele>323</ele>
        <time>2016-10-23T07:11:45.000Z</time>
      </trkpt>
      <trkpt lat="47.52793" lon="6.85407">
        <ele>323</ele>
        <time>2016-10-23T07:11:46.000Z</time>
      </trkpt>
      <trkpt lat="47.52797" lon="6.8541">
        <ele>323</ele>
        <time>2016-10-23T07:11:47.000Z</time>
      </trkpt>
      <trkpt lat="47.52801" lon="6.85415">
        <ele>323</ele>
        <time>2016-10-23T07:11:48.000Z</time>
      </trkpt>
      <trkpt lat="47.52805" lon="6.85419">
        <ele>323</ele>
        <time>2016-10-23T07:11:49.001Z</time>
      </trkpt>
      <trkpt lat="47.52809" lon="6.85422">
        <ele>323</ele>
        <time>2016-10-23T07:11:50.000Z</time>
      </trkpt>
      <trkpt lat="47.52813" lon="6.85423">
        <ele>323</ele>
        <time>2016-10-23T07:11:51.000Z</time>
      </trkpt>
      <trkpt lat="47.52817" lon="6.85427">
        <ele>323</ele>
        <time>2016-10-23T07:11:52.000Z</time>
      </trkpt>
      <trkpt lat="47.52821" lon="6.85431">
        <ele>323</ele>
        <time>2016-10-23T07:11:53.000Z</time>
      </trkpt>
      <trkpt lat="47.52824" lon="6.85438">
        <ele>323</ele>
        <time>2016-10-23T07:11:54.000Z</time>
      </trkpt>
      <trkpt lat="47.52826" lon="6.85444">
        <ele>323</ele>
        <time>2016-10-23T07:11:55.000Z</time>
      </trkpt>
      <trkpt lat="47.52829" lon="6.85447">
        <ele>323</ele>
        <time>2016-10-23T07:11:56.000Z</time>
      </trkpt>
      <trkpt lat="47.52833" lon="6.85452">
        <ele>323</ele>
        <time>2016-10-23T07:11:57.000Z</time>
      </trkpt>
      <trkpt lat="47.52836" lon="6.85454">
        <ele>323</ele>
        <time>2016-10-23T07:11:58.000Z</time>
      </trkpt>
      <trkpt lat="47.52838" lon="6.85456">
        <ele>323</ele>
        <time>2016-10-23T07:11:59.000Z</time>
      </trkpt>
      <trkpt lat="47.52841" lon="6.85459">
        <ele>323</ele>
        <time>2016-10-23T07:12:00.000Z</time>
      </trkpt>
      <trkpt lat="47.52842" lon="6.85461">
        <ele>323</ele>
        <time>2016-10-23T07:12:01.000Z</time>
      </trkpt>
      <trkpt lat="47.52844" lon="6.85466">
        <ele>323</ele>
        <time>2016-10-23T07:12:02.000Z</time>
      </trkpt>
      <trkpt lat="47.52846" lon="6.85469">
        <ele>323</ele>
        <time>2016-10-23T07:12:03.000Z</time>
      </trkpt>
      <trkpt lat="47.52848" lon="6.85472">
        <ele>323</ele>
        <time>2016-10-23T07:12:04.000Z</time>
      </trkpt>
      <trkpt lat="47.52849" lon="6.85476">
        <ele>323</ele>
        <time>2016-10-23T07:12:05.000Z</time>
      </trkpt>
      <trkpt lat="47.52851" lon="6.85479">
        <ele>323</ele>
        <time>2016-10-23T07:12:06.000Z</time>
      </trkpt>
      <trkpt lat="47.52852" lon="6.85483">
        <ele>323</ele>
        <time>2016-10-23T07:12:07.000Z</time>
      </trkpt>
      <trkpt lat="47.52853" lon="6.85486">
        <ele>323</ele>
        <time>2016-10-23T07:12:08.000Z</time>
      </trkpt>
      <trkpt lat="47.52853" lon="6.85491">
        <ele>323</ele>
        <time>2016-10-23T07:12:09.000Z</time>
      </trkpt>
      <trkpt lat="47.52853" lon="6.85495">
        <ele>323</ele>
        <time>2016-10-23T07:12:10.000Z</time>
      </trkpt>
      <trkpt lat="47.52854" lon="6.85499">
        <ele>323</ele>
        <time>2016-10-23T07:12:11.000Z</time>
      </trkpt>
      <trkpt lat="47.52856" lon="6.85503">
        <ele>324</ele>
        <time>2016-10-23T07:12:12.000Z</time>
      </trkpt>
      <trkpt lat="47.52857" lon="6.85506">
        <ele>324</ele>
        <time>2016-10-23T07:12:13.000Z</time>
      </trkpt>
      <trkpt lat="47.5286" lon="6.85511">
        <ele>324</ele>
        <time>2016-10-23T07:12:15.000Z</time>
      </trkpt>
      <trkpt lat="47.52861" lon="6.85514">
        <ele>324</ele>
        <time>2016-10-23T07:12:16.000Z</time>
      </trkpt>
      <trkpt lat="47.52861" lon="6.8552">
        <ele>324</ele>
        <time>2016-10-23T07:12:18.000Z</time>
      </trkpt>
      <trkpt lat="47.52861" lon="6.85523">
        <ele>324</ele>
        <time>2016-10-23T07:12:19.000Z</time>
      </trkpt>
      <trkpt lat="47.5286" lon="6.85529">
        <ele>324</ele>
        <time>2016-10-23T07:12:21.000Z</time>
      </trkpt>
      <trkpt lat="47.5286" lon="6.85532">
        <ele>324</ele>
        <time>2016-10-23T07:12:22.000Z</time>
      </trkpt>
      <trkpt lat="47.52859" lon="6.85536">
        <ele>324</ele>
        <time>2016-10-23T07:12:24.000Z</time>
      </trkpt>
      <trkpt lat="47.52858" lon="6.85539">
        <ele>324</ele>
        <time>2016-10-23T07:12:25.000Z</time>
      </trkpt>
      <trkpt lat="47.52858" lon="6.85544">
        <ele>324</ele>
        <time>2016-10-23T07:12:28.000Z</time>
      </trkpt>
      <trkpt lat="47.52857" lon="6.85546">
        <ele>324</ele>
        <time>2016-10-23T07:12:29.000Z</time>
      </trkpt>
      <trkpt lat="47.52856" lon="6.8555">
        <ele>324</ele>
        <time>2016-10-23T07:12:31.000Z</time>
      </trkpt>
      <trkpt lat="47.52855" lon="6.85553">
        <ele>324</ele>
        <time>2016-10-23T07:12:32.000Z</time>
      </trkpt>
      <trkpt lat="47.52854" lon="6.85558">
        <ele>324</ele>
        <time>2016-10-23T07:12:34.000Z</time>
      </trkpt>
      <trkpt lat="47.52853" lon="6.85561">
        <ele>324</ele>
        <time>2016-10-23T07:12:35.000Z</time>
      </trkpt>
      <trkpt lat="47.52852" lon="6.85564">
        <ele>324</ele>
        <time>2016-10-23T07:12:36.000Z</time>
      </trkpt>
      <trkpt lat="47.52851" lon="6.85568">
        <ele>324</ele>
        <time>2016-10-23T07:12:37.000Z</time>
      </trkpt>
      <trkpt lat="47.5285" lon="6.85573">
        <ele>324</ele>
        <time>2016-10-23T07:12:39.000Z</time>
      </trkpt>
      <trkpt lat="47.52849" lon="6.85576">
        <ele>324</ele>
        <time>2016-10-23T07:12:40.000Z</time>
      </trkpt>
      <trkpt lat="47.5285" lon="6.85582">
        <ele>324</ele>
        <time>2016-10-23T07:12:43.000Z</time>
      </trkpt>
      <trkpt lat="47.52849" lon="6.85585">
        <ele>324</ele>
        <time>2016-10-23T07:12:44.000Z</time>
      </trkpt>
      <trkpt lat="47.52849" lon="6.85591">
        <ele>324</ele>
        <time>2016-10-23T07:12:46.000Z</time>
      </trkpt>
      <trkpt lat="47.52848" lon="6.85593">
        <ele>324</ele>
        <time>2016-10-23T07:12:47.000Z</time>
      </trkpt>
      <trkpt lat="47.52845" lon="6.85597">
        <ele>324</ele>
        <time>2016-10-23T07:12:49.000Z</time>
      </trkpt>
      <trkpt lat="47.52844" lon="6.85599">
        <ele>324</ele>
        <time>2016-10-23T07:12:50.000Z</time>
      </trkpt>
      <trkpt lat="47.52842" lon="6.85602">
        <ele>324</ele>
        <time>2016-10-23T07:12:52.000Z</time>
      </trkpt>
      <trkpt lat="47.52842" lon="6.85605">
        <ele>324</ele>
        <time>2016-10-23T07:12:53.000Z</time>
      </trkpt>
      <trkpt lat="47.52842" lon="6.85611">
        <ele>324</ele>
        <time>2016-10-23T07:13:01.000Z</time>
      </trkpt>
      <trkpt lat="47.52842" lon="6.85612">
        <ele>324</ele>
        <time>2016-10-23T07:13:02.000Z</time>
      </trkpt>
      <trkpt lat="47.5284" lon="6.85617">
        <ele>324</ele>
        <time>2016-10-23T07:13:07.000Z</time>
      </trkpt>
      <trkpt lat="47.5284" lon="6.85619">
        <ele>324</ele>
        <time>2016-10-23T07:13:08.000Z</time>
      </trkpt>
      <trkpt lat="47.52841" lon="6.85625">
        <ele>324</ele>
        <time>2016-10-23T07:13:13.000Z</time>
      </trkpt>
      <trkpt lat="47.52841" lon="6.85626">
        <ele>324</ele>
        <time>2016-10-23T07:13:14.000Z</time>
      </trkpt>
      <trkpt lat="47.52841" lon="6.85632">
        <ele>324</ele>
        <time>2016-10-23T07:13:19.000Z</time>
      </trkpt>
      <trkpt lat="47.52841" lon="6.85635">
        <ele>324</ele>
        <time>2016-10-23T07:13:20.000Z</time>
      </trkpt>
      <trkpt lat="47.52843" lon="6.85639">
        <ele>324</ele>
        <time>2016-10-23T07:13:21.000Z</time>
      </trkpt>
      <trkpt lat="47.52844" lon="6.85643">
        <ele>324</ele>
        <time>2016-10-23T07:13:22.000Z</time>
      </trkpt>
      <trkpt lat="47.52845" lon="6.85647">
        <ele>324</ele>
        <time>2016-10-23T07:13:22.999Z</time>
      </trkpt>
      <trkpt lat="47.52846" lon="6.8565">
        <ele>324</ele>
        <time>2016-10-23T07:13:24.000Z</time>
      </trkpt>
      <trkpt lat="47.52848" lon="6.85653">
        <ele>324</ele>
        <time>2016-10-23T07:13:25.000Z</time>
      </trkpt>
      <trkpt lat="47.5285" lon="6.85655">
        <ele>324</ele>
        <time>2016-10-23T07:13:26.000Z</time>
      </trkpt>
      <trkpt lat="47.52854" lon="6.85657">
        <ele>325</ele>
        <time>2016-10-23T07:13:28.000Z</time>
      </trkpt>
      <trkpt lat="47.52856" lon="6.85658">
        <ele>325</ele>
        <time>2016-10-23T07:13:29.000Z</time>
      </trkpt>
      <trkpt lat="47.5286" lon="6.85661">
        <ele>325</ele>
        <time>2016-10-23T07:13:32.000Z</time>
      </trkpt>
      <trkpt lat="47.5286" lon="6.85662">
        <ele>325</ele>
        <time>2016-10-23T07:13:33.000Z</time>
      </trkpt>
      <trkpt lat="47.52864" lon="6.85662">
        <ele>325</ele>
        <time>2016-10-23T07:13:38.000Z</time>
      </trkpt>
      <trkpt lat="47.52865" lon="6.85662">
        <ele>325</ele>
        <time>2016-10-23T07:13:39.000Z</time>
      </trkpt>
      <trkpt lat="47.52869" lon="6.85663">
        <ele>325</ele>
        <time>2016-10-23T07:13:41.000Z</time>
      </trkpt>
      <trkpt lat="47.52871" lon="6.85664">
        <ele>325</ele>
        <time>2016-10-23T07:13:42.000Z</time>
      </trkpt>
      <trkpt lat="47.52873" lon="6.85668">
        <ele>325</ele>
        <time>2016-10-23T07:13:44.000Z</time>
      </trkpt>
      <trkpt lat="47.52874" lon="6.85671">
        <ele>325</ele>
        <time>2016-10-23T07:13:45.000Z</time>
      </trkpt>
      <trkpt lat="47.52873" lon="6.85678">
        <ele>325</ele>
        <time>2016-10-23T07:13:47.000Z</time>
      </trkpt>
      <trkpt lat="47.52873" lon="6.85681">
        <ele>325</ele>
        <time>2016-10-23T07:13:48.000Z</time>
      </trkpt>
      <trkpt lat="47.52876" lon="6.85685">
        <ele>325</ele>
        <time>2016-10-23T07:14:04.000Z</time>
      </trkpt>
      <trkpt lat="47.52877" lon="6.85686">
        <ele>325</ele>
        <time>2016-10-23T07:14:05.000Z</time>
      </trkpt>
      <trkpt lat="47.52881" lon="6.85682">
        <ele>325</ele>
        <time>2016-10-23T07:14:29.000Z</time>
      </trkpt>
      <trkpt lat="47.52881" lon="6.85681">
        <ele>325</ele>
        <time>2016-10-23T07:14:30.000Z</time>
      </trkpt>
      <trkpt lat="47.52877" lon="6.85685">
        <ele>325</ele>
        <time>2016-10-23T07:14:43.000Z</time>
      </trkpt>
      <trkpt lat="47.52877" lon="6.85685">
        <ele>325</ele>
        <time>2016-10-23T07:14:44.000Z</time>
      </trkpt>
      <trkpt lat="47.52872" lon="6.85686">
        <ele>325</ele>
        <time>2016-10-23T07:18:03.000Z</time>
      </trkpt>
      <trkpt lat="47.52872" lon="6.85686">
        <ele>325</ele>
        <time>2016-10-23T07:18:04.000Z</time>
      </trkpt>
      <trkpt lat="47.52872" lon="6.8568">
        <ele>325</ele>
        <time>2016-10-23T07:25:13.000Z</time>
      </trkpt>
      <trkpt lat="47.52872" lon="6.8568">
        <ele>325</ele>
        <time>2016-10-23T07:25:14.000Z</time>
      </trkpt>
      <trkpt lat="47.52873" lon="6.85673">
        <ele>325</ele>
        <time>2016-10-23T07:25:19.000Z</time>
      </trkpt>
      <trkpt lat="47.52873" lon="6.85671">
        <ele>325</ele>
        <time>2016-10-23T07:25:20.000Z</time>
      </trkpt>
      <trkpt lat="47.52873" lon="6.85667">
        <ele>325</ele>
        <time>2016-10-23T07:25:21.000Z</time>
      </trkpt>
      <trkpt lat="47.52873" lon="6.85664">
        <ele>325</ele>
        <time>2016-10-23T07:25:22.000Z</time>
      </trkpt>
      <trkpt lat="47.52873" lon="6.85659">
        <ele>325</ele>
        <time>2016-10-23T07:25:23.000Z</time>
      </trkpt>
      <trkpt lat="47.52873" lon="6.85654">
        <ele>325</ele>
        <time>2016-10-23T07:25:24.000Z</time>
      </trkpt>
      <trkpt lat="47.52873" lon="6.8565">
        <ele>325</ele>
        <time>2016-10-23T07:25:25.000Z</time>
      </trkpt>
      <trkpt lat="47.52873" lon="6.85643">
        <ele>325</ele>
        <time>2016-10-23T07:25:26.000Z</time>
      </trkpt>
      <trkpt lat="47.52873" lon="6.85638">
        <ele>325</ele>
        <time>2016-10-23T07:25:27.000Z</time>
      </trkpt>
      <trkpt lat="47.52873" lon="6.85633">
        <ele>325</ele>
        <time>2016-10-23T07:25:28.000Z</time>
      </trkpt>
      <trkpt lat="47.52874" lon="6.85629">
        <ele>325</ele>
        <time>2016-10-23T07:25:29.000Z</time>
      </trkpt>
      <trkpt lat="47.52874" lon="6.85624">
        <ele>325</ele>
        <time>2016-10-23T07:25:30.000Z</time>
      </trkpt>
      <trkpt lat="47.52873" lon="6.85619">
        <ele>325</ele>
        <time>2016-10-23T07:25:31.000Z</time>
      </trkpt>
      <trkpt lat="47.52872" lon="6.85614">
        <ele>325</ele>
        <time>2016-10-23T07:25:32.001Z</time>
      </trkpt>
      <trkpt lat="47.52871" lon="6.85607">
        <ele>325</ele>
        <time>2016-10-23T07:25:33.000Z</time>
      </trkpt>
      <trkpt lat="47.52871" lon="6.85601">
        <ele>325</ele>
        <time>2016-10-23T07:25:34.000Z</time>
      </trkpt>
      <trkpt lat="47.52878" lon="6.85596">
        <ele>325</ele>
        <time>2016-10-23T07:25:35.000Z</time>
      </trkpt>
      <trkpt lat="47.52881" lon="6.85595">
        <ele>325</ele>
        <time>2016-10-23T07:25:36.000Z</time>
      </trkpt>
      <trkpt lat="47.52886" lon="6.85596">
        <ele>325</ele>
        <time>2016-10-23T07:25:37.000Z</time>
      </trkpt>
      <trkpt lat="47.52889" lon="6.85598">
        <ele>325</ele>
        <time>2016-10-23T07:25:38.000Z</time>
      </trkpt>
      <trkpt lat="47.52893" lon="6.85601">
        <ele>325</ele>
        <time>2016-10-23T07:25:39.000Z</time>
      </trkpt>
      <trkpt lat="47.52896" lon="6.85605">
        <ele>325</ele>
        <time>2016-10-23T07:25:40.000Z</time>
      </trkpt>
      <trkpt lat="47.52899" lon="6.85609">
        <ele>325</ele>
        <time>2016-10-23T07:25:41.000Z</time>
      </trkpt>
      <trkpt lat="47.52902" lon="6.85612">
        <ele>325</ele>
        <time>2016-10-23T07:25:42.000Z</time>
      </trkpt>
      <trkpt lat="47.52904" lon="6.85616">
        <ele>325</ele>
        <time>2016-10-23T07:25:43.000Z</time>
      </trkpt>
      <trkpt lat="47.52906" lon="6.8562">
        <ele>325</ele>
        <time>2016-10-23T07:25:44.000Z</time>
      </trkpt>
      <trkpt lat="47.52908" lon="6.85623">
        <ele>325</ele>
        <time>2016-10-23T07:25:45.000Z</time>
      </trkpt>
      <trkpt lat="47.52911" lon="6.85627">
        <ele>325</ele>
        <time>2016-10-23T07:25:46.000Z</time>
      </trkpt>
      <trkpt lat="47.52914" lon="6.85631">
        <ele>325</ele>
        <time>2016-10-23T07:25:47.000Z</time>
      </trkpt>
      <trkpt lat="47.52917" lon="6.85634">
        <ele>324</ele>
        <time>2016-10-23T07:25:48.000Z</time>
      </trkpt>
      <trkpt lat="47.52922" lon="6.8564">
        <ele>324</ele>
        <time>2016-10-23T07:25:49.000Z</time>
      </trkpt>
      <trkpt lat="47.52925" lon="6.85644">
        <ele>324</ele>
        <time>2016-10-23T07:25:50.000Z</time>
      </trkpt>
      <trkpt lat="47.52927" lon="6.8565">
        <ele>324</ele>
        <time>2016-10-23T07:25:51.000Z</time>
      </trkpt>
      <trkpt lat="47.52931" lon="6.85654">
        <ele>325</ele>
        <time>2016-10-23T07:25:52.000Z</time>
      </trkpt>
      <trkpt lat="47.52933" lon="6.85658">
        <ele>324</ele>
        <time>2016-10-23T07:25:53.000Z</time>
      </trkpt>
      <trkpt lat="47.52937" lon="6.85661">
        <ele>324</ele>
        <time>2016-10-23T07:25:54.000Z</time>
      </trkpt>
      <trkpt lat="47.52941" lon="6.85663">
        <ele>324</ele>
        <time>2016-10-23T07:25:55.000Z</time>
      </trkpt>
      <trkpt lat="47.52945" lon="6.85667">
        <ele>324</ele>
        <time>2016-10-23T07:25:56.000Z</time>
      </trkpt>
      <trkpt lat="47.52949" lon="6.8567">
        <ele>324</ele>
        <time>2016-10-23T07:25:57.000Z</time>
      </trkpt>
      <trkpt lat="47.52952" lon="6.85673">
        <ele>324</ele>
        <time>2016-10-23T07:25:58.000Z</time>
      </trkpt>
      <trkpt lat="47.52954" lon="6.85676">
        <ele>324</ele>
        <time>2016-10-23T07:25:59.000Z</time>
      </trkpt>
      <trkpt lat="47.52957" lon="6.85678">
        <ele>324</ele>
        <time>2016-10-23T07:26:00.001Z</time>
      </trkpt>
      <trkpt lat="47.5296" lon="6.85679">
        <ele>324</ele>
        <time>2016-10-23T07:26:01.000Z</time>
      </trkpt>
      <trkpt lat="47.52964" lon="6.85683">
        <ele>323</ele>
        <time>2016-10-23T07:26:02.000Z</time>
      </trkpt>
      <trkpt lat="47.52969" lon="6.85685">
        <ele>323</ele>
        <time>2016-10-23T07:26:03.000Z</time>
      </trkpt>
      <trkpt lat="47.52973" lon="6.85688">
        <ele>323</ele>
        <time>2016-10-23T07:26:04.000Z</time>
      </trkpt>
      <trkpt lat="47.52977" lon="6.8569">
        <ele>323</ele>
        <time>2016-10-23T07:26:05.000Z</time>
      </trkpt>
      <trkpt lat="47.52981" lon="6.85693">
        <ele>323</ele>
        <time>2016-10-23T07:26:06.000Z</time>
      </trkpt>
      <trkpt lat="47.52983" lon="6.857">
        <ele>323</ele>
        <time>2016-10-23T07:26:07.000Z</time>
      </trkpt>
      <trkpt lat="47.52987" lon="6.85704">
        <ele>323</ele>
        <time>2016-10-23T07:26:08.000Z</time>
      </trkpt>
      <trkpt lat="47.5299" lon="6.85709">
        <ele>323</ele>
        <time>2016-10-23T07:26:09.000Z</time>
      </trkpt>
      <trkpt lat="47.52993" lon="6.85714">
        <ele>323</ele>
        <time>2016-10-23T07:26:10.000Z</time>
      </trkpt>
      <trkpt lat="47.52995" lon="6.85719">
        <ele>323</ele>
        <time>2016-10-23T07:26:11.000Z</time>
      </trkpt>
      <trkpt lat="47.52998" lon="6.85723">
        <ele>323</ele>
        <time>2016-10-23T07:26:12.000Z</time>
      </trkpt>
      <trkpt lat="47.53001" lon="6.85728">
        <ele>321</ele>
        <time>2016-10-23T07:26:13.000Z</time>
      </trkpt>
      <trkpt lat="47.53003" lon="6.85733">
        <ele>321</ele>
        <time>2016-10-23T07:26:14.000Z</time>
      </trkpt>
      <trkpt lat="47.53004" lon="6.85739">
        <ele>321</ele>
        <time>2016-10-23T07:26:15.000Z</time>
      </trkpt>
      <trkpt lat="47.53006" lon="6.85744">
        <ele>321</ele>
        <time>2016-10-23T07:26:16.000Z</time>
      </trkpt>
      <trkpt lat="47.53008" lon="6.85749">
        <ele>321</ele>
        <time>2016-10-23T07:26:17.000Z</time>
      </trkpt>
      <trkpt lat="47.5301" lon="6.85754">
        <ele>321</ele>
        <time>2016-10-23T07:26:18.000Z</time>
      </trkpt>
      <trkpt lat="47.53011" lon="6.8576">
        <ele>321</ele>
        <time>2016-10-23T07:26:19.000Z</time>
      </trkpt>
      <trkpt lat="47.53013" lon="6.85765">
        <ele>321</ele>
        <time>2016-10-23T07:26:20.000Z</time>
      </trkpt>
      <trkpt lat="47.53014" lon="6.85771">
        <ele>321</ele>
        <time>2016-10-23T07:26:21.000Z</time>
      </trkpt>
      <trkpt lat="47.53014" lon="6.85777">
        <ele>321</ele>
        <time>2016-10-23T07:26:22.000Z</time>
      </trkpt>
      <trkpt lat="47.53015" lon="6.85783">
        <ele>322</ele>
        <time>2016-10-23T07:26:23.000Z</time>
      </trkpt>
      <trkpt lat="47.53015" lon="6.85789">
        <ele>322</ele>
        <time>2016-10-23T07:26:24.000Z</time>
      </trkpt>
      <trkpt lat="47.53016" lon="6.85795">
        <ele>322</ele>
        <time>2016-10-23T07:26:25.000Z</time>
      </trkpt>
      <trkpt lat="47.53016" lon="6.858">
        <ele>322</ele>
        <time>2016-10-23T07:26:26.000Z</time>
      </trkpt>
      <trkpt lat="47.53016" lon="6.85806">
        <ele>322</ele>
        <time>2016-10-23T07:26:27.000Z</time>
      </trkpt>
      <trkpt lat="47.53016" lon="6.85812">
        <ele>322</ele>
        <time>2016-10-23T07:26:28.000Z</time>
      </trkpt>
      <trkpt lat="47.53016" lon="6.85817">
        <ele>322</ele>
        <time>2016-10-23T07:26:29.001Z</time>
      </trkpt>
      <trkpt lat="47.53015" lon="6.85822">
        <ele>322</ele>
        <time>2016-10-23T07:26:30.000Z</time>
      </trkpt>
      <trkpt lat="47.53015" lon="6.85827">
        <ele>322</ele>
        <time>2016-10-23T07:26:31.000Z</time>
      </trkpt>
      <trkpt lat="47.53016" lon="6.85831">
        <ele>322</ele>
        <time>2016-10-23T07:26:32.000Z</time>
      </trkpt>
      <trkpt lat="47.53016" lon="6.85836">
        <ele>323</ele>
        <time>2016-10-23T07:26:33.000Z</time>
      </trkpt>
      <trkpt lat="47.53017" lon="6.8584">
        <ele>323</ele>
        <time>2016-10-23T07:26:34.000Z</time>
      </trkpt>
      <trkpt lat="47.53019" lon="6.85845">
        <ele>323</ele>
        <time>2016-10-23T07:26:35.000Z</time>
      </trkpt>
      <trkpt lat="47.53021" lon="6.85849">
        <ele>323</ele>
        <time>2016-10-23T07:26:36.000Z</time>
      </trkpt>
      <trkpt lat="47.53026" lon="6.85853">
        <ele>323</ele>
        <time>2016-10-23T07:26:37.000Z</time>
      </trkpt>
      <trkpt lat="47.53029" lon="6.85857">
        <ele>323</ele>
        <time>2016-10-23T07:26:38.000Z</time>
      </trkpt>
      <trkpt lat="47.53032" lon="6.8586">
        <ele>324</ele>
        <time>2016-10-23T07:26:39.000Z</time>
      </trkpt>
      <trkpt lat="47.53035" lon="6.85863">
        <ele>324</ele>
        <time>2016-10-23T07:26:40.000Z</time>
      </trkpt>
      <trkpt lat="47.5304" lon="6.85865">
        <ele>324</ele>
        <time>2016-10-23T07:26:41.000Z</time>
      </trkpt>
      <trkpt lat="47.53044" lon="6.85867">
        <ele>324</ele>
        <time>2016-10-23T07:26:42.000Z</time>
      </trkpt>
      <trkpt lat="47.53047" lon="6.85869">
        <ele>324</ele>
        <time>2016-10-23T07:26:43.000Z</time>
      </trkpt>
      <trkpt lat="47.53051" lon="6.85871">
        <ele>324</ele>
        <time>2016-10-23T07:26:44.000Z</time>
      </trkpt>
      <trkpt lat="47.53055" lon="6.85874">
        <ele>324</ele>
        <time>2016-10-23T07:26:45.000Z</time>
      </trkpt>
      <trkpt lat="47.53059" lon="6.85875">
        <ele>324</ele>
        <time>2016-10-23T07:26:46.000Z</time>
      </trkpt>
      <trkpt lat="47.53063" lon="6.85877">
        <ele>324</ele>
        <time>2016-10-23T07:26:47.000Z</time>
      </trkpt>
      <trkpt lat="47.53068" lon="6.85879">
        <ele>324</ele>
        <time>2016-10-23T07:26:48.000Z</time>
      </trkpt>
      <trkpt lat="47.53073" lon="6.8588">
        <ele>324</ele>
        <time>2016-10-23T07:26:49.000Z</time>
      </trkpt>
      <trkpt lat="47.53077" lon="6.8588">
        <ele>324</ele>
        <time>2016-10-23T07:26:50.000Z</time>
      </trkpt>
      <trkpt lat="47.53081" lon="6.85881">
        <ele>324</ele>
        <time>2016-10-23T07:26:51.000Z</time>
      </trkpt>
      <trkpt lat="47.53085" lon="6.85883">
        <ele>324</ele>
        <time>2016-10-23T07:26:52.000Z</time>
      </trkpt>
      <trkpt lat="47.53089" lon="6.85885">
        <ele>324</ele>
        <time>2016-10-23T07:26:53.000Z</time>
      </trkpt>
      <trkpt lat="47.53093" lon="6.85885">
        <ele>324</ele>
        <time>2016-10-23T07:26:54.000Z</time>
      </trkpt>
      <trkpt lat="47.53097" lon="6.85885">
        <ele>324</ele>
        <time>2016-10-23T07:26:55.000Z</time>
      </trkpt>
      <trkpt lat="47.53101" lon="6.85885">
        <ele>324</ele>
        <time>2016-10-23T07:26:56.000Z</time>
      </trkpt>
      <trkpt lat="47.53105" lon="6.85888">
        <ele>324</ele>
        <time>2016-10-23T07:26:57.000Z</time>
      </trkpt>
      <trkpt lat="47.53109" lon="6.8589">
        <ele>324</ele>
        <time>2016-10-23T07:26:58.000Z</time>
      </trkpt>
      <trkpt lat="47.53112" lon="6.85892">
        <ele>324</ele>
        <time>2016-10-23T07:26:59.000Z</time>
      </trkpt>
      <trkpt lat="47.53116" lon="6.85896">
        <ele>324</ele>
        <time>2016-10-23T07:27:00.000Z</time>
      </trkpt>
      <trkpt lat="47.53119" lon="6.85899">
        <ele>324</ele>
        <time>2016-10-23T07:27:01.000Z</time>
      </trkpt>
      <trkpt lat="47.53123" lon="6.85902">
        <ele>324</ele>
        <time>2016-10-23T07:27:02.000Z</time>
      </trkpt>
      <trkpt lat="47.53126" lon="6.85905">
        <ele>324</ele>
        <time>2016-10-23T07:27:03.000Z</time>
      </trkpt>
      <trkpt lat="47.5313" lon="6.85907">
        <ele>324</ele>
        <time>2016-10-23T07:27:04.000Z</time>
      </trkpt>
      <trkpt lat="47.53134" lon="6.85908">
        <ele>324</ele>
        <time>2016-10-23T07:27:05.000Z</time>
      </trkpt>
      <trkpt lat="47.53138" lon="6.8591">
        <ele>324</ele>
        <time>2016-10-23T07:27:05.999Z</time>
      </trkpt>
      <trkpt lat="47.53143" lon="6.85911">
        <ele>324</ele>
        <time>2016-10-23T07:27:07.000Z</time>
      </trkpt>
      <trkpt lat="47.53147" lon="6.85914">
        <ele>324</ele>
        <time>2016-10-23T07:27:08.000Z</time>
      </trkpt>
      <trkpt lat="47.53151" lon="6.85918">
        <ele>326</ele>
        <time>2016-10-23T07:27:09.000Z</time>
      </trkpt>
      <trkpt lat="47.53155" lon="6.8592">
        <ele>326</ele>
        <time>2016-10-23T07:27:10.000Z</time>
      </trkpt>
      <trkpt lat="47.5316" lon="6.85921">
        <ele>325</ele>
        <time>2016-10-23T07:27:11.000Z</time>
      </trkpt>
      <trkpt lat="47.53165" lon="6.85923">
        <ele>325</ele>
        <time>2016-10-23T07:27:12.000Z</time>
      </trkpt>
      <trkpt lat="47.53169" lon="6.85924">
        <ele>325</ele>
        <time>2016-10-23T07:27:12.999Z</time>
      </trkpt>
      <trkpt lat="47.53173" lon="6.85928">
        <ele>325</ele>
        <time>2016-10-23T07:27:14.000Z</time>
      </trkpt>
      <trkpt lat="47.53177" lon="6.8593">
        <ele>325</ele>
        <time>2016-10-23T07:27:15.000Z</time>
      </trkpt>
      <trkpt lat="47.53181" lon="6.85933">
        <ele>325</ele>
        <time>2016-10-23T07:27:16.000Z</time>
      </trkpt>
      <trkpt lat="47.53185" lon="6.85936">
        <ele>325</ele>
        <time>2016-10-23T07:27:17.000Z</time>
      </trkpt>
      <trkpt lat="47.5319" lon="6.85937">
        <ele>325</ele>
        <time>2016-10-23T07:27:18.000Z</time>
      </trkpt>
      <trkpt lat="47.53194" lon="6.85938">
        <ele>325</ele>
        <time>2016-10-23T07:27:19.000Z</time>
      </trkpt>
      <trkpt lat="47.53199" lon="6.8594">
        <ele>325</ele>
        <time>2016-10-23T07:27:20.001Z</time>
      </trkpt>
      <trkpt lat="47.53202" lon="6.85945">
        <ele>325</ele>
        <time>2016-10-23T07:27:21.000Z</time>
      </trkpt>
      <trkpt lat="47.53206" lon="6.85947">
        <ele>325</ele>
        <time>2016-10-23T07:27:22.000Z</time>
      </trkpt>
      <trkpt lat="47.53211" lon="6.85949">
        <ele>325</ele>
        <time>2016-10-23T07:27:22.999Z</time>
      </trkpt>
      <trkpt lat="47.53215" lon="6.8595">
        <ele>325</ele>
        <time>2016-10-23T07:27:24.000Z</time>
      </trkpt>
      <trkpt lat="47.53221" lon="6.85949">
        <ele>325</ele>
        <time>2016-10-23T07:27:25.000Z</time>
      </trkpt>
      <trkpt lat="47.53227" lon="6.85949">
        <ele>325</ele>
        <time>2016-10-23T07:27:25.999Z</time>
      </trkpt>
      <trkpt lat="47.5323" lon="6.85953">
        <ele>325</ele>
        <time>2016-10-23T07:27:27.000Z</time>
      </trkpt>
      <trkpt lat="47.53234" lon="6.85954">
        <ele>325</ele>
        <time>2016-10-23T07:27:28.000Z</time>
      </trkpt>
      <trkpt lat="47.53238" lon="6.85956">
        <ele>325</ele>
        <time>2016-10-23T07:27:29.000Z</time>
      </trkpt>
      <trkpt lat="47.53243" lon="6.85957">
        <ele>325</ele>
        <time>2016-10-23T07:27:30.000Z</time>
      </trkpt>
      <trkpt lat="47.53247" lon="6.85959">
        <ele>325</ele>
        <time>2016-10-23T07:27:31.000Z</time>
      </trkpt>
      <trkpt lat="47.53251" lon="6.85957">
        <ele>323</ele>
        <time>2016-10-23T07:27:32.000Z</time>
      </trkpt>
      <trkpt lat="47.53256" lon="6.85958">
        <ele>323</ele>
        <time>2016-10-23T07:27:33.000Z</time>
      </trkpt>
      <trkpt lat="47.5326" lon="6.85959">
        <ele>324</ele>
        <time>2016-10-23T07:27:34.000Z</time>
      </trkpt>
      <trkpt lat="47.53265" lon="6.85962">
        <ele>324</ele>
        <time>2016-10-23T07:27:35.000Z</time>
      </trkpt>
      <trkpt lat="47.53269" lon="6.85963">
        <ele>324</ele>
        <time>2016-10-23T07:27:36.000Z</time>
      </trkpt>
      <trkpt lat="47.53274" lon="6.85966">
        <ele>324</ele>
        <time>2016-10-23T07:27:37.000Z</time>
      </trkpt>
      <trkpt lat="47.53279" lon="6.85969">
        <ele>324</ele>
        <time>2016-10-23T07:27:38.000Z</time>
      </trkpt>
      <trkpt lat="47.53283" lon="6.85973">
        <ele>324</ele>
        <time>2016-10-23T07:27:39.000Z</time>
      </trkpt>
      <trkpt lat="47.53288" lon="6.85977">
        <ele>324</ele>
        <time>2016-10-23T07:27:40.000Z</time>
      </trkpt>
      <trkpt lat="47.53293" lon="6.8598">
        <ele>324</ele>
        <time>2016-10-23T07:27:41.000Z</time>
      </trkpt>
      <trkpt lat="47.53298" lon="6.85984">
        <ele>324</ele>
        <time>2016-10-23T07:27:42.000Z</time>
      </trkpt>
      <trkpt lat="47.53303" lon="6.85985">
        <ele>324</ele>
        <time>2016-10-23T07:27:42.999Z</time>
      </trkpt>
      <trkpt lat="47.53309" lon="6.85988">
        <ele>324</ele>
        <time>2016-10-23T07:27:44.000Z</time>
      </trkpt>
      <trkpt lat="47.53313" lon="6.8599">
        <ele>324</ele>
        <time>2016-10-23T07:27:45.000Z</time>
      </trkpt>
      <trkpt lat="47.53319" lon="6.85992">
        <ele>324</ele>
        <time>2016-10-23T07:27:46.000Z</time>
      </trkpt>
      <trkpt lat="47.53324" lon="6.85993">
        <ele>324</ele>
        <time>2016-10-23T07:27:47.000Z</time>
      </trkpt>
      <trkpt lat="47.53329" lon="6.85995">
        <ele>324</ele>
        <time>2016-10-23T07:27:48.000Z</time>
      </trkpt>
      <trkpt lat="47.53334" lon="6.85997">
        <ele>324</ele>
        <time>2016-10-23T07:27:49.000Z</time>
      </trkpt>
      <trkpt lat="47.5334" lon="6.85998">
        <ele>324</ele>
        <time>2016-10-23T07:27:50.000Z</time>
      </trkpt>
      <trkpt lat="47.53344" lon="6.86">
        <ele>324</ele>
        <time>2016-10-23T07:27:51.000Z</time>
      </trkpt>
      <trkpt lat="47.53349" lon="6.86002">
        <ele>325</ele>
        <time>2016-10-23T07:27:52.000Z</time>
      </trkpt>
      <trkpt lat="47.53352" lon="6.86006">
        <ele>325</ele>
        <time>2016-10-23T07:27:53.000Z</time>
      </trkpt>
      <trkpt lat="47.53356" lon="6.86008">
        <ele>325</ele>
        <time>2016-10-23T07:27:54.000Z</time>
      </trkpt>
      <trkpt lat="47.53361" lon="6.86012">
        <ele>325</ele>
        <time>2016-10-23T07:27:54.999Z</time>
      </trkpt>
      <trkpt lat="47.53366" lon="6.86014">
        <ele>325</ele>
        <time>2016-10-23T07:27:56.000Z</time>
      </trkpt>
      <trkpt lat="47.53371" lon="6.86018">
        <ele>325</ele>
        <time>2016-10-23T07:27:57.000Z</time>
      </trkpt>
      <trkpt lat="47.53376" lon="6.86022">
        <ele>325</ele>
        <time>2016-10-23T07:27:57.999Z</time>
      </trkpt>
      <trkpt lat="47.53383" lon="6.86021">
        <ele>325</ele>
        <time>2016-10-23T07:27:59.000Z</time>
      </trkpt>
      <trkpt lat="47.53388" lon="6.86024">
        <ele>325</ele>
        <time>2016-10-23T07:28:00.000Z</time>
      </trkpt>
      <trkpt lat="47.53393" lon="6.86026">
        <ele>325</ele>
        <time>2016-10-23T07:28:01.000Z</time>
      </trkpt>
      <trkpt lat="47.53398" lon="6.86027">
        <ele>325</ele>
        <time>2016-10-23T07:28:02.000Z</time>
      </trkpt>
      <trkpt lat="47.53402" lon="6.86029">
        <ele>325</ele>
        <time>2016-10-23T07:28:03.000Z</time>
      </trkpt>
      <trkpt lat="47.53406" lon="6.86031">
        <ele>325</ele>
        <time>2016-10-23T07:28:04.000Z</time>
      </trkpt>
      <trkpt lat="47.53411" lon="6.8603">
        <ele>325</ele>
        <time>2016-10-23T07:28:05.000Z</time>
      </trkpt>
      <trkpt lat="47.53417" lon="6.86025">
        <ele>326</ele>
        <time>2016-10-23T07:28:06.000Z</time>
      </trkpt>
      <trkpt lat="47.53423" lon="6.86025">
        <ele>326</ele>
        <time>2016-10-23T07:28:07.000Z</time>
      </trkpt>
      <trkpt lat="47.53428" lon="6.86027">
        <ele>326</ele>
        <time>2016-10-23T07:28:08.000Z</time>
      </trkpt>
      <trkpt lat="47.53431" lon="6.86029">
        <ele>326</ele>
        <time>2016-10-23T07:28:09.000Z</time>
      </trkpt>
      <trkpt lat="47.53435" lon="6.86032">
        <ele>326</ele>
        <time>2016-10-23T07:28:10.000Z</time>
      </trkpt>
      <trkpt lat="47.53441" lon="6.86033">
        <ele>326</ele>
        <time>2016-10-23T07:28:11.000Z</time>
      </trkpt>
      <trkpt lat="47.53446" lon="6.86036">
        <ele>326</ele>
        <time>2016-10-23T07:28:12.000Z</time>
      </trkpt>
      <trkpt lat="47.5345" lon="6.86038">
        <ele>326</ele>
        <time>2016-10-23T07:28:13.000Z</time>
      </trkpt>
      <trkpt lat="47.53454" lon="6.86039">
        <ele>326</ele>
        <time>2016-10-23T07:28:14.000Z</time>
      </trkpt>
      <trkpt lat="47.53459" lon="6.86041">
        <ele>326</ele>
        <time>2016-10-23T07:28:14.999Z</time>
      </trkpt>
      <trkpt lat="47.53464" lon="6.86042">
        <ele>326</ele>
        <time>2016-10-23T07:28:16.000Z</time>
      </trkpt>
      <trkpt lat="47.53468" lon="6.86044">
        <ele>326</ele>
        <time>2016-10-23T07:28:17.000Z</time>
      </trkpt>
      <trkpt lat="47.53472" lon="6.86047">
        <ele>326</ele>
        <time>2016-10-23T07:28:18.000Z</time>
      </trkpt>
      <trkpt lat="47.53476" lon="6.86049">
        <ele>326</ele>
        <time>2016-10-23T07:28:19.000Z</time>
      </trkpt>
      <trkpt lat="47.53482" lon="6.86051">
        <ele>326</ele>
        <time>2016-10-23T07:28:20.000Z</time>
      </trkpt>
      <trkpt lat="47.53487" lon="6.86051">
        <ele>326</ele>
        <time>2016-10-23T07:28:20.999Z</time>
      </trkpt>
      <trkpt lat="47.53492" lon="6.86053">
        <ele>326</ele>
        <time>2016-10-23T07:28:22.000Z</time>
      </trkpt>
      <trkpt lat="47.53497" lon="6.86055">
        <ele>326</ele>
        <time>2016-10-23T07:28:23.000Z</time>
      </trkpt>
      <trkpt lat="47.53502" lon="6.86056">
        <ele>326</ele>
        <time>2016-10-23T07:28:24.000Z</time>
      </trkpt>
      <trkpt lat="47.53505" lon="6.86057">
        <ele>326</ele>
        <time>2016-10-23T07:28:25.000Z</time>
      </trkpt>
      <trkpt lat="47.5351" lon="6.86058">
        <ele>326</ele>
        <time>2016-10-23T07:28:26.000Z</time>
      </trkpt>
      <trkpt lat="47.53515" lon="6.86059">
        <ele>326</ele>
        <time>2016-10-23T07:28:27.000Z</time>
      </trkpt>
      <trkpt lat="47.53519" lon="6.86061">
        <ele>326</ele>
        <time>2016-10-23T07:28:28.000Z</time>
      </trkpt>
      <trkpt lat="47.53523" lon="6.8606">
        <ele>326</ele>
        <time>2016-10-23T07:28:29.000Z</time>
      </trkpt>
      <trkpt lat="47.53527" lon="6.86062">
        <ele>326</ele>
        <time>2016-10-23T07:28:30.000Z</time>
      </trkpt>
      <trkpt lat="47.53532" lon="6.86065">
        <ele>326</ele>
        <time>2016-10-23T07:28:31.000Z</time>
      </trkpt>
      <trkpt lat="47.53537" lon="6.86064">
        <ele>325</ele>
        <time>2016-10-23T07:28:32.000Z</time>
      </trkpt>
      <trkpt lat="47.53542" lon="6.86064">
        <ele>325</ele>
        <time>2016-10-23T07:28:33.000Z</time>
      </trkpt>
      <trkpt lat="47.53546" lon="6.86064">
        <ele>325</ele>
        <time>2016-10-23T07:28:34.000Z</time>
      </trkpt>
      <trkpt lat="47.5355" lon="6.86069">
        <ele>325</ele>
        <time>2016-10-23T07:28:35.000Z</time>
      </trkpt>
      <trkpt lat="47.53554" lon="6.86072">
        <ele>325</ele>
        <time>2016-10-23T07:28:36.000Z</time>
      </trkpt>
      <trkpt lat="47.53559" lon="6.86073">
        <ele>325</ele>
        <time>2016-10-23T07:28:37.000Z</time>
      </trkpt>
      <trkpt lat="47.53563" lon="6.86075">
        <ele>325</ele>
        <time>2016-10-23T07:28:38.000Z</time>
      </trkpt>
      <trkpt lat="47.53567" lon="6.86076">
        <ele>325</ele>
        <time>2016-10-23T07:28:39.000Z</time>
      </trkpt>
      <trkpt lat="47.53572" lon="6.86078">
        <ele>326</ele>
        <time>2016-10-23T07:28:40.000Z</time>
      </trkpt>
      <trkpt lat="47.53577" lon="6.86079">
        <ele>326</ele>
        <time>2016-10-23T07:28:41.000Z</time>
      </trkpt>
      <trkpt lat="47.53582" lon="6.86081">
        <ele>326</ele>
        <time>2016-10-23T07:28:42.000Z</time>
      </trkpt>
      <trkpt lat="47.53587" lon="6.86082">
        <ele>326</ele>
        <time>2016-10-23T07:28:43.000Z</time>
      </trkpt>
      <trkpt lat="47.53592" lon="6.86084">
        <ele>326</ele>
        <time>2016-10-23T07:28:44.000Z</time>
      </trkpt>
      <trkpt lat="47.53597" lon="6.86087">
        <ele>326</ele>
        <time>2016-10-23T07:28:45.000Z</time>
      </trkpt>
      <trkpt lat="47.53602" lon="6.86089">
        <ele>326</ele>
        <time>2016-10-23T07:28:45.999Z</time>
      </trkpt>
      <trkpt lat="47.53607" lon="6.86093">
        <ele>326</ele>
        <time>2016-10-23T07:28:47.000Z</time>
      </trkpt>
      <trkpt lat="47.53612" lon="6.86092">
        <ele>326</ele>
        <time>2016-10-23T07:28:48.000Z</time>
      </trkpt>
      <trkpt lat="47.53616" lon="6.86092">
        <ele>326</ele>
        <time>2016-10-23T07:28:49.000Z</time>
      </trkpt>
      <trkpt lat="47.53621" lon="6.86093">
        <ele>326</ele>
        <time>2016-10-23T07:28:50.000Z</time>
      </trkpt>
      <trkpt lat="47.53626" lon="6.86096">
        <ele>326</ele>
        <time>2016-10-23T07:28:51.000Z</time>
      </trkpt>
      <trkpt lat="47.5363" lon="6.86099">
        <ele>326</ele>
        <time>2016-10-23T07:28:52.000Z</time>
      </trkpt>
      <trkpt lat="47.53634" lon="6.861">
        <ele>326</ele>
        <time>2016-10-23T07:28:53.000Z</time>
      </trkpt>
      <trkpt lat="47.53639" lon="6.86102">
        <ele>326</ele>
        <time>2016-10-23T07:28:54.000Z</time>
      </trkpt>
      <trkpt lat="47.53644" lon="6.86105">
        <ele>326</ele>
        <time>2016-10-23T07:28:55.000Z</time>
      </trkpt>
      <trkpt lat="47.53649" lon="6.86105">
        <ele>326</ele>
        <time>2016-10-23T07:28:56.000Z</time>
      </trkpt>
      <trkpt lat="47.53655" lon="6.86107">
        <ele>326</ele>
        <time>2016-10-23T07:28:57.000Z</time>
      </trkpt>
      <trkpt lat="47.53659" lon="6.8611">
        <ele>326</ele>
        <time>2016-10-23T07:28:57.999Z</time>
      </trkpt>
      <trkpt lat="47.53664" lon="6.86113">
        <ele>326</ele>
        <time>2016-10-23T07:28:59.000Z</time>
      </trkpt>
      <trkpt lat="47.53668" lon="6.86117">
        <ele>325</ele>
        <time>2016-10-23T07:29:00.000Z</time>
      </trkpt>
      <trkpt lat="47.53672" lon="6.86121">
        <ele>325</ele>
        <time>2016-10-23T07:29:00.999Z</time>
      </trkpt>
      <trkpt lat="47.53678" lon="6.8612">
        <ele>325</ele>
        <time>2016-10-23T07:29:02.000Z</time>
      </trkpt>
      <trkpt lat="47.53683" lon="6.86119">
        <ele>325</ele>
        <time>2016-10-23T07:29:03.000Z</time>
      </trkpt>
      <trkpt lat="47.53688" lon="6.8612">
        <ele>325</ele>
        <time>2016-10-23T07:29:04.000Z</time>
      </trkpt>
      <trkpt lat="47.53693" lon="6.86121">
        <ele>325</ele>
        <time>2016-10-23T07:29:04.999Z</time>
      </trkpt>
      <trkpt lat="47.53697" lon="6.86123">
        <ele>325</ele>
        <time>2016-10-23T07:29:06.000Z</time>
      </trkpt>
      <trkpt lat="47.53701" lon="6.86123">
        <ele>325</ele>
        <time>2016-10-23T07:29:07.000Z</time>
      </trkpt>
      <trkpt lat="47.53702" lon="6.86124">
        <ele>325</ele>
        <time>2016-10-23T07:29:08.000Z</time>
      </trkpt>
      <trkpt lat="47.53706" lon="6.86125">
        <ele>325</ele>
        <time>2016-10-23T07:29:09.000Z</time>
      </trkpt>
      <trkpt lat="47.5371" lon="6.86127">
        <ele>325</ele>
        <time>2016-10-23T07:29:10.000Z</time>
      </trkpt>
      <trkpt lat="47.53713" lon="6.86128">
        <ele>325</ele>
        <time>2016-10-23T07:29:11.000Z</time>
      </trkpt>
      <trkpt lat="47.53716" lon="6.86131">
        <ele>325</ele>
        <time>2016-10-23T07:29:12.000Z</time>
      </trkpt>
      <trkpt lat="47.5372" lon="6.86133">
        <ele>325</ele>
        <time>2016-10-23T07:29:13.000Z</time>
      </trkpt>
      <trkpt lat="47.53723" lon="6.86135">
        <ele>325</ele>
        <time>2016-10-23T07:29:14.000Z</time>
      </trkpt>
      <trkpt lat="47.53727" lon="6.86137">
        <ele>325</ele>
        <time>2016-10-23T07:29:14.999Z</time>
      </trkpt>
      <trkpt lat="47.5373" lon="6.86139">
        <ele>325</ele>
        <time>2016-10-23T07:29:16.000Z</time>
      </trkpt>
      <trkpt lat="47.53736" lon="6.86142">
        <ele>325</ele>
        <time>2016-10-23T07:29:17.000Z</time>
      </trkpt>
      <trkpt lat="47.53741" lon="6.86143">
        <ele>325</ele>
        <time>2016-10-23T07:29:17.999Z</time>
      </trkpt>
      <trkpt lat="47.53745" lon="6.86145">
        <ele>325</ele>
        <time>2016-10-23T07:29:19.000Z</time>
      </trkpt>
      <trkpt lat="47.53749" lon="6.86146">
        <ele>326</ele>
        <time>2016-10-23T07:29:20.000Z</time>
      </trkpt>
      <trkpt lat="47.53752" lon="6.86149">
        <ele>325</ele>
        <time>2016-10-23T07:29:21.000Z</time>
      </trkpt>
      <trkpt lat="47.53756" lon="6.86151">
        <ele>325</ele>
        <time>2016-10-23T07:29:22.000Z</time>
      </trkpt>
      <trkpt lat="47.53759" lon="6.86154">
        <ele>325</ele>
        <time>2016-10-23T07:29:23.001Z</time>
      </trkpt>
      <trkpt lat="47.53763" lon="6.86155">
        <ele>325</ele>
        <time>2016-10-23T07:29:24.000Z</time>
      </trkpt>
      <trkpt lat="47.53767" lon="6.86157">
        <ele>325</ele>
        <time>2016-10-23T07:29:25.000Z</time>
      </trkpt>
      <trkpt lat="47.5377" lon="6.86157">
        <ele>325</ele>
        <time>2016-10-23T07:29:26.000Z</time>
      </trkpt>
      <trkpt lat="47.53773" lon="6.86158">
        <ele>325</ele>
        <time>2016-10-23T07:29:27.000Z</time>
      </trkpt>
      <trkpt lat="47.53777" lon="6.86159">
        <ele>325</ele>
        <time>2016-10-23T07:29:28.000Z</time>
      </trkpt>
      <trkpt lat="47.53779" lon="6.8616">
        <ele>325</ele>
        <time>2016-10-23T07:29:29.000Z</time>
      </trkpt>
      <trkpt lat="47.53782" lon="6.86161">
        <ele>325</ele>
        <time>2016-10-23T07:29:30.000Z</time>
      </trkpt>
      <trkpt lat="47.53784" lon="6.86161">
        <ele>325</ele>
        <time>2016-10-23T07:29:31.000Z</time>
      </trkpt>
      <trkpt lat="47.53788" lon="6.8616">
        <ele>325</ele>
        <time>2016-10-23T07:29:34.000Z</time>
      </trkpt>
      <trkpt lat="47.53789" lon="6.8616">
        <ele>325</ele>
        <time>2016-10-23T07:29:35.000Z</time>
      </trkpt>
      <trkpt lat="47.53793" lon="6.8616">
        <ele>325</ele>
        <time>2016-10-23T07:29:38.000Z</time>
      </trkpt>
      <trkpt lat="47.53795" lon="6.8616">
        <ele>324</ele>
        <time>2016-10-23T07:29:39.000Z</time>
      </trkpt>
      <trkpt lat="47.53798" lon="6.86158">
        <ele>324</ele>
        <time>2016-10-23T07:29:41.000Z</time>
      </trkpt>
      <trkpt lat="47.538" lon="6.86158">
        <ele>324</ele>
        <time>2016-10-23T07:29:42.000Z</time>
      </trkpt>
      <trkpt lat="47.53803" lon="6.86156">
        <ele>324</ele>
        <time>2016-10-23T07:29:45.000Z</time>
      </trkpt>
      <trkpt lat="47.53805" lon="6.86155">
        <ele>324</ele>
        <time>2016-10-23T07:29:46.000Z</time>
      </trkpt>
      <trkpt lat="47.53809" lon="6.86154">
        <ele>324</ele>
        <time>2016-10-23T07:29:49.000Z</time>
      </trkpt>
      <trkpt lat="47.5381" lon="6.86153">
        <ele>324</ele>
        <time>2016-10-23T07:29:50.000Z</time>
      </trkpt>
      <trkpt lat="47.53813" lon="6.86153">
        <ele>324</ele>
        <time>2016-10-23T07:29:52.000Z</time>
      </trkpt>
      <trkpt lat="47.53815" lon="6.86153">
        <ele>324</ele>
        <time>2016-10-23T07:29:53.000Z</time>
      </trkpt>
      <trkpt lat="47.5382" lon="6.86153">
        <ele>324</ele>
        <time>2016-10-23T07:30:25.000Z</time>
      </trkpt>
      <trkpt lat="47.5382" lon="6.86154">
        <ele>324</ele>
        <time>2016-10-23T07:30:26.000Z</time>
      </trkpt>
      <trkpt lat="47.53823" lon="6.86153">
        <ele>324</ele>
        <time>2016-10-23T07:31:38.000Z</time>
      </trkpt>
      <trkpt lat="47.53825" lon="6.86153">
        <ele>324</ele>
        <time>2016-10-23T07:31:39.000Z</time>
      </trkpt>
      <trkpt lat="47.53827" lon="6.86153">
        <ele>324</ele>
        <time>2016-10-23T07:31:40.000Z</time>
      </trkpt>
      <trkpt lat="47.53831" lon="6.86153">
        <ele>324</ele>
        <time>2016-10-23T07:31:41.000Z</time>
      </trkpt>
      <trkpt lat="47.53834" lon="6.86153">
        <ele>324</ele>
        <time>2016-10-23T07:31:42.000Z</time>
      </trkpt>
      <trkpt lat="47.53837" lon="6.86154">
        <ele>324</ele>
        <time>2016-10-23T07:31:43.000Z</time>
      </trkpt>
      <trkpt lat="47.53843" lon="6.86155">
        <ele>324</ele>
        <time>2016-10-23T07:31:44.000Z</time>
      </trkpt>
      <trkpt lat="47.53847" lon="6.86156">
        <ele>324</ele>
        <time>2016-10-23T07:31:45.000Z</time>
      </trkpt>
      <trkpt lat="47.53855" lon="6.86159">
        <ele>324</ele>
        <time>2016-10-23T07:31:46.000Z</time>
      </trkpt>
      <trkpt lat="47.53859" lon="6.86161">
        <ele>324</ele>
        <time>2016-10-23T07:31:47.000Z</time>
      </trkpt>
      <trkpt lat="47.53863" lon="6.86162">
        <ele>324</ele>
        <time>2016-10-23T07:31:48.000Z</time>
      </trkpt>
      <trkpt lat="47.53868" lon="6.86164">
        <ele>324</ele>
        <time>2016-10-23T07:31:49.000Z</time>
      </trkpt>
      <trkpt lat="47.53872" lon="6.86166">
        <ele>324</ele>
        <time>2016-10-23T07:31:50.000Z</time>
      </trkpt>
      <trkpt lat="47.53877" lon="6.86165">
        <ele>324</ele>
        <time>2016-10-23T07:31:51.000Z</time>
      </trkpt>
      <trkpt lat="47.53882" lon="6.86167">
        <ele>326</ele>
        <time>2016-10-23T07:31:52.000Z</time>
      </trkpt>
      <trkpt lat="47.53887" lon="6.86171">
        <ele>326</ele>
        <time>2016-10-23T07:31:52.999Z</time>
      </trkpt>
      <trkpt lat="47.53892" lon="6.8617">
        <ele>326</ele>
        <time>2016-10-23T07:31:54.000Z</time>
      </trkpt>
      <trkpt lat="47.53896" lon="6.8617">
        <ele>326</ele>
        <time>2016-10-23T07:31:55.000Z</time>
      </trkpt>
      <trkpt lat="47.53901" lon="6.86171">
        <ele>326</ele>
        <time>2016-10-23T07:31:56.000Z</time>
      </trkpt>
      <trkpt lat="47.53905" lon="6.86171">
        <ele>326</ele>
        <time>2016-10-23T07:31:57.001Z</time>
      </trkpt>
      <trkpt lat="47.5391" lon="6.86172">
        <ele>326</ele>
        <time>2016-10-23T07:31:58.000Z</time>
      </trkpt>
      <trkpt lat="47.53916" lon="6.86169">
        <ele>326</ele>
        <time>2016-10-23T07:31:59.000Z</time>
      </trkpt>
      <trkpt lat="47.53921" lon="6.86167">
        <ele>326</ele>
        <time>2016-10-23T07:32:00.000Z</time>
      </trkpt>
      <trkpt lat="47.53926" lon="6.86166">
        <ele>325</ele>
        <time>2016-10-23T07:32:01.000Z</time>
      </trkpt>
      <trkpt lat="47.53931" lon="6.86164">
        <ele>325</ele>
        <time>2016-10-23T07:32:02.000Z</time>
      </trkpt>
      <trkpt lat="47.53935" lon="6.86163">
        <ele>325</ele>
        <time>2016-10-23T07:32:02.999Z</time>
      </trkpt>
      <trkpt lat="47.5394" lon="6.86161">
        <ele>324</ele>
        <time>2016-10-23T07:32:04.000Z</time>
      </trkpt>
      <trkpt lat="47.53945" lon="6.86159">
        <ele>324</ele>
        <time>2016-10-23T07:32:05.000Z</time>
      </trkpt>
      <trkpt lat="47.5395" lon="6.86155">
        <ele>324</ele>
        <time>2016-10-23T07:32:06.000Z</time>
      </trkpt>
      <trkpt lat="47.53955" lon="6.86152">
        <ele>324</ele>
        <time>2016-10-23T07:32:07.000Z</time>
      </trkpt>
      <trkpt lat="47.5396" lon="6.86152">
        <ele>324</ele>
        <time>2016-10-23T07:32:08.000Z</time>
      </trkpt>
      <trkpt lat="47.53965" lon="6.86152">
        <ele>324</ele>
        <time>2016-10-23T07:32:09.000Z</time>
      </trkpt>
      <trkpt lat="47.53969" lon="6.8615">
        <ele>324</ele>
        <time>2016-10-23T07:32:10.000Z</time>
      </trkpt>
      <trkpt lat="47.53973" lon="6.8615">
        <ele>324</ele>
        <time>2016-10-23T07:32:11.000Z</time>
      </trkpt>
      <trkpt lat="47.53978" lon="6.86148">
        <ele>324</ele>
        <time>2016-10-23T07:32:12.000Z</time>
      </trkpt>
      <trkpt lat="47.53983" lon="6.86145">
        <ele>324</ele>
        <time>2016-10-23T07:32:13.000Z</time>
      </trkpt>
      <trkpt lat="47.53988" lon="6.86145">
        <ele>324</ele>
        <time>2016-10-23T07:32:14.000Z</time>
      </trkpt>
      <trkpt lat="47.53992" lon="6.86145">
        <ele>324</ele>
        <time>2016-10-23T07:32:15.000Z</time>
      </trkpt>
      <trkpt lat="47.53996" lon="6.86147">
        <ele>324</ele>
        <time>2016-10-23T07:32:16.000Z</time>
      </trkpt>
      <trkpt lat="47.54001" lon="6.86147">
        <ele>324</ele>
        <time>2016-10-23T07:32:17.000Z</time>
      </trkpt>
      <trkpt lat="47.54008" lon="6.86148">
        <ele>324</ele>
        <time>2016-10-23T07:32:18.000Z</time>
      </trkpt>
      <trkpt lat="47.54015" lon="6.8615">
        <ele>323</ele>
        <time>2016-10-23T07:32:19.000Z</time>
      </trkpt>
      <trkpt lat="47.54021" lon="6.86151">
        <ele>323</ele>
        <time>2016-10-23T07:32:19.999Z</time>
      </trkpt>
      <trkpt lat="47.54026" lon="6.86149">
        <ele>323</ele>
        <time>2016-10-23T07:32:21.000Z</time>
      </trkpt>
      <trkpt lat="47.5403" lon="6.86152">
        <ele>323</ele>
        <time>2016-10-23T07:32:22.000Z</time>
      </trkpt>
      <trkpt lat="47.54035" lon="6.86157">
        <ele>323</ele>
        <time>2016-10-23T07:32:23.000Z</time>
      </trkpt>
      <trkpt lat="47.5404" lon="6.86158">
        <ele>323</ele>
        <time>2016-10-23T07:32:24.000Z</time>
      </trkpt>
      <trkpt lat="47.54045" lon="6.86162">
        <ele>323</ele>
        <time>2016-10-23T07:32:25.000Z</time>
      </trkpt>
      <trkpt lat="47.54049" lon="6.8616">
        <ele>323</ele>
        <time>2016-10-23T07:32:26.000Z</time>
      </trkpt>
      <trkpt lat="47.54055" lon="6.86163">
        <ele>323</ele>
        <time>2016-10-23T07:32:27.000Z</time>
      </trkpt>
      <trkpt lat="47.54059" lon="6.86167">
        <ele>324</ele>
        <time>2016-10-23T07:32:28.000Z</time>
      </trkpt>
      <trkpt lat="47.54063" lon="6.86173">
        <ele>324</ele>
        <time>2016-10-23T07:32:29.000Z</time>
      </trkpt>
      <trkpt lat="47.54067" lon="6.86176">
        <ele>324</ele>
        <time>2016-10-23T07:32:30.000Z</time>
      </trkpt>
      <trkpt lat="47.54071" lon="6.86178">
        <ele>324</ele>
        <time>2016-10-23T07:32:31.000Z</time>
      </trkpt>
      <trkpt lat="47.54075" lon="6.86179">
        <ele>324</ele>
        <time>2016-10-23T07:32:32.000Z</time>
      </trkpt>
      <trkpt lat="47.5408" lon="6.8618">
        <ele>324</ele>
        <time>2016-10-23T07:32:33.000Z</time>
      </trkpt>
      <trkpt lat="47.54084" lon="6.8618">
        <ele>324</ele>
        <time>2016-10-23T07:32:34.000Z</time>
      </trkpt>
      <trkpt lat="47.54088" lon="6.86181">
        <ele>324</ele>
        <time>2016-10-23T07:32:35.000Z</time>
      </trkpt>
      <trkpt lat="47.54092" lon="6.86181">
        <ele>324</ele>
        <time>2016-10-23T07:32:36.000Z</time>
      </trkpt>
      <trkpt lat="47.54096" lon="6.86181">
        <ele>324</ele>
        <time>2016-10-23T07:32:36.999Z</time>
      </trkpt>
      <trkpt lat="47.54099" lon="6.86181">
        <ele>324</ele>
        <time>2016-10-23T07:32:38.000Z</time>
      </trkpt>
      <trkpt lat="47.54104" lon="6.86181">
        <ele>324</ele>
        <time>2016-10-23T07:32:39.000Z</time>
      </trkpt>
      <trkpt lat="47.54108" lon="6.86181">
        <ele>324</ele>
        <time>2016-10-23T07:32:40.000Z</time>
      </trkpt>
      <trkpt lat="47.54113" lon="6.8618">
        <ele>324</ele>
        <time>2016-10-23T07:32:41.000Z</time>
      </trkpt>
      <trkpt lat="47.54118" lon="6.86179">
        <ele>324</ele>
        <time>2016-10-23T07:32:42.000Z</time>
      </trkpt>
      <trkpt lat="47.54122" lon="6.8618">
        <ele>324</ele>
        <time>2016-10-23T07:32:43.000Z</time>
      </trkpt>
      <trkpt lat="47.54126" lon="6.86179">
        <ele>325</ele>
        <time>2016-10-23T07:32:44.000Z</time>
      </trkpt>
      <trkpt lat="47.54131" lon="6.86179">
        <ele>325</ele>
        <time>2016-10-23T07:32:45.000Z</time>
      </trkpt>
      <trkpt lat="47.54136" lon="6.8618">
        <ele>325</ele>
        <time>2016-10-23T07:32:46.000Z</time>
      </trkpt>
      <trkpt lat="47.54141" lon="6.86178">
        <ele>325</ele>
        <time>2016-10-23T07:32:47.000Z</time>
      </trkpt>
      <trkpt lat="47.54145" lon="6.86177">
        <ele>325</ele>
        <time>2016-10-23T07:32:48.000Z</time>
      </trkpt>
      <trkpt lat="47.5415" lon="6.86177">
        <ele>325</ele>
        <time>2016-10-23T07:32:48.999Z</time>
      </trkpt>
      <trkpt lat="47.54156" lon="6.86176">
        <ele>325</ele>
        <time>2016-10-23T07:32:50.000Z</time>
      </trkpt>
      <trkpt lat="47.54161" lon="6.86175">
        <ele>325</ele>
        <time>2016-10-23T07:32:51.000Z</time>
      </trkpt>
      <trkpt lat="47.54165" lon="6.86173">
        <ele>325</ele>
        <time>2016-10-23T07:32:51.999Z</time>
      </trkpt>
      <trkpt lat="47.5417" lon="6.86173">
        <ele>325</ele>
        <time>2016-10-23T07:32:53.000Z</time>
      </trkpt>
      <trkpt lat="47.54174" lon="6.86172">
        <ele>325</ele>
        <time>2016-10-23T07:32:54.000Z</time>
      </trkpt>
      <trkpt lat="47.54179" lon="6.86171">
        <ele>325</ele>
        <time>2016-10-23T07:32:54.999Z</time>
      </trkpt>
      <trkpt lat="47.54184" lon="6.86168">
        <ele>325</ele>
        <time>2016-10-23T07:32:56.000Z</time>
      </trkpt>
      <trkpt lat="47.5419" lon="6.86167">
        <ele>326</ele>
        <time>2016-10-23T07:32:57.000Z</time>
      </trkpt>
      <trkpt lat="47.54195" lon="6.86165">
        <ele>324</ele>
        <time>2016-10-23T07:32:58.000Z</time>
      </trkpt>
      <trkpt lat="47.54199" lon="6.86164">
        <ele>324</ele>
        <time>2016-10-23T07:32:58.999Z</time>
      </trkpt>
      <trkpt lat="47.54203" lon="6.86166">
        <ele>324</ele>
        <time>2016-10-23T07:33:00.000Z</time>
      </trkpt>
      <trkpt lat="47.54206" lon="6.86165">
        <ele>324</ele>
        <time>2016-10-23T07:33:01.000Z</time>
      </trkpt>
      <trkpt lat="47.54209" lon="6.86163">
        <ele>324</ele>
        <time>2016-10-23T07:33:02.000Z</time>
      </trkpt>
      <trkpt lat="47.54212" lon="6.86162">
        <ele>324</ele>
        <time>2016-10-23T07:33:03.000Z</time>
      </trkpt>
      <trkpt lat="47.54219" lon="6.86162">
        <ele>324</ele>
        <time>2016-10-23T07:33:04.000Z</time>
      </trkpt>
      <trkpt lat="47.54224" lon="6.8616">
        <ele>324</ele>
        <time>2016-10-23T07:33:05.000Z</time>
      </trkpt>
      <trkpt lat="47.5423" lon="6.86158">
        <ele>324</ele>
        <time>2016-10-23T07:33:06.000Z</time>
      </trkpt>
      <trkpt lat="47.54234" lon="6.86155">
        <ele>324</ele>
        <time>2016-10-23T07:33:06.999Z</time>
      </trkpt>
      <trkpt lat="47.54239" lon="6.86157">
        <ele>324</ele>
        <time>2016-10-23T07:33:08.000Z</time>
      </trkpt>
      <trkpt lat="47.54244" lon="6.86158">
        <ele>324</ele>
        <time>2016-10-23T07:33:09.000Z</time>
      </trkpt>
      <trkpt lat="47.54249" lon="6.86158">
        <ele>324</ele>
        <time>2016-10-23T07:33:10.000Z</time>
      </trkpt>
      <trkpt lat="47.54255" lon="6.86158">
        <ele>325</ele>
        <time>2016-10-23T07:33:11.000Z</time>
      </trkpt>
      <trkpt lat="47.5426" lon="6.8616">
        <ele>324</ele>
        <time>2016-10-23T07:33:12.000Z</time>
      </trkpt>
      <trkpt lat="47.54266" lon="6.86162">
        <ele>324</ele>
        <time>2016-10-23T07:33:13.000Z</time>
      </trkpt>
      <trkpt lat="47.54271" lon="6.86162">
        <ele>324</ele>
        <time>2016-10-23T07:33:14.000Z</time>
      </trkpt>
      <trkpt lat="47.54276" lon="6.86162">
        <ele>324</ele>
        <time>2016-10-23T07:33:15.000Z</time>
      </trkpt>
      <trkpt lat="47.54281" lon="6.86162">
        <ele>324</ele>
        <time>2016-10-23T07:33:16.000Z</time>
      </trkpt>
      <trkpt lat="47.54286" lon="6.86164">
        <ele>324</ele>
        <time>2016-10-23T07:33:17.000Z</time>
      </trkpt>
      <trkpt lat="47.54291" lon="6.86164">
        <ele>324</ele>
        <time>2016-10-23T07:33:18.000Z</time>
      </trkpt>
      <trkpt lat="47.54297" lon="6.86163">
        <ele>324</ele>
        <time>2016-10-23T07:33:19.000Z</time>
      </trkpt>
      <trkpt lat="47.54302" lon="6.86163">
        <ele>324</ele>
        <time>2016-10-23T07:33:19.999Z</time>
      </trkpt>
      <trkpt lat="47.54307" lon="6.86163">
        <ele>324</ele>
        <time>2016-10-23T07:33:21.000Z</time>
      </trkpt>
      <trkpt lat="47.54312" lon="6.86163">
        <ele>324</ele>
        <time>2016-10-23T07:33:22.000Z</time>
      </trkpt>
      <trkpt lat="47.54317" lon="6.86164">
        <ele>324</ele>
        <time>2016-10-23T07:33:23.001Z</time>
      </trkpt>
      <trkpt lat="47.54323" lon="6.86162">
        <ele>325</ele>
        <time>2016-10-23T07:33:24.000Z</time>
      </trkpt>
      <trkpt lat="47.54327" lon="6.86162">
        <ele>325</ele>
        <time>2016-10-23T07:33:25.000Z</time>
      </trkpt>
      <trkpt lat="47.54332" lon="6.86163">
        <ele>325</ele>
        <time>2016-10-23T07:33:25.999Z</time>
      </trkpt>
      <trkpt lat="47.54336" lon="6.8616">
        <ele>325</ele>
        <time>2016-10-23T07:33:27.000Z</time>
      </trkpt>
      <trkpt lat="47.54341" lon="6.8616">
        <ele>326</ele>
        <time>2016-10-23T07:33:28.000Z</time>
      </trkpt>
      <trkpt lat="47.54347" lon="6.8616">
        <ele>326</ele>
        <time>2016-10-23T07:33:29.000Z</time>
      </trkpt>
      <trkpt lat="47.54352" lon="6.86159">
        <ele>326</ele>
        <time>2016-10-23T07:33:30.001Z</time>
      </trkpt>
      <trkpt lat="47.54357" lon="6.86157">
        <ele>326</ele>
        <time>2016-10-23T07:33:31.000Z</time>
      </trkpt>
      <trkpt lat="47.54363" lon="6.86153">
        <ele>326</ele>
        <time>2016-10-23T07:33:32.000Z</time>
      </trkpt>
      <trkpt lat="47.54367" lon="6.86151">
        <ele>327</ele>
        <time>2016-10-23T07:33:33.000Z</time>
      </trkpt>
      <trkpt lat="47.54371" lon="6.86148">
        <ele>327</ele>
        <time>2016-10-23T07:33:34.000Z</time>
      </trkpt>
      <trkpt lat="47.54373" lon="6.86144">
        <ele>327</ele>
        <time>2016-10-23T07:33:35.000Z</time>
      </trkpt>
      <trkpt lat="47.54376" lon="6.86139">
        <ele>327</ele>
        <time>2016-10-23T07:33:35.999Z</time>
      </trkpt>
      <trkpt lat="47.54375" lon="6.8613">
        <ele>327</ele>
        <time>2016-10-23T07:33:37.000Z</time>
      </trkpt>
      <trkpt lat="47.54375" lon="6.86125">
        <ele>327</ele>
        <time>2016-10-23T07:33:38.000Z</time>
      </trkpt>
      <trkpt lat="47.54374" lon="6.8612">
        <ele>327</ele>
        <time>2016-10-23T07:33:38.999Z</time>
      </trkpt>
      <trkpt lat="47.54371" lon="6.86113">
        <ele>327</ele>
        <time>2016-10-23T07:33:40.001Z</time>
      </trkpt>
      <trkpt lat="47.54369" lon="6.86107">
        <ele>327</ele>
        <time>2016-10-23T07:33:41.000Z</time>
      </trkpt>
      <trkpt lat="47.54368" lon="6.861">
        <ele>326</ele>
        <time>2016-10-23T07:33:42.000Z</time>
      </trkpt>
      <trkpt lat="47.54366" lon="6.86094">
        <ele>326</ele>
        <time>2016-10-23T07:33:43.000Z</time>
      </trkpt>
      <trkpt lat="47.54363" lon="6.86089">
        <ele>326</ele>
        <time>2016-10-23T07:33:44.000Z</time>
      </trkpt>
      <trkpt lat="47.54361" lon="6.86083">
        <ele>326</ele>
        <time>2016-10-23T07:33:45.000Z</time>
      </trkpt>
      <trkpt lat="47.54357" lon="6.86078">
        <ele>325</ele>
        <time>2016-10-23T07:33:46.000Z</time>
      </trkpt>
      <trkpt lat="47.54353" lon="6.86071">
        <ele>325</ele>
        <time>2016-10-23T07:33:47.000Z</time>
      </trkpt>
      <trkpt lat="47.54349" lon="6.86065">
        <ele>325</ele>
        <time>2016-10-23T07:33:48.000Z</time>
      </trkpt>
      <trkpt lat="47.54345" lon="6.8606">
        <ele>325</ele>
        <time>2016-10-23T07:33:49.000Z</time>
      </trkpt>
      <trkpt lat="47.54343" lon="6.86052">
        <ele>326</ele>
        <time>2016-10-23T07:33:50.000Z</time>
      </trkpt>
      <trkpt lat="47.5434" lon="6.86045">
        <ele>326</ele>
        <time>2016-10-23T07:33:51.000Z</time>
      </trkpt>
      <trkpt lat="47.54337" lon="6.86038">
        <ele>326</ele>
        <time>2016-10-23T07:33:52.000Z</time>
      </trkpt>
      <trkpt lat="47.54333" lon="6.86031">
        <ele>324</ele>
        <time>2016-10-23T07:33:53.000Z</time>
      </trkpt>
      <trkpt lat="47.54331" lon="6.86024">
        <ele>324</ele>
        <time>2016-10-23T07:33:54.000Z</time>
      </trkpt>
      <trkpt lat="47.54327" lon="6.86016">
        <ele>325</ele>
        <time>2016-10-23T07:33:55.000Z</time>
      </trkpt>
      <trkpt lat="47.54324" lon="6.86009">
        <ele>325</ele>
        <time>2016-10-23T07:33:56.000Z</time>
      </trkpt>
      <trkpt lat="47.5432" lon="6.86002">
        <ele>325</ele>
        <time>2016-10-23T07:33:57.000Z</time>
      </trkpt>
      <trkpt lat="47.54317" lon="6.85996">
        <ele>325</ele>
        <time>2016-10-23T07:33:58.000Z</time>
      </trkpt>
      <trkpt lat="47.54313" lon="6.85989">
        <ele>325</ele>
        <time>2016-10-23T07:33:59.000Z</time>
      </trkpt>
      <trkpt lat="47.54311" lon="6.85982">
        <ele>325</ele>
        <time>2016-10-23T07:34:00.000Z</time>
      </trkpt>
      <trkpt lat="47.54308" lon="6.85976">
        <ele>325</ele>
        <time>2016-10-23T07:34:01.000Z</time>
      </trkpt>
      <trkpt lat="47.54304" lon="6.85971">
        <ele>325</ele>
        <time>2016-10-23T07:34:02.000Z</time>
      </trkpt>
      <trkpt lat="47.54299" lon="6.85967">
        <ele>325</ele>
        <time>2016-10-23T07:34:03.000Z</time>
      </trkpt>
      <trkpt lat="47.54295" lon="6.85963">
        <ele>325</ele>
        <time>2016-10-23T07:34:04.000Z</time>
      </trkpt>
      <trkpt lat="47.5429" lon="6.85962">
        <ele>325</ele>
        <time>2016-10-23T07:34:05.000Z</time>
      </trkpt>
      <trkpt lat="47.54284" lon="6.85962">
        <ele>325</ele>
        <time>2016-10-23T07:34:06.000Z</time>
      </trkpt>
      <trkpt lat="47.54279" lon="6.85961">
        <ele>324</ele>
        <time>2016-10-23T07:34:07.000Z</time>
      </trkpt>
      <trkpt lat="47.54273" lon="6.85961">
        <ele>324</ele>
        <time>2016-10-23T07:34:08.000Z</time>
      </trkpt>
      <trkpt lat="47.54268" lon="6.85961">
        <ele>324</ele>
        <time>2016-10-23T07:34:09.000Z</time>
      </trkpt>
      <trkpt lat="47.54262" lon="6.85958">
        <ele>324</ele>
        <time>2016-10-23T07:34:10.000Z</time>
      </trkpt>
      <trkpt lat="47.54256" lon="6.85957">
        <ele>324</ele>
        <time>2016-10-23T07:34:11.000Z</time>
      </trkpt>
      <trkpt lat="47.5425" lon="6.85957">
        <ele>323</ele>
        <time>2016-10-23T07:34:12.000Z</time>
      </trkpt>
      <trkpt lat="47.54245" lon="6.85957">
        <ele>323</ele>
        <time>2016-10-23T07:34:13.000Z</time>
      </trkpt>
      <trkpt lat="47.54239" lon="6.85958">
        <ele>323</ele>
        <time>2016-10-23T07:34:14.000Z</time>
      </trkpt>
      <trkpt lat="47.54233" lon="6.85958">
        <ele>323</ele>
        <time>2016-10-23T07:34:15.000Z</time>
      </trkpt>
      <trkpt lat="47.54228" lon="6.85957">
        <ele>323</ele>
        <time>2016-10-23T07:34:16.000Z</time>
      </trkpt>
      <trkpt lat="47.54222" lon="6.85957">
        <ele>323</ele>
        <time>2016-10-23T07:34:17.000Z</time>
      </trkpt>
      <trkpt lat="47.54217" lon="6.85957">
        <ele>323</ele>
        <time>2016-10-23T07:34:18.000Z</time>
      </trkpt>
      <trkpt lat="47.54212" lon="6.85957">
        <ele>323</ele>
        <time>2016-10-23T07:34:19.000Z</time>
      </trkpt>
      <trkpt lat="47.54206" lon="6.85957">
        <ele>323</ele>
        <time>2016-10-23T07:34:20.000Z</time>
      </trkpt>
      <trkpt lat="47.54201" lon="6.85956">
        <ele>323</ele>
        <time>2016-10-23T07:34:21.000Z</time>
      </trkpt>
      <trkpt lat="47.54196" lon="6.85955">
        <ele>323</ele>
        <time>2016-10-23T07:34:22.000Z</time>
      </trkpt>
      <trkpt lat="47.5419" lon="6.85955">
        <ele>323</ele>
        <time>2016-10-23T07:34:23.000Z</time>
      </trkpt>
      <trkpt lat="47.54185" lon="6.85952">
        <ele>323</ele>
        <time>2016-10-23T07:34:24.000Z</time>
      </trkpt>
      <trkpt lat="47.54178" lon="6.8595">
        <ele>323</ele>
        <time>2016-10-23T07:34:25.000Z</time>
      </trkpt>
      <trkpt lat="47.54173" lon="6.85946">
        <ele>323</ele>
        <time>2016-10-23T07:34:26.000Z</time>
      </trkpt>
      <trkpt lat="47.54169" lon="6.85941">
        <ele>324</ele>
        <time>2016-10-23T07:34:27.000Z</time>
      </trkpt>
      <trkpt lat="47.54166" lon="6.85933">
        <ele>324</ele>
        <time>2016-10-23T07:34:28.000Z</time>
      </trkpt>
      <trkpt lat="47.54163" lon="6.85926">
        <ele>324</ele>
        <time>2016-10-23T07:34:29.000Z</time>
      </trkpt>
      <trkpt lat="47.5416" lon="6.8592">
        <ele>324</ele>
        <time>2016-10-23T07:34:30.000Z</time>
      </trkpt>
      <trkpt lat="47.54156" lon="6.85914">
        <ele>325</ele>
        <time>2016-10-23T07:34:31.000Z</time>
      </trkpt>
      <trkpt lat="47.54152" lon="6.85908">
        <ele>325</ele>
        <time>2016-10-23T07:34:32.000Z</time>
      </trkpt>
      <trkpt lat="47.54147" lon="6.85905">
        <ele>325</ele>
        <time>2016-10-23T07:34:33.000Z</time>
      </trkpt>
      <trkpt lat="47.54142" lon="6.85903">
        <ele>325</ele>
        <time>2016-10-23T07:34:34.000Z</time>
      </trkpt>
      <trkpt lat="47.54136" lon="6.85902">
        <ele>325</ele>
        <time>2016-10-23T07:34:35.000Z</time>
      </trkpt>
      <trkpt lat="47.5413" lon="6.85901">
        <ele>325</ele>
        <time>2016-10-23T07:34:36.000Z</time>
      </trkpt>
      <trkpt lat="47.54124" lon="6.859">
        <ele>324</ele>
        <time>2016-10-23T07:34:37.000Z</time>
      </trkpt>
      <trkpt lat="47.54119" lon="6.85899">
        <ele>324</ele>
        <time>2016-10-23T07:34:38.000Z</time>
      </trkpt>
      <trkpt lat="47.54113" lon="6.85898">
        <ele>324</ele>
        <time>2016-10-23T07:34:39.000Z</time>
      </trkpt>
      <trkpt lat="47.54107" lon="6.85898">
        <ele>324</ele>
        <time>2016-10-23T07:34:40.000Z</time>
      </trkpt>
      <trkpt lat="47.54102" lon="6.85899">
        <ele>324</ele>
        <time>2016-10-23T07:34:41.000Z</time>
      </trkpt>
      <trkpt lat="47.54097" lon="6.859">
        <ele>324</ele>
        <time>2016-10-23T07:34:42.000Z</time>
      </trkpt>
      <trkpt lat="47.54092" lon="6.85899">
        <ele>324</ele>
        <time>2016-10-23T07:34:43.000Z</time>
      </trkpt>
      <trkpt lat="47.54088" lon="6.85896">
        <ele>324</ele>
        <time>2016-10-23T07:34:44.000Z</time>
      </trkpt>
      <trkpt lat="47.54082" lon="6.85897">
        <ele>325</ele>
        <time>2016-10-23T07:34:45.000Z</time>
      </trkpt>
      <trkpt lat="47.54077" lon="6.85897">
        <ele>325</ele>
        <time>2016-10-23T07:34:46.000Z</time>
      </trkpt>
      <trkpt lat="47.54073" lon="6.85895">
        <ele>325</ele>
        <time>2016-10-23T07:34:47.000Z</time>
      </trkpt>
      <trkpt lat="47.5407" lon="6.8589">
        <ele>325</ele>
        <time>2016-10-23T07:34:48.000Z</time>
      </trkpt>
      <trkpt lat="47.54069" lon="6.85885">
        <ele>325</ele>
        <time>2016-10-23T07:34:49.000Z</time>
      </trkpt>
      <trkpt lat="47.5407" lon="6.85878">
        <ele>325</ele>
        <time>2016-10-23T07:34:50.000Z</time>
      </trkpt>
      <trkpt lat="47.5407" lon="6.8587">
        <ele>325</ele>
        <time>2016-10-23T07:34:51.000Z</time>
      </trkpt>
      <trkpt lat="47.54072" lon="6.85862">
        <ele>325</ele>
        <time>2016-10-23T07:34:52.000Z</time>
      </trkpt>
      <trkpt lat="47.54073" lon="6.85855">
        <ele>325</ele>
        <time>2016-10-23T07:34:53.000Z</time>
      </trkpt>
      <trkpt lat="47.54074" lon="6.85846">
        <ele>325</ele>
        <time>2016-10-23T07:34:54.000Z</time>
      </trkpt>
      <trkpt lat="47.54075" lon="6.85839">
        <ele>325</ele>
        <time>2016-10-23T07:34:55.000Z</time>
      </trkpt>
      <trkpt lat="47.54075" lon="6.85831">
        <ele>325</ele>
        <time>2016-10-23T07:34:56.000Z</time>
      </trkpt>
      <trkpt lat="47.54074" lon="6.85824">
        <ele>325</ele>
        <time>2016-10-23T07:34:57.000Z</time>
      </trkpt>
      <trkpt lat="47.54072" lon="6.85817">
        <ele>325</ele>
        <time>2016-10-23T07:34:58.000Z</time>
      </trkpt>
      <trkpt lat="47.54069" lon="6.85811">
        <ele>325</ele>
        <time>2016-10-23T07:34:59.000Z</time>
      </trkpt>
      <trkpt lat="47.54066" lon="6.85806">
        <ele>326</ele>
        <time>2016-10-23T07:35:00.000Z</time>
      </trkpt>
      <trkpt lat="47.54062" lon="6.85802">
        <ele>326</ele>
        <time>2016-10-23T07:35:01.000Z</time>
      </trkpt>
      <trkpt lat="47.54059" lon="6.85799">
        <ele>326</ele>
        <time>2016-10-23T07:35:02.000Z</time>
      </trkpt>
      <trkpt lat="47.54054" lon="6.85797">
        <ele>326</ele>
        <time>2016-10-23T07:35:03.000Z</time>
      </trkpt>
      <trkpt lat="47.5405" lon="6.85795">
        <ele>326</ele>
        <time>2016-10-23T07:35:04.000Z</time>
      </trkpt>
      <trkpt lat="47.54046" lon="6.85794">
        <ele>326</ele>
        <time>2016-10-23T07:35:05.000Z</time>
      </trkpt>
      <trkpt lat="47.54041" lon="6.85792">
        <ele>326</ele>
        <time>2016-10-23T07:35:06.000Z</time>
      </trkpt>
      <trkpt lat="47.54035" lon="6.85789">
        <ele>326</ele>
        <time>2016-10-23T07:35:07.000Z</time>
      </trkpt>
      <trkpt lat="47.54032" lon="6.85785">
        <ele>326</ele>
        <time>2016-10-23T07:35:08.000Z</time>
      </trkpt>
      <trkpt lat="47.54026" lon="6.85781">
        <ele>326</ele>
        <time>2016-10-23T07:35:09.000Z</time>
      </trkpt>
      <trkpt lat="47.54021" lon="6.85779">
        <ele>326</ele>
        <time>2016-10-23T07:35:10.000Z</time>
      </trkpt>
      <trkpt lat="47.54015" lon="6.85776">
        <ele>326</ele>
        <time>2016-10-23T07:35:11.000Z</time>
      </trkpt>
      <trkpt lat="47.54013" lon="6.85775">
        <ele>326</ele>
        <time>2016-10-23T07:35:12.000Z</time>
      </trkpt>
      <trkpt lat="47.54008" lon="6.85772">
        <ele>326</ele>
        <time>2016-10-23T07:35:13.000Z</time>
      </trkpt>
      <trkpt lat="47.54003" lon="6.8577">
        <ele>327</ele>
        <time>2016-10-23T07:35:14.000Z</time>
      </trkpt>
      <trkpt lat="47.53999" lon="6.85768">
        <ele>327</ele>
        <time>2016-10-23T07:35:15.000Z</time>
      </trkpt>
      <trkpt lat="47.53996" lon="6.85765">
        <ele>327</ele>
        <time>2016-10-23T07:35:16.000Z</time>
      </trkpt>
      <trkpt lat="47.53993" lon="6.85758">
        <ele>327</ele>
        <time>2016-10-23T07:35:17.000Z</time>
      </trkpt>
      <trkpt lat="47.53995" lon="6.85753">
        <ele>327</ele>
        <time>2016-10-23T07:35:18.000Z</time>
      </trkpt>
      <trkpt lat="47.53994" lon="6.85748">
        <ele>327</ele>
        <time>2016-10-23T07:35:19.000Z</time>
      </trkpt>
      <trkpt lat="47.53994" lon="6.85744">
        <ele>327</ele>
        <time>2016-10-23T07:35:20.000Z</time>
      </trkpt>
      <trkpt lat="47.53993" lon="6.85739">
        <ele>327</ele>
        <time>2016-10-23T07:35:21.000Z</time>
      </trkpt>
      <trkpt lat="47.53993" lon="6.85732">
        <ele>326</ele>
        <time>2016-10-23T07:35:22.000Z</time>
      </trkpt>
      <trkpt lat="47.53993" lon="6.85724">
        <ele>326</ele>
        <time>2016-10-23T07:35:23.000Z</time>
      </trkpt>
      <trkpt lat="47.53991" lon="6.85716">
        <ele>326</ele>
        <time>2016-10-23T07:35:24.000Z</time>
      </trkpt>
      <trkpt lat="47.53991" lon="6.85707">
        <ele>326</ele>
        <time>2016-10-23T07:35:25.000Z</time>
      </trkpt>
      <trkpt lat="47.5399" lon="6.85698">
        <ele>326</ele>
        <time>2016-10-23T07:35:26.000Z</time>
      </trkpt>
      <trkpt lat="47.5399" lon="6.85691">
        <ele>326</ele>
        <time>2016-10-23T07:35:27.000Z</time>
      </trkpt>
      <trkpt lat="47.53988" lon="6.85682">
        <ele>326</ele>
        <time>2016-10-23T07:35:28.000Z</time>
      </trkpt>
      <trkpt lat="47.53985" lon="6.85674">
        <ele>326</ele>
        <time>2016-10-23T07:35:29.000Z</time>
      </trkpt>
      <trkpt lat="47.53983" lon="6.85666">
        <ele>326</ele>
        <time>2016-10-23T07:35:30.000Z</time>
      </trkpt>
      <trkpt lat="47.53976" lon="6.85658">
        <ele>325</ele>
        <time>2016-10-23T07:35:31.000Z</time>
      </trkpt>
      <trkpt lat="47.53972" lon="6.85652">
        <ele>325</ele>
        <time>2016-10-23T07:35:32.000Z</time>
      </trkpt>
      <trkpt lat="47.53969" lon="6.85646">
        <ele>325</ele>
        <time>2016-10-23T07:35:33.000Z</time>
      </trkpt>
      <trkpt lat="47.53964" lon="6.85641">
        <ele>325</ele>
        <time>2016-10-23T07:35:34.000Z</time>
      </trkpt>
      <trkpt lat="47.53959" lon="6.85637">
        <ele>325</ele>
        <time>2016-10-23T07:35:35.000Z</time>
      </trkpt>
      <trkpt lat="47.53954" lon="6.85632">
        <ele>325</ele>
        <time>2016-10-23T07:35:36.000Z</time>
      </trkpt>
      <trkpt lat="47.53949" lon="6.85626">
        <ele>325</ele>
        <time>2016-10-23T07:35:37.000Z</time>
      </trkpt>
      <trkpt lat="47.53945" lon="6.85621">
        <ele>325</ele>
        <time>2016-10-23T07:35:38.000Z</time>
      </trkpt>
      <trkpt lat="47.53943" lon="6.85619">
        <ele>325</ele>
        <time>2016-10-23T07:35:39.000Z</time>
      </trkpt>
      <trkpt lat="47.53939" lon="6.85616">
        <ele>325</ele>
        <time>2016-10-23T07:35:40.000Z</time>
      </trkpt>
      <trkpt lat="47.53934" lon="6.85614">
        <ele>325</ele>
        <time>2016-10-23T07:35:41.000Z</time>
      </trkpt>
      <trkpt lat="47.53928" lon="6.85611">
        <ele>324</ele>
        <time>2016-10-23T07:35:42.000Z</time>
      </trkpt>
      <trkpt lat="47.53922" lon="6.85608">
        <ele>324</ele>
        <time>2016-10-23T07:35:43.000Z</time>
      </trkpt>
      <trkpt lat="47.53917" lon="6.85606">
        <ele>323</ele>
        <time>2016-10-23T07:35:44.000Z</time>
      </trkpt>
      <trkpt lat="47.53911" lon="6.85605">
        <ele>323</ele>
        <time>2016-10-23T07:35:45.000Z</time>
      </trkpt>
      <trkpt lat="47.53905" lon="6.85604">
        <ele>323</ele>
        <time>2016-10-23T07:35:46.000Z</time>
      </trkpt>
      <trkpt lat="47.539" lon="6.856">
        <ele>323</ele>
        <time>2016-10-23T07:35:47.000Z</time>
      </trkpt>
      <trkpt lat="47.53895" lon="6.85596">
        <ele>323</ele>
        <time>2016-10-23T07:35:48.000Z</time>
      </trkpt>
      <trkpt lat="47.5389" lon="6.85591">
        <ele>323</ele>
        <time>2016-10-23T07:35:49.000Z</time>
      </trkpt>
      <trkpt lat="47.53885" lon="6.85586">
        <ele>323</ele>
        <time>2016-10-23T07:35:50.000Z</time>
      </trkpt>
      <trkpt lat="47.53882" lon="6.85581">
        <ele>323</ele>
        <time>2016-10-23T07:35:51.000Z</time>
      </trkpt>
      <trkpt lat="47.5388" lon="6.85574">
        <ele>323</ele>
        <time>2016-10-23T07:35:52.000Z</time>
      </trkpt>
      <trkpt lat="47.53877" lon="6.85567">
        <ele>323</ele>
        <time>2016-10-23T07:35:53.000Z</time>
      </trkpt>
      <trkpt lat="47.53873" lon="6.85559">
        <ele>322</ele>
        <time>2016-10-23T07:35:54.000Z</time>
      </trkpt>
      <trkpt lat="47.53871" lon="6.85551">
        <ele>322</ele>
        <time>2016-10-23T07:35:55.000Z</time>
      </trkpt>
      <trkpt lat="47.53868" lon="6.85542">
        <ele>322</ele>
        <time>2016-10-23T07:35:56.000Z</time>
      </trkpt>
      <trkpt lat="47.53866" lon="6.85536">
        <ele>323</ele>
        <time>2016-10-23T07:35:57.000Z</time>
      </trkpt>
      <trkpt lat="47.53861" lon="6.8553">
        <ele>323</ele>
        <time>2016-10-23T07:35:58.000Z</time>
      </trkpt>
      <trkpt lat="47.53859" lon="6.85523">
        <ele>323</ele>
        <time>2016-10-23T07:35:59.000Z</time>
      </trkpt>
      <trkpt lat="47.53856" lon="6.85516">
        <ele>323</ele>
        <time>2016-10-23T07:36:00.000Z</time>
      </trkpt>
      <trkpt lat="47.53853" lon="6.85508">
        <ele>323</ele>
        <time>2016-10-23T07:36:01.000Z</time>
      </trkpt>
      <trkpt lat="47.53848" lon="6.85502">
        <ele>323</ele>
        <time>2016-10-23T07:36:02.000Z</time>
      </trkpt>
      <trkpt lat="47.53843" lon="6.85496">
        <ele>323</ele>
        <time>2016-10-23T07:36:03.000Z</time>
      </trkpt>
      <trkpt lat="47.53846" lon="6.85488">
        <ele>323</ele>
        <time>2016-10-23T07:36:04.000Z</time>
      </trkpt>
      <trkpt lat="47.53843" lon="6.85482">
        <ele>323</ele>
        <time>2016-10-23T07:36:05.000Z</time>
      </trkpt>
      <trkpt lat="47.53841" lon="6.85476">
        <ele>323</ele>
        <time>2016-10-23T07:36:06.000Z</time>
      </trkpt>
      <trkpt lat="47.53837" lon="6.85469">
        <ele>323</ele>
        <time>2016-10-23T07:36:07.000Z</time>
      </trkpt>
      <trkpt lat="47.53835" lon="6.85462">
        <ele>323</ele>
        <time>2016-10-23T07:36:08.000Z</time>
      </trkpt>
      <trkpt lat="47.53834" lon="6.85454">
        <ele>324</ele>
        <time>2016-10-23T07:36:09.000Z</time>
      </trkpt>
      <trkpt lat="47.53833" lon="6.85447">
        <ele>324</ele>
        <time>2016-10-23T07:36:10.000Z</time>
      </trkpt>
      <trkpt lat="47.53833" lon="6.85439">
        <ele>324</ele>
        <time>2016-10-23T07:36:11.000Z</time>
      </trkpt>
      <trkpt lat="47.53833" lon="6.85432">
        <ele>325</ele>
        <time>2016-10-23T07:36:12.000Z</time>
      </trkpt>
      <trkpt lat="47.53833" lon="6.85425">
        <ele>325</ele>
        <time>2016-10-23T07:36:13.000Z</time>
      </trkpt>
      <trkpt lat="47.53832" lon="6.8542">
        <ele>325</ele>
        <time>2016-10-23T07:36:14.000Z</time>
      </trkpt>
      <trkpt lat="47.53832" lon="6.85412">
        <ele>325</ele>
        <time>2016-10-23T07:36:15.000Z</time>
      </trkpt>
      <trkpt lat="47.53835" lon="6.85404">
        <ele>325</ele>
        <time>2016-10-23T07:36:16.000Z</time>
      </trkpt>
      <trkpt lat="47.53836" lon="6.85396">
        <ele>325</ele>
        <time>2016-10-23T07:36:17.000Z</time>
      </trkpt>
      <trkpt lat="47.53837" lon="6.8539">
        <ele>325</ele>
        <time>2016-10-23T07:36:18.000Z</time>
      </trkpt>
      <trkpt lat="47.53839" lon="6.85384">
        <ele>325</ele>
        <time>2016-10-23T07:36:19.000Z</time>
      </trkpt>
      <trkpt lat="47.5384" lon="6.85377">
        <ele>325</ele>
        <time>2016-10-23T07:36:20.000Z</time>
      </trkpt>
      <trkpt lat="47.53842" lon="6.8537">
        <ele>325</ele>
        <time>2016-10-23T07:36:21.000Z</time>
      </trkpt>
      <trkpt lat="47.53845" lon="6.85363">
        <ele>325</ele>
        <time>2016-10-23T07:36:22.000Z</time>
      </trkpt>
      <trkpt lat="47.53849" lon="6.85357">
        <ele>325</ele>
        <time>2016-10-23T07:36:23.000Z</time>
      </trkpt>
      <trkpt lat="47.53852" lon="6.85349">
        <ele>325</ele>
        <time>2016-10-23T07:36:24.000Z</time>
      </trkpt>
      <trkpt lat="47.53856" lon="6.85342">
        <ele>325</ele>
        <time>2016-10-23T07:36:25.000Z</time>
      </trkpt>
      <trkpt lat="47.5386" lon="6.85337">
        <ele>325</ele>
        <time>2016-10-23T07:36:26.000Z</time>
      </trkpt>
      <trkpt lat="47.53864" lon="6.85331">
        <ele>325</ele>
        <time>2016-10-23T07:36:27.000Z</time>
      </trkpt>
      <trkpt lat="47.53867" lon="6.85325">
        <ele>325</ele>
        <time>2016-10-23T07:36:28.000Z</time>
      </trkpt>
      <trkpt lat="47.53871" lon="6.85317">
        <ele>325</ele>
        <time>2016-10-23T07:36:29.000Z</time>
      </trkpt>
      <trkpt lat="47.53874" lon="6.8531">
        <ele>325</ele>
        <time>2016-10-23T07:36:30.000Z</time>
      </trkpt>
      <trkpt lat="47.53878" lon="6.85304">
        <ele>325</ele>
        <time>2016-10-23T07:36:31.000Z</time>
      </trkpt>
      <trkpt lat="47.53881" lon="6.85298">
        <ele>325</ele>
        <time>2016-10-23T07:36:32.000Z</time>
      </trkpt>
      <trkpt lat="47.53883" lon="6.85291">
        <ele>325</ele>
        <time>2016-10-23T07:36:33.000Z</time>
      </trkpt>
      <trkpt lat="47.53885" lon="6.85285">
        <ele>325</ele>
        <time>2016-10-23T07:36:34.000Z</time>
      </trkpt>
      <trkpt lat="47.53888" lon="6.85279">
        <ele>325</ele>
        <time>2016-10-23T07:36:35.000Z</time>
      </trkpt>
      <trkpt lat="47.53891" lon="6.85272">
        <ele>325</ele>
        <time>2016-10-23T07:36:36.000Z</time>
      </trkpt>
      <trkpt lat="47.53894" lon="6.85265">
        <ele>325</ele>
        <time>2016-10-23T07:36:37.000Z</time>
      </trkpt>
      <trkpt lat="47.53898" lon="6.85259">
        <ele>325</ele>
        <time>2016-10-23T07:36:38.000Z</time>
      </trkpt>
      <trkpt lat="47.53901" lon="6.85254">
        <ele>325</ele>
        <time>2016-10-23T07:36:39.000Z</time>
      </trkpt>
      <trkpt lat="47.53905" lon="6.85249">
        <ele>325</ele>
        <time>2016-10-23T07:36:40.000Z</time>
      </trkpt>
      <trkpt lat="47.53909" lon="6.85245">
        <ele>325</ele>
        <time>2016-10-23T07:36:41.000Z</time>
      </trkpt>
      <trkpt lat="47.53914" lon="6.85242">
        <ele>325</ele>
        <time>2016-10-23T07:36:42.000Z</time>
      </trkpt>
      <trkpt lat="47.53917" lon="6.85239">
        <ele>325</ele>
        <time>2016-10-23T07:36:43.000Z</time>
      </trkpt>
      <trkpt lat="47.53921" lon="6.85238">
        <ele>325</ele>
        <time>2016-10-23T07:36:44.000Z</time>
      </trkpt>
      <trkpt lat="47.53924" lon="6.85236">
        <ele>324</ele>
        <time>2016-10-23T07:36:45.000Z</time>
      </trkpt>
      <trkpt lat="47.53927" lon="6.85234">
        <ele>324</ele>
        <time>2016-10-23T07:36:46.000Z</time>
      </trkpt>
      <trkpt lat="47.5393" lon="6.85232">
        <ele>324</ele>
        <time>2016-10-23T07:36:47.000Z</time>
      </trkpt>
      <trkpt lat="47.53932" lon="6.85229">
        <ele>324</ele>
        <time>2016-10-23T07:36:48.000Z</time>
      </trkpt>
      <trkpt lat="47.53933" lon="6.85223">
        <ele>324</ele>
        <time>2016-10-23T07:36:50.000Z</time>
      </trkpt>
      <trkpt lat="47.53928" lon="6.85219">
        <ele>324</ele>
        <time>2016-10-23T07:36:51.000Z</time>
      </trkpt>
      <trkpt lat="47.53926" lon="6.85214">
        <ele>324</ele>
        <time>2016-10-23T07:36:52.000Z</time>
      </trkpt>
      <trkpt lat="47.53924" lon="6.85209">
        <ele>324</ele>
        <time>2016-10-23T07:36:53.000Z</time>
      </trkpt>
      <trkpt lat="47.53922" lon="6.85203">
        <ele>324</ele>
        <time>2016-10-23T07:36:54.000Z</time>
      </trkpt>
      <trkpt lat="47.5392" lon="6.85197">
        <ele>324</ele>
        <time>2016-10-23T07:36:55.000Z</time>
      </trkpt>
      <trkpt lat="47.53917" lon="6.8519">
        <ele>324</ele>
        <time>2016-10-23T07:36:56.000Z</time>
      </trkpt>
      <trkpt lat="47.53916" lon="6.85182">
        <ele>324</ele>
        <time>2016-10-23T07:36:57.000Z</time>
      </trkpt>
      <trkpt lat="47.53914" lon="6.85176">
        <ele>323</ele>
        <time>2016-10-23T07:36:58.000Z</time>
      </trkpt>
      <trkpt lat="47.53912" lon="6.85169">
        <ele>323</ele>
        <time>2016-10-23T07:36:59.000Z</time>
      </trkpt>
      <trkpt lat="47.53909" lon="6.85163">
        <ele>323</ele>
        <time>2016-10-23T07:37:00.000Z</time>
      </trkpt>
      <trkpt lat="47.53906" lon="6.85156">
        <ele>323</ele>
        <time>2016-10-23T07:37:01.000Z</time>
      </trkpt>
      <trkpt lat="47.53905" lon="6.85148">
        <ele>323</ele>
        <time>2016-10-23T07:37:02.000Z</time>
      </trkpt>
      <trkpt lat="47.53904" lon="6.8514">
        <ele>324</ele>
        <time>2016-10-23T07:37:03.000Z</time>
      </trkpt>
      <trkpt lat="47.53902" lon="6.85134">
        <ele>324</ele>
        <time>2016-10-23T07:37:04.000Z</time>
      </trkpt>
      <trkpt lat="47.539" lon="6.85125">
        <ele>324</ele>
        <time>2016-10-23T07:37:05.000Z</time>
      </trkpt>
      <trkpt lat="47.53898" lon="6.85117">
        <ele>324</ele>
        <time>2016-10-23T07:37:06.000Z</time>
      </trkpt>
      <trkpt lat="47.53895" lon="6.85109">
        <ele>324</ele>
        <time>2016-10-23T07:37:07.000Z</time>
      </trkpt>
      <trkpt lat="47.53892" lon="6.85101">
        <ele>324</ele>
        <time>2016-10-23T07:37:08.000Z</time>
      </trkpt>
      <trkpt lat="47.5389" lon="6.85093">
        <ele>324</ele>
        <time>2016-10-23T07:37:09.000Z</time>
      </trkpt>
      <trkpt lat="47.5389" lon="6.85084">
        <ele>324</ele>
        <time>2016-10-23T07:37:10.000Z</time>
      </trkpt>
      <trkpt lat="47.5389" lon="6.85075">
        <ele>324</ele>
        <time>2016-10-23T07:37:11.000Z</time>
      </trkpt>
      <trkpt lat="47.53889" lon="6.85066">
        <ele>324</ele>
        <time>2016-10-23T07:37:12.000Z</time>
      </trkpt>
      <trkpt lat="47.53889" lon="6.85059">
        <ele>324</ele>
        <time>2016-10-23T07:37:13.000Z</time>
      </trkpt>
      <trkpt lat="47.53889" lon="6.85051">
        <ele>324</ele>
        <time>2016-10-23T07:37:14.000Z</time>
      </trkpt>
      <trkpt lat="47.5389" lon="6.85042">
        <ele>324</ele>
        <time>2016-10-23T07:37:15.000Z</time>
      </trkpt>
      <trkpt lat="47.53891" lon="6.85033">
        <ele>324</ele>
        <time>2016-10-23T07:37:16.000Z</time>
      </trkpt>
      <trkpt lat="47.53892" lon="6.85024">
        <ele>324</ele>
        <time>2016-10-23T07:37:17.000Z</time>
      </trkpt>
      <trkpt lat="47.53893" lon="6.85016">
        <ele>324</ele>
        <time>2016-10-23T07:37:18.000Z</time>
      </trkpt>
      <trkpt lat="47.53895" lon="6.85009">
        <ele>324</ele>
        <time>2016-10-23T07:37:19.000Z</time>
      </trkpt>
      <trkpt lat="47.53897" lon="6.85001">
        <ele>324</ele>
        <time>2016-10-23T07:37:20.001Z</time>
      </trkpt>
      <trkpt lat="47.53898" lon="6.84992">
        <ele>326</ele>
        <time>2016-10-23T07:37:21.000Z</time>
      </trkpt>
      <trkpt lat="47.53898" lon="6.84984">
        <ele>326</ele>
        <time>2016-10-23T07:37:22.000Z</time>
      </trkpt>
      <trkpt lat="47.53898" lon="6.84976">
        <ele>326</ele>
        <time>2016-10-23T07:37:22.999Z</time>
      </trkpt>
      <trkpt lat="47.53902" lon="6.8497">
        <ele>326</ele>
        <time>2016-10-23T07:37:24.000Z</time>
      </trkpt>
      <trkpt lat="47.53903" lon="6.84963">
        <ele>327</ele>
        <time>2016-10-23T07:37:25.001Z</time>
      </trkpt>
      <trkpt lat="47.53904" lon="6.84958">
        <ele>327</ele>
        <time>2016-10-23T07:37:26.000Z</time>
      </trkpt>
      <trkpt lat="47.53905" lon="6.84955">
        <ele>327</ele>
        <time>2016-10-23T07:37:27.000Z</time>
      </trkpt>
      <trkpt lat="47.53905" lon="6.8495">
        <ele>327</ele>
        <time>2016-10-23T07:37:28.000Z</time>
      </trkpt>
      <trkpt lat="47.53905" lon="6.84946">
        <ele>327</ele>
        <time>2016-10-23T07:37:29.000Z</time>
      </trkpt>
      <trkpt lat="47.53907" lon="6.84941">
        <ele>328</ele>
        <time>2016-10-23T07:37:31.000Z</time>
      </trkpt>
      <trkpt lat="47.5391" lon="6.84938">
        <ele>328</ele>
        <time>2016-10-23T07:37:32.000Z</time>
      </trkpt>
      <trkpt lat="47.53911" lon="6.84933">
        <ele>328</ele>
        <time>2016-10-23T07:37:33.000Z</time>
      </trkpt>
      <trkpt lat="47.53913" lon="6.8493">
        <ele>329</ele>
        <time>2016-10-23T07:37:34.000Z</time>
      </trkpt>
      <trkpt lat="47.53913" lon="6.84926">
        <ele>329</ele>
        <time>2016-10-23T07:37:35.000Z</time>
      </trkpt>
      <trkpt lat="47.53914" lon="6.84922">
        <ele>329</ele>
        <time>2016-10-23T07:37:36.000Z</time>
      </trkpt>
      <trkpt lat="47.53915" lon="6.84918">
        <ele>330</ele>
        <time>2016-10-23T07:37:37.000Z</time>
      </trkpt>
      <trkpt lat="47.53916" lon="6.84915">
        <ele>330</ele>
        <time>2016-10-23T07:37:38.000Z</time>
      </trkpt>
      <trkpt lat="47.53917" lon="6.84909">
        <ele>331</ele>
        <time>2016-10-23T07:37:40.000Z</time>
      </trkpt>
      <trkpt lat="47.53918" lon="6.84904">
        <ele>331</ele>
        <time>2016-10-23T07:37:41.000Z</time>
      </trkpt>
      <trkpt lat="47.53917" lon="6.84899">
        <ele>332</ele>
        <time>2016-10-23T07:37:42.000Z</time>
      </trkpt>
      <trkpt lat="47.53915" lon="6.84894">
        <ele>330</ele>
        <time>2016-10-23T07:37:43.000Z</time>
      </trkpt>
      <trkpt lat="47.53912" lon="6.84889">
        <ele>330</ele>
        <time>2016-10-23T07:37:44.000Z</time>
      </trkpt>
      <trkpt lat="47.53905" lon="6.84884">
        <ele>330</ele>
        <time>2016-10-23T07:37:45.000Z</time>
      </trkpt>
      <trkpt lat="47.53903" lon="6.84879">
        <ele>330</ele>
        <time>2016-10-23T07:37:46.000Z</time>
      </trkpt>
      <trkpt lat="47.53901" lon="6.84872">
        <ele>330</ele>
        <time>2016-10-23T07:37:47.000Z</time>
      </trkpt>
      <trkpt lat="47.539" lon="6.84866">
        <ele>330</ele>
        <time>2016-10-23T07:37:48.000Z</time>
      </trkpt>
      <trkpt lat="47.539" lon="6.84858">
        <ele>330</ele>
        <time>2016-10-23T07:37:49.000Z</time>
      </trkpt>
      <trkpt lat="47.539" lon="6.84852">
        <ele>330</ele>
        <time>2016-10-23T07:37:50.000Z</time>
      </trkpt>
      <trkpt lat="47.53903" lon="6.84848">
        <ele>330</ele>
        <time>2016-10-23T07:37:51.000Z</time>
      </trkpt>
      <trkpt lat="47.53906" lon="6.84847">
        <ele>330</ele>
        <time>2016-10-23T07:37:52.000Z</time>
      </trkpt>
      <trkpt lat="47.53911" lon="6.84847">
        <ele>330</ele>
        <time>2016-10-23T07:37:53.000Z</time>
      </trkpt>
      <trkpt lat="47.53915" lon="6.84847">
        <ele>330</ele>
        <time>2016-10-23T07:37:54.000Z</time>
      </trkpt>
      <trkpt lat="47.53919" lon="6.84849">
        <ele>332</ele>
        <time>2016-10-23T07:37:55.000Z</time>
      </trkpt>
      <trkpt lat="47.53922" lon="6.8485">
        <ele>332</ele>
        <time>2016-10-23T07:37:56.000Z</time>
      </trkpt>
      <trkpt lat="47.53926" lon="6.84851">
        <ele>332</ele>
        <time>2016-10-23T07:37:57.000Z</time>
      </trkpt>
      <trkpt lat="47.53929" lon="6.84852">
        <ele>332</ele>
        <time>2016-10-23T07:37:58.000Z</time>
      </trkpt>
      <trkpt lat="47.53934" lon="6.84854">
        <ele>332</ele>
        <time>2016-10-23T07:37:59.000Z</time>
      </trkpt>
      <trkpt lat="47.53937" lon="6.84858">
        <ele>333</ele>
        <time>2016-10-23T07:38:00.000Z</time>
      </trkpt>
      <trkpt lat="47.53941" lon="6.8486">
        <ele>333</ele>
        <time>2016-10-23T07:38:01.000Z</time>
      </trkpt>
      <trkpt lat="47.53945" lon="6.84861">
        <ele>333</ele>
        <time>2016-10-23T07:38:02.000Z</time>
      </trkpt>
      <trkpt lat="47.53948" lon="6.84863">
        <ele>333</ele>
        <time>2016-10-23T07:38:03.000Z</time>
      </trkpt>
      <trkpt lat="47.53952" lon="6.84865">
        <ele>333</ele>
        <time>2016-10-23T07:38:04.000Z</time>
      </trkpt>
      <trkpt lat="47.53955" lon="6.84867">
        <ele>333</ele>
        <time>2016-10-23T07:38:05.000Z</time>
      </trkpt>
      <trkpt lat="47.53959" lon="6.84868">
        <ele>333</ele>
        <time>2016-10-23T07:38:06.000Z</time>
      </trkpt>
      <trkpt lat="47.53963" lon="6.84869">
        <ele>333</ele>
        <time>2016-10-23T07:38:07.000Z</time>
      </trkpt>
      <trkpt lat="47.53967" lon="6.8487">
        <ele>334</ele>
        <time>2016-10-23T07:38:08.000Z</time>
      </trkpt>
      <trkpt lat="47.5397" lon="6.8487">
        <ele>334</ele>
        <time>2016-10-23T07:38:09.000Z</time>
      </trkpt>
      <trkpt lat="47.53973" lon="6.8487">
        <ele>334</ele>
        <time>2016-10-23T07:38:10.000Z</time>
      </trkpt>
      <trkpt lat="47.53975" lon="6.8487">
        <ele>334</ele>
        <time>2016-10-23T07:38:11.000Z</time>
      </trkpt>
      <trkpt lat="47.53978" lon="6.84869">
        <ele>334</ele>
        <time>2016-10-23T07:38:12.000Z</time>
      </trkpt>
      <trkpt lat="47.53981" lon="6.84868">
        <ele>334</ele>
        <time>2016-10-23T07:38:13.000Z</time>
      </trkpt>
      <trkpt lat="47.53983" lon="6.84867">
        <ele>334</ele>
        <time>2016-10-23T07:38:14.000Z</time>
      </trkpt>
      <trkpt lat="47.53987" lon="6.84866">
        <ele>334</ele>
        <time>2016-10-23T07:38:15.000Z</time>
      </trkpt>
      <trkpt lat="47.5399" lon="6.84864">
        <ele>334</ele>
        <time>2016-10-23T07:38:16.000Z</time>
      </trkpt>
      <trkpt lat="47.53993" lon="6.84863">
        <ele>334</ele>
        <time>2016-10-23T07:38:17.000Z</time>
      </trkpt>
      <trkpt lat="47.53996" lon="6.8486">
        <ele>334</ele>
        <time>2016-10-23T07:38:18.000Z</time>
      </trkpt>
      <trkpt lat="47.53999" lon="6.84858">
        <ele>335</ele>
        <time>2016-10-23T07:38:19.000Z</time>
      </trkpt>
      <trkpt lat="47.54001" lon="6.84856">
        <ele>337</ele>
        <time>2016-10-23T07:38:20.000Z</time>
      </trkpt>
      <trkpt lat="47.54004" lon="6.84854">
        <ele>337</ele>
        <time>2016-10-23T07:38:21.000Z</time>
      </trkpt>
      <trkpt lat="47.54006" lon="6.84852">
        <ele>337</ele>
        <time>2016-10-23T07:38:22.001Z</time>
      </trkpt>
      <trkpt lat="47.54008" lon="6.84851">
        <ele>337</ele>
        <time>2016-10-23T07:38:23.000Z</time>
      </trkpt>
      <trkpt lat="47.5401" lon="6.84849">
        <ele>337</ele>
        <time>2016-10-23T07:38:24.000Z</time>
      </trkpt>
      <trkpt lat="47.54013" lon="6.84847">
        <ele>337</ele>
        <time>2016-10-23T07:38:25.000Z</time>
      </trkpt>
      <trkpt lat="47.54016" lon="6.84844">
        <ele>337</ele>
        <time>2016-10-23T07:38:26.000Z</time>
      </trkpt>
      <trkpt lat="47.54019" lon="6.84842">
        <ele>337</ele>
        <time>2016-10-23T07:38:27.000Z</time>
      </trkpt>
      <trkpt lat="47.54022" lon="6.8484">
        <ele>337</ele>
        <time>2016-10-23T07:38:28.000Z</time>
      </trkpt>
      <trkpt lat="47.54025" lon="6.84837">
        <ele>338</ele>
        <time>2016-10-23T07:38:29.000Z</time>
      </trkpt>
      <trkpt lat="47.54028" lon="6.84835">
        <ele>338</ele>
        <time>2016-10-23T07:38:30.000Z</time>
      </trkpt>
      <trkpt lat="47.5403" lon="6.84832">
        <ele>339</ele>
        <time>2016-10-23T07:38:31.000Z</time>
      </trkpt>
      <trkpt lat="47.54033" lon="6.84829">
        <ele>339</ele>
        <time>2016-10-23T07:38:32.000Z</time>
      </trkpt>
      <trkpt lat="47.54035" lon="6.84827">
        <ele>339</ele>
        <time>2016-10-23T07:38:33.000Z</time>
      </trkpt>
      <trkpt lat="47.54038" lon="6.84824">
        <ele>339</ele>
        <time>2016-10-23T07:38:34.000Z</time>
      </trkpt>
      <trkpt lat="47.54041" lon="6.84822">
        <ele>339</ele>
        <time>2016-10-23T07:38:35.000Z</time>
      </trkpt>
      <trkpt lat="47.54044" lon="6.8482">
        <ele>339</ele>
        <time>2016-10-23T07:38:36.000Z</time>
      </trkpt>
      <trkpt lat="47.54047" lon="6.84817">
        <ele>339</ele>
        <time>2016-10-23T07:38:37.000Z</time>
      </trkpt>
      <trkpt lat="47.5405" lon="6.84816">
        <ele>340</ele>
        <time>2016-10-23T07:38:38.000Z</time>
      </trkpt>
      <trkpt lat="47.54053" lon="6.84815">
        <ele>340</ele>
        <time>2016-10-23T07:38:39.000Z</time>
      </trkpt>
      <trkpt lat="47.54056" lon="6.84814">
        <ele>340</ele>
        <time>2016-10-23T07:38:40.000Z</time>
      </trkpt>
      <trkpt lat="47.54059" lon="6.84814">
        <ele>340</ele>
        <time>2016-10-23T07:38:41.000Z</time>
      </trkpt>
      <trkpt lat="47.54061" lon="6.84813">
        <ele>340</ele>
        <time>2016-10-23T07:38:42.000Z</time>
      </trkpt>
      <trkpt lat="47.54064" lon="6.84813">
        <ele>340</ele>
        <time>2016-10-23T07:38:43.000Z</time>
      </trkpt>
      <trkpt lat="47.54067" lon="6.84811">
        <ele>340</ele>
        <time>2016-10-23T07:38:44.000Z</time>
      </trkpt>
      <trkpt lat="47.5407" lon="6.8481">
        <ele>340</ele>
        <time>2016-10-23T07:38:45.000Z</time>
      </trkpt>
      <trkpt lat="47.54073" lon="6.84809">
        <ele>340</ele>
        <time>2016-10-23T07:38:46.000Z</time>
      </trkpt>
      <trkpt lat="47.54076" lon="6.84808">
        <ele>340</ele>
        <time>2016-10-23T07:38:47.000Z</time>
      </trkpt>
      <trkpt lat="47.54079" lon="6.84807">
        <ele>340</ele>
        <time>2016-10-23T07:38:48.000Z</time>
      </trkpt>
      <trkpt lat="47.54082" lon="6.84807">
        <ele>340</ele>
        <time>2016-10-23T07:38:49.000Z</time>
      </trkpt>
      <trkpt lat="47.54085" lon="6.84805">
        <ele>344</ele>
        <time>2016-10-23T07:38:50.000Z</time>
      </trkpt>
      <trkpt lat="47.54088" lon="6.84804">
        <ele>344</ele>
        <time>2016-10-23T07:38:51.000Z</time>
      </trkpt>
      <trkpt lat="47.54091" lon="6.84803">
        <ele>344</ele>
        <time>2016-10-23T07:38:52.000Z</time>
      </trkpt>
      <trkpt lat="47.54094" lon="6.84803">
        <ele>344</ele>
        <time>2016-10-23T07:38:53.000Z</time>
      </trkpt>
      <trkpt lat="47.54097" lon="6.84802">
        <ele>344</ele>
        <time>2016-10-23T07:38:54.000Z</time>
      </trkpt>
      <trkpt lat="47.54099" lon="6.84801">
        <ele>344</ele>
        <time>2016-10-23T07:38:55.000Z</time>
      </trkpt>
      <trkpt lat="47.54102" lon="6.848">
        <ele>344</ele>
        <time>2016-10-23T07:38:56.000Z</time>
      </trkpt>
      <trkpt lat="47.54106" lon="6.84798">
        <ele>344</ele>
        <time>2016-10-23T07:38:57.000Z</time>
      </trkpt>
      <trkpt lat="47.54109" lon="6.84797">
        <ele>344</ele>
        <time>2016-10-23T07:38:58.000Z</time>
      </trkpt>
      <trkpt lat="47.54112" lon="6.84796">
        <ele>345</ele>
        <time>2016-10-23T07:38:59.000Z</time>
      </trkpt>
      <trkpt lat="47.54115" lon="6.84795">
        <ele>345</ele>
        <time>2016-10-23T07:39:00.000Z</time>
      </trkpt>
      <trkpt lat="47.54117" lon="6.84794">
        <ele>345</ele>
        <time>2016-10-23T07:39:01.000Z</time>
      </trkpt>
      <trkpt lat="47.5412" lon="6.84793">
        <ele>345</ele>
        <time>2016-10-23T07:39:02.000Z</time>
      </trkpt>
      <trkpt lat="47.54123" lon="6.84794">
        <ele>345</ele>
        <time>2016-10-23T07:39:03.000Z</time>
      </trkpt>
      <trkpt lat="47.54126" lon="6.84794">
        <ele>345</ele>
        <time>2016-10-23T07:39:04.000Z</time>
      </trkpt>
      <trkpt lat="47.54129" lon="6.84795">
        <ele>345</ele>
        <time>2016-10-23T07:39:05.000Z</time>
      </trkpt>
      <trkpt lat="47.54132" lon="6.84795">
        <ele>345</ele>
        <time>2016-10-23T07:39:06.000Z</time>
      </trkpt>
      <trkpt lat="47.54135" lon="6.84796">
        <ele>345</ele>
        <time>2016-10-23T07:39:07.000Z</time>
      </trkpt>
      <trkpt lat="47.54138" lon="6.84796">
        <ele>345</ele>
        <time>2016-10-23T07:39:08.000Z</time>
      </trkpt>
      <trkpt lat="47.54142" lon="6.84797">
        <ele>345</ele>
        <time>2016-10-23T07:39:09.000Z</time>
      </trkpt>
      <trkpt lat="47.54145" lon="6.84798">
        <ele>346</ele>
        <time>2016-10-23T07:39:10.000Z</time>
      </trkpt>
      <trkpt lat="47.54148" lon="6.84799">
        <ele>346</ele>
        <time>2016-10-23T07:39:11.000Z</time>
      </trkpt>
      <trkpt lat="47.54151" lon="6.848">
        <ele>346</ele>
        <time>2016-10-23T07:39:11.999Z</time>
      </trkpt>
      <trkpt lat="47.54155" lon="6.84802">
        <ele>346</ele>
        <time>2016-10-23T07:39:13.001Z</time>
      </trkpt>
      <trkpt lat="47.54158" lon="6.84803">
        <ele>346</ele>
        <time>2016-10-23T07:39:14.000Z</time>
      </trkpt>
      <trkpt lat="47.54161" lon="6.84805">
        <ele>346</ele>
        <time>2016-10-23T07:39:15.000Z</time>
      </trkpt>
      <trkpt lat="47.54164" lon="6.84806">
        <ele>346</ele>
        <time>2016-10-23T07:39:16.000Z</time>
      </trkpt>
      <trkpt lat="47.54166" lon="6.84806">
        <ele>346</ele>
        <time>2016-10-23T07:39:17.000Z</time>
      </trkpt>
      <trkpt lat="47.54169" lon="6.84806">
        <ele>348</ele>
        <time>2016-10-23T07:39:18.000Z</time>
      </trkpt>
      <trkpt lat="47.54172" lon="6.84806">
        <ele>348</ele>
        <time>2016-10-23T07:39:19.000Z</time>
      </trkpt>
      <trkpt lat="47.54175" lon="6.84805">
        <ele>348</ele>
        <time>2016-10-23T07:39:20.000Z</time>
      </trkpt>
      <trkpt lat="47.54178" lon="6.84805">
        <ele>348</ele>
        <time>2016-10-23T07:39:21.000Z</time>
      </trkpt>
      <trkpt lat="47.54182" lon="6.84804">
        <ele>348</ele>
        <time>2016-10-23T07:39:22.000Z</time>
      </trkpt>
      <trkpt lat="47.54186" lon="6.84803">
        <ele>348</ele>
        <time>2016-10-23T07:39:23.000Z</time>
      </trkpt>
      <trkpt lat="47.54189" lon="6.84803">
        <ele>348</ele>
        <time>2016-10-23T07:39:24.000Z</time>
      </trkpt>
      <trkpt lat="47.54193" lon="6.84803">
        <ele>348</ele>
        <time>2016-10-23T07:39:25.000Z</time>
      </trkpt>
      <trkpt lat="47.54197" lon="6.84803">
        <ele>348</ele>
        <time>2016-10-23T07:39:26.000Z</time>
      </trkpt>
      <trkpt lat="47.542" lon="6.84803">
        <ele>348</ele>
        <time>2016-10-23T07:39:27.000Z</time>
      </trkpt>
      <trkpt lat="47.54204" lon="6.84804">
        <ele>348</ele>
        <time>2016-10-23T07:39:28.000Z</time>
      </trkpt>
      <trkpt lat="47.54208" lon="6.84804">
        <ele>348</ele>
        <time>2016-10-23T07:39:29.000Z</time>
      </trkpt>
      <trkpt lat="47.54211" lon="6.84805">
        <ele>348</ele>
        <time>2016-10-23T07:39:30.000Z</time>
      </trkpt>
      <trkpt lat="47.54215" lon="6.84805">
        <ele>348</ele>
        <time>2016-10-23T07:39:31.000Z</time>
      </trkpt>
      <trkpt lat="47.54218" lon="6.84805">
        <ele>348</ele>
        <time>2016-10-23T07:39:32.000Z</time>
      </trkpt>
      <trkpt lat="47.54222" lon="6.84805">
        <ele>348</ele>
        <time>2016-10-23T07:39:33.000Z</time>
      </trkpt>
      <trkpt lat="47.54226" lon="6.84804">
        <ele>348</ele>
        <time>2016-10-23T07:39:34.000Z</time>
      </trkpt>
      <trkpt lat="47.5423" lon="6.84803">
        <ele>348</ele>
        <time>2016-10-23T07:39:35.000Z</time>
      </trkpt>
      <trkpt lat="47.54234" lon="6.84803">
        <ele>348</ele>
        <time>2016-10-23T07:39:36.000Z</time>
      </trkpt>
      <trkpt lat="47.54237" lon="6.84802">
        <ele>348</ele>
        <time>2016-10-23T07:39:37.000Z</time>
      </trkpt>
      <trkpt lat="47.54241" lon="6.84802">
        <ele>348</ele>
        <time>2016-10-23T07:39:38.000Z</time>
      </trkpt>
      <trkpt lat="47.54245" lon="6.84802">
        <ele>348</ele>
        <time>2016-10-23T07:39:39.000Z</time>
      </trkpt>
      <trkpt lat="47.54249" lon="6.84802">
        <ele>348</ele>
        <time>2016-10-23T07:39:40.000Z</time>
      </trkpt>
      <trkpt lat="47.54253" lon="6.84802">
        <ele>348</ele>
        <time>2016-10-23T07:39:41.000Z</time>
      </trkpt>
      <trkpt lat="47.54256" lon="6.84803">
        <ele>348</ele>
        <time>2016-10-23T07:39:42.000Z</time>
      </trkpt>
      <trkpt lat="47.5426" lon="6.84803">
        <ele>348</ele>
        <time>2016-10-23T07:39:43.000Z</time>
      </trkpt>
      <trkpt lat="47.54264" lon="6.84803">
        <ele>348</ele>
        <time>2016-10-23T07:39:44.000Z</time>
      </trkpt>
      <trkpt lat="47.54268" lon="6.84803">
        <ele>348</ele>
        <time>2016-10-23T07:39:45.000Z</time>
      </trkpt>
      <trkpt lat="47.54272" lon="6.84803">
        <ele>348</ele>
        <time>2016-10-23T07:39:46.000Z</time>
      </trkpt>
      <trkpt lat="47.54276" lon="6.84803">
        <ele>348</ele>
        <time>2016-10-23T07:39:47.000Z</time>
      </trkpt>
      <trkpt lat="47.5428" lon="6.84803">
        <ele>348</ele>
        <time>2016-10-23T07:39:48.000Z</time>
      </trkpt>
      <trkpt lat="47.54284" lon="6.84803">
        <ele>348</ele>
        <time>2016-10-23T07:39:49.000Z</time>
      </trkpt>
      <trkpt lat="47.54288" lon="6.84802">
        <ele>348</ele>
        <time>2016-10-23T07:39:50.000Z</time>
      </trkpt>
      <trkpt lat="47.54293" lon="6.84802">
        <ele>348</ele>
        <time>2016-10-23T07:39:51.000Z</time>
      </trkpt>
      <trkpt lat="47.54297" lon="6.84801">
        <ele>348</ele>
        <time>2016-10-23T07:39:52.000Z</time>
      </trkpt>
      <trkpt lat="47.54302" lon="6.84801">
        <ele>348</ele>
        <time>2016-10-23T07:39:53.000Z</time>
      </trkpt>
      <trkpt lat="47.54306" lon="6.84803">
        <ele>348</ele>
        <time>2016-10-23T07:39:54.000Z</time>
      </trkpt>
      <trkpt lat="47.54311" lon="6.84803">
        <ele>348</ele>
        <time>2016-10-23T07:39:55.000Z</time>
      </trkpt>
      <trkpt lat="47.54316" lon="6.84802">
        <ele>348</ele>
        <time>2016-10-23T07:39:56.000Z</time>
      </trkpt>
      <trkpt lat="47.54319" lon="6.84802">
        <ele>348</ele>
        <time>2016-10-23T07:39:57.000Z</time>
      </trkpt>
      <trkpt lat="47.54324" lon="6.84801">
        <ele>348</ele>
        <time>2016-10-23T07:39:58.000Z</time>
      </trkpt>
      <trkpt lat="47.54328" lon="6.84801">
        <ele>348</ele>
        <time>2016-10-23T07:39:59.000Z</time>
      </trkpt>
      <trkpt lat="47.54333" lon="6.848">
        <ele>349</ele>
        <time>2016-10-23T07:40:00.000Z</time>
      </trkpt>
      <trkpt lat="47.54337" lon="6.848">
        <ele>349</ele>
        <time>2016-10-23T07:40:01.000Z</time>
      </trkpt>
      <trkpt lat="47.54342" lon="6.84799">
        <ele>349</ele>
        <time>2016-10-23T07:40:02.000Z</time>
      </trkpt>
      <trkpt lat="47.54346" lon="6.84799">
        <ele>349</ele>
        <time>2016-10-23T07:40:03.000Z</time>
      </trkpt>
      <trkpt lat="47.5435" lon="6.84799">
        <ele>349</ele>
        <time>2016-10-23T07:40:04.000Z</time>
      </trkpt>
      <trkpt lat="47.54355" lon="6.84799">
        <ele>349</ele>
        <time>2016-10-23T07:40:05.000Z</time>
      </trkpt>
      <trkpt lat="47.5436" lon="6.84797">
        <ele>349</ele>
        <time>2016-10-23T07:40:06.000Z</time>
      </trkpt>
      <trkpt lat="47.54364" lon="6.84796">
        <ele>349</ele>
        <time>2016-10-23T07:40:07.000Z</time>
      </trkpt>
      <trkpt lat="47.54369" lon="6.84795">
        <ele>349</ele>
        <time>2016-10-23T07:40:08.000Z</time>
      </trkpt>
      <trkpt lat="47.54373" lon="6.84795">
        <ele>349</ele>
        <time>2016-10-23T07:40:09.000Z</time>
      </trkpt>
      <trkpt lat="47.54377" lon="6.84794">
        <ele>349</ele>
        <time>2016-10-23T07:40:10.000Z</time>
      </trkpt>
      <trkpt lat="47.54382" lon="6.84794">
        <ele>349</ele>
        <time>2016-10-23T07:40:11.000Z</time>
      </trkpt>
      <trkpt lat="47.54386" lon="6.84791">
        <ele>349</ele>
        <time>2016-10-23T07:40:12.000Z</time>
      </trkpt>
      <trkpt lat="47.54391" lon="6.8479">
        <ele>349</ele>
        <time>2016-10-23T07:40:13.000Z</time>
      </trkpt>
      <trkpt lat="47.54397" lon="6.84788">
        <ele>349</ele>
        <time>2016-10-23T07:40:14.000Z</time>
      </trkpt>
      <trkpt lat="47.54401" lon="6.84787">
        <ele>349</ele>
        <time>2016-10-23T07:40:15.000Z</time>
      </trkpt>
      <trkpt lat="47.54405" lon="6.84787">
        <ele>349</ele>
        <time>2016-10-23T07:40:16.000Z</time>
      </trkpt>
      <trkpt lat="47.5441" lon="6.84788">
        <ele>349</ele>
        <time>2016-10-23T07:40:17.000Z</time>
      </trkpt>
      <trkpt lat="47.54415" lon="6.84788">
        <ele>349</ele>
        <time>2016-10-23T07:40:18.000Z</time>
      </trkpt>
      <trkpt lat="47.54419" lon="6.84786">
        <ele>350</ele>
        <time>2016-10-23T07:40:19.000Z</time>
      </trkpt>
      <trkpt lat="47.54424" lon="6.84785">
        <ele>350</ele>
        <time>2016-10-23T07:40:20.000Z</time>
      </trkpt>
      <trkpt lat="47.54429" lon="6.84784">
        <ele>350</ele>
        <time>2016-10-23T07:40:21.000Z</time>
      </trkpt>
      <trkpt lat="47.54434" lon="6.84784">
        <ele>350</ele>
        <time>2016-10-23T07:40:22.000Z</time>
      </trkpt>
      <trkpt lat="47.54438" lon="6.84783">
        <ele>350</ele>
        <time>2016-10-23T07:40:23.000Z</time>
      </trkpt>
      <trkpt lat="47.54442" lon="6.84783">
        <ele>350</ele>
        <time>2016-10-23T07:40:24.000Z</time>
      </trkpt>
      <trkpt lat="47.54447" lon="6.84784">
        <ele>351</ele>
        <time>2016-10-23T07:40:25.000Z</time>
      </trkpt>
      <trkpt lat="47.54452" lon="6.84784">
        <ele>351</ele>
        <time>2016-10-23T07:40:26.000Z</time>
      </trkpt>
      <trkpt lat="47.54455" lon="6.84783">
        <ele>351</ele>
        <time>2016-10-23T07:40:27.000Z</time>
      </trkpt>
      <trkpt lat="47.5446" lon="6.84782">
        <ele>351</ele>
        <time>2016-10-23T07:40:28.000Z</time>
      </trkpt>
      <trkpt lat="47.54464" lon="6.84781">
        <ele>351</ele>
        <time>2016-10-23T07:40:29.000Z</time>
      </trkpt>
      <trkpt lat="47.54469" lon="6.84779">
        <ele>351</ele>
        <time>2016-10-23T07:40:30.000Z</time>
      </trkpt>
      <trkpt lat="47.54473" lon="6.84777">
        <ele>351</ele>
        <time>2016-10-23T07:40:31.000Z</time>
      </trkpt>
      <trkpt lat="47.54477" lon="6.84777">
        <ele>351</ele>
        <time>2016-10-23T07:40:32.000Z</time>
      </trkpt>
      <trkpt lat="47.54481" lon="6.84777">
        <ele>351</ele>
        <time>2016-10-23T07:40:33.000Z</time>
      </trkpt>
      <trkpt lat="47.54485" lon="6.84777">
        <ele>351</ele>
        <time>2016-10-23T07:40:33.999Z</time>
      </trkpt>
      <trkpt lat="47.54489" lon="6.84774">
        <ele>351</ele>
        <time>2016-10-23T07:40:35.000Z</time>
      </trkpt>
      <trkpt lat="47.54494" lon="6.84772">
        <ele>351</ele>
        <time>2016-10-23T07:40:36.000Z</time>
      </trkpt>
      <trkpt lat="47.54497" lon="6.84772">
        <ele>352</ele>
        <time>2016-10-23T07:40:37.000Z</time>
      </trkpt>
      <trkpt lat="47.54501" lon="6.8477">
        <ele>352</ele>
        <time>2016-10-23T07:40:38.000Z</time>
      </trkpt>
      <trkpt lat="47.54506" lon="6.8477">
        <ele>352</ele>
        <time>2016-10-23T07:40:39.000Z</time>
      </trkpt>
      <trkpt lat="47.5451" lon="6.84769">
        <ele>352</ele>
        <time>2016-10-23T07:40:40.000Z</time>
      </trkpt>
      <trkpt lat="47.54515" lon="6.84768">
        <ele>352</ele>
        <time>2016-10-23T07:40:40.999Z</time>
      </trkpt>
      <trkpt lat="47.54518" lon="6.84769">
        <ele>352</ele>
        <time>2016-10-23T07:40:42.000Z</time>
      </trkpt>
      <trkpt lat="47.54522" lon="6.84769">
        <ele>352</ele>
        <time>2016-10-23T07:40:43.000Z</time>
      </trkpt>
      <trkpt lat="47.54526" lon="6.84768">
        <ele>352</ele>
        <time>2016-10-23T07:40:44.000Z</time>
      </trkpt>
      <trkpt lat="47.54529" lon="6.84768">
        <ele>352</ele>
        <time>2016-10-23T07:40:45.000Z</time>
      </trkpt>
      <trkpt lat="47.54533" lon="6.84768">
        <ele>353</ele>
        <time>2016-10-23T07:40:45.998Z</time>
      </trkpt>
      <trkpt lat="47.54537" lon="6.84768">
        <ele>353</ele>
        <time>2016-10-23T07:40:47.000Z</time>
      </trkpt>
      <trkpt lat="47.54542" lon="6.84767">
        <ele>353</ele>
        <time>2016-10-23T07:40:48.000Z</time>
      </trkpt>
      <trkpt lat="47.54546" lon="6.84766">
        <ele>353</ele>
        <time>2016-10-23T07:40:49.000Z</time>
      </trkpt>
      <trkpt lat="47.54552" lon="6.84765">
        <ele>353</ele>
        <time>2016-10-23T07:40:50.000Z</time>
      </trkpt>
      <trkpt lat="47.54556" lon="6.84766">
        <ele>353</ele>
        <time>2016-10-23T07:40:51.000Z</time>
      </trkpt>
      <trkpt lat="47.5456" lon="6.84768">
        <ele>353</ele>
        <time>2016-10-23T07:40:52.000Z</time>
      </trkpt>
      <trkpt lat="47.54565" lon="6.84767">
        <ele>353</ele>
        <time>2016-10-23T07:40:53.000Z</time>
      </trkpt>
      <trkpt lat="47.5457" lon="6.84766">
        <ele>353</ele>
        <time>2016-10-23T07:40:54.000Z</time>
      </trkpt>
      <trkpt lat="47.54574" lon="6.84764">
        <ele>353</ele>
        <time>2016-10-23T07:40:55.000Z</time>
      </trkpt>
      <trkpt lat="47.54579" lon="6.84764">
        <ele>353</ele>
        <time>2016-10-23T07:40:56.000Z</time>
      </trkpt>
      <trkpt lat="47.54584" lon="6.84763">
        <ele>353</ele>
        <time>2016-10-23T07:40:57.000Z</time>
      </trkpt>
      <trkpt lat="47.54588" lon="6.8476">
        <ele>353</ele>
        <time>2016-10-23T07:40:58.000Z</time>
      </trkpt>
      <trkpt lat="47.54593" lon="6.84759">
        <ele>353</ele>
        <time>2016-10-23T07:40:59.000Z</time>
      </trkpt>
      <trkpt lat="47.54598" lon="6.84759">
        <ele>353</ele>
        <time>2016-10-23T07:41:00.000Z</time>
      </trkpt>
      <trkpt lat="47.54603" lon="6.84758">
        <ele>353</ele>
        <time>2016-10-23T07:41:01.000Z</time>
      </trkpt>
      <trkpt lat="47.54608" lon="6.84758">
        <ele>353</ele>
        <time>2016-10-23T07:41:02.000Z</time>
      </trkpt>
      <trkpt lat="47.54614" lon="6.84756">
        <ele>352</ele>
        <time>2016-10-23T07:41:03.000Z</time>
      </trkpt>
      <trkpt lat="47.54618" lon="6.84756">
        <ele>352</ele>
        <time>2016-10-23T07:41:04.000Z</time>
      </trkpt>
      <trkpt lat="47.54624" lon="6.84755">
        <ele>352</ele>
        <time>2016-10-23T07:41:05.000Z</time>
      </trkpt>
      <trkpt lat="47.54629" lon="6.84756">
        <ele>352</ele>
        <time>2016-10-23T07:41:06.000Z</time>
      </trkpt>
      <trkpt lat="47.54635" lon="6.84757">
        <ele>352</ele>
        <time>2016-10-23T07:41:07.000Z</time>
      </trkpt>
      <trkpt lat="47.5464" lon="6.84757">
        <ele>352</ele>
        <time>2016-10-23T07:41:08.000Z</time>
      </trkpt>
      <trkpt lat="47.54645" lon="6.84759">
        <ele>352</ele>
        <time>2016-10-23T07:41:09.000Z</time>
      </trkpt>
      <trkpt lat="47.5465" lon="6.8476">
        <ele>352</ele>
        <time>2016-10-23T07:41:10.000Z</time>
      </trkpt>
      <trkpt lat="47.54656" lon="6.84761">
        <ele>352</ele>
        <time>2016-10-23T07:41:11.000Z</time>
      </trkpt>
      <trkpt lat="47.54661" lon="6.84761">
        <ele>351</ele>
        <time>2016-10-23T07:41:12.000Z</time>
      </trkpt>
      <trkpt lat="47.54667" lon="6.8476">
        <ele>351</ele>
        <time>2016-10-23T07:41:13.000Z</time>
      </trkpt>
      <trkpt lat="47.54672" lon="6.8476">
        <ele>351</ele>
        <time>2016-10-23T07:41:14.000Z</time>
      </trkpt>
      <trkpt lat="47.54677" lon="6.84759">
        <ele>351</ele>
        <time>2016-10-23T07:41:15.000Z</time>
      </trkpt>
      <trkpt lat="47.54683" lon="6.84757">
        <ele>351</ele>
        <time>2016-10-23T07:41:16.000Z</time>
      </trkpt>
      <trkpt lat="47.54689" lon="6.84756">
        <ele>351</ele>
        <time>2016-10-23T07:41:17.000Z</time>
      </trkpt>
      <trkpt lat="47.54694" lon="6.84755">
        <ele>351</ele>
        <time>2016-10-23T07:41:18.000Z</time>
      </trkpt>
      <trkpt lat="47.547" lon="6.84753">
        <ele>351</ele>
        <time>2016-10-23T07:41:19.000Z</time>
      </trkpt>
      <trkpt lat="47.54705" lon="6.84755">
        <ele>351</ele>
        <time>2016-10-23T07:41:20.000Z</time>
      </trkpt>
      <trkpt lat="47.54711" lon="6.84754">
        <ele>351</ele>
        <time>2016-10-23T07:41:21.000Z</time>
      </trkpt>
      <trkpt lat="47.54717" lon="6.84755">
        <ele>351</ele>
        <time>2016-10-23T07:41:22.000Z</time>
      </trkpt>
      <trkpt lat="47.54722" lon="6.84756">
        <ele>351</ele>
        <time>2016-10-23T07:41:23.000Z</time>
      </trkpt>
      <trkpt lat="47.54728" lon="6.84756">
        <ele>352</ele>
        <time>2016-10-23T07:41:24.000Z</time>
      </trkpt>
      <trkpt lat="47.54733" lon="6.84755">
        <ele>352</ele>
        <time>2016-10-23T07:41:25.000Z</time>
      </trkpt>
      <trkpt lat="47.54739" lon="6.84753">
        <ele>352</ele>
        <time>2016-10-23T07:41:26.000Z</time>
      </trkpt>
      <trkpt lat="47.54744" lon="6.84751">
        <ele>352</ele>
        <time>2016-10-23T07:41:27.000Z</time>
      </trkpt>
      <trkpt lat="47.5475" lon="6.84751">
        <ele>352</ele>
        <time>2016-10-23T07:41:28.000Z</time>
      </trkpt>
      <trkpt lat="47.54755" lon="6.84751">
        <ele>352</ele>
        <time>2016-10-23T07:41:29.000Z</time>
      </trkpt>
      <trkpt lat="47.54761" lon="6.84751">
        <ele>352</ele>
        <time>2016-10-23T07:41:30.000Z</time>
      </trkpt>
      <trkpt lat="47.54766" lon="6.84752">
        <ele>352</ele>
        <time>2016-10-23T07:41:31.000Z</time>
      </trkpt>
      <trkpt lat="47.5477" lon="6.84751">
        <ele>352</ele>
        <time>2016-10-23T07:41:32.000Z</time>
      </trkpt>
      <trkpt lat="47.54775" lon="6.84753">
        <ele>353</ele>
        <time>2016-10-23T07:41:33.000Z</time>
      </trkpt>
      <trkpt lat="47.54779" lon="6.84754">
        <ele>353</ele>
        <time>2016-10-23T07:41:34.000Z</time>
      </trkpt>
      <trkpt lat="47.54784" lon="6.84752">
        <ele>353</ele>
        <time>2016-10-23T07:41:35.000Z</time>
      </trkpt>
      <trkpt lat="47.54789" lon="6.84749">
        <ele>353</ele>
        <time>2016-10-23T07:41:36.000Z</time>
      </trkpt>
      <trkpt lat="47.54793" lon="6.84749">
        <ele>353</ele>
        <time>2016-10-23T07:41:37.000Z</time>
      </trkpt>
      <trkpt lat="47.54799" lon="6.84748">
        <ele>353</ele>
        <time>2016-10-23T07:41:38.000Z</time>
      </trkpt>
      <trkpt lat="47.54804" lon="6.84747">
        <ele>353</ele>
        <time>2016-10-23T07:41:39.000Z</time>
      </trkpt>
      <trkpt lat="47.54808" lon="6.84748">
        <ele>353</ele>
        <time>2016-10-23T07:41:40.000Z</time>
      </trkpt>
      <trkpt lat="47.54814" lon="6.84744">
        <ele>353</ele>
        <time>2016-10-23T07:41:41.000Z</time>
      </trkpt>
      <trkpt lat="47.54819" lon="6.84743">
        <ele>353</ele>
        <time>2016-10-23T07:41:41.998Z</time>
      </trkpt>
      <trkpt lat="47.54824" lon="6.84741">
        <ele>353</ele>
        <time>2016-10-23T07:41:43.000Z</time>
      </trkpt>
      <trkpt lat="47.54828" lon="6.84739">
        <ele>353</ele>
        <time>2016-10-23T07:41:44.000Z</time>
      </trkpt>
      <trkpt lat="47.54837" lon="6.84736">
        <ele>354</ele>
        <time>2016-10-23T07:41:46.000Z</time>
      </trkpt>
      <trkpt lat="47.54842" lon="6.84736">
        <ele>354</ele>
        <time>2016-10-23T07:41:47.000Z</time>
      </trkpt>
      <trkpt lat="47.54846" lon="6.84736">
        <ele>354</ele>
        <time>2016-10-23T07:41:48.000Z</time>
      </trkpt>
      <trkpt lat="47.54851" lon="6.84734">
        <ele>354</ele>
        <time>2016-10-23T07:41:49.000Z</time>
      </trkpt>
      <trkpt lat="47.54857" lon="6.84732">
        <ele>355</ele>
        <time>2016-10-23T07:41:50.000Z</time>
      </trkpt>
      <trkpt lat="47.5486" lon="6.84731">
        <ele>355</ele>
        <time>2016-10-23T07:41:51.000Z</time>
      </trkpt>
      <trkpt lat="47.54865" lon="6.84729">
        <ele>355</ele>
        <time>2016-10-23T07:41:52.000Z</time>
      </trkpt>
      <trkpt lat="47.54871" lon="6.84727">
        <ele>355</ele>
        <time>2016-10-23T07:41:53.000Z</time>
      </trkpt>
      <trkpt lat="47.54876" lon="6.84725">
        <ele>355</ele>
        <time>2016-10-23T07:41:54.000Z</time>
      </trkpt>
      <trkpt lat="47.5488" lon="6.84724">
        <ele>355</ele>
        <time>2016-10-23T07:41:55.000Z</time>
      </trkpt>
      <trkpt lat="47.54886" lon="6.84721">
        <ele>355</ele>
        <time>2016-10-23T07:41:56.000Z</time>
      </trkpt>
      <trkpt lat="47.54891" lon="6.8472">
        <ele>355</ele>
        <time>2016-10-23T07:41:57.000Z</time>
      </trkpt>
      <trkpt lat="47.54895" lon="6.84718">
        <ele>355</ele>
        <time>2016-10-23T07:41:58.000Z</time>
      </trkpt>
      <trkpt lat="47.54899" lon="6.84717">
        <ele>355</ele>
        <time>2016-10-23T07:41:59.000Z</time>
      </trkpt>
      <trkpt lat="47.54905" lon="6.84717">
        <ele>355</ele>
        <time>2016-10-23T07:42:00.001Z</time>
      </trkpt>
      <trkpt lat="47.5491" lon="6.84715">
        <ele>355</ele>
        <time>2016-10-23T07:42:01.000Z</time>
      </trkpt>
      <trkpt lat="47.54914" lon="6.84714">
        <ele>355</ele>
        <time>2016-10-23T07:42:02.000Z</time>
      </trkpt>
      <trkpt lat="47.54918" lon="6.84713">
        <ele>356</ele>
        <time>2016-10-23T07:42:03.000Z</time>
      </trkpt>
      <trkpt lat="47.54922" lon="6.84712">
        <ele>356</ele>
        <time>2016-10-23T07:42:04.000Z</time>
      </trkpt>
      <trkpt lat="47.54927" lon="6.84712">
        <ele>357</ele>
        <time>2016-10-23T07:42:05.000Z</time>
      </trkpt>
      <trkpt lat="47.54932" lon="6.84711">
        <ele>357</ele>
        <time>2016-10-23T07:42:06.000Z</time>
      </trkpt>
      <trkpt lat="47.54937" lon="6.8471">
        <ele>357</ele>
        <time>2016-10-23T07:42:07.000Z</time>
      </trkpt>
      <trkpt lat="47.54942" lon="6.8471">
        <ele>357</ele>
        <time>2016-10-23T07:42:08.000Z</time>
      </trkpt>
      <trkpt lat="47.54947" lon="6.84709">
        <ele>357</ele>
        <time>2016-10-23T07:42:09.000Z</time>
      </trkpt>
      <trkpt lat="47.54951" lon="6.8471">
        <ele>357</ele>
        <time>2016-10-23T07:42:10.000Z</time>
      </trkpt>
      <trkpt lat="47.54956" lon="6.84709">
        <ele>357</ele>
        <time>2016-10-23T07:42:11.000Z</time>
      </trkpt>
      <trkpt lat="47.5496" lon="6.84708">
        <ele>357</ele>
        <time>2016-10-23T07:42:12.000Z</time>
      </trkpt>
      <trkpt lat="47.54965" lon="6.84708">
        <ele>357</ele>
        <time>2016-10-23T07:42:13.000Z</time>
      </trkpt>
      <trkpt lat="47.5497" lon="6.84709">
        <ele>357</ele>
        <time>2016-10-23T07:42:14.000Z</time>
      </trkpt>
      <trkpt lat="47.54974" lon="6.84709">
        <ele>357</ele>
        <time>2016-10-23T07:42:15.000Z</time>
      </trkpt>
      <trkpt lat="47.54979" lon="6.84709">
        <ele>357</ele>
        <time>2016-10-23T07:42:16.000Z</time>
      </trkpt>
      <trkpt lat="47.54984" lon="6.84709">
        <ele>357</ele>
        <time>2016-10-23T07:42:17.000Z</time>
      </trkpt>
      <trkpt lat="47.54988" lon="6.84709">
        <ele>357</ele>
        <time>2016-10-23T07:42:18.000Z</time>
      </trkpt>
      <trkpt lat="47.54993" lon="6.84709">
        <ele>357</ele>
        <time>2016-10-23T07:42:19.000Z</time>
      </trkpt>
      <trkpt lat="47.54998" lon="6.8471">
        <ele>357</ele>
        <time>2016-10-23T07:42:20.000Z</time>
      </trkpt>
      <trkpt lat="47.55002" lon="6.8471">
        <ele>358</ele>
        <time>2016-10-23T07:42:21.000Z</time>
      </trkpt>
      <trkpt lat="47.55007" lon="6.84711">
        <ele>358</ele>
        <time>2016-10-23T07:42:22.000Z</time>
      </trkpt>
      <trkpt lat="47.55013" lon="6.84711">
        <ele>358</ele>
        <time>2016-10-23T07:42:23.000Z</time>
      </trkpt>
      <trkpt lat="47.55017" lon="6.84711">
        <ele>358</ele>
        <time>2016-10-23T07:42:24.000Z</time>
      </trkpt>
      <trkpt lat="47.55021" lon="6.84712">
        <ele>358</ele>
        <time>2016-10-23T07:42:25.000Z</time>
      </trkpt>
      <trkpt lat="47.55025" lon="6.84713">
        <ele>358</ele>
        <time>2016-10-23T07:42:26.000Z</time>
      </trkpt>
      <trkpt lat="47.55029" lon="6.84715">
        <ele>358</ele>
        <time>2016-10-23T07:42:27.000Z</time>
      </trkpt>
      <trkpt lat="47.55035" lon="6.84715">
        <ele>358</ele>
        <time>2016-10-23T07:42:28.000Z</time>
      </trkpt>
      <trkpt lat="47.5504" lon="6.84714">
        <ele>358</ele>
        <time>2016-10-23T07:42:29.000Z</time>
      </trkpt>
      <trkpt lat="47.55043" lon="6.84713">
        <ele>358</ele>
        <time>2016-10-23T07:42:30.000Z</time>
      </trkpt>
      <trkpt lat="47.55048" lon="6.84713">
        <ele>358</ele>
        <time>2016-10-23T07:42:31.000Z</time>
      </trkpt>
      <trkpt lat="47.55053" lon="6.84713">
        <ele>358</ele>
        <time>2016-10-23T07:42:32.000Z</time>
      </trkpt>
      <trkpt lat="47.55056" lon="6.84714">
        <ele>358</ele>
        <time>2016-10-23T07:42:33.000Z</time>
      </trkpt>
      <trkpt lat="47.55061" lon="6.84714">
        <ele>358</ele>
        <time>2016-10-23T07:42:34.000Z</time>
      </trkpt>
      <trkpt lat="47.55066" lon="6.84715">
        <ele>358</ele>
        <time>2016-10-23T07:42:35.000Z</time>
      </trkpt>
      <trkpt lat="47.55072" lon="6.84715">
        <ele>358</ele>
        <time>2016-10-23T07:42:36.000Z</time>
      </trkpt>
      <trkpt lat="47.55079" lon="6.84716">
        <ele>358</ele>
        <time>2016-10-23T07:42:37.000Z</time>
      </trkpt>
      <trkpt lat="47.55084" lon="6.84717">
        <ele>357</ele>
        <time>2016-10-23T07:42:38.000Z</time>
      </trkpt>
      <trkpt lat="47.5509" lon="6.8472">
        <ele>357</ele>
        <time>2016-10-23T07:42:39.000Z</time>
      </trkpt>
      <trkpt lat="47.55096" lon="6.84719">
        <ele>357</ele>
        <time>2016-10-23T07:42:40.000Z</time>
      </trkpt>
      <trkpt lat="47.55104" lon="6.8472">
        <ele>356</ele>
        <time>2016-10-23T07:42:41.000Z</time>
      </trkpt>
      <trkpt lat="47.55112" lon="6.84721">
        <ele>356</ele>
        <time>2016-10-23T07:42:42.000Z</time>
      </trkpt>
      <trkpt lat="47.55119" lon="6.84721">
        <ele>356</ele>
        <time>2016-10-23T07:42:43.000Z</time>
      </trkpt>
      <trkpt lat="47.55127" lon="6.84721">
        <ele>356</ele>
        <time>2016-10-23T07:42:44.000Z</time>
      </trkpt>
      <trkpt lat="47.55134" lon="6.84723">
        <ele>356</ele>
        <time>2016-10-23T07:42:45.000Z</time>
      </trkpt>
      <trkpt lat="47.55142" lon="6.84723">
        <ele>356</ele>
        <time>2016-10-23T07:42:46.000Z</time>
      </trkpt>
      <trkpt lat="47.5515" lon="6.84724">
        <ele>355</ele>
        <time>2016-10-23T07:42:47.000Z</time>
      </trkpt>
      <trkpt lat="47.55159" lon="6.84724">
        <ele>355</ele>
        <time>2016-10-23T07:42:48.000Z</time>
      </trkpt>
      <trkpt lat="47.55167" lon="6.84725">
        <ele>354</ele>
        <time>2016-10-23T07:42:49.000Z</time>
      </trkpt>
      <trkpt lat="47.55175" lon="6.84725">
        <ele>353</ele>
        <time>2016-10-23T07:42:50.000Z</time>
      </trkpt>
      <trkpt lat="47.55184" lon="6.84726">
        <ele>353</ele>
        <time>2016-10-23T07:42:51.000Z</time>
      </trkpt>
      <trkpt lat="47.55192" lon="6.84728">
        <ele>353</ele>
        <time>2016-10-23T07:42:52.000Z</time>
      </trkpt>
      <trkpt lat="47.55201" lon="6.84729">
        <ele>353</ele>
        <time>2016-10-23T07:42:53.000Z</time>
      </trkpt>
      <trkpt lat="47.55208" lon="6.84732">
        <ele>353</ele>
        <time>2016-10-23T07:42:54.000Z</time>
      </trkpt>
      <trkpt lat="47.55216" lon="6.84734">
        <ele>352</ele>
        <time>2016-10-23T07:42:55.000Z</time>
      </trkpt>
      <trkpt lat="47.55224" lon="6.84735">
        <ele>352</ele>
        <time>2016-10-23T07:42:56.000Z</time>
      </trkpt>
      <trkpt lat="47.55232" lon="6.84737">
        <ele>352</ele>
        <time>2016-10-23T07:42:57.000Z</time>
      </trkpt>
      <trkpt lat="47.55239" lon="6.8474">
        <ele>351</ele>
        <time>2016-10-23T07:42:58.000Z</time>
      </trkpt>
      <trkpt lat="47.55246" lon="6.84743">
        <ele>351</ele>
        <time>2016-10-23T07:42:59.000Z</time>
      </trkpt>
      <trkpt lat="47.55252" lon="6.84744">
        <ele>351</ele>
        <time>2016-10-23T07:43:00.000Z</time>
      </trkpt>
      <trkpt lat="47.5526" lon="6.84746">
        <ele>351</ele>
        <time>2016-10-23T07:43:01.000Z</time>
      </trkpt>
      <trkpt lat="47.55266" lon="6.84747">
        <ele>351</ele>
        <time>2016-10-23T07:43:02.000Z</time>
      </trkpt>
      <trkpt lat="47.55273" lon="6.84749">
        <ele>351</ele>
        <time>2016-10-23T07:43:03.000Z</time>
      </trkpt>
      <trkpt lat="47.5528" lon="6.84752">
        <ele>350</ele>
        <time>2016-10-23T07:43:04.000Z</time>
      </trkpt>
      <trkpt lat="47.55286" lon="6.84754">
        <ele>350</ele>
        <time>2016-10-23T07:43:05.000Z</time>
      </trkpt>
      <trkpt lat="47.55292" lon="6.84756">
        <ele>350</ele>
        <time>2016-10-23T07:43:06.000Z</time>
      </trkpt>
      <trkpt lat="47.55299" lon="6.84759">
        <ele>350</ele>
        <time>2016-10-23T07:43:07.000Z</time>
      </trkpt>
      <trkpt lat="47.55305" lon="6.84761">
        <ele>351</ele>
        <time>2016-10-23T07:43:08.000Z</time>
      </trkpt>
      <trkpt lat="47.55312" lon="6.84763">
        <ele>351</ele>
        <time>2016-10-23T07:43:09.000Z</time>
      </trkpt>
      <trkpt lat="47.55317" lon="6.84766">
        <ele>351</ele>
        <time>2016-10-23T07:43:10.000Z</time>
      </trkpt>
      <trkpt lat="47.55323" lon="6.84768">
        <ele>351</ele>
        <time>2016-10-23T07:43:11.000Z</time>
      </trkpt>
      <trkpt lat="47.55329" lon="6.8477">
        <ele>351</ele>
        <time>2016-10-23T07:43:12.000Z</time>
      </trkpt>
      <trkpt lat="47.55334" lon="6.84772">
        <ele>352</ele>
        <time>2016-10-23T07:43:13.000Z</time>
      </trkpt>
      <trkpt lat="47.5534" lon="6.84775">
        <ele>352</ele>
        <time>2016-10-23T07:43:14.000Z</time>
      </trkpt>
      <trkpt lat="47.55345" lon="6.84778">
        <ele>353</ele>
        <time>2016-10-23T07:43:15.000Z</time>
      </trkpt>
      <trkpt lat="47.5535" lon="6.84779">
        <ele>353</ele>
        <time>2016-10-23T07:43:16.000Z</time>
      </trkpt>
      <trkpt lat="47.55355" lon="6.8478">
        <ele>353</ele>
        <time>2016-10-23T07:43:17.000Z</time>
      </trkpt>
      <trkpt lat="47.5536" lon="6.84781">
        <ele>353</ele>
        <time>2016-10-23T07:43:18.000Z</time>
      </trkpt>
      <trkpt lat="47.55365" lon="6.8478">
        <ele>353</ele>
        <time>2016-10-23T07:43:19.000Z</time>
      </trkpt>
      <trkpt lat="47.5537" lon="6.84781">
        <ele>353</ele>
        <time>2016-10-23T07:43:20.000Z</time>
      </trkpt>
      <trkpt lat="47.55375" lon="6.8478">
        <ele>353</ele>
        <time>2016-10-23T07:43:21.000Z</time>
      </trkpt>
      <trkpt lat="47.5538" lon="6.84778">
        <ele>353</ele>
        <time>2016-10-23T07:43:22.000Z</time>
      </trkpt>
      <trkpt lat="47.55386" lon="6.84776">
        <ele>353</ele>
        <time>2016-10-23T07:43:22.999Z</time>
      </trkpt>
      <trkpt lat="47.55389" lon="6.84777">
        <ele>353</ele>
        <time>2016-10-23T07:43:24.000Z</time>
      </trkpt>
      <trkpt lat="47.55393" lon="6.84777">
        <ele>353</ele>
        <time>2016-10-23T07:43:25.000Z</time>
      </trkpt>
      <trkpt lat="47.55397" lon="6.84775">
        <ele>353</ele>
        <time>2016-10-23T07:43:26.000Z</time>
      </trkpt>
      <trkpt lat="47.55402" lon="6.84774">
        <ele>353</ele>
        <time>2016-10-23T07:43:27.000Z</time>
      </trkpt>
      <trkpt lat="47.55407" lon="6.84772">
        <ele>353</ele>
        <time>2016-10-23T07:43:28.000Z</time>
      </trkpt>
      <trkpt lat="47.5541" lon="6.84771">
        <ele>354</ele>
        <time>2016-10-23T07:43:29.000Z</time>
      </trkpt>
      <trkpt lat="47.55414" lon="6.84769">
        <ele>354</ele>
        <time>2016-10-23T07:43:30.000Z</time>
      </trkpt>
      <trkpt lat="47.55418" lon="6.84767">
        <ele>353</ele>
        <time>2016-10-23T07:43:31.000Z</time>
      </trkpt>
      <trkpt lat="47.55422" lon="6.84765">
        <ele>353</ele>
        <time>2016-10-23T07:43:32.000Z</time>
      </trkpt>
      <trkpt lat="47.55426" lon="6.84763">
        <ele>353</ele>
        <time>2016-10-23T07:43:33.000Z</time>
      </trkpt>
      <trkpt lat="47.5543" lon="6.84761">
        <ele>353</ele>
        <time>2016-10-23T07:43:34.000Z</time>
      </trkpt>
      <trkpt lat="47.55433" lon="6.8476">
        <ele>353</ele>
        <time>2016-10-23T07:43:35.000Z</time>
      </trkpt>
      <trkpt lat="47.55437" lon="6.84758">
        <ele>353</ele>
        <time>2016-10-23T07:43:36.000Z</time>
      </trkpt>
      <trkpt lat="47.5544" lon="6.84755">
        <ele>353</ele>
        <time>2016-10-23T07:43:37.000Z</time>
      </trkpt>
      <trkpt lat="47.55443" lon="6.84752">
        <ele>352</ele>
        <time>2016-10-23T07:43:38.000Z</time>
      </trkpt>
      <trkpt lat="47.55445" lon="6.84747">
        <ele>351</ele>
        <time>2016-10-23T07:43:39.000Z</time>
      </trkpt>
      <trkpt lat="47.55443" lon="6.84733">
        <ele>351</ele>
        <time>2016-10-23T07:43:40.000Z</time>
      </trkpt>
      <trkpt lat="47.55441" lon="6.84725">
        <ele>351</ele>
        <time>2016-10-23T07:43:41.000Z</time>
      </trkpt>
      <trkpt lat="47.55439" lon="6.8472">
        <ele>351</ele>
        <time>2016-10-23T07:43:42.000Z</time>
      </trkpt>
      <trkpt lat="47.55436" lon="6.84716">
        <ele>351</ele>
        <time>2016-10-23T07:43:43.000Z</time>
      </trkpt>
      <trkpt lat="47.55433" lon="6.8471">
        <ele>351</ele>
        <time>2016-10-23T07:43:44.000Z</time>
      </trkpt>
      <trkpt lat="47.55431" lon="6.84705">
        <ele>351</ele>
        <time>2016-10-23T07:43:45.000Z</time>
      </trkpt>
      <trkpt lat="47.55428" lon="6.84699">
        <ele>351</ele>
        <time>2016-10-23T07:43:46.000Z</time>
      </trkpt>
      <trkpt lat="47.55425" lon="6.84694">
        <ele>351</ele>
        <time>2016-10-23T07:43:47.000Z</time>
      </trkpt>
      <trkpt lat="47.55423" lon="6.8469">
        <ele>351</ele>
        <time>2016-10-23T07:43:48.000Z</time>
      </trkpt>
      <trkpt lat="47.5542" lon="6.84687">
        <ele>351</ele>
        <time>2016-10-23T07:43:49.000Z</time>
      </trkpt>
      <trkpt lat="47.55417" lon="6.84684">
        <ele>353</ele>
        <time>2016-10-23T07:43:50.000Z</time>
      </trkpt>
      <trkpt lat="47.55413" lon="6.84678">
        <ele>353</ele>
        <time>2016-10-23T07:43:51.000Z</time>
      </trkpt>
      <trkpt lat="47.55409" lon="6.84672">
        <ele>352</ele>
        <time>2016-10-23T07:43:52.000Z</time>
      </trkpt>
      <trkpt lat="47.55405" lon="6.84668">
        <ele>353</ele>
        <time>2016-10-23T07:43:53.000Z</time>
      </trkpt>
      <trkpt lat="47.55403" lon="6.84662">
        <ele>353</ele>
        <time>2016-10-23T07:43:54.000Z</time>
      </trkpt>
      <trkpt lat="47.55399" lon="6.84657">
        <ele>353</ele>
        <time>2016-10-23T07:43:55.000Z</time>
      </trkpt>
      <trkpt lat="47.55395" lon="6.84652">
        <ele>353</ele>
        <time>2016-10-23T07:43:56.000Z</time>
      </trkpt>
      <trkpt lat="47.55392" lon="6.84648">
        <ele>354</ele>
        <time>2016-10-23T07:43:57.000Z</time>
      </trkpt>
      <trkpt lat="47.55388" lon="6.84642">
        <ele>354</ele>
        <time>2016-10-23T07:43:58.000Z</time>
      </trkpt>
      <trkpt lat="47.55385" lon="6.84636">
        <ele>354</ele>
        <time>2016-10-23T07:43:59.000Z</time>
      </trkpt>
      <trkpt lat="47.55382" lon="6.84632">
        <ele>354</ele>
        <time>2016-10-23T07:44:00.000Z</time>
      </trkpt>
      <trkpt lat="47.55378" lon="6.84626">
        <ele>354</ele>
        <time>2016-10-23T07:44:01.000Z</time>
      </trkpt>
      <trkpt lat="47.55376" lon="6.84621">
        <ele>354</ele>
        <time>2016-10-23T07:44:02.000Z</time>
      </trkpt>
      <trkpt lat="47.55374" lon="6.84616">
        <ele>354</ele>
        <time>2016-10-23T07:44:03.000Z</time>
      </trkpt>
      <trkpt lat="47.55371" lon="6.84611">
        <ele>354</ele>
        <time>2016-10-23T07:44:04.000Z</time>
      </trkpt>
      <trkpt lat="47.55369" lon="6.84605">
        <ele>355</ele>
        <time>2016-10-23T07:44:05.000Z</time>
      </trkpt>
      <trkpt lat="47.55366" lon="6.84599">
        <ele>355</ele>
        <time>2016-10-23T07:44:06.000Z</time>
      </trkpt>
      <trkpt lat="47.55363" lon="6.84594">
        <ele>355</ele>
        <time>2016-10-23T07:44:07.000Z</time>
      </trkpt>
      <trkpt lat="47.5536" lon="6.8459">
        <ele>355</ele>
        <time>2016-10-23T07:44:08.000Z</time>
      </trkpt>
      <trkpt lat="47.5536" lon="6.84585">
        <ele>355</ele>
        <time>2016-10-23T07:44:09.000Z</time>
      </trkpt>
      <trkpt lat="47.55359" lon="6.8458">
        <ele>357</ele>
        <time>2016-10-23T07:44:10.000Z</time>
      </trkpt>
      <trkpt lat="47.55357" lon="6.84574">
        <ele>357</ele>
        <time>2016-10-23T07:44:11.000Z</time>
      </trkpt>
      <trkpt lat="47.55357" lon="6.84569">
        <ele>357</ele>
        <time>2016-10-23T07:44:12.000Z</time>
      </trkpt>
      <trkpt lat="47.55358" lon="6.84562">
        <ele>357</ele>
        <time>2016-10-23T07:44:13.000Z</time>
      </trkpt>
      <trkpt lat="47.55357" lon="6.84557">
        <ele>357</ele>
        <time>2016-10-23T07:44:14.000Z</time>
      </trkpt>
      <trkpt lat="47.55358" lon="6.8455">
        <ele>357</ele>
        <time>2016-10-23T07:44:15.000Z</time>
      </trkpt>
      <trkpt lat="47.55358" lon="6.84541">
        <ele>357</ele>
        <time>2016-10-23T07:44:16.000Z</time>
      </trkpt>
      <trkpt lat="47.55359" lon="6.84535">
        <ele>357</ele>
        <time>2016-10-23T07:44:17.000Z</time>
      </trkpt>
      <trkpt lat="47.55359" lon="6.84529">
        <ele>358</ele>
        <time>2016-10-23T07:44:18.000Z</time>
      </trkpt>
      <trkpt lat="47.5536" lon="6.84523">
        <ele>358</ele>
        <time>2016-10-23T07:44:19.000Z</time>
      </trkpt>
      <trkpt lat="47.5536" lon="6.84517">
        <ele>358</ele>
        <time>2016-10-23T07:44:19.999Z</time>
      </trkpt>
      <trkpt lat="47.55359" lon="6.8451">
        <ele>358</ele>
        <time>2016-10-23T07:44:21.000Z</time>
      </trkpt>
      <trkpt lat="47.55359" lon="6.84504">
        <ele>358</ele>
        <time>2016-10-23T07:44:22.000Z</time>
      </trkpt>
      <trkpt lat="47.5536" lon="6.84498">
        <ele>360</ele>
        <time>2016-10-23T07:44:23.000Z</time>
      </trkpt>
      <trkpt lat="47.55361" lon="6.84491">
        <ele>360</ele>
        <time>2016-10-23T07:44:23.999Z</time>
      </trkpt>
      <trkpt lat="47.5536" lon="6.84486">
        <ele>360</ele>
        <time>2016-10-23T07:44:25.000Z</time>
      </trkpt>
      <trkpt lat="47.5536" lon="6.8448">
        <ele>360</ele>
        <time>2016-10-23T07:44:26.000Z</time>
      </trkpt>
      <trkpt lat="47.55359" lon="6.84474">
        <ele>360</ele>
        <time>2016-10-23T07:44:27.000Z</time>
      </trkpt>
      <trkpt lat="47.55361" lon="6.84467">
        <ele>360</ele>
        <time>2016-10-23T07:44:28.000Z</time>
      </trkpt>
      <trkpt lat="47.55363" lon="6.84462">
        <ele>360</ele>
        <time>2016-10-23T07:44:29.000Z</time>
      </trkpt>
      <trkpt lat="47.55364" lon="6.84456">
        <ele>360</ele>
        <time>2016-10-23T07:44:30.000Z</time>
      </trkpt>
      <trkpt lat="47.55365" lon="6.8445">
        <ele>360</ele>
        <time>2016-10-23T07:44:31.000Z</time>
      </trkpt>
      <trkpt lat="47.55366" lon="6.84445">
        <ele>360</ele>
        <time>2016-10-23T07:44:32.000Z</time>
      </trkpt>
      <trkpt lat="47.55366" lon="6.84439">
        <ele>360</ele>
        <time>2016-10-23T07:44:33.000Z</time>
      </trkpt>
      <trkpt lat="47.55369" lon="6.84435">
        <ele>360</ele>
        <time>2016-10-23T07:44:34.000Z</time>
      </trkpt>
      <trkpt lat="47.5537" lon="6.8443">
        <ele>361</ele>
        <time>2016-10-23T07:44:35.000Z</time>
      </trkpt>
      <trkpt lat="47.55373" lon="6.84426">
        <ele>361</ele>
        <time>2016-10-23T07:44:36.000Z</time>
      </trkpt>
      <trkpt lat="47.55375" lon="6.84422">
        <ele>361</ele>
        <time>2016-10-23T07:44:37.000Z</time>
      </trkpt>
      <trkpt lat="47.55377" lon="6.84417">
        <ele>361</ele>
        <time>2016-10-23T07:44:38.000Z</time>
      </trkpt>
      <trkpt lat="47.55378" lon="6.84412">
        <ele>363</ele>
        <time>2016-10-23T07:44:39.000Z</time>
      </trkpt>
      <trkpt lat="47.5538" lon="6.84407">
        <ele>363</ele>
        <time>2016-10-23T07:44:40.000Z</time>
      </trkpt>
      <trkpt lat="47.55382" lon="6.84403">
        <ele>363</ele>
        <time>2016-10-23T07:44:41.000Z</time>
      </trkpt>
      <trkpt lat="47.55383" lon="6.84398">
        <ele>363</ele>
        <time>2016-10-23T07:44:42.000Z</time>
      </trkpt>
      <trkpt lat="47.55385" lon="6.84393">
        <ele>363</ele>
        <time>2016-10-23T07:44:43.000Z</time>
      </trkpt>
      <trkpt lat="47.55386" lon="6.84389">
        <ele>363</ele>
        <time>2016-10-23T07:44:44.000Z</time>
      </trkpt>
      <trkpt lat="47.55388" lon="6.84385">
        <ele>363</ele>
        <time>2016-10-23T07:44:45.000Z</time>
      </trkpt>
      <trkpt lat="47.55391" lon="6.84381">
        <ele>364</ele>
        <time>2016-10-23T07:44:46.000Z</time>
      </trkpt>
      <trkpt lat="47.55393" lon="6.84377">
        <ele>364</ele>
        <time>2016-10-23T07:44:47.000Z</time>
      </trkpt>
      <trkpt lat="47.55395" lon="6.84372">
        <ele>364</ele>
        <time>2016-10-23T07:44:48.000Z</time>
      </trkpt>
      <trkpt lat="47.55397" lon="6.84368">
        <ele>364</ele>
        <time>2016-10-23T07:44:49.000Z</time>
      </trkpt>
      <trkpt lat="47.55398" lon="6.84364">
        <ele>364</ele>
        <time>2016-10-23T07:44:50.000Z</time>
      </trkpt>
      <trkpt lat="47.554" lon="6.84359">
        <ele>364</ele>
        <time>2016-10-23T07:44:51.000Z</time>
      </trkpt>
      <trkpt lat="47.55402" lon="6.84354">
        <ele>364</ele>
        <time>2016-10-23T07:44:52.000Z</time>
      </trkpt>
      <trkpt lat="47.55404" lon="6.8435">
        <ele>365</ele>
        <time>2016-10-23T07:44:53.001Z</time>
      </trkpt>
      <trkpt lat="47.55407" lon="6.84345">
        <ele>365</ele>
        <time>2016-10-23T07:44:54.000Z</time>
      </trkpt>
      <trkpt lat="47.55409" lon="6.8434">
        <ele>365</ele>
        <time>2016-10-23T07:44:55.000Z</time>
      </trkpt>
      <trkpt lat="47.55411" lon="6.84336">
        <ele>366</ele>
        <time>2016-10-23T07:44:56.000Z</time>
      </trkpt>
      <trkpt lat="47.55413" lon="6.84331">
        <ele>366</ele>
        <time>2016-10-23T07:44:57.000Z</time>
      </trkpt>
      <trkpt lat="47.55414" lon="6.84327">
        <ele>366</ele>
        <time>2016-10-23T07:44:58.000Z</time>
      </trkpt>
      <trkpt lat="47.55416" lon="6.84323">
        <ele>366</ele>
        <time>2016-10-23T07:44:59.000Z</time>
      </trkpt>
      <trkpt lat="47.55418" lon="6.84318">
        <ele>366</ele>
        <time>2016-10-23T07:45:00.000Z</time>
      </trkpt>
      <trkpt lat="47.5542" lon="6.84313">
        <ele>366</ele>
        <time>2016-10-23T07:45:01.000Z</time>
      </trkpt>
      <trkpt lat="47.55421" lon="6.84308">
        <ele>366</ele>
        <time>2016-10-23T07:45:02.000Z</time>
      </trkpt>
      <trkpt lat="47.55423" lon="6.84303">
        <ele>366</ele>
        <time>2016-10-23T07:45:03.000Z</time>
      </trkpt>
      <trkpt lat="47.55425" lon="6.84298">
        <ele>366</ele>
        <time>2016-10-23T07:45:04.000Z</time>
      </trkpt>
      <trkpt lat="47.55428" lon="6.84294">
        <ele>366</ele>
        <time>2016-10-23T07:45:05.000Z</time>
      </trkpt>
      <trkpt lat="47.55431" lon="6.8429">
        <ele>366</ele>
        <time>2016-10-23T07:45:06.000Z</time>
      </trkpt>
      <trkpt lat="47.55436" lon="6.84286">
        <ele>366</ele>
        <time>2016-10-23T07:45:07.000Z</time>
      </trkpt>
      <trkpt lat="47.5544" lon="6.84282">
        <ele>366</ele>
        <time>2016-10-23T07:45:07.999Z</time>
      </trkpt>
      <trkpt lat="47.55445" lon="6.8428">
        <ele>366</ele>
        <time>2016-10-23T07:45:09.000Z</time>
      </trkpt>
      <trkpt lat="47.55448" lon="6.84279">
        <ele>366</ele>
        <time>2016-10-23T07:45:10.000Z</time>
      </trkpt>
      <trkpt lat="47.55453" lon="6.8428">
        <ele>366</ele>
        <time>2016-10-23T07:45:11.000Z</time>
      </trkpt>
      <trkpt lat="47.55457" lon="6.8428">
        <ele>366</ele>
        <time>2016-10-23T07:45:12.000Z</time>
      </trkpt>
      <trkpt lat="47.5546" lon="6.84288">
        <ele>365</ele>
        <time>2016-10-23T07:45:13.000Z</time>
      </trkpt>
      <trkpt lat="47.55464" lon="6.84292">
        <ele>365</ele>
        <time>2016-10-23T07:45:14.000Z</time>
      </trkpt>
      <trkpt lat="47.55468" lon="6.84295">
        <ele>365</ele>
        <time>2016-10-23T07:45:15.000Z</time>
      </trkpt>
      <trkpt lat="47.55472" lon="6.84299">
        <ele>365</ele>
        <time>2016-10-23T07:45:16.000Z</time>
      </trkpt>
      <trkpt lat="47.55475" lon="6.84302">
        <ele>365</ele>
        <time>2016-10-23T07:45:17.000Z</time>
      </trkpt>
      <trkpt lat="47.55479" lon="6.84306">
        <ele>365</ele>
        <time>2016-10-23T07:45:18.000Z</time>
      </trkpt>
      <trkpt lat="47.55482" lon="6.84308">
        <ele>365</ele>
        <time>2016-10-23T07:45:19.000Z</time>
      </trkpt>
      <trkpt lat="47.55486" lon="6.84303">
        <ele>365</ele>
        <time>2016-10-23T07:45:20.000Z</time>
      </trkpt>
      <trkpt lat="47.55489" lon="6.843">
        <ele>365</ele>
        <time>2016-10-23T07:45:21.000Z</time>
      </trkpt>
      <trkpt lat="47.55492" lon="6.84294">
        <ele>365</ele>
        <time>2016-10-23T07:45:22.000Z</time>
      </trkpt>
      <trkpt lat="47.55496" lon="6.84289">
        <ele>365</ele>
        <time>2016-10-23T07:45:23.000Z</time>
      </trkpt>
      <trkpt lat="47.55498" lon="6.84283">
        <ele>365</ele>
        <time>2016-10-23T07:45:24.000Z</time>
      </trkpt>
      <trkpt lat="47.55501" lon="6.84278">
        <ele>364</ele>
        <time>2016-10-23T07:45:25.000Z</time>
      </trkpt>
      <trkpt lat="47.55504" lon="6.84273">
        <ele>364</ele>
        <time>2016-10-23T07:45:26.000Z</time>
      </trkpt>
      <trkpt lat="47.55507" lon="6.84268">
        <ele>364</ele>
        <time>2016-10-23T07:45:26.999Z</time>
      </trkpt>
      <trkpt lat="47.55508" lon="6.84261">
        <ele>365</ele>
        <time>2016-10-23T07:45:28.000Z</time>
      </trkpt>
      <trkpt lat="47.5551" lon="6.84255">
        <ele>365</ele>
        <time>2016-10-23T07:45:29.000Z</time>
      </trkpt>
      <trkpt lat="47.55511" lon="6.84249">
        <ele>364</ele>
        <time>2016-10-23T07:45:30.000Z</time>
      </trkpt>
      <trkpt lat="47.55513" lon="6.84242">
        <ele>364</ele>
        <time>2016-10-23T07:45:31.000Z</time>
      </trkpt>
      <trkpt lat="47.55512" lon="6.84236">
        <ele>364</ele>
        <time>2016-10-23T07:45:32.000Z</time>
      </trkpt>
      <trkpt lat="47.55512" lon="6.84229">
        <ele>364</ele>
        <time>2016-10-23T07:45:33.000Z</time>
      </trkpt>
      <trkpt lat="47.55512" lon="6.84222">
        <ele>364</ele>
        <time>2016-10-23T07:45:34.000Z</time>
      </trkpt>
      <trkpt lat="47.55512" lon="6.84215">
        <ele>364</ele>
        <time>2016-10-23T07:45:35.000Z</time>
      </trkpt>
      <trkpt lat="47.55513" lon="6.84209">
        <ele>364</ele>
        <time>2016-10-23T07:45:36.000Z</time>
      </trkpt>
      <trkpt lat="47.55512" lon="6.84202">
        <ele>364</ele>
        <time>2016-10-23T07:45:37.000Z</time>
      </trkpt>
      <trkpt lat="47.55513" lon="6.84193">
        <ele>364</ele>
        <time>2016-10-23T07:45:38.000Z</time>
      </trkpt>
      <trkpt lat="47.55513" lon="6.84185">
        <ele>364</ele>
        <time>2016-10-23T07:45:39.001Z</time>
      </trkpt>
      <trkpt lat="47.55516" lon="6.8418">
        <ele>364</ele>
        <time>2016-10-23T07:45:40.001Z</time>
      </trkpt>
      <trkpt lat="47.55517" lon="6.84175">
        <ele>364</ele>
        <time>2016-10-23T07:45:41.000Z</time>
      </trkpt>
      <trkpt lat="47.5552" lon="6.8417">
        <ele>364</ele>
        <time>2016-10-23T07:45:42.000Z</time>
      </trkpt>
      <trkpt lat="47.55522" lon="6.84167">
        <ele>363</ele>
        <time>2016-10-23T07:45:43.000Z</time>
      </trkpt>
      <trkpt lat="47.55524" lon="6.84166">
        <ele>363</ele>
        <time>2016-10-23T07:45:44.000Z</time>
      </trkpt>
      <trkpt lat="47.55529" lon="6.84175">
        <ele>364</ele>
        <time>2016-10-23T07:45:45.000Z</time>
      </trkpt>
      <trkpt lat="47.55533" lon="6.84182">
        <ele>363</ele>
        <time>2016-10-23T07:45:46.000Z</time>
      </trkpt>
      <trkpt lat="47.55535" lon="6.84187">
        <ele>363</ele>
        <time>2016-10-23T07:45:47.000Z</time>
      </trkpt>
      <trkpt lat="47.55538" lon="6.84191">
        <ele>363</ele>
        <time>2016-10-23T07:45:48.000Z</time>
      </trkpt>
      <trkpt lat="47.55541" lon="6.84197">
        <ele>363</ele>
        <time>2016-10-23T07:45:49.000Z</time>
      </trkpt>
      <trkpt lat="47.55544" lon="6.84204">
        <ele>363</ele>
        <time>2016-10-23T07:45:50.000Z</time>
      </trkpt>
      <trkpt lat="47.55547" lon="6.84209">
        <ele>363</ele>
        <time>2016-10-23T07:45:51.000Z</time>
      </trkpt>
      <trkpt lat="47.5555" lon="6.84213">
        <ele>363</ele>
        <time>2016-10-23T07:45:52.000Z</time>
      </trkpt>
      <trkpt lat="47.55552" lon="6.84219">
        <ele>363</ele>
        <time>2016-10-23T07:45:53.000Z</time>
      </trkpt>
      <trkpt lat="47.55554" lon="6.84224">
        <ele>363</ele>
        <time>2016-10-23T07:45:54.000Z</time>
      </trkpt>
      <trkpt lat="47.55557" lon="6.8423">
        <ele>363</ele>
        <time>2016-10-23T07:45:55.000Z</time>
      </trkpt>
      <trkpt lat="47.5556" lon="6.84236">
        <ele>363</ele>
        <time>2016-10-23T07:45:56.000Z</time>
      </trkpt>
      <trkpt lat="47.55562" lon="6.8424">
        <ele>363</ele>
        <time>2016-10-23T07:45:57.000Z</time>
      </trkpt>
      <trkpt lat="47.55563" lon="6.84244">
        <ele>363</ele>
        <time>2016-10-23T07:45:58.000Z</time>
      </trkpt>
      <trkpt lat="47.55568" lon="6.84244">
        <ele>363</ele>
        <time>2016-10-23T07:45:59.000Z</time>
      </trkpt>
      <trkpt lat="47.55573" lon="6.84244">
        <ele>363</ele>
        <time>2016-10-23T07:45:59.999Z</time>
      </trkpt>
      <trkpt lat="47.55576" lon="6.84239">
        <ele>363</ele>
        <time>2016-10-23T07:46:01.000Z</time>
      </trkpt>
      <trkpt lat="47.5558" lon="6.84235">
        <ele>363</ele>
        <time>2016-10-23T07:46:02.000Z</time>
      </trkpt>
      <trkpt lat="47.55584" lon="6.8423">
        <ele>363</ele>
        <time>2016-10-23T07:46:03.000Z</time>
      </trkpt>
      <trkpt lat="47.55588" lon="6.84228">
        <ele>363</ele>
        <time>2016-10-23T07:46:04.000Z</time>
      </trkpt>
      <trkpt lat="47.55592" lon="6.84223">
        <ele>362</ele>
        <time>2016-10-23T07:46:05.000Z</time>
      </trkpt>
      <trkpt lat="47.55596" lon="6.84217">
        <ele>362</ele>
        <time>2016-10-23T07:46:06.000Z</time>
      </trkpt>
      <trkpt lat="47.55602" lon="6.8421">
        <ele>362</ele>
        <time>2016-10-23T07:46:07.000Z</time>
      </trkpt>
      <trkpt lat="47.55607" lon="6.84205">
        <ele>362</ele>
        <time>2016-10-23T07:46:08.000Z</time>
      </trkpt>
      <trkpt lat="47.55612" lon="6.842">
        <ele>362</ele>
        <time>2016-10-23T07:46:09.000Z</time>
      </trkpt>
      <trkpt lat="47.55618" lon="6.84194">
        <ele>362</ele>
        <time>2016-10-23T07:46:10.000Z</time>
      </trkpt>
      <trkpt lat="47.55623" lon="6.8419">
        <ele>362</ele>
        <time>2016-10-23T07:46:11.000Z</time>
      </trkpt>
      <trkpt lat="47.55627" lon="6.84186">
        <ele>362</ele>
        <time>2016-10-23T07:46:12.000Z</time>
      </trkpt>
      <trkpt lat="47.55632" lon="6.84181">
        <ele>362</ele>
        <time>2016-10-23T07:46:13.000Z</time>
      </trkpt>
      <trkpt lat="47.55636" lon="6.84177">
        <ele>362</ele>
        <time>2016-10-23T07:46:14.000Z</time>
      </trkpt>
      <trkpt lat="47.55641" lon="6.84173">
        <ele>362</ele>
        <time>2016-10-23T07:46:15.000Z</time>
      </trkpt>
      <trkpt lat="47.55646" lon="6.84168">
        <ele>362</ele>
        <time>2016-10-23T07:46:16.000Z</time>
      </trkpt>
      <trkpt lat="47.5565" lon="6.84163">
        <ele>362</ele>
        <time>2016-10-23T07:46:17.000Z</time>
      </trkpt>
      <trkpt lat="47.55655" lon="6.84159">
        <ele>362</ele>
        <time>2016-10-23T07:46:18.000Z</time>
      </trkpt>
      <trkpt lat="47.5566" lon="6.84156">
        <ele>362</ele>
        <time>2016-10-23T07:46:19.000Z</time>
      </trkpt>
      <trkpt lat="47.55665" lon="6.84151">
        <ele>362</ele>
        <time>2016-10-23T07:46:20.000Z</time>
      </trkpt>
      <trkpt lat="47.55669" lon="6.84148">
        <ele>363</ele>
        <time>2016-10-23T07:46:21.000Z</time>
      </trkpt>
      <trkpt lat="47.55674" lon="6.84145">
        <ele>363</ele>
        <time>2016-10-23T07:46:22.000Z</time>
      </trkpt>
      <trkpt lat="47.55678" lon="6.84141">
        <ele>363</ele>
        <time>2016-10-23T07:46:23.000Z</time>
      </trkpt>
      <trkpt lat="47.55684" lon="6.84137">
        <ele>363</ele>
        <time>2016-10-23T07:46:24.000Z</time>
      </trkpt>
      <trkpt lat="47.5569" lon="6.84133">
        <ele>363</ele>
        <time>2016-10-23T07:46:24.998Z</time>
      </trkpt>
      <trkpt lat="47.55694" lon="6.84131">
        <ele>363</ele>
        <time>2016-10-23T07:46:26.000Z</time>
      </trkpt>
      <trkpt lat="47.55699" lon="6.84126">
        <ele>363</ele>
        <time>2016-10-23T07:46:27.000Z</time>
      </trkpt>
      <trkpt lat="47.55703" lon="6.84121">
        <ele>363</ele>
        <time>2016-10-23T07:46:28.000Z</time>
      </trkpt>
      <trkpt lat="47.55708" lon="6.84117">
        <ele>363</ele>
        <time>2016-10-23T07:46:29.000Z</time>
      </trkpt>
      <trkpt lat="47.55713" lon="6.84115">
        <ele>364</ele>
        <time>2016-10-23T07:46:30.000Z</time>
      </trkpt>
      <trkpt lat="47.55717" lon="6.84109">
        <ele>364</ele>
        <time>2016-10-23T07:46:31.000Z</time>
      </trkpt>
      <trkpt lat="47.5572" lon="6.84104">
        <ele>364</ele>
        <time>2016-10-23T07:46:32.000Z</time>
      </trkpt>
      <trkpt lat="47.55722" lon="6.84098">
        <ele>364</ele>
        <time>2016-10-23T07:46:33.000Z</time>
      </trkpt>
      <trkpt lat="47.55723" lon="6.84093">
        <ele>364</ele>
        <time>2016-10-23T07:46:34.000Z</time>
      </trkpt>
      <trkpt lat="47.55725" lon="6.84088">
        <ele>364</ele>
        <time>2016-10-23T07:46:35.000Z</time>
      </trkpt>
      <trkpt lat="47.55725" lon="6.84084">
        <ele>364</ele>
        <time>2016-10-23T07:46:36.000Z</time>
      </trkpt>
      <trkpt lat="47.55726" lon="6.84078">
        <ele>365</ele>
        <time>2016-10-23T07:46:37.000Z</time>
      </trkpt>
      <trkpt lat="47.55727" lon="6.84071">
        <ele>365</ele>
        <time>2016-10-23T07:46:38.000Z</time>
      </trkpt>
      <trkpt lat="47.55728" lon="6.84065">
        <ele>365</ele>
        <time>2016-10-23T07:46:39.000Z</time>
      </trkpt>
      <trkpt lat="47.55729" lon="6.84057">
        <ele>365</ele>
        <time>2016-10-23T07:46:40.000Z</time>
      </trkpt>
      <trkpt lat="47.55729" lon="6.84051">
        <ele>365</ele>
        <time>2016-10-23T07:46:41.000Z</time>
      </trkpt>
      <trkpt lat="47.55726" lon="6.84043">
        <ele>365</ele>
        <time>2016-10-23T07:46:42.000Z</time>
      </trkpt>
      <trkpt lat="47.55724" lon="6.84037">
        <ele>365</ele>
        <time>2016-10-23T07:46:43.000Z</time>
      </trkpt>
      <trkpt lat="47.55721" lon="6.84031">
        <ele>365</ele>
        <time>2016-10-23T07:46:44.000Z</time>
      </trkpt>
      <trkpt lat="47.55718" lon="6.84018">
        <ele>365</ele>
        <time>2016-10-23T07:46:46.000Z</time>
      </trkpt>
      <trkpt lat="47.55716" lon="6.84011">
        <ele>365</ele>
        <time>2016-10-23T07:46:47.000Z</time>
      </trkpt>
      <trkpt lat="47.55714" lon="6.84005">
        <ele>365</ele>
        <time>2016-10-23T07:46:48.000Z</time>
      </trkpt>
      <trkpt lat="47.55712" lon="6.84">
        <ele>366</ele>
        <time>2016-10-23T07:46:49.000Z</time>
      </trkpt>
      <trkpt lat="47.55712" lon="6.83994">
        <ele>366</ele>
        <time>2016-10-23T07:46:50.000Z</time>
      </trkpt>
      <trkpt lat="47.55711" lon="6.83989">
        <ele>366</ele>
        <time>2016-10-23T07:46:51.000Z</time>
      </trkpt>
      <trkpt lat="47.55712" lon="6.83985">
        <ele>366</ele>
        <time>2016-10-23T07:46:52.000Z</time>
      </trkpt>
      <trkpt lat="47.55716" lon="6.83982">
        <ele>366</ele>
        <time>2016-10-23T07:46:53.000Z</time>
      </trkpt>
      <trkpt lat="47.55719" lon="6.83979">
        <ele>366</ele>
        <time>2016-10-23T07:46:54.000Z</time>
      </trkpt>
      <trkpt lat="47.55722" lon="6.83976">
        <ele>366</ele>
        <time>2016-10-23T07:46:55.000Z</time>
      </trkpt>
      <trkpt lat="47.55724" lon="6.83974">
        <ele>366</ele>
        <time>2016-10-23T07:46:56.000Z</time>
      </trkpt>
      <trkpt lat="47.55727" lon="6.83971">
        <ele>366</ele>
        <time>2016-10-23T07:46:57.000Z</time>
      </trkpt>
      <trkpt lat="47.55731" lon="6.83968">
        <ele>366</ele>
        <time>2016-10-23T07:46:58.000Z</time>
      </trkpt>
      <trkpt lat="47.55734" lon="6.83966">
        <ele>366</ele>
        <time>2016-10-23T07:46:59.000Z</time>
      </trkpt>
      <trkpt lat="47.55737" lon="6.83963">
        <ele>367</ele>
        <time>2016-10-23T07:47:00.000Z</time>
      </trkpt>
      <trkpt lat="47.55741" lon="6.83961">
        <ele>367</ele>
        <time>2016-10-23T07:47:01.000Z</time>
      </trkpt>
      <trkpt lat="47.55745" lon="6.83959">
        <ele>367</ele>
        <time>2016-10-23T07:47:02.000Z</time>
      </trkpt>
      <trkpt lat="47.55749" lon="6.83957">
        <ele>367</ele>
        <time>2016-10-23T07:47:03.000Z</time>
      </trkpt>
      <trkpt lat="47.55753" lon="6.83955">
        <ele>369</ele>
        <time>2016-10-23T07:47:04.000Z</time>
      </trkpt>
      <trkpt lat="47.55757" lon="6.83953">
        <ele>369</ele>
        <time>2016-10-23T07:47:05.000Z</time>
      </trkpt>
      <trkpt lat="47.5576" lon="6.83952">
        <ele>369</ele>
        <time>2016-10-23T07:47:06.000Z</time>
      </trkpt>
      <trkpt lat="47.55764" lon="6.8395">
        <ele>370</ele>
        <time>2016-10-23T07:47:07.000Z</time>
      </trkpt>
      <trkpt lat="47.55766" lon="6.8395">
        <ele>370</ele>
        <time>2016-10-23T07:47:08.000Z</time>
      </trkpt>
      <trkpt lat="47.55769" lon="6.83949">
        <ele>370</ele>
        <time>2016-10-23T07:47:09.000Z</time>
      </trkpt>
      <trkpt lat="47.55772" lon="6.83949">
        <ele>370</ele>
        <time>2016-10-23T07:47:10.000Z</time>
      </trkpt>
      <trkpt lat="47.55775" lon="6.83948">
        <ele>370</ele>
        <time>2016-10-23T07:47:10.999Z</time>
      </trkpt>
      <trkpt lat="47.55779" lon="6.83946">
        <ele>370</ele>
        <time>2016-10-23T07:47:12.000Z</time>
      </trkpt>
      <trkpt lat="47.55783" lon="6.83944">
        <ele>370</ele>
        <time>2016-10-23T07:47:13.000Z</time>
      </trkpt>
      <trkpt lat="47.55787" lon="6.83941">
        <ele>370</ele>
        <time>2016-10-23T07:47:14.000Z</time>
      </trkpt>
      <trkpt lat="47.5579" lon="6.83938">
        <ele>370</ele>
        <time>2016-10-23T07:47:15.000Z</time>
      </trkpt>
      <trkpt lat="47.55793" lon="6.83935">
        <ele>370</ele>
        <time>2016-10-23T07:47:16.000Z</time>
      </trkpt>
      <trkpt lat="47.55796" lon="6.83933">
        <ele>371</ele>
        <time>2016-10-23T07:47:17.000Z</time>
      </trkpt>
      <trkpt lat="47.55799" lon="6.83932">
        <ele>371</ele>
        <time>2016-10-23T07:47:18.000Z</time>
      </trkpt>
      <trkpt lat="47.55802" lon="6.83933">
        <ele>371</ele>
        <time>2016-10-23T07:47:19.000Z</time>
      </trkpt>
      <trkpt lat="47.55805" lon="6.83934">
        <ele>371</ele>
        <time>2016-10-23T07:47:19.999Z</time>
      </trkpt>
      <trkpt lat="47.55808" lon="6.8394">
        <ele>371</ele>
        <time>2016-10-23T07:47:21.000Z</time>
      </trkpt>
      <trkpt lat="47.55811" lon="6.83945">
        <ele>371</ele>
        <time>2016-10-23T07:47:22.000Z</time>
      </trkpt>
      <trkpt lat="47.55814" lon="6.8395">
        <ele>371</ele>
        <time>2016-10-23T07:47:23.000Z</time>
      </trkpt>
      <trkpt lat="47.55816" lon="6.83955">
        <ele>371</ele>
        <time>2016-10-23T07:47:24.000Z</time>
      </trkpt>
      <trkpt lat="47.55818" lon="6.83961">
        <ele>371</ele>
        <time>2016-10-23T07:47:25.000Z</time>
      </trkpt>
      <trkpt lat="47.5582" lon="6.83967">
        <ele>370</ele>
        <time>2016-10-23T07:47:26.000Z</time>
      </trkpt>
      <trkpt lat="47.55821" lon="6.83976">
        <ele>370</ele>
        <time>2016-10-23T07:47:27.000Z</time>
      </trkpt>
      <trkpt lat="47.55823" lon="6.83981">
        <ele>370</ele>
        <time>2016-10-23T07:47:28.000Z</time>
      </trkpt>
      <trkpt lat="47.55825" lon="6.83987">
        <ele>370</ele>
        <time>2016-10-23T07:47:29.000Z</time>
      </trkpt>
      <trkpt lat="47.55827" lon="6.83993">
        <ele>370</ele>
        <time>2016-10-23T07:47:30.000Z</time>
      </trkpt>
      <trkpt lat="47.5583" lon="6.84">
        <ele>370</ele>
        <time>2016-10-23T07:47:31.000Z</time>
      </trkpt>
      <trkpt lat="47.55831" lon="6.84005">
        <ele>370</ele>
        <time>2016-10-23T07:47:32.000Z</time>
      </trkpt>
      <trkpt lat="47.55834" lon="6.84008">
        <ele>370</ele>
        <time>2016-10-23T07:47:33.000Z</time>
      </trkpt>
      <trkpt lat="47.55836" lon="6.84013">
        <ele>369</ele>
        <time>2016-10-23T07:47:34.000Z</time>
      </trkpt>
      <trkpt lat="47.55841" lon="6.84013">
        <ele>369</ele>
        <time>2016-10-23T07:47:35.000Z</time>
      </trkpt>
      <trkpt lat="47.55843" lon="6.84012">
        <ele>369</ele>
        <time>2016-10-23T07:47:36.000Z</time>
      </trkpt>
      <trkpt lat="47.55845" lon="6.84011">
        <ele>369</ele>
        <time>2016-10-23T07:47:37.000Z</time>
      </trkpt>
      <trkpt lat="47.55847" lon="6.84008">
        <ele>369</ele>
        <time>2016-10-23T07:47:38.000Z</time>
      </trkpt>
      <trkpt lat="47.55849" lon="6.84004">
        <ele>370</ele>
        <time>2016-10-23T07:47:39.000Z</time>
      </trkpt>
      <trkpt lat="47.55849" lon="6.83999">
        <ele>372</ele>
        <time>2016-10-23T07:47:40.000Z</time>
      </trkpt>
      <trkpt lat="47.5585" lon="6.83995">
        <ele>372</ele>
        <time>2016-10-23T07:47:41.000Z</time>
      </trkpt>
      <trkpt lat="47.55851" lon="6.8399">
        <ele>372</ele>
        <time>2016-10-23T07:47:42.000Z</time>
      </trkpt>
      <trkpt lat="47.55853" lon="6.83987">
        <ele>372</ele>
        <time>2016-10-23T07:47:43.000Z</time>
      </trkpt>
      <trkpt lat="47.55853" lon="6.83983">
        <ele>372</ele>
        <time>2016-10-23T07:47:44.000Z</time>
      </trkpt>
      <trkpt lat="47.55855" lon="6.83978">
        <ele>372</ele>
        <time>2016-10-23T07:47:45.000Z</time>
      </trkpt>
      <trkpt lat="47.55857" lon="6.83973">
        <ele>373</ele>
        <time>2016-10-23T07:47:46.000Z</time>
      </trkpt>
      <trkpt lat="47.55858" lon="6.83967">
        <ele>373</ele>
        <time>2016-10-23T07:47:47.000Z</time>
      </trkpt>
      <trkpt lat="47.55858" lon="6.83962">
        <ele>373</ele>
        <time>2016-10-23T07:47:48.000Z</time>
      </trkpt>
      <trkpt lat="47.55859" lon="6.83958">
        <ele>373</ele>
        <time>2016-10-23T07:47:49.000Z</time>
      </trkpt>
      <trkpt lat="47.55861" lon="6.83953">
        <ele>373</ele>
        <time>2016-10-23T07:47:50.000Z</time>
      </trkpt>
      <trkpt lat="47.55862" lon="6.83947">
        <ele>373</ele>
        <time>2016-10-23T07:47:51.000Z</time>
      </trkpt>
      <trkpt lat="47.55863" lon="6.83944">
        <ele>373</ele>
        <time>2016-10-23T07:47:52.000Z</time>
      </trkpt>
      <trkpt lat="47.55863" lon="6.83939">
        <ele>373</ele>
        <time>2016-10-23T07:47:53.000Z</time>
      </trkpt>
      <trkpt lat="47.55864" lon="6.83934">
        <ele>374</ele>
        <time>2016-10-23T07:47:54.000Z</time>
      </trkpt>
      <trkpt lat="47.55865" lon="6.83929">
        <ele>374</ele>
        <time>2016-10-23T07:47:55.000Z</time>
      </trkpt>
      <trkpt lat="47.55866" lon="6.83925">
        <ele>374</ele>
        <time>2016-10-23T07:47:56.000Z</time>
      </trkpt>
      <trkpt lat="47.55868" lon="6.8392">
        <ele>374</ele>
        <time>2016-10-23T07:47:57.000Z</time>
      </trkpt>
      <trkpt lat="47.55869" lon="6.83915">
        <ele>375</ele>
        <time>2016-10-23T07:47:58.000Z</time>
      </trkpt>
      <trkpt lat="47.5587" lon="6.8391">
        <ele>375</ele>
        <time>2016-10-23T07:47:59.000Z</time>
      </trkpt>
      <trkpt lat="47.5587" lon="6.83906">
        <ele>375</ele>
        <time>2016-10-23T07:48:00.000Z</time>
      </trkpt>
      <trkpt lat="47.55871" lon="6.83902">
        <ele>375</ele>
        <time>2016-10-23T07:48:01.000Z</time>
      </trkpt>
      <trkpt lat="47.55871" lon="6.83897">
        <ele>375</ele>
        <time>2016-10-23T07:48:02.000Z</time>
      </trkpt>
      <trkpt lat="47.55872" lon="6.83892">
        <ele>375</ele>
        <time>2016-10-23T07:48:03.000Z</time>
      </trkpt>
      <trkpt lat="47.55873" lon="6.83886">
        <ele>375</ele>
        <time>2016-10-23T07:48:04.000Z</time>
      </trkpt>
      <trkpt lat="47.55875" lon="6.83881">
        <ele>375</ele>
        <time>2016-10-23T07:48:05.000Z</time>
      </trkpt>
      <trkpt lat="47.55878" lon="6.83876">
        <ele>375</ele>
        <time>2016-10-23T07:48:06.000Z</time>
      </trkpt>
      <trkpt lat="47.5588" lon="6.83871">
        <ele>375</ele>
        <time>2016-10-23T07:48:07.000Z</time>
      </trkpt>
      <trkpt lat="47.55883" lon="6.83865">
        <ele>375</ele>
        <time>2016-10-23T07:48:08.000Z</time>
      </trkpt>
      <trkpt lat="47.55885" lon="6.83854">
        <ele>375</ele>
        <time>2016-10-23T07:48:09.000Z</time>
      </trkpt>
      <trkpt lat="47.55887" lon="6.83846">
        <ele>375</ele>
        <time>2016-10-23T07:48:10.000Z</time>
      </trkpt>
      <trkpt lat="47.55889" lon="6.83838">
        <ele>375</ele>
        <time>2016-10-23T07:48:11.000Z</time>
      </trkpt>
      <trkpt lat="47.55889" lon="6.83831">
        <ele>374</ele>
        <time>2016-10-23T07:48:12.000Z</time>
      </trkpt>
      <trkpt lat="47.55891" lon="6.83824">
        <ele>374</ele>
        <time>2016-10-23T07:48:13.000Z</time>
      </trkpt>
      <trkpt lat="47.55892" lon="6.83817">
        <ele>374</ele>
        <time>2016-10-23T07:48:14.000Z</time>
      </trkpt>
      <trkpt lat="47.55893" lon="6.8381">
        <ele>373</ele>
        <time>2016-10-23T07:48:15.000Z</time>
      </trkpt>
      <trkpt lat="47.55894" lon="6.83803">
        <ele>373</ele>
        <time>2016-10-23T07:48:16.000Z</time>
      </trkpt>
      <trkpt lat="47.55895" lon="6.83796">
        <ele>373</ele>
        <time>2016-10-23T07:48:17.000Z</time>
      </trkpt>
      <trkpt lat="47.55896" lon="6.83788">
        <ele>373</ele>
        <time>2016-10-23T07:48:18.000Z</time>
      </trkpt>
      <trkpt lat="47.55897" lon="6.8378">
        <ele>373</ele>
        <time>2016-10-23T07:48:19.000Z</time>
      </trkpt>
      <trkpt lat="47.55899" lon="6.83772">
        <ele>373</ele>
        <time>2016-10-23T07:48:20.000Z</time>
      </trkpt>
      <trkpt lat="47.55901" lon="6.83764">
        <ele>372</ele>
        <time>2016-10-23T07:48:21.000Z</time>
      </trkpt>
      <trkpt lat="47.55902" lon="6.83756">
        <ele>372</ele>
        <time>2016-10-23T07:48:22.000Z</time>
      </trkpt>
      <trkpt lat="47.55904" lon="6.83748">
        <ele>370</ele>
        <time>2016-10-23T07:48:23.000Z</time>
      </trkpt>
      <trkpt lat="47.55906" lon="6.83739">
        <ele>370</ele>
        <time>2016-10-23T07:48:24.000Z</time>
      </trkpt>
      <trkpt lat="47.55908" lon="6.8373">
        <ele>370</ele>
        <time>2016-10-23T07:48:25.000Z</time>
      </trkpt>
      <trkpt lat="47.55909" lon="6.83722">
        <ele>370</ele>
        <time>2016-10-23T07:48:26.000Z</time>
      </trkpt>
      <trkpt lat="47.5591" lon="6.83714">
        <ele>370</ele>
        <time>2016-10-23T07:48:27.000Z</time>
      </trkpt>
      <trkpt lat="47.55912" lon="6.83705">
        <ele>369</ele>
        <time>2016-10-23T07:48:28.000Z</time>
      </trkpt>
      <trkpt lat="47.55915" lon="6.83695">
        <ele>369</ele>
        <time>2016-10-23T07:48:29.000Z</time>
      </trkpt>
      <trkpt lat="47.55917" lon="6.83685">
        <ele>369</ele>
        <time>2016-10-23T07:48:30.000Z</time>
      </trkpt>
      <trkpt lat="47.55919" lon="6.83675">
        <ele>369</ele>
        <time>2016-10-23T07:48:31.000Z</time>
      </trkpt>
      <trkpt lat="47.55922" lon="6.83666">
        <ele>368</ele>
        <time>2016-10-23T07:48:32.000Z</time>
      </trkpt>
      <trkpt lat="47.55925" lon="6.83657">
        <ele>368</ele>
        <time>2016-10-23T07:48:33.000Z</time>
      </trkpt>
      <trkpt lat="47.55927" lon="6.83648">
        <ele>368</ele>
        <time>2016-10-23T07:48:34.000Z</time>
      </trkpt>
      <trkpt lat="47.55931" lon="6.8364">
        <ele>367</ele>
        <time>2016-10-23T07:48:35.000Z</time>
      </trkpt>
      <trkpt lat="47.55933" lon="6.83631">
        <ele>367</ele>
        <time>2016-10-23T07:48:36.000Z</time>
      </trkpt>
      <trkpt lat="47.55936" lon="6.83621">
        <ele>367</ele>
        <time>2016-10-23T07:48:37.000Z</time>
      </trkpt>
      <trkpt lat="47.55939" lon="6.83612">
        <ele>367</ele>
        <time>2016-10-23T07:48:38.000Z</time>
      </trkpt>
      <trkpt lat="47.55943" lon="6.83602">
        <ele>367</ele>
        <time>2016-10-23T07:48:39.000Z</time>
      </trkpt>
      <trkpt lat="47.55946" lon="6.83592">
        <ele>367</ele>
        <time>2016-10-23T07:48:40.000Z</time>
      </trkpt>
      <trkpt lat="47.55949" lon="6.83584">
        <ele>367</ele>
        <time>2016-10-23T07:48:41.000Z</time>
      </trkpt>
      <trkpt lat="47.55952" lon="6.83574">
        <ele>365</ele>
        <time>2016-10-23T07:48:42.000Z</time>
      </trkpt>
      <trkpt lat="47.55956" lon="6.83563">
        <ele>365</ele>
        <time>2016-10-23T07:48:43.000Z</time>
      </trkpt>
      <trkpt lat="47.55959" lon="6.83552">
        <ele>365</ele>
        <time>2016-10-23T07:48:44.000Z</time>
      </trkpt>
      <trkpt lat="47.55963" lon="6.83544">
        <ele>365</ele>
        <time>2016-10-23T07:48:45.000Z</time>
      </trkpt>
      <trkpt lat="47.55967" lon="6.83535">
        <ele>365</ele>
        <time>2016-10-23T07:48:46.000Z</time>
      </trkpt>
      <trkpt lat="47.5597" lon="6.83526">
        <ele>365</ele>
        <time>2016-10-23T07:48:47.000Z</time>
      </trkpt>
      <trkpt lat="47.55972" lon="6.83515">
        <ele>365</ele>
        <time>2016-10-23T07:48:48.000Z</time>
      </trkpt>
      <trkpt lat="47.55975" lon="6.83505">
        <ele>365</ele>
        <time>2016-10-23T07:48:49.000Z</time>
      </trkpt>
      <trkpt lat="47.55977" lon="6.83494">
        <ele>364</ele>
        <time>2016-10-23T07:48:50.000Z</time>
      </trkpt>
      <trkpt lat="47.5598" lon="6.83484">
        <ele>364</ele>
        <time>2016-10-23T07:48:51.000Z</time>
      </trkpt>
      <trkpt lat="47.55982" lon="6.83474">
        <ele>364</ele>
        <time>2016-10-23T07:48:52.000Z</time>
      </trkpt>
      <trkpt lat="47.55984" lon="6.83464">
        <ele>364</ele>
        <time>2016-10-23T07:48:53.000Z</time>
      </trkpt>
      <trkpt lat="47.55985" lon="6.83454">
        <ele>364</ele>
        <time>2016-10-23T07:48:54.000Z</time>
      </trkpt>
      <trkpt lat="47.55986" lon="6.83444">
        <ele>364</ele>
        <time>2016-10-23T07:48:55.000Z</time>
      </trkpt>
      <trkpt lat="47.55988" lon="6.83434">
        <ele>365</ele>
        <time>2016-10-23T07:48:56.000Z</time>
      </trkpt>
      <trkpt lat="47.55991" lon="6.83424">
        <ele>365</ele>
        <time>2016-10-23T07:48:57.000Z</time>
      </trkpt>
      <trkpt lat="47.55992" lon="6.83414">
        <ele>365</ele>
        <time>2016-10-23T07:48:58.000Z</time>
      </trkpt>
      <trkpt lat="47.55993" lon="6.83406">
        <ele>365</ele>
        <time>2016-10-23T07:48:59.000Z</time>
      </trkpt>
      <trkpt lat="47.55994" lon="6.83398">
        <ele>365</ele>
        <time>2016-10-23T07:49:00.000Z</time>
      </trkpt>
      <trkpt lat="47.55994" lon="6.83388">
        <ele>365</ele>
        <time>2016-10-23T07:49:01.000Z</time>
      </trkpt>
      <trkpt lat="47.55994" lon="6.83378">
        <ele>365</ele>
        <time>2016-10-23T07:49:02.000Z</time>
      </trkpt>
      <trkpt lat="47.55993" lon="6.83368">
        <ele>365</ele>
        <time>2016-10-23T07:49:03.000Z</time>
      </trkpt>
      <trkpt lat="47.55994" lon="6.83357">
        <ele>365</ele>
        <time>2016-10-23T07:49:04.000Z</time>
      </trkpt>
      <trkpt lat="47.55994" lon="6.83346">
        <ele>366</ele>
        <time>2016-10-23T07:49:05.000Z</time>
      </trkpt>
      <trkpt lat="47.55993" lon="6.83334">
        <ele>366</ele>
        <time>2016-10-23T07:49:06.000Z</time>
      </trkpt>
      <trkpt lat="47.5599" lon="6.83326">
        <ele>366</ele>
        <time>2016-10-23T07:49:07.000Z</time>
      </trkpt>
      <trkpt lat="47.55989" lon="6.83317">
        <ele>366</ele>
        <time>2016-10-23T07:49:08.001Z</time>
      </trkpt>
      <trkpt lat="47.55989" lon="6.83303">
        <ele>366</ele>
        <time>2016-10-23T07:49:09.000Z</time>
      </trkpt>
      <trkpt lat="47.55987" lon="6.83294">
        <ele>366</ele>
        <time>2016-10-23T07:49:10.000Z</time>
      </trkpt>
      <trkpt lat="47.55986" lon="6.83282">
        <ele>366</ele>
        <time>2016-10-23T07:49:11.000Z</time>
      </trkpt>
      <trkpt lat="47.55986" lon="6.83273">
        <ele>367</ele>
        <time>2016-10-23T07:49:12.000Z</time>
      </trkpt>
      <trkpt lat="47.55986" lon="6.83265">
        <ele>367</ele>
        <time>2016-10-23T07:49:13.000Z</time>
      </trkpt>
      <trkpt lat="47.55985" lon="6.83258">
        <ele>367</ele>
        <time>2016-10-23T07:49:14.000Z</time>
      </trkpt>
      <trkpt lat="47.55984" lon="6.83251">
        <ele>367</ele>
        <time>2016-10-23T07:49:15.000Z</time>
      </trkpt>
      <trkpt lat="47.55984" lon="6.83244">
        <ele>368</ele>
        <time>2016-10-23T07:49:16.000Z</time>
      </trkpt>
      <trkpt lat="47.55983" lon="6.83238">
        <ele>368</ele>
        <time>2016-10-23T07:49:17.000Z</time>
      </trkpt>
      <trkpt lat="47.55982" lon="6.8323">
        <ele>367</ele>
        <time>2016-10-23T07:49:18.000Z</time>
      </trkpt>
      <trkpt lat="47.55981" lon="6.83223">
        <ele>367</ele>
        <time>2016-10-23T07:49:19.000Z</time>
      </trkpt>
      <trkpt lat="47.5598" lon="6.83215">
        <ele>367</ele>
        <time>2016-10-23T07:49:20.000Z</time>
      </trkpt>
      <trkpt lat="47.55979" lon="6.83206">
        <ele>367</ele>
        <time>2016-10-23T07:49:21.000Z</time>
      </trkpt>
      <trkpt lat="47.55978" lon="6.83198">
        <ele>367</ele>
        <time>2016-10-23T07:49:22.000Z</time>
      </trkpt>
      <trkpt lat="47.55977" lon="6.8319">
        <ele>367</ele>
        <time>2016-10-23T07:49:23.000Z</time>
      </trkpt>
      <trkpt lat="47.55977" lon="6.83182">
        <ele>367</ele>
        <time>2016-10-23T07:49:24.000Z</time>
      </trkpt>
      <trkpt lat="47.55976" lon="6.83175">
        <ele>367</ele>
        <time>2016-10-23T07:49:25.000Z</time>
      </trkpt>
      <trkpt lat="47.55975" lon="6.83167">
        <ele>367</ele>
        <time>2016-10-23T07:49:26.000Z</time>
      </trkpt>
      <trkpt lat="47.55973" lon="6.83159">
        <ele>367</ele>
        <time>2016-10-23T07:49:27.000Z</time>
      </trkpt>
      <trkpt lat="47.55972" lon="6.83151">
        <ele>367</ele>
        <time>2016-10-23T07:49:28.000Z</time>
      </trkpt>
      <trkpt lat="47.55971" lon="6.83143">
        <ele>366</ele>
        <time>2016-10-23T07:49:29.000Z</time>
      </trkpt>
      <trkpt lat="47.55971" lon="6.83135">
        <ele>366</ele>
        <time>2016-10-23T07:49:30.000Z</time>
      </trkpt>
      <trkpt lat="47.55972" lon="6.83128">
        <ele>366</ele>
        <time>2016-10-23T07:49:31.000Z</time>
      </trkpt>
      <trkpt lat="47.55974" lon="6.83121">
        <ele>366</ele>
        <time>2016-10-23T07:49:32.000Z</time>
      </trkpt>
      <trkpt lat="47.55977" lon="6.83114">
        <ele>366</ele>
        <time>2016-10-23T07:49:33.000Z</time>
      </trkpt>
      <trkpt lat="47.55979" lon="6.83107">
        <ele>366</ele>
        <time>2016-10-23T07:49:34.000Z</time>
      </trkpt>
      <trkpt lat="47.55982" lon="6.831">
        <ele>366</ele>
        <time>2016-10-23T07:49:35.000Z</time>
      </trkpt>
      <trkpt lat="47.55987" lon="6.83094">
        <ele>366</ele>
        <time>2016-10-23T07:49:36.000Z</time>
      </trkpt>
      <trkpt lat="47.55991" lon="6.83089">
        <ele>366</ele>
        <time>2016-10-23T07:49:37.000Z</time>
      </trkpt>
      <trkpt lat="47.55996" lon="6.83085">
        <ele>366</ele>
        <time>2016-10-23T07:49:38.000Z</time>
      </trkpt>
      <trkpt lat="47.56001" lon="6.8308">
        <ele>366</ele>
        <time>2016-10-23T07:49:39.000Z</time>
      </trkpt>
      <trkpt lat="47.56005" lon="6.83084">
        <ele>367</ele>
        <time>2016-10-23T07:49:40.000Z</time>
      </trkpt>
      <trkpt lat="47.56009" lon="6.83083">
        <ele>367</ele>
        <time>2016-10-23T07:49:41.000Z</time>
      </trkpt>
      <trkpt lat="47.56013" lon="6.83084">
        <ele>367</ele>
        <time>2016-10-23T07:49:42.000Z</time>
      </trkpt>
      <trkpt lat="47.56016" lon="6.83086">
        <ele>367</ele>
        <time>2016-10-23T07:49:43.000Z</time>
      </trkpt>
      <trkpt lat="47.56022" lon="6.83082">
        <ele>366</ele>
        <time>2016-10-23T07:49:44.000Z</time>
      </trkpt>
      <trkpt lat="47.56029" lon="6.83079">
        <ele>366</ele>
        <time>2016-10-23T07:49:45.000Z</time>
      </trkpt>
      <trkpt lat="47.56035" lon="6.83079">
        <ele>366</ele>
        <time>2016-10-23T07:49:46.000Z</time>
      </trkpt>
      <trkpt lat="47.5604" lon="6.83079">
        <ele>366</ele>
        <time>2016-10-23T07:49:47.000Z</time>
      </trkpt>
      <trkpt lat="47.56046" lon="6.83078">
        <ele>366</ele>
        <time>2016-10-23T07:49:48.000Z</time>
      </trkpt>
      <trkpt lat="47.56051" lon="6.83076">
        <ele>366</ele>
        <time>2016-10-23T07:49:49.000Z</time>
      </trkpt>
      <trkpt lat="47.56059" lon="6.83077">
        <ele>367</ele>
        <time>2016-10-23T07:49:51.000Z</time>
      </trkpt>
      <trkpt lat="47.56063" lon="6.83076">
        <ele>367</ele>
        <time>2016-10-23T07:49:52.000Z</time>
      </trkpt>
      <trkpt lat="47.56069" lon="6.83074">
        <ele>367</ele>
        <time>2016-10-23T07:49:53.000Z</time>
      </trkpt>
      <trkpt lat="47.56075" lon="6.83073">
        <ele>368</ele>
        <time>2016-10-23T07:49:54.000Z</time>
      </trkpt>
      <trkpt lat="47.5608" lon="6.83072">
        <ele>368</ele>
        <time>2016-10-23T07:49:54.999Z</time>
      </trkpt>
      <trkpt lat="47.56084" lon="6.83072">
        <ele>368</ele>
        <time>2016-10-23T07:49:56.000Z</time>
      </trkpt>
      <trkpt lat="47.56089" lon="6.83071">
        <ele>368</ele>
        <time>2016-10-23T07:49:57.000Z</time>
      </trkpt>
      <trkpt lat="47.56093" lon="6.83071">
        <ele>368</ele>
        <time>2016-10-23T07:49:58.000Z</time>
      </trkpt>
      <trkpt lat="47.56097" lon="6.83068">
        <ele>368</ele>
        <time>2016-10-23T07:49:59.000Z</time>
      </trkpt>
      <trkpt lat="47.56102" lon="6.83066">
        <ele>368</ele>
        <time>2016-10-23T07:49:59.998Z</time>
      </trkpt>
      <trkpt lat="47.56106" lon="6.83064">
        <ele>368</ele>
        <time>2016-10-23T07:50:01.000Z</time>
      </trkpt>
      <trkpt lat="47.5611" lon="6.83059">
        <ele>368</ele>
        <time>2016-10-23T07:50:02.000Z</time>
      </trkpt>
      <trkpt lat="47.56114" lon="6.83055">
        <ele>368</ele>
        <time>2016-10-23T07:50:03.000Z</time>
      </trkpt>
      <trkpt lat="47.56119" lon="6.83049">
        <ele>368</ele>
        <time>2016-10-23T07:50:04.000Z</time>
      </trkpt>
      <trkpt lat="47.56124" lon="6.83044">
        <ele>368</ele>
        <time>2016-10-23T07:50:05.000Z</time>
      </trkpt>
      <trkpt lat="47.56128" lon="6.83039">
        <ele>367</ele>
        <time>2016-10-23T07:50:06.000Z</time>
      </trkpt>
      <trkpt lat="47.56134" lon="6.8303">
        <ele>367</ele>
        <time>2016-10-23T07:50:07.000Z</time>
      </trkpt>
      <trkpt lat="47.56138" lon="6.83025">
        <ele>367</ele>
        <time>2016-10-23T07:50:08.001Z</time>
      </trkpt>
      <trkpt lat="47.56143" lon="6.83014">
        <ele>367</ele>
        <time>2016-10-23T07:50:09.001Z</time>
      </trkpt>
      <trkpt lat="47.56149" lon="6.83006">
        <ele>366</ele>
        <time>2016-10-23T07:50:10.000Z</time>
      </trkpt>
      <trkpt lat="47.56153" lon="6.83003">
        <ele>366</ele>
        <time>2016-10-23T07:50:11.000Z</time>
      </trkpt>
      <trkpt lat="47.56159" lon="6.82997">
        <ele>365</ele>
        <time>2016-10-23T07:50:12.000Z</time>
      </trkpt>
      <trkpt lat="47.56164" lon="6.82991">
        <ele>365</ele>
        <time>2016-10-23T07:50:13.001Z</time>
      </trkpt>
      <trkpt lat="47.56174" lon="6.82986">
        <ele>365</ele>
        <time>2016-10-23T07:50:14.000Z</time>
      </trkpt>
      <trkpt lat="47.56183" lon="6.82977">
        <ele>365</ele>
        <time>2016-10-23T07:50:15.000Z</time>
      </trkpt>
      <trkpt lat="47.5619" lon="6.8297">
        <ele>365</ele>
        <time>2016-10-23T07:50:16.000Z</time>
      </trkpt>
      <trkpt lat="47.56198" lon="6.82967">
        <ele>365</ele>
        <time>2016-10-23T07:50:17.000Z</time>
      </trkpt>
      <trkpt lat="47.56207" lon="6.82964">
        <ele>365</ele>
        <time>2016-10-23T07:50:18.000Z</time>
      </trkpt>
      <trkpt lat="47.56214" lon="6.82963">
        <ele>365</ele>
        <time>2016-10-23T07:50:19.000Z</time>
      </trkpt>
      <trkpt lat="47.56221" lon="6.82961">
        <ele>365</ele>
        <time>2016-10-23T07:50:20.000Z</time>
      </trkpt>
      <trkpt lat="47.56227" lon="6.82961">
        <ele>365</ele>
        <time>2016-10-23T07:50:21.000Z</time>
      </trkpt>
      <trkpt lat="47.56234" lon="6.8296">
        <ele>365</ele>
        <time>2016-10-23T07:50:22.000Z</time>
      </trkpt>
      <trkpt lat="47.56241" lon="6.82958">
        <ele>365</ele>
        <time>2016-10-23T07:50:23.000Z</time>
      </trkpt>
      <trkpt lat="47.56248" lon="6.82955">
        <ele>365</ele>
        <time>2016-10-23T07:50:24.000Z</time>
      </trkpt>
      <trkpt lat="47.56255" lon="6.82953">
        <ele>365</ele>
        <time>2016-10-23T07:50:25.000Z</time>
      </trkpt>
      <trkpt lat="47.56262" lon="6.8295">
        <ele>365</ele>
        <time>2016-10-23T07:50:26.000Z</time>
      </trkpt>
      <trkpt lat="47.56268" lon="6.82948">
        <ele>365</ele>
        <time>2016-10-23T07:50:27.000Z</time>
      </trkpt>
      <trkpt lat="47.56275" lon="6.82947">
        <ele>365</ele>
        <time>2016-10-23T07:50:28.000Z</time>
      </trkpt>
      <trkpt lat="47.56281" lon="6.82945">
        <ele>365</ele>
        <time>2016-10-23T07:50:29.000Z</time>
      </trkpt>
      <trkpt lat="47.56287" lon="6.82944">
        <ele>365</ele>
        <time>2016-10-23T07:50:30.000Z</time>
      </trkpt>
      <trkpt lat="47.56293" lon="6.82943">
        <ele>365</ele>
        <time>2016-10-23T07:50:31.000Z</time>
      </trkpt>
      <trkpt lat="47.563" lon="6.8294">
        <ele>365</ele>
        <time>2016-10-23T07:50:32.000Z</time>
      </trkpt>
      <trkpt lat="47.56306" lon="6.82939">
        <ele>365</ele>
        <time>2016-10-23T07:50:33.000Z</time>
      </trkpt>
      <trkpt lat="47.56313" lon="6.82939">
        <ele>365</ele>
        <time>2016-10-23T07:50:34.000Z</time>
      </trkpt>
      <trkpt lat="47.56319" lon="6.82938">
        <ele>365</ele>
        <time>2016-10-23T07:50:35.000Z</time>
      </trkpt>
      <trkpt lat="47.56325" lon="6.82936">
        <ele>365</ele>
        <time>2016-10-23T07:50:36.000Z</time>
      </trkpt>
      <trkpt lat="47.56331" lon="6.82936">
        <ele>365</ele>
        <time>2016-10-23T07:50:37.000Z</time>
      </trkpt>
      <trkpt lat="47.56337" lon="6.82935">
        <ele>365</ele>
        <time>2016-10-23T07:50:38.000Z</time>
      </trkpt>
      <trkpt lat="47.56343" lon="6.82932">
        <ele>365</ele>
        <time>2016-10-23T07:50:39.000Z</time>
      </trkpt>
      <trkpt lat="47.56349" lon="6.8293">
        <ele>365</ele>
        <time>2016-10-23T07:50:40.000Z</time>
      </trkpt>
      <trkpt lat="47.56354" lon="6.8293">
        <ele>365</ele>
        <time>2016-10-23T07:50:41.000Z</time>
      </trkpt>
      <trkpt lat="47.56361" lon="6.82929">
        <ele>365</ele>
        <time>2016-10-23T07:50:42.000Z</time>
      </trkpt>
      <trkpt lat="47.56366" lon="6.82931">
        <ele>365</ele>
        <time>2016-10-23T07:50:43.000Z</time>
      </trkpt>
      <trkpt lat="47.56372" lon="6.82932">
        <ele>365</ele>
        <time>2016-10-23T07:50:44.000Z</time>
      </trkpt>
      <trkpt lat="47.56383" lon="6.82938">
        <ele>365</ele>
        <time>2016-10-23T07:50:46.000Z</time>
      </trkpt>
      <trkpt lat="47.56387" lon="6.8294">
        <ele>365</ele>
        <time>2016-10-23T07:50:47.000Z</time>
      </trkpt>
      <trkpt lat="47.56393" lon="6.82944">
        <ele>365</ele>
        <time>2016-10-23T07:50:48.000Z</time>
      </trkpt>
      <trkpt lat="47.56398" lon="6.82947">
        <ele>365</ele>
        <time>2016-10-23T07:50:49.000Z</time>
      </trkpt>
      <trkpt lat="47.56403" lon="6.82951">
        <ele>365</ele>
        <time>2016-10-23T07:50:50.000Z</time>
      </trkpt>
      <trkpt lat="47.56408" lon="6.82955">
        <ele>365</ele>
        <time>2016-10-23T07:50:51.000Z</time>
      </trkpt>
      <trkpt lat="47.56413" lon="6.82959">
        <ele>365</ele>
        <time>2016-10-23T07:50:52.000Z</time>
      </trkpt>
      <trkpt lat="47.56418" lon="6.82962">
        <ele>363</ele>
        <time>2016-10-23T07:50:53.000Z</time>
      </trkpt>
      <trkpt lat="47.56422" lon="6.82965">
        <ele>363</ele>
        <time>2016-10-23T07:50:54.000Z</time>
      </trkpt>
      <trkpt lat="47.56428" lon="6.82968">
        <ele>363</ele>
        <time>2016-10-23T07:50:55.001Z</time>
      </trkpt>
      <trkpt lat="47.56434" lon="6.82969">
        <ele>363</ele>
        <time>2016-10-23T07:50:56.000Z</time>
      </trkpt>
      <trkpt lat="47.5644" lon="6.82969">
        <ele>363</ele>
        <time>2016-10-23T07:50:57.000Z</time>
      </trkpt>
      <trkpt lat="47.56445" lon="6.82968">
        <ele>363</ele>
        <time>2016-10-23T07:50:58.000Z</time>
      </trkpt>
      <trkpt lat="47.56451" lon="6.82967">
        <ele>363</ele>
        <time>2016-10-23T07:50:58.999Z</time>
      </trkpt>
      <trkpt lat="47.56456" lon="6.8296">
        <ele>363</ele>
        <time>2016-10-23T07:51:00.000Z</time>
      </trkpt>
      <trkpt lat="47.56463" lon="6.82957">
        <ele>363</ele>
        <time>2016-10-23T07:51:01.000Z</time>
      </trkpt>
      <trkpt lat="47.56468" lon="6.82955">
        <ele>363</ele>
        <time>2016-10-23T07:51:02.000Z</time>
      </trkpt>
      <trkpt lat="47.56474" lon="6.82953">
        <ele>362</ele>
        <time>2016-10-23T07:51:03.000Z</time>
      </trkpt>
      <trkpt lat="47.5648" lon="6.82949">
        <ele>362</ele>
        <time>2016-10-23T07:51:04.000Z</time>
      </trkpt>
      <trkpt lat="47.56485" lon="6.82945">
        <ele>362</ele>
        <time>2016-10-23T07:51:05.000Z</time>
      </trkpt>
      <trkpt lat="47.56491" lon="6.82941">
        <ele>362</ele>
        <time>2016-10-23T07:51:06.000Z</time>
      </trkpt>
      <trkpt lat="47.56496" lon="6.82936">
        <ele>362</ele>
        <time>2016-10-23T07:51:07.000Z</time>
      </trkpt>
      <trkpt lat="47.56501" lon="6.82931">
        <ele>361</ele>
        <time>2016-10-23T07:51:08.000Z</time>
      </trkpt>
      <trkpt lat="47.56505" lon="6.82925">
        <ele>361</ele>
        <time>2016-10-23T07:51:09.000Z</time>
      </trkpt>
      <trkpt lat="47.56509" lon="6.82918">
        <ele>361</ele>
        <time>2016-10-23T07:51:10.000Z</time>
      </trkpt>
      <trkpt lat="47.56512" lon="6.82909">
        <ele>362</ele>
        <time>2016-10-23T07:51:11.000Z</time>
      </trkpt>
      <trkpt lat="47.56514" lon="6.82899">
        <ele>363</ele>
        <time>2016-10-23T07:51:12.000Z</time>
      </trkpt>
      <trkpt lat="47.56516" lon="6.82889">
        <ele>364</ele>
        <time>2016-10-23T07:51:13.000Z</time>
      </trkpt>
      <trkpt lat="47.56518" lon="6.82879">
        <ele>364</ele>
        <time>2016-10-23T07:51:14.000Z</time>
      </trkpt>
      <trkpt lat="47.5652" lon="6.82869">
        <ele>365</ele>
        <time>2016-10-23T07:51:15.000Z</time>
      </trkpt>
      <trkpt lat="47.56523" lon="6.8286">
        <ele>365</ele>
        <time>2016-10-23T07:51:16.000Z</time>
      </trkpt>
      <trkpt lat="47.56526" lon="6.8285">
        <ele>366</ele>
        <time>2016-10-23T07:51:17.000Z</time>
      </trkpt>
      <trkpt lat="47.56529" lon="6.82839">
        <ele>366</ele>
        <time>2016-10-23T07:51:18.000Z</time>
      </trkpt>
      <trkpt lat="47.56533" lon="6.82831">
        <ele>367</ele>
        <time>2016-10-23T07:51:19.000Z</time>
      </trkpt>
      <trkpt lat="47.56537" lon="6.82824">
        <ele>367</ele>
        <time>2016-10-23T07:51:20.000Z</time>
      </trkpt>
      <trkpt lat="47.56542" lon="6.82818">
        <ele>367</ele>
        <time>2016-10-23T07:51:21.000Z</time>
      </trkpt>
      <trkpt lat="47.56547" lon="6.82812">
        <ele>367</ele>
        <time>2016-10-23T07:51:22.000Z</time>
      </trkpt>
      <trkpt lat="47.56552" lon="6.82808">
        <ele>367</ele>
        <time>2016-10-23T07:51:23.000Z</time>
      </trkpt>
      <trkpt lat="47.56556" lon="6.82802">
        <ele>367</ele>
        <time>2016-10-23T07:51:24.000Z</time>
      </trkpt>
      <trkpt lat="47.5656" lon="6.82795">
        <ele>367</ele>
        <time>2016-10-23T07:51:25.000Z</time>
      </trkpt>
      <trkpt lat="47.56563" lon="6.82792">
        <ele>367</ele>
        <time>2016-10-23T07:51:26.000Z</time>
      </trkpt>
      <trkpt lat="47.56567" lon="6.82787">
        <ele>367</ele>
        <time>2016-10-23T07:51:27.000Z</time>
      </trkpt>
      <trkpt lat="47.56571" lon="6.82782">
        <ele>367</ele>
        <time>2016-10-23T07:51:28.000Z</time>
      </trkpt>
      <trkpt lat="47.56575" lon="6.82778">
        <ele>367</ele>
        <time>2016-10-23T07:51:29.000Z</time>
      </trkpt>
      <trkpt lat="47.56578" lon="6.82774">
        <ele>367</ele>
        <time>2016-10-23T07:51:30.000Z</time>
      </trkpt>
      <trkpt lat="47.56582" lon="6.82769">
        <ele>367</ele>
        <time>2016-10-23T07:51:31.000Z</time>
      </trkpt>
      <trkpt lat="47.56589" lon="6.82763">
        <ele>368</ele>
        <time>2016-10-23T07:51:32.000Z</time>
      </trkpt>
      <trkpt lat="47.56593" lon="6.82759">
        <ele>368</ele>
        <time>2016-10-23T07:51:33.000Z</time>
      </trkpt>
      <trkpt lat="47.56596" lon="6.82754">
        <ele>368</ele>
        <time>2016-10-23T07:51:34.000Z</time>
      </trkpt>
      <trkpt lat="47.56598" lon="6.82753">
        <ele>368</ele>
        <time>2016-10-23T07:51:35.000Z</time>
      </trkpt>
      <trkpt lat="47.56602" lon="6.8275">
        <ele>366</ele>
        <time>2016-10-23T07:51:36.000Z</time>
      </trkpt>
      <trkpt lat="47.56609" lon="6.8274">
        <ele>366</ele>
        <time>2016-10-23T07:51:37.000Z</time>
      </trkpt>
      <trkpt lat="47.56615" lon="6.82737">
        <ele>366</ele>
        <time>2016-10-23T07:51:38.000Z</time>
      </trkpt>
      <trkpt lat="47.5662" lon="6.82732">
        <ele>366</ele>
        <time>2016-10-23T07:51:39.000Z</time>
      </trkpt>
      <trkpt lat="47.56626" lon="6.82728">
        <ele>366</ele>
        <time>2016-10-23T07:51:40.000Z</time>
      </trkpt>
      <trkpt lat="47.56631" lon="6.82727">
        <ele>366</ele>
        <time>2016-10-23T07:51:41.000Z</time>
      </trkpt>
      <trkpt lat="47.56636" lon="6.82727">
        <ele>366</ele>
        <time>2016-10-23T07:51:42.000Z</time>
      </trkpt>
      <trkpt lat="47.56642" lon="6.82719">
        <ele>366</ele>
        <time>2016-10-23T07:51:43.000Z</time>
      </trkpt>
      <trkpt lat="47.56648" lon="6.82713">
        <ele>366</ele>
        <time>2016-10-23T07:51:44.000Z</time>
      </trkpt>
      <trkpt lat="47.56653" lon="6.82706">
        <ele>366</ele>
        <time>2016-10-23T07:51:45.000Z</time>
      </trkpt>
      <trkpt lat="47.56659" lon="6.82697">
        <ele>365</ele>
        <time>2016-10-23T07:51:46.000Z</time>
      </trkpt>
      <trkpt lat="47.56665" lon="6.82689">
        <ele>365</ele>
        <time>2016-10-23T07:51:47.000Z</time>
      </trkpt>
      <trkpt lat="47.56672" lon="6.82682">
        <ele>366</ele>
        <time>2016-10-23T07:51:48.000Z</time>
      </trkpt>
      <trkpt lat="47.56678" lon="6.82675">
        <ele>365</ele>
        <time>2016-10-23T07:51:49.000Z</time>
      </trkpt>
      <trkpt lat="47.56683" lon="6.8267">
        <ele>366</ele>
        <time>2016-10-23T07:51:49.943Z</time>
      </trkpt>
      <trkpt lat="47.56689" lon="6.82666">
        <ele>364</ele>
        <time>2016-10-23T07:51:51.000Z</time>
      </trkpt>
      <trkpt lat="47.56696" lon="6.8266">
        <ele>364</ele>
        <time>2016-10-23T07:51:52.000Z</time>
      </trkpt>
      <trkpt lat="47.56702" lon="6.82656">
        <ele>364</ele>
        <time>2016-10-23T07:51:53.000Z</time>
      </trkpt>
      <trkpt lat="47.56708" lon="6.82653">
        <ele>364</ele>
        <time>2016-10-23T07:51:54.000Z</time>
      </trkpt>
      <trkpt lat="47.56715" lon="6.82653">
        <ele>365</ele>
        <time>2016-10-23T07:51:55.000Z</time>
      </trkpt>
      <trkpt lat="47.56721" lon="6.82652">
        <ele>365</ele>
        <time>2016-10-23T07:51:56.000Z</time>
      </trkpt>
      <trkpt lat="47.56724" lon="6.82653">
        <ele>365</ele>
        <time>2016-10-23T07:51:57.000Z</time>
      </trkpt>
      <trkpt lat="47.56731" lon="6.82652">
        <ele>365</ele>
        <time>2016-10-23T07:51:58.000Z</time>
      </trkpt>
      <trkpt lat="47.56736" lon="6.82651">
        <ele>365</ele>
        <time>2016-10-23T07:51:59.000Z</time>
      </trkpt>
      <trkpt lat="47.56742" lon="6.8265">
        <ele>365</ele>
        <time>2016-10-23T07:52:00.000Z</time>
      </trkpt>
      <trkpt lat="47.56747" lon="6.82648">
        <ele>365</ele>
        <time>2016-10-23T07:52:01.000Z</time>
      </trkpt>
      <trkpt lat="47.56752" lon="6.82647">
        <ele>367</ele>
        <time>2016-10-23T07:52:02.000Z</time>
      </trkpt>
      <trkpt lat="47.56758" lon="6.82649">
        <ele>367</ele>
        <time>2016-10-23T07:52:03.000Z</time>
      </trkpt>
      <trkpt lat="47.56763" lon="6.82648">
        <ele>367</ele>
        <time>2016-10-23T07:52:04.000Z</time>
      </trkpt>
      <trkpt lat="47.56768" lon="6.82646">
        <ele>367</ele>
        <time>2016-10-23T07:52:05.000Z</time>
      </trkpt>
      <trkpt lat="47.56774" lon="6.82647">
        <ele>367</ele>
        <time>2016-10-23T07:52:06.000Z</time>
      </trkpt>
      <trkpt lat="47.5678" lon="6.82647">
        <ele>367</ele>
        <time>2016-10-23T07:52:07.000Z</time>
      </trkpt>
      <trkpt lat="47.56786" lon="6.82646">
        <ele>367</ele>
        <time>2016-10-23T07:52:08.000Z</time>
      </trkpt>
      <trkpt lat="47.56791" lon="6.82644">
        <ele>368</ele>
        <time>2016-10-23T07:52:09.000Z</time>
      </trkpt>
      <trkpt lat="47.56796" lon="6.82644">
        <ele>368</ele>
        <time>2016-10-23T07:52:10.000Z</time>
      </trkpt>
      <trkpt lat="47.56802" lon="6.82641">
        <ele>368</ele>
        <time>2016-10-23T07:52:11.000Z</time>
      </trkpt>
      <trkpt lat="47.56808" lon="6.82639">
        <ele>368</ele>
        <time>2016-10-23T07:52:12.000Z</time>
      </trkpt>
      <trkpt lat="47.56812" lon="6.82637">
        <ele>368</ele>
        <time>2016-10-23T07:52:13.000Z</time>
      </trkpt>
      <trkpt lat="47.56818" lon="6.82634">
        <ele>368</ele>
        <time>2016-10-23T07:52:14.000Z</time>
      </trkpt>
      <trkpt lat="47.56824" lon="6.82634">
        <ele>368</ele>
        <time>2016-10-23T07:52:15.000Z</time>
      </trkpt>
      <trkpt lat="47.56829" lon="6.82633">
        <ele>369</ele>
        <time>2016-10-23T07:52:16.000Z</time>
      </trkpt>
      <trkpt lat="47.56837" lon="6.82631">
        <ele>372</ele>
        <time>2016-10-23T07:52:17.000Z</time>
      </trkpt>
      <trkpt lat="47.56841" lon="6.82629">
        <ele>372</ele>
        <time>2016-10-23T07:52:18.000Z</time>
      </trkpt>
      <trkpt lat="47.56848" lon="6.82626">
        <ele>372</ele>
        <time>2016-10-23T07:52:19.000Z</time>
      </trkpt>
      <trkpt lat="47.56852" lon="6.82626">
        <ele>372</ele>
        <time>2016-10-23T07:52:20.000Z</time>
      </trkpt>
      <trkpt lat="47.56856" lon="6.82623">
        <ele>371</ele>
        <time>2016-10-23T07:52:21.000Z</time>
      </trkpt>
      <trkpt lat="47.56861" lon="6.82621">
        <ele>372</ele>
        <time>2016-10-23T07:52:22.000Z</time>
      </trkpt>
      <trkpt lat="47.56867" lon="6.82619">
        <ele>372</ele>
        <time>2016-10-23T07:52:23.000Z</time>
      </trkpt>
      <trkpt lat="47.56872" lon="6.82618">
        <ele>372</ele>
        <time>2016-10-23T07:52:24.000Z</time>
      </trkpt>
      <trkpt lat="47.56878" lon="6.82617">
        <ele>372</ele>
        <time>2016-10-23T07:52:25.000Z</time>
      </trkpt>
      <trkpt lat="47.56884" lon="6.82614">
        <ele>372</ele>
        <time>2016-10-23T07:52:26.000Z</time>
      </trkpt>
      <trkpt lat="47.5689" lon="6.82613">
        <ele>372</ele>
        <time>2016-10-23T07:52:27.000Z</time>
      </trkpt>
      <trkpt lat="47.56895" lon="6.8261">
        <ele>372</ele>
        <time>2016-10-23T07:52:28.000Z</time>
      </trkpt>
      <trkpt lat="47.569" lon="6.82608">
        <ele>372</ele>
        <time>2016-10-23T07:52:29.000Z</time>
      </trkpt>
      <trkpt lat="47.56905" lon="6.82605">
        <ele>372</ele>
        <time>2016-10-23T07:52:30.000Z</time>
      </trkpt>
      <trkpt lat="47.56909" lon="6.826">
        <ele>371</ele>
        <time>2016-10-23T07:52:31.000Z</time>
      </trkpt>
      <trkpt lat="47.56915" lon="6.82596">
        <ele>371</ele>
        <time>2016-10-23T07:52:32.000Z</time>
      </trkpt>
      <trkpt lat="47.56921" lon="6.82591">
        <ele>373</ele>
        <time>2016-10-23T07:52:33.000Z</time>
      </trkpt>
      <trkpt lat="47.56926" lon="6.82587">
        <ele>373</ele>
        <time>2016-10-23T07:52:34.000Z</time>
      </trkpt>
      <trkpt lat="47.56931" lon="6.82587">
        <ele>375</ele>
        <time>2016-10-23T07:52:35.000Z</time>
      </trkpt>
      <trkpt lat="47.56938" lon="6.82581">
        <ele>372</ele>
        <time>2016-10-23T07:52:36.000Z</time>
      </trkpt>
      <trkpt lat="47.56944" lon="6.82576">
        <ele>372</ele>
        <time>2016-10-23T07:52:37.000Z</time>
      </trkpt>
      <trkpt lat="47.56949" lon="6.82572">
        <ele>372</ele>
        <time>2016-10-23T07:52:38.000Z</time>
      </trkpt>
      <trkpt lat="47.56957" lon="6.82558">
        <ele>372</ele>
        <time>2016-10-23T07:52:39.000Z</time>
      </trkpt>
      <trkpt lat="47.56961" lon="6.82554">
        <ele>372</ele>
        <time>2016-10-23T07:52:40.000Z</time>
      </trkpt>
      <trkpt lat="47.56969" lon="6.8254">
        <ele>372</ele>
        <time>2016-10-23T07:52:41.000Z</time>
      </trkpt>
      <trkpt lat="47.56974" lon="6.82532">
        <ele>372</ele>
        <time>2016-10-23T07:52:42.000Z</time>
      </trkpt>
      <trkpt lat="47.56978" lon="6.82529">
        <ele>372</ele>
        <time>2016-10-23T07:52:43.000Z</time>
      </trkpt>
      <trkpt lat="47.56982" lon="6.82529">
        <ele>372</ele>
        <time>2016-10-23T07:52:44.000Z</time>
      </trkpt>
      <trkpt lat="47.56987" lon="6.82525">
        <ele>371</ele>
        <time>2016-10-23T07:52:45.000Z</time>
      </trkpt>
      <trkpt lat="47.56991" lon="6.82523">
        <ele>371</ele>
        <time>2016-10-23T07:52:46.000Z</time>
      </trkpt>
      <trkpt lat="47.56994" lon="6.82522">
        <ele>371</ele>
        <time>2016-10-23T07:52:47.000Z</time>
      </trkpt>
      <trkpt lat="47.56996" lon="6.82521">
        <ele>371</ele>
        <time>2016-10-23T07:52:48.000Z</time>
      </trkpt>
      <trkpt lat="47.56999" lon="6.82521">
        <ele>371</ele>
        <time>2016-10-23T07:52:49.000Z</time>
      </trkpt>
      <trkpt lat="47.57002" lon="6.82521">
        <ele>373</ele>
        <time>2016-10-23T07:52:50.000Z</time>
      </trkpt>
      <trkpt lat="47.57006" lon="6.82522">
        <ele>374</ele>
        <time>2016-10-23T07:52:51.000Z</time>
      </trkpt>
      <trkpt lat="47.57008" lon="6.82522">
        <ele>374</ele>
        <time>2016-10-23T07:52:52.000Z</time>
      </trkpt>
      <trkpt lat="47.57011" lon="6.82522">
        <ele>374</ele>
        <time>2016-10-23T07:52:53.000Z</time>
      </trkpt>
      <trkpt lat="47.57015" lon="6.82518">
        <ele>374</ele>
        <time>2016-10-23T07:52:54.000Z</time>
      </trkpt>
      <trkpt lat="47.57017" lon="6.82517">
        <ele>374</ele>
        <time>2016-10-23T07:52:55.000Z</time>
      </trkpt>
      <trkpt lat="47.5702" lon="6.82516">
        <ele>374</ele>
        <time>2016-10-23T07:52:56.000Z</time>
      </trkpt>
      <trkpt lat="47.57023" lon="6.82515">
        <ele>374</ele>
        <time>2016-10-23T07:52:57.000Z</time>
      </trkpt>
      <trkpt lat="47.57027" lon="6.82513">
        <ele>374</ele>
        <time>2016-10-23T07:52:58.000Z</time>
      </trkpt>
      <trkpt lat="47.5703" lon="6.82512">
        <ele>374</ele>
        <time>2016-10-23T07:52:59.000Z</time>
      </trkpt>
      <trkpt lat="47.57033" lon="6.82511">
        <ele>375</ele>
        <time>2016-10-23T07:53:00.000Z</time>
      </trkpt>
      <trkpt lat="47.57036" lon="6.82511">
        <ele>375</ele>
        <time>2016-10-23T07:53:01.000Z</time>
      </trkpt>
      <trkpt lat="47.57039" lon="6.82511">
        <ele>375</ele>
        <time>2016-10-23T07:53:02.000Z</time>
      </trkpt>
      <trkpt lat="47.57043" lon="6.82511">
        <ele>375</ele>
        <time>2016-10-23T07:53:03.000Z</time>
      </trkpt>
      <trkpt lat="47.57047" lon="6.82511">
        <ele>375</ele>
        <time>2016-10-23T07:53:04.000Z</time>
      </trkpt>
      <trkpt lat="47.57051" lon="6.82511">
        <ele>375</ele>
        <time>2016-10-23T07:53:05.000Z</time>
      </trkpt>
      <trkpt lat="47.57055" lon="6.82511">
        <ele>375</ele>
        <time>2016-10-23T07:53:06.000Z</time>
      </trkpt>
      <trkpt lat="47.5706" lon="6.8251">
        <ele>375</ele>
        <time>2016-10-23T07:53:07.000Z</time>
      </trkpt>
      <trkpt lat="47.57064" lon="6.8251">
        <ele>375</ele>
        <time>2016-10-23T07:53:08.000Z</time>
      </trkpt>
      <trkpt lat="47.57068" lon="6.82509">
        <ele>375</ele>
        <time>2016-10-23T07:53:09.000Z</time>
      </trkpt>
      <trkpt lat="47.57072" lon="6.82509">
        <ele>375</ele>
        <time>2016-10-23T07:53:10.000Z</time>
      </trkpt>
      <trkpt lat="47.57076" lon="6.82507">
        <ele>374</ele>
        <time>2016-10-23T07:53:11.000Z</time>
      </trkpt>
      <trkpt lat="47.5708" lon="6.82506">
        <ele>374</ele>
        <time>2016-10-23T07:53:12.000Z</time>
      </trkpt>
      <trkpt lat="47.57084" lon="6.82504">
        <ele>374</ele>
        <time>2016-10-23T07:53:13.000Z</time>
      </trkpt>
      <trkpt lat="47.57087" lon="6.82502">
        <ele>374</ele>
        <time>2016-10-23T07:53:14.000Z</time>
      </trkpt>
      <trkpt lat="47.57091" lon="6.825">
        <ele>375</ele>
        <time>2016-10-23T07:53:15.000Z</time>
      </trkpt>
      <trkpt lat="47.57095" lon="6.82498">
        <ele>373</ele>
        <time>2016-10-23T07:53:16.000Z</time>
      </trkpt>
      <trkpt lat="47.57099" lon="6.82496">
        <ele>373</ele>
        <time>2016-10-23T07:53:17.000Z</time>
      </trkpt>
      <trkpt lat="47.57104" lon="6.82494">
        <ele>373</ele>
        <time>2016-10-23T07:53:18.000Z</time>
      </trkpt>
      <trkpt lat="47.57108" lon="6.82491">
        <ele>373</ele>
        <time>2016-10-23T07:53:19.000Z</time>
      </trkpt>
      <trkpt lat="47.57111" lon="6.82488">
        <ele>373</ele>
        <time>2016-10-23T07:53:20.000Z</time>
      </trkpt>
      <trkpt lat="47.57115" lon="6.82486">
        <ele>373</ele>
        <time>2016-10-23T07:53:21.000Z</time>
      </trkpt>
      <trkpt lat="47.57119" lon="6.82483">
        <ele>373</ele>
        <time>2016-10-23T07:53:22.000Z</time>
      </trkpt>
      <trkpt lat="47.57122" lon="6.82481">
        <ele>373</ele>
        <time>2016-10-23T07:53:23.000Z</time>
      </trkpt>
      <trkpt lat="47.57126" lon="6.82478">
        <ele>373</ele>
        <time>2016-10-23T07:53:24.000Z</time>
      </trkpt>
      <trkpt lat="47.57134" lon="6.82461">
        <ele>372</ele>
        <time>2016-10-23T07:53:25.000Z</time>
      </trkpt>
      <trkpt lat="47.57138" lon="6.82454">
        <ele>372</ele>
        <time>2016-10-23T07:53:26.000Z</time>
      </trkpt>
      <trkpt lat="47.57142" lon="6.82444">
        <ele>372</ele>
        <time>2016-10-23T07:53:27.000Z</time>
      </trkpt>
      <trkpt lat="47.57143" lon="6.82442">
        <ele>372</ele>
        <time>2016-10-23T07:53:28.000Z</time>
      </trkpt>
      <trkpt lat="47.57146" lon="6.82435">
        <ele>372</ele>
        <time>2016-10-23T07:53:29.000Z</time>
      </trkpt>
      <trkpt lat="47.57149" lon="6.82431">
        <ele>372</ele>
        <time>2016-10-23T07:53:30.000Z</time>
      </trkpt>
      <trkpt lat="47.57151" lon="6.82424">
        <ele>372</ele>
        <time>2016-10-23T07:53:31.000Z</time>
      </trkpt>
      <trkpt lat="47.57154" lon="6.82418">
        <ele>371</ele>
        <time>2016-10-23T07:53:32.000Z</time>
      </trkpt>
      <trkpt lat="47.57157" lon="6.8241">
        <ele>371</ele>
        <time>2016-10-23T07:53:33.000Z</time>
      </trkpt>
      <trkpt lat="47.5716" lon="6.824">
        <ele>371</ele>
        <time>2016-10-23T07:53:34.000Z</time>
      </trkpt>
      <trkpt lat="47.57164" lon="6.82391">
        <ele>371</ele>
        <time>2016-10-23T07:53:35.000Z</time>
      </trkpt>
      <trkpt lat="47.57168" lon="6.82386">
        <ele>372</ele>
        <time>2016-10-23T07:53:36.000Z</time>
      </trkpt>
      <trkpt lat="47.57171" lon="6.82381">
        <ele>372</ele>
        <time>2016-10-23T07:53:37.000Z</time>
      </trkpt>
      <trkpt lat="47.57174" lon="6.82375">
        <ele>372</ele>
        <time>2016-10-23T07:53:38.000Z</time>
      </trkpt>
      <trkpt lat="47.57176" lon="6.82371">
        <ele>372</ele>
        <time>2016-10-23T07:53:39.000Z</time>
      </trkpt>
      <trkpt lat="47.57179" lon="6.82366">
        <ele>372</ele>
        <time>2016-10-23T07:53:40.000Z</time>
      </trkpt>
      <trkpt lat="47.57181" lon="6.82362">
        <ele>372</ele>
        <time>2016-10-23T07:53:41.000Z</time>
      </trkpt>
      <trkpt lat="47.57184" lon="6.82358">
        <ele>372</ele>
        <time>2016-10-23T07:53:42.000Z</time>
      </trkpt>
      <trkpt lat="47.57187" lon="6.82353">
        <ele>372</ele>
        <time>2016-10-23T07:53:43.000Z</time>
      </trkpt>
      <trkpt lat="47.57191" lon="6.82348">
        <ele>372</ele>
        <time>2016-10-23T07:53:44.000Z</time>
      </trkpt>
      <trkpt lat="47.57194" lon="6.82342">
        <ele>372</ele>
        <time>2016-10-23T07:53:45.000Z</time>
      </trkpt>
      <trkpt lat="47.57198" lon="6.8233">
        <ele>372</ele>
        <time>2016-10-23T07:53:46.000Z</time>
      </trkpt>
      <trkpt lat="47.572" lon="6.82323">
        <ele>372</ele>
        <time>2016-10-23T07:53:47.000Z</time>
      </trkpt>
      <trkpt lat="47.57203" lon="6.82318">
        <ele>372</ele>
        <time>2016-10-23T07:53:48.000Z</time>
      </trkpt>
      <trkpt lat="47.57205" lon="6.82312">
        <ele>372</ele>
        <time>2016-10-23T07:53:49.000Z</time>
      </trkpt>
      <trkpt lat="47.57207" lon="6.82305">
        <ele>372</ele>
        <time>2016-10-23T07:53:50.000Z</time>
      </trkpt>
      <trkpt lat="47.5721" lon="6.82298">
        <ele>372</ele>
        <time>2016-10-23T07:53:51.000Z</time>
      </trkpt>
      <trkpt lat="47.57213" lon="6.82291">
        <ele>372</ele>
        <time>2016-10-23T07:53:52.000Z</time>
      </trkpt>
      <trkpt lat="47.57214" lon="6.82286">
        <ele>372</ele>
        <time>2016-10-23T07:53:53.000Z</time>
      </trkpt>
      <trkpt lat="47.57217" lon="6.8228">
        <ele>372</ele>
        <time>2016-10-23T07:53:54.000Z</time>
      </trkpt>
      <trkpt lat="47.5722" lon="6.82274">
        <ele>373</ele>
        <time>2016-10-23T07:53:55.000Z</time>
      </trkpt>
      <trkpt lat="47.57227" lon="6.82268">
        <ele>373</ele>
        <time>2016-10-23T07:53:56.000Z</time>
      </trkpt>
      <trkpt lat="47.57231" lon="6.82261">
        <ele>373</ele>
        <time>2016-10-23T07:53:57.000Z</time>
      </trkpt>
      <trkpt lat="47.57234" lon="6.82254">
        <ele>373</ele>
        <time>2016-10-23T07:53:58.000Z</time>
      </trkpt>
      <trkpt lat="47.57236" lon="6.82249">
        <ele>373</ele>
        <time>2016-10-23T07:53:59.000Z</time>
      </trkpt>
      <trkpt lat="47.57238" lon="6.82243">
        <ele>373</ele>
        <time>2016-10-23T07:54:00.000Z</time>
      </trkpt>
      <trkpt lat="47.5724" lon="6.82237">
        <ele>373</ele>
        <time>2016-10-23T07:54:01.000Z</time>
      </trkpt>
      <trkpt lat="47.57243" lon="6.82232">
        <ele>373</ele>
        <time>2016-10-23T07:54:02.000Z</time>
      </trkpt>
      <trkpt lat="47.57245" lon="6.82226">
        <ele>373</ele>
        <time>2016-10-23T07:54:03.000Z</time>
      </trkpt>
      <trkpt lat="47.57247" lon="6.82223">
        <ele>372</ele>
        <time>2016-10-23T07:54:04.000Z</time>
      </trkpt>
      <trkpt lat="47.5725" lon="6.82216">
        <ele>372</ele>
        <time>2016-10-23T07:54:05.000Z</time>
      </trkpt>
      <trkpt lat="47.57252" lon="6.8221">
        <ele>374</ele>
        <time>2016-10-23T07:54:06.000Z</time>
      </trkpt>
      <trkpt lat="47.57253" lon="6.82205">
        <ele>374</ele>
        <time>2016-10-23T07:54:07.000Z</time>
      </trkpt>
      <trkpt lat="47.57254" lon="6.822">
        <ele>374</ele>
        <time>2016-10-23T07:54:08.000Z</time>
      </trkpt>
      <trkpt lat="47.57256" lon="6.82196">
        <ele>374</ele>
        <time>2016-10-23T07:54:09.000Z</time>
      </trkpt>
      <trkpt lat="47.57258" lon="6.82192">
        <ele>374</ele>
        <time>2016-10-23T07:54:10.000Z</time>
      </trkpt>
      <trkpt lat="47.5726" lon="6.82187">
        <ele>373</ele>
        <time>2016-10-23T07:54:11.000Z</time>
      </trkpt>
      <trkpt lat="47.57262" lon="6.82182">
        <ele>373</ele>
        <time>2016-10-23T07:54:12.000Z</time>
      </trkpt>
      <trkpt lat="47.57265" lon="6.82177">
        <ele>373</ele>
        <time>2016-10-23T07:54:13.000Z</time>
      </trkpt>
      <trkpt lat="47.57267" lon="6.82168">
        <ele>373</ele>
        <time>2016-10-23T07:54:14.000Z</time>
      </trkpt>
      <trkpt lat="47.57269" lon="6.82162">
        <ele>372</ele>
        <time>2016-10-23T07:54:15.000Z</time>
      </trkpt>
      <trkpt lat="47.57271" lon="6.82155">
        <ele>372</ele>
        <time>2016-10-23T07:54:16.000Z</time>
      </trkpt>
      <trkpt lat="47.57274" lon="6.82149">
        <ele>372</ele>
        <time>2016-10-23T07:54:17.000Z</time>
      </trkpt>
      <trkpt lat="47.57276" lon="6.82143">
        <ele>372</ele>
        <time>2016-10-23T07:54:18.000Z</time>
      </trkpt>
      <trkpt lat="47.57279" lon="6.82137">
        <ele>372</ele>
        <time>2016-10-23T07:54:19.000Z</time>
      </trkpt>
      <trkpt lat="47.57282" lon="6.82132">
        <ele>372</ele>
        <time>2016-10-23T07:54:20.000Z</time>
      </trkpt>
      <trkpt lat="47.57284" lon="6.82127">
        <ele>372</ele>
        <time>2016-10-23T07:54:21.000Z</time>
      </trkpt>
      <trkpt lat="47.57287" lon="6.8212">
        <ele>372</ele>
        <time>2016-10-23T07:54:22.000Z</time>
      </trkpt>
      <trkpt lat="47.57289" lon="6.82115">
        <ele>372</ele>
        <time>2016-10-23T07:54:23.000Z</time>
      </trkpt>
      <trkpt lat="47.57291" lon="6.8211">
        <ele>372</ele>
        <time>2016-10-23T07:54:24.000Z</time>
      </trkpt>
      <trkpt lat="47.57295" lon="6.82104">
        <ele>372</ele>
        <time>2016-10-23T07:54:25.000Z</time>
      </trkpt>
      <trkpt lat="47.57298" lon="6.821">
        <ele>372</ele>
        <time>2016-10-23T07:54:26.000Z</time>
      </trkpt>
      <trkpt lat="47.57302" lon="6.82095">
        <ele>372</ele>
        <time>2016-10-23T07:54:27.000Z</time>
      </trkpt>
      <trkpt lat="47.57305" lon="6.82089">
        <ele>372</ele>
        <time>2016-10-23T07:54:28.000Z</time>
      </trkpt>
      <trkpt lat="47.57308" lon="6.82083">
        <ele>372</ele>
        <time>2016-10-23T07:54:29.000Z</time>
      </trkpt>
      <trkpt lat="47.57311" lon="6.82078">
        <ele>371</ele>
        <time>2016-10-23T07:54:30.000Z</time>
      </trkpt>
      <trkpt lat="47.57313" lon="6.82072">
        <ele>371</ele>
        <time>2016-10-23T07:54:31.000Z</time>
      </trkpt>
      <trkpt lat="47.57315" lon="6.82066">
        <ele>371</ele>
        <time>2016-10-23T07:54:32.000Z</time>
      </trkpt>
      <trkpt lat="47.57317" lon="6.8206">
        <ele>371</ele>
        <time>2016-10-23T07:54:33.000Z</time>
      </trkpt>
      <trkpt lat="47.57319" lon="6.82054">
        <ele>371</ele>
        <time>2016-10-23T07:54:34.000Z</time>
      </trkpt>
      <trkpt lat="47.57322" lon="6.82049">
        <ele>371</ele>
        <time>2016-10-23T07:54:35.000Z</time>
      </trkpt>
      <trkpt lat="47.57324" lon="6.82044">
        <ele>371</ele>
        <time>2016-10-23T07:54:36.000Z</time>
      </trkpt>
      <trkpt lat="47.57327" lon="6.82038">
        <ele>371</ele>
        <time>2016-10-23T07:54:37.000Z</time>
      </trkpt>
      <trkpt lat="47.57329" lon="6.82033">
        <ele>371</ele>
        <time>2016-10-23T07:54:38.000Z</time>
      </trkpt>
      <trkpt lat="47.57331" lon="6.82028">
        <ele>371</ele>
        <time>2016-10-23T07:54:39.000Z</time>
      </trkpt>
      <trkpt lat="47.57333" lon="6.82022">
        <ele>371</ele>
        <time>2016-10-23T07:54:40.000Z</time>
      </trkpt>
      <trkpt lat="47.57336" lon="6.82017">
        <ele>371</ele>
        <time>2016-10-23T07:54:41.000Z</time>
      </trkpt>
      <trkpt lat="47.57338" lon="6.82012">
        <ele>371</ele>
        <time>2016-10-23T07:54:42.000Z</time>
      </trkpt>
      <trkpt lat="47.57341" lon="6.82007">
        <ele>371</ele>
        <time>2016-10-23T07:54:43.000Z</time>
      </trkpt>
      <trkpt lat="47.57343" lon="6.82002">
        <ele>371</ele>
        <time>2016-10-23T07:54:44.000Z</time>
      </trkpt>
      <trkpt lat="47.57346" lon="6.81998">
        <ele>372</ele>
        <time>2016-10-23T07:54:45.000Z</time>
      </trkpt>
      <trkpt lat="47.57349" lon="6.81993">
        <ele>372</ele>
        <time>2016-10-23T07:54:46.000Z</time>
      </trkpt>
      <trkpt lat="47.57352" lon="6.81988">
        <ele>372</ele>
        <time>2016-10-23T07:54:47.000Z</time>
      </trkpt>
      <trkpt lat="47.57356" lon="6.81984">
        <ele>373</ele>
        <time>2016-10-23T07:54:48.000Z</time>
      </trkpt>
      <trkpt lat="47.57359" lon="6.81979">
        <ele>373</ele>
        <time>2016-10-23T07:54:49.000Z</time>
      </trkpt>
      <trkpt lat="47.57362" lon="6.81974">
        <ele>373</ele>
        <time>2016-10-23T07:54:50.000Z</time>
      </trkpt>
      <trkpt lat="47.57364" lon="6.81969">
        <ele>373</ele>
        <time>2016-10-23T07:54:51.000Z</time>
      </trkpt>
      <trkpt lat="47.57367" lon="6.81964">
        <ele>373</ele>
        <time>2016-10-23T07:54:52.000Z</time>
      </trkpt>
      <trkpt lat="47.57369" lon="6.81959">
        <ele>374</ele>
        <time>2016-10-23T07:54:53.000Z</time>
      </trkpt>
      <trkpt lat="47.57371" lon="6.81955">
        <ele>374</ele>
        <time>2016-10-23T07:54:54.000Z</time>
      </trkpt>
      <trkpt lat="47.57373" lon="6.8195">
        <ele>374</ele>
        <time>2016-10-23T07:54:55.000Z</time>
      </trkpt>
      <trkpt lat="47.57376" lon="6.81946">
        <ele>374</ele>
        <time>2016-10-23T07:54:56.000Z</time>
      </trkpt>
      <trkpt lat="47.57378" lon="6.81941">
        <ele>374</ele>
        <time>2016-10-23T07:54:57.000Z</time>
      </trkpt>
      <trkpt lat="47.57381" lon="6.81936">
        <ele>374</ele>
        <time>2016-10-23T07:54:58.000Z</time>
      </trkpt>
      <trkpt lat="47.57383" lon="6.8193">
        <ele>374</ele>
        <time>2016-10-23T07:54:59.000Z</time>
      </trkpt>
      <trkpt lat="47.57386" lon="6.81924">
        <ele>374</ele>
        <time>2016-10-23T07:55:00.000Z</time>
      </trkpt>
      <trkpt lat="47.57388" lon="6.81919">
        <ele>374</ele>
        <time>2016-10-23T07:55:01.000Z</time>
      </trkpt>
      <trkpt lat="47.57391" lon="6.81913">
        <ele>375</ele>
        <time>2016-10-23T07:55:02.000Z</time>
      </trkpt>
      <trkpt lat="47.57393" lon="6.81908">
        <ele>375</ele>
        <time>2016-10-23T07:55:03.000Z</time>
      </trkpt>
      <trkpt lat="47.57395" lon="6.81903">
        <ele>375</ele>
        <time>2016-10-23T07:55:04.000Z</time>
      </trkpt>
      <trkpt lat="47.57397" lon="6.81898">
        <ele>375</ele>
        <time>2016-10-23T07:55:05.001Z</time>
      </trkpt>
      <trkpt lat="47.57399" lon="6.81891">
        <ele>375</ele>
        <time>2016-10-23T07:55:06.000Z</time>
      </trkpt>
      <trkpt lat="47.574" lon="6.81884">
        <ele>375</ele>
        <time>2016-10-23T07:55:07.000Z</time>
      </trkpt>
      <trkpt lat="47.57401" lon="6.81877">
        <ele>375</ele>
        <time>2016-10-23T07:55:08.000Z</time>
      </trkpt>
      <trkpt lat="47.57403" lon="6.81871">
        <ele>375</ele>
        <time>2016-10-23T07:55:09.000Z</time>
      </trkpt>
      <trkpt lat="47.57405" lon="6.81858">
        <ele>375</ele>
        <time>2016-10-23T07:55:10.000Z</time>
      </trkpt>
      <trkpt lat="47.57407" lon="6.8185">
        <ele>375</ele>
        <time>2016-10-23T07:55:11.000Z</time>
      </trkpt>
      <trkpt lat="47.57408" lon="6.81844">
        <ele>374</ele>
        <time>2016-10-23T07:55:12.000Z</time>
      </trkpt>
      <trkpt lat="47.57412" lon="6.81839">
        <ele>374</ele>
        <time>2016-10-23T07:55:13.000Z</time>
      </trkpt>
      <trkpt lat="47.57415" lon="6.81833">
        <ele>374</ele>
        <time>2016-10-23T07:55:14.000Z</time>
      </trkpt>
      <trkpt lat="47.57415" lon="6.81826">
        <ele>375</ele>
        <time>2016-10-23T07:55:15.000Z</time>
      </trkpt>
      <trkpt lat="47.57416" lon="6.81819">
        <ele>375</ele>
        <time>2016-10-23T07:55:16.000Z</time>
      </trkpt>
      <trkpt lat="47.57416" lon="6.81812">
        <ele>375</ele>
        <time>2016-10-23T07:55:17.000Z</time>
      </trkpt>
      <trkpt lat="47.57416" lon="6.81806">
        <ele>375</ele>
        <time>2016-10-23T07:55:18.000Z</time>
      </trkpt>
      <trkpt lat="47.57416" lon="6.81801">
        <ele>375</ele>
        <time>2016-10-23T07:55:19.000Z</time>
      </trkpt>
      <trkpt lat="47.57417" lon="6.81795">
        <ele>376</ele>
        <time>2016-10-23T07:55:20.000Z</time>
      </trkpt>
      <trkpt lat="47.57417" lon="6.8179">
        <ele>376</ele>
        <time>2016-10-23T07:55:21.000Z</time>
      </trkpt>
      <trkpt lat="47.57417" lon="6.81785">
        <ele>377</ele>
        <time>2016-10-23T07:55:22.000Z</time>
      </trkpt>
      <trkpt lat="47.57417" lon="6.81779">
        <ele>377</ele>
        <time>2016-10-23T07:55:23.000Z</time>
      </trkpt>
      <trkpt lat="47.57417" lon="6.81774">
        <ele>377</ele>
        <time>2016-10-23T07:55:24.000Z</time>
      </trkpt>
      <trkpt lat="47.57416" lon="6.81768">
        <ele>376</ele>
        <time>2016-10-23T07:55:25.000Z</time>
      </trkpt>
      <trkpt lat="47.57415" lon="6.81762">
        <ele>376</ele>
        <time>2016-10-23T07:55:26.000Z</time>
      </trkpt>
      <trkpt lat="47.57414" lon="6.81755">
        <ele>376</ele>
        <time>2016-10-23T07:55:27.000Z</time>
      </trkpt>
      <trkpt lat="47.57412" lon="6.81745">
        <ele>377</ele>
        <time>2016-10-23T07:55:28.000Z</time>
      </trkpt>
      <trkpt lat="47.57412" lon="6.81738">
        <ele>377</ele>
        <time>2016-10-23T07:55:29.000Z</time>
      </trkpt>
      <trkpt lat="47.57411" lon="6.81732">
        <ele>377</ele>
        <time>2016-10-23T07:55:30.000Z</time>
      </trkpt>
      <trkpt lat="47.57411" lon="6.81726">
        <ele>377</ele>
        <time>2016-10-23T07:55:31.000Z</time>
      </trkpt>
      <trkpt lat="47.57411" lon="6.8172">
        <ele>378</ele>
        <time>2016-10-23T07:55:32.000Z</time>
      </trkpt>
      <trkpt lat="47.57409" lon="6.81713">
        <ele>378</ele>
        <time>2016-10-23T07:55:33.000Z</time>
      </trkpt>
      <trkpt lat="47.57407" lon="6.81706">
        <ele>378</ele>
        <time>2016-10-23T07:55:34.000Z</time>
      </trkpt>
      <trkpt lat="47.57405" lon="6.817">
        <ele>378</ele>
        <time>2016-10-23T07:55:35.000Z</time>
      </trkpt>
      <trkpt lat="47.57405" lon="6.81693">
        <ele>378</ele>
        <time>2016-10-23T07:55:36.000Z</time>
      </trkpt>
      <trkpt lat="47.57403" lon="6.81686">
        <ele>378</ele>
        <time>2016-10-23T07:55:37.000Z</time>
      </trkpt>
      <trkpt lat="47.57402" lon="6.8168">
        <ele>379</ele>
        <time>2016-10-23T07:55:38.000Z</time>
      </trkpt>
      <trkpt lat="47.57399" lon="6.81674">
        <ele>379</ele>
        <time>2016-10-23T07:55:39.000Z</time>
      </trkpt>
      <trkpt lat="47.57397" lon="6.81668">
        <ele>379</ele>
        <time>2016-10-23T07:55:40.000Z</time>
      </trkpt>
      <trkpt lat="47.57396" lon="6.81663">
        <ele>380</ele>
        <time>2016-10-23T07:55:41.000Z</time>
      </trkpt>
      <trkpt lat="47.57394" lon="6.81657">
        <ele>380</ele>
        <time>2016-10-23T07:55:42.000Z</time>
      </trkpt>
      <trkpt lat="47.57394" lon="6.81651">
        <ele>380</ele>
        <time>2016-10-23T07:55:43.000Z</time>
      </trkpt>
      <trkpt lat="47.57393" lon="6.81645">
        <ele>380</ele>
        <time>2016-10-23T07:55:44.000Z</time>
      </trkpt>
      <trkpt lat="47.57392" lon="6.81639">
        <ele>380</ele>
        <time>2016-10-23T07:55:45.000Z</time>
      </trkpt>
      <trkpt lat="47.57391" lon="6.81633">
        <ele>380</ele>
        <time>2016-10-23T07:55:46.000Z</time>
      </trkpt>
      <trkpt lat="47.5739" lon="6.81627">
        <ele>380</ele>
        <time>2016-10-23T07:55:47.000Z</time>
      </trkpt>
      <trkpt lat="47.57389" lon="6.8162">
        <ele>380</ele>
        <time>2016-10-23T07:55:48.000Z</time>
      </trkpt>
      <trkpt lat="47.5739" lon="6.81611">
        <ele>380</ele>
        <time>2016-10-23T07:55:49.000Z</time>
      </trkpt>
      <trkpt lat="47.5739" lon="6.81605">
        <ele>380</ele>
        <time>2016-10-23T07:55:50.000Z</time>
      </trkpt>
      <trkpt lat="47.5739" lon="6.81598">
        <ele>380</ele>
        <time>2016-10-23T07:55:51.000Z</time>
      </trkpt>
      <trkpt lat="47.5739" lon="6.81593">
        <ele>380</ele>
        <time>2016-10-23T07:55:52.000Z</time>
      </trkpt>
      <trkpt lat="47.5739" lon="6.81587">
        <ele>380</ele>
        <time>2016-10-23T07:55:53.000Z</time>
      </trkpt>
      <trkpt lat="47.57391" lon="6.81581">
        <ele>381</ele>
        <time>2016-10-23T07:55:54.000Z</time>
      </trkpt>
      <trkpt lat="47.57391" lon="6.81573">
        <ele>381</ele>
        <time>2016-10-23T07:55:55.000Z</time>
      </trkpt>
      <trkpt lat="47.57391" lon="6.81566">
        <ele>381</ele>
        <time>2016-10-23T07:55:56.000Z</time>
      </trkpt>
      <trkpt lat="47.57391" lon="6.81558">
        <ele>381</ele>
        <time>2016-10-23T07:55:56.999Z</time>
      </trkpt>
      <trkpt lat="47.57391" lon="6.81551">
        <ele>381</ele>
        <time>2016-10-23T07:55:58.000Z</time>
      </trkpt>
      <trkpt lat="47.57388" lon="6.81546">
        <ele>381</ele>
        <time>2016-10-23T07:55:59.000Z</time>
      </trkpt>
      <trkpt lat="47.57386" lon="6.8154">
        <ele>381</ele>
        <time>2016-10-23T07:55:59.998Z</time>
      </trkpt>
      <trkpt lat="47.57385" lon="6.81534">
        <ele>381</ele>
        <time>2016-10-23T07:56:01.001Z</time>
      </trkpt>
      <trkpt lat="47.57383" lon="6.81529">
        <ele>381</ele>
        <time>2016-10-23T07:56:01.998Z</time>
      </trkpt>
      <trkpt lat="47.57387" lon="6.81525">
        <ele>381</ele>
        <time>2016-10-23T07:56:03.000Z</time>
      </trkpt>
      <trkpt lat="47.57388" lon="6.8152">
        <ele>381</ele>
        <time>2016-10-23T07:56:04.000Z</time>
      </trkpt>
      <trkpt lat="47.57387" lon="6.81516">
        <ele>381</ele>
        <time>2016-10-23T07:56:05.000Z</time>
      </trkpt>
      <trkpt lat="47.57385" lon="6.8151">
        <ele>381</ele>
        <time>2016-10-23T07:56:06.000Z</time>
      </trkpt>
      <trkpt lat="47.57385" lon="6.81505">
        <ele>381</ele>
        <time>2016-10-23T07:56:07.000Z</time>
      </trkpt>
      <trkpt lat="47.57384" lon="6.815">
        <ele>382</ele>
        <time>2016-10-23T07:56:08.000Z</time>
      </trkpt>
      <trkpt lat="47.57384" lon="6.81494">
        <ele>382</ele>
        <time>2016-10-23T07:56:09.000Z</time>
      </trkpt>
      <trkpt lat="47.57383" lon="6.81488">
        <ele>382</ele>
        <time>2016-10-23T07:56:10.000Z</time>
      </trkpt>
      <trkpt lat="47.57382" lon="6.81482">
        <ele>382</ele>
        <time>2016-10-23T07:56:11.000Z</time>
      </trkpt>
      <trkpt lat="47.57381" lon="6.81477">
        <ele>382</ele>
        <time>2016-10-23T07:56:12.000Z</time>
      </trkpt>
      <trkpt lat="47.5738" lon="6.81472">
        <ele>382</ele>
        <time>2016-10-23T07:56:13.000Z</time>
      </trkpt>
      <trkpt lat="47.5738" lon="6.81467">
        <ele>382</ele>
        <time>2016-10-23T07:56:14.000Z</time>
      </trkpt>
      <trkpt lat="47.57379" lon="6.81462">
        <ele>382</ele>
        <time>2016-10-23T07:56:15.000Z</time>
      </trkpt>
      <trkpt lat="47.57379" lon="6.81457">
        <ele>382</ele>
        <time>2016-10-23T07:56:16.000Z</time>
      </trkpt>
      <trkpt lat="47.57378" lon="6.81452">
        <ele>382</ele>
        <time>2016-10-23T07:56:17.000Z</time>
      </trkpt>
      <trkpt lat="47.57378" lon="6.81447">
        <ele>383</ele>
        <time>2016-10-23T07:56:18.000Z</time>
      </trkpt>
      <trkpt lat="47.57378" lon="6.81441">
        <ele>383</ele>
        <time>2016-10-23T07:56:19.000Z</time>
      </trkpt>
      <trkpt lat="47.57377" lon="6.81434">
        <ele>383</ele>
        <time>2016-10-23T07:56:20.000Z</time>
      </trkpt>
      <trkpt lat="47.57376" lon="6.81428">
        <ele>383</ele>
        <time>2016-10-23T07:56:21.000Z</time>
      </trkpt>
      <trkpt lat="47.57375" lon="6.81422">
        <ele>383</ele>
        <time>2016-10-23T07:56:22.000Z</time>
      </trkpt>
      <trkpt lat="47.57375" lon="6.81416">
        <ele>384</ele>
        <time>2016-10-23T07:56:23.000Z</time>
      </trkpt>
      <trkpt lat="47.57375" lon="6.8141">
        <ele>384</ele>
        <time>2016-10-23T07:56:24.000Z</time>
      </trkpt>
      <trkpt lat="47.57374" lon="6.81404">
        <ele>384</ele>
        <time>2016-10-23T07:56:25.000Z</time>
      </trkpt>
      <trkpt lat="47.57374" lon="6.81399">
        <ele>384</ele>
        <time>2016-10-23T07:56:26.000Z</time>
      </trkpt>
      <trkpt lat="47.57373" lon="6.81394">
        <ele>384</ele>
        <time>2016-10-23T07:56:27.000Z</time>
      </trkpt>
      <trkpt lat="47.57373" lon="6.81388">
        <ele>384</ele>
        <time>2016-10-23T07:56:28.000Z</time>
      </trkpt>
      <trkpt lat="47.57373" lon="6.81383">
        <ele>385</ele>
        <time>2016-10-23T07:56:29.000Z</time>
      </trkpt>
      <trkpt lat="47.57373" lon="6.81378">
        <ele>385</ele>
        <time>2016-10-23T07:56:30.000Z</time>
      </trkpt>
      <trkpt lat="47.57373" lon="6.81374">
        <ele>385</ele>
        <time>2016-10-23T07:56:31.000Z</time>
      </trkpt>
      <trkpt lat="47.57373" lon="6.81369">
        <ele>385</ele>
        <time>2016-10-23T07:56:32.000Z</time>
      </trkpt>
      <trkpt lat="47.57374" lon="6.81363">
        <ele>385</ele>
        <time>2016-10-23T07:56:33.000Z</time>
      </trkpt>
      <trkpt lat="47.57374" lon="6.81357">
        <ele>385</ele>
        <time>2016-10-23T07:56:34.000Z</time>
      </trkpt>
      <trkpt lat="47.57374" lon="6.81351">
        <ele>385</ele>
        <time>2016-10-23T07:56:35.000Z</time>
      </trkpt>
      <trkpt lat="47.57374" lon="6.81344">
        <ele>385</ele>
        <time>2016-10-23T07:56:36.000Z</time>
      </trkpt>
      <trkpt lat="47.57375" lon="6.81339">
        <ele>385</ele>
        <time>2016-10-23T07:56:37.000Z</time>
      </trkpt>
      <trkpt lat="47.57375" lon="6.81331">
        <ele>386</ele>
        <time>2016-10-23T07:56:38.000Z</time>
      </trkpt>
      <trkpt lat="47.57374" lon="6.81324">
        <ele>386</ele>
        <time>2016-10-23T07:56:39.000Z</time>
      </trkpt>
      <trkpt lat="47.57374" lon="6.81318">
        <ele>386</ele>
        <time>2016-10-23T07:56:40.000Z</time>
      </trkpt>
      <trkpt lat="47.57373" lon="6.81312">
        <ele>387</ele>
        <time>2016-10-23T07:56:41.000Z</time>
      </trkpt>
      <trkpt lat="47.57373" lon="6.81306">
        <ele>387</ele>
        <time>2016-10-23T07:56:42.000Z</time>
      </trkpt>
      <trkpt lat="47.57373" lon="6.81295">
        <ele>387</ele>
        <time>2016-10-23T07:56:44.001Z</time>
      </trkpt>
      <trkpt lat="47.57373" lon="6.81289">
        <ele>387</ele>
        <time>2016-10-23T07:56:45.000Z</time>
      </trkpt>
      <trkpt lat="47.57372" lon="6.81285">
        <ele>387</ele>
        <time>2016-10-23T07:56:46.000Z</time>
      </trkpt>
      <trkpt lat="47.57372" lon="6.8128">
        <ele>387</ele>
        <time>2016-10-23T07:56:47.000Z</time>
      </trkpt>
      <trkpt lat="47.57371" lon="6.81275">
        <ele>387</ele>
        <time>2016-10-23T07:56:48.000Z</time>
      </trkpt>
      <trkpt lat="47.57371" lon="6.8127">
        <ele>387</ele>
        <time>2016-10-23T07:56:48.999Z</time>
      </trkpt>
      <trkpt lat="47.57371" lon="6.81264">
        <ele>387</ele>
        <time>2016-10-23T07:56:50.000Z</time>
      </trkpt>
      <trkpt lat="47.5737" lon="6.81259">
        <ele>387</ele>
        <time>2016-10-23T07:56:51.000Z</time>
      </trkpt>
      <trkpt lat="47.5737" lon="6.81254">
        <ele>387</ele>
        <time>2016-10-23T07:56:52.000Z</time>
      </trkpt>
      <trkpt lat="47.5737" lon="6.81248">
        <ele>388</ele>
        <time>2016-10-23T07:56:53.000Z</time>
      </trkpt>
      <trkpt lat="47.57369" lon="6.81243">
        <ele>388</ele>
        <time>2016-10-23T07:56:54.001Z</time>
      </trkpt>
      <trkpt lat="47.57368" lon="6.81237">
        <ele>388</ele>
        <time>2016-10-23T07:56:55.000Z</time>
      </trkpt>
      <trkpt lat="47.57368" lon="6.81231">
        <ele>388</ele>
        <time>2016-10-23T07:56:56.000Z</time>
      </trkpt>
      <trkpt lat="47.57367" lon="6.81226">
        <ele>388</ele>
        <time>2016-10-23T07:56:56.999Z</time>
      </trkpt>
      <trkpt lat="47.57366" lon="6.81219">
        <ele>388</ele>
        <time>2016-10-23T07:56:58.000Z</time>
      </trkpt>
      <trkpt lat="47.57366" lon="6.81213">
        <ele>388</ele>
        <time>2016-10-23T07:56:59.000Z</time>
      </trkpt>
      <trkpt lat="47.57365" lon="6.81207">
        <ele>388</ele>
        <time>2016-10-23T07:57:00.000Z</time>
      </trkpt>
      <trkpt lat="47.57364" lon="6.81202">
        <ele>388</ele>
        <time>2016-10-23T07:57:00.999Z</time>
      </trkpt>
      <trkpt lat="47.57364" lon="6.81195">
        <ele>388</ele>
        <time>2016-10-23T07:57:02.000Z</time>
      </trkpt>
      <trkpt lat="47.57363" lon="6.8119">
        <ele>388</ele>
        <time>2016-10-23T07:57:03.000Z</time>
      </trkpt>
      <trkpt lat="47.57363" lon="6.81186">
        <ele>388</ele>
        <time>2016-10-23T07:57:04.000Z</time>
      </trkpt>
      <trkpt lat="47.57362" lon="6.81182">
        <ele>387</ele>
        <time>2016-10-23T07:57:05.000Z</time>
      </trkpt>
      <trkpt lat="47.57362" lon="6.81177">
        <ele>387</ele>
        <time>2016-10-23T07:57:06.000Z</time>
      </trkpt>
      <trkpt lat="47.57361" lon="6.81172">
        <ele>387</ele>
        <time>2016-10-23T07:57:07.000Z</time>
      </trkpt>
      <trkpt lat="47.57361" lon="6.81167">
        <ele>387</ele>
        <time>2016-10-23T07:57:08.000Z</time>
      </trkpt>
      <trkpt lat="47.5736" lon="6.81162">
        <ele>389</ele>
        <time>2016-10-23T07:57:09.000Z</time>
      </trkpt>
      <trkpt lat="47.5736" lon="6.81158">
        <ele>389</ele>
        <time>2016-10-23T07:57:10.000Z</time>
      </trkpt>
      <trkpt lat="47.57358" lon="6.8115">
        <ele>389</ele>
        <time>2016-10-23T07:57:11.002Z</time>
      </trkpt>
      <trkpt lat="47.57357" lon="6.81144">
        <ele>389</ele>
        <time>2016-10-23T07:57:12.000Z</time>
      </trkpt>
      <trkpt lat="47.57356" lon="6.81139">
        <ele>390</ele>
        <time>2016-10-23T07:57:13.000Z</time>
      </trkpt>
      <trkpt lat="47.57355" lon="6.81133">
        <ele>390</ele>
        <time>2016-10-23T07:57:14.001Z</time>
      </trkpt>
      <trkpt lat="47.57354" lon="6.81127">
        <ele>390</ele>
        <time>2016-10-23T07:57:15.000Z</time>
      </trkpt>
      <trkpt lat="47.57353" lon="6.81121">
        <ele>390</ele>
        <time>2016-10-23T07:57:15.999Z</time>
      </trkpt>
      <trkpt lat="47.57352" lon="6.81117">
        <ele>390</ele>
        <time>2016-10-23T07:57:17.000Z</time>
      </trkpt>
      <trkpt lat="47.57352" lon="6.81112">
        <ele>390</ele>
        <time>2016-10-23T07:57:18.000Z</time>
      </trkpt>
      <trkpt lat="47.57351" lon="6.81108">
        <ele>390</ele>
        <time>2016-10-23T07:57:19.001Z</time>
      </trkpt>
      <trkpt lat="47.57351" lon="6.81104">
        <ele>390</ele>
        <time>2016-10-23T07:57:20.000Z</time>
      </trkpt>
      <trkpt lat="47.57351" lon="6.81099">
        <ele>390</ele>
        <time>2016-10-23T07:57:21.000Z</time>
      </trkpt>
      <trkpt lat="47.5735" lon="6.81095">
        <ele>390</ele>
        <time>2016-10-23T07:57:22.000Z</time>
      </trkpt>
      <trkpt lat="47.57349" lon="6.81091">
        <ele>390</ele>
        <time>2016-10-23T07:57:23.000Z</time>
      </trkpt>
      <trkpt lat="47.57347" lon="6.81086">
        <ele>390</ele>
        <time>2016-10-23T07:57:24.000Z</time>
      </trkpt>
      <trkpt lat="47.57347" lon="6.81081">
        <ele>391</ele>
        <time>2016-10-23T07:57:25.000Z</time>
      </trkpt>
      <trkpt lat="47.57346" lon="6.81076">
        <ele>391</ele>
        <time>2016-10-23T07:57:26.000Z</time>
      </trkpt>
      <trkpt lat="47.57345" lon="6.81071">
        <ele>391</ele>
        <time>2016-10-23T07:57:26.999Z</time>
      </trkpt>
      <trkpt lat="47.57345" lon="6.81066">
        <ele>392</ele>
        <time>2016-10-23T07:57:28.001Z</time>
      </trkpt>
      <trkpt lat="47.57345" lon="6.81062">
        <ele>392</ele>
        <time>2016-10-23T07:57:29.000Z</time>
      </trkpt>
      <trkpt lat="47.57345" lon="6.81058">
        <ele>392</ele>
        <time>2016-10-23T07:57:30.000Z</time>
      </trkpt>
      <trkpt lat="47.57345" lon="6.81053">
        <ele>392</ele>
        <time>2016-10-23T07:57:31.000Z</time>
      </trkpt>
      <trkpt lat="47.57345" lon="6.81049">
        <ele>393</ele>
        <time>2016-10-23T07:57:31.998Z</time>
      </trkpt>
      <trkpt lat="47.57345" lon="6.81044">
        <ele>393</ele>
        <time>2016-10-23T07:57:33.000Z</time>
      </trkpt>
      <trkpt lat="47.57345" lon="6.81039">
        <ele>393</ele>
        <time>2016-10-23T07:57:34.000Z</time>
      </trkpt>
      <trkpt lat="47.57345" lon="6.81034">
        <ele>393</ele>
        <time>2016-10-23T07:57:35.000Z</time>
      </trkpt>
      <trkpt lat="47.57345" lon="6.8103">
        <ele>393</ele>
        <time>2016-10-23T07:57:36.000Z</time>
      </trkpt>
      <trkpt lat="47.57345" lon="6.81025">
        <ele>393</ele>
        <time>2016-10-23T07:57:37.000Z</time>
      </trkpt>
      <trkpt lat="47.57345" lon="6.8102">
        <ele>393</ele>
        <time>2016-10-23T07:57:38.000Z</time>
      </trkpt>
      <trkpt lat="47.57345" lon="6.81016">
        <ele>392</ele>
        <time>2016-10-23T07:57:39.000Z</time>
      </trkpt>
      <trkpt lat="47.57345" lon="6.81012">
        <ele>392</ele>
        <time>2016-10-23T07:57:40.000Z</time>
      </trkpt>
      <trkpt lat="47.57346" lon="6.81008">
        <ele>392</ele>
        <time>2016-10-23T07:57:41.000Z</time>
      </trkpt>
      <trkpt lat="47.57346" lon="6.81004">
        <ele>392</ele>
        <time>2016-10-23T07:57:42.000Z</time>
      </trkpt>
      <trkpt lat="47.57347" lon="6.80999">
        <ele>392</ele>
        <time>2016-10-23T07:57:42.998Z</time>
      </trkpt>
      <trkpt lat="47.57348" lon="6.80994">
        <ele>393</ele>
        <time>2016-10-23T07:57:44.000Z</time>
      </trkpt>
      <trkpt lat="47.57349" lon="6.8099">
        <ele>393</ele>
        <time>2016-10-23T07:57:45.000Z</time>
      </trkpt>
      <trkpt lat="47.57351" lon="6.80986">
        <ele>394</ele>
        <time>2016-10-23T07:57:46.000Z</time>
      </trkpt>
      <trkpt lat="47.57352" lon="6.80982">
        <ele>394</ele>
        <time>2016-10-23T07:57:46.999Z</time>
      </trkpt>
      <trkpt lat="47.57354" lon="6.80978">
        <ele>394</ele>
        <time>2016-10-23T07:57:48.000Z</time>
      </trkpt>
      <trkpt lat="47.57356" lon="6.80974">
        <ele>394</ele>
        <time>2016-10-23T07:57:49.000Z</time>
      </trkpt>
      <trkpt lat="47.57357" lon="6.8097">
        <ele>395</ele>
        <time>2016-10-23T07:57:50.000Z</time>
      </trkpt>
      <trkpt lat="47.57359" lon="6.80965">
        <ele>395</ele>
        <time>2016-10-23T07:57:51.000Z</time>
      </trkpt>
      <trkpt lat="47.57361" lon="6.80961">
        <ele>395</ele>
        <time>2016-10-23T07:57:52.000Z</time>
      </trkpt>
      <trkpt lat="47.57363" lon="6.80957">
        <ele>395</ele>
        <time>2016-10-23T07:57:53.000Z</time>
      </trkpt>
      <trkpt lat="47.57365" lon="6.80953">
        <ele>395</ele>
        <time>2016-10-23T07:57:54.000Z</time>
      </trkpt>
      <trkpt lat="47.57367" lon="6.80949">
        <ele>395</ele>
        <time>2016-10-23T07:57:55.000Z</time>
      </trkpt>
      <trkpt lat="47.57369" lon="6.80944">
        <ele>395</ele>
        <time>2016-10-23T07:57:56.000Z</time>
      </trkpt>
      <trkpt lat="47.57371" lon="6.8094">
        <ele>396</ele>
        <time>2016-10-23T07:57:57.000Z</time>
      </trkpt>
      <trkpt lat="47.57374" lon="6.80935">
        <ele>396</ele>
        <time>2016-10-23T07:57:58.000Z</time>
      </trkpt>
      <trkpt lat="47.57376" lon="6.80931">
        <ele>396</ele>
        <time>2016-10-23T07:57:58.999Z</time>
      </trkpt>
      <trkpt lat="47.57378" lon="6.80926">
        <ele>396</ele>
        <time>2016-10-23T07:58:00.000Z</time>
      </trkpt>
      <trkpt lat="47.5738" lon="6.80923">
        <ele>396</ele>
        <time>2016-10-23T07:58:01.000Z</time>
      </trkpt>
      <trkpt lat="47.57382" lon="6.8092">
        <ele>396</ele>
        <time>2016-10-23T07:58:02.000Z</time>
      </trkpt>
      <trkpt lat="47.57385" lon="6.80916">
        <ele>397</ele>
        <time>2016-10-23T07:58:03.000Z</time>
      </trkpt>
      <trkpt lat="47.57387" lon="6.80913">
        <ele>397</ele>
        <time>2016-10-23T07:58:04.000Z</time>
      </trkpt>
      <trkpt lat="47.57389" lon="6.80909">
        <ele>398</ele>
        <time>2016-10-23T07:58:05.000Z</time>
      </trkpt>
      <trkpt lat="47.57391" lon="6.80907">
        <ele>398</ele>
        <time>2016-10-23T07:58:06.000Z</time>
      </trkpt>
      <trkpt lat="47.57392" lon="6.80905">
        <ele>398</ele>
        <time>2016-10-23T07:58:07.000Z</time>
      </trkpt>
      <trkpt lat="47.57395" lon="6.809">
        <ele>398</ele>
        <time>2016-10-23T07:58:09.000Z</time>
      </trkpt>
      <trkpt lat="47.57396" lon="6.80898">
        <ele>398</ele>
        <time>2016-10-23T07:58:10.000Z</time>
      </trkpt>
      <trkpt lat="47.57399" lon="6.80894">
        <ele>398</ele>
        <time>2016-10-23T07:58:11.999Z</time>
      </trkpt>
      <trkpt lat="47.57401" lon="6.80892">
        <ele>398</ele>
        <time>2016-10-23T07:58:13.000Z</time>
      </trkpt>
      <trkpt lat="47.57403" lon="6.80889">
        <ele>398</ele>
        <time>2016-10-23T07:58:14.000Z</time>
      </trkpt>
      <trkpt lat="47.57404" lon="6.80887">
        <ele>398</ele>
        <time>2016-10-23T07:58:15.000Z</time>
      </trkpt>
      <trkpt lat="47.57406" lon="6.80884">
        <ele>398</ele>
        <time>2016-10-23T07:58:16.000Z</time>
      </trkpt>
      <trkpt lat="47.57408" lon="6.80881">
        <ele>398</ele>
        <time>2016-10-23T07:58:17.001Z</time>
      </trkpt>
      <trkpt lat="47.5741" lon="6.80877">
        <ele>398</ele>
        <time>2016-10-23T07:58:18.000Z</time>
      </trkpt>
      <trkpt lat="47.57412" lon="6.80874">
        <ele>398</ele>
        <time>2016-10-23T07:58:19.000Z</time>
      </trkpt>
      <trkpt lat="47.57414" lon="6.80871">
        <ele>398</ele>
        <time>2016-10-23T07:58:20.000Z</time>
      </trkpt>
      <trkpt lat="47.57416" lon="6.80868">
        <ele>398</ele>
        <time>2016-10-23T07:58:21.000Z</time>
      </trkpt>
      <trkpt lat="47.57418" lon="6.80865">
        <ele>404</ele>
        <time>2016-10-23T07:58:22.000Z</time>
      </trkpt>
      <trkpt lat="47.5742" lon="6.80862">
        <ele>404</ele>
        <time>2016-10-23T07:58:23.000Z</time>
      </trkpt>
      <trkpt lat="47.57423" lon="6.80859">
        <ele>404</ele>
        <time>2016-10-23T07:58:24.001Z</time>
      </trkpt>
      <trkpt lat="47.57425" lon="6.80857">
        <ele>404</ele>
        <time>2016-10-23T07:58:25.001Z</time>
      </trkpt>
      <trkpt lat="47.57428" lon="6.80853">
        <ele>404</ele>
        <time>2016-10-23T07:58:27.000Z</time>
      </trkpt>
      <trkpt lat="47.5743" lon="6.80851">
        <ele>404</ele>
        <time>2016-10-23T07:58:28.000Z</time>
      </trkpt>
      <trkpt lat="47.57432" lon="6.80846">
        <ele>404</ele>
        <time>2016-10-23T07:58:30.000Z</time>
      </trkpt>
      <trkpt lat="47.57433" lon="6.80844">
        <ele>403</ele>
        <time>2016-10-23T07:58:31.000Z</time>
      </trkpt>
      <trkpt lat="47.57433" lon="6.80839">
        <ele>403</ele>
        <time>2016-10-23T07:58:33.000Z</time>
      </trkpt>
      <trkpt lat="47.57433" lon="6.80835">
        <ele>403</ele>
        <time>2016-10-23T07:58:34.000Z</time>
      </trkpt>
      <trkpt lat="47.57434" lon="6.8083">
        <ele>404</ele>
        <time>2016-10-23T07:58:36.000Z</time>
      </trkpt>
      <trkpt lat="47.57435" lon="6.80827">
        <ele>405</ele>
        <time>2016-10-23T07:58:37.000Z</time>
      </trkpt>
      <trkpt lat="47.57437" lon="6.80822">
        <ele>405</ele>
        <time>2016-10-23T07:58:39.000Z</time>
      </trkpt>
      <trkpt lat="47.57437" lon="6.80819">
        <ele>405</ele>
        <time>2016-10-23T07:58:40.000Z</time>
      </trkpt>
      <trkpt lat="47.57437" lon="6.80814">
        <ele>406</ele>
        <time>2016-10-23T07:58:42.000Z</time>
      </trkpt>
      <trkpt lat="47.57437" lon="6.8081">
        <ele>406</ele>
        <time>2016-10-23T07:58:43.000Z</time>
      </trkpt>
      <trkpt lat="47.57437" lon="6.80806">
        <ele>406</ele>
        <time>2016-10-23T07:58:44.000Z</time>
      </trkpt>
      <trkpt lat="47.57438" lon="6.80802">
        <ele>407</ele>
        <time>2016-10-23T07:58:45.000Z</time>
      </trkpt>
      <trkpt lat="47.57438" lon="6.80798">
        <ele>407</ele>
        <time>2016-10-23T07:58:46.000Z</time>
      </trkpt>
      <trkpt lat="47.57438" lon="6.80793">
        <ele>407</ele>
        <time>2016-10-23T07:58:47.000Z</time>
      </trkpt>
      <trkpt lat="47.57438" lon="6.80789">
        <ele>407</ele>
        <time>2016-10-23T07:58:48.000Z</time>
      </trkpt>
      <trkpt lat="47.57438" lon="6.80784">
        <ele>407</ele>
        <time>2016-10-23T07:58:49.000Z</time>
      </trkpt>
      <trkpt lat="47.57438" lon="6.80779">
        <ele>407</ele>
        <time>2016-10-23T07:58:50.000Z</time>
      </trkpt>
      <trkpt lat="47.57438" lon="6.80775">
        <ele>407</ele>
        <time>2016-10-23T07:58:51.000Z</time>
      </trkpt>
      <trkpt lat="47.57437" lon="6.8077">
        <ele>407</ele>
        <time>2016-10-23T07:58:52.000Z</time>
      </trkpt>
      <trkpt lat="47.57436" lon="6.80765">
        <ele>407</ele>
        <time>2016-10-23T07:58:53.000Z</time>
      </trkpt>
      <trkpt lat="47.57436" lon="6.8076">
        <ele>407</ele>
        <time>2016-10-23T07:58:54.000Z</time>
      </trkpt>
      <trkpt lat="47.57436" lon="6.80754">
        <ele>407</ele>
        <time>2016-10-23T07:58:55.000Z</time>
      </trkpt>
      <trkpt lat="47.57437" lon="6.80748">
        <ele>409</ele>
        <time>2016-10-23T07:58:56.000Z</time>
      </trkpt>
      <trkpt lat="47.57437" lon="6.80742">
        <ele>410</ele>
        <time>2016-10-23T07:58:57.000Z</time>
      </trkpt>
      <trkpt lat="47.57438" lon="6.80736">
        <ele>410</ele>
        <time>2016-10-23T07:58:58.000Z</time>
      </trkpt>
      <trkpt lat="47.57438" lon="6.80729">
        <ele>410</ele>
        <time>2016-10-23T07:58:59.000Z</time>
      </trkpt>
      <trkpt lat="47.57438" lon="6.80723">
        <ele>410</ele>
        <time>2016-10-23T07:59:00.000Z</time>
      </trkpt>
      <trkpt lat="47.57437" lon="6.80717">
        <ele>411</ele>
        <time>2016-10-23T07:59:01.000Z</time>
      </trkpt>
      <trkpt lat="47.57437" lon="6.80711">
        <ele>411</ele>
        <time>2016-10-23T07:59:02.000Z</time>
      </trkpt>
      <trkpt lat="47.57437" lon="6.80706">
        <ele>411</ele>
        <time>2016-10-23T07:59:03.000Z</time>
      </trkpt>
      <trkpt lat="47.57437" lon="6.807">
        <ele>411</ele>
        <time>2016-10-23T07:59:04.000Z</time>
      </trkpt>
      <trkpt lat="47.57437" lon="6.80694">
        <ele>412</ele>
        <time>2016-10-23T07:59:05.000Z</time>
      </trkpt>
      <trkpt lat="47.57437" lon="6.80689">
        <ele>412</ele>
        <time>2016-10-23T07:59:06.000Z</time>
      </trkpt>
      <trkpt lat="47.57437" lon="6.80683">
        <ele>412</ele>
        <time>2016-10-23T07:59:07.000Z</time>
      </trkpt>
      <trkpt lat="47.57438" lon="6.80678">
        <ele>412</ele>
        <time>2016-10-23T07:59:08.000Z</time>
      </trkpt>
      <trkpt lat="47.57439" lon="6.80673">
        <ele>412</ele>
        <time>2016-10-23T07:59:09.000Z</time>
      </trkpt>
      <trkpt lat="47.5744" lon="6.80669">
        <ele>412</ele>
        <time>2016-10-23T07:59:10.000Z</time>
      </trkpt>
      <trkpt lat="47.5744" lon="6.80664">
        <ele>413</ele>
        <time>2016-10-23T07:59:11.000Z</time>
      </trkpt>
      <trkpt lat="47.57441" lon="6.80659">
        <ele>413</ele>
        <time>2016-10-23T07:59:12.000Z</time>
      </trkpt>
      <trkpt lat="47.57443" lon="6.80654">
        <ele>413</ele>
        <time>2016-10-23T07:59:13.000Z</time>
      </trkpt>
      <trkpt lat="47.57444" lon="6.80649">
        <ele>413</ele>
        <time>2016-10-23T07:59:14.000Z</time>
      </trkpt>
      <trkpt lat="47.57446" lon="6.80643">
        <ele>413</ele>
        <time>2016-10-23T07:59:15.000Z</time>
      </trkpt>
      <trkpt lat="47.57448" lon="6.80638">
        <ele>413</ele>
        <time>2016-10-23T07:59:16.000Z</time>
      </trkpt>
      <trkpt lat="47.57449" lon="6.80633">
        <ele>413</ele>
        <time>2016-10-23T07:59:17.000Z</time>
      </trkpt>
      <trkpt lat="47.57451" lon="6.80627">
        <ele>413</ele>
        <time>2016-10-23T07:59:18.000Z</time>
      </trkpt>
      <trkpt lat="47.57453" lon="6.80622">
        <ele>413</ele>
        <time>2016-10-23T07:59:19.000Z</time>
      </trkpt>
      <trkpt lat="47.57454" lon="6.80617">
        <ele>413</ele>
        <time>2016-10-23T07:59:20.001Z</time>
      </trkpt>
      <trkpt lat="47.57456" lon="6.80613">
        <ele>413</ele>
        <time>2016-10-23T07:59:21.000Z</time>
      </trkpt>
      <trkpt lat="47.57458" lon="6.80608">
        <ele>413</ele>
        <time>2016-10-23T07:59:21.999Z</time>
      </trkpt>
      <trkpt lat="47.5746" lon="6.80603">
        <ele>413</ele>
        <time>2016-10-23T07:59:23.000Z</time>
      </trkpt>
      <trkpt lat="47.57462" lon="6.80598">
        <ele>413</ele>
        <time>2016-10-23T07:59:24.000Z</time>
      </trkpt>
      <trkpt lat="47.57463" lon="6.80593">
        <ele>413</ele>
        <time>2016-10-23T07:59:25.000Z</time>
      </trkpt>
      <trkpt lat="47.57466" lon="6.8059">
        <ele>413</ele>
        <time>2016-10-23T07:59:26.000Z</time>
      </trkpt>
      <trkpt lat="47.57468" lon="6.80587">
        <ele>413</ele>
        <time>2016-10-23T07:59:27.000Z</time>
      </trkpt>
      <trkpt lat="47.57469" lon="6.80583">
        <ele>412</ele>
        <time>2016-10-23T07:59:27.998Z</time>
      </trkpt>
      <trkpt lat="47.57471" lon="6.80579">
        <ele>412</ele>
        <time>2016-10-23T07:59:29.000Z</time>
      </trkpt>
      <trkpt lat="47.57473" lon="6.80575">
        <ele>412</ele>
        <time>2016-10-23T07:59:30.000Z</time>
      </trkpt>
      <trkpt lat="47.57475" lon="6.80571">
        <ele>412</ele>
        <time>2016-10-23T07:59:31.000Z</time>
      </trkpt>
      <trkpt lat="47.57477" lon="6.80566">
        <ele>412</ele>
        <time>2016-10-23T07:59:32.000Z</time>
      </trkpt>
      <trkpt lat="47.57478" lon="6.80561">
        <ele>412</ele>
        <time>2016-10-23T07:59:33.000Z</time>
      </trkpt>
      <trkpt lat="47.5748" lon="6.80557">
        <ele>412</ele>
        <time>2016-10-23T07:59:34.000Z</time>
      </trkpt>
      <trkpt lat="47.57482" lon="6.80552">
        <ele>412</ele>
        <time>2016-10-23T07:59:34.999Z</time>
      </trkpt>
      <trkpt lat="47.57483" lon="6.80547">
        <ele>411</ele>
        <time>2016-10-23T07:59:36.000Z</time>
      </trkpt>
      <trkpt lat="47.57485" lon="6.80543">
        <ele>411</ele>
        <time>2016-10-23T07:59:37.000Z</time>
      </trkpt>
      <trkpt lat="47.57487" lon="6.80538">
        <ele>411</ele>
        <time>2016-10-23T07:59:38.000Z</time>
      </trkpt>
      <trkpt lat="47.57488" lon="6.80533">
        <ele>411</ele>
        <time>2016-10-23T07:59:39.000Z</time>
      </trkpt>
      <trkpt lat="47.5749" lon="6.80529">
        <ele>411</ele>
        <time>2016-10-23T07:59:40.000Z</time>
      </trkpt>
      <trkpt lat="47.57491" lon="6.80524">
        <ele>411</ele>
        <time>2016-10-23T07:59:41.000Z</time>
      </trkpt>
      <trkpt lat="47.57492" lon="6.8052">
        <ele>411</ele>
        <time>2016-10-23T07:59:42.000Z</time>
      </trkpt>
      <trkpt lat="47.57493" lon="6.80516">
        <ele>411</ele>
        <time>2016-10-23T07:59:42.999Z</time>
      </trkpt>
      <trkpt lat="47.57495" lon="6.80513">
        <ele>411</ele>
        <time>2016-10-23T07:59:44.000Z</time>
      </trkpt>
      <trkpt lat="47.57497" lon="6.80509">
        <ele>410</ele>
        <time>2016-10-23T07:59:45.000Z</time>
      </trkpt>
      <trkpt lat="47.57499" lon="6.80506">
        <ele>410</ele>
        <time>2016-10-23T07:59:46.000Z</time>
      </trkpt>
      <trkpt lat="47.57501" lon="6.80502">
        <ele>410</ele>
        <time>2016-10-23T07:59:47.000Z</time>
      </trkpt>
      <trkpt lat="47.57504" lon="6.80499">
        <ele>410</ele>
        <time>2016-10-23T07:59:48.000Z</time>
      </trkpt>
      <trkpt lat="47.57506" lon="6.80496">
        <ele>411</ele>
        <time>2016-10-23T07:59:49.000Z</time>
      </trkpt>
      <trkpt lat="47.57508" lon="6.80493">
        <ele>411</ele>
        <time>2016-10-23T07:59:50.001Z</time>
      </trkpt>
      <trkpt lat="47.57511" lon="6.8049">
        <ele>411</ele>
        <time>2016-10-23T07:59:51.000Z</time>
      </trkpt>
      <trkpt lat="47.57513" lon="6.80487">
        <ele>411</ele>
        <time>2016-10-23T07:59:52.000Z</time>
      </trkpt>
      <trkpt lat="47.57516" lon="6.80485">
        <ele>411</ele>
        <time>2016-10-23T07:59:53.000Z</time>
      </trkpt>
      <trkpt lat="47.57518" lon="6.80482">
        <ele>411</ele>
        <time>2016-10-23T07:59:54.000Z</time>
      </trkpt>
      <trkpt lat="47.57522" lon="6.80479">
        <ele>411</ele>
        <time>2016-10-23T07:59:55.000Z</time>
      </trkpt>
      <trkpt lat="47.57523" lon="6.80476">
        <ele>412</ele>
        <time>2016-10-23T07:59:56.000Z</time>
      </trkpt>
      <trkpt lat="47.57526" lon="6.80473">
        <ele>412</ele>
        <time>2016-10-23T07:59:57.000Z</time>
      </trkpt>
      <trkpt lat="47.57529" lon="6.8047">
        <ele>412</ele>
        <time>2016-10-23T07:59:58.000Z</time>
      </trkpt>
      <trkpt lat="47.57532" lon="6.80467">
        <ele>412</ele>
        <time>2016-10-23T07:59:59.000Z</time>
      </trkpt>
      <trkpt lat="47.57535" lon="6.80464">
        <ele>412</ele>
        <time>2016-10-23T08:00:00.000Z</time>
      </trkpt>
      <trkpt lat="47.57538" lon="6.80462">
        <ele>412</ele>
        <time>2016-10-23T08:00:01.000Z</time>
      </trkpt>
      <trkpt lat="47.57542" lon="6.8046">
        <ele>412</ele>
        <time>2016-10-23T08:00:02.000Z</time>
      </trkpt>
      <trkpt lat="47.57545" lon="6.80457">
        <ele>412</ele>
        <time>2016-10-23T08:00:03.000Z</time>
      </trkpt>
      <trkpt lat="47.57549" lon="6.80454">
        <ele>412</ele>
        <time>2016-10-23T08:00:04.000Z</time>
      </trkpt>
      <trkpt lat="47.57552" lon="6.80451">
        <ele>412</ele>
        <time>2016-10-23T08:00:05.000Z</time>
      </trkpt>
      <trkpt lat="47.57555" lon="6.80448">
        <ele>412</ele>
        <time>2016-10-23T08:00:05.999Z</time>
      </trkpt>
      <trkpt lat="47.57558" lon="6.80446">
        <ele>412</ele>
        <time>2016-10-23T08:00:07.000Z</time>
      </trkpt>
      <trkpt lat="47.57562" lon="6.80444">
        <ele>412</ele>
        <time>2016-10-23T08:00:08.000Z</time>
      </trkpt>
      <trkpt lat="47.57566" lon="6.80442">
        <ele>412</ele>
        <time>2016-10-23T08:00:09.000Z</time>
      </trkpt>
      <trkpt lat="47.57569" lon="6.80441">
        <ele>413</ele>
        <time>2016-10-23T08:00:10.000Z</time>
      </trkpt>
      <trkpt lat="47.57572" lon="6.80441">
        <ele>413</ele>
        <time>2016-10-23T08:00:11.000Z</time>
      </trkpt>
      <trkpt lat="47.57575" lon="6.80441">
        <ele>413</ele>
        <time>2016-10-23T08:00:12.000Z</time>
      </trkpt>
      <trkpt lat="47.57578" lon="6.80441">
        <ele>413</ele>
        <time>2016-10-23T08:00:13.000Z</time>
      </trkpt>
      <trkpt lat="47.57581" lon="6.80441">
        <ele>413</ele>
        <time>2016-10-23T08:00:14.000Z</time>
      </trkpt>
      <trkpt lat="47.57584" lon="6.80441">
        <ele>416</ele>
        <time>2016-10-23T08:00:15.000Z</time>
      </trkpt>
      <trkpt lat="47.57587" lon="6.80441">
        <ele>416</ele>
        <time>2016-10-23T08:00:16.000Z</time>
      </trkpt>
      <trkpt lat="47.57591" lon="6.80441">
        <ele>417</ele>
        <time>2016-10-23T08:00:17.000Z</time>
      </trkpt>
      <trkpt lat="47.57595" lon="6.80441">
        <ele>417</ele>
        <time>2016-10-23T08:00:18.000Z</time>
      </trkpt>
      <trkpt lat="47.57598" lon="6.80441">
        <ele>417</ele>
        <time>2016-10-23T08:00:18.999Z</time>
      </trkpt>
      <trkpt lat="47.57602" lon="6.80442">
        <ele>417</ele>
        <time>2016-10-23T08:00:20.000Z</time>
      </trkpt>
      <trkpt lat="47.57605" lon="6.80444">
        <ele>417</ele>
        <time>2016-10-23T08:00:21.000Z</time>
      </trkpt>
      <trkpt lat="47.57608" lon="6.80445">
        <ele>418</ele>
        <time>2016-10-23T08:00:22.000Z</time>
      </trkpt>
      <trkpt lat="47.57612" lon="6.80445">
        <ele>418</ele>
        <time>2016-10-23T08:00:23.000Z</time>
      </trkpt>
      <trkpt lat="47.57615" lon="6.80446">
        <ele>418</ele>
        <time>2016-10-23T08:00:24.000Z</time>
      </trkpt>
      <trkpt lat="47.57618" lon="6.80446">
        <ele>418</ele>
        <time>2016-10-23T08:00:25.000Z</time>
      </trkpt>
      <trkpt lat="47.57625" lon="6.80445">
        <ele>419</ele>
        <time>2016-10-23T08:00:26.000Z</time>
      </trkpt>
      <trkpt lat="47.57629" lon="6.80445">
        <ele>419</ele>
        <time>2016-10-23T08:00:27.000Z</time>
      </trkpt>
      <trkpt lat="47.57633" lon="6.80446">
        <ele>419</ele>
        <time>2016-10-23T08:00:28.001Z</time>
      </trkpt>
      <trkpt lat="47.57636" lon="6.80448">
        <ele>419</ele>
        <time>2016-10-23T08:00:29.000Z</time>
      </trkpt>
      <trkpt lat="47.57639" lon="6.80448">
        <ele>419</ele>
        <time>2016-10-23T08:00:30.000Z</time>
      </trkpt>
      <trkpt lat="47.57643" lon="6.8045">
        <ele>419</ele>
        <time>2016-10-23T08:00:31.000Z</time>
      </trkpt>
      <trkpt lat="47.57645" lon="6.80453">
        <ele>420</ele>
        <time>2016-10-23T08:00:32.000Z</time>
      </trkpt>
      <trkpt lat="47.57647" lon="6.80455">
        <ele>420</ele>
        <time>2016-10-23T08:00:33.000Z</time>
      </trkpt>
      <trkpt lat="47.5765" lon="6.80457">
        <ele>420</ele>
        <time>2016-10-23T08:00:34.001Z</time>
      </trkpt>
      <trkpt lat="47.57653" lon="6.80456">
        <ele>420</ele>
        <time>2016-10-23T08:00:35.000Z</time>
      </trkpt>
      <trkpt lat="47.57656" lon="6.80457">
        <ele>420</ele>
        <time>2016-10-23T08:00:36.000Z</time>
      </trkpt>
      <trkpt lat="47.5766" lon="6.80457">
        <ele>420</ele>
        <time>2016-10-23T08:00:37.000Z</time>
      </trkpt>
      <trkpt lat="47.57663" lon="6.80457">
        <ele>420</ele>
        <time>2016-10-23T08:00:38.000Z</time>
      </trkpt>
      <trkpt lat="47.57666" lon="6.80458">
        <ele>420</ele>
        <time>2016-10-23T08:00:39.000Z</time>
      </trkpt>
      <trkpt lat="47.5767" lon="6.80459">
        <ele>424</ele>
        <time>2016-10-23T08:00:40.000Z</time>
      </trkpt>
      <trkpt lat="47.57673" lon="6.8046">
        <ele>424</ele>
        <time>2016-10-23T08:00:41.000Z</time>
      </trkpt>
      <trkpt lat="47.57676" lon="6.8046">
        <ele>424</ele>
        <time>2016-10-23T08:00:42.000Z</time>
      </trkpt>
      <trkpt lat="47.57679" lon="6.8046">
        <ele>424</ele>
        <time>2016-10-23T08:00:43.000Z</time>
      </trkpt>
      <trkpt lat="47.57683" lon="6.80459">
        <ele>424</ele>
        <time>2016-10-23T08:00:44.000Z</time>
      </trkpt>
      <trkpt lat="47.57687" lon="6.80459">
        <ele>424</ele>
        <time>2016-10-23T08:00:45.000Z</time>
      </trkpt>
      <trkpt lat="47.57691" lon="6.80458">
        <ele>424</ele>
        <time>2016-10-23T08:00:46.000Z</time>
      </trkpt>
      <trkpt lat="47.57695" lon="6.80458">
        <ele>424</ele>
        <time>2016-10-23T08:00:47.000Z</time>
      </trkpt>
      <trkpt lat="47.57699" lon="6.80457">
        <ele>424</ele>
        <time>2016-10-23T08:00:48.000Z</time>
      </trkpt>
      <trkpt lat="47.57703" lon="6.80457">
        <ele>424</ele>
        <time>2016-10-23T08:00:49.000Z</time>
      </trkpt>
      <trkpt lat="47.57707" lon="6.80457">
        <ele>424</ele>
        <time>2016-10-23T08:00:50.000Z</time>
      </trkpt>
      <trkpt lat="47.5771" lon="6.80457">
        <ele>424</ele>
        <time>2016-10-23T08:00:51.000Z</time>
      </trkpt>
      <trkpt lat="47.57714" lon="6.80457">
        <ele>424</ele>
        <time>2016-10-23T08:00:52.000Z</time>
      </trkpt>
      <trkpt lat="47.57718" lon="6.80457">
        <ele>424</ele>
        <time>2016-10-23T08:00:53.000Z</time>
      </trkpt>
      <trkpt lat="47.57722" lon="6.80457">
        <ele>425</ele>
        <time>2016-10-23T08:00:54.000Z</time>
      </trkpt>
      <trkpt lat="47.57725" lon="6.80457">
        <ele>425</ele>
        <time>2016-10-23T08:00:55.000Z</time>
      </trkpt>
      <trkpt lat="47.57729" lon="6.80457">
        <ele>425</ele>
        <time>2016-10-23T08:00:56.000Z</time>
      </trkpt>
      <trkpt lat="47.57733" lon="6.80457">
        <ele>425</ele>
        <time>2016-10-23T08:00:57.000Z</time>
      </trkpt>
      <trkpt lat="47.57736" lon="6.80456">
        <ele>425</ele>
        <time>2016-10-23T08:00:58.000Z</time>
      </trkpt>
      <trkpt lat="47.5774" lon="6.80456">
        <ele>425</ele>
        <time>2016-10-23T08:00:59.000Z</time>
      </trkpt>
      <trkpt lat="47.57743" lon="6.80455">
        <ele>425</ele>
        <time>2016-10-23T08:01:00.000Z</time>
      </trkpt>
      <trkpt lat="47.57747" lon="6.80455">
        <ele>425</ele>
        <time>2016-10-23T08:01:01.000Z</time>
      </trkpt>
      <trkpt lat="47.5775" lon="6.80455">
        <ele>425</ele>
        <time>2016-10-23T08:01:02.000Z</time>
      </trkpt>
      <trkpt lat="47.57753" lon="6.80455">
        <ele>426</ele>
        <time>2016-10-23T08:01:03.000Z</time>
      </trkpt>
      <trkpt lat="47.57756" lon="6.80455">
        <ele>426</ele>
        <time>2016-10-23T08:01:04.000Z</time>
      </trkpt>
      <trkpt lat="47.5776" lon="6.80455">
        <ele>426</ele>
        <time>2016-10-23T08:01:06.000Z</time>
      </trkpt>
      <trkpt lat="47.57762" lon="6.80455">
        <ele>426</ele>
        <time>2016-10-23T08:01:07.000Z</time>
      </trkpt>
      <trkpt lat="47.57765" lon="6.80454">
        <ele>426</ele>
        <time>2016-10-23T08:01:10.000Z</time>
      </trkpt>
      <trkpt lat="47.57767" lon="6.80453">
        <ele>426</ele>
        <time>2016-10-23T08:01:10.999Z</time>
      </trkpt>
      <trkpt lat="47.57768" lon="6.80451">
        <ele>426</ele>
        <time>2016-10-23T08:01:12.001Z</time>
      </trkpt>
      <trkpt lat="47.5777" lon="6.80448">
        <ele>426</ele>
        <time>2016-10-23T08:01:12.999Z</time>
      </trkpt>
      <trkpt lat="47.57772" lon="6.80444">
        <ele>426</ele>
        <time>2016-10-23T08:01:15.000Z</time>
      </trkpt>
      <trkpt lat="47.57773" lon="6.80441">
        <ele>426</ele>
        <time>2016-10-23T08:01:16.000Z</time>
      </trkpt>
      <trkpt lat="47.57775" lon="6.80436">
        <ele>426</ele>
        <time>2016-10-23T08:01:18.000Z</time>
      </trkpt>
      <trkpt lat="47.57775" lon="6.80433">
        <ele>426</ele>
        <time>2016-10-23T08:01:18.999Z</time>
      </trkpt>
      <trkpt lat="47.57776" lon="6.80429">
        <ele>426</ele>
        <time>2016-10-23T08:01:23.000Z</time>
      </trkpt>
      <trkpt lat="47.57777" lon="6.80426">
        <ele>426</ele>
        <time>2016-10-23T08:01:24.000Z</time>
      </trkpt>
      <trkpt lat="47.57778" lon="6.8042">
        <ele>427</ele>
        <time>2016-10-23T08:01:27.000Z</time>
      </trkpt>
      <trkpt lat="47.57779" lon="6.80419">
        <ele>427</ele>
        <time>2016-10-23T08:01:28.000Z</time>
      </trkpt>
      <trkpt lat="47.57782" lon="6.80416">
        <ele>428</ele>
        <time>2016-10-23T08:01:31.000Z</time>
      </trkpt>
      <trkpt lat="47.57784" lon="6.80415">
        <ele>428</ele>
        <time>2016-10-23T08:01:32.000Z</time>
      </trkpt>
      <trkpt lat="47.57786" lon="6.80413">
        <ele>428</ele>
        <time>2016-10-23T08:01:34.000Z</time>
      </trkpt>
      <trkpt lat="47.57788" lon="6.80411">
        <ele>428</ele>
        <time>2016-10-23T08:01:35.000Z</time>
      </trkpt>
      <trkpt lat="47.5779" lon="6.80408">
        <ele>428</ele>
        <time>2016-10-23T08:01:36.000Z</time>
      </trkpt>
      <trkpt lat="47.57793" lon="6.80405">
        <ele>428</ele>
        <time>2016-10-23T08:01:37.000Z</time>
      </trkpt>
      <trkpt lat="47.57794" lon="6.80402">
        <ele>428</ele>
        <time>2016-10-23T08:01:38.000Z</time>
      </trkpt>
      <trkpt lat="47.57795" lon="6.80398">
        <ele>428</ele>
        <time>2016-10-23T08:01:39.000Z</time>
      </trkpt>
      <trkpt lat="47.57797" lon="6.80395">
        <ele>428</ele>
        <time>2016-10-23T08:01:40.000Z</time>
      </trkpt>
      <trkpt lat="47.57798" lon="6.80391">
        <ele>428</ele>
        <time>2016-10-23T08:01:41.000Z</time>
      </trkpt>
      <trkpt lat="47.57799" lon="6.80387">
        <ele>428</ele>
        <time>2016-10-23T08:01:42.000Z</time>
      </trkpt>
      <trkpt lat="47.57801" lon="6.80382">
        <ele>428</ele>
        <time>2016-10-23T08:01:43.000Z</time>
      </trkpt>
      <trkpt lat="47.57802" lon="6.80379">
        <ele>428</ele>
        <time>2016-10-23T08:01:44.000Z</time>
      </trkpt>
      <trkpt lat="47.57802" lon="6.80375">
        <ele>429</ele>
        <time>2016-10-23T08:01:45.000Z</time>
      </trkpt>
      <trkpt lat="47.57802" lon="6.80369">
        <ele>429</ele>
        <time>2016-10-23T08:01:47.000Z</time>
      </trkpt>
      <trkpt lat="47.57802" lon="6.80366">
        <ele>429</ele>
        <time>2016-10-23T08:01:48.000Z</time>
      </trkpt>
      <trkpt lat="47.57803" lon="6.80359">
        <ele>429</ele>
        <time>2016-10-23T08:01:50.000Z</time>
      </trkpt>
      <trkpt lat="47.57804" lon="6.80356">
        <ele>429</ele>
        <time>2016-10-23T08:01:51.000Z</time>
      </trkpt>
      <trkpt lat="47.57805" lon="6.80353">
        <ele>429</ele>
        <time>2016-10-23T08:01:52.000Z</time>
      </trkpt>
      <trkpt lat="47.57805" lon="6.80349">
        <ele>429</ele>
        <time>2016-10-23T08:01:53.000Z</time>
      </trkpt>
      <trkpt lat="47.57806" lon="6.80345">
        <ele>429</ele>
        <time>2016-10-23T08:01:54.000Z</time>
      </trkpt>
      <trkpt lat="47.57806" lon="6.80342">
        <ele>429</ele>
        <time>2016-10-23T08:01:55.000Z</time>
      </trkpt>
      <trkpt lat="47.57806" lon="6.80335">
        <ele>430</ele>
        <time>2016-10-23T08:01:57.000Z</time>
      </trkpt>
      <trkpt lat="47.57806" lon="6.80333">
        <ele>430</ele>
        <time>2016-10-23T08:01:58.000Z</time>
      </trkpt>
      <trkpt lat="47.57806" lon="6.80328">
        <ele>430</ele>
        <time>2016-10-23T08:02:00.000Z</time>
      </trkpt>
      <trkpt lat="47.57806" lon="6.80326">
        <ele>430</ele>
        <time>2016-10-23T08:02:01.000Z</time>
      </trkpt>
      <trkpt lat="47.57806" lon="6.8032">
        <ele>430</ele>
        <time>2016-10-23T08:02:03.000Z</time>
      </trkpt>
      <trkpt lat="47.57806" lon="6.80317">
        <ele>430</ele>
        <time>2016-10-23T08:02:04.000Z</time>
      </trkpt>
      <trkpt lat="47.57806" lon="6.80311">
        <ele>430</ele>
        <time>2016-10-23T08:02:06.000Z</time>
      </trkpt>
      <trkpt lat="47.57806" lon="6.80309">
        <ele>430</ele>
        <time>2016-10-23T08:02:07.000Z</time>
      </trkpt>
      <trkpt lat="47.57804" lon="6.80303">
        <ele>430</ele>
        <time>2016-10-23T08:02:10.000Z</time>
      </trkpt>
      <trkpt lat="47.57804" lon="6.80301">
        <ele>430</ele>
        <time>2016-10-23T08:02:11.000Z</time>
      </trkpt>
      <trkpt lat="47.57802" lon="6.80296">
        <ele>430</ele>
        <time>2016-10-23T08:02:13.000Z</time>
      </trkpt>
      <trkpt lat="47.57801" lon="6.80294">
        <ele>430</ele>
        <time>2016-10-23T08:02:14.000Z</time>
      </trkpt>
      <trkpt lat="47.578" lon="6.80288">
        <ele>430</ele>
        <time>2016-10-23T08:02:17.000Z</time>
      </trkpt>
      <trkpt lat="47.57799" lon="6.80286">
        <ele>430</ele>
        <time>2016-10-23T08:02:18.000Z</time>
      </trkpt>
      <trkpt lat="47.57797" lon="6.80281">
        <ele>430</ele>
        <time>2016-10-23T08:02:22.000Z</time>
      </trkpt>
      <trkpt lat="47.57797" lon="6.8028">
        <ele>430</ele>
        <time>2016-10-23T08:02:23.000Z</time>
      </trkpt>
      <trkpt lat="47.57795" lon="6.80275">
        <ele>430</ele>
        <time>2016-10-23T08:02:25.000Z</time>
      </trkpt>
      <trkpt lat="47.57795" lon="6.80272">
        <ele>430</ele>
        <time>2016-10-23T08:02:26.000Z</time>
      </trkpt>
      <trkpt lat="47.57795" lon="6.80268">
        <ele>430</ele>
        <time>2016-10-23T08:02:27.000Z</time>
      </trkpt>
      <trkpt lat="47.57794" lon="6.80264">
        <ele>430</ele>
        <time>2016-10-23T08:02:28.000Z</time>
      </trkpt>
      <trkpt lat="47.57794" lon="6.8026">
        <ele>430</ele>
        <time>2016-10-23T08:02:29.000Z</time>
      </trkpt>
      <trkpt lat="47.57794" lon="6.80256">
        <ele>430</ele>
        <time>2016-10-23T08:02:30.000Z</time>
      </trkpt>
      <trkpt lat="47.57793" lon="6.80252">
        <ele>430</ele>
        <time>2016-10-23T08:02:31.000Z</time>
      </trkpt>
      <trkpt lat="47.57792" lon="6.80248">
        <ele>431</ele>
        <time>2016-10-23T08:02:32.000Z</time>
      </trkpt>
      <trkpt lat="47.57792" lon="6.80243">
        <ele>431</ele>
        <time>2016-10-23T08:02:33.000Z</time>
      </trkpt>
      <trkpt lat="47.57792" lon="6.80239">
        <ele>431</ele>
        <time>2016-10-23T08:02:34.000Z</time>
      </trkpt>
      <trkpt lat="47.57791" lon="6.80234">
        <ele>431</ele>
        <time>2016-10-23T08:02:35.000Z</time>
      </trkpt>
      <trkpt lat="47.57791" lon="6.8023">
        <ele>431</ele>
        <time>2016-10-23T08:02:36.000Z</time>
      </trkpt>
      <trkpt lat="47.57791" lon="6.80226">
        <ele>432</ele>
        <time>2016-10-23T08:02:37.000Z</time>
      </trkpt>
      <trkpt lat="47.5779" lon="6.80221">
        <ele>432</ele>
        <time>2016-10-23T08:02:38.000Z</time>
      </trkpt>
      <trkpt lat="47.5779" lon="6.80217">
        <ele>432</ele>
        <time>2016-10-23T08:02:39.000Z</time>
      </trkpt>
      <trkpt lat="47.57789" lon="6.80213">
        <ele>432</ele>
        <time>2016-10-23T08:02:40.000Z</time>
      </trkpt>
      <trkpt lat="47.57788" lon="6.80208">
        <ele>432</ele>
        <time>2016-10-23T08:02:41.000Z</time>
      </trkpt>
      <trkpt lat="47.57787" lon="6.80204">
        <ele>432</ele>
        <time>2016-10-23T08:02:42.000Z</time>
      </trkpt>
      <trkpt lat="47.57786" lon="6.80201">
        <ele>432</ele>
        <time>2016-10-23T08:02:43.000Z</time>
      </trkpt>
      <trkpt lat="47.57785" lon="6.80197">
        <ele>432</ele>
        <time>2016-10-23T08:02:44.000Z</time>
      </trkpt>
      <trkpt lat="47.57783" lon="6.80193">
        <ele>432</ele>
        <time>2016-10-23T08:02:45.000Z</time>
      </trkpt>
      <trkpt lat="47.57782" lon="6.80189">
        <ele>432</ele>
        <time>2016-10-23T08:02:46.000Z</time>
      </trkpt>
      <trkpt lat="47.5778" lon="6.80185">
        <ele>432</ele>
        <time>2016-10-23T08:02:47.000Z</time>
      </trkpt>
      <trkpt lat="47.57779" lon="6.80181">
        <ele>432</ele>
        <time>2016-10-23T08:02:48.000Z</time>
      </trkpt>
      <trkpt lat="47.57778" lon="6.80176">
        <ele>432</ele>
        <time>2016-10-23T08:02:49.000Z</time>
      </trkpt>
      <trkpt lat="47.57777" lon="6.80172">
        <ele>432</ele>
        <time>2016-10-23T08:02:50.000Z</time>
      </trkpt>
      <trkpt lat="47.57776" lon="6.80167">
        <ele>432</ele>
        <time>2016-10-23T08:02:51.000Z</time>
      </trkpt>
      <trkpt lat="47.57775" lon="6.80162">
        <ele>433</ele>
        <time>2016-10-23T08:02:52.000Z</time>
      </trkpt>
      <trkpt lat="47.57775" lon="6.80157">
        <ele>433</ele>
        <time>2016-10-23T08:02:53.000Z</time>
      </trkpt>
      <trkpt lat="47.57774" lon="6.80153">
        <ele>434</ele>
        <time>2016-10-23T08:02:54.000Z</time>
      </trkpt>
      <trkpt lat="47.57774" lon="6.80149">
        <ele>434</ele>
        <time>2016-10-23T08:02:55.000Z</time>
      </trkpt>
      <trkpt lat="47.57774" lon="6.80145">
        <ele>434</ele>
        <time>2016-10-23T08:02:56.000Z</time>
      </trkpt>
      <trkpt lat="47.57773" lon="6.8014">
        <ele>434</ele>
        <time>2016-10-23T08:02:57.000Z</time>
      </trkpt>
      <trkpt lat="47.57772" lon="6.80136">
        <ele>434</ele>
        <time>2016-10-23T08:02:58.000Z</time>
      </trkpt>
      <trkpt lat="47.57772" lon="6.80132">
        <ele>434</ele>
        <time>2016-10-23T08:02:59.000Z</time>
      </trkpt>
      <trkpt lat="47.57772" lon="6.80128">
        <ele>434</ele>
        <time>2016-10-23T08:03:00.000Z</time>
      </trkpt>
      <trkpt lat="47.57771" lon="6.80124">
        <ele>434</ele>
        <time>2016-10-23T08:03:01.000Z</time>
      </trkpt>
      <trkpt lat="47.57771" lon="6.80121">
        <ele>434</ele>
        <time>2016-10-23T08:03:02.000Z</time>
      </trkpt>
      <trkpt lat="47.57772" lon="6.80115">
        <ele>435</ele>
        <time>2016-10-23T08:03:04.000Z</time>
      </trkpt>
      <trkpt lat="47.57772" lon="6.80113">
        <ele>435</ele>
        <time>2016-10-23T08:03:05.000Z</time>
      </trkpt>
      <trkpt lat="47.57774" lon="6.80106">
        <ele>435</ele>
        <time>2016-10-23T08:03:08.000Z</time>
      </trkpt>
      <trkpt lat="47.57774" lon="6.80105">
        <ele>435</ele>
        <time>2016-10-23T08:03:09.000Z</time>
      </trkpt>
      <trkpt lat="47.57771" lon="6.801">
        <ele>435</ele>
        <time>2016-10-23T08:03:14.000Z</time>
      </trkpt>
      <trkpt lat="47.57771" lon="6.80099">
        <ele>435</ele>
        <time>2016-10-23T08:03:15.000Z</time>
      </trkpt>
      <trkpt lat="47.57771" lon="6.80095">
        <ele>435</ele>
        <time>2016-10-23T08:03:37.000Z</time>
      </trkpt>
      <trkpt lat="47.57772" lon="6.80092">
        <ele>435</ele>
        <time>2016-10-23T08:03:38.000Z</time>
      </trkpt>
      <trkpt lat="47.57773" lon="6.80086">
        <ele>435</ele>
        <time>2016-10-23T08:03:39.000Z</time>
      </trkpt>
      <trkpt lat="47.57774" lon="6.80081">
        <ele>434</ele>
        <time>2016-10-23T08:03:40.000Z</time>
      </trkpt>
      <trkpt lat="47.57775" lon="6.8007">
        <ele>434</ele>
        <time>2016-10-23T08:03:41.000Z</time>
      </trkpt>
      <trkpt lat="47.57774" lon="6.80064">
        <ele>434</ele>
        <time>2016-10-23T08:03:43.000Z</time>
      </trkpt>
      <trkpt lat="47.57773" lon="6.80062">
        <ele>434</ele>
        <time>2016-10-23T08:03:44.000Z</time>
      </trkpt>
      <trkpt lat="47.57771" lon="6.80058">
        <ele>434</ele>
        <time>2016-10-23T08:03:46.000Z</time>
      </trkpt>
      <trkpt lat="47.57769" lon="6.80056">
        <ele>434</ele>
        <time>2016-10-23T08:03:47.000Z</time>
      </trkpt>
      <trkpt lat="47.57767" lon="6.8006">
        <ele>434</ele>
        <time>2016-10-23T08:03:53.000Z</time>
      </trkpt>
      <trkpt lat="47.57766" lon="6.80061">
        <ele>434</ele>
        <time>2016-10-23T08:03:54.000Z</time>
      </trkpt>
      <trkpt lat="47.57763" lon="6.80063">
        <ele>434</ele>
        <time>2016-10-23T08:03:56.000Z</time>
      </trkpt>
      <trkpt lat="47.57762" lon="6.80064">
        <ele>434</ele>
        <time>2016-10-23T08:03:57.000Z</time>
      </trkpt>
      <trkpt lat="47.57758" lon="6.80065">
        <ele>434</ele>
        <time>2016-10-23T08:03:59.000Z</time>
      </trkpt>
      <trkpt lat="47.57757" lon="6.80067">
        <ele>434</ele>
        <time>2016-10-23T08:04:00.000Z</time>
      </trkpt>
      <trkpt lat="47.57757" lon="6.80073">
        <ele>434</ele>
        <time>2016-10-23T08:05:44.000Z</time>
      </trkpt>
      <trkpt lat="47.57757" lon="6.80074">
        <ele>434</ele>
        <time>2016-10-23T08:05:45.000Z</time>
      </trkpt>
      <trkpt lat="47.57756" lon="6.8008">
        <ele>434</ele>
        <time>2016-10-23T08:05:57.000Z</time>
      </trkpt>
      <trkpt lat="47.57756" lon="6.8008">
        <ele>434</ele>
        <time>2016-10-23T08:05:58.000Z</time>
      </trkpt>
      <trkpt lat="47.57754" lon="6.80086">
        <ele>434</ele>
        <time>2016-10-23T08:08:40.000Z</time>
      </trkpt>
      <trkpt lat="47.57753" lon="6.80086">
        <ele>434</ele>
        <time>2016-10-23T08:08:41.000Z</time>
      </trkpt>
      <trkpt lat="47.57753" lon="6.8008">
        <ele>434</ele>
        <time>2016-10-23T08:08:50.000Z</time>
      </trkpt>
      <trkpt lat="47.57753" lon="6.80079">
        <ele>434</ele>
        <time>2016-10-23T08:08:51.000Z</time>
      </trkpt>
      <trkpt lat="47.57754" lon="6.80074">
        <ele>434</ele>
        <time>2016-10-23T08:09:09.000Z</time>
      </trkpt>
      <trkpt lat="47.57754" lon="6.80071">
        <ele>434</ele>
        <time>2016-10-23T08:09:10.000Z</time>
      </trkpt>
      <trkpt lat="47.57754" lon="6.80067">
        <ele>434</ele>
        <time>2016-10-23T08:09:12.000Z</time>
      </trkpt>
      <trkpt lat="47.57754" lon="6.80064">
        <ele>434</ele>
        <time>2016-10-23T08:09:13.000Z</time>
      </trkpt>
      <trkpt lat="47.57755" lon="6.80059">
        <ele>434</ele>
        <time>2016-10-23T08:09:15.000Z</time>
      </trkpt>
      <trkpt lat="47.57756" lon="6.80056">
        <ele>434</ele>
        <time>2016-10-23T08:09:16.000Z</time>
      </trkpt>
      <trkpt lat="47.57757" lon="6.80053">
        <ele>434</ele>
        <time>2016-10-23T08:09:17.000Z</time>
      </trkpt>
      <trkpt lat="47.57759" lon="6.80051">
        <ele>434</ele>
        <time>2016-10-23T08:09:18.000Z</time>
      </trkpt>
      <trkpt lat="47.5776" lon="6.80046">
        <ele>434</ele>
        <time>2016-10-23T08:09:19.000Z</time>
      </trkpt>
      <trkpt lat="47.57761" lon="6.80042">
        <ele>434</ele>
        <time>2016-10-23T08:09:20.000Z</time>
      </trkpt>
      <trkpt lat="47.57761" lon="6.80036">
        <ele>434</ele>
        <time>2016-10-23T08:09:21.000Z</time>
      </trkpt>
      <trkpt lat="47.5776" lon="6.8003">
        <ele>434</ele>
        <time>2016-10-23T08:09:22.000Z</time>
      </trkpt>
      <trkpt lat="47.5776" lon="6.80024">
        <ele>433</ele>
        <time>2016-10-23T08:09:23.000Z</time>
      </trkpt>
      <trkpt lat="47.5776" lon="6.80018">
        <ele>433</ele>
        <time>2016-10-23T08:09:24.000Z</time>
      </trkpt>
      <trkpt lat="47.57759" lon="6.80012">
        <ele>433</ele>
        <time>2016-10-23T08:09:25.000Z</time>
      </trkpt>
      <trkpt lat="47.57757" lon="6.80007">
        <ele>433</ele>
        <time>2016-10-23T08:09:26.000Z</time>
      </trkpt>
      <trkpt lat="47.57755" lon="6.80001">
        <ele>432</ele>
        <time>2016-10-23T08:09:27.000Z</time>
      </trkpt>
      <trkpt lat="47.57753" lon="6.79995">
        <ele>431</ele>
        <time>2016-10-23T08:09:28.000Z</time>
      </trkpt>
      <trkpt lat="47.57751" lon="6.79982">
        <ele>430</ele>
        <time>2016-10-23T08:09:29.000Z</time>
      </trkpt>
      <trkpt lat="47.5775" lon="6.79973">
        <ele>427</ele>
        <time>2016-10-23T08:09:30.000Z</time>
      </trkpt>
      <trkpt lat="47.57751" lon="6.79965">
        <ele>429</ele>
        <time>2016-10-23T08:09:31.000Z</time>
      </trkpt>
      <trkpt lat="47.57753" lon="6.79956">
        <ele>428</ele>
        <time>2016-10-23T08:09:32.000Z</time>
      </trkpt>
      <trkpt lat="47.57755" lon="6.79948">
        <ele>427</ele>
        <time>2016-10-23T08:09:33.000Z</time>
      </trkpt>
      <trkpt lat="47.57759" lon="6.79938">
        <ele>426</ele>
        <time>2016-10-23T08:09:34.000Z</time>
      </trkpt>
      <trkpt lat="47.57763" lon="6.79932">
        <ele>426</ele>
        <time>2016-10-23T08:09:35.000Z</time>
      </trkpt>
      <trkpt lat="47.57769" lon="6.79931">
        <ele>426</ele>
        <time>2016-10-23T08:09:36.000Z</time>
      </trkpt>
      <trkpt lat="47.57774" lon="6.79928">
        <ele>426</ele>
        <time>2016-10-23T08:09:37.000Z</time>
      </trkpt>
      <trkpt lat="47.57779" lon="6.79925">
        <ele>427</ele>
        <time>2016-10-23T08:09:38.000Z</time>
      </trkpt>
      <trkpt lat="47.57783" lon="6.79922">
        <ele>427</ele>
        <time>2016-10-23T08:09:39.000Z</time>
      </trkpt>
      <trkpt lat="47.57787" lon="6.79921">
        <ele>427</ele>
        <time>2016-10-23T08:09:40.000Z</time>
      </trkpt>
      <trkpt lat="47.57792" lon="6.79916">
        <ele>423</ele>
        <time>2016-10-23T08:09:41.000Z</time>
      </trkpt>
      <trkpt lat="47.57797" lon="6.79914">
        <ele>423</ele>
        <time>2016-10-23T08:09:42.000Z</time>
      </trkpt>
      <trkpt lat="47.57802" lon="6.79912">
        <ele>423</ele>
        <time>2016-10-23T08:09:43.000Z</time>
      </trkpt>
      <trkpt lat="47.57808" lon="6.79906">
        <ele>423</ele>
        <time>2016-10-23T08:09:44.000Z</time>
      </trkpt>
      <trkpt lat="47.57813" lon="6.79901">
        <ele>423</ele>
        <time>2016-10-23T08:09:45.000Z</time>
      </trkpt>
      <trkpt lat="47.57816" lon="6.79892">
        <ele>423</ele>
        <time>2016-10-23T08:09:46.000Z</time>
      </trkpt>
      <trkpt lat="47.57819" lon="6.79882">
        <ele>422</ele>
        <time>2016-10-23T08:09:47.000Z</time>
      </trkpt>
      <trkpt lat="47.57822" lon="6.79872">
        <ele>421</ele>
        <time>2016-10-23T08:09:48.000Z</time>
      </trkpt>
      <trkpt lat="47.57823" lon="6.79863">
        <ele>421</ele>
        <time>2016-10-23T08:09:49.000Z</time>
      </trkpt>
      <trkpt lat="47.57823" lon="6.79853">
        <ele>420</ele>
        <time>2016-10-23T08:09:50.000Z</time>
      </trkpt>
      <trkpt lat="47.57825" lon="6.79844">
        <ele>420</ele>
        <time>2016-10-23T08:09:51.000Z</time>
      </trkpt>
      <trkpt lat="47.57825" lon="6.79835">
        <ele>420</ele>
        <time>2016-10-23T08:09:52.000Z</time>
      </trkpt>
      <trkpt lat="47.57826" lon="6.79826">
        <ele>418</ele>
        <time>2016-10-23T08:09:53.000Z</time>
      </trkpt>
      <trkpt lat="47.57828" lon="6.79818">
        <ele>418</ele>
        <time>2016-10-23T08:09:54.000Z</time>
      </trkpt>
      <trkpt lat="47.57829" lon="6.79809">
        <ele>418</ele>
        <time>2016-10-23T08:09:55.000Z</time>
      </trkpt>
      <trkpt lat="47.57832" lon="6.798">
        <ele>417</ele>
        <time>2016-10-23T08:09:56.000Z</time>
      </trkpt>
      <trkpt lat="47.57836" lon="6.79793">
        <ele>416</ele>
        <time>2016-10-23T08:09:57.000Z</time>
      </trkpt>
      <trkpt lat="47.57841" lon="6.79788">
        <ele>416</ele>
        <time>2016-10-23T08:09:58.000Z</time>
      </trkpt>
      <trkpt lat="47.57846" lon="6.79783">
        <ele>416</ele>
        <time>2016-10-23T08:09:59.000Z</time>
      </trkpt>
      <trkpt lat="47.57852" lon="6.7978">
        <ele>416</ele>
        <time>2016-10-23T08:10:00.000Z</time>
      </trkpt>
      <trkpt lat="47.57858" lon="6.79774">
        <ele>416</ele>
        <time>2016-10-23T08:10:00.999Z</time>
      </trkpt>
      <trkpt lat="47.57864" lon="6.79769">
        <ele>416</ele>
        <time>2016-10-23T08:10:02.000Z</time>
      </trkpt>
      <trkpt lat="47.57869" lon="6.79763">
        <ele>415</ele>
        <time>2016-10-23T08:10:03.000Z</time>
      </trkpt>
      <trkpt lat="47.57874" lon="6.79754">
        <ele>415</ele>
        <time>2016-10-23T08:10:04.000Z</time>
      </trkpt>
      <trkpt lat="47.57877" lon="6.79745">
        <ele>414</ele>
        <time>2016-10-23T08:10:05.000Z</time>
      </trkpt>
      <trkpt lat="47.57879" lon="6.79734">
        <ele>413</ele>
        <time>2016-10-23T08:10:06.000Z</time>
      </trkpt>
      <trkpt lat="47.57879" lon="6.79721">
        <ele>413</ele>
        <time>2016-10-23T08:10:07.000Z</time>
      </trkpt>
      <trkpt lat="47.57878" lon="6.79711">
        <ele>413</ele>
        <time>2016-10-23T08:10:08.000Z</time>
      </trkpt>
      <trkpt lat="47.57874" lon="6.79701">
        <ele>413</ele>
        <time>2016-10-23T08:10:09.000Z</time>
      </trkpt>
      <trkpt lat="47.57871" lon="6.79692">
        <ele>413</ele>
        <time>2016-10-23T08:10:10.000Z</time>
      </trkpt>
      <trkpt lat="47.57871" lon="6.7968">
        <ele>413</ele>
        <time>2016-10-23T08:10:11.000Z</time>
      </trkpt>
      <trkpt lat="47.57871" lon="6.79669">
        <ele>413</ele>
        <time>2016-10-23T08:10:12.000Z</time>
      </trkpt>
      <trkpt lat="47.57873" lon="6.79658">
        <ele>411</ele>
        <time>2016-10-23T08:10:13.000Z</time>
      </trkpt>
      <trkpt lat="47.57874" lon="6.79646">
        <ele>411</ele>
        <time>2016-10-23T08:10:14.000Z</time>
      </trkpt>
      <trkpt lat="47.57877" lon="6.79636">
        <ele>411</ele>
        <time>2016-10-23T08:10:15.000Z</time>
      </trkpt>
      <trkpt lat="47.57877" lon="6.79626">
        <ele>411</ele>
        <time>2016-10-23T08:10:16.000Z</time>
      </trkpt>
      <trkpt lat="47.57881" lon="6.79616">
        <ele>411</ele>
        <time>2016-10-23T08:10:17.000Z</time>
      </trkpt>
      <trkpt lat="47.57886" lon="6.79607">
        <ele>410</ele>
        <time>2016-10-23T08:10:18.000Z</time>
      </trkpt>
      <trkpt lat="47.57888" lon="6.79598">
        <ele>410</ele>
        <time>2016-10-23T08:10:19.000Z</time>
      </trkpt>
      <trkpt lat="47.57891" lon="6.79588">
        <ele>410</ele>
        <time>2016-10-23T08:10:20.000Z</time>
      </trkpt>
      <trkpt lat="47.57891" lon="6.79577">
        <ele>409</ele>
        <time>2016-10-23T08:10:21.000Z</time>
      </trkpt>
      <trkpt lat="47.57889" lon="6.79568">
        <ele>409</ele>
        <time>2016-10-23T08:10:22.000Z</time>
      </trkpt>
      <trkpt lat="47.57888" lon="6.79558">
        <ele>409</ele>
        <time>2016-10-23T08:10:23.000Z</time>
      </trkpt>
      <trkpt lat="47.57886" lon="6.79548">
        <ele>409</ele>
        <time>2016-10-23T08:10:24.000Z</time>
      </trkpt>
      <trkpt lat="47.57884" lon="6.79536">
        <ele>409</ele>
        <time>2016-10-23T08:10:25.000Z</time>
      </trkpt>
      <trkpt lat="47.57881" lon="6.79526">
        <ele>409</ele>
        <time>2016-10-23T08:10:26.000Z</time>
      </trkpt>
      <trkpt lat="47.57879" lon="6.79516">
        <ele>409</ele>
        <time>2016-10-23T08:10:27.000Z</time>
      </trkpt>
      <trkpt lat="47.57876" lon="6.79505">
        <ele>408</ele>
        <time>2016-10-23T08:10:28.000Z</time>
      </trkpt>
      <trkpt lat="47.57875" lon="6.79494">
        <ele>407</ele>
        <time>2016-10-23T08:10:29.000Z</time>
      </trkpt>
      <trkpt lat="47.57872" lon="6.79481">
        <ele>406</ele>
        <time>2016-10-23T08:10:30.000Z</time>
      </trkpt>
      <trkpt lat="47.57871" lon="6.79471">
        <ele>406</ele>
        <time>2016-10-23T08:10:31.000Z</time>
      </trkpt>
      <trkpt lat="47.57869" lon="6.79458">
        <ele>406</ele>
        <time>2016-10-23T08:10:32.000Z</time>
      </trkpt>
      <trkpt lat="47.57866" lon="6.79447">
        <ele>406</ele>
        <time>2016-10-23T08:10:33.000Z</time>
      </trkpt>
      <trkpt lat="47.57864" lon="6.79435">
        <ele>405</ele>
        <time>2016-10-23T08:10:34.000Z</time>
      </trkpt>
      <trkpt lat="47.57862" lon="6.79422">
        <ele>405</ele>
        <time>2016-10-23T08:10:35.000Z</time>
      </trkpt>
      <trkpt lat="47.5786" lon="6.79409">
        <ele>402</ele>
        <time>2016-10-23T08:10:36.000Z</time>
      </trkpt>
      <trkpt lat="47.57856" lon="6.79396">
        <ele>402</ele>
        <time>2016-10-23T08:10:37.000Z</time>
      </trkpt>
      <trkpt lat="47.57853" lon="6.79382">
        <ele>401</ele>
        <time>2016-10-23T08:10:38.000Z</time>
      </trkpt>
      <trkpt lat="47.57851" lon="6.7937">
        <ele>401</ele>
        <time>2016-10-23T08:10:39.000Z</time>
      </trkpt>
      <trkpt lat="47.57848" lon="6.79355">
        <ele>400</ele>
        <time>2016-10-23T08:10:40.000Z</time>
      </trkpt>
      <trkpt lat="47.57845" lon="6.79342">
        <ele>399</ele>
        <time>2016-10-23T08:10:41.000Z</time>
      </trkpt>
      <trkpt lat="47.57842" lon="6.79328">
        <ele>398</ele>
        <time>2016-10-23T08:10:42.000Z</time>
      </trkpt>
      <trkpt lat="47.5784" lon="6.79315">
        <ele>397</ele>
        <time>2016-10-23T08:10:43.000Z</time>
      </trkpt>
      <trkpt lat="47.57838" lon="6.793">
        <ele>397</ele>
        <time>2016-10-23T08:10:44.000Z</time>
      </trkpt>
      <trkpt lat="47.57838" lon="6.79285">
        <ele>397</ele>
        <time>2016-10-23T08:10:45.000Z</time>
      </trkpt>
      <trkpt lat="47.57835" lon="6.79269">
        <ele>397</ele>
        <time>2016-10-23T08:10:46.000Z</time>
      </trkpt>
      <trkpt lat="47.57832" lon="6.79255">
        <ele>396</ele>
        <time>2016-10-23T08:10:47.000Z</time>
      </trkpt>
      <trkpt lat="47.57831" lon="6.7924">
        <ele>395</ele>
        <time>2016-10-23T08:10:48.000Z</time>
      </trkpt>
      <trkpt lat="47.57829" lon="6.79225">
        <ele>394</ele>
        <time>2016-10-23T08:10:49.000Z</time>
      </trkpt>
      <trkpt lat="47.57827" lon="6.7921">
        <ele>394</ele>
        <time>2016-10-23T08:10:50.000Z</time>
      </trkpt>
      <trkpt lat="47.57825" lon="6.79197">
        <ele>394</ele>
        <time>2016-10-23T08:10:51.000Z</time>
      </trkpt>
      <trkpt lat="47.57824" lon="6.79183">
        <ele>393</ele>
        <time>2016-10-23T08:10:52.000Z</time>
      </trkpt>
      <trkpt lat="47.57827" lon="6.79168">
        <ele>393</ele>
        <time>2016-10-23T08:10:53.000Z</time>
      </trkpt>
      <trkpt lat="47.5783" lon="6.79155">
        <ele>392</ele>
        <time>2016-10-23T08:10:54.000Z</time>
      </trkpt>
      <trkpt lat="47.57834" lon="6.79142">
        <ele>393</ele>
        <time>2016-10-23T08:10:55.000Z</time>
      </trkpt>
      <trkpt lat="47.57838" lon="6.79131">
        <ele>393</ele>
        <time>2016-10-23T08:10:56.000Z</time>
      </trkpt>
      <trkpt lat="47.57843" lon="6.7912">
        <ele>393</ele>
        <time>2016-10-23T08:10:57.000Z</time>
      </trkpt>
      <trkpt lat="47.57851" lon="6.79116">
        <ele>393</ele>
        <time>2016-10-23T08:10:58.000Z</time>
      </trkpt>
      <trkpt lat="47.57858" lon="6.79112">
        <ele>394</ele>
        <time>2016-10-23T08:10:59.000Z</time>
      </trkpt>
      <trkpt lat="47.57866" lon="6.7911">
        <ele>394</ele>
        <time>2016-10-23T08:11:00.000Z</time>
      </trkpt>
      <trkpt lat="47.57873" lon="6.79109">
        <ele>394</ele>
        <time>2016-10-23T08:11:01.000Z</time>
      </trkpt>
      <trkpt lat="47.5788" lon="6.79109">
        <ele>394</ele>
        <time>2016-10-23T08:11:02.000Z</time>
      </trkpt>
      <trkpt lat="47.57888" lon="6.79109">
        <ele>395</ele>
        <time>2016-10-23T08:11:03.000Z</time>
      </trkpt>
      <trkpt lat="47.57894" lon="6.7911">
        <ele>395</ele>
        <time>2016-10-23T08:11:04.000Z</time>
      </trkpt>
      <trkpt lat="47.57902" lon="6.7911">
        <ele>395</ele>
        <time>2016-10-23T08:11:05.000Z</time>
      </trkpt>
      <trkpt lat="47.57909" lon="6.79112">
        <ele>395</ele>
        <time>2016-10-23T08:11:06.000Z</time>
      </trkpt>
      <trkpt lat="47.57916" lon="6.79113">
        <ele>395</ele>
        <time>2016-10-23T08:11:07.000Z</time>
      </trkpt>
      <trkpt lat="47.57924" lon="6.79114">
        <ele>392</ele>
        <time>2016-10-23T08:11:08.000Z</time>
      </trkpt>
      <trkpt lat="47.5793" lon="6.79115">
        <ele>391</ele>
        <time>2016-10-23T08:11:09.000Z</time>
      </trkpt>
      <trkpt lat="47.57939" lon="6.79112">
        <ele>390</ele>
        <time>2016-10-23T08:11:10.000Z</time>
      </trkpt>
      <trkpt lat="47.57946" lon="6.7911">
        <ele>390</ele>
        <time>2016-10-23T08:11:11.000Z</time>
      </trkpt>
      <trkpt lat="47.57954" lon="6.79108">
        <ele>389</ele>
        <time>2016-10-23T08:11:12.000Z</time>
      </trkpt>
      <trkpt lat="47.5796" lon="6.79107">
        <ele>388</ele>
        <time>2016-10-23T08:11:13.000Z</time>
      </trkpt>
      <trkpt lat="47.57965" lon="6.7911">
        <ele>388</ele>
        <time>2016-10-23T08:11:14.000Z</time>
      </trkpt>
      <trkpt lat="47.57971" lon="6.79111">
        <ele>387</ele>
        <time>2016-10-23T08:11:15.000Z</time>
      </trkpt>
      <trkpt lat="47.57973" lon="6.79113">
        <ele>387</ele>
        <time>2016-10-23T08:11:16.000Z</time>
      </trkpt>
      <trkpt lat="47.57976" lon="6.79116">
        <ele>387</ele>
        <time>2016-10-23T08:11:17.000Z</time>
      </trkpt>
      <trkpt lat="47.57978" lon="6.79119">
        <ele>387</ele>
        <time>2016-10-23T08:11:18.000Z</time>
      </trkpt>
      <trkpt lat="47.5798" lon="6.79123">
        <ele>386</ele>
        <time>2016-10-23T08:11:19.000Z</time>
      </trkpt>
      <trkpt lat="47.57983" lon="6.79131">
        <ele>386</ele>
        <time>2016-10-23T08:11:20.000Z</time>
      </trkpt>
      <trkpt lat="47.57986" lon="6.79139">
        <ele>386</ele>
        <time>2016-10-23T08:11:21.000Z</time>
      </trkpt>
      <trkpt lat="47.57988" lon="6.79146">
        <ele>385</ele>
        <time>2016-10-23T08:11:22.000Z</time>
      </trkpt>
      <trkpt lat="47.5799" lon="6.79152">
        <ele>384</ele>
        <time>2016-10-23T08:11:23.000Z</time>
      </trkpt>
      <trkpt lat="47.57991" lon="6.79154">
        <ele>384</ele>
        <time>2016-10-23T08:11:24.000Z</time>
      </trkpt>
      <trkpt lat="47.57993" lon="6.79158">
        <ele>383</ele>
        <time>2016-10-23T08:11:25.000Z</time>
      </trkpt>
      <trkpt lat="47.57996" lon="6.79155">
        <ele>383</ele>
        <time>2016-10-23T08:11:26.000Z</time>
      </trkpt>
      <trkpt lat="47.57999" lon="6.79153">
        <ele>383</ele>
        <time>2016-10-23T08:11:27.000Z</time>
      </trkpt>
      <trkpt lat="47.58004" lon="6.79153">
        <ele>377</ele>
        <time>2016-10-23T08:11:28.000Z</time>
      </trkpt>
      <trkpt lat="47.58009" lon="6.79152">
        <ele>376</ele>
        <time>2016-10-23T08:11:29.000Z</time>
      </trkpt>
      <trkpt lat="47.58014" lon="6.79152">
        <ele>376</ele>
        <time>2016-10-23T08:11:30.000Z</time>
      </trkpt>
      <trkpt lat="47.58022" lon="6.79148">
        <ele>375</ele>
        <time>2016-10-23T08:11:31.000Z</time>
      </trkpt>
      <trkpt lat="47.58028" lon="6.79148">
        <ele>374</ele>
        <time>2016-10-23T08:11:32.000Z</time>
      </trkpt>
      <trkpt lat="47.58035" lon="6.79149">
        <ele>373</ele>
        <time>2016-10-23T08:11:33.000Z</time>
      </trkpt>
      <trkpt lat="47.58041" lon="6.79153">
        <ele>373</ele>
        <time>2016-10-23T08:11:34.000Z</time>
      </trkpt>
      <trkpt lat="47.58046" lon="6.79159">
        <ele>372</ele>
        <time>2016-10-23T08:11:35.000Z</time>
      </trkpt>
      <trkpt lat="47.58052" lon="6.79164">
        <ele>371</ele>
        <time>2016-10-23T08:11:36.000Z</time>
      </trkpt>
      <trkpt lat="47.58056" lon="6.7917">
        <ele>373</ele>
        <time>2016-10-23T08:11:37.000Z</time>
      </trkpt>
      <trkpt lat="47.5806" lon="6.79173">
        <ele>372</ele>
        <time>2016-10-23T08:11:38.000Z</time>
      </trkpt>
      <trkpt lat="47.5806" lon="6.79179">
        <ele>372</ele>
        <time>2016-10-23T08:11:40.000Z</time>
      </trkpt>
      <trkpt lat="47.5806" lon="6.7918">
        <ele>372</ele>
        <time>2016-10-23T08:11:41.000Z</time>
      </trkpt>
      <trkpt lat="47.58064" lon="6.79183">
        <ele>372</ele>
        <time>2016-10-23T08:11:44.001Z</time>
      </trkpt>
      <trkpt lat="47.58077" lon="6.7919">
        <ele>371</ele>
        <time>2016-10-23T08:11:45.000Z</time>
      </trkpt>
      <trkpt lat="47.5808" lon="6.79193">
        <ele>372</ele>
        <time>2016-10-23T08:11:46.000Z</time>
      </trkpt>
      <trkpt lat="47.58085" lon="6.79197">
        <ele>365</ele>
        <time>2016-10-23T08:11:47.000Z</time>
      </trkpt>
      <trkpt lat="47.58087" lon="6.79201">
        <ele>365</ele>
        <time>2016-10-23T08:11:48.000Z</time>
      </trkpt>
      <trkpt lat="47.58088" lon="6.79203">
        <ele>365</ele>
        <time>2016-10-23T08:11:49.000Z</time>
      </trkpt>
      <trkpt lat="47.58091" lon="6.79203">
        <ele>365</ele>
        <time>2016-10-23T08:11:50.000Z</time>
      </trkpt>
      <trkpt lat="47.58093" lon="6.79204">
        <ele>365</ele>
        <time>2016-10-23T08:11:51.000Z</time>
      </trkpt>
      <trkpt lat="47.58095" lon="6.79204">
        <ele>365</ele>
        <time>2016-10-23T08:11:51.999Z</time>
      </trkpt>
      <trkpt lat="47.58098" lon="6.79206">
        <ele>365</ele>
        <time>2016-10-23T08:11:53.000Z</time>
      </trkpt>
      <trkpt lat="47.58102" lon="6.79208">
        <ele>365</ele>
        <time>2016-10-23T08:11:54.000Z</time>
      </trkpt>
      <trkpt lat="47.58106" lon="6.7921">
        <ele>365</ele>
        <time>2016-10-23T08:11:54.999Z</time>
      </trkpt>
      <trkpt lat="47.58111" lon="6.79213">
        <ele>364</ele>
        <time>2016-10-23T08:11:56.000Z</time>
      </trkpt>
      <trkpt lat="47.58117" lon="6.79216">
        <ele>364</ele>
        <time>2016-10-23T08:11:57.000Z</time>
      </trkpt>
      <trkpt lat="47.58122" lon="6.79219">
        <ele>364</ele>
        <time>2016-10-23T08:11:58.000Z</time>
      </trkpt>
      <trkpt lat="47.58128" lon="6.79221">
        <ele>364</ele>
        <time>2016-10-23T08:11:59.000Z</time>
      </trkpt>
      <trkpt lat="47.58131" lon="6.79221">
        <ele>364</ele>
        <time>2016-10-23T08:12:00.000Z</time>
      </trkpt>
      <trkpt lat="47.58134" lon="6.79221">
        <ele>364</ele>
        <time>2016-10-23T08:12:01.000Z</time>
      </trkpt>
      <trkpt lat="47.58137" lon="6.79221">
        <ele>363</ele>
        <time>2016-10-23T08:12:02.000Z</time>
      </trkpt>
      <trkpt lat="47.58141" lon="6.79221">
        <ele>363</ele>
        <time>2016-10-23T08:12:03.000Z</time>
      </trkpt>
      <trkpt lat="47.58145" lon="6.7922">
        <ele>363</ele>
        <time>2016-10-23T08:12:04.000Z</time>
      </trkpt>
      <trkpt lat="47.58148" lon="6.7922">
        <ele>363</ele>
        <time>2016-10-23T08:12:05.000Z</time>
      </trkpt>
      <trkpt lat="47.5815" lon="6.7922">
        <ele>363</ele>
        <time>2016-10-23T08:12:06.000Z</time>
      </trkpt>
      <trkpt lat="47.58153" lon="6.79219">
        <ele>363</ele>
        <time>2016-10-23T08:12:07.000Z</time>
      </trkpt>
      <trkpt lat="47.58156" lon="6.79219">
        <ele>363</ele>
        <time>2016-10-23T08:12:08.000Z</time>
      </trkpt>
      <trkpt lat="47.58159" lon="6.79219">
        <ele>363</ele>
        <time>2016-10-23T08:12:09.001Z</time>
      </trkpt>
      <trkpt lat="47.58162" lon="6.79219">
        <ele>363</ele>
        <time>2016-10-23T08:12:10.000Z</time>
      </trkpt>
      <trkpt lat="47.58166" lon="6.7922">
        <ele>363</ele>
        <time>2016-10-23T08:12:11.000Z</time>
      </trkpt>
      <trkpt lat="47.5817" lon="6.7922">
        <ele>359</ele>
        <time>2016-10-23T08:12:12.000Z</time>
      </trkpt>
      <trkpt lat="47.58181" lon="6.79222">
        <ele>359</ele>
        <time>2016-10-23T08:12:13.000Z</time>
      </trkpt>
      <trkpt lat="47.58187" lon="6.79224">
        <ele>359</ele>
        <time>2016-10-23T08:12:14.000Z</time>
      </trkpt>
      <trkpt lat="47.58192" lon="6.79225">
        <ele>359</ele>
        <time>2016-10-23T08:12:15.000Z</time>
      </trkpt>
      <trkpt lat="47.58198" lon="6.79226">
        <ele>359</ele>
        <time>2016-10-23T08:12:16.000Z</time>
      </trkpt>
      <trkpt lat="47.58204" lon="6.79225">
        <ele>358</ele>
        <time>2016-10-23T08:12:17.000Z</time>
      </trkpt>
      <trkpt lat="47.5821" lon="6.79225">
        <ele>358</ele>
        <time>2016-10-23T08:12:18.000Z</time>
      </trkpt>
      <trkpt lat="47.58215" lon="6.79224">
        <ele>358</ele>
        <time>2016-10-23T08:12:19.000Z</time>
      </trkpt>
      <trkpt lat="47.58221" lon="6.79223">
        <ele>358</ele>
        <time>2016-10-23T08:12:20.000Z</time>
      </trkpt>
      <trkpt lat="47.58227" lon="6.79221">
        <ele>358</ele>
        <time>2016-10-23T08:12:21.000Z</time>
      </trkpt>
      <trkpt lat="47.58233" lon="6.79221">
        <ele>358</ele>
        <time>2016-10-23T08:12:22.000Z</time>
      </trkpt>
      <trkpt lat="47.5824" lon="6.79219">
        <ele>357</ele>
        <time>2016-10-23T08:12:23.000Z</time>
      </trkpt>
      <trkpt lat="47.58246" lon="6.79218">
        <ele>357</ele>
        <time>2016-10-23T08:12:24.000Z</time>
      </trkpt>
      <trkpt lat="47.58253" lon="6.79218">
        <ele>355</ele>
        <time>2016-10-23T08:12:25.000Z</time>
      </trkpt>
      <trkpt lat="47.5826" lon="6.79217">
        <ele>355</ele>
        <time>2016-10-23T08:12:26.000Z</time>
      </trkpt>
      <trkpt lat="47.58266" lon="6.79216">
        <ele>355</ele>
        <time>2016-10-23T08:12:27.000Z</time>
      </trkpt>
      <trkpt lat="47.58272" lon="6.79215">
        <ele>355</ele>
        <time>2016-10-23T08:12:28.000Z</time>
      </trkpt>
      <trkpt lat="47.58278" lon="6.79214">
        <ele>354</ele>
        <time>2016-10-23T08:12:28.999Z</time>
      </trkpt>
      <trkpt lat="47.58283" lon="6.79213">
        <ele>354</ele>
        <time>2016-10-23T08:12:30.000Z</time>
      </trkpt>
      <trkpt lat="47.58289" lon="6.79212">
        <ele>354</ele>
        <time>2016-10-23T08:12:31.000Z</time>
      </trkpt>
      <trkpt lat="47.58295" lon="6.79213">
        <ele>354</ele>
        <time>2016-10-23T08:12:32.000Z</time>
      </trkpt>
      <trkpt lat="47.58302" lon="6.79215">
        <ele>354</ele>
        <time>2016-10-23T08:12:33.000Z</time>
      </trkpt>
      <trkpt lat="47.58307" lon="6.79215">
        <ele>354</ele>
        <time>2016-10-23T08:12:34.000Z</time>
      </trkpt>
      <trkpt lat="47.58313" lon="6.79215">
        <ele>354</ele>
        <time>2016-10-23T08:12:35.000Z</time>
      </trkpt>
      <trkpt lat="47.58318" lon="6.79215">
        <ele>354</ele>
        <time>2016-10-23T08:12:36.000Z</time>
      </trkpt>
      <trkpt lat="47.58324" lon="6.79214">
        <ele>354</ele>
        <time>2016-10-23T08:12:37.000Z</time>
      </trkpt>
      <trkpt lat="47.58329" lon="6.79213">
        <ele>354</ele>
        <time>2016-10-23T08:12:38.000Z</time>
      </trkpt>
      <trkpt lat="47.58335" lon="6.79214">
        <ele>353</ele>
        <time>2016-10-23T08:12:39.000Z</time>
      </trkpt>
      <trkpt lat="47.5834" lon="6.79216">
        <ele>353</ele>
        <time>2016-10-23T08:12:40.000Z</time>
      </trkpt>
      <trkpt lat="47.58344" lon="6.79219">
        <ele>354</ele>
        <time>2016-10-23T08:12:41.000Z</time>
      </trkpt>
      <trkpt lat="47.5835" lon="6.79216">
        <ele>354</ele>
        <time>2016-10-23T08:12:42.000Z</time>
      </trkpt>
      <trkpt lat="47.58357" lon="6.79216">
        <ele>354</ele>
        <time>2016-10-23T08:12:43.000Z</time>
      </trkpt>
      <trkpt lat="47.58363" lon="6.79213">
        <ele>354</ele>
        <time>2016-10-23T08:12:44.000Z</time>
      </trkpt>
      <trkpt lat="47.58369" lon="6.79212">
        <ele>354</ele>
        <time>2016-10-23T08:12:45.000Z</time>
      </trkpt>
      <trkpt lat="47.58375" lon="6.79211">
        <ele>354</ele>
        <time>2016-10-23T08:12:46.000Z</time>
      </trkpt>
      <trkpt lat="47.5838" lon="6.79208">
        <ele>354</ele>
        <time>2016-10-23T08:12:47.000Z</time>
      </trkpt>
      <trkpt lat="47.58386" lon="6.79206">
        <ele>354</ele>
        <time>2016-10-23T08:12:48.000Z</time>
      </trkpt>
      <trkpt lat="47.58392" lon="6.79205">
        <ele>354</ele>
        <time>2016-10-23T08:12:49.000Z</time>
      </trkpt>
      <trkpt lat="47.58397" lon="6.79205">
        <ele>354</ele>
        <time>2016-10-23T08:12:50.000Z</time>
      </trkpt>
      <trkpt lat="47.58403" lon="6.79204">
        <ele>354</ele>
        <time>2016-10-23T08:12:51.000Z</time>
      </trkpt>
      <trkpt lat="47.58409" lon="6.79203">
        <ele>354</ele>
        <time>2016-10-23T08:12:52.000Z</time>
      </trkpt>
      <trkpt lat="47.58414" lon="6.79201">
        <ele>354</ele>
        <time>2016-10-23T08:12:53.000Z</time>
      </trkpt>
      <trkpt lat="47.58417" lon="6.792">
        <ele>355</ele>
        <time>2016-10-23T08:12:54.000Z</time>
      </trkpt>
      <trkpt lat="47.58422" lon="6.79199">
        <ele>355</ele>
        <time>2016-10-23T08:12:55.000Z</time>
      </trkpt>
      <trkpt lat="47.58427" lon="6.79198">
        <ele>355</ele>
        <time>2016-10-23T08:12:56.000Z</time>
      </trkpt>
      <trkpt lat="47.58431" lon="6.79199">
        <ele>355</ele>
        <time>2016-10-23T08:12:57.000Z</time>
      </trkpt>
      <trkpt lat="47.58436" lon="6.79201">
        <ele>355</ele>
        <time>2016-10-23T08:12:58.000Z</time>
      </trkpt>
      <trkpt lat="47.5844" lon="6.79202">
        <ele>355</ele>
        <time>2016-10-23T08:12:59.000Z</time>
      </trkpt>
      <trkpt lat="47.58445" lon="6.79203">
        <ele>355</ele>
        <time>2016-10-23T08:13:00.000Z</time>
      </trkpt>
      <trkpt lat="47.5845" lon="6.79204">
        <ele>355</ele>
        <time>2016-10-23T08:13:01.001Z</time>
      </trkpt>
      <trkpt lat="47.58455" lon="6.79205">
        <ele>355</ele>
        <time>2016-10-23T08:13:02.000Z</time>
      </trkpt>
      <trkpt lat="47.58459" lon="6.79208">
        <ele>355</ele>
        <time>2016-10-23T08:13:03.000Z</time>
      </trkpt>
      <trkpt lat="47.58463" lon="6.79209">
        <ele>356</ele>
        <time>2016-10-23T08:13:04.000Z</time>
      </trkpt>
      <trkpt lat="47.58467" lon="6.79211">
        <ele>356</ele>
        <time>2016-10-23T08:13:05.000Z</time>
      </trkpt>
      <trkpt lat="47.58471" lon="6.79213">
        <ele>356</ele>
        <time>2016-10-23T08:13:06.000Z</time>
      </trkpt>
      <trkpt lat="47.58476" lon="6.79216">
        <ele>356</ele>
        <time>2016-10-23T08:13:07.000Z</time>
      </trkpt>
      <trkpt lat="47.5848" lon="6.79219">
        <ele>356</ele>
        <time>2016-10-23T08:13:08.000Z</time>
      </trkpt>
      <trkpt lat="47.58485" lon="6.7922">
        <ele>356</ele>
        <time>2016-10-23T08:13:09.000Z</time>
      </trkpt>
      <trkpt lat="47.58489" lon="6.79221">
        <ele>356</ele>
        <time>2016-10-23T08:13:10.000Z</time>
      </trkpt>
      <trkpt lat="47.58494" lon="6.79221">
        <ele>356</ele>
        <time>2016-10-23T08:13:11.000Z</time>
      </trkpt>
      <trkpt lat="47.58498" lon="6.79221">
        <ele>356</ele>
        <time>2016-10-23T08:13:12.000Z</time>
      </trkpt>
      <trkpt lat="47.58502" lon="6.79223">
        <ele>356</ele>
        <time>2016-10-23T08:13:13.000Z</time>
      </trkpt>
      <trkpt lat="47.58507" lon="6.79222">
        <ele>356</ele>
        <time>2016-10-23T08:13:14.000Z</time>
      </trkpt>
      <trkpt lat="47.58512" lon="6.79219">
        <ele>356</ele>
        <time>2016-10-23T08:13:15.000Z</time>
      </trkpt>
      <trkpt lat="47.58517" lon="6.79219">
        <ele>356</ele>
        <time>2016-10-23T08:13:16.000Z</time>
      </trkpt>
      <trkpt lat="47.58521" lon="6.79217">
        <ele>356</ele>
        <time>2016-10-23T08:13:17.000Z</time>
      </trkpt>
      <trkpt lat="47.58525" lon="6.79216">
        <ele>356</ele>
        <time>2016-10-23T08:13:18.000Z</time>
      </trkpt>
      <trkpt lat="47.58529" lon="6.79214">
        <ele>356</ele>
        <time>2016-10-23T08:13:19.000Z</time>
      </trkpt>
      <trkpt lat="47.58533" lon="6.79213">
        <ele>356</ele>
        <time>2016-10-23T08:13:20.000Z</time>
      </trkpt>
      <trkpt lat="47.58538" lon="6.79211">
        <ele>356</ele>
        <time>2016-10-23T08:13:21.000Z</time>
      </trkpt>
      <trkpt lat="47.58541" lon="6.79209">
        <ele>356</ele>
        <time>2016-10-23T08:13:22.000Z</time>
      </trkpt>
      <trkpt lat="47.58546" lon="6.79207">
        <ele>356</ele>
        <time>2016-10-23T08:13:23.000Z</time>
      </trkpt>
      <trkpt lat="47.5855" lon="6.79204">
        <ele>356</ele>
        <time>2016-10-23T08:13:24.000Z</time>
      </trkpt>
      <trkpt lat="47.58555" lon="6.79201">
        <ele>356</ele>
        <time>2016-10-23T08:13:25.000Z</time>
      </trkpt>
      <trkpt lat="47.58559" lon="6.79197">
        <ele>356</ele>
        <time>2016-10-23T08:13:26.000Z</time>
      </trkpt>
      <trkpt lat="47.58564" lon="6.79195">
        <ele>356</ele>
        <time>2016-10-23T08:13:27.000Z</time>
      </trkpt>
      <trkpt lat="47.58568" lon="6.79193">
        <ele>356</ele>
        <time>2016-10-23T08:13:28.000Z</time>
      </trkpt>
      <trkpt lat="47.58573" lon="6.7919">
        <ele>356</ele>
        <time>2016-10-23T08:13:29.000Z</time>
      </trkpt>
      <trkpt lat="47.58579" lon="6.79186">
        <ele>356</ele>
        <time>2016-10-23T08:13:30.000Z</time>
      </trkpt>
      <trkpt lat="47.58585" lon="6.79182">
        <ele>356</ele>
        <time>2016-10-23T08:13:31.000Z</time>
      </trkpt>
      <trkpt lat="47.5859" lon="6.7918">
        <ele>356</ele>
        <time>2016-10-23T08:13:32.000Z</time>
      </trkpt>
      <trkpt lat="47.58596" lon="6.79174">
        <ele>356</ele>
        <time>2016-10-23T08:13:33.000Z</time>
      </trkpt>
      <trkpt lat="47.58602" lon="6.7917">
        <ele>356</ele>
        <time>2016-10-23T08:13:34.000Z</time>
      </trkpt>
      <trkpt lat="47.58606" lon="6.79168">
        <ele>356</ele>
        <time>2016-10-23T08:13:35.000Z</time>
      </trkpt>
      <trkpt lat="47.58611" lon="6.79164">
        <ele>355</ele>
        <time>2016-10-23T08:13:36.000Z</time>
      </trkpt>
      <trkpt lat="47.58617" lon="6.7916">
        <ele>355</ele>
        <time>2016-10-23T08:13:37.000Z</time>
      </trkpt>
      <trkpt lat="47.58622" lon="6.79157">
        <ele>355</ele>
        <time>2016-10-23T08:13:38.000Z</time>
      </trkpt>
      <trkpt lat="47.58628" lon="6.79154">
        <ele>355</ele>
        <time>2016-10-23T08:13:39.000Z</time>
      </trkpt>
      <trkpt lat="47.58634" lon="6.7915">
        <ele>355</ele>
        <time>2016-10-23T08:13:40.000Z</time>
      </trkpt>
      <trkpt lat="47.5864" lon="6.79146">
        <ele>354</ele>
        <time>2016-10-23T08:13:41.000Z</time>
      </trkpt>
      <trkpt lat="47.58646" lon="6.79142">
        <ele>354</ele>
        <time>2016-10-23T08:13:42.000Z</time>
      </trkpt>
      <trkpt lat="47.58652" lon="6.79139">
        <ele>354</ele>
        <time>2016-10-23T08:13:43.000Z</time>
      </trkpt>
      <trkpt lat="47.58658" lon="6.79136">
        <ele>354</ele>
        <time>2016-10-23T08:13:44.000Z</time>
      </trkpt>
      <trkpt lat="47.58664" lon="6.79131">
        <ele>354</ele>
        <time>2016-10-23T08:13:45.000Z</time>
      </trkpt>
      <trkpt lat="47.5867" lon="6.79129">
        <ele>354</ele>
        <time>2016-10-23T08:13:46.000Z</time>
      </trkpt>
      <trkpt lat="47.58675" lon="6.79126">
        <ele>354</ele>
        <time>2016-10-23T08:13:46.999Z</time>
      </trkpt>
      <trkpt lat="47.5868" lon="6.79125">
        <ele>354</ele>
        <time>2016-10-23T08:13:48.000Z</time>
      </trkpt>
      <trkpt lat="47.58684" lon="6.79121">
        <ele>354</ele>
        <time>2016-10-23T08:13:49.000Z</time>
      </trkpt>
      <trkpt lat="47.58689" lon="6.79117">
        <ele>354</ele>
        <time>2016-10-23T08:13:50.000Z</time>
      </trkpt>
      <trkpt lat="47.58693" lon="6.79114">
        <ele>354</ele>
        <time>2016-10-23T08:13:51.000Z</time>
      </trkpt>
      <trkpt lat="47.58698" lon="6.79107">
        <ele>354</ele>
        <time>2016-10-23T08:13:52.000Z</time>
      </trkpt>
      <trkpt lat="47.58702" lon="6.79104">
        <ele>354</ele>
        <time>2016-10-23T08:13:53.000Z</time>
      </trkpt>
      <trkpt lat="47.58705" lon="6.79103">
        <ele>354</ele>
        <time>2016-10-23T08:13:54.000Z</time>
      </trkpt>
      <trkpt lat="47.58708" lon="6.79102">
        <ele>354</ele>
        <time>2016-10-23T08:13:55.000Z</time>
      </trkpt>
      <trkpt lat="47.58711" lon="6.791">
        <ele>354</ele>
        <time>2016-10-23T08:13:56.000Z</time>
      </trkpt>
      <trkpt lat="47.58717" lon="6.79095">
        <ele>354</ele>
        <time>2016-10-23T08:13:57.000Z</time>
      </trkpt>
      <trkpt lat="47.58722" lon="6.79091">
        <ele>354</ele>
        <time>2016-10-23T08:13:58.000Z</time>
      </trkpt>
      <trkpt lat="47.58727" lon="6.79081">
        <ele>355</ele>
        <time>2016-10-23T08:13:59.000Z</time>
      </trkpt>
      <trkpt lat="47.58732" lon="6.79078">
        <ele>354</ele>
        <time>2016-10-23T08:14:00.000Z</time>
      </trkpt>
      <trkpt lat="47.58737" lon="6.79076">
        <ele>354</ele>
        <time>2016-10-23T08:14:01.000Z</time>
      </trkpt>
      <trkpt lat="47.58742" lon="6.79073">
        <ele>354</ele>
        <time>2016-10-23T08:14:02.000Z</time>
      </trkpt>
      <trkpt lat="47.58747" lon="6.79071">
        <ele>354</ele>
        <time>2016-10-23T08:14:03.000Z</time>
      </trkpt>
      <trkpt lat="47.5875" lon="6.79072">
        <ele>354</ele>
        <time>2016-10-23T08:14:04.000Z</time>
      </trkpt>
      <trkpt lat="47.58755" lon="6.79071">
        <ele>354</ele>
        <time>2016-10-23T08:14:05.000Z</time>
      </trkpt>
      <trkpt lat="47.58758" lon="6.79069">
        <ele>354</ele>
        <time>2016-10-23T08:14:06.000Z</time>
      </trkpt>
      <trkpt lat="47.58761" lon="6.79069">
        <ele>354</ele>
        <time>2016-10-23T08:14:07.000Z</time>
      </trkpt>
      <trkpt lat="47.58765" lon="6.79069">
        <ele>354</ele>
        <time>2016-10-23T08:14:08.000Z</time>
      </trkpt>
      <trkpt lat="47.58768" lon="6.79071">
        <ele>354</ele>
        <time>2016-10-23T08:14:09.000Z</time>
      </trkpt>
      <trkpt lat="47.58773" lon="6.79071">
        <ele>354</ele>
        <time>2016-10-23T08:14:10.000Z</time>
      </trkpt>
      <trkpt lat="47.58779" lon="6.79071">
        <ele>354</ele>
        <time>2016-10-23T08:14:11.000Z</time>
      </trkpt>
      <trkpt lat="47.58783" lon="6.79069">
        <ele>354</ele>
        <time>2016-10-23T08:14:12.000Z</time>
      </trkpt>
      <trkpt lat="47.58789" lon="6.7907">
        <ele>354</ele>
        <time>2016-10-23T08:14:13.000Z</time>
      </trkpt>
      <trkpt lat="47.58794" lon="6.7907">
        <ele>354</ele>
        <time>2016-10-23T08:14:14.000Z</time>
      </trkpt>
      <trkpt lat="47.58799" lon="6.79068">
        <ele>354</ele>
        <time>2016-10-23T08:14:15.000Z</time>
      </trkpt>
      <trkpt lat="47.58804" lon="6.79069">
        <ele>354</ele>
        <time>2016-10-23T08:14:16.000Z</time>
      </trkpt>
      <trkpt lat="47.5881" lon="6.79069">
        <ele>354</ele>
        <time>2016-10-23T08:14:17.000Z</time>
      </trkpt>
      <trkpt lat="47.58815" lon="6.79068">
        <ele>354</ele>
        <time>2016-10-23T08:14:18.000Z</time>
      </trkpt>
      <trkpt lat="47.58819" lon="6.79069">
        <ele>354</ele>
        <time>2016-10-23T08:14:19.000Z</time>
      </trkpt>
      <trkpt lat="47.58824" lon="6.79067">
        <ele>354</ele>
        <time>2016-10-23T08:14:20.000Z</time>
      </trkpt>
      <trkpt lat="47.58829" lon="6.79064">
        <ele>354</ele>
        <time>2016-10-23T08:14:21.000Z</time>
      </trkpt>
      <trkpt lat="47.58834" lon="6.7906">
        <ele>356</ele>
        <time>2016-10-23T08:14:22.000Z</time>
      </trkpt>
      <trkpt lat="47.5884" lon="6.79057">
        <ele>356</ele>
        <time>2016-10-23T08:14:23.000Z</time>
      </trkpt>
      <trkpt lat="47.58845" lon="6.79055">
        <ele>356</ele>
        <time>2016-10-23T08:14:24.000Z</time>
      </trkpt>
      <trkpt lat="47.58848" lon="6.79053">
        <ele>356</ele>
        <time>2016-10-23T08:14:25.000Z</time>
      </trkpt>
      <trkpt lat="47.58852" lon="6.79048">
        <ele>356</ele>
        <time>2016-10-23T08:14:26.000Z</time>
      </trkpt>
      <trkpt lat="47.58857" lon="6.79045">
        <ele>357</ele>
        <time>2016-10-23T08:14:27.000Z</time>
      </trkpt>
      <trkpt lat="47.58861" lon="6.79043">
        <ele>357</ele>
        <time>2016-10-23T08:14:28.000Z</time>
      </trkpt>
      <trkpt lat="47.58868" lon="6.79036">
        <ele>357</ele>
        <time>2016-10-23T08:14:29.000Z</time>
      </trkpt>
      <trkpt lat="47.58872" lon="6.79033">
        <ele>357</ele>
        <time>2016-10-23T08:14:30.000Z</time>
      </trkpt>
      <trkpt lat="47.58877" lon="6.7903">
        <ele>358</ele>
        <time>2016-10-23T08:14:31.000Z</time>
      </trkpt>
      <trkpt lat="47.58882" lon="6.79029">
        <ele>358</ele>
        <time>2016-10-23T08:14:32.000Z</time>
      </trkpt>
      <trkpt lat="47.58884" lon="6.79027">
        <ele>358</ele>
        <time>2016-10-23T08:14:33.000Z</time>
      </trkpt>
      <trkpt lat="47.58887" lon="6.79025">
        <ele>358</ele>
        <time>2016-10-23T08:14:34.000Z</time>
      </trkpt>
      <trkpt lat="47.58891" lon="6.79023">
        <ele>358</ele>
        <time>2016-10-23T08:14:35.000Z</time>
      </trkpt>
      <trkpt lat="47.58895" lon="6.7902">
        <ele>359</ele>
        <time>2016-10-23T08:14:36.000Z</time>
      </trkpt>
      <trkpt lat="47.58899" lon="6.79017">
        <ele>359</ele>
        <time>2016-10-23T08:14:37.000Z</time>
      </trkpt>
      <trkpt lat="47.58902" lon="6.79015">
        <ele>359</ele>
        <time>2016-10-23T08:14:38.000Z</time>
      </trkpt>
      <trkpt lat="47.58906" lon="6.79014">
        <ele>360</ele>
        <time>2016-10-23T08:14:39.000Z</time>
      </trkpt>
      <trkpt lat="47.5891" lon="6.79013">
        <ele>360</ele>
        <time>2016-10-23T08:14:40.000Z</time>
      </trkpt>
      <trkpt lat="47.58913" lon="6.79012">
        <ele>360</ele>
        <time>2016-10-23T08:14:41.000Z</time>
      </trkpt>
      <trkpt lat="47.58916" lon="6.79009">
        <ele>361</ele>
        <time>2016-10-23T08:14:42.000Z</time>
      </trkpt>
      <trkpt lat="47.58919" lon="6.79007">
        <ele>363</ele>
        <time>2016-10-23T08:14:43.000Z</time>
      </trkpt>
      <trkpt lat="47.58923" lon="6.79005">
        <ele>363</ele>
        <time>2016-10-23T08:14:44.000Z</time>
      </trkpt>
      <trkpt lat="47.58925" lon="6.79005">
        <ele>363</ele>
        <time>2016-10-23T08:14:45.000Z</time>
      </trkpt>
      <trkpt lat="47.58929" lon="6.79005">
        <ele>363</ele>
        <time>2016-10-23T08:14:47.000Z</time>
      </trkpt>
      <trkpt lat="47.58932" lon="6.79004">
        <ele>363</ele>
        <time>2016-10-23T08:14:48.000Z</time>
      </trkpt>
      <trkpt lat="47.58934" lon="6.79004">
        <ele>364</ele>
        <time>2016-10-23T08:14:49.000Z</time>
      </trkpt>
      <trkpt lat="47.58937" lon="6.79004">
        <ele>364</ele>
        <time>2016-10-23T08:14:50.000Z</time>
      </trkpt>
      <trkpt lat="47.58939" lon="6.79003">
        <ele>364</ele>
        <time>2016-10-23T08:14:51.000Z</time>
      </trkpt>
      <trkpt lat="47.58943" lon="6.79003">
        <ele>364</ele>
        <time>2016-10-23T08:14:52.000Z</time>
      </trkpt>
      <trkpt lat="47.58945" lon="6.79003">
        <ele>365</ele>
        <time>2016-10-23T08:14:53.000Z</time>
      </trkpt>
      <trkpt lat="47.58948" lon="6.79002">
        <ele>365</ele>
        <time>2016-10-23T08:14:54.000Z</time>
      </trkpt>
      <trkpt lat="47.58951" lon="6.79">
        <ele>365</ele>
        <time>2016-10-23T08:14:55.000Z</time>
      </trkpt>
      <trkpt lat="47.58954" lon="6.78998">
        <ele>366</ele>
        <time>2016-10-23T08:14:56.000Z</time>
      </trkpt>
      <trkpt lat="47.58957" lon="6.78996">
        <ele>367</ele>
        <time>2016-10-23T08:14:57.000Z</time>
      </trkpt>
      <trkpt lat="47.5896" lon="6.78993">
        <ele>367</ele>
        <time>2016-10-23T08:14:58.000Z</time>
      </trkpt>
      <trkpt lat="47.58963" lon="6.7899">
        <ele>367</ele>
        <time>2016-10-23T08:14:59.000Z</time>
      </trkpt>
      <trkpt lat="47.58966" lon="6.78988">
        <ele>367</ele>
        <time>2016-10-23T08:15:00.000Z</time>
      </trkpt>
      <trkpt lat="47.5897" lon="6.78983">
        <ele>367</ele>
        <time>2016-10-23T08:15:01.000Z</time>
      </trkpt>
      <trkpt lat="47.58973" lon="6.7898">
        <ele>368</ele>
        <time>2016-10-23T08:15:02.000Z</time>
      </trkpt>
      <trkpt lat="47.58977" lon="6.78978">
        <ele>368</ele>
        <time>2016-10-23T08:15:03.000Z</time>
      </trkpt>
      <trkpt lat="47.5898" lon="6.78976">
        <ele>368</ele>
        <time>2016-10-23T08:15:04.000Z</time>
      </trkpt>
      <trkpt lat="47.58983" lon="6.78976">
        <ele>368</ele>
        <time>2016-10-23T08:15:05.000Z</time>
      </trkpt>
      <trkpt lat="47.58986" lon="6.78975">
        <ele>368</ele>
        <time>2016-10-23T08:15:06.000Z</time>
      </trkpt>
      <trkpt lat="47.58989" lon="6.78974">
        <ele>368</ele>
        <time>2016-10-23T08:15:07.000Z</time>
      </trkpt>
      <trkpt lat="47.58991" lon="6.78973">
        <ele>368</ele>
        <time>2016-10-23T08:15:08.000Z</time>
      </trkpt>
      <trkpt lat="47.58994" lon="6.78972">
        <ele>368</ele>
        <time>2016-10-23T08:15:09.000Z</time>
      </trkpt>
      <trkpt lat="47.58997" lon="6.78971">
        <ele>368</ele>
        <time>2016-10-23T08:15:10.000Z</time>
      </trkpt>
      <trkpt lat="47.59" lon="6.7897">
        <ele>368</ele>
        <time>2016-10-23T08:15:11.000Z</time>
      </trkpt>
      <trkpt lat="47.59002" lon="6.78969">
        <ele>372</ele>
        <time>2016-10-23T08:15:12.000Z</time>
      </trkpt>
      <trkpt lat="47.59005" lon="6.7897">
        <ele>372</ele>
        <time>2016-10-23T08:15:13.000Z</time>
      </trkpt>
      <trkpt lat="47.59007" lon="6.7897">
        <ele>372</ele>
        <time>2016-10-23T08:15:14.000Z</time>
      </trkpt>
      <trkpt lat="47.5901" lon="6.78971">
        <ele>372</ele>
        <time>2016-10-23T08:15:15.000Z</time>
      </trkpt>
      <trkpt lat="47.59013" lon="6.78971">
        <ele>372</ele>
        <time>2016-10-23T08:15:16.000Z</time>
      </trkpt>
      <trkpt lat="47.59015" lon="6.78971">
        <ele>372</ele>
        <time>2016-10-23T08:15:17.000Z</time>
      </trkpt>
      <trkpt lat="47.59018" lon="6.7897">
        <ele>372</ele>
        <time>2016-10-23T08:15:18.000Z</time>
      </trkpt>
      <trkpt lat="47.59021" lon="6.7897">
        <ele>372</ele>
        <time>2016-10-23T08:15:19.000Z</time>
      </trkpt>
      <trkpt lat="47.59024" lon="6.78969">
        <ele>372</ele>
        <time>2016-10-23T08:15:20.000Z</time>
      </trkpt>
      <trkpt lat="47.59027" lon="6.78969">
        <ele>372</ele>
        <time>2016-10-23T08:15:21.000Z</time>
      </trkpt>
      <trkpt lat="47.5903" lon="6.78968">
        <ele>372</ele>
        <time>2016-10-23T08:15:22.000Z</time>
      </trkpt>
      <trkpt lat="47.59033" lon="6.78968">
        <ele>372</ele>
        <time>2016-10-23T08:15:23.000Z</time>
      </trkpt>
      <trkpt lat="47.59036" lon="6.78968">
        <ele>372</ele>
        <time>2016-10-23T08:15:24.000Z</time>
      </trkpt>
      <trkpt lat="47.59038" lon="6.78967">
        <ele>373</ele>
        <time>2016-10-23T08:15:25.000Z</time>
      </trkpt>
      <trkpt lat="47.59041" lon="6.78967">
        <ele>373</ele>
        <time>2016-10-23T08:15:26.000Z</time>
      </trkpt>
      <trkpt lat="47.59043" lon="6.78965">
        <ele>373</ele>
        <time>2016-10-23T08:15:27.000Z</time>
      </trkpt>
      <trkpt lat="47.59046" lon="6.78964">
        <ele>373</ele>
        <time>2016-10-23T08:15:28.000Z</time>
      </trkpt>
      <trkpt lat="47.59049" lon="6.78962">
        <ele>373</ele>
        <time>2016-10-23T08:15:29.000Z</time>
      </trkpt>
      <trkpt lat="47.59051" lon="6.7896">
        <ele>373</ele>
        <time>2016-10-23T08:15:30.000Z</time>
      </trkpt>
      <trkpt lat="47.59053" lon="6.78959">
        <ele>373</ele>
        <time>2016-10-23T08:15:31.000Z</time>
      </trkpt>
      <trkpt lat="47.59058" lon="6.78957">
        <ele>373</ele>
        <time>2016-10-23T08:15:33.000Z</time>
      </trkpt>
      <trkpt lat="47.5906" lon="6.78957">
        <ele>373</ele>
        <time>2016-10-23T08:15:34.000Z</time>
      </trkpt>
      <trkpt lat="47.59064" lon="6.78957">
        <ele>373</ele>
        <time>2016-10-23T08:15:36.000Z</time>
      </trkpt>
      <trkpt lat="47.59065" lon="6.78956">
        <ele>373</ele>
        <time>2016-10-23T08:15:37.000Z</time>
      </trkpt>
      <trkpt lat="47.5907" lon="6.78956">
        <ele>373</ele>
        <time>2016-10-23T08:15:39.000Z</time>
      </trkpt>
      <trkpt lat="47.59072" lon="6.78955">
        <ele>373</ele>
        <time>2016-10-23T08:15:40.000Z</time>
      </trkpt>
      <trkpt lat="47.59075" lon="6.78954">
        <ele>373</ele>
        <time>2016-10-23T08:15:41.000Z</time>
      </trkpt>
      <trkpt lat="47.59078" lon="6.78953">
        <ele>373</ele>
        <time>2016-10-23T08:15:42.000Z</time>
      </trkpt>
      <trkpt lat="47.59081" lon="6.78952">
        <ele>373</ele>
        <time>2016-10-23T08:15:43.000Z</time>
      </trkpt>
      <trkpt lat="47.59084" lon="6.78951">
        <ele>376</ele>
        <time>2016-10-23T08:15:44.000Z</time>
      </trkpt>
      <trkpt lat="47.59088" lon="6.7895">
        <ele>376</ele>
        <time>2016-10-23T08:15:45.000Z</time>
      </trkpt>
      <trkpt lat="47.59091" lon="6.78949">
        <ele>376</ele>
        <time>2016-10-23T08:15:46.000Z</time>
      </trkpt>
      <trkpt lat="47.59094" lon="6.78948">
        <ele>376</ele>
        <time>2016-10-23T08:15:47.000Z</time>
      </trkpt>
      <trkpt lat="47.59097" lon="6.78947">
        <ele>376</ele>
        <time>2016-10-23T08:15:48.000Z</time>
      </trkpt>
      <trkpt lat="47.591" lon="6.78946">
        <ele>376</ele>
        <time>2016-10-23T08:15:49.000Z</time>
      </trkpt>
      <trkpt lat="47.59103" lon="6.78945">
        <ele>376</ele>
        <time>2016-10-23T08:15:50.000Z</time>
      </trkpt>
      <trkpt lat="47.59106" lon="6.78945">
        <ele>376</ele>
        <time>2016-10-23T08:15:51.000Z</time>
      </trkpt>
      <trkpt lat="47.59109" lon="6.78944">
        <ele>376</ele>
        <time>2016-10-23T08:15:52.000Z</time>
      </trkpt>
      <trkpt lat="47.59112" lon="6.78944">
        <ele>376</ele>
        <time>2016-10-23T08:15:53.000Z</time>
      </trkpt>
      <trkpt lat="47.59115" lon="6.78944">
        <ele>376</ele>
        <time>2016-10-23T08:15:54.000Z</time>
      </trkpt>
      <trkpt lat="47.59118" lon="6.78944">
        <ele>376</ele>
        <time>2016-10-23T08:15:55.000Z</time>
      </trkpt>
      <trkpt lat="47.59122" lon="6.78944">
        <ele>376</ele>
        <time>2016-10-23T08:15:56.000Z</time>
      </trkpt>
      <trkpt lat="47.59125" lon="6.78944">
        <ele>376</ele>
        <time>2016-10-23T08:15:57.000Z</time>
      </trkpt>
      <trkpt lat="47.59128" lon="6.78943">
        <ele>376</ele>
        <time>2016-10-23T08:15:58.000Z</time>
      </trkpt>
      <trkpt lat="47.59132" lon="6.78941">
        <ele>376</ele>
        <time>2016-10-23T08:15:59.001Z</time>
      </trkpt>
      <trkpt lat="47.59136" lon="6.7894">
        <ele>376</ele>
        <time>2016-10-23T08:16:00.002Z</time>
      </trkpt>
      <trkpt lat="47.59139" lon="6.78938">
        <ele>376</ele>
        <time>2016-10-23T08:16:01.000Z</time>
      </trkpt>
      <trkpt lat="47.59143" lon="6.78937">
        <ele>376</ele>
        <time>2016-10-23T08:16:02.000Z</time>
      </trkpt>
      <trkpt lat="47.59146" lon="6.78936">
        <ele>376</ele>
        <time>2016-10-23T08:16:03.000Z</time>
      </trkpt>
      <trkpt lat="47.5915" lon="6.78936">
        <ele>376</ele>
        <time>2016-10-23T08:16:04.000Z</time>
      </trkpt>
      <trkpt lat="47.59153" lon="6.78935">
        <ele>376</ele>
        <time>2016-10-23T08:16:05.000Z</time>
      </trkpt>
      <trkpt lat="47.59156" lon="6.78934">
        <ele>376</ele>
        <time>2016-10-23T08:16:06.000Z</time>
      </trkpt>
      <trkpt lat="47.5916" lon="6.78934">
        <ele>376</ele>
        <time>2016-10-23T08:16:07.000Z</time>
      </trkpt>
      <trkpt lat="47.59163" lon="6.78933">
        <ele>376</ele>
        <time>2016-10-23T08:16:08.000Z</time>
      </trkpt>
      <trkpt lat="47.59167" lon="6.78933">
        <ele>378</ele>
        <time>2016-10-23T08:16:09.000Z</time>
      </trkpt>
      <trkpt lat="47.59171" lon="6.78932">
        <ele>378</ele>
        <time>2016-10-23T08:16:10.000Z</time>
      </trkpt>
      <trkpt lat="47.59175" lon="6.78931">
        <ele>378</ele>
        <time>2016-10-23T08:16:11.000Z</time>
      </trkpt>
      <trkpt lat="47.59179" lon="6.7893">
        <ele>378</ele>
        <time>2016-10-23T08:16:12.000Z</time>
      </trkpt>
      <trkpt lat="47.59184" lon="6.78929">
        <ele>378</ele>
        <time>2016-10-23T08:16:13.000Z</time>
      </trkpt>
      <trkpt lat="47.59188" lon="6.78928">
        <ele>378</ele>
        <time>2016-10-23T08:16:14.000Z</time>
      </trkpt>
      <trkpt lat="47.59192" lon="6.78926">
        <ele>378</ele>
        <time>2016-10-23T08:16:15.000Z</time>
      </trkpt>
      <trkpt lat="47.59197" lon="6.78925">
        <ele>378</ele>
        <time>2016-10-23T08:16:16.000Z</time>
      </trkpt>
      <trkpt lat="47.59202" lon="6.78925">
        <ele>378</ele>
        <time>2016-10-23T08:16:17.000Z</time>
      </trkpt>
      <trkpt lat="47.59205" lon="6.78925">
        <ele>379</ele>
        <time>2016-10-23T08:16:18.000Z</time>
      </trkpt>
      <trkpt lat="47.5921" lon="6.78924">
        <ele>379</ele>
        <time>2016-10-23T08:16:19.000Z</time>
      </trkpt>
      <trkpt lat="47.59214" lon="6.78921">
        <ele>379</ele>
        <time>2016-10-23T08:16:20.000Z</time>
      </trkpt>
      <trkpt lat="47.59218" lon="6.78918">
        <ele>379</ele>
        <time>2016-10-23T08:16:21.000Z</time>
      </trkpt>
      <trkpt lat="47.59222" lon="6.78917">
        <ele>378</ele>
        <time>2016-10-23T08:16:22.000Z</time>
      </trkpt>
      <trkpt lat="47.59227" lon="6.78916">
        <ele>378</ele>
        <time>2016-10-23T08:16:23.000Z</time>
      </trkpt>
      <trkpt lat="47.59231" lon="6.78916">
        <ele>378</ele>
        <time>2016-10-23T08:16:24.000Z</time>
      </trkpt>
      <trkpt lat="47.59235" lon="6.78914">
        <ele>378</ele>
        <time>2016-10-23T08:16:25.000Z</time>
      </trkpt>
      <trkpt lat="47.59239" lon="6.78914">
        <ele>378</ele>
        <time>2016-10-23T08:16:26.000Z</time>
      </trkpt>
      <trkpt lat="47.59243" lon="6.78913">
        <ele>379</ele>
        <time>2016-10-23T08:16:27.000Z</time>
      </trkpt>
      <trkpt lat="47.59247" lon="6.78912">
        <ele>379</ele>
        <time>2016-10-23T08:16:28.000Z</time>
      </trkpt>
      <trkpt lat="47.59251" lon="6.78911">
        <ele>379</ele>
        <time>2016-10-23T08:16:29.000Z</time>
      </trkpt>
      <trkpt lat="47.59254" lon="6.7891">
        <ele>380</ele>
        <time>2016-10-23T08:16:30.000Z</time>
      </trkpt>
      <trkpt lat="47.59258" lon="6.78909">
        <ele>380</ele>
        <time>2016-10-23T08:16:31.000Z</time>
      </trkpt>
      <trkpt lat="47.59261" lon="6.78908">
        <ele>380</ele>
        <time>2016-10-23T08:16:32.000Z</time>
      </trkpt>
      <trkpt lat="47.59265" lon="6.78907">
        <ele>380</ele>
        <time>2016-10-23T08:16:33.000Z</time>
      </trkpt>
      <trkpt lat="47.59268" lon="6.78906">
        <ele>380</ele>
        <time>2016-10-23T08:16:34.000Z</time>
      </trkpt>
      <trkpt lat="47.59271" lon="6.78906">
        <ele>380</ele>
        <time>2016-10-23T08:16:35.000Z</time>
      </trkpt>
      <trkpt lat="47.59274" lon="6.78906">
        <ele>380</ele>
        <time>2016-10-23T08:16:36.000Z</time>
      </trkpt>
      <trkpt lat="47.59277" lon="6.78906">
        <ele>381</ele>
        <time>2016-10-23T08:16:37.000Z</time>
      </trkpt>
      <trkpt lat="47.59281" lon="6.78905">
        <ele>381</ele>
        <time>2016-10-23T08:16:38.000Z</time>
      </trkpt>
      <trkpt lat="47.59284" lon="6.78904">
        <ele>381</ele>
        <time>2016-10-23T08:16:39.000Z</time>
      </trkpt>
      <trkpt lat="47.59287" lon="6.78904">
        <ele>381</ele>
        <time>2016-10-23T08:16:40.000Z</time>
      </trkpt>
      <trkpt lat="47.5929" lon="6.78903">
        <ele>381</ele>
        <time>2016-10-23T08:16:41.000Z</time>
      </trkpt>
      <trkpt lat="47.59293" lon="6.78903">
        <ele>381</ele>
        <time>2016-10-23T08:16:42.000Z</time>
      </trkpt>
      <trkpt lat="47.59295" lon="6.78903">
        <ele>381</ele>
        <time>2016-10-23T08:16:43.000Z</time>
      </trkpt>
      <trkpt lat="47.59298" lon="6.78903">
        <ele>381</ele>
        <time>2016-10-23T08:16:44.000Z</time>
      </trkpt>
      <trkpt lat="47.59301" lon="6.78903">
        <ele>381</ele>
        <time>2016-10-23T08:16:45.000Z</time>
      </trkpt>
      <trkpt lat="47.59304" lon="6.78903">
        <ele>381</ele>
        <time>2016-10-23T08:16:46.000Z</time>
      </trkpt>
      <trkpt lat="47.59308" lon="6.78903">
        <ele>381</ele>
        <time>2016-10-23T08:16:47.000Z</time>
      </trkpt>
      <trkpt lat="47.59312" lon="6.78902">
        <ele>381</ele>
        <time>2016-10-23T08:16:48.000Z</time>
      </trkpt>
      <trkpt lat="47.59315" lon="6.78901">
        <ele>381</ele>
        <time>2016-10-23T08:16:49.000Z</time>
      </trkpt>
      <trkpt lat="47.59322" lon="6.78896">
        <ele>381</ele>
        <time>2016-10-23T08:16:50.000Z</time>
      </trkpt>
      <trkpt lat="47.59327" lon="6.78896">
        <ele>381</ele>
        <time>2016-10-23T08:16:51.000Z</time>
      </trkpt>
      <trkpt lat="47.59332" lon="6.78894">
        <ele>381</ele>
        <time>2016-10-23T08:16:52.000Z</time>
      </trkpt>
      <trkpt lat="47.59338" lon="6.78891">
        <ele>382</ele>
        <time>2016-10-23T08:16:53.000Z</time>
      </trkpt>
      <trkpt lat="47.59344" lon="6.7889">
        <ele>382</ele>
        <time>2016-10-23T08:16:54.000Z</time>
      </trkpt>
      <trkpt lat="47.59351" lon="6.78887">
        <ele>382</ele>
        <time>2016-10-23T08:16:55.000Z</time>
      </trkpt>
      <trkpt lat="47.59358" lon="6.78886">
        <ele>382</ele>
        <time>2016-10-23T08:16:56.000Z</time>
      </trkpt>
      <trkpt lat="47.59365" lon="6.78883">
        <ele>382</ele>
        <time>2016-10-23T08:16:57.000Z</time>
      </trkpt>
      <trkpt lat="47.59373" lon="6.7888">
        <ele>381</ele>
        <time>2016-10-23T08:16:58.000Z</time>
      </trkpt>
      <trkpt lat="47.5938" lon="6.78878">
        <ele>381</ele>
        <time>2016-10-23T08:16:59.000Z</time>
      </trkpt>
      <trkpt lat="47.59387" lon="6.78876">
        <ele>381</ele>
        <time>2016-10-23T08:17:00.000Z</time>
      </trkpt>
      <trkpt lat="47.59394" lon="6.78874">
        <ele>381</ele>
        <time>2016-10-23T08:17:00.999Z</time>
      </trkpt>
      <trkpt lat="47.59403" lon="6.78863">
        <ele>381</ele>
        <time>2016-10-23T08:17:02.000Z</time>
      </trkpt>
      <trkpt lat="47.5941" lon="6.78854">
        <ele>381</ele>
        <time>2016-10-23T08:17:03.000Z</time>
      </trkpt>
      <trkpt lat="47.59419" lon="6.78849">
        <ele>383</ele>
        <time>2016-10-23T08:17:04.000Z</time>
      </trkpt>
      <trkpt lat="47.59427" lon="6.78843">
        <ele>383</ele>
        <time>2016-10-23T08:17:04.999Z</time>
      </trkpt>
      <trkpt lat="47.5943" lon="6.78837">
        <ele>383</ele>
        <time>2016-10-23T08:17:06.000Z</time>
      </trkpt>
      <trkpt lat="47.59437" lon="6.78833">
        <ele>382</ele>
        <time>2016-10-23T08:17:07.000Z</time>
      </trkpt>
      <trkpt lat="47.5944" lon="6.78828">
        <ele>383</ele>
        <time>2016-10-23T08:17:08.000Z</time>
      </trkpt>
      <trkpt lat="47.59446" lon="6.78823">
        <ele>383</ele>
        <time>2016-10-23T08:17:08.999Z</time>
      </trkpt>
      <trkpt lat="47.59448" lon="6.78824">
        <ele>383</ele>
        <time>2016-10-23T08:17:10.000Z</time>
      </trkpt>
      <trkpt lat="47.59455" lon="6.78822">
        <ele>384</ele>
        <time>2016-10-23T08:17:11.000Z</time>
      </trkpt>
      <trkpt lat="47.59459" lon="6.78821">
        <ele>384</ele>
        <time>2016-10-23T08:17:12.000Z</time>
      </trkpt>
      <trkpt lat="47.59464" lon="6.78818">
        <ele>385</ele>
        <time>2016-10-23T08:17:13.000Z</time>
      </trkpt>
      <trkpt lat="47.59466" lon="6.78819">
        <ele>385</ele>
        <time>2016-10-23T08:17:14.000Z</time>
      </trkpt>
      <trkpt lat="47.59468" lon="6.7882">
        <ele>385</ele>
        <time>2016-10-23T08:17:15.000Z</time>
      </trkpt>
      <trkpt lat="47.59471" lon="6.78816">
        <ele>385</ele>
        <time>2016-10-23T08:17:16.000Z</time>
      </trkpt>
      <trkpt lat="47.59472" lon="6.78815">
        <ele>385</ele>
        <time>2016-10-23T08:17:17.000Z</time>
      </trkpt>
      <trkpt lat="47.59476" lon="6.78814">
        <ele>386</ele>
        <time>2016-10-23T08:17:19.000Z</time>
      </trkpt>
      <trkpt lat="47.59478" lon="6.78814">
        <ele>386</ele>
        <time>2016-10-23T08:17:20.001Z</time>
      </trkpt>
      <trkpt lat="47.5948" lon="6.78813">
        <ele>386</ele>
        <time>2016-10-23T08:17:21.001Z</time>
      </trkpt>
      <trkpt lat="47.59482" lon="6.78811">
        <ele>386</ele>
        <time>2016-10-23T08:17:22.000Z</time>
      </trkpt>
      <trkpt lat="47.59484" lon="6.78811">
        <ele>386</ele>
        <time>2016-10-23T08:17:23.000Z</time>
      </trkpt>
      <trkpt lat="47.59487" lon="6.7881">
        <ele>386</ele>
        <time>2016-10-23T08:17:24.000Z</time>
      </trkpt>
      <trkpt lat="47.5949" lon="6.78809">
        <ele>386</ele>
        <time>2016-10-23T08:17:24.999Z</time>
      </trkpt>
      <trkpt lat="47.59493" lon="6.78809">
        <ele>386</ele>
        <time>2016-10-23T08:17:26.000Z</time>
      </trkpt>
      <trkpt lat="47.59496" lon="6.78809">
        <ele>386</ele>
        <time>2016-10-23T08:17:26.999Z</time>
      </trkpt>
      <trkpt lat="47.59499" lon="6.7881">
        <ele>387</ele>
        <time>2016-10-23T08:17:28.000Z</time>
      </trkpt>
      <trkpt lat="47.59502" lon="6.78812">
        <ele>390</ele>
        <time>2016-10-23T08:17:29.000Z</time>
      </trkpt>
      <trkpt lat="47.59506" lon="6.78813">
        <ele>390</ele>
        <time>2016-10-23T08:17:30.000Z</time>
      </trkpt>
      <trkpt lat="47.59509" lon="6.78813">
        <ele>390</ele>
        <time>2016-10-23T08:17:31.000Z</time>
      </trkpt>
      <trkpt lat="47.59513" lon="6.78814">
        <ele>390</ele>
        <time>2016-10-23T08:17:32.000Z</time>
      </trkpt>
      <trkpt lat="47.59517" lon="6.78814">
        <ele>390</ele>
        <time>2016-10-23T08:17:33.000Z</time>
      </trkpt>
      <trkpt lat="47.59521" lon="6.78815">
        <ele>390</ele>
        <time>2016-10-23T08:17:34.000Z</time>
      </trkpt>
      <trkpt lat="47.59525" lon="6.78816">
        <ele>390</ele>
        <time>2016-10-23T08:17:35.000Z</time>
      </trkpt>
      <trkpt lat="47.59529" lon="6.78817">
        <ele>390</ele>
        <time>2016-10-23T08:17:36.000Z</time>
      </trkpt>
      <trkpt lat="47.59534" lon="6.78819">
        <ele>390</ele>
        <time>2016-10-23T08:17:37.000Z</time>
      </trkpt>
      <trkpt lat="47.59538" lon="6.7882">
        <ele>390</ele>
        <time>2016-10-23T08:17:38.000Z</time>
      </trkpt>
      <trkpt lat="47.59543" lon="6.78818">
        <ele>390</ele>
        <time>2016-10-23T08:17:39.000Z</time>
      </trkpt>
      <trkpt lat="47.59548" lon="6.78815">
        <ele>390</ele>
        <time>2016-10-23T08:17:40.000Z</time>
      </trkpt>
      <trkpt lat="47.59552" lon="6.78808">
        <ele>390</ele>
        <time>2016-10-23T08:17:41.000Z</time>
      </trkpt>
      <trkpt lat="47.59555" lon="6.788">
        <ele>390</ele>
        <time>2016-10-23T08:17:42.000Z</time>
      </trkpt>
      <trkpt lat="47.59558" lon="6.78777">
        <ele>390</ele>
        <time>2016-10-23T08:17:43.000Z</time>
      </trkpt>
      <trkpt lat="47.5956" lon="6.78769">
        <ele>390</ele>
        <time>2016-10-23T08:17:44.000Z</time>
      </trkpt>
      <trkpt lat="47.59562" lon="6.78761">
        <ele>390</ele>
        <time>2016-10-23T08:17:45.000Z</time>
      </trkpt>
      <trkpt lat="47.59564" lon="6.78753">
        <ele>390</ele>
        <time>2016-10-23T08:17:46.000Z</time>
      </trkpt>
      <trkpt lat="47.59565" lon="6.78746">
        <ele>388</ele>
        <time>2016-10-23T08:17:47.000Z</time>
      </trkpt>
      <trkpt lat="47.59566" lon="6.78738">
        <ele>388</ele>
        <time>2016-10-23T08:17:48.000Z</time>
      </trkpt>
      <trkpt lat="47.59567" lon="6.78732">
        <ele>388</ele>
        <time>2016-10-23T08:17:49.000Z</time>
      </trkpt>
      <trkpt lat="47.5957" lon="6.78725">
        <ele>388</ele>
        <time>2016-10-23T08:17:50.000Z</time>
      </trkpt>
      <trkpt lat="47.59571" lon="6.78719">
        <ele>388</ele>
        <time>2016-10-23T08:17:51.000Z</time>
      </trkpt>
      <trkpt lat="47.59572" lon="6.78712">
        <ele>388</ele>
        <time>2016-10-23T08:17:52.000Z</time>
      </trkpt>
      <trkpt lat="47.59574" lon="6.78707">
        <ele>388</ele>
        <time>2016-10-23T08:17:53.000Z</time>
      </trkpt>
      <trkpt lat="47.59575" lon="6.78702">
        <ele>388</ele>
        <time>2016-10-23T08:17:54.000Z</time>
      </trkpt>
      <trkpt lat="47.59577" lon="6.78695">
        <ele>388</ele>
        <time>2016-10-23T08:17:55.000Z</time>
      </trkpt>
      <trkpt lat="47.59579" lon="6.78689">
        <ele>388</ele>
        <time>2016-10-23T08:17:56.000Z</time>
      </trkpt>
      <trkpt lat="47.5958" lon="6.78683">
        <ele>388</ele>
        <time>2016-10-23T08:17:57.000Z</time>
      </trkpt>
      <trkpt lat="47.5958" lon="6.78678">
        <ele>388</ele>
        <time>2016-10-23T08:17:58.000Z</time>
      </trkpt>
      <trkpt lat="47.59582" lon="6.78672">
        <ele>389</ele>
        <time>2016-10-23T08:17:59.000Z</time>
      </trkpt>
      <trkpt lat="47.59583" lon="6.78665">
        <ele>389</ele>
        <time>2016-10-23T08:18:00.000Z</time>
      </trkpt>
      <trkpt lat="47.59583" lon="6.78657">
        <ele>387</ele>
        <time>2016-10-23T08:18:01.000Z</time>
      </trkpt>
      <trkpt lat="47.5958" lon="6.78651">
        <ele>387</ele>
        <time>2016-10-23T08:18:02.000Z</time>
      </trkpt>
      <trkpt lat="47.59578" lon="6.78645">
        <ele>386</ele>
        <time>2016-10-23T08:18:03.000Z</time>
      </trkpt>
      <trkpt lat="47.59578" lon="6.78635">
        <ele>385</ele>
        <time>2016-10-23T08:18:04.000Z</time>
      </trkpt>
      <trkpt lat="47.59578" lon="6.78628">
        <ele>385</ele>
        <time>2016-10-23T08:18:05.001Z</time>
      </trkpt>
      <trkpt lat="47.5958" lon="6.78621">
        <ele>385</ele>
        <time>2016-10-23T08:18:06.000Z</time>
      </trkpt>
      <trkpt lat="47.59581" lon="6.78614">
        <ele>385</ele>
        <time>2016-10-23T08:18:07.000Z</time>
      </trkpt>
      <trkpt lat="47.59584" lon="6.78607">
        <ele>390</ele>
        <time>2016-10-23T08:18:08.000Z</time>
      </trkpt>
      <trkpt lat="47.59586" lon="6.78602">
        <ele>390</ele>
        <time>2016-10-23T08:18:09.000Z</time>
      </trkpt>
      <trkpt lat="47.59588" lon="6.78597">
        <ele>389</ele>
        <time>2016-10-23T08:18:10.000Z</time>
      </trkpt>
      <trkpt lat="47.5959" lon="6.78592">
        <ele>389</ele>
        <time>2016-10-23T08:18:11.001Z</time>
      </trkpt>
      <trkpt lat="47.59595" lon="6.78583">
        <ele>389</ele>
        <time>2016-10-23T08:18:12.000Z</time>
      </trkpt>
      <trkpt lat="47.596" lon="6.78578">
        <ele>390</ele>
        <time>2016-10-23T08:18:13.000Z</time>
      </trkpt>
      <trkpt lat="47.59604" lon="6.78576">
        <ele>391</ele>
        <time>2016-10-23T08:18:14.000Z</time>
      </trkpt>
      <trkpt lat="47.59606" lon="6.78572">
        <ele>391</ele>
        <time>2016-10-23T08:18:14.999Z</time>
      </trkpt>
      <trkpt lat="47.59608" lon="6.7857">
        <ele>391</ele>
        <time>2016-10-23T08:18:16.000Z</time>
      </trkpt>
      <trkpt lat="47.5961" lon="6.78566">
        <ele>391</ele>
        <time>2016-10-23T08:18:17.000Z</time>
      </trkpt>
      <trkpt lat="47.59613" lon="6.78562">
        <ele>392</ele>
        <time>2016-10-23T08:18:18.000Z</time>
      </trkpt>
      <trkpt lat="47.59614" lon="6.78559">
        <ele>392</ele>
        <time>2016-10-23T08:18:19.000Z</time>
      </trkpt>
      <trkpt lat="47.59614" lon="6.78555">
        <ele>392</ele>
        <time>2016-10-23T08:18:20.000Z</time>
      </trkpt>
      <trkpt lat="47.59616" lon="6.78551">
        <ele>392</ele>
        <time>2016-10-23T08:18:21.000Z</time>
      </trkpt>
      <trkpt lat="47.59617" lon="6.78548">
        <ele>392</ele>
        <time>2016-10-23T08:18:22.000Z</time>
      </trkpt>
      <trkpt lat="47.59618" lon="6.78545">
        <ele>392</ele>
        <time>2016-10-23T08:18:23.000Z</time>
      </trkpt>
      <trkpt lat="47.59619" lon="6.78541">
        <ele>392</ele>
        <time>2016-10-23T08:18:24.000Z</time>
      </trkpt>
      <trkpt lat="47.59619" lon="6.78538">
        <ele>392</ele>
        <time>2016-10-23T08:18:25.000Z</time>
      </trkpt>
      <trkpt lat="47.5962" lon="6.78534">
        <ele>392</ele>
        <time>2016-10-23T08:18:26.000Z</time>
      </trkpt>
      <trkpt lat="47.59621" lon="6.78531">
        <ele>393</ele>
        <time>2016-10-23T08:18:27.000Z</time>
      </trkpt>
      <trkpt lat="47.59622" lon="6.78527">
        <ele>393</ele>
        <time>2016-10-23T08:18:28.000Z</time>
      </trkpt>
      <trkpt lat="47.59623" lon="6.78524">
        <ele>393</ele>
        <time>2016-10-23T08:18:28.999Z</time>
      </trkpt>
      <trkpt lat="47.59624" lon="6.78519">
        <ele>393</ele>
        <time>2016-10-23T08:18:30.000Z</time>
      </trkpt>
      <trkpt lat="47.59624" lon="6.78513">
        <ele>393</ele>
        <time>2016-10-23T08:18:31.000Z</time>
      </trkpt>
      <trkpt lat="47.59625" lon="6.78508">
        <ele>393</ele>
        <time>2016-10-23T08:18:32.000Z</time>
      </trkpt>
      <trkpt lat="47.59626" lon="6.78504">
        <ele>393</ele>
        <time>2016-10-23T08:18:32.999Z</time>
      </trkpt>
      <trkpt lat="47.59627" lon="6.78498">
        <ele>393</ele>
        <time>2016-10-23T08:18:34.000Z</time>
      </trkpt>
      <trkpt lat="47.59628" lon="6.78493">
        <ele>393</ele>
        <time>2016-10-23T08:18:35.000Z</time>
      </trkpt>
      <trkpt lat="47.59629" lon="6.78488">
        <ele>393</ele>
        <time>2016-10-23T08:18:36.000Z</time>
      </trkpt>
      <trkpt lat="47.59631" lon="6.78484">
        <ele>393</ele>
        <time>2016-10-23T08:18:37.000Z</time>
      </trkpt>
      <trkpt lat="47.59633" lon="6.7848">
        <ele>394</ele>
        <time>2016-10-23T08:18:38.000Z</time>
      </trkpt>
      <trkpt lat="47.59635" lon="6.78477">
        <ele>394</ele>
        <time>2016-10-23T08:18:39.000Z</time>
      </trkpt>
      <trkpt lat="47.59637" lon="6.78474">
        <ele>394</ele>
        <time>2016-10-23T08:18:40.000Z</time>
      </trkpt>
      <trkpt lat="47.59638" lon="6.7847">
        <ele>394</ele>
        <time>2016-10-23T08:18:41.000Z</time>
      </trkpt>
      <trkpt lat="47.5964" lon="6.78466">
        <ele>394</ele>
        <time>2016-10-23T08:18:42.001Z</time>
      </trkpt>
      <trkpt lat="47.59642" lon="6.78461">
        <ele>394</ele>
        <time>2016-10-23T08:18:43.000Z</time>
      </trkpt>
      <trkpt lat="47.59644" lon="6.78456">
        <ele>394</ele>
        <time>2016-10-23T08:18:44.000Z</time>
      </trkpt>
      <trkpt lat="47.59645" lon="6.7845">
        <ele>394</ele>
        <time>2016-10-23T08:18:45.000Z</time>
      </trkpt>
      <trkpt lat="47.59646" lon="6.78445">
        <ele>394</ele>
        <time>2016-10-23T08:18:46.000Z</time>
      </trkpt>
      <trkpt lat="47.59648" lon="6.78441">
        <ele>394</ele>
        <time>2016-10-23T08:18:47.000Z</time>
      </trkpt>
      <trkpt lat="47.5965" lon="6.78435">
        <ele>395</ele>
        <time>2016-10-23T08:18:48.000Z</time>
      </trkpt>
      <trkpt lat="47.59651" lon="6.78431">
        <ele>395</ele>
        <time>2016-10-23T08:18:49.000Z</time>
      </trkpt>
      <trkpt lat="47.59654" lon="6.78427">
        <ele>395</ele>
        <time>2016-10-23T08:18:50.000Z</time>
      </trkpt>
      <trkpt lat="47.59656" lon="6.78424">
        <ele>395</ele>
        <time>2016-10-23T08:18:51.000Z</time>
      </trkpt>
      <trkpt lat="47.59659" lon="6.78421">
        <ele>396</ele>
        <time>2016-10-23T08:18:52.000Z</time>
      </trkpt>
      <trkpt lat="47.59661" lon="6.78418">
        <ele>396</ele>
        <time>2016-10-23T08:18:53.000Z</time>
      </trkpt>
      <trkpt lat="47.59664" lon="6.78416">
        <ele>396</ele>
        <time>2016-10-23T08:18:54.000Z</time>
      </trkpt>
      <trkpt lat="47.59667" lon="6.78413">
        <ele>397</ele>
        <time>2016-10-23T08:18:55.000Z</time>
      </trkpt>
      <trkpt lat="47.5967" lon="6.7841">
        <ele>397</ele>
        <time>2016-10-23T08:18:56.000Z</time>
      </trkpt>
      <trkpt lat="47.59674" lon="6.78408">
        <ele>397</ele>
        <time>2016-10-23T08:18:57.000Z</time>
      </trkpt>
      <trkpt lat="47.59677" lon="6.78407">
        <ele>397</ele>
        <time>2016-10-23T08:18:58.000Z</time>
      </trkpt>
      <trkpt lat="47.59681" lon="6.78406">
        <ele>397</ele>
        <time>2016-10-23T08:18:59.000Z</time>
      </trkpt>
      <trkpt lat="47.59684" lon="6.78407">
        <ele>397</ele>
        <time>2016-10-23T08:19:00.000Z</time>
      </trkpt>
      <trkpt lat="47.59687" lon="6.78407">
        <ele>397</ele>
        <time>2016-10-23T08:19:01.000Z</time>
      </trkpt>
      <trkpt lat="47.5969" lon="6.78408">
        <ele>397</ele>
        <time>2016-10-23T08:19:02.000Z</time>
      </trkpt>
      <trkpt lat="47.59693" lon="6.78408">
        <ele>397</ele>
        <time>2016-10-23T08:19:03.000Z</time>
      </trkpt>
      <trkpt lat="47.59695" lon="6.78408">
        <ele>398</ele>
        <time>2016-10-23T08:19:04.000Z</time>
      </trkpt>
      <trkpt lat="47.59698" lon="6.78409">
        <ele>398</ele>
        <time>2016-10-23T08:19:05.001Z</time>
      </trkpt>
      <trkpt lat="47.597" lon="6.78408">
        <ele>398</ele>
        <time>2016-10-23T08:19:06.000Z</time>
      </trkpt>
      <trkpt lat="47.59704" lon="6.78408">
        <ele>398</ele>
        <time>2016-10-23T08:19:07.000Z</time>
      </trkpt>
      <trkpt lat="47.59707" lon="6.78408">
        <ele>398</ele>
        <time>2016-10-23T08:19:08.000Z</time>
      </trkpt>
      <trkpt lat="47.59711" lon="6.78406">
        <ele>398</ele>
        <time>2016-10-23T08:19:09.000Z</time>
      </trkpt>
      <trkpt lat="47.59714" lon="6.78405">
        <ele>398</ele>
        <time>2016-10-23T08:19:10.001Z</time>
      </trkpt>
      <trkpt lat="47.59719" lon="6.78403">
        <ele>399</ele>
        <time>2016-10-23T08:19:11.000Z</time>
      </trkpt>
      <trkpt lat="47.59723" lon="6.78401">
        <ele>399</ele>
        <time>2016-10-23T08:19:12.000Z</time>
      </trkpt>
      <trkpt lat="47.59726" lon="6.78399">
        <ele>399</ele>
        <time>2016-10-23T08:19:13.000Z</time>
      </trkpt>
      <trkpt lat="47.5973" lon="6.78397">
        <ele>399</ele>
        <time>2016-10-23T08:19:14.000Z</time>
      </trkpt>
      <trkpt lat="47.59734" lon="6.78395">
        <ele>399</ele>
        <time>2016-10-23T08:19:15.000Z</time>
      </trkpt>
      <trkpt lat="47.59737" lon="6.78394">
        <ele>399</ele>
        <time>2016-10-23T08:19:15.999Z</time>
      </trkpt>
      <trkpt lat="47.5974" lon="6.78393">
        <ele>399</ele>
        <time>2016-10-23T08:19:17.000Z</time>
      </trkpt>
      <trkpt lat="47.59743" lon="6.78391">
        <ele>399</ele>
        <time>2016-10-23T08:19:18.000Z</time>
      </trkpt>
      <trkpt lat="47.59746" lon="6.78389">
        <ele>399</ele>
        <time>2016-10-23T08:19:19.000Z</time>
      </trkpt>
      <trkpt lat="47.59748" lon="6.78387">
        <ele>399</ele>
        <time>2016-10-23T08:19:20.000Z</time>
      </trkpt>
      <trkpt lat="47.5975" lon="6.78386">
        <ele>399</ele>
        <time>2016-10-23T08:19:21.002Z</time>
      </trkpt>
      <trkpt lat="47.59754" lon="6.78384">
        <ele>402</ele>
        <time>2016-10-23T08:19:23.000Z</time>
      </trkpt>
      <trkpt lat="47.59756" lon="6.78382">
        <ele>402</ele>
        <time>2016-10-23T08:19:24.000Z</time>
      </trkpt>
      <trkpt lat="47.59759" lon="6.78381">
        <ele>402</ele>
        <time>2016-10-23T08:19:25.000Z</time>
      </trkpt>
      <trkpt lat="47.59761" lon="6.78379">
        <ele>401</ele>
        <time>2016-10-23T08:19:26.000Z</time>
      </trkpt>
      <trkpt lat="47.59763" lon="6.78378">
        <ele>401</ele>
        <time>2016-10-23T08:19:27.000Z</time>
      </trkpt>
      <trkpt lat="47.59766" lon="6.78377">
        <ele>401</ele>
        <time>2016-10-23T08:19:28.001Z</time>
      </trkpt>
      <trkpt lat="47.59769" lon="6.78375">
        <ele>401</ele>
        <time>2016-10-23T08:19:30.001Z</time>
      </trkpt>
      <trkpt lat="47.59771" lon="6.78371">
        <ele>401</ele>
        <time>2016-10-23T08:19:31.000Z</time>
      </trkpt>
      <trkpt lat="47.59772" lon="6.78369">
        <ele>401</ele>
        <time>2016-10-23T08:19:32.000Z</time>
      </trkpt>
      <trkpt lat="47.59775" lon="6.78364">
        <ele>401</ele>
        <time>2016-10-23T08:19:33.000Z</time>
      </trkpt>
      <trkpt lat="47.59776" lon="6.7836">
        <ele>401</ele>
        <time>2016-10-23T08:19:34.000Z</time>
      </trkpt>
      <trkpt lat="47.59777" lon="6.78358">
        <ele>401</ele>
        <time>2016-10-23T08:19:35.000Z</time>
      </trkpt>
      <trkpt lat="47.59778" lon="6.78351">
        <ele>400</ele>
        <time>2016-10-23T08:19:37.000Z</time>
      </trkpt>
      <trkpt lat="47.59779" lon="6.78349">
        <ele>400</ele>
        <time>2016-10-23T08:19:38.000Z</time>
      </trkpt>
      <trkpt lat="47.59779" lon="6.78347">
        <ele>400</ele>
        <time>2016-10-23T08:19:39.000Z</time>
      </trkpt>
      <trkpt lat="47.59781" lon="6.78342">
        <ele>400</ele>
        <time>2016-10-23T08:19:40.001Z</time>
      </trkpt>
      <trkpt lat="47.59783" lon="6.78338">
        <ele>400</ele>
        <time>2016-10-23T08:19:42.000Z</time>
      </trkpt>
      <trkpt lat="47.59784" lon="6.78336">
        <ele>400</ele>
        <time>2016-10-23T08:19:43.000Z</time>
      </trkpt>
      <trkpt lat="47.59785" lon="6.78331">
        <ele>393</ele>
        <time>2016-10-23T08:19:46.000Z</time>
      </trkpt>
      <trkpt lat="47.59786" lon="6.7833">
        <ele>393</ele>
        <time>2016-10-23T08:19:47.000Z</time>
      </trkpt>
      <trkpt lat="47.59782" lon="6.78326">
        <ele>393</ele>
        <time>2016-10-23T08:20:50.000Z</time>
      </trkpt>
      <trkpt lat="47.5978" lon="6.78324">
        <ele>393</ele>
        <time>2016-10-23T08:20:51.000Z</time>
      </trkpt>
      <trkpt lat="47.59779" lon="6.78321">
        <ele>392</ele>
        <time>2016-10-23T08:20:53.000Z</time>
      </trkpt>
      <trkpt lat="47.59777" lon="6.78319">
        <ele>392</ele>
        <time>2016-10-23T08:20:54.000Z</time>
      </trkpt>
      <trkpt lat="47.59774" lon="6.78316">
        <ele>392</ele>
        <time>2016-10-23T08:20:56.000Z</time>
      </trkpt>
      <trkpt lat="47.59773" lon="6.78316">
        <ele>392</ele>
        <time>2016-10-23T08:20:57.000Z</time>
      </trkpt>
      <trkpt lat="47.5977" lon="6.78318">
        <ele>392</ele>
        <time>2016-10-23T08:22:40.000Z</time>
      </trkpt>
      <trkpt lat="47.59768" lon="6.78317">
        <ele>392</ele>
        <time>2016-10-23T08:22:41.000Z</time>
      </trkpt>
      <trkpt lat="47.59767" lon="6.78317">
        <ele>392</ele>
        <time>2016-10-23T08:22:42.000Z</time>
      </trkpt>
      <trkpt lat="47.59759" lon="6.78308">
        <ele>392</ele>
        <time>2016-10-23T08:22:43.000Z</time>
      </trkpt>
      <trkpt lat="47.59755" lon="6.78305">
        <ele>391</ele>
        <time>2016-10-23T08:22:44.000Z</time>
      </trkpt>
      <trkpt lat="47.59746" lon="6.78294">
        <ele>387</ele>
        <time>2016-10-23T08:22:45.000Z</time>
      </trkpt>
      <trkpt lat="47.59741" lon="6.78295">
        <ele>387</ele>
        <time>2016-10-23T08:22:46.000Z</time>
      </trkpt>
      <trkpt lat="47.59736" lon="6.78294">
        <ele>387</ele>
        <time>2016-10-23T08:22:47.000Z</time>
      </trkpt>
      <trkpt lat="47.5973" lon="6.78294">
        <ele>387</ele>
        <time>2016-10-23T08:22:48.000Z</time>
      </trkpt>
      <trkpt lat="47.59725" lon="6.78291">
        <ele>387</ele>
        <time>2016-10-23T08:22:49.000Z</time>
      </trkpt>
      <trkpt lat="47.59718" lon="6.78291">
        <ele>386</ele>
        <time>2016-10-23T08:22:50.000Z</time>
      </trkpt>
      <trkpt lat="47.59712" lon="6.78292">
        <ele>386</ele>
        <time>2016-10-23T08:22:51.000Z</time>
      </trkpt>
      <trkpt lat="47.59706" lon="6.78292">
        <ele>386</ele>
        <time>2016-10-23T08:22:52.002Z</time>
      </trkpt>
      <trkpt lat="47.597" lon="6.78292">
        <ele>386</ele>
        <time>2016-10-23T08:22:53.000Z</time>
      </trkpt>
      <trkpt lat="47.59693" lon="6.78293">
        <ele>386</ele>
        <time>2016-10-23T08:22:54.000Z</time>
      </trkpt>
      <trkpt lat="47.59689" lon="6.78297">
        <ele>386</ele>
        <time>2016-10-23T08:22:54.999Z</time>
      </trkpt>
      <trkpt lat="47.59683" lon="6.78298">
        <ele>386</ele>
        <time>2016-10-23T08:22:56.000Z</time>
      </trkpt>
      <trkpt lat="47.59677" lon="6.78301">
        <ele>387</ele>
        <time>2016-10-23T08:22:57.000Z</time>
      </trkpt>
      <trkpt lat="47.59669" lon="6.78302">
        <ele>387</ele>
        <time>2016-10-23T08:22:58.000Z</time>
      </trkpt>
      <trkpt lat="47.59663" lon="6.78305">
        <ele>383</ele>
        <time>2016-10-23T08:22:59.000Z</time>
      </trkpt>
      <trkpt lat="47.59654" lon="6.78308">
        <ele>383</ele>
        <time>2016-10-23T08:23:00.000Z</time>
      </trkpt>
      <trkpt lat="47.59648" lon="6.78316">
        <ele>383</ele>
        <time>2016-10-23T08:23:01.000Z</time>
      </trkpt>
      <trkpt lat="47.59643" lon="6.78322">
        <ele>384</ele>
        <time>2016-10-23T08:23:02.000Z</time>
      </trkpt>
      <trkpt lat="47.59632" lon="6.7832">
        <ele>382</ele>
        <time>2016-10-23T08:23:03.000Z</time>
      </trkpt>
      <trkpt lat="47.59623" lon="6.78323">
        <ele>382</ele>
        <time>2016-10-23T08:23:04.000Z</time>
      </trkpt>
      <trkpt lat="47.59614" lon="6.78325">
        <ele>381</ele>
        <time>2016-10-23T08:23:05.000Z</time>
      </trkpt>
      <trkpt lat="47.59607" lon="6.78328">
        <ele>381</ele>
        <time>2016-10-23T08:23:06.000Z</time>
      </trkpt>
      <trkpt lat="47.59598" lon="6.78326">
        <ele>382</ele>
        <time>2016-10-23T08:23:07.000Z</time>
      </trkpt>
      <trkpt lat="47.59589" lon="6.78328">
        <ele>383</ele>
        <time>2016-10-23T08:23:08.000Z</time>
      </trkpt>
      <trkpt lat="47.59582" lon="6.7833">
        <ele>382</ele>
        <time>2016-10-23T08:23:09.000Z</time>
      </trkpt>
      <trkpt lat="47.59575" lon="6.78334">
        <ele>384</ele>
        <time>2016-10-23T08:23:10.000Z</time>
      </trkpt>
      <trkpt lat="47.59569" lon="6.78335">
        <ele>383</ele>
        <time>2016-10-23T08:23:11.000Z</time>
      </trkpt>
      <trkpt lat="47.59562" lon="6.78337">
        <ele>383</ele>
        <time>2016-10-23T08:23:12.000Z</time>
      </trkpt>
      <trkpt lat="47.59562" lon="6.78355">
        <ele>383</ele>
        <time>2016-10-23T08:23:13.000Z</time>
      </trkpt>
      <trkpt lat="47.59556" lon="6.78367">
        <ele>383</ele>
        <time>2016-10-23T08:23:14.000Z</time>
      </trkpt>
      <trkpt lat="47.59551" lon="6.78374">
        <ele>383</ele>
        <time>2016-10-23T08:23:15.000Z</time>
      </trkpt>
      <trkpt lat="47.59546" lon="6.78382">
        <ele>383</ele>
        <time>2016-10-23T08:23:16.000Z</time>
      </trkpt>
      <trkpt lat="47.59541" lon="6.78389">
        <ele>383</ele>
        <time>2016-10-23T08:23:17.000Z</time>
      </trkpt>
      <trkpt lat="47.59534" lon="6.7839">
        <ele>383</ele>
        <time>2016-10-23T08:23:18.000Z</time>
      </trkpt>
      <trkpt lat="47.59526" lon="6.78388">
        <ele>382</ele>
        <time>2016-10-23T08:23:18.999Z</time>
      </trkpt>
      <trkpt lat="47.59521" lon="6.7838">
        <ele>382</ele>
        <time>2016-10-23T08:23:20.000Z</time>
      </trkpt>
      <trkpt lat="47.59517" lon="6.78377">
        <ele>382</ele>
        <time>2016-10-23T08:23:21.000Z</time>
      </trkpt>
      <trkpt lat="47.59519" lon="6.78371">
        <ele>382</ele>
        <time>2016-10-23T08:23:22.000Z</time>
      </trkpt>
      <trkpt lat="47.59518" lon="6.78363">
        <ele>381</ele>
        <time>2016-10-23T08:23:23.000Z</time>
      </trkpt>
      <trkpt lat="47.59518" lon="6.78357">
        <ele>381</ele>
        <time>2016-10-23T08:23:24.000Z</time>
      </trkpt>
      <trkpt lat="47.59518" lon="6.78349">
        <ele>381</ele>
        <time>2016-10-23T08:23:24.999Z</time>
      </trkpt>
      <trkpt lat="47.59521" lon="6.78348">
        <ele>381</ele>
        <time>2016-10-23T08:23:26.000Z</time>
      </trkpt>
      <trkpt lat="47.59523" lon="6.7835">
        <ele>381</ele>
        <time>2016-10-23T08:23:27.000Z</time>
      </trkpt>
      <trkpt lat="47.59526" lon="6.78352">
        <ele>381</ele>
        <time>2016-10-23T08:23:28.000Z</time>
      </trkpt>
      <trkpt lat="47.59529" lon="6.7835">
        <ele>382</ele>
        <time>2016-10-23T08:23:29.000Z</time>
      </trkpt>
      <trkpt lat="47.59531" lon="6.78345">
        <ele>382</ele>
        <time>2016-10-23T08:23:30.000Z</time>
      </trkpt>
      <trkpt lat="47.59536" lon="6.78339">
        <ele>382</ele>
        <time>2016-10-23T08:23:31.000Z</time>
      </trkpt>
      <trkpt lat="47.59542" lon="6.78335">
        <ele>382</ele>
        <time>2016-10-23T08:23:32.000Z</time>
      </trkpt>
      <trkpt lat="47.59545" lon="6.78333">
        <ele>377</ele>
        <time>2016-10-23T08:23:33.000Z</time>
      </trkpt>
      <trkpt lat="47.59549" lon="6.7833">
        <ele>377</ele>
        <time>2016-10-23T08:23:34.000Z</time>
      </trkpt>
      <trkpt lat="47.59554" lon="6.78328">
        <ele>377</ele>
        <time>2016-10-23T08:23:34.999Z</time>
      </trkpt>
      <trkpt lat="47.59557" lon="6.78325">
        <ele>377</ele>
        <time>2016-10-23T08:23:36.000Z</time>
      </trkpt>
      <trkpt lat="47.59563" lon="6.78323">
        <ele>378</ele>
        <time>2016-10-23T08:23:37.000Z</time>
      </trkpt>
      <trkpt lat="47.59569" lon="6.7832">
        <ele>378</ele>
        <time>2016-10-23T08:23:38.000Z</time>
      </trkpt>
      <trkpt lat="47.59578" lon="6.78315">
        <ele>378</ele>
        <time>2016-10-23T08:23:39.000Z</time>
      </trkpt>
      <trkpt lat="47.59587" lon="6.78308">
        <ele>380</ele>
        <time>2016-10-23T08:23:40.000Z</time>
      </trkpt>
      <trkpt lat="47.59595" lon="6.78301">
        <ele>379</ele>
        <time>2016-10-23T08:23:41.000Z</time>
      </trkpt>
      <trkpt lat="47.59603" lon="6.78294">
        <ele>378</ele>
        <time>2016-10-23T08:23:42.000Z</time>
      </trkpt>
      <trkpt lat="47.5961" lon="6.78288">
        <ele>378</ele>
        <time>2016-10-23T08:23:43.000Z</time>
      </trkpt>
      <trkpt lat="47.59618" lon="6.7828">
        <ele>377</ele>
        <time>2016-10-23T08:23:44.000Z</time>
      </trkpt>
      <trkpt lat="47.59625" lon="6.78272">
        <ele>377</ele>
        <time>2016-10-23T08:23:45.000Z</time>
      </trkpt>
      <trkpt lat="47.59632" lon="6.78263">
        <ele>377</ele>
        <time>2016-10-23T08:23:46.000Z</time>
      </trkpt>
      <trkpt lat="47.59639" lon="6.78257">
        <ele>377</ele>
        <time>2016-10-23T08:23:47.000Z</time>
      </trkpt>
      <trkpt lat="47.59646" lon="6.78248">
        <ele>372</ele>
        <time>2016-10-23T08:23:48.000Z</time>
      </trkpt>
      <trkpt lat="47.59651" lon="6.78237">
        <ele>372</ele>
        <time>2016-10-23T08:23:49.000Z</time>
      </trkpt>
      <trkpt lat="47.59657" lon="6.78228">
        <ele>371</ele>
        <time>2016-10-23T08:23:50.000Z</time>
      </trkpt>
      <trkpt lat="47.59663" lon="6.78222">
        <ele>371</ele>
        <time>2016-10-23T08:23:51.000Z</time>
      </trkpt>
      <trkpt lat="47.59669" lon="6.78215">
        <ele>373</ele>
        <time>2016-10-23T08:23:52.000Z</time>
      </trkpt>
      <trkpt lat="47.59675" lon="6.78209">
        <ele>372</ele>
        <time>2016-10-23T08:23:53.000Z</time>
      </trkpt>
      <trkpt lat="47.59684" lon="6.78204">
        <ele>372</ele>
        <time>2016-10-23T08:23:54.000Z</time>
      </trkpt>
      <trkpt lat="47.59692" lon="6.78201">
        <ele>372</ele>
        <time>2016-10-23T08:23:55.000Z</time>
      </trkpt>
      <trkpt lat="47.59699" lon="6.78199">
        <ele>372</ele>
        <time>2016-10-23T08:23:55.999Z</time>
      </trkpt>
      <trkpt lat="47.59705" lon="6.78202">
        <ele>372</ele>
        <time>2016-10-23T08:23:57.000Z</time>
      </trkpt>
      <trkpt lat="47.59711" lon="6.78202">
        <ele>372</ele>
        <time>2016-10-23T08:23:58.000Z</time>
      </trkpt>
      <trkpt lat="47.59718" lon="6.78203">
        <ele>372</ele>
        <time>2016-10-23T08:23:59.000Z</time>
      </trkpt>
      <trkpt lat="47.59722" lon="6.78196">
        <ele>372</ele>
        <time>2016-10-23T08:24:00.000Z</time>
      </trkpt>
      <trkpt lat="47.59725" lon="6.78192">
        <ele>372</ele>
        <time>2016-10-23T08:24:01.000Z</time>
      </trkpt>
      <trkpt lat="47.59726" lon="6.78185">
        <ele>371</ele>
        <time>2016-10-23T08:24:02.000Z</time>
      </trkpt>
      <trkpt lat="47.59727" lon="6.78177">
        <ele>371</ele>
        <time>2016-10-23T08:24:03.000Z</time>
      </trkpt>
      <trkpt lat="47.59729" lon="6.78168">
        <ele>370</ele>
        <time>2016-10-23T08:24:04.000Z</time>
      </trkpt>
      <trkpt lat="47.59724" lon="6.78157">
        <ele>370</ele>
        <time>2016-10-23T08:24:05.000Z</time>
      </trkpt>
      <trkpt lat="47.5972" lon="6.78149">
        <ele>371</ele>
        <time>2016-10-23T08:24:06.000Z</time>
      </trkpt>
      <trkpt lat="47.59718" lon="6.78144">
        <ele>371</ele>
        <time>2016-10-23T08:24:07.000Z</time>
      </trkpt>
      <trkpt lat="47.59715" lon="6.78138">
        <ele>372</ele>
        <time>2016-10-23T08:24:08.000Z</time>
      </trkpt>
      <trkpt lat="47.59709" lon="6.78138">
        <ele>372</ele>
        <time>2016-10-23T08:24:09.000Z</time>
      </trkpt>
      <trkpt lat="47.59705" lon="6.78136">
        <ele>372</ele>
        <time>2016-10-23T08:24:10.000Z</time>
      </trkpt>
      <trkpt lat="47.59701" lon="6.78136">
        <ele>372</ele>
        <time>2016-10-23T08:24:11.000Z</time>
      </trkpt>
      <trkpt lat="47.59699" lon="6.78136">
        <ele>372</ele>
        <time>2016-10-23T08:24:12.000Z</time>
      </trkpt>
      <trkpt lat="47.59697" lon="6.78136">
        <ele>372</ele>
        <time>2016-10-23T08:24:13.000Z</time>
      </trkpt>
      <trkpt lat="47.59693" lon="6.78135">
        <ele>372</ele>
        <time>2016-10-23T08:24:14.000Z</time>
      </trkpt>
      <trkpt lat="47.59688" lon="6.78136">
        <ele>371</ele>
        <time>2016-10-23T08:24:15.000Z</time>
      </trkpt>
      <trkpt lat="47.59684" lon="6.78135">
        <ele>371</ele>
        <time>2016-10-23T08:24:16.000Z</time>
      </trkpt>
      <trkpt lat="47.59681" lon="6.78136">
        <ele>371</ele>
        <time>2016-10-23T08:24:17.000Z</time>
      </trkpt>
      <trkpt lat="47.59678" lon="6.78136">
        <ele>371</ele>
        <time>2016-10-23T08:24:18.000Z</time>
      </trkpt>
      <trkpt lat="47.59675" lon="6.78136">
        <ele>371</ele>
        <time>2016-10-23T08:24:19.000Z</time>
      </trkpt>
      <trkpt lat="47.59672" lon="6.78135">
        <ele>371</ele>
        <time>2016-10-23T08:24:20.000Z</time>
      </trkpt>
      <trkpt lat="47.59669" lon="6.78135">
        <ele>371</ele>
        <time>2016-10-23T08:24:21.000Z</time>
      </trkpt>
      <trkpt lat="47.59667" lon="6.78135">
        <ele>371</ele>
        <time>2016-10-23T08:24:22.000Z</time>
      </trkpt>
      <trkpt lat="47.59664" lon="6.78135">
        <ele>373</ele>
        <time>2016-10-23T08:24:23.000Z</time>
      </trkpt>
      <trkpt lat="47.59662" lon="6.78134">
        <ele>373</ele>
        <time>2016-10-23T08:24:24.000Z</time>
      </trkpt>
      <trkpt lat="47.59659" lon="6.78133">
        <ele>374</ele>
        <time>2016-10-23T08:24:25.000Z</time>
      </trkpt>
      <trkpt lat="47.59656" lon="6.78132">
        <ele>374</ele>
        <time>2016-10-23T08:24:26.000Z</time>
      </trkpt>
      <trkpt lat="47.59653" lon="6.78131">
        <ele>374</ele>
        <time>2016-10-23T08:24:27.000Z</time>
      </trkpt>
      <trkpt lat="47.59651" lon="6.7813">
        <ele>374</ele>
        <time>2016-10-23T08:24:28.000Z</time>
      </trkpt>
      <trkpt lat="47.59649" lon="6.78129">
        <ele>375</ele>
        <time>2016-10-23T08:24:29.000Z</time>
      </trkpt>
      <trkpt lat="47.59645" lon="6.78127">
        <ele>375</ele>
        <time>2016-10-23T08:24:31.000Z</time>
      </trkpt>
      <trkpt lat="47.59642" lon="6.78126">
        <ele>375</ele>
        <time>2016-10-23T08:24:32.000Z</time>
      </trkpt>
      <trkpt lat="47.5964" lon="6.78126">
        <ele>375</ele>
        <time>2016-10-23T08:24:33.000Z</time>
      </trkpt>
      <trkpt lat="47.59637" lon="6.78126">
        <ele>375</ele>
        <time>2016-10-23T08:24:34.000Z</time>
      </trkpt>
      <trkpt lat="47.59633" lon="6.78127">
        <ele>375</ele>
        <time>2016-10-23T08:24:35.000Z</time>
      </trkpt>
      <trkpt lat="47.5963" lon="6.78128">
        <ele>375</ele>
        <time>2016-10-23T08:24:36.000Z</time>
      </trkpt>
      <trkpt lat="47.59626" lon="6.78128">
        <ele>375</ele>
        <time>2016-10-23T08:24:37.000Z</time>
      </trkpt>
      <trkpt lat="47.59623" lon="6.78129">
        <ele>375</ele>
        <time>2016-10-23T08:24:38.000Z</time>
      </trkpt>
      <trkpt lat="47.5962" lon="6.7813">
        <ele>375</ele>
        <time>2016-10-23T08:24:39.000Z</time>
      </trkpt>
      <trkpt lat="47.59618" lon="6.78131">
        <ele>375</ele>
        <time>2016-10-23T08:24:40.000Z</time>
      </trkpt>
      <trkpt lat="47.59615" lon="6.78132">
        <ele>375</ele>
        <time>2016-10-23T08:24:41.000Z</time>
      </trkpt>
      <trkpt lat="47.59613" lon="6.78133">
        <ele>375</ele>
        <time>2016-10-23T08:24:42.000Z</time>
      </trkpt>
      <trkpt lat="47.5961" lon="6.78134">
        <ele>375</ele>
        <time>2016-10-23T08:24:43.000Z</time>
      </trkpt>
      <trkpt lat="47.59608" lon="6.78136">
        <ele>375</ele>
        <time>2016-10-23T08:24:44.000Z</time>
      </trkpt>
      <trkpt lat="47.59605" lon="6.78137">
        <ele>375</ele>
        <time>2016-10-23T08:24:45.000Z</time>
      </trkpt>
      <trkpt lat="47.59603" lon="6.78138">
        <ele>375</ele>
        <time>2016-10-23T08:24:46.000Z</time>
      </trkpt>
      <trkpt lat="47.596" lon="6.78139">
        <ele>375</ele>
        <time>2016-10-23T08:24:47.000Z</time>
      </trkpt>
      <trkpt lat="47.59597" lon="6.7814">
        <ele>374</ele>
        <time>2016-10-23T08:24:48.000Z</time>
      </trkpt>
      <trkpt lat="47.59595" lon="6.78142">
        <ele>374</ele>
        <time>2016-10-23T08:24:49.000Z</time>
      </trkpt>
      <trkpt lat="47.59593" lon="6.78143">
        <ele>374</ele>
        <time>2016-10-23T08:24:50.000Z</time>
      </trkpt>
      <trkpt lat="47.5959" lon="6.78144">
        <ele>374</ele>
        <time>2016-10-23T08:24:51.000Z</time>
      </trkpt>
      <trkpt lat="47.59588" lon="6.78146">
        <ele>373</ele>
        <time>2016-10-23T08:24:52.000Z</time>
      </trkpt>
      <trkpt lat="47.59586" lon="6.78147">
        <ele>373</ele>
        <time>2016-10-23T08:24:53.000Z</time>
      </trkpt>
      <trkpt lat="47.59583" lon="6.78149">
        <ele>375</ele>
        <time>2016-10-23T08:24:54.000Z</time>
      </trkpt>
      <trkpt lat="47.59579" lon="6.7815">
        <ele>374</ele>
        <time>2016-10-23T08:24:55.000Z</time>
      </trkpt>
      <trkpt lat="47.59576" lon="6.78152">
        <ele>374</ele>
        <time>2016-10-23T08:24:56.000Z</time>
      </trkpt>
      <trkpt lat="47.59572" lon="6.78153">
        <ele>375</ele>
        <time>2016-10-23T08:24:57.000Z</time>
      </trkpt>
      <trkpt lat="47.59569" lon="6.78155">
        <ele>375</ele>
        <time>2016-10-23T08:24:58.000Z</time>
      </trkpt>
      <trkpt lat="47.59566" lon="6.78157">
        <ele>375</ele>
        <time>2016-10-23T08:24:59.000Z</time>
      </trkpt>
      <trkpt lat="47.59563" lon="6.78159">
        <ele>375</ele>
        <time>2016-10-23T08:25:00.000Z</time>
      </trkpt>
      <trkpt lat="47.59561" lon="6.78161">
        <ele>375</ele>
        <time>2016-10-23T08:25:01.000Z</time>
      </trkpt>
      <trkpt lat="47.59558" lon="6.78163">
        <ele>375</ele>
        <time>2016-10-23T08:25:02.000Z</time>
      </trkpt>
      <trkpt lat="47.59555" lon="6.78164">
        <ele>376</ele>
        <time>2016-10-23T08:25:03.000Z</time>
      </trkpt>
      <trkpt lat="47.59552" lon="6.78165">
        <ele>376</ele>
        <time>2016-10-23T08:25:04.000Z</time>
      </trkpt>
      <trkpt lat="47.59549" lon="6.78167">
        <ele>376</ele>
        <time>2016-10-23T08:25:05.000Z</time>
      </trkpt>
      <trkpt lat="47.59547" lon="6.78168">
        <ele>369</ele>
        <time>2016-10-23T08:25:06.000Z</time>
      </trkpt>
      <trkpt lat="47.59543" lon="6.78168">
        <ele>370</ele>
        <time>2016-10-23T08:25:08.000Z</time>
      </trkpt>
      <trkpt lat="47.59541" lon="6.78167">
        <ele>370</ele>
        <time>2016-10-23T08:25:09.000Z</time>
      </trkpt>
      <trkpt lat="47.59539" lon="6.78165">
        <ele>377</ele>
        <time>2016-10-23T08:25:10.000Z</time>
      </trkpt>
      <trkpt lat="47.59537" lon="6.78164">
        <ele>377</ele>
        <time>2016-10-23T08:25:11.000Z</time>
      </trkpt>
      <trkpt lat="47.59535" lon="6.78162">
        <ele>377</ele>
        <time>2016-10-23T08:25:12.000Z</time>
      </trkpt>
      <trkpt lat="47.59533" lon="6.78159">
        <ele>377</ele>
        <time>2016-10-23T08:25:13.000Z</time>
      </trkpt>
      <trkpt lat="47.59531" lon="6.78156">
        <ele>377</ele>
        <time>2016-10-23T08:25:14.000Z</time>
      </trkpt>
      <trkpt lat="47.5953" lon="6.78153">
        <ele>377</ele>
        <time>2016-10-23T08:25:15.000Z</time>
      </trkpt>
      <trkpt lat="47.59529" lon="6.78149">
        <ele>378</ele>
        <time>2016-10-23T08:25:16.000Z</time>
      </trkpt>
      <trkpt lat="47.59529" lon="6.78145">
        <ele>378</ele>
        <time>2016-10-23T08:25:17.000Z</time>
      </trkpt>
      <trkpt lat="47.59529" lon="6.78142">
        <ele>378</ele>
        <time>2016-10-23T08:25:18.000Z</time>
      </trkpt>
      <trkpt lat="47.59529" lon="6.78138">
        <ele>379</ele>
        <time>2016-10-23T08:25:19.000Z</time>
      </trkpt>
      <trkpt lat="47.59531" lon="6.78134">
        <ele>379</ele>
        <time>2016-10-23T08:25:20.000Z</time>
      </trkpt>
      <trkpt lat="47.59532" lon="6.78131">
        <ele>379</ele>
        <time>2016-10-23T08:25:21.000Z</time>
      </trkpt>
      <trkpt lat="47.59534" lon="6.78128">
        <ele>380</ele>
        <time>2016-10-23T08:25:22.000Z</time>
      </trkpt>
      <trkpt lat="47.59537" lon="6.78126">
        <ele>380</ele>
        <time>2016-10-23T08:25:23.000Z</time>
      </trkpt>
      <trkpt lat="47.59539" lon="6.78124">
        <ele>380</ele>
        <time>2016-10-23T08:25:24.000Z</time>
      </trkpt>
      <trkpt lat="47.59541" lon="6.78123">
        <ele>380</ele>
        <time>2016-10-23T08:25:25.000Z</time>
      </trkpt>
      <trkpt lat="47.59545" lon="6.78123">
        <ele>380</ele>
        <time>2016-10-23T08:25:27.000Z</time>
      </trkpt>
      <trkpt lat="47.59547" lon="6.78123">
        <ele>380</ele>
        <time>2016-10-23T08:25:28.000Z</time>
      </trkpt>
      <trkpt lat="47.59549" lon="6.78124">
        <ele>380</ele>
        <time>2016-10-23T08:25:29.000Z</time>
      </trkpt>
      <trkpt lat="47.59551" lon="6.78125">
        <ele>380</ele>
        <time>2016-10-23T08:25:30.000Z</time>
      </trkpt>
      <trkpt lat="47.59554" lon="6.78127">
        <ele>379</ele>
        <time>2016-10-23T08:25:31.000Z</time>
      </trkpt>
      <trkpt lat="47.59556" lon="6.78129">
        <ele>379</ele>
        <time>2016-10-23T08:25:32.000Z</time>
      </trkpt>
      <trkpt lat="47.59559" lon="6.78131">
        <ele>379</ele>
        <time>2016-10-23T08:25:33.000Z</time>
      </trkpt>
      <trkpt lat="47.59561" lon="6.78134">
        <ele>378</ele>
        <time>2016-10-23T08:25:34.000Z</time>
      </trkpt>
      <trkpt lat="47.59563" lon="6.78136">
        <ele>378</ele>
        <time>2016-10-23T08:25:35.000Z</time>
      </trkpt>
      <trkpt lat="47.59565" lon="6.78137">
        <ele>378</ele>
        <time>2016-10-23T08:25:36.000Z</time>
      </trkpt>
      <trkpt lat="47.59567" lon="6.78138">
        <ele>377</ele>
        <time>2016-10-23T08:25:37.000Z</time>
      </trkpt>
      <trkpt lat="47.5957" lon="6.78139">
        <ele>377</ele>
        <time>2016-10-23T08:25:38.000Z</time>
      </trkpt>
      <trkpt lat="47.59574" lon="6.78137">
        <ele>377</ele>
        <time>2016-10-23T08:25:39.000Z</time>
      </trkpt>
      <trkpt lat="47.59577" lon="6.78136">
        <ele>378</ele>
        <time>2016-10-23T08:25:40.000Z</time>
      </trkpt>
      <trkpt lat="47.5958" lon="6.78134">
        <ele>378</ele>
        <time>2016-10-23T08:25:41.000Z</time>
      </trkpt>
      <trkpt lat="47.59582" lon="6.78131">
        <ele>378</ele>
        <time>2016-10-23T08:25:42.000Z</time>
      </trkpt>
      <trkpt lat="47.59585" lon="6.78129">
        <ele>376</ele>
        <time>2016-10-23T08:25:43.000Z</time>
      </trkpt>
      <trkpt lat="47.59588" lon="6.78127">
        <ele>376</ele>
        <time>2016-10-23T08:25:44.000Z</time>
      </trkpt>
      <trkpt lat="47.59591" lon="6.78125">
        <ele>377</ele>
        <time>2016-10-23T08:25:45.000Z</time>
      </trkpt>
      <trkpt lat="47.59594" lon="6.78124">
        <ele>377</ele>
        <time>2016-10-23T08:25:46.000Z</time>
      </trkpt>
      <trkpt lat="47.59596" lon="6.78122">
        <ele>377</ele>
        <time>2016-10-23T08:25:47.000Z</time>
      </trkpt>
      <trkpt lat="47.59599" lon="6.78119">
        <ele>377</ele>
        <time>2016-10-23T08:25:48.000Z</time>
      </trkpt>
      <trkpt lat="47.59602" lon="6.78117">
        <ele>378</ele>
        <time>2016-10-23T08:25:49.000Z</time>
      </trkpt>
      <trkpt lat="47.59605" lon="6.78115">
        <ele>378</ele>
        <time>2016-10-23T08:25:50.000Z</time>
      </trkpt>
      <trkpt lat="47.59607" lon="6.78113">
        <ele>378</ele>
        <time>2016-10-23T08:25:51.000Z</time>
      </trkpt>
      <trkpt lat="47.59609" lon="6.78111">
        <ele>378</ele>
        <time>2016-10-23T08:25:52.000Z</time>
      </trkpt>
      <trkpt lat="47.59611" lon="6.78109">
        <ele>378</ele>
        <time>2016-10-23T08:25:53.000Z</time>
      </trkpt>
      <trkpt lat="47.59613" lon="6.78106">
        <ele>378</ele>
        <time>2016-10-23T08:25:54.000Z</time>
      </trkpt>
      <trkpt lat="47.59614" lon="6.78104">
        <ele>378</ele>
        <time>2016-10-23T08:25:55.000Z</time>
      </trkpt>
      <trkpt lat="47.59616" lon="6.78101">
        <ele>379</ele>
        <time>2016-10-23T08:25:56.000Z</time>
      </trkpt>
      <trkpt lat="47.59618" lon="6.78098">
        <ele>379</ele>
        <time>2016-10-23T08:25:57.000Z</time>
      </trkpt>
      <trkpt lat="47.5962" lon="6.78096">
        <ele>379</ele>
        <time>2016-10-23T08:25:58.000Z</time>
      </trkpt>
      <trkpt lat="47.59622" lon="6.78093">
        <ele>379</ele>
        <time>2016-10-23T08:25:59.000Z</time>
      </trkpt>
      <trkpt lat="47.59623" lon="6.78091">
        <ele>379</ele>
        <time>2016-10-23T08:26:00.000Z</time>
      </trkpt>
      <trkpt lat="47.59625" lon="6.78089">
        <ele>379</ele>
        <time>2016-10-23T08:26:01.000Z</time>
      </trkpt>
      <trkpt lat="47.59627" lon="6.78087">
        <ele>379</ele>
        <time>2016-10-23T08:26:02.000Z</time>
      </trkpt>
      <trkpt lat="47.59631" lon="6.78084">
        <ele>379</ele>
        <time>2016-10-23T08:26:04.000Z</time>
      </trkpt>
      <trkpt lat="47.59633" lon="6.78082">
        <ele>388</ele>
        <time>2016-10-23T08:26:05.000Z</time>
      </trkpt>
      <trkpt lat="47.59635" lon="6.7808">
        <ele>388</ele>
        <time>2016-10-23T08:26:06.000Z</time>
      </trkpt>
      <trkpt lat="47.59638" lon="6.78079">
        <ele>388</ele>
        <time>2016-10-23T08:26:07.000Z</time>
      </trkpt>
      <trkpt lat="47.5964" lon="6.78077">
        <ele>388</ele>
        <time>2016-10-23T08:26:08.000Z</time>
      </trkpt>
      <trkpt lat="47.59642" lon="6.78076">
        <ele>388</ele>
        <time>2016-10-23T08:26:09.000Z</time>
      </trkpt>
      <trkpt lat="47.59645" lon="6.78074">
        <ele>387</ele>
        <time>2016-10-23T08:26:10.000Z</time>
      </trkpt>
      <trkpt lat="47.59647" lon="6.78072">
        <ele>387</ele>
        <time>2016-10-23T08:26:11.000Z</time>
      </trkpt>
      <trkpt lat="47.59651" lon="6.7807">
        <ele>387</ele>
        <time>2016-10-23T08:26:13.000Z</time>
      </trkpt>
      <trkpt lat="47.59653" lon="6.78069">
        <ele>387</ele>
        <time>2016-10-23T08:26:14.000Z</time>
      </trkpt>
      <trkpt lat="47.59657" lon="6.78067">
        <ele>387</ele>
        <time>2016-10-23T08:26:16.000Z</time>
      </trkpt>
      <trkpt lat="47.59658" lon="6.78066">
        <ele>387</ele>
        <time>2016-10-23T08:26:17.000Z</time>
      </trkpt>
      <trkpt lat="47.59661" lon="6.78066">
        <ele>387</ele>
        <time>2016-10-23T08:26:18.000Z</time>
      </trkpt>
      <trkpt lat="47.59663" lon="6.78064">
        <ele>387</ele>
        <time>2016-10-23T08:26:19.000Z</time>
      </trkpt>
      <trkpt lat="47.59667" lon="6.78062">
        <ele>385</ele>
        <time>2016-10-23T08:26:21.000Z</time>
      </trkpt>
      <trkpt lat="47.59668" lon="6.78061">
        <ele>385</ele>
        <time>2016-10-23T08:26:22.000Z</time>
      </trkpt>
      <trkpt lat="47.59671" lon="6.78058">
        <ele>385</ele>
        <time>2016-10-23T08:26:24.000Z</time>
      </trkpt>
      <trkpt lat="47.59673" lon="6.78056">
        <ele>385</ele>
        <time>2016-10-23T08:26:25.000Z</time>
      </trkpt>
      <trkpt lat="47.59675" lon="6.78054">
        <ele>386</ele>
        <time>2016-10-23T08:26:26.001Z</time>
      </trkpt>
      <trkpt lat="47.59677" lon="6.78051">
        <ele>386</ele>
        <time>2016-10-23T08:26:27.000Z</time>
      </trkpt>
      <trkpt lat="47.5968" lon="6.78048">
        <ele>386</ele>
        <time>2016-10-23T08:26:29.000Z</time>
      </trkpt>
      <trkpt lat="47.59682" lon="6.78046">
        <ele>386</ele>
        <time>2016-10-23T08:26:30.000Z</time>
      </trkpt>
      <trkpt lat="47.59686" lon="6.78043">
        <ele>387</ele>
        <time>2016-10-23T08:26:32.000Z</time>
      </trkpt>
      <trkpt lat="47.59688" lon="6.78041">
        <ele>387</ele>
        <time>2016-10-23T08:26:33.000Z</time>
      </trkpt>
      <trkpt lat="47.5969" lon="6.78039">
        <ele>387</ele>
        <time>2016-10-23T08:26:34.000Z</time>
      </trkpt>
      <trkpt lat="47.59692" lon="6.78037">
        <ele>387</ele>
        <time>2016-10-23T08:26:35.000Z</time>
      </trkpt>
      <trkpt lat="47.59694" lon="6.78035">
        <ele>387</ele>
        <time>2016-10-23T08:26:36.000Z</time>
      </trkpt>
      <trkpt lat="47.59695" lon="6.78033">
        <ele>388</ele>
        <time>2016-10-23T08:26:37.000Z</time>
      </trkpt>
      <trkpt lat="47.59699" lon="6.78031">
        <ele>388</ele>
        <time>2016-10-23T08:26:39.000Z</time>
      </trkpt>
      <trkpt lat="47.59701" lon="6.78029">
        <ele>388</ele>
        <time>2016-10-23T08:26:40.000Z</time>
      </trkpt>
      <trkpt lat="47.59704" lon="6.78027">
        <ele>388</ele>
        <time>2016-10-23T08:26:41.000Z</time>
      </trkpt>
      <trkpt lat="47.59706" lon="6.78025">
        <ele>388</ele>
        <time>2016-10-23T08:26:42.001Z</time>
      </trkpt>
      <trkpt lat="47.59711" lon="6.78025">
        <ele>388</ele>
        <time>2016-10-23T08:26:44.000Z</time>
      </trkpt>
      <trkpt lat="47.59713" lon="6.78024">
        <ele>388</ele>
        <time>2016-10-23T08:26:45.000Z</time>
      </trkpt>
      <trkpt lat="47.59715" lon="6.78024">
        <ele>388</ele>
        <time>2016-10-23T08:26:46.000Z</time>
      </trkpt>
      <trkpt lat="47.59717" lon="6.78023">
        <ele>388</ele>
        <time>2016-10-23T08:26:47.000Z</time>
      </trkpt>
      <trkpt lat="47.59721" lon="6.78023">
        <ele>388</ele>
        <time>2016-10-23T08:26:49.000Z</time>
      </trkpt>
      <trkpt lat="47.59723" lon="6.78024">
        <ele>387</ele>
        <time>2016-10-23T08:26:50.000Z</time>
      </trkpt>
      <trkpt lat="47.59725" lon="6.78022">
        <ele>388</ele>
        <time>2016-10-23T08:26:51.000Z</time>
      </trkpt>
      <trkpt lat="47.59727" lon="6.7802">
        <ele>388</ele>
        <time>2016-10-23T08:26:52.000Z</time>
      </trkpt>
      <trkpt lat="47.59729" lon="6.78018">
        <ele>388</ele>
        <time>2016-10-23T08:26:53.000Z</time>
      </trkpt>
      <trkpt lat="47.59731" lon="6.78016">
        <ele>388</ele>
        <time>2016-10-23T08:26:54.000Z</time>
      </trkpt>
      <trkpt lat="47.59734" lon="6.78013">
        <ele>388</ele>
        <time>2016-10-23T08:26:55.000Z</time>
      </trkpt>
      <trkpt lat="47.59735" lon="6.78011">
        <ele>389</ele>
        <time>2016-10-23T08:26:56.000Z</time>
      </trkpt>
      <trkpt lat="47.59739" lon="6.78007">
        <ele>389</ele>
        <time>2016-10-23T08:26:58.000Z</time>
      </trkpt>
      <trkpt lat="47.5974" lon="6.78004">
        <ele>389</ele>
        <time>2016-10-23T08:26:59.000Z</time>
      </trkpt>
      <trkpt lat="47.59742" lon="6.78001">
        <ele>390</ele>
        <time>2016-10-23T08:27:00.000Z</time>
      </trkpt>
      <trkpt lat="47.59744" lon="6.77998">
        <ele>393</ele>
        <time>2016-10-23T08:27:01.000Z</time>
      </trkpt>
      <trkpt lat="47.59746" lon="6.77996">
        <ele>393</ele>
        <time>2016-10-23T08:27:02.000Z</time>
      </trkpt>
      <trkpt lat="47.59748" lon="6.77993">
        <ele>393</ele>
        <time>2016-10-23T08:27:03.000Z</time>
      </trkpt>
      <trkpt lat="47.59751" lon="6.77989">
        <ele>391</ele>
        <time>2016-10-23T08:27:05.000Z</time>
      </trkpt>
      <trkpt lat="47.59752" lon="6.77986">
        <ele>392</ele>
        <time>2016-10-23T08:27:06.000Z</time>
      </trkpt>
      <trkpt lat="47.59755" lon="6.77984">
        <ele>392</ele>
        <time>2016-10-23T08:27:08.000Z</time>
      </trkpt>
      <trkpt lat="47.59757" lon="6.77983">
        <ele>392</ele>
        <time>2016-10-23T08:27:09.000Z</time>
      </trkpt>
      <trkpt lat="47.5976" lon="6.77981">
        <ele>392</ele>
        <time>2016-10-23T08:27:11.000Z</time>
      </trkpt>
      <trkpt lat="47.59762" lon="6.7798">
        <ele>392</ele>
        <time>2016-10-23T08:27:12.000Z</time>
      </trkpt>
      <trkpt lat="47.59763" lon="6.77978">
        <ele>392</ele>
        <time>2016-10-23T08:27:13.000Z</time>
      </trkpt>
      <trkpt lat="47.59765" lon="6.77976">
        <ele>392</ele>
        <time>2016-10-23T08:27:14.000Z</time>
      </trkpt>
      <trkpt lat="47.59767" lon="6.77974">
        <ele>392</ele>
        <time>2016-10-23T08:27:15.000Z</time>
      </trkpt>
      <trkpt lat="47.59769" lon="6.77972">
        <ele>392</ele>
        <time>2016-10-23T08:27:16.000Z</time>
      </trkpt>
      <trkpt lat="47.59773" lon="6.77969">
        <ele>392</ele>
        <time>2016-10-23T08:27:18.000Z</time>
      </trkpt>
      <trkpt lat="47.59774" lon="6.77968">
        <ele>392</ele>
        <time>2016-10-23T08:27:19.000Z</time>
      </trkpt>
      <trkpt lat="47.59776" lon="6.77967">
        <ele>392</ele>
        <time>2016-10-23T08:27:20.000Z</time>
      </trkpt>
      <trkpt lat="47.59778" lon="6.77964">
        <ele>392</ele>
        <time>2016-10-23T08:27:21.000Z</time>
      </trkpt>
      <trkpt lat="47.59781" lon="6.77961">
        <ele>392</ele>
        <time>2016-10-23T08:27:22.000Z</time>
      </trkpt>
      <trkpt lat="47.59783" lon="6.77958">
        <ele>392</ele>
        <time>2016-10-23T08:27:23.000Z</time>
      </trkpt>
      <trkpt lat="47.59784" lon="6.77954">
        <ele>392</ele>
        <time>2016-10-23T08:27:24.000Z</time>
      </trkpt>
      <trkpt lat="47.59786" lon="6.77951">
        <ele>392</ele>
        <time>2016-10-23T08:27:25.000Z</time>
      </trkpt>
      <trkpt lat="47.59787" lon="6.77947">
        <ele>393</ele>
        <time>2016-10-23T08:27:26.000Z</time>
      </trkpt>
      <trkpt lat="47.59788" lon="6.77943">
        <ele>393</ele>
        <time>2016-10-23T08:27:27.000Z</time>
      </trkpt>
      <trkpt lat="47.59789" lon="6.77939">
        <ele>393</ele>
        <time>2016-10-23T08:27:28.000Z</time>
      </trkpt>
      <trkpt lat="47.59789" lon="6.77934">
        <ele>393</ele>
        <time>2016-10-23T08:27:29.000Z</time>
      </trkpt>
      <trkpt lat="47.59789" lon="6.7793">
        <ele>393</ele>
        <time>2016-10-23T08:27:30.000Z</time>
      </trkpt>
      <trkpt lat="47.59789" lon="6.77924">
        <ele>394</ele>
        <time>2016-10-23T08:27:31.000Z</time>
      </trkpt>
      <trkpt lat="47.59788" lon="6.7792">
        <ele>394</ele>
        <time>2016-10-23T08:27:32.000Z</time>
      </trkpt>
      <trkpt lat="47.59788" lon="6.77915">
        <ele>399</ele>
        <time>2016-10-23T08:27:33.000Z</time>
      </trkpt>
      <trkpt lat="47.59788" lon="6.77911">
        <ele>399</ele>
        <time>2016-10-23T08:27:34.000Z</time>
      </trkpt>
      <trkpt lat="47.59787" lon="6.77908">
        <ele>399</ele>
        <time>2016-10-23T08:27:35.000Z</time>
      </trkpt>
      <trkpt lat="47.59787" lon="6.77904">
        <ele>399</ele>
        <time>2016-10-23T08:27:36.000Z</time>
      </trkpt>
      <trkpt lat="47.59787" lon="6.779">
        <ele>399</ele>
        <time>2016-10-23T08:27:37.000Z</time>
      </trkpt>
      <trkpt lat="47.59786" lon="6.77895">
        <ele>399</ele>
        <time>2016-10-23T08:27:38.000Z</time>
      </trkpt>
      <trkpt lat="47.59785" lon="6.77891">
        <ele>400</ele>
        <time>2016-10-23T08:27:39.000Z</time>
      </trkpt>
      <trkpt lat="47.59784" lon="6.77887">
        <ele>400</ele>
        <time>2016-10-23T08:27:40.000Z</time>
      </trkpt>
      <trkpt lat="47.59784" lon="6.77883">
        <ele>400</ele>
        <time>2016-10-23T08:27:41.000Z</time>
      </trkpt>
      <trkpt lat="47.59783" lon="6.7788">
        <ele>400</ele>
        <time>2016-10-23T08:27:42.000Z</time>
      </trkpt>
      <trkpt lat="47.59783" lon="6.77876">
        <ele>400</ele>
        <time>2016-10-23T08:27:43.000Z</time>
      </trkpt>
      <trkpt lat="47.59783" lon="6.77872">
        <ele>400</ele>
        <time>2016-10-23T08:27:44.000Z</time>
      </trkpt>
      <trkpt lat="47.59783" lon="6.77868">
        <ele>400</ele>
        <time>2016-10-23T08:27:45.000Z</time>
      </trkpt>
      <trkpt lat="47.59783" lon="6.77864">
        <ele>401</ele>
        <time>2016-10-23T08:27:46.000Z</time>
      </trkpt>
      <trkpt lat="47.59783" lon="6.7786">
        <ele>401</ele>
        <time>2016-10-23T08:27:47.000Z</time>
      </trkpt>
      <trkpt lat="47.59783" lon="6.77857">
        <ele>401</ele>
        <time>2016-10-23T08:27:48.000Z</time>
      </trkpt>
      <trkpt lat="47.59783" lon="6.77853">
        <ele>401</ele>
        <time>2016-10-23T08:27:49.000Z</time>
      </trkpt>
      <trkpt lat="47.59784" lon="6.77849">
        <ele>401</ele>
        <time>2016-10-23T08:27:50.000Z</time>
      </trkpt>
      <trkpt lat="47.59784" lon="6.77845">
        <ele>401</ele>
        <time>2016-10-23T08:27:51.000Z</time>
      </trkpt>
      <trkpt lat="47.59784" lon="6.77841">
        <ele>401</ele>
        <time>2016-10-23T08:27:52.000Z</time>
      </trkpt>
      <trkpt lat="47.59785" lon="6.77837">
        <ele>401</ele>
        <time>2016-10-23T08:27:53.000Z</time>
      </trkpt>
      <trkpt lat="47.59786" lon="6.77834">
        <ele>401</ele>
        <time>2016-10-23T08:27:54.000Z</time>
      </trkpt>
      <trkpt lat="47.59787" lon="6.77831">
        <ele>404</ele>
        <time>2016-10-23T08:27:55.000Z</time>
      </trkpt>
      <trkpt lat="47.59789" lon="6.77828">
        <ele>404</ele>
        <time>2016-10-23T08:27:56.000Z</time>
      </trkpt>
      <trkpt lat="47.59791" lon="6.77826">
        <ele>404</ele>
        <time>2016-10-23T08:27:57.000Z</time>
      </trkpt>
      <trkpt lat="47.59794" lon="6.77824">
        <ele>404</ele>
        <time>2016-10-23T08:27:58.000Z</time>
      </trkpt>
      <trkpt lat="47.59795" lon="6.77822">
        <ele>403</ele>
        <time>2016-10-23T08:27:59.000Z</time>
      </trkpt>
      <trkpt lat="47.59797" lon="6.77818">
        <ele>403</ele>
        <time>2016-10-23T08:28:01.000Z</time>
      </trkpt>
      <trkpt lat="47.59797" lon="6.77816">
        <ele>403</ele>
        <time>2016-10-23T08:28:02.000Z</time>
      </trkpt>
      <trkpt lat="47.59799" lon="6.77811">
        <ele>403</ele>
        <time>2016-10-23T08:28:04.000Z</time>
      </trkpt>
      <trkpt lat="47.598" lon="6.77807">
        <ele>403</ele>
        <time>2016-10-23T08:28:05.000Z</time>
      </trkpt>
      <trkpt lat="47.59801" lon="6.77804">
        <ele>403</ele>
        <time>2016-10-23T08:28:06.000Z</time>
      </trkpt>
      <trkpt lat="47.59801" lon="6.778">
        <ele>404</ele>
        <time>2016-10-23T08:28:07.000Z</time>
      </trkpt>
      <trkpt lat="47.59802" lon="6.77793">
        <ele>404</ele>
        <time>2016-10-23T08:28:09.000Z</time>
      </trkpt>
      <trkpt lat="47.59802" lon="6.77791">
        <ele>404</ele>
        <time>2016-10-23T08:28:10.000Z</time>
      </trkpt>
      <trkpt lat="47.59799" lon="6.77787">
        <ele>404</ele>
        <time>2016-10-23T08:28:12.000Z</time>
      </trkpt>
      <trkpt lat="47.59797" lon="6.77786">
        <ele>405</ele>
        <time>2016-10-23T08:28:13.000Z</time>
      </trkpt>
      <trkpt lat="47.59792" lon="6.77787">
        <ele>405</ele>
        <time>2016-10-23T08:28:15.000Z</time>
      </trkpt>
      <trkpt lat="47.5979" lon="6.77789">
        <ele>405</ele>
        <time>2016-10-23T08:28:16.000Z</time>
      </trkpt>
      <trkpt lat="47.59788" lon="6.77792">
        <ele>405</ele>
        <time>2016-10-23T08:28:17.000Z</time>
      </trkpt>
      <trkpt lat="47.59786" lon="6.77794">
        <ele>405</ele>
        <time>2016-10-23T08:28:18.000Z</time>
      </trkpt>
      <trkpt lat="47.59785" lon="6.77796">
        <ele>406</ele>
        <time>2016-10-23T08:28:19.000Z</time>
      </trkpt>
      <trkpt lat="47.59784" lon="6.778">
        <ele>406</ele>
        <time>2016-10-23T08:28:20.000Z</time>
      </trkpt>
      <trkpt lat="47.59783" lon="6.77803">
        <ele>406</ele>
        <time>2016-10-23T08:28:21.000Z</time>
      </trkpt>
      <trkpt lat="47.59782" lon="6.77807">
        <ele>406</ele>
        <time>2016-10-23T08:28:22.000Z</time>
      </trkpt>
      <trkpt lat="47.59779" lon="6.77811">
        <ele>406</ele>
        <time>2016-10-23T08:28:24.000Z</time>
      </trkpt>
      <trkpt lat="47.59778" lon="6.77813">
        <ele>406</ele>
        <time>2016-10-23T08:28:25.000Z</time>
      </trkpt>
      <trkpt lat="47.59775" lon="6.77816">
        <ele>406</ele>
        <time>2016-10-23T08:28:27.000Z</time>
      </trkpt>
      <trkpt lat="47.59774" lon="6.77817">
        <ele>406</ele>
        <time>2016-10-23T08:28:28.000Z</time>
      </trkpt>
      <trkpt lat="47.59771" lon="6.77819">
        <ele>407</ele>
        <time>2016-10-23T08:28:30.000Z</time>
      </trkpt>
      <trkpt lat="47.5977" lon="6.77821">
        <ele>407</ele>
        <time>2016-10-23T08:28:31.000Z</time>
      </trkpt>
      <trkpt lat="47.59768" lon="6.77825">
        <ele>407</ele>
        <time>2016-10-23T08:28:33.000Z</time>
      </trkpt>
      <trkpt lat="47.59767" lon="6.77827">
        <ele>408</ele>
        <time>2016-10-23T08:28:34.000Z</time>
      </trkpt>
      <trkpt lat="47.59765" lon="6.77833">
        <ele>408</ele>
        <time>2016-10-23T08:28:36.000Z</time>
      </trkpt>
      <trkpt lat="47.59764" lon="6.77835">
        <ele>406</ele>
        <time>2016-10-23T08:28:37.000Z</time>
      </trkpt>
      <trkpt lat="47.59761" lon="6.7784">
        <ele>406</ele>
        <time>2016-10-23T08:28:39.000Z</time>
      </trkpt>
      <trkpt lat="47.5976" lon="6.77842">
        <ele>406</ele>
        <time>2016-10-23T08:28:40.000Z</time>
      </trkpt>
      <trkpt lat="47.59757" lon="6.77845">
        <ele>406</ele>
        <time>2016-10-23T08:28:41.999Z</time>
      </trkpt>
      <trkpt lat="47.59755" lon="6.77846">
        <ele>406</ele>
        <time>2016-10-23T08:28:43.000Z</time>
      </trkpt>
      <trkpt lat="47.59752" lon="6.7785">
        <ele>406</ele>
        <time>2016-10-23T08:28:46.000Z</time>
      </trkpt>
      <trkpt lat="47.5975" lon="6.77852">
        <ele>405</ele>
        <time>2016-10-23T08:28:47.000Z</time>
      </trkpt>
      <trkpt lat="47.59749" lon="6.77855">
        <ele>409</ele>
        <time>2016-10-23T08:28:48.000Z</time>
      </trkpt>
      <trkpt lat="47.59747" lon="6.77858">
        <ele>409</ele>
        <time>2016-10-23T08:28:49.000Z</time>
      </trkpt>
      <trkpt lat="47.59745" lon="6.7786">
        <ele>409</ele>
        <time>2016-10-23T08:28:50.000Z</time>
      </trkpt>
      <trkpt lat="47.59743" lon="6.77861">
        <ele>409</ele>
        <time>2016-10-23T08:28:51.000Z</time>
      </trkpt>
      <trkpt lat="47.59741" lon="6.77863">
        <ele>409</ele>
        <time>2016-10-23T08:28:52.000Z</time>
      </trkpt>
      <trkpt lat="47.59739" lon="6.77864">
        <ele>409</ele>
        <time>2016-10-23T08:28:53.000Z</time>
      </trkpt>
      <trkpt lat="47.59736" lon="6.77866">
        <ele>409</ele>
        <time>2016-10-23T08:28:54.000Z</time>
      </trkpt>
      <trkpt lat="47.59734" lon="6.77867">
        <ele>408</ele>
        <time>2016-10-23T08:28:55.000Z</time>
      </trkpt>
      <trkpt lat="47.59731" lon="6.77869">
        <ele>408</ele>
        <time>2016-10-23T08:28:56.000Z</time>
      </trkpt>
      <trkpt lat="47.59729" lon="6.77871">
        <ele>408</ele>
        <time>2016-10-23T08:28:57.000Z</time>
      </trkpt>
      <trkpt lat="47.59727" lon="6.77873">
        <ele>408</ele>
        <time>2016-10-23T08:28:58.000Z</time>
      </trkpt>
      <trkpt lat="47.59725" lon="6.77874">
        <ele>408</ele>
        <time>2016-10-23T08:28:59.000Z</time>
      </trkpt>
      <trkpt lat="47.59721" lon="6.77876">
        <ele>408</ele>
        <time>2016-10-23T08:29:01.000Z</time>
      </trkpt>
      <trkpt lat="47.59719" lon="6.77877">
        <ele>408</ele>
        <time>2016-10-23T08:29:01.999Z</time>
      </trkpt>
      <trkpt lat="47.59715" lon="6.77878">
        <ele>408</ele>
        <time>2016-10-23T08:29:05.000Z</time>
      </trkpt>
      <trkpt lat="47.59714" lon="6.77879">
        <ele>408</ele>
        <time>2016-10-23T08:29:05.999Z</time>
      </trkpt>
      <trkpt lat="47.59716" lon="6.77884">
        <ele>408</ele>
        <time>2016-10-23T08:29:15.999Z</time>
      </trkpt>
      <trkpt lat="47.59716" lon="6.77884">
        <ele>408</ele>
        <time>2016-10-23T08:29:17.000Z</time>
      </trkpt>
      <trkpt lat="47.59713" lon="6.77887">
        <ele>408</ele>
        <time>2016-10-23T08:33:54.000Z</time>
      </trkpt>
      <trkpt lat="47.59712" lon="6.77888">
        <ele>408</ele>
        <time>2016-10-23T08:33:55.000Z</time>
      </trkpt>
      <trkpt lat="47.5971" lon="6.77892">
        <ele>408</ele>
        <time>2016-10-23T08:33:57.000Z</time>
      </trkpt>
      <trkpt lat="47.59708" lon="6.77894">
        <ele>407</ele>
        <time>2016-10-23T08:33:58.000Z</time>
      </trkpt>
      <trkpt lat="47.59703" lon="6.77895">
        <ele>407</ele>
        <time>2016-10-23T08:34:00.000Z</time>
      </trkpt>
      <trkpt lat="47.59701" lon="6.77894">
        <ele>407</ele>
        <time>2016-10-23T08:34:01.000Z</time>
      </trkpt>
      <trkpt lat="47.59698" lon="6.77891">
        <ele>407</ele>
        <time>2016-10-23T08:34:03.000Z</time>
      </trkpt>
      <trkpt lat="47.59697" lon="6.77889">
        <ele>407</ele>
        <time>2016-10-23T08:34:04.000Z</time>
      </trkpt>
      <trkpt lat="47.59693" lon="6.77888">
        <ele>407</ele>
        <time>2016-10-23T08:34:07.999Z</time>
      </trkpt>
      <trkpt lat="47.59691" lon="6.77886">
        <ele>407</ele>
        <time>2016-10-23T08:34:09.000Z</time>
      </trkpt>
      <trkpt lat="47.59688" lon="6.77882">
        <ele>408</ele>
        <time>2016-10-23T08:34:12.000Z</time>
      </trkpt>
      <trkpt lat="47.59687" lon="6.7788">
        <ele>408</ele>
        <time>2016-10-23T08:34:13.000Z</time>
      </trkpt>
      <trkpt lat="47.59684" lon="6.77875">
        <ele>408</ele>
        <time>2016-10-23T08:34:15.000Z</time>
      </trkpt>
      <trkpt lat="47.59682" lon="6.77872">
        <ele>408</ele>
        <time>2016-10-23T08:34:16.000Z</time>
      </trkpt>
      <trkpt lat="47.59679" lon="6.77869">
        <ele>408</ele>
        <time>2016-10-23T08:34:17.000Z</time>
      </trkpt>
      <trkpt lat="47.59677" lon="6.77866">
        <ele>408</ele>
        <time>2016-10-23T08:34:18.000Z</time>
      </trkpt>
      <trkpt lat="47.59675" lon="6.77863">
        <ele>408</ele>
        <time>2016-10-23T08:34:19.000Z</time>
      </trkpt>
      <trkpt lat="47.59674" lon="6.7786">
        <ele>408</ele>
        <time>2016-10-23T08:34:20.000Z</time>
      </trkpt>
      <trkpt lat="47.59672" lon="6.77858">
        <ele>409</ele>
        <time>2016-10-23T08:34:21.000Z</time>
      </trkpt>
      <trkpt lat="47.5967" lon="6.77856">
        <ele>409</ele>
        <time>2016-10-23T08:34:22.000Z</time>
      </trkpt>
      <trkpt lat="47.59666" lon="6.77851">
        <ele>408</ele>
        <time>2016-10-23T08:34:23.000Z</time>
      </trkpt>
      <trkpt lat="47.59662" lon="6.77847">
        <ele>408</ele>
        <time>2016-10-23T08:34:24.000Z</time>
      </trkpt>
      <trkpt lat="47.59658" lon="6.77843">
        <ele>408</ele>
        <time>2016-10-23T08:34:25.000Z</time>
      </trkpt>
      <trkpt lat="47.59655" lon="6.7784">
        <ele>408</ele>
        <time>2016-10-23T08:34:26.002Z</time>
      </trkpt>
      <trkpt lat="47.59651" lon="6.77838">
        <ele>408</ele>
        <time>2016-10-23T08:34:27.000Z</time>
      </trkpt>
      <trkpt lat="47.59648" lon="6.77834">
        <ele>408</ele>
        <time>2016-10-23T08:34:28.000Z</time>
      </trkpt>
      <trkpt lat="47.59645" lon="6.77829">
        <ele>411</ele>
        <time>2016-10-23T08:34:29.000Z</time>
      </trkpt>
      <trkpt lat="47.59642" lon="6.77825">
        <ele>411</ele>
        <time>2016-10-23T08:34:30.000Z</time>
      </trkpt>
      <trkpt lat="47.59642" lon="6.7782">
        <ele>411</ele>
        <time>2016-10-23T08:34:31.000Z</time>
      </trkpt>
      <trkpt lat="47.59643" lon="6.77817">
        <ele>411</ele>
        <time>2016-10-23T08:34:32.000Z</time>
      </trkpt>
      <trkpt lat="47.59644" lon="6.77814">
        <ele>411</ele>
        <time>2016-10-23T08:34:33.000Z</time>
      </trkpt>
      <trkpt lat="47.59645" lon="6.7781">
        <ele>412</ele>
        <time>2016-10-23T08:34:35.000Z</time>
      </trkpt>
      <trkpt lat="47.59646" lon="6.77808">
        <ele>412</ele>
        <time>2016-10-23T08:34:35.999Z</time>
      </trkpt>
      <trkpt lat="47.59648" lon="6.77803">
        <ele>412</ele>
        <time>2016-10-23T08:34:40.000Z</time>
      </trkpt>
      <trkpt lat="47.59649" lon="6.77801">
        <ele>412</ele>
        <time>2016-10-23T08:34:41.001Z</time>
      </trkpt>
      <trkpt lat="47.59653" lon="6.77803">
        <ele>412</ele>
        <time>2016-10-23T08:34:43.000Z</time>
      </trkpt>
      <trkpt lat="47.59654" lon="6.77803">
        <ele>412</ele>
        <time>2016-10-23T08:34:44.000Z</time>
      </trkpt>
      <trkpt lat="47.59657" lon="6.77803">
        <ele>412</ele>
        <time>2016-10-23T08:34:46.000Z</time>
      </trkpt>
      <trkpt lat="47.59659" lon="6.77804">
        <ele>412</ele>
        <time>2016-10-23T08:34:47.000Z</time>
      </trkpt>
      <trkpt lat="47.59662" lon="6.77808">
        <ele>412</ele>
        <time>2016-10-23T08:34:50.000Z</time>
      </trkpt>
      <trkpt lat="47.59662" lon="6.77809">
        <ele>412</ele>
        <time>2016-10-23T08:34:51.000Z</time>
      </trkpt>
      <trkpt lat="47.59661" lon="6.77815">
        <ele>411</ele>
        <time>2016-10-23T08:35:01.000Z</time>
      </trkpt>
      <trkpt lat="47.59662" lon="6.77816">
        <ele>411</ele>
        <time>2016-10-23T08:35:02.000Z</time>
      </trkpt>
      <trkpt lat="47.59664" lon="6.77821">
        <ele>411</ele>
        <time>2016-10-23T08:35:22.000Z</time>
      </trkpt>
      <trkpt lat="47.59665" lon="6.77821">
        <ele>411</ele>
        <time>2016-10-23T08:35:23.000Z</time>
      </trkpt>
      <trkpt lat="47.59668" lon="6.77825">
        <ele>411</ele>
        <time>2016-10-23T08:35:26.000Z</time>
      </trkpt>
      <trkpt lat="47.5967" lon="6.77827">
        <ele>411</ele>
        <time>2016-10-23T08:35:27.000Z</time>
      </trkpt>
      <trkpt lat="47.59673" lon="6.7783">
        <ele>411</ele>
        <time>2016-10-23T08:35:29.000Z</time>
      </trkpt>
      <trkpt lat="47.59675" lon="6.77832">
        <ele>411</ele>
        <time>2016-10-23T08:35:30.000Z</time>
      </trkpt>
      <trkpt lat="47.59677" lon="6.77834">
        <ele>409</ele>
        <time>2016-10-23T08:35:31.000Z</time>
      </trkpt>
      <trkpt lat="47.59679" lon="6.77836">
        <ele>409</ele>
        <time>2016-10-23T08:35:32.001Z</time>
      </trkpt>
      <trkpt lat="47.59681" lon="6.77838">
        <ele>409</ele>
        <time>2016-10-23T08:35:33.000Z</time>
      </trkpt>
      <trkpt lat="47.59683" lon="6.7784">
        <ele>409</ele>
        <time>2016-10-23T08:35:34.000Z</time>
      </trkpt>
      <trkpt lat="47.59685" lon="6.77842">
        <ele>409</ele>
        <time>2016-10-23T08:35:35.000Z</time>
      </trkpt>
      <trkpt lat="47.59686" lon="6.77846">
        <ele>409</ele>
        <time>2016-10-23T08:35:36.000Z</time>
      </trkpt>
      <trkpt lat="47.59688" lon="6.77848">
        <ele>409</ele>
        <time>2016-10-23T08:35:37.000Z</time>
      </trkpt>
      <trkpt lat="47.5969" lon="6.77851">
        <ele>409</ele>
        <time>2016-10-23T08:35:38.000Z</time>
      </trkpt>
      <trkpt lat="47.59693" lon="6.77854">
        <ele>409</ele>
        <time>2016-10-23T08:35:40.000Z</time>
      </trkpt>
      <trkpt lat="47.59695" lon="6.77855">
        <ele>409</ele>
        <time>2016-10-23T08:35:41.000Z</time>
      </trkpt>
      <trkpt lat="47.59699" lon="6.77855">
        <ele>409</ele>
        <time>2016-10-23T08:35:43.000Z</time>
      </trkpt>
      <trkpt lat="47.59701" lon="6.77855">
        <ele>409</ele>
        <time>2016-10-23T08:35:44.000Z</time>
      </trkpt>
      <trkpt lat="47.59704" lon="6.77853">
        <ele>409</ele>
        <time>2016-10-23T08:35:46.000Z</time>
      </trkpt>
      <trkpt lat="47.59706" lon="6.77852">
        <ele>409</ele>
        <time>2016-10-23T08:35:47.000Z</time>
      </trkpt>
      <trkpt lat="47.59708" lon="6.77847">
        <ele>409</ele>
        <time>2016-10-23T08:35:49.000Z</time>
      </trkpt>
      <trkpt lat="47.59709" lon="6.77844">
        <ele>409</ele>
        <time>2016-10-23T08:35:50.000Z</time>
      </trkpt>
      <trkpt lat="47.5971" lon="6.77841">
        <ele>409</ele>
        <time>2016-10-23T08:35:51.001Z</time>
      </trkpt>
      <trkpt lat="47.5971" lon="6.77837">
        <ele>409</ele>
        <time>2016-10-23T08:35:52.000Z</time>
      </trkpt>
      <trkpt lat="47.59709" lon="6.77833">
        <ele>413</ele>
        <time>2016-10-23T08:35:53.000Z</time>
      </trkpt>
      <trkpt lat="47.59709" lon="6.7783">
        <ele>413</ele>
        <time>2016-10-23T08:35:54.000Z</time>
      </trkpt>
      <trkpt lat="47.59708" lon="6.77827">
        <ele>413</ele>
        <time>2016-10-23T08:35:55.000Z</time>
      </trkpt>
      <trkpt lat="47.59707" lon="6.77823">
        <ele>413</ele>
        <time>2016-10-23T08:35:56.000Z</time>
      </trkpt>
      <trkpt lat="47.59706" lon="6.7782">
        <ele>413</ele>
        <time>2016-10-23T08:35:57.000Z</time>
      </trkpt>
      <trkpt lat="47.59705" lon="6.77818">
        <ele>413</ele>
        <time>2016-10-23T08:35:58.000Z</time>
      </trkpt>
      <trkpt lat="47.59703" lon="6.77812">
        <ele>413</ele>
        <time>2016-10-23T08:36:00.000Z</time>
      </trkpt>
      <trkpt lat="47.59703" lon="6.77809">
        <ele>413</ele>
        <time>2016-10-23T08:36:01.000Z</time>
      </trkpt>
      <trkpt lat="47.59702" lon="6.77804">
        <ele>414</ele>
        <time>2016-10-23T08:36:03.000Z</time>
      </trkpt>
      <trkpt lat="47.59703" lon="6.77802">
        <ele>414</ele>
        <time>2016-10-23T08:36:04.000Z</time>
      </trkpt>
      <trkpt lat="47.59702" lon="6.77795">
        <ele>414</ele>
        <time>2016-10-23T08:36:07.000Z</time>
      </trkpt>
      <trkpt lat="47.59702" lon="6.77793">
        <ele>414</ele>
        <time>2016-10-23T08:36:08.000Z</time>
      </trkpt>
      <trkpt lat="47.59702" lon="6.77789">
        <ele>414</ele>
        <time>2016-10-23T08:36:10.000Z</time>
      </trkpt>
      <trkpt lat="47.59703" lon="6.77787">
        <ele>415</ele>
        <time>2016-10-23T08:36:11.000Z</time>
      </trkpt>
      <trkpt lat="47.59703" lon="6.77781">
        <ele>415</ele>
        <time>2016-10-23T08:36:13.000Z</time>
      </trkpt>
      <trkpt lat="47.59703" lon="6.77779">
        <ele>415</ele>
        <time>2016-10-23T08:36:13.999Z</time>
      </trkpt>
      <trkpt lat="47.59705" lon="6.77773">
        <ele>415</ele>
        <time>2016-10-23T08:36:16.000Z</time>
      </trkpt>
      <trkpt lat="47.59706" lon="6.77771">
        <ele>415</ele>
        <time>2016-10-23T08:36:17.001Z</time>
      </trkpt>
      <trkpt lat="47.59709" lon="6.77766">
        <ele>415</ele>
        <time>2016-10-23T08:36:20.000Z</time>
      </trkpt>
      <trkpt lat="47.59709" lon="6.77764">
        <ele>415</ele>
        <time>2016-10-23T08:36:21.000Z</time>
      </trkpt>
      <trkpt lat="47.59707" lon="6.7776">
        <ele>416</ele>
        <time>2016-10-23T08:36:23.000Z</time>
      </trkpt>
      <trkpt lat="47.59706" lon="6.77757">
        <ele>416</ele>
        <time>2016-10-23T08:36:24.000Z</time>
      </trkpt>
      <trkpt lat="47.59705" lon="6.77752">
        <ele>416</ele>
        <time>2016-10-23T08:36:26.000Z</time>
      </trkpt>
      <trkpt lat="47.59704" lon="6.77749">
        <ele>420</ele>
        <time>2016-10-23T08:36:27.000Z</time>
      </trkpt>
      <trkpt lat="47.59703" lon="6.77744">
        <ele>420</ele>
        <time>2016-10-23T08:36:29.000Z</time>
      </trkpt>
      <trkpt lat="47.59702" lon="6.77742">
        <ele>420</ele>
        <time>2016-10-23T08:36:30.000Z</time>
      </trkpt>
      <trkpt lat="47.59701" lon="6.77737">
        <ele>420</ele>
        <time>2016-10-23T08:36:32.000Z</time>
      </trkpt>
      <trkpt lat="47.597" lon="6.77734">
        <ele>420</ele>
        <time>2016-10-23T08:36:33.000Z</time>
      </trkpt>
      <trkpt lat="47.597" lon="6.7773">
        <ele>420</ele>
        <time>2016-10-23T08:36:35.000Z</time>
      </trkpt>
      <trkpt lat="47.597" lon="6.77728">
        <ele>420</ele>
        <time>2016-10-23T08:36:36.000Z</time>
      </trkpt>
      <trkpt lat="47.59699" lon="6.77723">
        <ele>420</ele>
        <time>2016-10-23T08:36:38.000Z</time>
      </trkpt>
      <trkpt lat="47.59699" lon="6.77721">
        <ele>420</ele>
        <time>2016-10-23T08:36:39.000Z</time>
      </trkpt>
      <trkpt lat="47.59699" lon="6.77715">
        <ele>421</ele>
        <time>2016-10-23T08:36:42.002Z</time>
      </trkpt>
      <trkpt lat="47.59699" lon="6.77712">
        <ele>421</ele>
        <time>2016-10-23T08:36:43.000Z</time>
      </trkpt>
      <trkpt lat="47.59697" lon="6.77706">
        <ele>421</ele>
        <time>2016-10-23T08:36:46.000Z</time>
      </trkpt>
      <trkpt lat="47.59697" lon="6.77704">
        <ele>421</ele>
        <time>2016-10-23T08:36:47.000Z</time>
      </trkpt>
      <trkpt lat="47.59696" lon="6.77699">
        <ele>421</ele>
        <time>2016-10-23T08:36:49.000Z</time>
      </trkpt>
      <trkpt lat="47.59695" lon="6.77697">
        <ele>422</ele>
        <time>2016-10-23T08:36:50.000Z</time>
      </trkpt>
      <trkpt lat="47.59695" lon="6.77692">
        <ele>422</ele>
        <time>2016-10-23T08:36:52.000Z</time>
      </trkpt>
      <trkpt lat="47.59695" lon="6.7769">
        <ele>422</ele>
        <time>2016-10-23T08:36:53.000Z</time>
      </trkpt>
      <trkpt lat="47.59695" lon="6.77684">
        <ele>422</ele>
        <time>2016-10-23T08:36:56.000Z</time>
      </trkpt>
      <trkpt lat="47.59695" lon="6.77682">
        <ele>422</ele>
        <time>2016-10-23T08:36:57.000Z</time>
      </trkpt>
      <trkpt lat="47.59695" lon="6.77677">
        <ele>422</ele>
        <time>2016-10-23T08:36:59.000Z</time>
      </trkpt>
      <trkpt lat="47.59695" lon="6.77674">
        <ele>422</ele>
        <time>2016-10-23T08:37:00.000Z</time>
      </trkpt>
      <trkpt lat="47.59694" lon="6.77668">
        <ele>423</ele>
        <time>2016-10-23T08:37:03.000Z</time>
      </trkpt>
      <trkpt lat="47.59694" lon="6.77666">
        <ele>425</ele>
        <time>2016-10-23T08:37:04.000Z</time>
      </trkpt>
      <trkpt lat="47.59693" lon="6.7766">
        <ele>426</ele>
        <time>2016-10-23T08:37:07.000Z</time>
      </trkpt>
      <trkpt lat="47.59693" lon="6.77658">
        <ele>426</ele>
        <time>2016-10-23T08:37:08.000Z</time>
      </trkpt>
      <trkpt lat="47.59691" lon="6.77653">
        <ele>426</ele>
        <time>2016-10-23T08:37:10.000Z</time>
      </trkpt>
      <trkpt lat="47.5969" lon="6.77651">
        <ele>426</ele>
        <time>2016-10-23T08:37:11.000Z</time>
      </trkpt>
      <trkpt lat="47.59688" lon="6.77647">
        <ele>426</ele>
        <time>2016-10-23T08:37:13.000Z</time>
      </trkpt>
      <trkpt lat="47.59687" lon="6.77645">
        <ele>426</ele>
        <time>2016-10-23T08:37:14.000Z</time>
      </trkpt>
      <trkpt lat="47.59685" lon="6.77641">
        <ele>426</ele>
        <time>2016-10-23T08:37:16.000Z</time>
      </trkpt>
      <trkpt lat="47.59684" lon="6.77638">
        <ele>426</ele>
        <time>2016-10-23T08:37:17.000Z</time>
      </trkpt>
      <trkpt lat="47.59683" lon="6.77634">
        <ele>426</ele>
        <time>2016-10-23T08:37:19.000Z</time>
      </trkpt>
      <trkpt lat="47.59682" lon="6.77632">
        <ele>426</ele>
        <time>2016-10-23T08:37:20.000Z</time>
      </trkpt>
      <trkpt lat="47.59681" lon="6.77628">
        <ele>427</ele>
        <time>2016-10-23T08:37:22.000Z</time>
      </trkpt>
      <trkpt lat="47.59679" lon="6.77626">
        <ele>427</ele>
        <time>2016-10-23T08:37:23.000Z</time>
      </trkpt>
      <trkpt lat="47.59678" lon="6.77621">
        <ele>427</ele>
        <time>2016-10-23T08:37:26.000Z</time>
      </trkpt>
      <trkpt lat="47.59678" lon="6.77619">
        <ele>427</ele>
        <time>2016-10-23T08:37:27.000Z</time>
      </trkpt>
      <trkpt lat="47.59679" lon="6.77613">
        <ele>427</ele>
        <time>2016-10-23T08:37:30.000Z</time>
      </trkpt>
      <trkpt lat="47.59678" lon="6.77612">
        <ele>428</ele>
        <time>2016-10-23T08:37:31.000Z</time>
      </trkpt>
      <trkpt lat="47.59678" lon="6.77606">
        <ele>428</ele>
        <time>2016-10-23T08:37:34.000Z</time>
      </trkpt>
      <trkpt lat="47.59678" lon="6.77604">
        <ele>428</ele>
        <time>2016-10-23T08:37:35.000Z</time>
      </trkpt>
      <trkpt lat="47.59679" lon="6.77598">
        <ele>429</ele>
        <time>2016-10-23T08:37:38.000Z</time>
      </trkpt>
      <trkpt lat="47.59679" lon="6.77596">
        <ele>429</ele>
        <time>2016-10-23T08:37:39.000Z</time>
      </trkpt>
      <trkpt lat="47.59678" lon="6.7759">
        <ele>429</ele>
        <time>2016-10-23T08:37:42.000Z</time>
      </trkpt>
      <trkpt lat="47.59677" lon="6.77588">
        <ele>430</ele>
        <time>2016-10-23T08:37:43.000Z</time>
      </trkpt>
      <trkpt lat="47.59676" lon="6.77583">
        <ele>430</ele>
        <time>2016-10-23T08:37:46.000Z</time>
      </trkpt>
      <trkpt lat="47.59675" lon="6.77582">
        <ele>433</ele>
        <time>2016-10-23T08:37:47.000Z</time>
      </trkpt>
      <trkpt lat="47.59673" lon="6.77576">
        <ele>433</ele>
        <time>2016-10-23T08:37:59.000Z</time>
      </trkpt>
      <trkpt lat="47.59673" lon="6.77576">
        <ele>433</ele>
        <time>2016-10-23T08:38:00.000Z</time>
      </trkpt>
      <trkpt lat="47.5967" lon="6.77572">
        <ele>433</ele>
        <time>2016-10-23T08:39:17.000Z</time>
      </trkpt>
      <trkpt lat="47.59669" lon="6.77572">
        <ele>433</ele>
        <time>2016-10-23T08:39:18.000Z</time>
      </trkpt>
      <trkpt lat="47.59668" lon="6.77566">
        <ele>434</ele>
        <time>2016-10-23T08:40:16.000Z</time>
      </trkpt>
      <trkpt lat="47.59669" lon="6.77564">
        <ele>434</ele>
        <time>2016-10-23T08:40:17.000Z</time>
      </trkpt>
      <trkpt lat="47.59669" lon="6.77559">
        <ele>434</ele>
        <time>2016-10-23T08:40:19.001Z</time>
      </trkpt>
      <trkpt lat="47.5967" lon="6.77556">
        <ele>434</ele>
        <time>2016-10-23T08:40:20.000Z</time>
      </trkpt>
      <trkpt lat="47.59672" lon="6.77551">
        <ele>435</ele>
        <time>2016-10-23T08:40:22.000Z</time>
      </trkpt>
      <trkpt lat="47.59672" lon="6.77549">
        <ele>435</ele>
        <time>2016-10-23T08:40:23.000Z</time>
      </trkpt>
      <trkpt lat="47.59671" lon="6.77543">
        <ele>436</ele>
        <time>2016-10-23T08:40:26.000Z</time>
      </trkpt>
      <trkpt lat="47.59671" lon="6.77541">
        <ele>436</ele>
        <time>2016-10-23T08:40:27.000Z</time>
      </trkpt>
      <trkpt lat="47.5967" lon="6.77535">
        <ele>437</ele>
        <time>2016-10-23T08:40:30.000Z</time>
      </trkpt>
      <trkpt lat="47.59671" lon="6.77532">
        <ele>437</ele>
        <time>2016-10-23T08:40:31.000Z</time>
      </trkpt>
      <trkpt lat="47.59671" lon="6.77528">
        <ele>438</ele>
        <time>2016-10-23T08:40:33.000Z</time>
      </trkpt>
      <trkpt lat="47.5967" lon="6.77525">
        <ele>439</ele>
        <time>2016-10-23T08:40:34.000Z</time>
      </trkpt>
      <trkpt lat="47.59669" lon="6.77519">
        <ele>440</ele>
        <time>2016-10-23T08:40:36.000Z</time>
      </trkpt>
      <trkpt lat="47.59668" lon="6.77516">
        <ele>440</ele>
        <time>2016-10-23T08:40:37.000Z</time>
      </trkpt>
      <trkpt lat="47.59667" lon="6.77511">
        <ele>442</ele>
        <time>2016-10-23T08:40:39.000Z</time>
      </trkpt>
      <trkpt lat="47.59666" lon="6.77509">
        <ele>444</ele>
        <time>2016-10-23T08:40:40.000Z</time>
      </trkpt>
      <trkpt lat="47.59665" lon="6.77505">
        <ele>445</ele>
        <time>2016-10-23T08:40:42.000Z</time>
      </trkpt>
      <trkpt lat="47.59664" lon="6.77502">
        <ele>445</ele>
        <time>2016-10-23T08:40:43.000Z</time>
      </trkpt>
      <trkpt lat="47.59663" lon="6.77497">
        <ele>447</ele>
        <time>2016-10-23T08:40:45.000Z</time>
      </trkpt>
      <trkpt lat="47.59663" lon="6.77495">
        <ele>447</ele>
        <time>2016-10-23T08:40:46.000Z</time>
      </trkpt>
      <trkpt lat="47.59661" lon="6.7749">
        <ele>447</ele>
        <time>2016-10-23T08:40:48.000Z</time>
      </trkpt>
      <trkpt lat="47.5966" lon="6.77488">
        <ele>448</ele>
        <time>2016-10-23T08:40:49.000Z</time>
      </trkpt>
      <trkpt lat="47.59659" lon="6.77484">
        <ele>448</ele>
        <time>2016-10-23T08:40:51.000Z</time>
      </trkpt>
      <trkpt lat="47.59659" lon="6.77481">
        <ele>448</ele>
        <time>2016-10-23T08:40:52.000Z</time>
      </trkpt>
      <trkpt lat="47.59658" lon="6.77475">
        <ele>449</ele>
        <time>2016-10-23T08:40:54.000Z</time>
      </trkpt>
      <trkpt lat="47.59657" lon="6.77472">
        <ele>449</ele>
        <time>2016-10-23T08:40:55.000Z</time>
      </trkpt>
      <trkpt lat="47.59655" lon="6.77467">
        <ele>449</ele>
        <time>2016-10-23T08:40:56.998Z</time>
      </trkpt>
      <trkpt lat="47.59654" lon="6.77464">
        <ele>449</ele>
        <time>2016-10-23T08:40:58.000Z</time>
      </trkpt>
      <trkpt lat="47.59653" lon="6.77458">
        <ele>450</ele>
        <time>2016-10-23T08:41:00.000Z</time>
      </trkpt>
      <trkpt lat="47.59653" lon="6.77455">
        <ele>450</ele>
        <time>2016-10-23T08:41:01.000Z</time>
      </trkpt>
      <trkpt lat="47.59652" lon="6.77449">
        <ele>450</ele>
        <time>2016-10-23T08:41:03.000Z</time>
      </trkpt>
      <trkpt lat="47.59652" lon="6.77446">
        <ele>450</ele>
        <time>2016-10-23T08:41:04.000Z</time>
      </trkpt>
      <trkpt lat="47.59651" lon="6.7744">
        <ele>450</ele>
        <time>2016-10-23T08:41:06.000Z</time>
      </trkpt>
      <trkpt lat="47.5965" lon="6.77438">
        <ele>450</ele>
        <time>2016-10-23T08:41:07.000Z</time>
      </trkpt>
      <trkpt lat="47.5965" lon="6.77432">
        <ele>450</ele>
        <time>2016-10-23T08:41:09.000Z</time>
      </trkpt>
      <trkpt lat="47.59649" lon="6.77429">
        <ele>450</ele>
        <time>2016-10-23T08:41:10.000Z</time>
      </trkpt>
      <trkpt lat="47.59648" lon="6.77423">
        <ele>451</ele>
        <time>2016-10-23T08:41:12.000Z</time>
      </trkpt>
      <trkpt lat="47.59648" lon="6.77419">
        <ele>451</ele>
        <time>2016-10-23T08:41:13.000Z</time>
      </trkpt>
      <trkpt lat="47.59647" lon="6.77413">
        <ele>453</ele>
        <time>2016-10-23T08:41:15.000Z</time>
      </trkpt>
      <trkpt lat="47.59647" lon="6.7741">
        <ele>453</ele>
        <time>2016-10-23T08:41:16.000Z</time>
      </trkpt>
      <trkpt lat="47.59647" lon="6.77404">
        <ele>454</ele>
        <time>2016-10-23T08:41:18.000Z</time>
      </trkpt>
      <trkpt lat="47.59647" lon="6.77402">
        <ele>454</ele>
        <time>2016-10-23T08:41:19.000Z</time>
      </trkpt>
      <trkpt lat="47.59646" lon="6.77397">
        <ele>454</ele>
        <time>2016-10-23T08:41:21.000Z</time>
      </trkpt>
      <trkpt lat="47.59646" lon="6.77394">
        <ele>454</ele>
        <time>2016-10-23T08:41:22.000Z</time>
      </trkpt>
      <trkpt lat="47.59646" lon="6.77391">
        <ele>454</ele>
        <time>2016-10-23T08:41:23.000Z</time>
      </trkpt>
      <trkpt lat="47.59645" lon="6.77387">
        <ele>455</ele>
        <time>2016-10-23T08:41:24.000Z</time>
      </trkpt>
      <trkpt lat="47.59644" lon="6.77381">
        <ele>455</ele>
        <time>2016-10-23T08:41:26.000Z</time>
      </trkpt>
      <trkpt lat="47.59644" lon="6.77378">
        <ele>455</ele>
        <time>2016-10-23T08:41:27.000Z</time>
      </trkpt>
      <trkpt lat="47.59645" lon="6.77373">
        <ele>455</ele>
        <time>2016-10-23T08:41:29.000Z</time>
      </trkpt>
      <trkpt lat="47.59645" lon="6.7737">
        <ele>455</ele>
        <time>2016-10-23T08:41:30.000Z</time>
      </trkpt>
      <trkpt lat="47.59645" lon="6.77366">
        <ele>456</ele>
        <time>2016-10-23T08:41:31.000Z</time>
      </trkpt>
      <trkpt lat="47.59645" lon="6.77363">
        <ele>456</ele>
        <time>2016-10-23T08:41:32.000Z</time>
      </trkpt>
      <trkpt lat="47.59644" lon="6.77359">
        <ele>456</ele>
        <time>2016-10-23T08:41:33.000Z</time>
      </trkpt>
      <trkpt lat="47.59644" lon="6.77356">
        <ele>456</ele>
        <time>2016-10-23T08:41:34.000Z</time>
      </trkpt>
      <trkpt lat="47.59644" lon="6.77352">
        <ele>456</ele>
        <time>2016-10-23T08:41:35.000Z</time>
      </trkpt>
      <trkpt lat="47.59643" lon="6.77349">
        <ele>456</ele>
        <time>2016-10-23T08:41:36.000Z</time>
      </trkpt>
      <trkpt lat="47.59643" lon="6.77342">
        <ele>456</ele>
        <time>2016-10-23T08:41:38.000Z</time>
      </trkpt>
      <trkpt lat="47.59643" lon="6.77339">
        <ele>456</ele>
        <time>2016-10-23T08:41:39.000Z</time>
      </trkpt>
      <trkpt lat="47.59643" lon="6.77334">
        <ele>456</ele>
        <time>2016-10-23T08:41:41.000Z</time>
      </trkpt>
      <trkpt lat="47.59643" lon="6.77332">
        <ele>460</ele>
        <time>2016-10-23T08:41:42.000Z</time>
      </trkpt>
      <trkpt lat="47.59644" lon="6.77326">
        <ele>460</ele>
        <time>2016-10-23T08:41:44.000Z</time>
      </trkpt>
      <trkpt lat="47.59644" lon="6.77324">
        <ele>460</ele>
        <time>2016-10-23T08:41:45.000Z</time>
      </trkpt>
      <trkpt lat="47.59645" lon="6.77318">
        <ele>460</ele>
        <time>2016-10-23T08:41:47.000Z</time>
      </trkpt>
      <trkpt lat="47.59645" lon="6.77315">
        <ele>461</ele>
        <time>2016-10-23T08:41:48.000Z</time>
      </trkpt>
      <trkpt lat="47.59645" lon="6.77309">
        <ele>461</ele>
        <time>2016-10-23T08:41:50.000Z</time>
      </trkpt>
      <trkpt lat="47.59646" lon="6.77306">
        <ele>461</ele>
        <time>2016-10-23T08:41:51.000Z</time>
      </trkpt>
      <trkpt lat="47.59645" lon="6.77301">
        <ele>461</ele>
        <time>2016-10-23T08:41:53.000Z</time>
      </trkpt>
      <trkpt lat="47.59645" lon="6.77298">
        <ele>462</ele>
        <time>2016-10-23T08:41:54.000Z</time>
      </trkpt>
      <trkpt lat="47.59645" lon="6.77292">
        <ele>462</ele>
        <time>2016-10-23T08:41:57.000Z</time>
      </trkpt>
      <trkpt lat="47.59646" lon="6.77291">
        <ele>462</ele>
        <time>2016-10-23T08:41:58.000Z</time>
      </trkpt>
      <trkpt lat="47.59647" lon="6.77286">
        <ele>462</ele>
        <time>2016-10-23T08:42:00.000Z</time>
      </trkpt>
      <trkpt lat="47.59647" lon="6.77283">
        <ele>462</ele>
        <time>2016-10-23T08:42:01.000Z</time>
      </trkpt>
      <trkpt lat="47.59648" lon="6.77277">
        <ele>463</ele>
        <time>2016-10-23T08:42:03.000Z</time>
      </trkpt>
      <trkpt lat="47.59648" lon="6.77274">
        <ele>463</ele>
        <time>2016-10-23T08:42:04.000Z</time>
      </trkpt>
      <trkpt lat="47.59649" lon="6.77268">
        <ele>463</ele>
        <time>2016-10-23T08:42:06.000Z</time>
      </trkpt>
      <trkpt lat="47.5965" lon="6.77265">
        <ele>463</ele>
        <time>2016-10-23T08:42:07.000Z</time>
      </trkpt>
      <trkpt lat="47.59649" lon="6.77259">
        <ele>464</ele>
        <time>2016-10-23T08:42:09.000Z</time>
      </trkpt>
      <trkpt lat="47.59648" lon="6.77256">
        <ele>464</ele>
        <time>2016-10-23T08:42:10.000Z</time>
      </trkpt>
      <trkpt lat="47.59649" lon="6.7725">
        <ele>464</ele>
        <time>2016-10-23T08:42:12.000Z</time>
      </trkpt>
      <trkpt lat="47.59649" lon="6.77247">
        <ele>467</ele>
        <time>2016-10-23T08:42:13.000Z</time>
      </trkpt>
      <trkpt lat="47.5965" lon="6.77241">
        <ele>467</ele>
        <time>2016-10-23T08:42:15.000Z</time>
      </trkpt>
      <trkpt lat="47.5965" lon="6.77239">
        <ele>467</ele>
        <time>2016-10-23T08:42:16.000Z</time>
      </trkpt>
      <trkpt lat="47.59652" lon="6.77234">
        <ele>467</ele>
        <time>2016-10-23T08:42:18.000Z</time>
      </trkpt>
      <trkpt lat="47.59652" lon="6.77231">
        <ele>467</ele>
        <time>2016-10-23T08:42:19.000Z</time>
      </trkpt>
      <trkpt lat="47.59653" lon="6.77226">
        <ele>468</ele>
        <time>2016-10-23T08:42:21.000Z</time>
      </trkpt>
      <trkpt lat="47.59653" lon="6.77223">
        <ele>468</ele>
        <time>2016-10-23T08:42:22.000Z</time>
      </trkpt>
      <trkpt lat="47.59652" lon="6.77218">
        <ele>468</ele>
        <time>2016-10-23T08:42:24.000Z</time>
      </trkpt>
      <trkpt lat="47.59652" lon="6.77216">
        <ele>468</ele>
        <time>2016-10-23T08:42:25.000Z</time>
      </trkpt>
      <trkpt lat="47.59652" lon="6.77209">
        <ele>469</ele>
        <time>2016-10-23T08:42:28.000Z</time>
      </trkpt>
      <trkpt lat="47.59652" lon="6.77207">
        <ele>469</ele>
        <time>2016-10-23T08:42:29.000Z</time>
      </trkpt>
      <trkpt lat="47.59652" lon="6.77201">
        <ele>469</ele>
        <time>2016-10-23T08:42:32.000Z</time>
      </trkpt>
      <trkpt lat="47.59651" lon="6.772">
        <ele>469</ele>
        <time>2016-10-23T08:42:33.000Z</time>
      </trkpt>
      <trkpt lat="47.5965" lon="6.77194">
        <ele>469</ele>
        <time>2016-10-23T08:42:36.000Z</time>
      </trkpt>
      <trkpt lat="47.59651" lon="6.77192">
        <ele>469</ele>
        <time>2016-10-23T08:42:37.000Z</time>
      </trkpt>
      <trkpt lat="47.59651" lon="6.77186">
        <ele>470</ele>
        <time>2016-10-23T08:42:40.000Z</time>
      </trkpt>
      <trkpt lat="47.59651" lon="6.77184">
        <ele>470</ele>
        <time>2016-10-23T08:42:41.000Z</time>
      </trkpt>
      <trkpt lat="47.5965" lon="6.77179">
        <ele>470</ele>
        <time>2016-10-23T08:42:43.000Z</time>
      </trkpt>
      <trkpt lat="47.5965" lon="6.77176">
        <ele>470</ele>
        <time>2016-10-23T08:42:44.000Z</time>
      </trkpt>
      <trkpt lat="47.59649" lon="6.7717">
        <ele>470</ele>
        <time>2016-10-23T08:42:47.000Z</time>
      </trkpt>
      <trkpt lat="47.5965" lon="6.77168">
        <ele>470</ele>
        <time>2016-10-23T08:42:48.000Z</time>
      </trkpt>
      <trkpt lat="47.59651" lon="6.77162">
        <ele>474</ele>
        <time>2016-10-23T08:42:51.000Z</time>
      </trkpt>
      <trkpt lat="47.59651" lon="6.7716">
        <ele>474</ele>
        <time>2016-10-23T08:42:52.000Z</time>
      </trkpt>
      <trkpt lat="47.59651" lon="6.77155">
        <ele>474</ele>
        <time>2016-10-23T08:42:56.000Z</time>
      </trkpt>
      <trkpt lat="47.59651" lon="6.77153">
        <ele>474</ele>
        <time>2016-10-23T08:42:57.000Z</time>
      </trkpt>
      <trkpt lat="47.59651" lon="6.77148">
        <ele>474</ele>
        <time>2016-10-23T08:43:00.000Z</time>
      </trkpt>
      <trkpt lat="47.59652" lon="6.77146">
        <ele>475</ele>
        <time>2016-10-23T08:43:01.000Z</time>
      </trkpt>
      <trkpt lat="47.59653" lon="6.7714">
        <ele>475</ele>
        <time>2016-10-23T08:43:04.000Z</time>
      </trkpt>
      <trkpt lat="47.59654" lon="6.77138">
        <ele>475</ele>
        <time>2016-10-23T08:43:05.000Z</time>
      </trkpt>
      <trkpt lat="47.59654" lon="6.77132">
        <ele>476</ele>
        <time>2016-10-23T08:43:08.000Z</time>
      </trkpt>
      <trkpt lat="47.59654" lon="6.7713">
        <ele>476</ele>
        <time>2016-10-23T08:43:09.000Z</time>
      </trkpt>
      <trkpt lat="47.59654" lon="6.77125">
        <ele>476</ele>
        <time>2016-10-23T08:43:12.000Z</time>
      </trkpt>
      <trkpt lat="47.59654" lon="6.77123">
        <ele>476</ele>
        <time>2016-10-23T08:43:13.000Z</time>
      </trkpt>
      <trkpt lat="47.59654" lon="6.77117">
        <ele>477</ele>
        <time>2016-10-23T08:43:16.000Z</time>
      </trkpt>
      <trkpt lat="47.59654" lon="6.77116">
        <ele>477</ele>
        <time>2016-10-23T08:43:17.000Z</time>
      </trkpt>
      <trkpt lat="47.59653" lon="6.77111">
        <ele>477</ele>
        <time>2016-10-23T08:43:20.000Z</time>
      </trkpt>
      <trkpt lat="47.59653" lon="6.77108">
        <ele>478</ele>
        <time>2016-10-23T08:43:21.000Z</time>
      </trkpt>
      <trkpt lat="47.59654" lon="6.77103">
        <ele>478</ele>
        <time>2016-10-23T08:43:23.000Z</time>
      </trkpt>
      <trkpt lat="47.59654" lon="6.77099">
        <ele>478</ele>
        <time>2016-10-23T08:43:24.000Z</time>
      </trkpt>
      <trkpt lat="47.59655" lon="6.77096">
        <ele>479</ele>
        <time>2016-10-23T08:43:25.000Z</time>
      </trkpt>
      <trkpt lat="47.59655" lon="6.77093">
        <ele>479</ele>
        <time>2016-10-23T08:43:26.000Z</time>
      </trkpt>
      <trkpt lat="47.59656" lon="6.77086">
        <ele>479</ele>
        <time>2016-10-23T08:43:28.000Z</time>
      </trkpt>
      <trkpt lat="47.59657" lon="6.77083">
        <ele>482</ele>
        <time>2016-10-23T08:43:29.000Z</time>
      </trkpt>
      <trkpt lat="47.59658" lon="6.77077">
        <ele>482</ele>
        <time>2016-10-23T08:43:31.000Z</time>
      </trkpt>
      <trkpt lat="47.59658" lon="6.77074">
        <ele>483</ele>
        <time>2016-10-23T08:43:32.000Z</time>
      </trkpt>
      <trkpt lat="47.59658" lon="6.77068">
        <ele>483</ele>
        <time>2016-10-23T08:43:34.000Z</time>
      </trkpt>
      <trkpt lat="47.59658" lon="6.77065">
        <ele>483</ele>
        <time>2016-10-23T08:43:35.000Z</time>
      </trkpt>
      <trkpt lat="47.59657" lon="6.7706">
        <ele>484</ele>
        <time>2016-10-23T08:43:37.000Z</time>
      </trkpt>
      <trkpt lat="47.59657" lon="6.77058">
        <ele>484</ele>
        <time>2016-10-23T08:43:38.000Z</time>
      </trkpt>
      <trkpt lat="47.59657" lon="6.77053">
        <ele>484</ele>
        <time>2016-10-23T08:43:40.000Z</time>
      </trkpt>
      <trkpt lat="47.59657" lon="6.7705">
        <ele>484</ele>
        <time>2016-10-23T08:43:41.000Z</time>
      </trkpt>
      <trkpt lat="47.59658" lon="6.77045">
        <ele>485</ele>
        <time>2016-10-23T08:43:43.000Z</time>
      </trkpt>
      <trkpt lat="47.59659" lon="6.77043">
        <ele>485</ele>
        <time>2016-10-23T08:43:44.000Z</time>
      </trkpt>
      <trkpt lat="47.59659" lon="6.77038">
        <ele>485</ele>
        <time>2016-10-23T08:43:46.000Z</time>
      </trkpt>
      <trkpt lat="47.5966" lon="6.77036">
        <ele>486</ele>
        <time>2016-10-23T08:43:47.000Z</time>
      </trkpt>
      <trkpt lat="47.5966" lon="6.7703">
        <ele>486</ele>
        <time>2016-10-23T08:43:50.000Z</time>
      </trkpt>
      <trkpt lat="47.5966" lon="6.77028">
        <ele>486</ele>
        <time>2016-10-23T08:43:51.000Z</time>
      </trkpt>
      <trkpt lat="47.5966" lon="6.77023">
        <ele>487</ele>
        <time>2016-10-23T08:43:53.000Z</time>
      </trkpt>
      <trkpt lat="47.5966" lon="6.77021">
        <ele>487</ele>
        <time>2016-10-23T08:43:54.000Z</time>
      </trkpt>
      <trkpt lat="47.59659" lon="6.77018">
        <ele>487</ele>
        <time>2016-10-23T08:43:55.000Z</time>
      </trkpt>
      <trkpt lat="47.59656" lon="6.77016">
        <ele>487</ele>
        <time>2016-10-23T08:43:56.000Z</time>
      </trkpt>
      <trkpt lat="47.59653" lon="6.77013">
        <ele>488</ele>
        <time>2016-10-23T08:43:57.000Z</time>
      </trkpt>
      <trkpt lat="47.59652" lon="6.7701">
        <ele>488</ele>
        <time>2016-10-23T08:43:58.000Z</time>
      </trkpt>
      <trkpt lat="47.59651" lon="6.77004">
        <ele>488</ele>
        <time>2016-10-23T08:44:01.000Z</time>
      </trkpt>
      <trkpt lat="47.59651" lon="6.77002">
        <ele>488</ele>
        <time>2016-10-23T08:44:02.000Z</time>
      </trkpt>
      <trkpt lat="47.59651" lon="6.76997">
        <ele>491</ele>
        <time>2016-10-23T08:44:05.000Z</time>
      </trkpt>
      <trkpt lat="47.59651" lon="6.76994">
        <ele>491</ele>
        <time>2016-10-23T08:44:06.000Z</time>
      </trkpt>
      <trkpt lat="47.59651" lon="6.76988">
        <ele>491</ele>
        <time>2016-10-23T08:44:09.000Z</time>
      </trkpt>
      <trkpt lat="47.59651" lon="6.76986">
        <ele>491</ele>
        <time>2016-10-23T08:44:10.000Z</time>
      </trkpt>
      <trkpt lat="47.59649" lon="6.76981">
        <ele>491</ele>
        <time>2016-10-23T08:44:12.000Z</time>
      </trkpt>
      <trkpt lat="47.59649" lon="6.76978">
        <ele>491</ele>
        <time>2016-10-23T08:44:13.000Z</time>
      </trkpt>
      <trkpt lat="47.59648" lon="6.76973">
        <ele>492</ele>
        <time>2016-10-23T08:44:15.000Z</time>
      </trkpt>
      <trkpt lat="47.59649" lon="6.76971">
        <ele>492</ele>
        <time>2016-10-23T08:44:16.000Z</time>
      </trkpt>
      <trkpt lat="47.5965" lon="6.76966">
        <ele>492</ele>
        <time>2016-10-23T08:44:18.000Z</time>
      </trkpt>
      <trkpt lat="47.5965" lon="6.76964">
        <ele>492</ele>
        <time>2016-10-23T08:44:19.000Z</time>
      </trkpt>
      <trkpt lat="47.59651" lon="6.76957">
        <ele>492</ele>
        <time>2016-10-23T08:44:22.000Z</time>
      </trkpt>
      <trkpt lat="47.59652" lon="6.76955">
        <ele>493</ele>
        <time>2016-10-23T08:44:23.000Z</time>
      </trkpt>
      <trkpt lat="47.59652" lon="6.76949">
        <ele>493</ele>
        <time>2016-10-23T08:44:26.000Z</time>
      </trkpt>
      <trkpt lat="47.59652" lon="6.76947">
        <ele>493</ele>
        <time>2016-10-23T08:44:27.000Z</time>
      </trkpt>
      <trkpt lat="47.59652" lon="6.7694">
        <ele>494</ele>
        <time>2016-10-23T08:44:30.000Z</time>
      </trkpt>
      <trkpt lat="47.59653" lon="6.76938">
        <ele>494</ele>
        <time>2016-10-23T08:44:31.000Z</time>
      </trkpt>
      <trkpt lat="47.59654" lon="6.76933">
        <ele>494</ele>
        <time>2016-10-23T08:44:33.000Z</time>
      </trkpt>
      <trkpt lat="47.59654" lon="6.76931">
        <ele>495</ele>
        <time>2016-10-23T08:44:34.000Z</time>
      </trkpt>
      <trkpt lat="47.59655" lon="6.76924">
        <ele>495</ele>
        <time>2016-10-23T08:44:37.000Z</time>
      </trkpt>
      <trkpt lat="47.59655" lon="6.76922">
        <ele>495</ele>
        <time>2016-10-23T08:44:38.000Z</time>
      </trkpt>
      <trkpt lat="47.59656" lon="6.76918">
        <ele>496</ele>
        <time>2016-10-23T08:44:39.000Z</time>
      </trkpt>
      <trkpt lat="47.59656" lon="6.76915">
        <ele>497</ele>
        <time>2016-10-23T08:44:40.000Z</time>
      </trkpt>
      <trkpt lat="47.59656" lon="6.76909">
        <ele>497</ele>
        <time>2016-10-23T08:44:42.000Z</time>
      </trkpt>
      <trkpt lat="47.59656" lon="6.76906">
        <ele>497</ele>
        <time>2016-10-23T08:44:43.000Z</time>
      </trkpt>
      <trkpt lat="47.59656" lon="6.76901">
        <ele>497</ele>
        <time>2016-10-23T08:44:45.000Z</time>
      </trkpt>
      <trkpt lat="47.59655" lon="6.76898">
        <ele>497</ele>
        <time>2016-10-23T08:44:46.000Z</time>
      </trkpt>
      <trkpt lat="47.59656" lon="6.76893">
        <ele>497</ele>
        <time>2016-10-23T08:44:48.000Z</time>
      </trkpt>
      <trkpt lat="47.59656" lon="6.7689">
        <ele>497</ele>
        <time>2016-10-23T08:44:49.000Z</time>
      </trkpt>
      <trkpt lat="47.59655" lon="6.76885">
        <ele>497</ele>
        <time>2016-10-23T08:44:51.000Z</time>
      </trkpt>
      <trkpt lat="47.59655" lon="6.76882">
        <ele>498</ele>
        <time>2016-10-23T08:44:52.000Z</time>
      </trkpt>
      <trkpt lat="47.59655" lon="6.76878">
        <ele>498</ele>
        <time>2016-10-23T08:44:54.000Z</time>
      </trkpt>
      <trkpt lat="47.59656" lon="6.76875">
        <ele>498</ele>
        <time>2016-10-23T08:44:55.000Z</time>
      </trkpt>
      <trkpt lat="47.59657" lon="6.76871">
        <ele>498</ele>
        <time>2016-10-23T08:44:57.000Z</time>
      </trkpt>
      <trkpt lat="47.59657" lon="6.76868">
        <ele>498</ele>
        <time>2016-10-23T08:44:58.000Z</time>
      </trkpt>
      <trkpt lat="47.59657" lon="6.76863">
        <ele>498</ele>
        <time>2016-10-23T08:45:01.000Z</time>
      </trkpt>
      <trkpt lat="47.59657" lon="6.76861">
        <ele>498</ele>
        <time>2016-10-23T08:45:02.000Z</time>
      </trkpt>
      <trkpt lat="47.59658" lon="6.76856">
        <ele>499</ele>
        <time>2016-10-23T08:45:05.000Z</time>
      </trkpt>
      <trkpt lat="47.59658" lon="6.76854">
        <ele>499</ele>
        <time>2016-10-23T08:45:06.000Z</time>
      </trkpt>
      <trkpt lat="47.59658" lon="6.76848">
        <ele>499</ele>
        <time>2016-10-23T08:45:09.000Z</time>
      </trkpt>
      <trkpt lat="47.59658" lon="6.76846">
        <ele>500</ele>
        <time>2016-10-23T08:45:10.000Z</time>
      </trkpt>
      <trkpt lat="47.59659" lon="6.76841">
        <ele>500</ele>
        <time>2016-10-23T08:45:12.000Z</time>
      </trkpt>
      <trkpt lat="47.5966" lon="6.76838">
        <ele>501</ele>
        <time>2016-10-23T08:45:13.000Z</time>
      </trkpt>
      <trkpt lat="47.59662" lon="6.76833">
        <ele>502</ele>
        <time>2016-10-23T08:45:15.000Z</time>
      </trkpt>
      <trkpt lat="47.59662" lon="6.7683">
        <ele>502</ele>
        <time>2016-10-23T08:45:16.000Z</time>
      </trkpt>
      <trkpt lat="47.59663" lon="6.76824">
        <ele>502</ele>
        <time>2016-10-23T08:45:19.000Z</time>
      </trkpt>
      <trkpt lat="47.59663" lon="6.76822">
        <ele>502</ele>
        <time>2016-10-23T08:45:20.000Z</time>
      </trkpt>
      <trkpt lat="47.59664" lon="6.76818">
        <ele>502</ele>
        <time>2016-10-23T08:45:22.000Z</time>
      </trkpt>
      <trkpt lat="47.59665" lon="6.76816">
        <ele>502</ele>
        <time>2016-10-23T08:45:23.000Z</time>
      </trkpt>
      <trkpt lat="47.59666" lon="6.7681">
        <ele>502</ele>
        <time>2016-10-23T08:45:25.000Z</time>
      </trkpt>
      <trkpt lat="47.59667" lon="6.76807">
        <ele>503</ele>
        <time>2016-10-23T08:45:26.000Z</time>
      </trkpt>
      <trkpt lat="47.59667" lon="6.76804">
        <ele>503</ele>
        <time>2016-10-23T08:45:27.000Z</time>
      </trkpt>
      <trkpt lat="47.59668" lon="6.76801">
        <ele>503</ele>
        <time>2016-10-23T08:45:28.000Z</time>
      </trkpt>
      <trkpt lat="47.59668" lon="6.76795">
        <ele>503</ele>
        <time>2016-10-23T08:45:30.000Z</time>
      </trkpt>
      <trkpt lat="47.59669" lon="6.76793">
        <ele>503</ele>
        <time>2016-10-23T08:45:31.000Z</time>
      </trkpt>
      <trkpt lat="47.59671" lon="6.76787">
        <ele>503</ele>
        <time>2016-10-23T08:45:33.000Z</time>
      </trkpt>
      <trkpt lat="47.59671" lon="6.76784">
        <ele>504</ele>
        <time>2016-10-23T08:45:34.000Z</time>
      </trkpt>
      <trkpt lat="47.59672" lon="6.76779">
        <ele>504</ele>
        <time>2016-10-23T08:45:36.000Z</time>
      </trkpt>
      <trkpt lat="47.59672" lon="6.76776">
        <ele>504</ele>
        <time>2016-10-23T08:45:37.000Z</time>
      </trkpt>
      <trkpt lat="47.59672" lon="6.76773">
        <ele>504</ele>
        <time>2016-10-23T08:45:38.000Z</time>
      </trkpt>
      <trkpt lat="47.59673" lon="6.76769">
        <ele>505</ele>
        <time>2016-10-23T08:45:39.000Z</time>
      </trkpt>
      <trkpt lat="47.59674" lon="6.76763">
        <ele>505</ele>
        <time>2016-10-23T08:45:41.000Z</time>
      </trkpt>
      <trkpt lat="47.59675" lon="6.76761">
        <ele>505</ele>
        <time>2016-10-23T08:45:42.000Z</time>
      </trkpt>
      <trkpt lat="47.59676" lon="6.76755">
        <ele>505</ele>
        <time>2016-10-23T08:45:44.000Z</time>
      </trkpt>
      <trkpt lat="47.59676" lon="6.76753">
        <ele>506</ele>
        <time>2016-10-23T08:45:45.000Z</time>
      </trkpt>
      <trkpt lat="47.59676" lon="6.76747">
        <ele>507</ele>
        <time>2016-10-23T08:45:48.000Z</time>
      </trkpt>
      <trkpt lat="47.59676" lon="6.76744">
        <ele>507</ele>
        <time>2016-10-23T08:45:49.000Z</time>
      </trkpt>
      <trkpt lat="47.59677" lon="6.76738">
        <ele>507</ele>
        <time>2016-10-23T08:45:52.000Z</time>
      </trkpt>
      <trkpt lat="47.59677" lon="6.76736">
        <ele>507</ele>
        <time>2016-10-23T08:45:53.000Z</time>
      </trkpt>
      <trkpt lat="47.59678" lon="6.76731">
        <ele>507</ele>
        <time>2016-10-23T08:45:55.000Z</time>
      </trkpt>
      <trkpt lat="47.59679" lon="6.76728">
        <ele>507</ele>
        <time>2016-10-23T08:45:56.000Z</time>
      </trkpt>
      <trkpt lat="47.5968" lon="6.76724">
        <ele>507</ele>
        <time>2016-10-23T08:45:58.000Z</time>
      </trkpt>
      <trkpt lat="47.5968" lon="6.76721">
        <ele>508</ele>
        <time>2016-10-23T08:45:59.000Z</time>
      </trkpt>
      <trkpt lat="47.59681" lon="6.76718">
        <ele>508</ele>
        <time>2016-10-23T08:46:00.000Z</time>
      </trkpt>
      <trkpt lat="47.59682" lon="6.76714">
        <ele>508</ele>
        <time>2016-10-23T08:46:01.000Z</time>
      </trkpt>
      <trkpt lat="47.59682" lon="6.7671">
        <ele>508</ele>
        <time>2016-10-23T08:46:02.000Z</time>
      </trkpt>
      <trkpt lat="47.59683" lon="6.76707">
        <ele>508</ele>
        <time>2016-10-23T08:46:03.000Z</time>
      </trkpt>
      <trkpt lat="47.59685" lon="6.76701">
        <ele>508</ele>
        <time>2016-10-23T08:46:05.000Z</time>
      </trkpt>
      <trkpt lat="47.59686" lon="6.76698">
        <ele>508</ele>
        <time>2016-10-23T08:46:06.000Z</time>
      </trkpt>
      <trkpt lat="47.59687" lon="6.76692">
        <ele>508</ele>
        <time>2016-10-23T08:46:08.000Z</time>
      </trkpt>
      <trkpt lat="47.59688" lon="6.76689">
        <ele>509</ele>
        <time>2016-10-23T08:46:09.000Z</time>
      </trkpt>
      <trkpt lat="47.59688" lon="6.76684">
        <ele>509</ele>
        <time>2016-10-23T08:46:11.000Z</time>
      </trkpt>
      <trkpt lat="47.59688" lon="6.76681">
        <ele>509</ele>
        <time>2016-10-23T08:46:12.000Z</time>
      </trkpt>
      <trkpt lat="47.59689" lon="6.76675">
        <ele>509</ele>
        <time>2016-10-23T08:46:14.000Z</time>
      </trkpt>
      <trkpt lat="47.59689" lon="6.76673">
        <ele>509</ele>
        <time>2016-10-23T08:46:15.000Z</time>
      </trkpt>
      <trkpt lat="47.5969" lon="6.76667">
        <ele>509</ele>
        <time>2016-10-23T08:46:17.000Z</time>
      </trkpt>
      <trkpt lat="47.59691" lon="6.76664">
        <ele>512</ele>
        <time>2016-10-23T08:46:18.000Z</time>
      </trkpt>
      <trkpt lat="47.59692" lon="6.76658">
        <ele>512</ele>
        <time>2016-10-23T08:46:20.000Z</time>
      </trkpt>
      <trkpt lat="47.59693" lon="6.76655">
        <ele>512</ele>
        <time>2016-10-23T08:46:21.000Z</time>
      </trkpt>
      <trkpt lat="47.59694" lon="6.76652">
        <ele>512</ele>
        <time>2016-10-23T08:46:22.000Z</time>
      </trkpt>
      <trkpt lat="47.59695" lon="6.76649">
        <ele>512</ele>
        <time>2016-10-23T08:46:23.000Z</time>
      </trkpt>
      <trkpt lat="47.59696" lon="6.76646">
        <ele>512</ele>
        <time>2016-10-23T08:46:24.000Z</time>
      </trkpt>
      <trkpt lat="47.59697" lon="6.76643">
        <ele>512</ele>
        <time>2016-10-23T08:46:25.000Z</time>
      </trkpt>
      <trkpt lat="47.59699" lon="6.76637">
        <ele>512</ele>
        <time>2016-10-23T08:46:27.000Z</time>
      </trkpt>
      <trkpt lat="47.59699" lon="6.76634">
        <ele>512</ele>
        <time>2016-10-23T08:46:28.000Z</time>
      </trkpt>
      <trkpt lat="47.597" lon="6.76628">
        <ele>513</ele>
        <time>2016-10-23T08:46:30.000Z</time>
      </trkpt>
      <trkpt lat="47.59701" lon="6.76624">
        <ele>513</ele>
        <time>2016-10-23T08:46:31.000Z</time>
      </trkpt>
      <trkpt lat="47.59702" lon="6.76621">
        <ele>513</ele>
        <time>2016-10-23T08:46:32.000Z</time>
      </trkpt>
      <trkpt lat="47.59702" lon="6.76617">
        <ele>513</ele>
        <time>2016-10-23T08:46:33.000Z</time>
      </trkpt>
      <trkpt lat="47.59703" lon="6.76613">
        <ele>513</ele>
        <time>2016-10-23T08:46:34.000Z</time>
      </trkpt>
      <trkpt lat="47.59703" lon="6.7661">
        <ele>513</ele>
        <time>2016-10-23T08:46:35.000Z</time>
      </trkpt>
      <trkpt lat="47.59704" lon="6.76607">
        <ele>513</ele>
        <time>2016-10-23T08:46:36.000Z</time>
      </trkpt>
      <trkpt lat="47.59705" lon="6.76603">
        <ele>513</ele>
        <time>2016-10-23T08:46:37.000Z</time>
      </trkpt>
      <trkpt lat="47.59706" lon="6.76597">
        <ele>514</ele>
        <time>2016-10-23T08:46:39.000Z</time>
      </trkpt>
      <trkpt lat="47.59706" lon="6.76594">
        <ele>514</ele>
        <time>2016-10-23T08:46:40.000Z</time>
      </trkpt>
      <trkpt lat="47.59705" lon="6.7659">
        <ele>514</ele>
        <time>2016-10-23T08:46:42.000Z</time>
      </trkpt>
      <trkpt lat="47.59705" lon="6.76588">
        <ele>514</ele>
        <time>2016-10-23T08:46:43.000Z</time>
      </trkpt>
      <trkpt lat="47.59705" lon="6.76582">
        <ele>517</ele>
        <time>2016-10-23T08:46:45.000Z</time>
      </trkpt>
      <trkpt lat="47.59705" lon="6.7658">
        <ele>517</ele>
        <time>2016-10-23T08:46:46.000Z</time>
      </trkpt>
      <trkpt lat="47.59706" lon="6.76573">
        <ele>517</ele>
        <time>2016-10-23T08:46:49.000Z</time>
      </trkpt>
      <trkpt lat="47.59707" lon="6.76572">
        <ele>517</ele>
        <time>2016-10-23T08:46:50.000Z</time>
      </trkpt>
      <trkpt lat="47.59708" lon="6.76566">
        <ele>517</ele>
        <time>2016-10-23T08:47:00.000Z</time>
      </trkpt>
      <trkpt lat="47.59708" lon="6.76566">
        <ele>517</ele>
        <time>2016-10-23T08:47:01.000Z</time>
      </trkpt>
      <trkpt lat="47.5971" lon="6.76559">
        <ele>517</ele>
        <time>2016-10-23T08:47:15.000Z</time>
      </trkpt>
      <trkpt lat="47.5971" lon="6.76559">
        <ele>517</ele>
        <time>2016-10-23T08:47:16.000Z</time>
      </trkpt>
      <trkpt lat="47.59713" lon="6.76555">
        <ele>517</ele>
        <time>2016-10-23T08:47:44.000Z</time>
      </trkpt>
      <trkpt lat="47.59714" lon="6.76555">
        <ele>517</ele>
        <time>2016-10-23T08:47:45.000Z</time>
      </trkpt>
      <trkpt lat="47.59716" lon="6.7655">
        <ele>517</ele>
        <time>2016-10-23T08:49:21.000Z</time>
      </trkpt>
      <trkpt lat="47.59717" lon="6.7655">
        <ele>517</ele>
        <time>2016-10-23T08:49:22.000Z</time>
      </trkpt>
      <trkpt lat="47.59717" lon="6.76545">
        <ele>517</ele>
        <time>2016-10-23T08:51:27.000Z</time>
      </trkpt>
      <trkpt lat="47.59717" lon="6.76543">
        <ele>517</ele>
        <time>2016-10-23T08:51:28.000Z</time>
      </trkpt>
      <trkpt lat="47.59718" lon="6.76537">
        <ele>517</ele>
        <time>2016-10-23T08:51:30.000Z</time>
      </trkpt>
      <trkpt lat="47.59718" lon="6.76535">
        <ele>518</ele>
        <time>2016-10-23T08:51:31.000Z</time>
      </trkpt>
      <trkpt lat="47.5972" lon="6.76529">
        <ele>518</ele>
        <time>2016-10-23T08:51:34.000Z</time>
      </trkpt>
      <trkpt lat="47.59721" lon="6.76526">
        <ele>518</ele>
        <time>2016-10-23T08:51:35.000Z</time>
      </trkpt>
      <trkpt lat="47.59721" lon="6.76523">
        <ele>518</ele>
        <time>2016-10-23T08:51:36.000Z</time>
      </trkpt>
      <trkpt lat="47.59722" lon="6.76519">
        <ele>518</ele>
        <time>2016-10-23T08:51:37.000Z</time>
      </trkpt>
      <trkpt lat="47.59722" lon="6.76515">
        <ele>518</ele>
        <time>2016-10-23T08:51:38.000Z</time>
      </trkpt>
      <trkpt lat="47.59723" lon="6.76512">
        <ele>518</ele>
        <time>2016-10-23T08:51:39.000Z</time>
      </trkpt>
      <trkpt lat="47.59723" lon="6.76507">
        <ele>518</ele>
        <time>2016-10-23T08:51:41.000Z</time>
      </trkpt>
      <trkpt lat="47.59724" lon="6.76505">
        <ele>518</ele>
        <time>2016-10-23T08:51:42.000Z</time>
      </trkpt>
      <trkpt lat="47.59724" lon="6.76499">
        <ele>520</ele>
        <time>2016-10-23T08:51:47.000Z</time>
      </trkpt>
      <trkpt lat="47.59724" lon="6.76498">
        <ele>520</ele>
        <time>2016-10-23T08:51:48.000Z</time>
      </trkpt>
      <trkpt lat="47.59721" lon="6.76495">
        <ele>520</ele>
        <time>2016-10-23T08:51:51.000Z</time>
      </trkpt>
      <trkpt lat="47.5972" lon="6.76492">
        <ele>520</ele>
        <time>2016-10-23T08:51:52.000Z</time>
      </trkpt>
      <trkpt lat="47.5972" lon="6.76486">
        <ele>520</ele>
        <time>2016-10-23T08:51:54.000Z</time>
      </trkpt>
      <trkpt lat="47.59719" lon="6.76482">
        <ele>520</ele>
        <time>2016-10-23T08:51:55.000Z</time>
      </trkpt>
      <trkpt lat="47.59718" lon="6.76477">
        <ele>520</ele>
        <time>2016-10-23T08:51:56.000Z</time>
      </trkpt>
      <trkpt lat="47.59717" lon="6.76472">
        <ele>521</ele>
        <time>2016-10-23T08:51:57.000Z</time>
      </trkpt>
      <trkpt lat="47.59715" lon="6.76468">
        <ele>521</ele>
        <time>2016-10-23T08:51:58.000Z</time>
      </trkpt>
      <trkpt lat="47.59714" lon="6.76463">
        <ele>521</ele>
        <time>2016-10-23T08:51:59.000Z</time>
      </trkpt>
      <trkpt lat="47.59713" lon="6.76459">
        <ele>521</ele>
        <time>2016-10-23T08:52:00.000Z</time>
      </trkpt>
      <trkpt lat="47.59712" lon="6.76455">
        <ele>521</ele>
        <time>2016-10-23T08:52:01.000Z</time>
      </trkpt>
      <trkpt lat="47.59711" lon="6.7645">
        <ele>521</ele>
        <time>2016-10-23T08:52:02.000Z</time>
      </trkpt>
      <trkpt lat="47.5971" lon="6.76446">
        <ele>521</ele>
        <time>2016-10-23T08:52:03.000Z</time>
      </trkpt>
      <trkpt lat="47.59709" lon="6.76442">
        <ele>521</ele>
        <time>2016-10-23T08:52:04.000Z</time>
      </trkpt>
      <trkpt lat="47.59709" lon="6.76438">
        <ele>521</ele>
        <time>2016-10-23T08:52:05.000Z</time>
      </trkpt>
      <trkpt lat="47.59709" lon="6.76434">
        <ele>521</ele>
        <time>2016-10-23T08:52:06.000Z</time>
      </trkpt>
      <trkpt lat="47.59708" lon="6.7643">
        <ele>521</ele>
        <time>2016-10-23T08:52:07.000Z</time>
      </trkpt>
      <trkpt lat="47.59708" lon="6.76426">
        <ele>521</ele>
        <time>2016-10-23T08:52:08.000Z</time>
      </trkpt>
      <trkpt lat="47.59707" lon="6.76422">
        <ele>521</ele>
        <time>2016-10-23T08:52:09.000Z</time>
      </trkpt>
      <trkpt lat="47.59707" lon="6.76417">
        <ele>521</ele>
        <time>2016-10-23T08:52:10.000Z</time>
      </trkpt>
      <trkpt lat="47.59706" lon="6.76412">
        <ele>524</ele>
        <time>2016-10-23T08:52:11.000Z</time>
      </trkpt>
      <trkpt lat="47.59707" lon="6.76407">
        <ele>524</ele>
        <time>2016-10-23T08:52:12.000Z</time>
      </trkpt>
      <trkpt lat="47.59707" lon="6.76402">
        <ele>524</ele>
        <time>2016-10-23T08:52:13.000Z</time>
      </trkpt>
      <trkpt lat="47.59707" lon="6.76397">
        <ele>524</ele>
        <time>2016-10-23T08:52:14.000Z</time>
      </trkpt>
      <trkpt lat="47.59707" lon="6.76393">
        <ele>524</ele>
        <time>2016-10-23T08:52:15.000Z</time>
      </trkpt>
      <trkpt lat="47.59707" lon="6.76389">
        <ele>524</ele>
        <time>2016-10-23T08:52:16.000Z</time>
      </trkpt>
      <trkpt lat="47.59706" lon="6.76385">
        <ele>524</ele>
        <time>2016-10-23T08:52:17.000Z</time>
      </trkpt>
      <trkpt lat="47.59705" lon="6.76382">
        <ele>524</ele>
        <time>2016-10-23T08:52:18.000Z</time>
      </trkpt>
      <trkpt lat="47.59704" lon="6.76379">
        <ele>524</ele>
        <time>2016-10-23T08:52:19.000Z</time>
      </trkpt>
      <trkpt lat="47.59702" lon="6.76375">
        <ele>524</ele>
        <time>2016-10-23T08:52:20.000Z</time>
      </trkpt>
      <trkpt lat="47.597" lon="6.76372">
        <ele>525</ele>
        <time>2016-10-23T08:52:21.000Z</time>
      </trkpt>
      <trkpt lat="47.59698" lon="6.76369">
        <ele>525</ele>
        <time>2016-10-23T08:52:22.000Z</time>
      </trkpt>
      <trkpt lat="47.59695" lon="6.76366">
        <ele>525</ele>
        <time>2016-10-23T08:52:23.000Z</time>
      </trkpt>
      <trkpt lat="47.59693" lon="6.76363">
        <ele>525</ele>
        <time>2016-10-23T08:52:24.000Z</time>
      </trkpt>
      <trkpt lat="47.59692" lon="6.7636">
        <ele>525</ele>
        <time>2016-10-23T08:52:25.000Z</time>
      </trkpt>
      <trkpt lat="47.5969" lon="6.76358">
        <ele>525</ele>
        <time>2016-10-23T08:52:26.000Z</time>
      </trkpt>
      <trkpt lat="47.59688" lon="6.76355">
        <ele>525</ele>
        <time>2016-10-23T08:52:27.000Z</time>
      </trkpt>
      <trkpt lat="47.59686" lon="6.76352">
        <ele>525</ele>
        <time>2016-10-23T08:52:28.000Z</time>
      </trkpt>
      <trkpt lat="47.59683" lon="6.76349">
        <ele>525</ele>
        <time>2016-10-23T08:52:29.000Z</time>
      </trkpt>
      <trkpt lat="47.5968" lon="6.76346">
        <ele>525</ele>
        <time>2016-10-23T08:52:30.000Z</time>
      </trkpt>
      <trkpt lat="47.59677" lon="6.76343">
        <ele>525</ele>
        <time>2016-10-23T08:52:31.000Z</time>
      </trkpt>
      <trkpt lat="47.59674" lon="6.7634">
        <ele>526</ele>
        <time>2016-10-23T08:52:32.000Z</time>
      </trkpt>
      <trkpt lat="47.59673" lon="6.76336">
        <ele>526</ele>
        <time>2016-10-23T08:52:33.000Z</time>
      </trkpt>
      <trkpt lat="47.59671" lon="6.76332">
        <ele>526</ele>
        <time>2016-10-23T08:52:34.000Z</time>
      </trkpt>
      <trkpt lat="47.5967" lon="6.76327">
        <ele>526</ele>
        <time>2016-10-23T08:52:35.000Z</time>
      </trkpt>
      <trkpt lat="47.59668" lon="6.76323">
        <ele>527</ele>
        <time>2016-10-23T08:52:36.000Z</time>
      </trkpt>
      <trkpt lat="47.59666" lon="6.76319">
        <ele>525</ele>
        <time>2016-10-23T08:52:37.000Z</time>
      </trkpt>
      <trkpt lat="47.59663" lon="6.76314">
        <ele>525</ele>
        <time>2016-10-23T08:52:38.000Z</time>
      </trkpt>
      <trkpt lat="47.59661" lon="6.7631">
        <ele>525</ele>
        <time>2016-10-23T08:52:39.000Z</time>
      </trkpt>
      <trkpt lat="47.59658" lon="6.76305">
        <ele>525</ele>
        <time>2016-10-23T08:52:40.000Z</time>
      </trkpt>
      <trkpt lat="47.59656" lon="6.76301">
        <ele>525</ele>
        <time>2016-10-23T08:52:41.000Z</time>
      </trkpt>
      <trkpt lat="47.59653" lon="6.76296">
        <ele>525</ele>
        <time>2016-10-23T08:52:42.000Z</time>
      </trkpt>
      <trkpt lat="47.59651" lon="6.76292">
        <ele>525</ele>
        <time>2016-10-23T08:52:43.000Z</time>
      </trkpt>
      <trkpt lat="47.59649" lon="6.76287">
        <ele>525</ele>
        <time>2016-10-23T08:52:44.000Z</time>
      </trkpt>
      <trkpt lat="47.59647" lon="6.76282">
        <ele>525</ele>
        <time>2016-10-23T08:52:45.000Z</time>
      </trkpt>
      <trkpt lat="47.59644" lon="6.76277">
        <ele>525</ele>
        <time>2016-10-23T08:52:46.000Z</time>
      </trkpt>
      <trkpt lat="47.59642" lon="6.76272">
        <ele>525</ele>
        <time>2016-10-23T08:52:47.000Z</time>
      </trkpt>
      <trkpt lat="47.59639" lon="6.76268">
        <ele>525</ele>
        <time>2016-10-23T08:52:48.000Z</time>
      </trkpt>
      <trkpt lat="47.59636" lon="6.76264">
        <ele>525</ele>
        <time>2016-10-23T08:52:49.000Z</time>
      </trkpt>
      <trkpt lat="47.59634" lon="6.7626">
        <ele>525</ele>
        <time>2016-10-23T08:52:50.000Z</time>
      </trkpt>
      <trkpt lat="47.59632" lon="6.76255">
        <ele>525</ele>
        <time>2016-10-23T08:52:51.000Z</time>
      </trkpt>
      <trkpt lat="47.5963" lon="6.7625">
        <ele>526</ele>
        <time>2016-10-23T08:52:52.000Z</time>
      </trkpt>
      <trkpt lat="47.59628" lon="6.76245">
        <ele>526</ele>
        <time>2016-10-23T08:52:53.000Z</time>
      </trkpt>
      <trkpt lat="47.59626" lon="6.76239">
        <ele>525</ele>
        <time>2016-10-23T08:52:54.000Z</time>
      </trkpt>
      <trkpt lat="47.59624" lon="6.76234">
        <ele>525</ele>
        <time>2016-10-23T08:52:55.000Z</time>
      </trkpt>
      <trkpt lat="47.59622" lon="6.76229">
        <ele>525</ele>
        <time>2016-10-23T08:52:56.000Z</time>
      </trkpt>
      <trkpt lat="47.59621" lon="6.76224">
        <ele>525</ele>
        <time>2016-10-23T08:52:57.000Z</time>
      </trkpt>
      <trkpt lat="47.59619" lon="6.76219">
        <ele>525</ele>
        <time>2016-10-23T08:52:58.000Z</time>
      </trkpt>
      <trkpt lat="47.59617" lon="6.76214">
        <ele>525</ele>
        <time>2016-10-23T08:52:59.000Z</time>
      </trkpt>
      <trkpt lat="47.59615" lon="6.76209">
        <ele>525</ele>
        <time>2016-10-23T08:53:00.000Z</time>
      </trkpt>
      <trkpt lat="47.59614" lon="6.76204">
        <ele>525</ele>
        <time>2016-10-23T08:53:01.000Z</time>
      </trkpt>
      <trkpt lat="47.59612" lon="6.76198">
        <ele>525</ele>
        <time>2016-10-23T08:53:02.000Z</time>
      </trkpt>
      <trkpt lat="47.5961" lon="6.76193">
        <ele>525</ele>
        <time>2016-10-23T08:53:03.000Z</time>
      </trkpt>
      <trkpt lat="47.59609" lon="6.76188">
        <ele>525</ele>
        <time>2016-10-23T08:53:04.000Z</time>
      </trkpt>
      <trkpt lat="47.59607" lon="6.76183">
        <ele>525</ele>
        <time>2016-10-23T08:53:05.000Z</time>
      </trkpt>
      <trkpt lat="47.59606" lon="6.76177">
        <ele>524</ele>
        <time>2016-10-23T08:53:06.000Z</time>
      </trkpt>
      <trkpt lat="47.59605" lon="6.76171">
        <ele>524</ele>
        <time>2016-10-23T08:53:07.000Z</time>
      </trkpt>
      <trkpt lat="47.59603" lon="6.76165">
        <ele>525</ele>
        <time>2016-10-23T08:53:08.000Z</time>
      </trkpt>
      <trkpt lat="47.59602" lon="6.76159">
        <ele>525</ele>
        <time>2016-10-23T08:53:09.000Z</time>
      </trkpt>
      <trkpt lat="47.596" lon="6.76153">
        <ele>525</ele>
        <time>2016-10-23T08:53:10.000Z</time>
      </trkpt>
      <trkpt lat="47.59599" lon="6.76147">
        <ele>526</ele>
        <time>2016-10-23T08:53:11.000Z</time>
      </trkpt>
      <trkpt lat="47.59598" lon="6.76142">
        <ele>526</ele>
        <time>2016-10-23T08:53:12.000Z</time>
      </trkpt>
      <trkpt lat="47.59597" lon="6.76137">
        <ele>526</ele>
        <time>2016-10-23T08:53:13.000Z</time>
      </trkpt>
      <trkpt lat="47.59595" lon="6.76132">
        <ele>526</ele>
        <time>2016-10-23T08:53:14.000Z</time>
      </trkpt>
      <trkpt lat="47.59593" lon="6.76126">
        <ele>526</ele>
        <time>2016-10-23T08:53:15.000Z</time>
      </trkpt>
      <trkpt lat="47.5959" lon="6.76121">
        <ele>526</ele>
        <time>2016-10-23T08:53:16.000Z</time>
      </trkpt>
      <trkpt lat="47.59588" lon="6.76115">
        <ele>526</ele>
        <time>2016-10-23T08:53:17.000Z</time>
      </trkpt>
      <trkpt lat="47.59587" lon="6.7611">
        <ele>526</ele>
        <time>2016-10-23T08:53:18.000Z</time>
      </trkpt>
      <trkpt lat="47.59585" lon="6.76105">
        <ele>526</ele>
        <time>2016-10-23T08:53:19.000Z</time>
      </trkpt>
      <trkpt lat="47.59583" lon="6.76099">
        <ele>522</ele>
        <time>2016-10-23T08:53:20.000Z</time>
      </trkpt>
      <trkpt lat="47.59582" lon="6.76094">
        <ele>523</ele>
        <time>2016-10-23T08:53:21.000Z</time>
      </trkpt>
      <trkpt lat="47.5958" lon="6.76088">
        <ele>524</ele>
        <time>2016-10-23T08:53:22.000Z</time>
      </trkpt>
      <trkpt lat="47.59579" lon="6.76082">
        <ele>524</ele>
        <time>2016-10-23T08:53:23.000Z</time>
      </trkpt>
      <trkpt lat="47.59578" lon="6.76077">
        <ele>524</ele>
        <time>2016-10-23T08:53:24.000Z</time>
      </trkpt>
      <trkpt lat="47.59577" lon="6.76072">
        <ele>523</ele>
        <time>2016-10-23T08:53:25.000Z</time>
      </trkpt>
      <trkpt lat="47.59576" lon="6.76067">
        <ele>523</ele>
        <time>2016-10-23T08:53:26.000Z</time>
      </trkpt>
      <trkpt lat="47.59575" lon="6.76062">
        <ele>523</ele>
        <time>2016-10-23T08:53:27.000Z</time>
      </trkpt>
      <trkpt lat="47.59574" lon="6.76057">
        <ele>523</ele>
        <time>2016-10-23T08:53:28.000Z</time>
      </trkpt>
      <trkpt lat="47.59573" lon="6.76051">
        <ele>523</ele>
        <time>2016-10-23T08:53:29.000Z</time>
      </trkpt>
      <trkpt lat="47.59572" lon="6.76045">
        <ele>523</ele>
        <time>2016-10-23T08:53:30.000Z</time>
      </trkpt>
      <trkpt lat="47.5957" lon="6.76039">
        <ele>523</ele>
        <time>2016-10-23T08:53:31.000Z</time>
      </trkpt>
      <trkpt lat="47.59568" lon="6.76033">
        <ele>523</ele>
        <time>2016-10-23T08:53:32.000Z</time>
      </trkpt>
      <trkpt lat="47.59566" lon="6.76028">
        <ele>523</ele>
        <time>2016-10-23T08:53:33.000Z</time>
      </trkpt>
      <trkpt lat="47.59564" lon="6.76023">
        <ele>523</ele>
        <time>2016-10-23T08:53:34.000Z</time>
      </trkpt>
      <trkpt lat="47.59562" lon="6.76018">
        <ele>523</ele>
        <time>2016-10-23T08:53:35.000Z</time>
      </trkpt>
      <trkpt lat="47.5956" lon="6.76013">
        <ele>523</ele>
        <time>2016-10-23T08:53:36.000Z</time>
      </trkpt>
      <trkpt lat="47.59559" lon="6.76008">
        <ele>523</ele>
        <time>2016-10-23T08:53:37.000Z</time>
      </trkpt>
      <trkpt lat="47.59558" lon="6.76003">
        <ele>523</ele>
        <time>2016-10-23T08:53:38.000Z</time>
      </trkpt>
      <trkpt lat="47.59556" lon="6.75998">
        <ele>524</ele>
        <time>2016-10-23T08:53:39.000Z</time>
      </trkpt>
      <trkpt lat="47.59555" lon="6.75992">
        <ele>523</ele>
        <time>2016-10-23T08:53:40.000Z</time>
      </trkpt>
      <trkpt lat="47.59552" lon="6.75985">
        <ele>523</ele>
        <time>2016-10-23T08:53:41.000Z</time>
      </trkpt>
      <trkpt lat="47.5955" lon="6.75978">
        <ele>523</ele>
        <time>2016-10-23T08:53:42.000Z</time>
      </trkpt>
      <trkpt lat="47.59548" lon="6.75972">
        <ele>523</ele>
        <time>2016-10-23T08:53:43.000Z</time>
      </trkpt>
      <trkpt lat="47.59546" lon="6.75966">
        <ele>523</ele>
        <time>2016-10-23T08:53:44.000Z</time>
      </trkpt>
      <trkpt lat="47.59544" lon="6.75959">
        <ele>523</ele>
        <time>2016-10-23T08:53:45.000Z</time>
      </trkpt>
      <trkpt lat="47.59542" lon="6.75953">
        <ele>523</ele>
        <time>2016-10-23T08:53:46.000Z</time>
      </trkpt>
      <trkpt lat="47.5954" lon="6.75948">
        <ele>522</ele>
        <time>2016-10-23T08:53:47.000Z</time>
      </trkpt>
      <trkpt lat="47.59538" lon="6.75943">
        <ele>522</ele>
        <time>2016-10-23T08:53:48.000Z</time>
      </trkpt>
      <trkpt lat="47.59535" lon="6.7594">
        <ele>522</ele>
        <time>2016-10-23T08:53:49.000Z</time>
      </trkpt>
      <trkpt lat="47.59533" lon="6.75937">
        <ele>522</ele>
        <time>2016-10-23T08:53:50.000Z</time>
      </trkpt>
      <trkpt lat="47.59533" lon="6.75933">
        <ele>522</ele>
        <time>2016-10-23T08:53:51.000Z</time>
      </trkpt>
      <trkpt lat="47.59533" lon="6.75928">
        <ele>522</ele>
        <time>2016-10-23T08:53:52.000Z</time>
      </trkpt>
      <trkpt lat="47.59533" lon="6.75923">
        <ele>522</ele>
        <time>2016-10-23T08:53:53.000Z</time>
      </trkpt>
      <trkpt lat="47.59533" lon="6.75918">
        <ele>522</ele>
        <time>2016-10-23T08:53:54.000Z</time>
      </trkpt>
      <trkpt lat="47.59532" lon="6.75912">
        <ele>522</ele>
        <time>2016-10-23T08:53:55.000Z</time>
      </trkpt>
      <trkpt lat="47.5953" lon="6.75907">
        <ele>522</ele>
        <time>2016-10-23T08:53:56.000Z</time>
      </trkpt>
      <trkpt lat="47.59529" lon="6.75901">
        <ele>522</ele>
        <time>2016-10-23T08:53:57.000Z</time>
      </trkpt>
      <trkpt lat="47.59529" lon="6.75896">
        <ele>522</ele>
        <time>2016-10-23T08:53:58.000Z</time>
      </trkpt>
      <trkpt lat="47.59528" lon="6.75891">
        <ele>522</ele>
        <time>2016-10-23T08:53:59.000Z</time>
      </trkpt>
      <trkpt lat="47.59528" lon="6.75886">
        <ele>522</ele>
        <time>2016-10-23T08:54:00.000Z</time>
      </trkpt>
      <trkpt lat="47.59527" lon="6.75881">
        <ele>522</ele>
        <time>2016-10-23T08:54:01.000Z</time>
      </trkpt>
      <trkpt lat="47.59527" lon="6.75875">
        <ele>522</ele>
        <time>2016-10-23T08:54:02.000Z</time>
      </trkpt>
      <trkpt lat="47.59525" lon="6.7587">
        <ele>522</ele>
        <time>2016-10-23T08:54:03.000Z</time>
      </trkpt>
      <trkpt lat="47.59524" lon="6.75865">
        <ele>522</ele>
        <time>2016-10-23T08:54:04.000Z</time>
      </trkpt>
      <trkpt lat="47.59522" lon="6.7586">
        <ele>522</ele>
        <time>2016-10-23T08:54:05.000Z</time>
      </trkpt>
      <trkpt lat="47.59521" lon="6.75855">
        <ele>522</ele>
        <time>2016-10-23T08:54:06.000Z</time>
      </trkpt>
      <trkpt lat="47.59521" lon="6.75851">
        <ele>522</ele>
        <time>2016-10-23T08:54:07.000Z</time>
      </trkpt>
      <trkpt lat="47.5952" lon="6.75846">
        <ele>522</ele>
        <time>2016-10-23T08:54:08.000Z</time>
      </trkpt>
      <trkpt lat="47.59521" lon="6.75841">
        <ele>522</ele>
        <time>2016-10-23T08:54:09.000Z</time>
      </trkpt>
      <trkpt lat="47.59522" lon="6.75837">
        <ele>522</ele>
        <time>2016-10-23T08:54:10.000Z</time>
      </trkpt>
      <trkpt lat="47.59523" lon="6.75831">
        <ele>522</ele>
        <time>2016-10-23T08:54:11.000Z</time>
      </trkpt>
      <trkpt lat="47.59524" lon="6.75826">
        <ele>522</ele>
        <time>2016-10-23T08:54:12.000Z</time>
      </trkpt>
      <trkpt lat="47.59525" lon="6.7582">
        <ele>522</ele>
        <time>2016-10-23T08:54:13.000Z</time>
      </trkpt>
      <trkpt lat="47.59526" lon="6.75815">
        <ele>523</ele>
        <time>2016-10-23T08:54:14.000Z</time>
      </trkpt>
      <trkpt lat="47.59527" lon="6.7581">
        <ele>523</ele>
        <time>2016-10-23T08:54:15.000Z</time>
      </trkpt>
      <trkpt lat="47.59527" lon="6.75806">
        <ele>523</ele>
        <time>2016-10-23T08:54:16.000Z</time>
      </trkpt>
      <trkpt lat="47.59527" lon="6.758">
        <ele>523</ele>
        <time>2016-10-23T08:54:18.000Z</time>
      </trkpt>
      <trkpt lat="47.59528" lon="6.75797">
        <ele>523</ele>
        <time>2016-10-23T08:54:19.000Z</time>
      </trkpt>
      <trkpt lat="47.59529" lon="6.75794">
        <ele>523</ele>
        <time>2016-10-23T08:54:20.000Z</time>
      </trkpt>
      <trkpt lat="47.59531" lon="6.75791">
        <ele>523</ele>
        <time>2016-10-23T08:54:21.000Z</time>
      </trkpt>
      <trkpt lat="47.59533" lon="6.75788">
        <ele>523</ele>
        <time>2016-10-23T08:54:22.000Z</time>
      </trkpt>
      <trkpt lat="47.59535" lon="6.75785">
        <ele>523</ele>
        <time>2016-10-23T08:54:23.000Z</time>
      </trkpt>
      <trkpt lat="47.59537" lon="6.75782">
        <ele>523</ele>
        <time>2016-10-23T08:54:24.000Z</time>
      </trkpt>
      <trkpt lat="47.59538" lon="6.7578">
        <ele>523</ele>
        <time>2016-10-23T08:54:25.000Z</time>
      </trkpt>
      <trkpt lat="47.59538" lon="6.75773">
        <ele>523</ele>
        <time>2016-10-23T08:54:29.000Z</time>
      </trkpt>
      <trkpt lat="47.59537" lon="6.75773">
        <ele>523</ele>
        <time>2016-10-23T08:54:30.000Z</time>
      </trkpt>
      <trkpt lat="47.59536" lon="6.75767">
        <ele>523</ele>
        <time>2016-10-23T08:54:44.000Z</time>
      </trkpt>
      <trkpt lat="47.59536" lon="6.75765">
        <ele>523</ele>
        <time>2016-10-23T08:54:45.000Z</time>
      </trkpt>
      <trkpt lat="47.59532" lon="6.75764">
        <ele>523</ele>
        <time>2016-10-23T08:54:47.000Z</time>
      </trkpt>
      <trkpt lat="47.59529" lon="6.75765">
        <ele>523</ele>
        <time>2016-10-23T08:54:48.000Z</time>
      </trkpt>
      <trkpt lat="47.59526" lon="6.75766">
        <ele>522</ele>
        <time>2016-10-23T08:54:49.000Z</time>
      </trkpt>
      <trkpt lat="47.59523" lon="6.75769">
        <ele>522</ele>
        <time>2016-10-23T08:54:50.000Z</time>
      </trkpt>
      <trkpt lat="47.59519" lon="6.75771">
        <ele>522</ele>
        <time>2016-10-23T08:54:51.000Z</time>
      </trkpt>
      <trkpt lat="47.59515" lon="6.75773">
        <ele>522</ele>
        <time>2016-10-23T08:54:52.000Z</time>
      </trkpt>
      <trkpt lat="47.59511" lon="6.75774">
        <ele>522</ele>
        <time>2016-10-23T08:54:53.000Z</time>
      </trkpt>
      <trkpt lat="47.59508" lon="6.75775">
        <ele>522</ele>
        <time>2016-10-23T08:54:54.000Z</time>
      </trkpt>
      <trkpt lat="47.59505" lon="6.75771">
        <ele>522</ele>
        <time>2016-10-23T08:54:59.000Z</time>
      </trkpt>
      <trkpt lat="47.59504" lon="6.7577">
        <ele>522</ele>
        <time>2016-10-23T08:55:00.000Z</time>
      </trkpt>
      <trkpt lat="47.59502" lon="6.75776">
        <ele>522</ele>
        <time>2016-10-23T08:55:11.000Z</time>
      </trkpt>
      <trkpt lat="47.59502" lon="6.75777">
        <ele>522</ele>
        <time>2016-10-23T08:55:12.000Z</time>
      </trkpt>
      <trkpt lat="47.59501" lon="6.75781">
        <ele>522</ele>
        <time>2016-10-23T08:55:14.000Z</time>
      </trkpt>
      <trkpt lat="47.595" lon="6.75785">
        <ele>517</ele>
        <time>2016-10-23T08:55:15.000Z</time>
      </trkpt>
      <trkpt lat="47.59499" lon="6.75788">
        <ele>517</ele>
        <time>2016-10-23T08:55:16.000Z</time>
      </trkpt>
      <trkpt lat="47.59499" lon="6.75792">
        <ele>517</ele>
        <time>2016-10-23T08:55:17.000Z</time>
      </trkpt>
      <trkpt lat="47.59499" lon="6.75796">
        <ele>517</ele>
        <time>2016-10-23T08:55:18.000Z</time>
      </trkpt>
      <trkpt lat="47.595" lon="6.75799">
        <ele>517</ele>
        <time>2016-10-23T08:55:19.000Z</time>
      </trkpt>
      <trkpt lat="47.59501" lon="6.75805">
        <ele>522</ele>
        <time>2016-10-23T08:55:21.000Z</time>
      </trkpt>
      <trkpt lat="47.595" lon="6.75808">
        <ele>518</ele>
        <time>2016-10-23T08:55:22.000Z</time>
      </trkpt>
      <trkpt lat="47.59499" lon="6.75811">
        <ele>518</ele>
        <time>2016-10-23T08:55:23.000Z</time>
      </trkpt>
      <trkpt lat="47.59498" lon="6.75814">
        <ele>518</ele>
        <time>2016-10-23T08:55:24.000Z</time>
      </trkpt>
      <trkpt lat="47.59497" lon="6.75818">
        <ele>518</ele>
        <time>2016-10-23T08:55:25.000Z</time>
      </trkpt>
      <trkpt lat="47.59497" lon="6.75823">
        <ele>518</ele>
        <time>2016-10-23T08:55:26.000Z</time>
      </trkpt>
      <trkpt lat="47.59496" lon="6.75827">
        <ele>519</ele>
        <time>2016-10-23T08:55:27.000Z</time>
      </trkpt>
      <trkpt lat="47.59496" lon="6.75831">
        <ele>519</ele>
        <time>2016-10-23T08:55:28.000Z</time>
      </trkpt>
      <trkpt lat="47.59496" lon="6.75836">
        <ele>519</ele>
        <time>2016-10-23T08:55:29.000Z</time>
      </trkpt>
      <trkpt lat="47.59496" lon="6.75841">
        <ele>518</ele>
        <time>2016-10-23T08:55:30.000Z</time>
      </trkpt>
      <trkpt lat="47.59496" lon="6.75845">
        <ele>518</ele>
        <time>2016-10-23T08:55:31.000Z</time>
      </trkpt>
      <trkpt lat="47.59496" lon="6.75847">
        <ele>518</ele>
        <time>2016-10-23T08:55:32.000Z</time>
      </trkpt>
      <trkpt lat="47.59492" lon="6.75849">
        <ele>517</ele>
        <time>2016-10-23T08:55:35.000Z</time>
      </trkpt>
      <trkpt lat="47.59489" lon="6.75848">
        <ele>517</ele>
        <time>2016-10-23T08:55:36.000Z</time>
      </trkpt>
      <trkpt lat="47.59486" lon="6.75847">
        <ele>517</ele>
        <time>2016-10-23T08:55:37.000Z</time>
      </trkpt>
      <trkpt lat="47.59483" lon="6.75846">
        <ele>517</ele>
        <time>2016-10-23T08:55:38.000Z</time>
      </trkpt>
      <trkpt lat="47.59479" lon="6.75845">
        <ele>517</ele>
        <time>2016-10-23T08:55:39.000Z</time>
      </trkpt>
      <trkpt lat="47.59477" lon="6.75844">
        <ele>516</ele>
        <time>2016-10-23T08:55:40.000Z</time>
      </trkpt>
      <trkpt lat="47.59474" lon="6.75841">
        <ele>516</ele>
        <time>2016-10-23T08:55:41.000Z</time>
      </trkpt>
      <trkpt lat="47.59473" lon="6.75838">
        <ele>516</ele>
        <time>2016-10-23T08:55:42.000Z</time>
      </trkpt>
      <trkpt lat="47.59472" lon="6.75834">
        <ele>516</ele>
        <time>2016-10-23T08:55:43.000Z</time>
      </trkpt>
      <trkpt lat="47.59471" lon="6.7583">
        <ele>517</ele>
        <time>2016-10-23T08:55:44.000Z</time>
      </trkpt>
      <trkpt lat="47.59469" lon="6.75826">
        <ele>516</ele>
        <time>2016-10-23T08:55:45.000Z</time>
      </trkpt>
      <trkpt lat="47.59466" lon="6.75817">
        <ele>516</ele>
        <time>2016-10-23T08:55:47.000Z</time>
      </trkpt>
      <trkpt lat="47.59464" lon="6.75813">
        <ele>516</ele>
        <time>2016-10-23T08:55:48.000Z</time>
      </trkpt>
      <trkpt lat="47.59461" lon="6.75809">
        <ele>516</ele>
        <time>2016-10-23T08:55:49.000Z</time>
      </trkpt>
      <trkpt lat="47.59458" lon="6.75807">
        <ele>515</ele>
        <time>2016-10-23T08:55:50.000Z</time>
      </trkpt>
      <trkpt lat="47.59453" lon="6.75806">
        <ele>515</ele>
        <time>2016-10-23T08:55:51.000Z</time>
      </trkpt>
      <trkpt lat="47.59449" lon="6.75806">
        <ele>515</ele>
        <time>2016-10-23T08:55:52.000Z</time>
      </trkpt>
      <trkpt lat="47.59444" lon="6.75808">
        <ele>515</ele>
        <time>2016-10-23T08:55:53.000Z</time>
      </trkpt>
      <trkpt lat="47.5944" lon="6.7581">
        <ele>514</ele>
        <time>2016-10-23T08:55:54.000Z</time>
      </trkpt>
      <trkpt lat="47.59436" lon="6.75812">
        <ele>514</ele>
        <time>2016-10-23T08:55:55.000Z</time>
      </trkpt>
      <trkpt lat="47.59433" lon="6.75816">
        <ele>514</ele>
        <time>2016-10-23T08:55:57.000Z</time>
      </trkpt>
      <trkpt lat="47.59432" lon="6.75817">
        <ele>514</ele>
        <time>2016-10-23T08:55:58.000Z</time>
      </trkpt>
      <trkpt lat="47.59431" lon="6.75822">
        <ele>513</ele>
        <time>2016-10-23T08:56:03.000Z</time>
      </trkpt>
      <trkpt lat="47.59431" lon="6.75824">
        <ele>513</ele>
        <time>2016-10-23T08:56:04.000Z</time>
      </trkpt>
      <trkpt lat="47.59432" lon="6.7583">
        <ele>513</ele>
        <time>2016-10-23T08:56:07.000Z</time>
      </trkpt>
      <trkpt lat="47.59432" lon="6.75832">
        <ele>513</ele>
        <time>2016-10-23T08:56:08.000Z</time>
      </trkpt>
      <trkpt lat="47.59432" lon="6.75837">
        <ele>513</ele>
        <time>2016-10-23T08:56:10.000Z</time>
      </trkpt>
      <trkpt lat="47.59431" lon="6.7584">
        <ele>513</ele>
        <time>2016-10-23T08:56:11.000Z</time>
      </trkpt>
      <trkpt lat="47.59429" lon="6.75844">
        <ele>513</ele>
        <time>2016-10-23T08:56:12.000Z</time>
      </trkpt>
      <trkpt lat="47.59427" lon="6.75847">
        <ele>513</ele>
        <time>2016-10-23T08:56:13.000Z</time>
      </trkpt>
      <trkpt lat="47.59424" lon="6.7585">
        <ele>513</ele>
        <time>2016-10-23T08:56:14.000Z</time>
      </trkpt>
      <trkpt lat="47.59421" lon="6.75854">
        <ele>513</ele>
        <time>2016-10-23T08:56:15.000Z</time>
      </trkpt>
      <trkpt lat="47.59421" lon="6.75857">
        <ele>513</ele>
        <time>2016-10-23T08:56:16.000Z</time>
      </trkpt>
      <trkpt lat="47.59421" lon="6.7586">
        <ele>513</ele>
        <time>2016-10-23T08:56:17.000Z</time>
      </trkpt>
      <trkpt lat="47.59422" lon="6.75867">
        <ele>513</ele>
        <time>2016-10-23T08:56:19.000Z</time>
      </trkpt>
      <trkpt lat="47.59423" lon="6.75869">
        <ele>513</ele>
        <time>2016-10-23T08:56:20.000Z</time>
      </trkpt>
      <trkpt lat="47.59424" lon="6.75875">
        <ele>513</ele>
        <time>2016-10-23T08:56:22.000Z</time>
      </trkpt>
      <trkpt lat="47.59425" lon="6.75878">
        <ele>513</ele>
        <time>2016-10-23T08:56:23.000Z</time>
      </trkpt>
      <trkpt lat="47.59426" lon="6.75882">
        <ele>513</ele>
        <time>2016-10-23T08:56:24.000Z</time>
      </trkpt>
      <trkpt lat="47.59427" lon="6.75886">
        <ele>513</ele>
        <time>2016-10-23T08:56:25.000Z</time>
      </trkpt>
      <trkpt lat="47.59429" lon="6.75889">
        <ele>513</ele>
        <time>2016-10-23T08:56:26.000Z</time>
      </trkpt>
      <trkpt lat="47.59431" lon="6.75893">
        <ele>513</ele>
        <time>2016-10-23T08:56:27.000Z</time>
      </trkpt>
      <trkpt lat="47.59432" lon="6.75897">
        <ele>512</ele>
        <time>2016-10-23T08:56:28.000Z</time>
      </trkpt>
      <trkpt lat="47.59434" lon="6.75901">
        <ele>512</ele>
        <time>2016-10-23T08:56:29.000Z</time>
      </trkpt>
      <trkpt lat="47.59435" lon="6.75906">
        <ele>512</ele>
        <time>2016-10-23T08:56:30.000Z</time>
      </trkpt>
      <trkpt lat="47.59437" lon="6.7591">
        <ele>512</ele>
        <time>2016-10-23T08:56:31.000Z</time>
      </trkpt>
      <trkpt lat="47.59438" lon="6.75914">
        <ele>512</ele>
        <time>2016-10-23T08:56:32.000Z</time>
      </trkpt>
      <trkpt lat="47.59439" lon="6.75918">
        <ele>512</ele>
        <time>2016-10-23T08:56:33.000Z</time>
      </trkpt>
      <trkpt lat="47.5944" lon="6.75921">
        <ele>512</ele>
        <time>2016-10-23T08:56:34.000Z</time>
      </trkpt>
      <trkpt lat="47.59441" lon="6.75925">
        <ele>512</ele>
        <time>2016-10-23T08:56:35.000Z</time>
      </trkpt>
      <trkpt lat="47.59443" lon="6.75929">
        <ele>512</ele>
        <time>2016-10-23T08:56:36.000Z</time>
      </trkpt>
      <trkpt lat="47.59444" lon="6.75933">
        <ele>513</ele>
        <time>2016-10-23T08:56:37.000Z</time>
      </trkpt>
      <trkpt lat="47.59446" lon="6.75936">
        <ele>513</ele>
        <time>2016-10-23T08:56:38.000Z</time>
      </trkpt>
      <trkpt lat="47.59447" lon="6.7594">
        <ele>513</ele>
        <time>2016-10-23T08:56:39.000Z</time>
      </trkpt>
      <trkpt lat="47.59449" lon="6.75943">
        <ele>513</ele>
        <time>2016-10-23T08:56:40.000Z</time>
      </trkpt>
      <trkpt lat="47.59451" lon="6.75947">
        <ele>513</ele>
        <time>2016-10-23T08:56:41.000Z</time>
      </trkpt>
      <trkpt lat="47.59452" lon="6.75951">
        <ele>513</ele>
        <time>2016-10-23T08:56:42.000Z</time>
      </trkpt>
      <trkpt lat="47.59453" lon="6.75955">
        <ele>513</ele>
        <time>2016-10-23T08:56:43.000Z</time>
      </trkpt>
      <trkpt lat="47.59454" lon="6.7596">
        <ele>513</ele>
        <time>2016-10-23T08:56:44.000Z</time>
      </trkpt>
      <trkpt lat="47.59455" lon="6.75965">
        <ele>513</ele>
        <time>2016-10-23T08:56:45.000Z</time>
      </trkpt>
      <trkpt lat="47.59455" lon="6.75969">
        <ele>513</ele>
        <time>2016-10-23T08:56:46.000Z</time>
      </trkpt>
      <trkpt lat="47.59456" lon="6.75973">
        <ele>513</ele>
        <time>2016-10-23T08:56:47.000Z</time>
      </trkpt>
      <trkpt lat="47.59457" lon="6.75975">
        <ele>513</ele>
        <time>2016-10-23T08:56:48.000Z</time>
      </trkpt>
      <trkpt lat="47.59458" lon="6.75978">
        <ele>513</ele>
        <time>2016-10-23T08:56:49.000Z</time>
      </trkpt>
      <trkpt lat="47.5946" lon="6.75981">
        <ele>514</ele>
        <time>2016-10-23T08:56:50.000Z</time>
      </trkpt>
      <trkpt lat="47.59462" lon="6.75984">
        <ele>514</ele>
        <time>2016-10-23T08:56:51.000Z</time>
      </trkpt>
      <trkpt lat="47.59463" lon="6.75988">
        <ele>514</ele>
        <time>2016-10-23T08:56:52.000Z</time>
      </trkpt>
      <trkpt lat="47.59464" lon="6.75992">
        <ele>514</ele>
        <time>2016-10-23T08:56:53.000Z</time>
      </trkpt>
      <trkpt lat="47.59465" lon="6.75996">
        <ele>514</ele>
        <time>2016-10-23T08:56:54.000Z</time>
      </trkpt>
      <trkpt lat="47.59466" lon="6.76002">
        <ele>513</ele>
        <time>2016-10-23T08:56:55.000Z</time>
      </trkpt>
      <trkpt lat="47.59467" lon="6.76007">
        <ele>513</ele>
        <time>2016-10-23T08:56:56.000Z</time>
      </trkpt>
      <trkpt lat="47.59467" lon="6.76012">
        <ele>513</ele>
        <time>2016-10-23T08:56:57.000Z</time>
      </trkpt>
      <trkpt lat="47.59467" lon="6.76017">
        <ele>513</ele>
        <time>2016-10-23T08:56:58.000Z</time>
      </trkpt>
      <trkpt lat="47.59467" lon="6.76022">
        <ele>513</ele>
        <time>2016-10-23T08:56:59.000Z</time>
      </trkpt>
      <trkpt lat="47.59466" lon="6.76026">
        <ele>513</ele>
        <time>2016-10-23T08:57:00.001Z</time>
      </trkpt>
      <trkpt lat="47.59466" lon="6.76031">
        <ele>513</ele>
        <time>2016-10-23T08:57:01.000Z</time>
      </trkpt>
      <trkpt lat="47.59466" lon="6.76037">
        <ele>513</ele>
        <time>2016-10-23T08:57:02.000Z</time>
      </trkpt>
      <trkpt lat="47.59465" lon="6.76041">
        <ele>513</ele>
        <time>2016-10-23T08:57:03.000Z</time>
      </trkpt>
      <trkpt lat="47.59457" lon="6.76047">
        <ele>512</ele>
        <time>2016-10-23T08:57:04.000Z</time>
      </trkpt>
      <trkpt lat="47.59455" lon="6.76053">
        <ele>512</ele>
        <time>2016-10-23T08:57:05.000Z</time>
      </trkpt>
      <trkpt lat="47.59454" lon="6.76057">
        <ele>512</ele>
        <time>2016-10-23T08:57:06.000Z</time>
      </trkpt>
      <trkpt lat="47.59454" lon="6.76064">
        <ele>512</ele>
        <time>2016-10-23T08:57:07.000Z</time>
      </trkpt>
      <trkpt lat="47.59453" lon="6.76067">
        <ele>512</ele>
        <time>2016-10-23T08:57:08.000Z</time>
      </trkpt>
      <trkpt lat="47.5945" lon="6.76072">
        <ele>512</ele>
        <time>2016-10-23T08:57:10.000Z</time>
      </trkpt>
      <trkpt lat="47.59447" lon="6.76075">
        <ele>511</ele>
        <time>2016-10-23T08:57:11.000Z</time>
      </trkpt>
      <trkpt lat="47.59443" lon="6.76079">
        <ele>511</ele>
        <time>2016-10-23T08:57:12.000Z</time>
      </trkpt>
      <trkpt lat="47.59444" lon="6.76083">
        <ele>511</ele>
        <time>2016-10-23T08:57:13.000Z</time>
      </trkpt>
      <trkpt lat="47.59443" lon="6.76088">
        <ele>510</ele>
        <time>2016-10-23T08:57:14.000Z</time>
      </trkpt>
      <trkpt lat="47.59442" lon="6.76093">
        <ele>510</ele>
        <time>2016-10-23T08:57:15.000Z</time>
      </trkpt>
      <trkpt lat="47.59441" lon="6.76098">
        <ele>510</ele>
        <time>2016-10-23T08:57:16.000Z</time>
      </trkpt>
      <trkpt lat="47.5944" lon="6.76104">
        <ele>510</ele>
        <time>2016-10-23T08:57:17.000Z</time>
      </trkpt>
      <trkpt lat="47.5944" lon="6.7611">
        <ele>510</ele>
        <time>2016-10-23T08:57:18.000Z</time>
      </trkpt>
      <trkpt lat="47.5944" lon="6.76116">
        <ele>510</ele>
        <time>2016-10-23T08:57:19.000Z</time>
      </trkpt>
      <trkpt lat="47.59443" lon="6.7612">
        <ele>510</ele>
        <time>2016-10-23T08:57:23.000Z</time>
      </trkpt>
      <trkpt lat="47.59443" lon="6.76121">
        <ele>510</ele>
        <time>2016-10-23T08:57:24.000Z</time>
      </trkpt>
      <trkpt lat="47.59443" lon="6.76126">
        <ele>510</ele>
        <time>2016-10-23T08:57:27.000Z</time>
      </trkpt>
      <trkpt lat="47.59443" lon="6.76128">
        <ele>510</ele>
        <time>2016-10-23T08:57:28.000Z</time>
      </trkpt>
      <trkpt lat="47.59441" lon="6.76131">
        <ele>510</ele>
        <time>2016-10-23T08:57:29.000Z</time>
      </trkpt>
      <trkpt lat="47.5944" lon="6.76133">
        <ele>510</ele>
        <time>2016-10-23T08:57:30.000Z</time>
      </trkpt>
      <trkpt lat="47.59437" lon="6.76136">
        <ele>510</ele>
        <time>2016-10-23T08:57:31.000Z</time>
      </trkpt>
      <trkpt lat="47.59434" lon="6.76139">
        <ele>509</ele>
        <time>2016-10-23T08:57:32.000Z</time>
      </trkpt>
      <trkpt lat="47.59432" lon="6.76142">
        <ele>509</ele>
        <time>2016-10-23T08:57:33.000Z</time>
      </trkpt>
      <trkpt lat="47.5943" lon="6.76147">
        <ele>509</ele>
        <time>2016-10-23T08:57:34.000Z</time>
      </trkpt>
      <trkpt lat="47.59429" lon="6.76151">
        <ele>509</ele>
        <time>2016-10-23T08:57:35.000Z</time>
      </trkpt>
      <trkpt lat="47.59426" lon="6.76155">
        <ele>508</ele>
        <time>2016-10-23T08:57:36.000Z</time>
      </trkpt>
      <trkpt lat="47.59423" lon="6.76158">
        <ele>508</ele>
        <time>2016-10-23T08:57:37.000Z</time>
      </trkpt>
      <trkpt lat="47.5942" lon="6.76162">
        <ele>507</ele>
        <time>2016-10-23T08:57:38.000Z</time>
      </trkpt>
      <trkpt lat="47.59416" lon="6.76166">
        <ele>506</ele>
        <time>2016-10-23T08:57:39.000Z</time>
      </trkpt>
      <trkpt lat="47.59413" lon="6.7617">
        <ele>505</ele>
        <time>2016-10-23T08:57:40.000Z</time>
      </trkpt>
      <trkpt lat="47.59408" lon="6.76174">
        <ele>504</ele>
        <time>2016-10-23T08:57:41.000Z</time>
      </trkpt>
      <trkpt lat="47.59404" lon="6.76178">
        <ele>503</ele>
        <time>2016-10-23T08:57:42.000Z</time>
      </trkpt>
      <trkpt lat="47.594" lon="6.76183">
        <ele>503</ele>
        <time>2016-10-23T08:57:43.000Z</time>
      </trkpt>
      <trkpt lat="47.59396" lon="6.76188">
        <ele>502</ele>
        <time>2016-10-23T08:57:44.000Z</time>
      </trkpt>
      <trkpt lat="47.59393" lon="6.76194">
        <ele>502</ele>
        <time>2016-10-23T08:57:45.000Z</time>
      </trkpt>
      <trkpt lat="47.59391" lon="6.76201">
        <ele>502</ele>
        <time>2016-10-23T08:57:46.000Z</time>
      </trkpt>
      <trkpt lat="47.59391" lon="6.76209">
        <ele>502</ele>
        <time>2016-10-23T08:57:47.000Z</time>
      </trkpt>
      <trkpt lat="47.59392" lon="6.76216">
        <ele>502</ele>
        <time>2016-10-23T08:57:48.000Z</time>
      </trkpt>
      <trkpt lat="47.59393" lon="6.76223">
        <ele>502</ele>
        <time>2016-10-23T08:57:49.000Z</time>
      </trkpt>
      <trkpt lat="47.59395" lon="6.7623">
        <ele>502</ele>
        <time>2016-10-23T08:57:50.000Z</time>
      </trkpt>
      <trkpt lat="47.59396" lon="6.76237">
        <ele>502</ele>
        <time>2016-10-23T08:57:51.000Z</time>
      </trkpt>
      <trkpt lat="47.59399" lon="6.76245">
        <ele>503</ele>
        <time>2016-10-23T08:57:52.000Z</time>
      </trkpt>
      <trkpt lat="47.59402" lon="6.76252">
        <ele>502</ele>
        <time>2016-10-23T08:57:53.000Z</time>
      </trkpt>
      <trkpt lat="47.59405" lon="6.76259">
        <ele>502</ele>
        <time>2016-10-23T08:57:54.000Z</time>
      </trkpt>
      <trkpt lat="47.59408" lon="6.76265">
        <ele>501</ele>
        <time>2016-10-23T08:57:55.000Z</time>
      </trkpt>
      <trkpt lat="47.59411" lon="6.76271">
        <ele>501</ele>
        <time>2016-10-23T08:57:56.000Z</time>
      </trkpt>
      <trkpt lat="47.59412" lon="6.76275">
        <ele>501</ele>
        <time>2016-10-23T08:57:57.000Z</time>
      </trkpt>
      <trkpt lat="47.59413" lon="6.7628">
        <ele>500</ele>
        <time>2016-10-23T08:57:58.000Z</time>
      </trkpt>
      <trkpt lat="47.59414" lon="6.76285">
        <ele>500</ele>
        <time>2016-10-23T08:57:59.000Z</time>
      </trkpt>
      <trkpt lat="47.59415" lon="6.7629">
        <ele>500</ele>
        <time>2016-10-23T08:58:00.000Z</time>
      </trkpt>
      <trkpt lat="47.59416" lon="6.76296">
        <ele>500</ele>
        <time>2016-10-23T08:58:01.000Z</time>
      </trkpt>
      <trkpt lat="47.59417" lon="6.76302">
        <ele>500</ele>
        <time>2016-10-23T08:58:02.000Z</time>
      </trkpt>
      <trkpt lat="47.59417" lon="6.76308">
        <ele>500</ele>
        <time>2016-10-23T08:58:03.000Z</time>
      </trkpt>
      <trkpt lat="47.59417" lon="6.76313">
        <ele>500</ele>
        <time>2016-10-23T08:58:04.000Z</time>
      </trkpt>
      <trkpt lat="47.59417" lon="6.76319">
        <ele>504</ele>
        <time>2016-10-23T08:58:05.000Z</time>
      </trkpt>
      <trkpt lat="47.59418" lon="6.76325">
        <ele>504</ele>
        <time>2016-10-23T08:58:06.000Z</time>
      </trkpt>
      <trkpt lat="47.5942" lon="6.76332">
        <ele>503</ele>
        <time>2016-10-23T08:58:07.000Z</time>
      </trkpt>
      <trkpt lat="47.59422" lon="6.7634">
        <ele>503</ele>
        <time>2016-10-23T08:58:08.000Z</time>
      </trkpt>
      <trkpt lat="47.59424" lon="6.76348">
        <ele>503</ele>
        <time>2016-10-23T08:58:09.000Z</time>
      </trkpt>
      <trkpt lat="47.59426" lon="6.76356">
        <ele>503</ele>
        <time>2016-10-23T08:58:10.000Z</time>
      </trkpt>
      <trkpt lat="47.59429" lon="6.76363">
        <ele>503</ele>
        <time>2016-10-23T08:58:11.000Z</time>
      </trkpt>
      <trkpt lat="47.59431" lon="6.76371">
        <ele>503</ele>
        <time>2016-10-23T08:58:12.000Z</time>
      </trkpt>
      <trkpt lat="47.59432" lon="6.76379">
        <ele>503</ele>
        <time>2016-10-23T08:58:13.000Z</time>
      </trkpt>
      <trkpt lat="47.59434" lon="6.76386">
        <ele>503</ele>
        <time>2016-10-23T08:58:14.000Z</time>
      </trkpt>
      <trkpt lat="47.59435" lon="6.76392">
        <ele>503</ele>
        <time>2016-10-23T08:58:15.000Z</time>
      </trkpt>
      <trkpt lat="47.59438" lon="6.76399">
        <ele>502</ele>
        <time>2016-10-23T08:58:16.000Z</time>
      </trkpt>
      <trkpt lat="47.5944" lon="6.76405">
        <ele>502</ele>
        <time>2016-10-23T08:58:17.000Z</time>
      </trkpt>
      <trkpt lat="47.59442" lon="6.76411">
        <ele>502</ele>
        <time>2016-10-23T08:58:18.000Z</time>
      </trkpt>
      <trkpt lat="47.59444" lon="6.76416">
        <ele>502</ele>
        <time>2016-10-23T08:58:19.000Z</time>
      </trkpt>
      <trkpt lat="47.59447" lon="6.76421">
        <ele>501</ele>
        <time>2016-10-23T08:58:20.000Z</time>
      </trkpt>
      <trkpt lat="47.59449" lon="6.76424">
        <ele>501</ele>
        <time>2016-10-23T08:58:21.000Z</time>
      </trkpt>
      <trkpt lat="47.59451" lon="6.76428">
        <ele>501</ele>
        <time>2016-10-23T08:58:22.000Z</time>
      </trkpt>
      <trkpt lat="47.59454" lon="6.76431">
        <ele>501</ele>
        <time>2016-10-23T08:58:23.000Z</time>
      </trkpt>
      <trkpt lat="47.59456" lon="6.76433">
        <ele>502</ele>
        <time>2016-10-23T08:58:24.000Z</time>
      </trkpt>
      <trkpt lat="47.59459" lon="6.76435">
        <ele>502</ele>
        <time>2016-10-23T08:58:25.000Z</time>
      </trkpt>
      <trkpt lat="47.59462" lon="6.76436">
        <ele>502</ele>
        <time>2016-10-23T08:58:26.000Z</time>
      </trkpt>
      <trkpt lat="47.59465" lon="6.76438">
        <ele>502</ele>
        <time>2016-10-23T08:58:27.000Z</time>
      </trkpt>
      <trkpt lat="47.59467" lon="6.7644">
        <ele>502</ele>
        <time>2016-10-23T08:58:28.000Z</time>
      </trkpt>
      <trkpt lat="47.59469" lon="6.76442">
        <ele>502</ele>
        <time>2016-10-23T08:58:29.000Z</time>
      </trkpt>
      <trkpt lat="47.59472" lon="6.76445">
        <ele>503</ele>
        <time>2016-10-23T08:58:30.000Z</time>
      </trkpt>
      <trkpt lat="47.59474" lon="6.76447">
        <ele>503</ele>
        <time>2016-10-23T08:58:31.000Z</time>
      </trkpt>
      <trkpt lat="47.59476" lon="6.7645">
        <ele>503</ele>
        <time>2016-10-23T08:58:32.000Z</time>
      </trkpt>
      <trkpt lat="47.59477" lon="6.76453">
        <ele>503</ele>
        <time>2016-10-23T08:58:33.000Z</time>
      </trkpt>
      <trkpt lat="47.59479" lon="6.76455">
        <ele>503</ele>
        <time>2016-10-23T08:58:34.000Z</time>
      </trkpt>
      <trkpt lat="47.59481" lon="6.76457">
        <ele>503</ele>
        <time>2016-10-23T08:58:35.000Z</time>
      </trkpt>
      <trkpt lat="47.59483" lon="6.76458">
        <ele>503</ele>
        <time>2016-10-23T08:58:36.000Z</time>
      </trkpt>
      <trkpt lat="47.59486" lon="6.76459">
        <ele>503</ele>
        <time>2016-10-23T08:58:37.000Z</time>
      </trkpt>
      <trkpt lat="47.59488" lon="6.7646">
        <ele>503</ele>
        <time>2016-10-23T08:58:38.000Z</time>
      </trkpt>
      <trkpt lat="47.59492" lon="6.76462">
        <ele>503</ele>
        <time>2016-10-23T08:58:40.000Z</time>
      </trkpt>
      <trkpt lat="47.59494" lon="6.76463">
        <ele>503</ele>
        <time>2016-10-23T08:58:41.000Z</time>
      </trkpt>
      <trkpt lat="47.59496" lon="6.76464">
        <ele>503</ele>
        <time>2016-10-23T08:58:42.000Z</time>
      </trkpt>
      <trkpt lat="47.59499" lon="6.76465">
        <ele>503</ele>
        <time>2016-10-23T08:58:43.000Z</time>
      </trkpt>
      <trkpt lat="47.59501" lon="6.76466">
        <ele>509</ele>
        <time>2016-10-23T08:58:44.000Z</time>
      </trkpt>
      <trkpt lat="47.59503" lon="6.76467">
        <ele>509</ele>
        <time>2016-10-23T08:58:45.000Z</time>
      </trkpt>
      <trkpt lat="47.59505" lon="6.76469">
        <ele>509</ele>
        <time>2016-10-23T08:58:46.000Z</time>
      </trkpt>
      <trkpt lat="47.59507" lon="6.76471">
        <ele>509</ele>
        <time>2016-10-23T08:58:47.000Z</time>
      </trkpt>
      <trkpt lat="47.59511" lon="6.76475">
        <ele>509</ele>
        <time>2016-10-23T08:58:49.000Z</time>
      </trkpt>
      <trkpt lat="47.59513" lon="6.76476">
        <ele>509</ele>
        <time>2016-10-23T08:58:50.000Z</time>
      </trkpt>
      <trkpt lat="47.59515" lon="6.76477">
        <ele>509</ele>
        <time>2016-10-23T08:58:51.000Z</time>
      </trkpt>
      <trkpt lat="47.59517" lon="6.76478">
        <ele>509</ele>
        <time>2016-10-23T08:58:52.000Z</time>
      </trkpt>
      <trkpt lat="47.59521" lon="6.7648">
        <ele>509</ele>
        <time>2016-10-23T08:58:54.000Z</time>
      </trkpt>
      <trkpt lat="47.59523" lon="6.76482">
        <ele>509</ele>
        <time>2016-10-23T08:58:55.000Z</time>
      </trkpt>
      <trkpt lat="47.59525" lon="6.76484">
        <ele>509</ele>
        <time>2016-10-23T08:58:56.000Z</time>
      </trkpt>
      <trkpt lat="47.59527" lon="6.76485">
        <ele>509</ele>
        <time>2016-10-23T08:58:57.000Z</time>
      </trkpt>
      <trkpt lat="47.5953" lon="6.76487">
        <ele>509</ele>
        <time>2016-10-23T08:58:58.000Z</time>
      </trkpt>
      <trkpt lat="47.59532" lon="6.76488">
        <ele>509</ele>
        <time>2016-10-23T08:58:59.000Z</time>
      </trkpt>
      <trkpt lat="47.59534" lon="6.76489">
        <ele>510</ele>
        <time>2016-10-23T08:59:00.000Z</time>
      </trkpt>
      <trkpt lat="47.59536" lon="6.7649">
        <ele>510</ele>
        <time>2016-10-23T08:59:01.000Z</time>
      </trkpt>
      <trkpt lat="47.59538" lon="6.76491">
        <ele>510</ele>
        <time>2016-10-23T08:59:02.000Z</time>
      </trkpt>
      <trkpt lat="47.5954" lon="6.76493">
        <ele>510</ele>
        <time>2016-10-23T08:59:03.000Z</time>
      </trkpt>
      <trkpt lat="47.59542" lon="6.76494">
        <ele>510</ele>
        <time>2016-10-23T08:59:04.000Z</time>
      </trkpt>
      <trkpt lat="47.59545" lon="6.76496">
        <ele>510</ele>
        <time>2016-10-23T08:59:05.000Z</time>
      </trkpt>
      <trkpt lat="47.59547" lon="6.76497">
        <ele>510</ele>
        <time>2016-10-23T08:59:06.000Z</time>
      </trkpt>
      <trkpt lat="47.59549" lon="6.76497">
        <ele>510</ele>
        <time>2016-10-23T08:59:07.000Z</time>
      </trkpt>
      <trkpt lat="47.59551" lon="6.76497">
        <ele>511</ele>
        <time>2016-10-23T08:59:08.000Z</time>
      </trkpt>
      <trkpt lat="47.59554" lon="6.76497">
        <ele>511</ele>
        <time>2016-10-23T08:59:09.000Z</time>
      </trkpt>
      <trkpt lat="47.59558" lon="6.765">
        <ele>511</ele>
        <time>2016-10-23T08:59:11.000Z</time>
      </trkpt>
      <trkpt lat="47.59559" lon="6.76502">
        <ele>510</ele>
        <time>2016-10-23T08:59:12.000Z</time>
      </trkpt>
      <trkpt lat="47.5956" lon="6.76505">
        <ele>510</ele>
        <time>2016-10-23T08:59:13.000Z</time>
      </trkpt>
      <trkpt lat="47.59561" lon="6.76508">
        <ele>510</ele>
        <time>2016-10-23T08:59:14.000Z</time>
      </trkpt>
      <trkpt lat="47.59563" lon="6.76512">
        <ele>510</ele>
        <time>2016-10-23T08:59:15.000Z</time>
      </trkpt>
      <trkpt lat="47.59564" lon="6.76515">
        <ele>510</ele>
        <time>2016-10-23T08:59:16.000Z</time>
      </trkpt>
      <trkpt lat="47.59568" lon="6.76517">
        <ele>510</ele>
        <time>2016-10-23T08:59:18.000Z</time>
      </trkpt>
      <trkpt lat="47.59569" lon="6.76518">
        <ele>510</ele>
        <time>2016-10-23T08:59:19.000Z</time>
      </trkpt>
      <trkpt lat="47.59573" lon="6.7652">
        <ele>510</ele>
        <time>2016-10-23T08:59:21.000Z</time>
      </trkpt>
      <trkpt lat="47.59575" lon="6.76522">
        <ele>510</ele>
        <time>2016-10-23T08:59:22.000Z</time>
      </trkpt>
      <trkpt lat="47.59579" lon="6.76524">
        <ele>510</ele>
        <time>2016-10-23T08:59:24.000Z</time>
      </trkpt>
      <trkpt lat="47.59581" lon="6.76525">
        <ele>510</ele>
        <time>2016-10-23T08:59:25.000Z</time>
      </trkpt>
      <trkpt lat="47.59585" lon="6.76528">
        <ele>514</ele>
        <time>2016-10-23T08:59:27.000Z</time>
      </trkpt>
      <trkpt lat="47.59587" lon="6.7653">
        <ele>514</ele>
        <time>2016-10-23T08:59:28.000Z</time>
      </trkpt>
      <trkpt lat="47.5959" lon="6.76533">
        <ele>514</ele>
        <time>2016-10-23T08:59:30.000Z</time>
      </trkpt>
      <trkpt lat="47.59592" lon="6.76534">
        <ele>514</ele>
        <time>2016-10-23T08:59:31.000Z</time>
      </trkpt>
      <trkpt lat="47.59596" lon="6.76534">
        <ele>514</ele>
        <time>2016-10-23T08:59:33.000Z</time>
      </trkpt>
      <trkpt lat="47.59599" lon="6.76533">
        <ele>514</ele>
        <time>2016-10-23T08:59:34.000Z</time>
      </trkpt>
      <trkpt lat="47.59603" lon="6.76532">
        <ele>514</ele>
        <time>2016-10-23T08:59:36.000Z</time>
      </trkpt>
      <trkpt lat="47.59605" lon="6.76533">
        <ele>514</ele>
        <time>2016-10-23T08:59:37.000Z</time>
      </trkpt>
      <trkpt lat="47.59609" lon="6.76535">
        <ele>514</ele>
        <time>2016-10-23T08:59:39.000Z</time>
      </trkpt>
      <trkpt lat="47.5961" lon="6.76537">
        <ele>514</ele>
        <time>2016-10-23T08:59:40.000Z</time>
      </trkpt>
      <trkpt lat="47.59614" lon="6.76539">
        <ele>514</ele>
        <time>2016-10-23T08:59:42.000Z</time>
      </trkpt>
      <trkpt lat="47.59616" lon="6.76539">
        <ele>514</ele>
        <time>2016-10-23T08:59:43.000Z</time>
      </trkpt>
      <trkpt lat="47.59619" lon="6.76543">
        <ele>514</ele>
        <time>2016-10-23T08:59:45.000Z</time>
      </trkpt>
      <trkpt lat="47.59621" lon="6.76546">
        <ele>514</ele>
        <time>2016-10-23T08:59:46.000Z</time>
      </trkpt>
      <trkpt lat="47.59623" lon="6.76551">
        <ele>514</ele>
        <time>2016-10-23T08:59:48.000Z</time>
      </trkpt>
      <trkpt lat="47.59624" lon="6.76553">
        <ele>514</ele>
        <time>2016-10-23T08:59:49.000Z</time>
      </trkpt>
      <trkpt lat="47.59628" lon="6.76555">
        <ele>514</ele>
        <time>2016-10-23T08:59:51.000Z</time>
      </trkpt>
      <trkpt lat="47.5963" lon="6.76555">
        <ele>514</ele>
        <time>2016-10-23T08:59:52.000Z</time>
      </trkpt>
      <trkpt lat="47.59632" lon="6.76557">
        <ele>514</ele>
        <time>2016-10-23T08:59:53.000Z</time>
      </trkpt>
      <trkpt lat="47.59634" lon="6.76559">
        <ele>514</ele>
        <time>2016-10-23T08:59:54.000Z</time>
      </trkpt>
      <trkpt lat="47.59637" lon="6.76562">
        <ele>514</ele>
        <time>2016-10-23T08:59:55.000Z</time>
      </trkpt>
      <trkpt lat="47.5964" lon="6.76565">
        <ele>514</ele>
        <time>2016-10-23T08:59:56.000Z</time>
      </trkpt>
      <trkpt lat="47.59643" lon="6.76568">
        <ele>514</ele>
        <time>2016-10-23T08:59:57.000Z</time>
      </trkpt>
      <trkpt lat="47.59645" lon="6.76571">
        <ele>514</ele>
        <time>2016-10-23T08:59:58.000Z</time>
      </trkpt>
      <trkpt lat="47.59648" lon="6.76573">
        <ele>515</ele>
        <time>2016-10-23T08:59:59.000Z</time>
      </trkpt>
      <trkpt lat="47.5965" lon="6.76575">
        <ele>515</ele>
        <time>2016-10-23T09:00:00.000Z</time>
      </trkpt>
      <trkpt lat="47.59653" lon="6.76577">
        <ele>515</ele>
        <time>2016-10-23T09:00:01.000Z</time>
      </trkpt>
      <trkpt lat="47.59655" lon="6.76579">
        <ele>515</ele>
        <time>2016-10-23T09:00:02.000Z</time>
      </trkpt>
      <trkpt lat="47.59658" lon="6.76581">
        <ele>515</ele>
        <time>2016-10-23T09:00:03.000Z</time>
      </trkpt>
      <trkpt lat="47.5966" lon="6.76583">
        <ele>515</ele>
        <time>2016-10-23T09:00:04.000Z</time>
      </trkpt>
      <trkpt lat="47.59663" lon="6.76584">
        <ele>514</ele>
        <time>2016-10-23T09:00:05.000Z</time>
      </trkpt>
      <trkpt lat="47.59665" lon="6.76585">
        <ele>515</ele>
        <time>2016-10-23T09:00:06.000Z</time>
      </trkpt>
      <trkpt lat="47.59668" lon="6.76585">
        <ele>515</ele>
        <time>2016-10-23T09:00:07.000Z</time>
      </trkpt>
      <trkpt lat="47.59671" lon="6.76583">
        <ele>515</ele>
        <time>2016-10-23T09:00:08.000Z</time>
      </trkpt>
      <trkpt lat="47.59674" lon="6.76582">
        <ele>516</ele>
        <time>2016-10-23T09:00:09.000Z</time>
      </trkpt>
      <trkpt lat="47.59678" lon="6.7658">
        <ele>516</ele>
        <time>2016-10-23T09:00:10.000Z</time>
      </trkpt>
      <trkpt lat="47.59681" lon="6.76581">
        <ele>516</ele>
        <time>2016-10-23T09:00:11.000Z</time>
      </trkpt>
      <trkpt lat="47.59683" lon="6.76584">
        <ele>514</ele>
        <time>2016-10-23T09:00:12.000Z</time>
      </trkpt>
      <trkpt lat="47.59685" lon="6.76588">
        <ele>514</ele>
        <time>2016-10-23T09:00:13.000Z</time>
      </trkpt>
      <trkpt lat="47.59687" lon="6.76591">
        <ele>514</ele>
        <time>2016-10-23T09:00:14.000Z</time>
      </trkpt>
      <trkpt lat="47.59688" lon="6.76595">
        <ele>514</ele>
        <time>2016-10-23T09:00:15.000Z</time>
      </trkpt>
      <trkpt lat="47.5969" lon="6.76598">
        <ele>514</ele>
        <time>2016-10-23T09:00:16.000Z</time>
      </trkpt>
      <trkpt lat="47.59692" lon="6.76601">
        <ele>514</ele>
        <time>2016-10-23T09:00:17.000Z</time>
      </trkpt>
      <trkpt lat="47.59694" lon="6.76604">
        <ele>513</ele>
        <time>2016-10-23T09:00:18.000Z</time>
      </trkpt>
      <trkpt lat="47.59697" lon="6.76607">
        <ele>513</ele>
        <time>2016-10-23T09:00:19.000Z</time>
      </trkpt>
      <trkpt lat="47.59701" lon="6.7661">
        <ele>513</ele>
        <time>2016-10-23T09:00:20.000Z</time>
      </trkpt>
      <trkpt lat="47.59705" lon="6.76611">
        <ele>513</ele>
        <time>2016-10-23T09:00:21.000Z</time>
      </trkpt>
      <trkpt lat="47.59709" lon="6.76612">
        <ele>513</ele>
        <time>2016-10-23T09:00:22.000Z</time>
      </trkpt>
      <trkpt lat="47.59713" lon="6.76613">
        <ele>513</ele>
        <time>2016-10-23T09:00:23.000Z</time>
      </trkpt>
      <trkpt lat="47.59717" lon="6.76613">
        <ele>513</ele>
        <time>2016-10-23T09:00:24.000Z</time>
      </trkpt>
      <trkpt lat="47.5972" lon="6.76614">
        <ele>513</ele>
        <time>2016-10-23T09:00:25.000Z</time>
      </trkpt>
      <trkpt lat="47.59723" lon="6.76615">
        <ele>513</ele>
        <time>2016-10-23T09:00:26.000Z</time>
      </trkpt>
      <trkpt lat="47.59726" lon="6.76619">
        <ele>513</ele>
        <time>2016-10-23T09:00:36.000Z</time>
      </trkpt>
      <trkpt lat="47.59728" lon="6.7662">
        <ele>513</ele>
        <time>2016-10-23T09:00:37.000Z</time>
      </trkpt>
      <trkpt lat="47.59731" lon="6.76622">
        <ele>513</ele>
        <time>2016-10-23T09:00:39.000Z</time>
      </trkpt>
      <trkpt lat="47.59734" lon="6.76624">
        <ele>513</ele>
        <time>2016-10-23T09:00:40.000Z</time>
      </trkpt>
      <trkpt lat="47.59736" lon="6.76626">
        <ele>513</ele>
        <time>2016-10-23T09:00:41.000Z</time>
      </trkpt>
      <trkpt lat="47.59738" lon="6.76628">
        <ele>513</ele>
        <time>2016-10-23T09:00:42.000Z</time>
      </trkpt>
      <trkpt lat="47.59738" lon="6.76633">
        <ele>512</ele>
        <time>2016-10-23T09:00:44.000Z</time>
      </trkpt>
      <trkpt lat="47.59737" lon="6.76635">
        <ele>512</ele>
        <time>2016-10-23T09:00:45.000Z</time>
      </trkpt>
      <trkpt lat="47.59734" lon="6.76639">
        <ele>512</ele>
        <time>2016-10-23T09:00:51.000Z</time>
      </trkpt>
      <trkpt lat="47.59734" lon="6.76641">
        <ele>512</ele>
        <time>2016-10-23T09:00:52.000Z</time>
      </trkpt>
      <trkpt lat="47.59734" lon="6.76644">
        <ele>512</ele>
        <time>2016-10-23T09:00:53.000Z</time>
      </trkpt>
      <trkpt lat="47.59734" lon="6.76648">
        <ele>511</ele>
        <time>2016-10-23T09:00:54.000Z</time>
      </trkpt>
      <trkpt lat="47.59733" lon="6.76653">
        <ele>511</ele>
        <time>2016-10-23T09:00:55.000Z</time>
      </trkpt>
      <trkpt lat="47.59732" lon="6.76659">
        <ele>511</ele>
        <time>2016-10-23T09:00:56.000Z</time>
      </trkpt>
      <trkpt lat="47.59731" lon="6.76664">
        <ele>511</ele>
        <time>2016-10-23T09:00:57.000Z</time>
      </trkpt>
      <trkpt lat="47.5973" lon="6.7667">
        <ele>508</ele>
        <time>2016-10-23T09:00:58.000Z</time>
      </trkpt>
      <trkpt lat="47.59729" lon="6.76675">
        <ele>508</ele>
        <time>2016-10-23T09:00:59.000Z</time>
      </trkpt>
      <trkpt lat="47.59727" lon="6.76679">
        <ele>508</ele>
        <time>2016-10-23T09:01:00.000Z</time>
      </trkpt>
      <trkpt lat="47.59726" lon="6.76683">
        <ele>508</ele>
        <time>2016-10-23T09:01:01.000Z</time>
      </trkpt>
      <trkpt lat="47.59725" lon="6.76687">
        <ele>508</ele>
        <time>2016-10-23T09:01:02.000Z</time>
      </trkpt>
      <trkpt lat="47.59724" lon="6.76691">
        <ele>508</ele>
        <time>2016-10-23T09:01:03.000Z</time>
      </trkpt>
      <trkpt lat="47.59724" lon="6.76696">
        <ele>508</ele>
        <time>2016-10-23T09:01:04.000Z</time>
      </trkpt>
      <trkpt lat="47.59724" lon="6.76701">
        <ele>507</ele>
        <time>2016-10-23T09:01:05.000Z</time>
      </trkpt>
      <trkpt lat="47.59723" lon="6.76706">
        <ele>507</ele>
        <time>2016-10-23T09:01:06.000Z</time>
      </trkpt>
      <trkpt lat="47.5972" lon="6.7671">
        <ele>507</ele>
        <time>2016-10-23T09:01:07.000Z</time>
      </trkpt>
      <trkpt lat="47.59718" lon="6.76715">
        <ele>507</ele>
        <time>2016-10-23T09:01:08.000Z</time>
      </trkpt>
      <trkpt lat="47.59716" lon="6.76719">
        <ele>507</ele>
        <time>2016-10-23T09:01:09.000Z</time>
      </trkpt>
      <trkpt lat="47.59715" lon="6.76722">
        <ele>507</ele>
        <time>2016-10-23T09:01:10.000Z</time>
      </trkpt>
      <trkpt lat="47.59717" lon="6.76727">
        <ele>507</ele>
        <time>2016-10-23T09:01:14.000Z</time>
      </trkpt>
      <trkpt lat="47.59717" lon="6.76728">
        <ele>507</ele>
        <time>2016-10-23T09:01:15.000Z</time>
      </trkpt>
      <trkpt lat="47.59718" lon="6.76734">
        <ele>507</ele>
        <time>2016-10-23T09:01:22.000Z</time>
      </trkpt>
      <trkpt lat="47.59718" lon="6.76735">
        <ele>506</ele>
        <time>2016-10-23T09:01:23.000Z</time>
      </trkpt>
      <trkpt lat="47.59717" lon="6.76739">
        <ele>506</ele>
        <time>2016-10-23T09:01:25.000Z</time>
      </trkpt>
      <trkpt lat="47.59716" lon="6.76743">
        <ele>506</ele>
        <time>2016-10-23T09:01:26.000Z</time>
      </trkpt>
      <trkpt lat="47.59715" lon="6.76749">
        <ele>506</ele>
        <time>2016-10-23T09:01:27.000Z</time>
      </trkpt>
      <trkpt lat="47.59714" lon="6.76756">
        <ele>503</ele>
        <time>2016-10-23T09:01:28.000Z</time>
      </trkpt>
      <trkpt lat="47.59711" lon="6.76763">
        <ele>503</ele>
        <time>2016-10-23T09:01:29.000Z</time>
      </trkpt>
      <trkpt lat="47.59709" lon="6.7677">
        <ele>503</ele>
        <time>2016-10-23T09:01:30.000Z</time>
      </trkpt>
      <trkpt lat="47.59706" lon="6.76775">
        <ele>503</ele>
        <time>2016-10-23T09:01:31.000Z</time>
      </trkpt>
      <trkpt lat="47.59703" lon="6.76779">
        <ele>503</ele>
        <time>2016-10-23T09:01:32.000Z</time>
      </trkpt>
      <trkpt lat="47.597" lon="6.76781">
        <ele>503</ele>
        <time>2016-10-23T09:01:33.000Z</time>
      </trkpt>
      <trkpt lat="47.59697" lon="6.76786">
        <ele>503</ele>
        <time>2016-10-23T09:01:36.000Z</time>
      </trkpt>
      <trkpt lat="47.59698" lon="6.76788">
        <ele>503</ele>
        <time>2016-10-23T09:01:37.000Z</time>
      </trkpt>
      <trkpt lat="47.597" lon="6.76791">
        <ele>503</ele>
        <time>2016-10-23T09:01:38.000Z</time>
      </trkpt>
      <trkpt lat="47.59702" lon="6.76794">
        <ele>503</ele>
        <time>2016-10-23T09:01:39.000Z</time>
      </trkpt>
      <trkpt lat="47.59704" lon="6.76798">
        <ele>502</ele>
        <time>2016-10-23T09:01:40.000Z</time>
      </trkpt>
      <trkpt lat="47.59706" lon="6.768">
        <ele>502</ele>
        <time>2016-10-23T09:01:41.000Z</time>
      </trkpt>
      <trkpt lat="47.59708" lon="6.76806">
        <ele>502</ele>
        <time>2016-10-23T09:01:44.000Z</time>
      </trkpt>
      <trkpt lat="47.59708" lon="6.76807">
        <ele>502</ele>
        <time>2016-10-23T09:01:45.000Z</time>
      </trkpt>
      <trkpt lat="47.59704" lon="6.76806">
        <ele>502</ele>
        <time>2016-10-23T09:01:57.000Z</time>
      </trkpt>
      <trkpt lat="47.59703" lon="6.76806">
        <ele>502</ele>
        <time>2016-10-23T09:01:58.000Z</time>
      </trkpt>
      <trkpt lat="47.59705" lon="6.7681">
        <ele>502</ele>
        <time>2016-10-23T09:02:03.000Z</time>
      </trkpt>
      <trkpt lat="47.59707" lon="6.76812">
        <ele>502</ele>
        <time>2016-10-23T09:02:04.000Z</time>
      </trkpt>
      <trkpt lat="47.59708" lon="6.76815">
        <ele>502</ele>
        <time>2016-10-23T09:02:05.000Z</time>
      </trkpt>
      <trkpt lat="47.5971" lon="6.76817">
        <ele>502</ele>
        <time>2016-10-23T09:02:06.000Z</time>
      </trkpt>
      <trkpt lat="47.59712" lon="6.7682">
        <ele>502</ele>
        <time>2016-10-23T09:02:07.000Z</time>
      </trkpt>
      <trkpt lat="47.59714" lon="6.76823">
        <ele>501</ele>
        <time>2016-10-23T09:02:08.000Z</time>
      </trkpt>
      <trkpt lat="47.59716" lon="6.76827">
        <ele>501</ele>
        <time>2016-10-23T09:02:09.000Z</time>
      </trkpt>
      <trkpt lat="47.59717" lon="6.76831">
        <ele>501</ele>
        <time>2016-10-23T09:02:10.000Z</time>
      </trkpt>
      <trkpt lat="47.59718" lon="6.76834">
        <ele>498</ele>
        <time>2016-10-23T09:02:11.000Z</time>
      </trkpt>
      <trkpt lat="47.59719" lon="6.76837">
        <ele>498</ele>
        <time>2016-10-23T09:02:12.000Z</time>
      </trkpt>
      <trkpt lat="47.59715" lon="6.76841">
        <ele>498</ele>
        <time>2016-10-23T09:02:18.000Z</time>
      </trkpt>
      <trkpt lat="47.59714" lon="6.76841">
        <ele>498</ele>
        <time>2016-10-23T09:02:19.000Z</time>
      </trkpt>
      <trkpt lat="47.5971" lon="6.76839">
        <ele>498</ele>
        <time>2016-10-23T09:02:23.000Z</time>
      </trkpt>
      <trkpt lat="47.59709" lon="6.76838">
        <ele>498</ele>
        <time>2016-10-23T09:02:24.000Z</time>
      </trkpt>
      <trkpt lat="47.59706" lon="6.76837">
        <ele>498</ele>
        <time>2016-10-23T09:02:26.000Z</time>
      </trkpt>
      <trkpt lat="47.59704" lon="6.76836">
        <ele>498</ele>
        <time>2016-10-23T09:02:27.000Z</time>
      </trkpt>
      <trkpt lat="47.59701" lon="6.76834">
        <ele>499</ele>
        <time>2016-10-23T09:02:31.000Z</time>
      </trkpt>
      <trkpt lat="47.597" lon="6.76834">
        <ele>499</ele>
        <time>2016-10-23T09:02:32.000Z</time>
      </trkpt>
      <trkpt lat="47.59695" lon="6.76834">
        <ele>499</ele>
        <time>2016-10-23T09:02:37.000Z</time>
      </trkpt>
      <trkpt lat="47.59694" lon="6.76833">
        <ele>502</ele>
        <time>2016-10-23T09:02:38.000Z</time>
      </trkpt>
      <trkpt lat="47.59691" lon="6.76829">
        <ele>502</ele>
        <time>2016-10-23T09:02:41.000Z</time>
      </trkpt>
      <trkpt lat="47.59691" lon="6.76828">
        <ele>502</ele>
        <time>2016-10-23T09:02:42.000Z</time>
      </trkpt>
      <trkpt lat="47.5969" lon="6.76822">
        <ele>502</ele>
        <time>2016-10-23T09:02:46.000Z</time>
      </trkpt>
      <trkpt lat="47.59689" lon="6.7682">
        <ele>502</ele>
        <time>2016-10-23T09:02:47.000Z</time>
      </trkpt>
      <trkpt lat="47.59687" lon="6.76815">
        <ele>502</ele>
        <time>2016-10-23T09:02:50.000Z</time>
      </trkpt>
      <trkpt lat="47.59687" lon="6.76814">
        <ele>502</ele>
        <time>2016-10-23T09:02:51.000Z</time>
      </trkpt>
      <trkpt lat="47.59686" lon="6.76808">
        <ele>502</ele>
        <time>2016-10-23T09:02:54.000Z</time>
      </trkpt>
      <trkpt lat="47.59685" lon="6.76807">
        <ele>503</ele>
        <time>2016-10-23T09:02:55.000Z</time>
      </trkpt>
      <trkpt lat="47.59682" lon="6.76803">
        <ele>503</ele>
        <time>2016-10-23T09:02:58.000Z</time>
      </trkpt>
      <trkpt lat="47.59681" lon="6.76803">
        <ele>503</ele>
        <time>2016-10-23T09:02:59.000Z</time>
      </trkpt>
      <trkpt lat="47.59678" lon="6.768">
        <ele>503</ele>
        <time>2016-10-23T09:03:05.000Z</time>
      </trkpt>
      <trkpt lat="47.59676" lon="6.76798">
        <ele>503</ele>
        <time>2016-10-23T09:03:06.000Z</time>
      </trkpt>
      <trkpt lat="47.59673" lon="6.76794">
        <ele>503</ele>
        <time>2016-10-23T09:03:08.000Z</time>
      </trkpt>
      <trkpt lat="47.59671" lon="6.76792">
        <ele>503</ele>
        <time>2016-10-23T09:03:09.000Z</time>
      </trkpt>
      <trkpt lat="47.59668" lon="6.7679">
        <ele>503</ele>
        <time>2016-10-23T09:03:10.000Z</time>
      </trkpt>
      <trkpt lat="47.59666" lon="6.76788">
        <ele>503</ele>
        <time>2016-10-23T09:03:11.000Z</time>
      </trkpt>
      <trkpt lat="47.59662" lon="6.76786">
        <ele>503</ele>
        <time>2016-10-23T09:03:12.000Z</time>
      </trkpt>
      <trkpt lat="47.59659" lon="6.76784">
        <ele>503</ele>
        <time>2016-10-23T09:03:13.000Z</time>
      </trkpt>
      <trkpt lat="47.59656" lon="6.76783">
        <ele>503</ele>
        <time>2016-10-23T09:03:14.000Z</time>
      </trkpt>
      <trkpt lat="47.59652" lon="6.7678">
        <ele>503</ele>
        <time>2016-10-23T09:03:15.000Z</time>
      </trkpt>
      <trkpt lat="47.59648" lon="6.76776">
        <ele>503</ele>
        <time>2016-10-23T09:03:16.000Z</time>
      </trkpt>
      <trkpt lat="47.59644" lon="6.76772">
        <ele>503</ele>
        <time>2016-10-23T09:03:17.000Z</time>
      </trkpt>
      <trkpt lat="47.59639" lon="6.76769">
        <ele>503</ele>
        <time>2016-10-23T09:03:18.000Z</time>
      </trkpt>
      <trkpt lat="47.59635" lon="6.76766">
        <ele>503</ele>
        <time>2016-10-23T09:03:19.000Z</time>
      </trkpt>
      <trkpt lat="47.59631" lon="6.76765">
        <ele>503</ele>
        <time>2016-10-23T09:03:20.000Z</time>
      </trkpt>
      <trkpt lat="47.59628" lon="6.76763">
        <ele>502</ele>
        <time>2016-10-23T09:03:21.000Z</time>
      </trkpt>
      <trkpt lat="47.59626" lon="6.76762">
        <ele>502</ele>
        <time>2016-10-23T09:03:22.000Z</time>
      </trkpt>
      <trkpt lat="47.59624" lon="6.7676">
        <ele>502</ele>
        <time>2016-10-23T09:03:23.000Z</time>
      </trkpt>
      <trkpt lat="47.59622" lon="6.76758">
        <ele>502</ele>
        <time>2016-10-23T09:03:24.000Z</time>
      </trkpt>
      <trkpt lat="47.5962" lon="6.76756">
        <ele>502</ele>
        <time>2016-10-23T09:03:25.000Z</time>
      </trkpt>
      <trkpt lat="47.59617" lon="6.76754">
        <ele>502</ele>
        <time>2016-10-23T09:03:26.000Z</time>
      </trkpt>
      <trkpt lat="47.59615" lon="6.76751">
        <ele>502</ele>
        <time>2016-10-23T09:03:27.000Z</time>
      </trkpt>
      <trkpt lat="47.59612" lon="6.76749">
        <ele>505</ele>
        <time>2016-10-23T09:03:28.000Z</time>
      </trkpt>
      <trkpt lat="47.59609" lon="6.76746">
        <ele>505</ele>
        <time>2016-10-23T09:03:29.000Z</time>
      </trkpt>
      <trkpt lat="47.59607" lon="6.76743">
        <ele>505</ele>
        <time>2016-10-23T09:03:30.000Z</time>
      </trkpt>
      <trkpt lat="47.59605" lon="6.76739">
        <ele>505</ele>
        <time>2016-10-23T09:03:31.000Z</time>
      </trkpt>
      <trkpt lat="47.59602" lon="6.76734">
        <ele>505</ele>
        <time>2016-10-23T09:03:32.000Z</time>
      </trkpt>
      <trkpt lat="47.596" lon="6.76731">
        <ele>505</ele>
        <time>2016-10-23T09:03:33.000Z</time>
      </trkpt>
      <trkpt lat="47.59597" lon="6.76728">
        <ele>505</ele>
        <time>2016-10-23T09:03:34.000Z</time>
      </trkpt>
      <trkpt lat="47.59594" lon="6.76725">
        <ele>505</ele>
        <time>2016-10-23T09:03:35.000Z</time>
      </trkpt>
      <trkpt lat="47.5959" lon="6.76724">
        <ele>505</ele>
        <time>2016-10-23T09:03:36.000Z</time>
      </trkpt>
      <trkpt lat="47.59588" lon="6.76724">
        <ele>505</ele>
        <time>2016-10-23T09:03:37.000Z</time>
      </trkpt>
      <trkpt lat="47.59585" lon="6.76723">
        <ele>505</ele>
        <time>2016-10-23T09:03:38.000Z</time>
      </trkpt>
      <trkpt lat="47.59582" lon="6.76724">
        <ele>500</ele>
        <time>2016-10-23T09:03:39.000Z</time>
      </trkpt>
      <trkpt lat="47.59579" lon="6.76726">
        <ele>500</ele>
        <time>2016-10-23T09:03:41.000Z</time>
      </trkpt>
      <trkpt lat="47.59577" lon="6.76727">
        <ele>500</ele>
        <time>2016-10-23T09:03:42.000Z</time>
      </trkpt>
      <trkpt lat="47.59575" lon="6.76731">
        <ele>500</ele>
        <time>2016-10-23T09:03:43.000Z</time>
      </trkpt>
      <trkpt lat="47.59572" lon="6.76735">
        <ele>500</ele>
        <time>2016-10-23T09:03:44.000Z</time>
      </trkpt>
      <trkpt lat="47.5957" lon="6.76739">
        <ele>500</ele>
        <time>2016-10-23T09:03:45.000Z</time>
      </trkpt>
      <trkpt lat="47.59567" lon="6.76744">
        <ele>500</ele>
        <time>2016-10-23T09:03:46.000Z</time>
      </trkpt>
      <trkpt lat="47.59564" lon="6.76749">
        <ele>500</ele>
        <time>2016-10-23T09:03:47.000Z</time>
      </trkpt>
      <trkpt lat="47.59561" lon="6.76755">
        <ele>496</ele>
        <time>2016-10-23T09:03:48.000Z</time>
      </trkpt>
      <trkpt lat="47.59558" lon="6.76761">
        <ele>495</ele>
        <time>2016-10-23T09:03:49.000Z</time>
      </trkpt>
      <trkpt lat="47.59555" lon="6.76768">
        <ele>495</ele>
        <time>2016-10-23T09:03:50.000Z</time>
      </trkpt>
      <trkpt lat="47.59552" lon="6.76776">
        <ele>494</ele>
        <time>2016-10-23T09:03:51.000Z</time>
      </trkpt>
      <trkpt lat="47.59549" lon="6.76783">
        <ele>493</ele>
        <time>2016-10-23T09:03:52.000Z</time>
      </trkpt>
      <trkpt lat="47.59546" lon="6.76789">
        <ele>493</ele>
        <time>2016-10-23T09:03:53.000Z</time>
      </trkpt>
      <trkpt lat="47.59547" lon="6.76806">
        <ele>492</ele>
        <time>2016-10-23T09:03:54.000Z</time>
      </trkpt>
      <trkpt lat="47.59544" lon="6.76813">
        <ele>492</ele>
        <time>2016-10-23T09:03:55.000Z</time>
      </trkpt>
      <trkpt lat="47.59544" lon="6.7682">
        <ele>492</ele>
        <time>2016-10-23T09:03:56.000Z</time>
      </trkpt>
      <trkpt lat="47.59543" lon="6.76824">
        <ele>491</ele>
        <time>2016-10-23T09:03:57.000Z</time>
      </trkpt>
      <trkpt lat="47.59541" lon="6.76828">
        <ele>491</ele>
        <time>2016-10-23T09:03:58.000Z</time>
      </trkpt>
      <trkpt lat="47.5954" lon="6.76833">
        <ele>491</ele>
        <time>2016-10-23T09:03:59.000Z</time>
      </trkpt>
      <trkpt lat="47.59537" lon="6.7684">
        <ele>487</ele>
        <time>2016-10-23T09:04:00.000Z</time>
      </trkpt>
      <trkpt lat="47.59534" lon="6.76845">
        <ele>487</ele>
        <time>2016-10-23T09:04:01.000Z</time>
      </trkpt>
      <trkpt lat="47.59532" lon="6.76852">
        <ele>487</ele>
        <time>2016-10-23T09:04:02.000Z</time>
      </trkpt>
      <trkpt lat="47.59529" lon="6.76858">
        <ele>486</ele>
        <time>2016-10-23T09:04:03.000Z</time>
      </trkpt>
      <trkpt lat="47.59528" lon="6.76863">
        <ele>486</ele>
        <time>2016-10-23T09:04:04.000Z</time>
      </trkpt>
      <trkpt lat="47.59527" lon="6.76868">
        <ele>486</ele>
        <time>2016-10-23T09:04:05.000Z</time>
      </trkpt>
      <trkpt lat="47.59526" lon="6.76873">
        <ele>486</ele>
        <time>2016-10-23T09:04:06.000Z</time>
      </trkpt>
      <trkpt lat="47.59526" lon="6.76878">
        <ele>486</ele>
        <time>2016-10-23T09:04:07.000Z</time>
      </trkpt>
      <trkpt lat="47.59526" lon="6.76884">
        <ele>486</ele>
        <time>2016-10-23T09:04:08.000Z</time>
      </trkpt>
      <trkpt lat="47.59526" lon="6.76891">
        <ele>485</ele>
        <time>2016-10-23T09:04:09.000Z</time>
      </trkpt>
      <trkpt lat="47.59531" lon="6.76914">
        <ele>485</ele>
        <time>2016-10-23T09:04:10.000Z</time>
      </trkpt>
      <trkpt lat="47.5953" lon="6.76924">
        <ele>483</ele>
        <time>2016-10-23T09:04:11.000Z</time>
      </trkpt>
      <trkpt lat="47.59529" lon="6.7693">
        <ele>483</ele>
        <time>2016-10-23T09:04:12.000Z</time>
      </trkpt>
      <trkpt lat="47.59529" lon="6.76934">
        <ele>483</ele>
        <time>2016-10-23T09:04:13.000Z</time>
      </trkpt>
      <trkpt lat="47.59529" lon="6.76939">
        <ele>483</ele>
        <time>2016-10-23T09:04:21.000Z</time>
      </trkpt>
      <trkpt lat="47.59529" lon="6.76941">
        <ele>483</ele>
        <time>2016-10-23T09:04:22.000Z</time>
      </trkpt>
      <trkpt lat="47.5953" lon="6.76947">
        <ele>483</ele>
        <time>2016-10-23T09:04:24.000Z</time>
      </trkpt>
      <trkpt lat="47.59529" lon="6.76951">
        <ele>483</ele>
        <time>2016-10-23T09:04:25.000Z</time>
      </trkpt>
      <trkpt lat="47.59529" lon="6.76956">
        <ele>483</ele>
        <time>2016-10-23T09:04:26.000Z</time>
      </trkpt>
      <trkpt lat="47.59529" lon="6.76962">
        <ele>483</ele>
        <time>2016-10-23T09:04:27.000Z</time>
      </trkpt>
      <trkpt lat="47.59528" lon="6.76968">
        <ele>483</ele>
        <time>2016-10-23T09:04:28.000Z</time>
      </trkpt>
      <trkpt lat="47.59527" lon="6.76974">
        <ele>482</ele>
        <time>2016-10-23T09:04:29.000Z</time>
      </trkpt>
      <trkpt lat="47.59525" lon="6.76979">
        <ele>482</ele>
        <time>2016-10-23T09:04:30.000Z</time>
      </trkpt>
      <trkpt lat="47.59524" lon="6.76985">
        <ele>482</ele>
        <time>2016-10-23T09:04:31.000Z</time>
      </trkpt>
      <trkpt lat="47.59522" lon="6.76992">
        <ele>481</ele>
        <time>2016-10-23T09:04:32.000Z</time>
      </trkpt>
      <trkpt lat="47.59521" lon="6.76997">
        <ele>481</ele>
        <time>2016-10-23T09:04:33.000Z</time>
      </trkpt>
      <trkpt lat="47.5952" lon="6.77001">
        <ele>479</ele>
        <time>2016-10-23T09:04:34.000Z</time>
      </trkpt>
      <trkpt lat="47.5952" lon="6.77005">
        <ele>479</ele>
        <time>2016-10-23T09:04:35.000Z</time>
      </trkpt>
      <trkpt lat="47.59519" lon="6.7701">
        <ele>479</ele>
        <time>2016-10-23T09:04:37.000Z</time>
      </trkpt>
      <trkpt lat="47.59519" lon="6.77013">
        <ele>479</ele>
        <time>2016-10-23T09:04:38.000Z</time>
      </trkpt>
      <trkpt lat="47.59519" lon="6.77018">
        <ele>479</ele>
        <time>2016-10-23T09:04:40.000Z</time>
      </trkpt>
      <trkpt lat="47.59518" lon="6.77021">
        <ele>479</ele>
        <time>2016-10-23T09:04:41.000Z</time>
      </trkpt>
      <trkpt lat="47.59517" lon="6.77027">
        <ele>478</ele>
        <time>2016-10-23T09:04:43.000Z</time>
      </trkpt>
      <trkpt lat="47.59517" lon="6.7703">
        <ele>478</ele>
        <time>2016-10-23T09:04:44.000Z</time>
      </trkpt>
      <trkpt lat="47.59517" lon="6.77037">
        <ele>478</ele>
        <time>2016-10-23T09:04:46.000Z</time>
      </trkpt>
      <trkpt lat="47.59517" lon="6.7704">
        <ele>478</ele>
        <time>2016-10-23T09:04:47.000Z</time>
      </trkpt>
      <trkpt lat="47.59518" lon="6.77044">
        <ele>478</ele>
        <time>2016-10-23T09:04:48.000Z</time>
      </trkpt>
      <trkpt lat="47.59518" lon="6.77048">
        <ele>478</ele>
        <time>2016-10-23T09:04:49.000Z</time>
      </trkpt>
      <trkpt lat="47.59518" lon="6.77066">
        <ele>476</ele>
        <time>2016-10-23T09:04:50.000Z</time>
      </trkpt>
      <trkpt lat="47.59517" lon="6.77075">
        <ele>476</ele>
        <time>2016-10-23T09:04:51.000Z</time>
      </trkpt>
      <trkpt lat="47.59516" lon="6.77081">
        <ele>475</ele>
        <time>2016-10-23T09:04:52.000Z</time>
      </trkpt>
      <trkpt lat="47.59514" lon="6.77084">
        <ele>472</ele>
        <time>2016-10-23T09:04:53.000Z</time>
      </trkpt>
      <trkpt lat="47.59516" lon="6.77093">
        <ele>472</ele>
        <time>2016-10-23T09:04:54.000Z</time>
      </trkpt>
      <trkpt lat="47.59517" lon="6.77101">
        <ele>472</ele>
        <time>2016-10-23T09:04:55.000Z</time>
      </trkpt>
      <trkpt lat="47.59516" lon="6.77104">
        <ele>472</ele>
        <time>2016-10-23T09:04:56.000Z</time>
      </trkpt>
      <trkpt lat="47.59516" lon="6.77112">
        <ele>471</ele>
        <time>2016-10-23T09:04:57.000Z</time>
      </trkpt>
      <trkpt lat="47.59515" lon="6.77119">
        <ele>471</ele>
        <time>2016-10-23T09:04:58.000Z</time>
      </trkpt>
      <trkpt lat="47.59516" lon="6.77122">
        <ele>471</ele>
        <time>2016-10-23T09:04:59.000Z</time>
      </trkpt>
      <trkpt lat="47.59516" lon="6.77127">
        <ele>471</ele>
        <time>2016-10-23T09:05:00.000Z</time>
      </trkpt>
      <trkpt lat="47.59515" lon="6.7713">
        <ele>470</ele>
        <time>2016-10-23T09:05:01.000Z</time>
      </trkpt>
      <trkpt lat="47.59515" lon="6.77134">
        <ele>470</ele>
        <time>2016-10-23T09:05:02.000Z</time>
      </trkpt>
      <trkpt lat="47.59515" lon="6.7714">
        <ele>469</ele>
        <time>2016-10-23T09:05:03.000Z</time>
      </trkpt>
      <trkpt lat="47.59514" lon="6.77146">
        <ele>469</ele>
        <time>2016-10-23T09:05:04.000Z</time>
      </trkpt>
      <trkpt lat="47.59511" lon="6.77161">
        <ele>466</ele>
        <time>2016-10-23T09:05:05.000Z</time>
      </trkpt>
      <trkpt lat="47.59508" lon="6.77169">
        <ele>463</ele>
        <time>2016-10-23T09:05:06.000Z</time>
      </trkpt>
      <trkpt lat="47.59504" lon="6.77179">
        <ele>463</ele>
        <time>2016-10-23T09:05:07.000Z</time>
      </trkpt>
      <trkpt lat="47.595" lon="6.77188">
        <ele>463</ele>
        <time>2016-10-23T09:05:08.000Z</time>
      </trkpt>
      <trkpt lat="47.59496" lon="6.77196">
        <ele>455</ele>
        <time>2016-10-23T09:05:09.000Z</time>
      </trkpt>
      <trkpt lat="47.59492" lon="6.77204">
        <ele>453</ele>
        <time>2016-10-23T09:05:10.000Z</time>
      </trkpt>
      <trkpt lat="47.59488" lon="6.77212">
        <ele>453</ele>
        <time>2016-10-23T09:05:11.000Z</time>
      </trkpt>
      <trkpt lat="47.59483" lon="6.77223">
        <ele>452</ele>
        <time>2016-10-23T09:05:12.000Z</time>
      </trkpt>
      <trkpt lat="47.59481" lon="6.77232">
        <ele>452</ele>
        <time>2016-10-23T09:05:13.000Z</time>
      </trkpt>
      <trkpt lat="47.59479" lon="6.77241">
        <ele>452</ele>
        <time>2016-10-23T09:05:14.000Z</time>
      </trkpt>
      <trkpt lat="47.59476" lon="6.7725">
        <ele>451</ele>
        <time>2016-10-23T09:05:15.000Z</time>
      </trkpt>
      <trkpt lat="47.5947" lon="6.77257">
        <ele>447</ele>
        <time>2016-10-23T09:05:16.000Z</time>
      </trkpt>
      <trkpt lat="47.59466" lon="6.77265">
        <ele>446</ele>
        <time>2016-10-23T09:05:17.000Z</time>
      </trkpt>
      <trkpt lat="47.5946" lon="6.77271">
        <ele>445</ele>
        <time>2016-10-23T09:05:18.000Z</time>
      </trkpt>
      <trkpt lat="47.59456" lon="6.7728">
        <ele>445</ele>
        <time>2016-10-23T09:05:19.000Z</time>
      </trkpt>
      <trkpt lat="47.5945" lon="6.7729">
        <ele>444</ele>
        <time>2016-10-23T09:05:20.000Z</time>
      </trkpt>
      <trkpt lat="47.59446" lon="6.77298">
        <ele>443</ele>
        <time>2016-10-23T09:05:21.000Z</time>
      </trkpt>
      <trkpt lat="47.59442" lon="6.77303">
        <ele>443</ele>
        <time>2016-10-23T09:05:22.000Z</time>
      </trkpt>
      <trkpt lat="47.59438" lon="6.77307">
        <ele>442</ele>
        <time>2016-10-23T09:05:23.000Z</time>
      </trkpt>
      <trkpt lat="47.59434" lon="6.77311">
        <ele>441</ele>
        <time>2016-10-23T09:05:24.000Z</time>
      </trkpt>
      <trkpt lat="47.59431" lon="6.77315">
        <ele>441</ele>
        <time>2016-10-23T09:05:25.000Z</time>
      </trkpt>
      <trkpt lat="47.59428" lon="6.77318">
        <ele>440</ele>
        <time>2016-10-23T09:05:26.000Z</time>
      </trkpt>
      <trkpt lat="47.59424" lon="6.7733">
        <ele>438</ele>
        <time>2016-10-23T09:05:27.000Z</time>
      </trkpt>
      <trkpt lat="47.59423" lon="6.77335">
        <ele>437</ele>
        <time>2016-10-23T09:05:28.000Z</time>
      </trkpt>
      <trkpt lat="47.59421" lon="6.7734">
        <ele>437</ele>
        <time>2016-10-23T09:05:29.000Z</time>
      </trkpt>
      <trkpt lat="47.59418" lon="6.77345">
        <ele>438</ele>
        <time>2016-10-23T09:05:32.000Z</time>
      </trkpt>
      <trkpt lat="47.59417" lon="6.77346">
        <ele>438</ele>
        <time>2016-10-23T09:05:33.000Z</time>
      </trkpt>
      <trkpt lat="47.59414" lon="6.77349">
        <ele>432</ele>
        <time>2016-10-23T09:05:35.000Z</time>
      </trkpt>
      <trkpt lat="47.59412" lon="6.77352">
        <ele>432</ele>
        <time>2016-10-23T09:05:36.000Z</time>
      </trkpt>
      <trkpt lat="47.5941" lon="6.77356">
        <ele>431</ele>
        <time>2016-10-23T09:05:40.000Z</time>
      </trkpt>
      <trkpt lat="47.5941" lon="6.77358">
        <ele>431</ele>
        <time>2016-10-23T09:05:41.000Z</time>
      </trkpt>
      <trkpt lat="47.59408" lon="6.77362">
        <ele>431</ele>
        <time>2016-10-23T09:05:44.000Z</time>
      </trkpt>
      <trkpt lat="47.59407" lon="6.77365">
        <ele>431</ele>
        <time>2016-10-23T09:05:45.000Z</time>
      </trkpt>
      <trkpt lat="47.59405" lon="6.77371">
        <ele>430</ele>
        <time>2016-10-23T09:05:47.000Z</time>
      </trkpt>
      <trkpt lat="47.59403" lon="6.77375">
        <ele>430</ele>
        <time>2016-10-23T09:05:48.000Z</time>
      </trkpt>
      <trkpt lat="47.594" lon="6.77378">
        <ele>430</ele>
        <time>2016-10-23T09:05:49.000Z</time>
      </trkpt>
      <trkpt lat="47.59397" lon="6.77382">
        <ele>430</ele>
        <time>2016-10-23T09:05:50.000Z</time>
      </trkpt>
      <trkpt lat="47.59393" lon="6.77386">
        <ele>430</ele>
        <time>2016-10-23T09:05:51.000Z</time>
      </trkpt>
      <trkpt lat="47.59388" lon="6.77401">
        <ele>430</ele>
        <time>2016-10-23T09:05:52.000Z</time>
      </trkpt>
      <trkpt lat="47.59385" lon="6.77411">
        <ele>429</ele>
        <time>2016-10-23T09:05:53.000Z</time>
      </trkpt>
      <trkpt lat="47.59382" lon="6.77422">
        <ele>428</ele>
        <time>2016-10-23T09:05:54.000Z</time>
      </trkpt>
      <trkpt lat="47.59381" lon="6.77434">
        <ele>428</ele>
        <time>2016-10-23T09:05:55.000Z</time>
      </trkpt>
      <trkpt lat="47.5938" lon="6.77444">
        <ele>428</ele>
        <time>2016-10-23T09:05:56.000Z</time>
      </trkpt>
      <trkpt lat="47.59379" lon="6.77457">
        <ele>427</ele>
        <time>2016-10-23T09:05:57.000Z</time>
      </trkpt>
      <trkpt lat="47.59378" lon="6.7747">
        <ele>427</ele>
        <time>2016-10-23T09:05:58.000Z</time>
      </trkpt>
      <trkpt lat="47.59375" lon="6.77478">
        <ele>427</ele>
        <time>2016-10-23T09:05:59.000Z</time>
      </trkpt>
      <trkpt lat="47.59374" lon="6.77488">
        <ele>427</ele>
        <time>2016-10-23T09:06:00.000Z</time>
      </trkpt>
      <trkpt lat="47.59371" lon="6.77499">
        <ele>426</ele>
        <time>2016-10-23T09:06:01.000Z</time>
      </trkpt>
      <trkpt lat="47.59369" lon="6.77511">
        <ele>423</ele>
        <time>2016-10-23T09:06:02.000Z</time>
      </trkpt>
      <trkpt lat="47.59369" lon="6.77521">
        <ele>423</ele>
        <time>2016-10-23T09:06:03.000Z</time>
      </trkpt>
      <trkpt lat="47.59366" lon="6.77534">
        <ele>422</ele>
        <time>2016-10-23T09:06:04.000Z</time>
      </trkpt>
      <trkpt lat="47.59363" lon="6.7755">
        <ele>422</ele>
        <time>2016-10-23T09:06:05.000Z</time>
      </trkpt>
      <trkpt lat="47.59361" lon="6.77561">
        <ele>421</ele>
        <time>2016-10-23T09:06:06.000Z</time>
      </trkpt>
      <trkpt lat="47.59358" lon="6.77569">
        <ele>420</ele>
        <time>2016-10-23T09:06:07.000Z</time>
      </trkpt>
      <trkpt lat="47.59356" lon="6.77575">
        <ele>420</ele>
        <time>2016-10-23T09:06:08.000Z</time>
      </trkpt>
      <trkpt lat="47.59354" lon="6.77579">
        <ele>419</ele>
        <time>2016-10-23T09:06:09.000Z</time>
      </trkpt>
      <trkpt lat="47.59353" lon="6.77584">
        <ele>416</ele>
        <time>2016-10-23T09:06:10.000Z</time>
      </trkpt>
      <trkpt lat="47.59354" lon="6.77588">
        <ele>416</ele>
        <time>2016-10-23T09:06:14.000Z</time>
      </trkpt>
      <trkpt lat="47.59355" lon="6.77591">
        <ele>416</ele>
        <time>2016-10-23T09:06:15.000Z</time>
      </trkpt>
      <trkpt lat="47.59356" lon="6.77595">
        <ele>416</ele>
        <time>2016-10-23T09:06:16.000Z</time>
      </trkpt>
      <trkpt lat="47.59357" lon="6.77597">
        <ele>415</ele>
        <time>2016-10-23T09:06:17.000Z</time>
      </trkpt>
      <trkpt lat="47.59359" lon="6.77601">
        <ele>415</ele>
        <time>2016-10-23T09:06:20.000Z</time>
      </trkpt>
      <trkpt lat="47.59359" lon="6.77603">
        <ele>415</ele>
        <time>2016-10-23T09:06:21.000Z</time>
      </trkpt>
      <trkpt lat="47.59359" lon="6.77607">
        <ele>415</ele>
        <time>2016-10-23T09:06:22.000Z</time>
      </trkpt>
      <trkpt lat="47.59359" lon="6.77611">
        <ele>415</ele>
        <time>2016-10-23T09:06:23.000Z</time>
      </trkpt>
      <trkpt lat="47.5936" lon="6.77617">
        <ele>415</ele>
        <time>2016-10-23T09:06:25.000Z</time>
      </trkpt>
      <trkpt lat="47.59361" lon="6.7762">
        <ele>415</ele>
        <time>2016-10-23T09:06:26.000Z</time>
      </trkpt>
      <trkpt lat="47.59363" lon="6.77625">
        <ele>415</ele>
        <time>2016-10-23T09:06:28.000Z</time>
      </trkpt>
      <trkpt lat="47.59365" lon="6.77627">
        <ele>415</ele>
        <time>2016-10-23T09:06:29.000Z</time>
      </trkpt>
      <trkpt lat="47.59368" lon="6.77631">
        <ele>415</ele>
        <time>2016-10-23T09:06:31.000Z</time>
      </trkpt>
      <trkpt lat="47.59369" lon="6.77633">
        <ele>415</ele>
        <time>2016-10-23T09:06:32.000Z</time>
      </trkpt>
      <trkpt lat="47.59372" lon="6.77637">
        <ele>414</ele>
        <time>2016-10-23T09:06:34.000Z</time>
      </trkpt>
      <trkpt lat="47.59373" lon="6.77639">
        <ele>414</ele>
        <time>2016-10-23T09:06:35.000Z</time>
      </trkpt>
      <trkpt lat="47.59374" lon="6.77641">
        <ele>414</ele>
        <time>2016-10-23T09:06:36.000Z</time>
      </trkpt>
      <trkpt lat="47.59376" lon="6.77644">
        <ele>414</ele>
        <time>2016-10-23T09:06:37.000Z</time>
      </trkpt>
      <trkpt lat="47.59378" lon="6.77649">
        <ele>414</ele>
        <time>2016-10-23T09:06:39.000Z</time>
      </trkpt>
      <trkpt lat="47.59379" lon="6.77651">
        <ele>414</ele>
        <time>2016-10-23T09:06:40.000Z</time>
      </trkpt>
      <trkpt lat="47.59381" lon="6.77654">
        <ele>414</ele>
        <time>2016-10-23T09:06:41.000Z</time>
      </trkpt>
      <trkpt lat="47.59382" lon="6.77657">
        <ele>414</ele>
        <time>2016-10-23T09:06:42.000Z</time>
      </trkpt>
      <trkpt lat="47.59384" lon="6.77662">
        <ele>414</ele>
        <time>2016-10-23T09:06:44.000Z</time>
      </trkpt>
      <trkpt lat="47.59385" lon="6.77664">
        <ele>414</ele>
        <time>2016-10-23T09:06:45.000Z</time>
      </trkpt>
      <trkpt lat="47.59387" lon="6.77668">
        <ele>409</ele>
        <time>2016-10-23T09:06:47.000Z</time>
      </trkpt>
      <trkpt lat="47.59388" lon="6.7767">
        <ele>410</ele>
        <time>2016-10-23T09:06:48.000Z</time>
      </trkpt>
      <trkpt lat="47.59391" lon="6.77675">
        <ele>410</ele>
        <time>2016-10-23T09:06:51.000Z</time>
      </trkpt>
      <trkpt lat="47.59392" lon="6.77677">
        <ele>410</ele>
        <time>2016-10-23T09:06:52.000Z</time>
      </trkpt>
      <trkpt lat="47.59394" lon="6.77681">
        <ele>410</ele>
        <time>2016-10-23T09:06:54.000Z</time>
      </trkpt>
      <trkpt lat="47.59396" lon="6.77683">
        <ele>410</ele>
        <time>2016-10-23T09:06:55.000Z</time>
      </trkpt>
      <trkpt lat="47.59398" lon="6.77688">
        <ele>409</ele>
        <time>2016-10-23T09:06:57.000Z</time>
      </trkpt>
      <trkpt lat="47.594" lon="6.77691">
        <ele>409</ele>
        <time>2016-10-23T09:06:58.000Z</time>
      </trkpt>
      <trkpt lat="47.59402" lon="6.77694">
        <ele>409</ele>
        <time>2016-10-23T09:06:59.000Z</time>
      </trkpt>
      <trkpt lat="47.59405" lon="6.77697">
        <ele>409</ele>
        <time>2016-10-23T09:07:00.000Z</time>
      </trkpt>
      <trkpt lat="47.59407" lon="6.777">
        <ele>409</ele>
        <time>2016-10-23T09:07:01.000Z</time>
      </trkpt>
      <trkpt lat="47.59409" lon="6.77703">
        <ele>409</ele>
        <time>2016-10-23T09:07:02.000Z</time>
      </trkpt>
      <trkpt lat="47.59412" lon="6.77706">
        <ele>409</ele>
        <time>2016-10-23T09:07:03.000Z</time>
      </trkpt>
      <trkpt lat="47.59415" lon="6.7771">
        <ele>408</ele>
        <time>2016-10-23T09:07:04.000Z</time>
      </trkpt>
      <trkpt lat="47.59418" lon="6.77713">
        <ele>412</ele>
        <time>2016-10-23T09:07:05.000Z</time>
      </trkpt>
      <trkpt lat="47.5942" lon="6.77716">
        <ele>412</ele>
        <time>2016-10-23T09:07:06.000Z</time>
      </trkpt>
      <trkpt lat="47.59423" lon="6.77718">
        <ele>412</ele>
        <time>2016-10-23T09:07:07.000Z</time>
      </trkpt>
      <trkpt lat="47.59427" lon="6.77721">
        <ele>412</ele>
        <time>2016-10-23T09:07:08.000Z</time>
      </trkpt>
      <trkpt lat="47.5943" lon="6.77724">
        <ele>412</ele>
        <time>2016-10-23T09:07:09.000Z</time>
      </trkpt>
      <trkpt lat="47.59433" lon="6.77727">
        <ele>412</ele>
        <time>2016-10-23T09:07:10.000Z</time>
      </trkpt>
      <trkpt lat="47.59437" lon="6.7773">
        <ele>412</ele>
        <time>2016-10-23T09:07:11.000Z</time>
      </trkpt>
      <trkpt lat="47.5944" lon="6.77732">
        <ele>412</ele>
        <time>2016-10-23T09:07:12.000Z</time>
      </trkpt>
      <trkpt lat="47.59442" lon="6.77734">
        <ele>412</ele>
        <time>2016-10-23T09:07:13.000Z</time>
      </trkpt>
      <trkpt lat="47.59444" lon="6.77736">
        <ele>412</ele>
        <time>2016-10-23T09:07:14.000Z</time>
      </trkpt>
      <trkpt lat="47.59447" lon="6.77738">
        <ele>412</ele>
        <time>2016-10-23T09:07:15.000Z</time>
      </trkpt>
      <trkpt lat="47.5945" lon="6.7774">
        <ele>412</ele>
        <time>2016-10-23T09:07:16.000Z</time>
      </trkpt>
      <trkpt lat="47.59453" lon="6.77742">
        <ele>412</ele>
        <time>2016-10-23T09:07:17.000Z</time>
      </trkpt>
      <trkpt lat="47.59455" lon="6.77742">
        <ele>412</ele>
        <time>2016-10-23T09:07:18.000Z</time>
      </trkpt>
      <trkpt lat="47.59458" lon="6.77742">
        <ele>412</ele>
        <time>2016-10-23T09:07:19.000Z</time>
      </trkpt>
      <trkpt lat="47.59461" lon="6.7774">
        <ele>412</ele>
        <time>2016-10-23T09:07:20.000Z</time>
      </trkpt>
      <trkpt lat="47.59464" lon="6.7774">
        <ele>412</ele>
        <time>2016-10-23T09:07:21.000Z</time>
      </trkpt>
      <trkpt lat="47.59467" lon="6.77742">
        <ele>412</ele>
        <time>2016-10-23T09:07:22.000Z</time>
      </trkpt>
      <trkpt lat="47.59469" lon="6.77744">
        <ele>412</ele>
        <time>2016-10-23T09:07:23.000Z</time>
      </trkpt>
      <trkpt lat="47.59471" lon="6.77747">
        <ele>412</ele>
        <time>2016-10-23T09:07:24.000Z</time>
      </trkpt>
      <trkpt lat="47.59473" lon="6.77752">
        <ele>409</ele>
        <time>2016-10-23T09:07:26.000Z</time>
      </trkpt>
      <trkpt lat="47.59474" lon="6.77754">
        <ele>409</ele>
        <time>2016-10-23T09:07:27.000Z</time>
      </trkpt>
      <trkpt lat="47.59477" lon="6.77757">
        <ele>409</ele>
        <time>2016-10-23T09:07:29.000Z</time>
      </trkpt>
      <trkpt lat="47.59479" lon="6.7776">
        <ele>409</ele>
        <time>2016-10-23T09:07:30.000Z</time>
      </trkpt>
      <trkpt lat="47.59481" lon="6.77763">
        <ele>409</ele>
        <time>2016-10-23T09:07:31.000Z</time>
      </trkpt>
      <trkpt lat="47.59484" lon="6.77767">
        <ele>409</ele>
        <time>2016-10-23T09:07:32.000Z</time>
      </trkpt>
      <trkpt lat="47.59487" lon="6.77771">
        <ele>409</ele>
        <time>2016-10-23T09:07:33.000Z</time>
      </trkpt>
      <trkpt lat="47.59494" lon="6.77781">
        <ele>408</ele>
        <time>2016-10-23T09:07:34.000Z</time>
      </trkpt>
      <trkpt lat="47.59497" lon="6.77785">
        <ele>408</ele>
        <time>2016-10-23T09:07:35.000Z</time>
      </trkpt>
      <trkpt lat="47.59499" lon="6.77789">
        <ele>408</ele>
        <time>2016-10-23T09:07:36.000Z</time>
      </trkpt>
      <trkpt lat="47.595" lon="6.77791">
        <ele>408</ele>
        <time>2016-10-23T09:07:37.000Z</time>
      </trkpt>
      <trkpt lat="47.59505" lon="6.7779">
        <ele>410</ele>
        <time>2016-10-23T09:07:38.000Z</time>
      </trkpt>
      <trkpt lat="47.59509" lon="6.77793">
        <ele>409</ele>
        <time>2016-10-23T09:07:39.000Z</time>
      </trkpt>
      <trkpt lat="47.59512" lon="6.77792">
        <ele>409</ele>
        <time>2016-10-23T09:07:40.000Z</time>
      </trkpt>
      <trkpt lat="47.59515" lon="6.77792">
        <ele>409</ele>
        <time>2016-10-23T09:07:41.000Z</time>
      </trkpt>
      <trkpt lat="47.59518" lon="6.77794">
        <ele>409</ele>
        <time>2016-10-23T09:07:42.000Z</time>
      </trkpt>
      <trkpt lat="47.59523" lon="6.77795">
        <ele>409</ele>
        <time>2016-10-23T09:07:43.000Z</time>
      </trkpt>
      <trkpt lat="47.59527" lon="6.77796">
        <ele>409</ele>
        <time>2016-10-23T09:07:44.000Z</time>
      </trkpt>
      <trkpt lat="47.59531" lon="6.77796">
        <ele>409</ele>
        <time>2016-10-23T09:07:45.000Z</time>
      </trkpt>
      <trkpt lat="47.59536" lon="6.77796">
        <ele>409</ele>
        <time>2016-10-23T09:07:46.000Z</time>
      </trkpt>
      <trkpt lat="47.59541" lon="6.77795">
        <ele>409</ele>
        <time>2016-10-23T09:07:47.000Z</time>
      </trkpt>
      <trkpt lat="47.59545" lon="6.77794">
        <ele>409</ele>
        <time>2016-10-23T09:07:48.000Z</time>
      </trkpt>
      <trkpt lat="47.59549" lon="6.77792">
        <ele>409</ele>
        <time>2016-10-23T09:07:49.000Z</time>
      </trkpt>
      <trkpt lat="47.59554" lon="6.7779">
        <ele>410</ele>
        <time>2016-10-23T09:07:50.000Z</time>
      </trkpt>
      <trkpt lat="47.59558" lon="6.77788">
        <ele>410</ele>
        <time>2016-10-23T09:07:51.000Z</time>
      </trkpt>
      <trkpt lat="47.59562" lon="6.77786">
        <ele>410</ele>
        <time>2016-10-23T09:07:52.000Z</time>
      </trkpt>
      <trkpt lat="47.59565" lon="6.77784">
        <ele>410</ele>
        <time>2016-10-23T09:07:53.001Z</time>
      </trkpt>
      <trkpt lat="47.5957" lon="6.77786">
        <ele>410</ele>
        <time>2016-10-23T09:07:54.000Z</time>
      </trkpt>
      <trkpt lat="47.59574" lon="6.77786">
        <ele>410</ele>
        <time>2016-10-23T09:07:55.000Z</time>
      </trkpt>
      <trkpt lat="47.59582" lon="6.7779">
        <ele>410</ele>
        <time>2016-10-23T09:07:56.000Z</time>
      </trkpt>
      <trkpt lat="47.59587" lon="6.77791">
        <ele>411</ele>
        <time>2016-10-23T09:07:57.000Z</time>
      </trkpt>
      <trkpt lat="47.59591" lon="6.77792">
        <ele>411</ele>
        <time>2016-10-23T09:07:57.998Z</time>
      </trkpt>
      <trkpt lat="47.59597" lon="6.77791">
        <ele>411</ele>
        <time>2016-10-23T09:07:59.000Z</time>
      </trkpt>
      <trkpt lat="47.59602" lon="6.77792">
        <ele>411</ele>
        <time>2016-10-23T09:08:00.000Z</time>
      </trkpt>
      <trkpt lat="47.59604" lon="6.77802">
        <ele>411</ele>
        <time>2016-10-23T09:08:01.000Z</time>
      </trkpt>
      <trkpt lat="47.59608" lon="6.77807">
        <ele>411</ele>
        <time>2016-10-23T09:08:02.000Z</time>
      </trkpt>
      <trkpt lat="47.59611" lon="6.77813">
        <ele>411</ele>
        <time>2016-10-23T09:08:03.001Z</time>
      </trkpt>
      <trkpt lat="47.59615" lon="6.77817">
        <ele>411</ele>
        <time>2016-10-23T09:08:04.000Z</time>
      </trkpt>
      <trkpt lat="47.59619" lon="6.7782">
        <ele>411</ele>
        <time>2016-10-23T09:08:05.000Z</time>
      </trkpt>
      <trkpt lat="47.59622" lon="6.77824">
        <ele>411</ele>
        <time>2016-10-23T09:08:06.000Z</time>
      </trkpt>
      <trkpt lat="47.59625" lon="6.77827">
        <ele>411</ele>
        <time>2016-10-23T09:08:07.000Z</time>
      </trkpt>
      <trkpt lat="47.59626" lon="6.77831">
        <ele>411</ele>
        <time>2016-10-23T09:08:08.000Z</time>
      </trkpt>
      <trkpt lat="47.59625" lon="6.77837">
        <ele>407</ele>
        <time>2016-10-23T09:08:09.000Z</time>
      </trkpt>
      <trkpt lat="47.59625" lon="6.7784">
        <ele>407</ele>
        <time>2016-10-23T09:08:10.000Z</time>
      </trkpt>
      <trkpt lat="47.59622" lon="6.77845">
        <ele>406</ele>
        <time>2016-10-23T09:08:17.000Z</time>
      </trkpt>
      <trkpt lat="47.5962" lon="6.77846">
        <ele>406</ele>
        <time>2016-10-23T09:08:18.000Z</time>
      </trkpt>
      <trkpt lat="47.59616" lon="6.77846">
        <ele>406</ele>
        <time>2016-10-23T09:08:20.000Z</time>
      </trkpt>
      <trkpt lat="47.59614" lon="6.77845">
        <ele>406</ele>
        <time>2016-10-23T09:08:21.000Z</time>
      </trkpt>
      <trkpt lat="47.5961" lon="6.77845">
        <ele>406</ele>
        <time>2016-10-23T09:08:23.000Z</time>
      </trkpt>
      <trkpt lat="47.59608" lon="6.77846">
        <ele>406</ele>
        <time>2016-10-23T09:08:24.000Z</time>
      </trkpt>
      <trkpt lat="47.59604" lon="6.77848">
        <ele>406</ele>
        <time>2016-10-23T09:08:26.000Z</time>
      </trkpt>
      <trkpt lat="47.59602" lon="6.77849">
        <ele>406</ele>
        <time>2016-10-23T09:08:27.000Z</time>
      </trkpt>
      <trkpt lat="47.59599" lon="6.77851">
        <ele>406</ele>
        <time>2016-10-23T09:08:29.000Z</time>
      </trkpt>
      <trkpt lat="47.59597" lon="6.77853">
        <ele>406</ele>
        <time>2016-10-23T09:08:30.000Z</time>
      </trkpt>
      <trkpt lat="47.59595" lon="6.77855">
        <ele>406</ele>
        <time>2016-10-23T09:08:31.000Z</time>
      </trkpt>
      <trkpt lat="47.59592" lon="6.77857">
        <ele>406</ele>
        <time>2016-10-23T09:08:32.000Z</time>
      </trkpt>
      <trkpt lat="47.5959" lon="6.7786">
        <ele>406</ele>
        <time>2016-10-23T09:08:33.000Z</time>
      </trkpt>
      <trkpt lat="47.59588" lon="6.77863">
        <ele>406</ele>
        <time>2016-10-23T09:08:34.000Z</time>
      </trkpt>
      <trkpt lat="47.59585" lon="6.77866">
        <ele>405</ele>
        <time>2016-10-23T09:08:35.000Z</time>
      </trkpt>
      <trkpt lat="47.59583" lon="6.77869">
        <ele>405</ele>
        <time>2016-10-23T09:08:36.000Z</time>
      </trkpt>
      <trkpt lat="47.59581" lon="6.77872">
        <ele>405</ele>
        <time>2016-10-23T09:08:37.000Z</time>
      </trkpt>
      <trkpt lat="47.59579" lon="6.77875">
        <ele>404</ele>
        <time>2016-10-23T09:08:37.999Z</time>
      </trkpt>
      <trkpt lat="47.59576" lon="6.77878">
        <ele>404</ele>
        <time>2016-10-23T09:08:39.000Z</time>
      </trkpt>
      <trkpt lat="47.59573" lon="6.7788">
        <ele>404</ele>
        <time>2016-10-23T09:08:40.000Z</time>
      </trkpt>
      <trkpt lat="47.5957" lon="6.77882">
        <ele>404</ele>
        <time>2016-10-23T09:08:41.000Z</time>
      </trkpt>
      <trkpt lat="47.59568" lon="6.77884">
        <ele>404</ele>
        <time>2016-10-23T09:08:42.000Z</time>
      </trkpt>
      <trkpt lat="47.59565" lon="6.77887">
        <ele>404</ele>
        <time>2016-10-23T09:08:42.999Z</time>
      </trkpt>
      <trkpt lat="47.59561" lon="6.77891">
        <ele>404</ele>
        <time>2016-10-23T09:08:44.000Z</time>
      </trkpt>
      <trkpt lat="47.59557" lon="6.77894">
        <ele>404</ele>
        <time>2016-10-23T09:08:45.000Z</time>
      </trkpt>
      <trkpt lat="47.59553" lon="6.77898">
        <ele>404</ele>
        <time>2016-10-23T09:08:45.999Z</time>
      </trkpt>
      <trkpt lat="47.5955" lon="6.77901">
        <ele>404</ele>
        <time>2016-10-23T09:08:47.000Z</time>
      </trkpt>
      <trkpt lat="47.59546" lon="6.77903">
        <ele>404</ele>
        <time>2016-10-23T09:08:48.000Z</time>
      </trkpt>
      <trkpt lat="47.59542" lon="6.77905">
        <ele>404</ele>
        <time>2016-10-23T09:08:49.000Z</time>
      </trkpt>
      <trkpt lat="47.59537" lon="6.77908">
        <ele>404</ele>
        <time>2016-10-23T09:08:50.000Z</time>
      </trkpt>
      <trkpt lat="47.59533" lon="6.7791">
        <ele>404</ele>
        <time>2016-10-23T09:08:51.000Z</time>
      </trkpt>
      <trkpt lat="47.5953" lon="6.77913">
        <ele>404</ele>
        <time>2016-10-23T09:08:52.000Z</time>
      </trkpt>
      <trkpt lat="47.59526" lon="6.77916">
        <ele>404</ele>
        <time>2016-10-23T09:08:53.000Z</time>
      </trkpt>
      <trkpt lat="47.59523" lon="6.7792">
        <ele>402</ele>
        <time>2016-10-23T09:08:54.000Z</time>
      </trkpt>
      <trkpt lat="47.59519" lon="6.77923">
        <ele>402</ele>
        <time>2016-10-23T09:08:55.000Z</time>
      </trkpt>
      <trkpt lat="47.59516" lon="6.77929">
        <ele>402</ele>
        <time>2016-10-23T09:08:56.000Z</time>
      </trkpt>
      <trkpt lat="47.59511" lon="6.77934">
        <ele>402</ele>
        <time>2016-10-23T09:08:57.000Z</time>
      </trkpt>
      <trkpt lat="47.59506" lon="6.77938">
        <ele>402</ele>
        <time>2016-10-23T09:08:58.000Z</time>
      </trkpt>
      <trkpt lat="47.59499" lon="6.77941">
        <ele>401</ele>
        <time>2016-10-23T09:08:59.000Z</time>
      </trkpt>
      <trkpt lat="47.59492" lon="6.77944">
        <ele>400</ele>
        <time>2016-10-23T09:09:00.000Z</time>
      </trkpt>
      <trkpt lat="47.59485" lon="6.77947">
        <ele>400</ele>
        <time>2016-10-23T09:09:01.000Z</time>
      </trkpt>
      <trkpt lat="47.59478" lon="6.77949">
        <ele>400</ele>
        <time>2016-10-23T09:09:02.000Z</time>
      </trkpt>
      <trkpt lat="47.59471" lon="6.77952">
        <ele>399</ele>
        <time>2016-10-23T09:09:03.000Z</time>
      </trkpt>
      <trkpt lat="47.59463" lon="6.77954">
        <ele>399</ele>
        <time>2016-10-23T09:09:04.000Z</time>
      </trkpt>
      <trkpt lat="47.59455" lon="6.77956">
        <ele>399</ele>
        <time>2016-10-23T09:09:05.000Z</time>
      </trkpt>
      <trkpt lat="47.59447" lon="6.77959">
        <ele>398</ele>
        <time>2016-10-23T09:09:06.000Z</time>
      </trkpt>
      <trkpt lat="47.59438" lon="6.77961">
        <ele>398</ele>
        <time>2016-10-23T09:09:07.000Z</time>
      </trkpt>
      <trkpt lat="47.5943" lon="6.77964">
        <ele>398</ele>
        <time>2016-10-23T09:09:08.000Z</time>
      </trkpt>
      <trkpt lat="47.59421" lon="6.77966">
        <ele>397</ele>
        <time>2016-10-23T09:09:09.000Z</time>
      </trkpt>
      <trkpt lat="47.59412" lon="6.77968">
        <ele>392</ele>
        <time>2016-10-23T09:09:10.000Z</time>
      </trkpt>
      <trkpt lat="47.59402" lon="6.77969">
        <ele>392</ele>
        <time>2016-10-23T09:09:11.000Z</time>
      </trkpt>
      <trkpt lat="47.59392" lon="6.77972">
        <ele>391</ele>
        <time>2016-10-23T09:09:12.000Z</time>
      </trkpt>
      <trkpt lat="47.59382" lon="6.77975">
        <ele>391</ele>
        <time>2016-10-23T09:09:13.000Z</time>
      </trkpt>
      <trkpt lat="47.59372" lon="6.77979">
        <ele>390</ele>
        <time>2016-10-23T09:09:14.000Z</time>
      </trkpt>
      <trkpt lat="47.59361" lon="6.77982">
        <ele>389</ele>
        <time>2016-10-23T09:09:15.000Z</time>
      </trkpt>
      <trkpt lat="47.5935" lon="6.77985">
        <ele>388</ele>
        <time>2016-10-23T09:09:16.000Z</time>
      </trkpt>
      <trkpt lat="47.59339" lon="6.77988">
        <ele>386</ele>
        <time>2016-10-23T09:09:17.000Z</time>
      </trkpt>
      <trkpt lat="47.59328" lon="6.77991">
        <ele>383</ele>
        <time>2016-10-23T09:09:18.000Z</time>
      </trkpt>
      <trkpt lat="47.59316" lon="6.77994">
        <ele>382</ele>
        <time>2016-10-23T09:09:19.000Z</time>
      </trkpt>
      <trkpt lat="47.59305" lon="6.77997">
        <ele>382</ele>
        <time>2016-10-23T09:09:20.000Z</time>
      </trkpt>
      <trkpt lat="47.59294" lon="6.78">
        <ele>378</ele>
        <time>2016-10-23T09:09:21.000Z</time>
      </trkpt>
      <trkpt lat="47.59284" lon="6.78005">
        <ele>378</ele>
        <time>2016-10-23T09:09:22.000Z</time>
      </trkpt>
      <trkpt lat="47.59274" lon="6.78012">
        <ele>377</ele>
        <time>2016-10-23T09:09:23.000Z</time>
      </trkpt>
      <trkpt lat="47.59264" lon="6.7802">
        <ele>377</ele>
        <time>2016-10-23T09:09:24.000Z</time>
      </trkpt>
      <trkpt lat="47.59255" lon="6.78029">
        <ele>377</ele>
        <time>2016-10-23T09:09:25.000Z</time>
      </trkpt>
      <trkpt lat="47.59247" lon="6.78039">
        <ele>373</ele>
        <time>2016-10-23T09:09:26.000Z</time>
      </trkpt>
      <trkpt lat="47.59238" lon="6.78048">
        <ele>373</ele>
        <time>2016-10-23T09:09:27.000Z</time>
      </trkpt>
      <trkpt lat="47.59229" lon="6.78058">
        <ele>373</ele>
        <time>2016-10-23T09:09:28.000Z</time>
      </trkpt>
      <trkpt lat="47.5922" lon="6.78067">
        <ele>372</ele>
        <time>2016-10-23T09:09:29.000Z</time>
      </trkpt>
      <trkpt lat="47.59212" lon="6.78076">
        <ele>372</ele>
        <time>2016-10-23T09:09:30.000Z</time>
      </trkpt>
      <trkpt lat="47.59203" lon="6.78084">
        <ele>372</ele>
        <time>2016-10-23T09:09:31.000Z</time>
      </trkpt>
      <trkpt lat="47.59195" lon="6.78093">
        <ele>371</ele>
        <time>2016-10-23T09:09:32.000Z</time>
      </trkpt>
      <trkpt lat="47.59187" lon="6.781">
        <ele>371</ele>
        <time>2016-10-23T09:09:33.000Z</time>
      </trkpt>
      <trkpt lat="47.5918" lon="6.78107">
        <ele>371</ele>
        <time>2016-10-23T09:09:34.000Z</time>
      </trkpt>
      <trkpt lat="47.59173" lon="6.78114">
        <ele>371</ele>
        <time>2016-10-23T09:09:35.000Z</time>
      </trkpt>
      <trkpt lat="47.59167" lon="6.78119">
        <ele>368</ele>
        <time>2016-10-23T09:09:36.000Z</time>
      </trkpt>
      <trkpt lat="47.5916" lon="6.78123">
        <ele>368</ele>
        <time>2016-10-23T09:09:37.000Z</time>
      </trkpt>
      <trkpt lat="47.59154" lon="6.78127">
        <ele>368</ele>
        <time>2016-10-23T09:09:38.000Z</time>
      </trkpt>
      <trkpt lat="47.59148" lon="6.78127">
        <ele>368</ele>
        <time>2016-10-23T09:09:39.000Z</time>
      </trkpt>
      <trkpt lat="47.59142" lon="6.78126">
        <ele>367</ele>
        <time>2016-10-23T09:09:40.000Z</time>
      </trkpt>
      <trkpt lat="47.59136" lon="6.78128">
        <ele>367</ele>
        <time>2016-10-23T09:09:41.000Z</time>
      </trkpt>
      <trkpt lat="47.59129" lon="6.7813">
        <ele>367</ele>
        <time>2016-10-23T09:09:42.000Z</time>
      </trkpt>
      <trkpt lat="47.59123" lon="6.78134">
        <ele>367</ele>
        <time>2016-10-23T09:09:43.000Z</time>
      </trkpt>
      <trkpt lat="47.59119" lon="6.78143">
        <ele>366</ele>
        <time>2016-10-23T09:09:44.000Z</time>
      </trkpt>
      <trkpt lat="47.59116" lon="6.78151">
        <ele>366</ele>
        <time>2016-10-23T09:09:45.000Z</time>
      </trkpt>
      <trkpt lat="47.59114" lon="6.7816">
        <ele>366</ele>
        <time>2016-10-23T09:09:46.000Z</time>
      </trkpt>
      <trkpt lat="47.59112" lon="6.78168">
        <ele>365</ele>
        <time>2016-10-23T09:09:47.000Z</time>
      </trkpt>
      <trkpt lat="47.59108" lon="6.78175">
        <ele>365</ele>
        <time>2016-10-23T09:09:48.000Z</time>
      </trkpt>
      <trkpt lat="47.59103" lon="6.78181">
        <ele>365</ele>
        <time>2016-10-23T09:09:49.000Z</time>
      </trkpt>
      <trkpt lat="47.59098" lon="6.78186">
        <ele>365</ele>
        <time>2016-10-23T09:09:50.000Z</time>
      </trkpt>
      <trkpt lat="47.59093" lon="6.78191">
        <ele>365</ele>
        <time>2016-10-23T09:09:51.000Z</time>
      </trkpt>
      <trkpt lat="47.59088" lon="6.78196">
        <ele>365</ele>
        <time>2016-10-23T09:09:52.000Z</time>
      </trkpt>
      <trkpt lat="47.59082" lon="6.78202">
        <ele>362</ele>
        <time>2016-10-23T09:09:53.000Z</time>
      </trkpt>
      <trkpt lat="47.59077" lon="6.78207">
        <ele>362</ele>
        <time>2016-10-23T09:09:54.000Z</time>
      </trkpt>
      <trkpt lat="47.59072" lon="6.78213">
        <ele>361</ele>
        <time>2016-10-23T09:09:55.000Z</time>
      </trkpt>
      <trkpt lat="47.59067" lon="6.78218">
        <ele>361</ele>
        <time>2016-10-23T09:09:56.000Z</time>
      </trkpt>
      <trkpt lat="47.59062" lon="6.78223">
        <ele>361</ele>
        <time>2016-10-23T09:09:57.000Z</time>
      </trkpt>
      <trkpt lat="47.59057" lon="6.78228">
        <ele>361</ele>
        <time>2016-10-23T09:09:58.000Z</time>
      </trkpt>
      <trkpt lat="47.59052" lon="6.78231">
        <ele>361</ele>
        <time>2016-10-23T09:09:59.000Z</time>
      </trkpt>
      <trkpt lat="47.59048" lon="6.78236">
        <ele>361</ele>
        <time>2016-10-23T09:10:00.000Z</time>
      </trkpt>
      <trkpt lat="47.59044" lon="6.78239">
        <ele>361</ele>
        <time>2016-10-23T09:10:01.000Z</time>
      </trkpt>
      <trkpt lat="47.5904" lon="6.78243">
        <ele>361</ele>
        <time>2016-10-23T09:10:02.000Z</time>
      </trkpt>
      <trkpt lat="47.59037" lon="6.78246">
        <ele>360</ele>
        <time>2016-10-23T09:10:03.000Z</time>
      </trkpt>
      <trkpt lat="47.59032" lon="6.7825">
        <ele>360</ele>
        <time>2016-10-23T09:10:04.000Z</time>
      </trkpt>
      <trkpt lat="47.59028" lon="6.78253">
        <ele>359</ele>
        <time>2016-10-23T09:10:05.000Z</time>
      </trkpt>
      <trkpt lat="47.59024" lon="6.78257">
        <ele>359</ele>
        <time>2016-10-23T09:10:06.000Z</time>
      </trkpt>
      <trkpt lat="47.59021" lon="6.7826">
        <ele>359</ele>
        <time>2016-10-23T09:10:07.000Z</time>
      </trkpt>
      <trkpt lat="47.59018" lon="6.78263">
        <ele>359</ele>
        <time>2016-10-23T09:10:08.000Z</time>
      </trkpt>
      <trkpt lat="47.59015" lon="6.78268">
        <ele>359</ele>
        <time>2016-10-23T09:10:09.000Z</time>
      </trkpt>
      <trkpt lat="47.5901" lon="6.78272">
        <ele>359</ele>
        <time>2016-10-23T09:10:10.000Z</time>
      </trkpt>
      <trkpt lat="47.59006" lon="6.78277">
        <ele>359</ele>
        <time>2016-10-23T09:10:11.000Z</time>
      </trkpt>
      <trkpt lat="47.59003" lon="6.7828">
        <ele>359</ele>
        <time>2016-10-23T09:10:12.000Z</time>
      </trkpt>
      <trkpt lat="47.58999" lon="6.78284">
        <ele>359</ele>
        <time>2016-10-23T09:10:13.000Z</time>
      </trkpt>
      <trkpt lat="47.58996" lon="6.78287">
        <ele>359</ele>
        <time>2016-10-23T09:10:14.000Z</time>
      </trkpt>
      <trkpt lat="47.58994" lon="6.7829">
        <ele>359</ele>
        <time>2016-10-23T09:10:15.000Z</time>
      </trkpt>
      <trkpt lat="47.58992" lon="6.78293">
        <ele>360</ele>
        <time>2016-10-23T09:10:16.000Z</time>
      </trkpt>
      <trkpt lat="47.58991" lon="6.78297">
        <ele>360</ele>
        <time>2016-10-23T09:10:17.000Z</time>
      </trkpt>
      <trkpt lat="47.5899" lon="6.78301">
        <ele>360</ele>
        <time>2016-10-23T09:10:18.000Z</time>
      </trkpt>
      <trkpt lat="47.58988" lon="6.78308">
        <ele>360</ele>
        <time>2016-10-23T09:10:19.000Z</time>
      </trkpt>
      <trkpt lat="47.58987" lon="6.78313">
        <ele>360</ele>
        <time>2016-10-23T09:10:20.000Z</time>
      </trkpt>
      <trkpt lat="47.58986" lon="6.78318">
        <ele>360</ele>
        <time>2016-10-23T09:10:21.000Z</time>
      </trkpt>
      <trkpt lat="47.58984" lon="6.78324">
        <ele>360</ele>
        <time>2016-10-23T09:10:22.000Z</time>
      </trkpt>
      <trkpt lat="47.58982" lon="6.78329">
        <ele>360</ele>
        <time>2016-10-23T09:10:23.000Z</time>
      </trkpt>
      <trkpt lat="47.5898" lon="6.78334">
        <ele>358</ele>
        <time>2016-10-23T09:10:24.000Z</time>
      </trkpt>
      <trkpt lat="47.58977" lon="6.78338">
        <ele>358</ele>
        <time>2016-10-23T09:10:25.000Z</time>
      </trkpt>
      <trkpt lat="47.58974" lon="6.78342">
        <ele>357</ele>
        <time>2016-10-23T09:10:26.000Z</time>
      </trkpt>
      <trkpt lat="47.5897" lon="6.78344">
        <ele>357</ele>
        <time>2016-10-23T09:10:27.000Z</time>
      </trkpt>
      <trkpt lat="47.58966" lon="6.78346">
        <ele>357</ele>
        <time>2016-10-23T09:10:28.000Z</time>
      </trkpt>
      <trkpt lat="47.58959" lon="6.78344">
        <ele>357</ele>
        <time>2016-10-23T09:10:29.000Z</time>
      </trkpt>
      <trkpt lat="47.58954" lon="6.78342">
        <ele>357</ele>
        <time>2016-10-23T09:10:30.000Z</time>
      </trkpt>
      <trkpt lat="47.5895" lon="6.7834">
        <ele>357</ele>
        <time>2016-10-23T09:10:31.000Z</time>
      </trkpt>
      <trkpt lat="47.58945" lon="6.78339">
        <ele>357</ele>
        <time>2016-10-23T09:10:32.000Z</time>
      </trkpt>
      <trkpt lat="47.58941" lon="6.7834">
        <ele>357</ele>
        <time>2016-10-23T09:10:33.000Z</time>
      </trkpt>
      <trkpt lat="47.58936" lon="6.78342">
        <ele>357</ele>
        <time>2016-10-23T09:10:34.000Z</time>
      </trkpt>
      <trkpt lat="47.58932" lon="6.78346">
        <ele>357</ele>
        <time>2016-10-23T09:10:35.000Z</time>
      </trkpt>
      <trkpt lat="47.58928" lon="6.78348">
        <ele>357</ele>
        <time>2016-10-23T09:10:36.000Z</time>
      </trkpt>
      <trkpt lat="47.58923" lon="6.78351">
        <ele>357</ele>
        <time>2016-10-23T09:10:37.000Z</time>
      </trkpt>
      <trkpt lat="47.58918" lon="6.78353">
        <ele>356</ele>
        <time>2016-10-23T09:10:38.000Z</time>
      </trkpt>
      <trkpt lat="47.58913" lon="6.78354">
        <ele>357</ele>
        <time>2016-10-23T09:10:39.000Z</time>
      </trkpt>
      <trkpt lat="47.58909" lon="6.78354">
        <ele>357</ele>
        <time>2016-10-23T09:10:40.000Z</time>
      </trkpt>
      <trkpt lat="47.58905" lon="6.78353">
        <ele>356</ele>
        <time>2016-10-23T09:10:41.000Z</time>
      </trkpt>
      <trkpt lat="47.58901" lon="6.78354">
        <ele>356</ele>
        <time>2016-10-23T09:10:42.000Z</time>
      </trkpt>
      <trkpt lat="47.58896" lon="6.78353">
        <ele>356</ele>
        <time>2016-10-23T09:10:43.000Z</time>
      </trkpt>
      <trkpt lat="47.58891" lon="6.78353">
        <ele>356</ele>
        <time>2016-10-23T09:10:44.000Z</time>
      </trkpt>
      <trkpt lat="47.58887" lon="6.78353">
        <ele>356</ele>
        <time>2016-10-23T09:10:45.000Z</time>
      </trkpt>
      <trkpt lat="47.58883" lon="6.78354">
        <ele>356</ele>
        <time>2016-10-23T09:10:46.000Z</time>
      </trkpt>
      <trkpt lat="47.58878" lon="6.78356">
        <ele>356</ele>
        <time>2016-10-23T09:10:47.000Z</time>
      </trkpt>
      <trkpt lat="47.58875" lon="6.78362">
        <ele>356</ele>
        <time>2016-10-23T09:10:48.000Z</time>
      </trkpt>
      <trkpt lat="47.58873" lon="6.78369">
        <ele>356</ele>
        <time>2016-10-23T09:10:49.001Z</time>
      </trkpt>
      <trkpt lat="47.58877" lon="6.78375">
        <ele>356</ele>
        <time>2016-10-23T09:10:50.000Z</time>
      </trkpt>
      <trkpt lat="47.58881" lon="6.78379">
        <ele>356</ele>
        <time>2016-10-23T09:10:50.999Z</time>
      </trkpt>
      <trkpt lat="47.58884" lon="6.78382">
        <ele>355</ele>
        <time>2016-10-23T09:10:52.000Z</time>
      </trkpt>
      <trkpt lat="47.58889" lon="6.78386">
        <ele>355</ele>
        <time>2016-10-23T09:10:53.000Z</time>
      </trkpt>
      <trkpt lat="47.58895" lon="6.78385">
        <ele>355</ele>
        <time>2016-10-23T09:10:54.000Z</time>
      </trkpt>
      <trkpt lat="47.589" lon="6.78386">
        <ele>355</ele>
        <time>2016-10-23T09:10:55.000Z</time>
      </trkpt>
      <trkpt lat="47.58906" lon="6.78386">
        <ele>355</ele>
        <time>2016-10-23T09:10:56.000Z</time>
      </trkpt>
      <trkpt lat="47.5891" lon="6.78388">
        <ele>355</ele>
        <time>2016-10-23T09:10:57.000Z</time>
      </trkpt>
      <trkpt lat="47.58914" lon="6.78389">
        <ele>355</ele>
        <time>2016-10-23T09:10:58.000Z</time>
      </trkpt>
      <trkpt lat="47.58919" lon="6.7839">
        <ele>354</ele>
        <time>2016-10-23T09:10:59.000Z</time>
      </trkpt>
      <trkpt lat="47.58924" lon="6.78392">
        <ele>354</ele>
        <time>2016-10-23T09:11:00.000Z</time>
      </trkpt>
      <trkpt lat="47.58931" lon="6.78393">
        <ele>354</ele>
        <time>2016-10-23T09:11:01.000Z</time>
      </trkpt>
      <trkpt lat="47.58937" lon="6.78393">
        <ele>354</ele>
        <time>2016-10-23T09:11:02.000Z</time>
      </trkpt>
      <trkpt lat="47.58942" lon="6.78394">
        <ele>354</ele>
        <time>2016-10-23T09:11:03.000Z</time>
      </trkpt>
      <trkpt lat="47.58947" lon="6.78397">
        <ele>354</ele>
        <time>2016-10-23T09:11:04.000Z</time>
      </trkpt>
      <trkpt lat="47.58954" lon="6.78397">
        <ele>354</ele>
        <time>2016-10-23T09:11:05.000Z</time>
      </trkpt>
      <trkpt lat="47.5896" lon="6.78398">
        <ele>354</ele>
        <time>2016-10-23T09:11:06.000Z</time>
      </trkpt>
      <trkpt lat="47.58967" lon="6.78399">
        <ele>354</ele>
        <time>2016-10-23T09:11:07.000Z</time>
      </trkpt>
      <trkpt lat="47.58973" lon="6.784">
        <ele>354</ele>
        <time>2016-10-23T09:11:08.000Z</time>
      </trkpt>
      <trkpt lat="47.58981" lon="6.78401">
        <ele>353</ele>
        <time>2016-10-23T09:11:09.000Z</time>
      </trkpt>
      <trkpt lat="47.58986" lon="6.78401">
        <ele>353</ele>
        <time>2016-10-23T09:11:10.000Z</time>
      </trkpt>
      <trkpt lat="47.58992" lon="6.78401">
        <ele>353</ele>
        <time>2016-10-23T09:11:11.000Z</time>
      </trkpt>
      <trkpt lat="47.58998" lon="6.78396">
        <ele>353</ele>
        <time>2016-10-23T09:11:12.000Z</time>
      </trkpt>
      <trkpt lat="47.59002" lon="6.78389">
        <ele>353</ele>
        <time>2016-10-23T09:11:13.000Z</time>
      </trkpt>
      <trkpt lat="47.59007" lon="6.78386">
        <ele>353</ele>
        <time>2016-10-23T09:11:14.000Z</time>
      </trkpt>
      <trkpt lat="47.59011" lon="6.78383">
        <ele>354</ele>
        <time>2016-10-23T09:11:15.000Z</time>
      </trkpt>
      <trkpt lat="47.59014" lon="6.78379">
        <ele>354</ele>
        <time>2016-10-23T09:11:16.000Z</time>
      </trkpt>
      <trkpt lat="47.59018" lon="6.78376">
        <ele>354</ele>
        <time>2016-10-23T09:11:17.000Z</time>
      </trkpt>
      <trkpt lat="47.59021" lon="6.78373">
        <ele>354</ele>
        <time>2016-10-23T09:11:18.000Z</time>
      </trkpt>
      <trkpt lat="47.59025" lon="6.7837">
        <ele>354</ele>
        <time>2016-10-23T09:11:19.000Z</time>
      </trkpt>
      <trkpt lat="47.59028" lon="6.78367">
        <ele>355</ele>
        <time>2016-10-23T09:11:20.000Z</time>
      </trkpt>
      <trkpt lat="47.5903" lon="6.78367">
        <ele>354</ele>
        <time>2016-10-23T09:11:21.000Z</time>
      </trkpt>
      <trkpt lat="47.59034" lon="6.78365">
        <ele>354</ele>
        <time>2016-10-23T09:11:22.000Z</time>
      </trkpt>
      <trkpt lat="47.59037" lon="6.78363">
        <ele>354</ele>
        <time>2016-10-23T09:11:23.000Z</time>
      </trkpt>
      <trkpt lat="47.5904" lon="6.78362">
        <ele>354</ele>
        <time>2016-10-23T09:11:24.000Z</time>
      </trkpt>
      <trkpt lat="47.59043" lon="6.78363">
        <ele>354</ele>
        <time>2016-10-23T09:11:25.000Z</time>
      </trkpt>
      <trkpt lat="47.59045" lon="6.78366">
        <ele>354</ele>
        <time>2016-10-23T09:11:26.000Z</time>
      </trkpt>
      <trkpt lat="47.59046" lon="6.78369">
        <ele>354</ele>
        <time>2016-10-23T09:11:27.000Z</time>
      </trkpt>
      <trkpt lat="47.59047" lon="6.78374">
        <ele>354</ele>
        <time>2016-10-23T09:11:28.000Z</time>
      </trkpt>
      <trkpt lat="47.59047" lon="6.78379">
        <ele>353</ele>
        <time>2016-10-23T09:11:29.000Z</time>
      </trkpt>
      <trkpt lat="47.59047" lon="6.78384">
        <ele>353</ele>
        <time>2016-10-23T09:11:30.000Z</time>
      </trkpt>
      <trkpt lat="47.59047" lon="6.7839">
        <ele>353</ele>
        <time>2016-10-23T09:11:31.000Z</time>
      </trkpt>
      <trkpt lat="47.59047" lon="6.78396">
        <ele>353</ele>
        <time>2016-10-23T09:11:32.000Z</time>
      </trkpt>
      <trkpt lat="47.59047" lon="6.78403">
        <ele>353</ele>
        <time>2016-10-23T09:11:33.000Z</time>
      </trkpt>
      <trkpt lat="47.59047" lon="6.78409">
        <ele>352</ele>
        <time>2016-10-23T09:11:34.000Z</time>
      </trkpt>
      <trkpt lat="47.59047" lon="6.78415">
        <ele>352</ele>
        <time>2016-10-23T09:11:35.000Z</time>
      </trkpt>
      <trkpt lat="47.59049" lon="6.78425">
        <ele>350</ele>
        <time>2016-10-23T09:11:36.001Z</time>
      </trkpt>
      <trkpt lat="47.5905" lon="6.78431">
        <ele>350</ele>
        <time>2016-10-23T09:11:37.000Z</time>
      </trkpt>
      <trkpt lat="47.59049" lon="6.78438">
        <ele>350</ele>
        <time>2016-10-23T09:11:38.000Z</time>
      </trkpt>
      <trkpt lat="47.59048" lon="6.78444">
        <ele>350</ele>
        <time>2016-10-23T09:11:39.000Z</time>
      </trkpt>
      <trkpt lat="47.59048" lon="6.7845">
        <ele>350</ele>
        <time>2016-10-23T09:11:40.000Z</time>
      </trkpt>
      <trkpt lat="47.59047" lon="6.78457">
        <ele>350</ele>
        <time>2016-10-23T09:11:41.000Z</time>
      </trkpt>
      <trkpt lat="47.59045" lon="6.78463">
        <ele>350</ele>
        <time>2016-10-23T09:11:42.000Z</time>
      </trkpt>
      <trkpt lat="47.59043" lon="6.78469">
        <ele>349</ele>
        <time>2016-10-23T09:11:43.000Z</time>
      </trkpt>
      <trkpt lat="47.59041" lon="6.78476">
        <ele>349</ele>
        <time>2016-10-23T09:11:44.000Z</time>
      </trkpt>
      <trkpt lat="47.59037" lon="6.78484">
        <ele>349</ele>
        <time>2016-10-23T09:11:45.000Z</time>
      </trkpt>
      <trkpt lat="47.59033" lon="6.78491">
        <ele>349</ele>
        <time>2016-10-23T09:11:46.000Z</time>
      </trkpt>
      <trkpt lat="47.59029" lon="6.78498">
        <ele>348</ele>
        <time>2016-10-23T09:11:47.000Z</time>
      </trkpt>
      <trkpt lat="47.59026" lon="6.78505">
        <ele>349</ele>
        <time>2016-10-23T09:11:47.999Z</time>
      </trkpt>
      <trkpt lat="47.59023" lon="6.7851">
        <ele>348</ele>
        <time>2016-10-23T09:11:49.000Z</time>
      </trkpt>
      <trkpt lat="47.5902" lon="6.78517">
        <ele>348</ele>
        <time>2016-10-23T09:11:50.000Z</time>
      </trkpt>
      <trkpt lat="47.59017" lon="6.78522">
        <ele>348</ele>
        <time>2016-10-23T09:11:51.000Z</time>
      </trkpt>
      <trkpt lat="47.59012" lon="6.78527">
        <ele>348</ele>
        <time>2016-10-23T09:11:52.000Z</time>
      </trkpt>
      <trkpt lat="47.59007" lon="6.78533">
        <ele>348</ele>
        <time>2016-10-23T09:11:53.000Z</time>
      </trkpt>
      <trkpt lat="47.59003" lon="6.78537">
        <ele>348</ele>
        <time>2016-10-23T09:11:54.000Z</time>
      </trkpt>
      <trkpt lat="47.58997" lon="6.78538">
        <ele>346</ele>
        <time>2016-10-23T09:11:55.000Z</time>
      </trkpt>
      <trkpt lat="47.58991" lon="6.7854">
        <ele>346</ele>
        <time>2016-10-23T09:11:56.000Z</time>
      </trkpt>
      <trkpt lat="47.58987" lon="6.78548">
        <ele>346</ele>
        <time>2016-10-23T09:11:57.000Z</time>
      </trkpt>
      <trkpt lat="47.58982" lon="6.78552">
        <ele>346</ele>
        <time>2016-10-23T09:11:57.998Z</time>
      </trkpt>
      <trkpt lat="47.58977" lon="6.78559">
        <ele>346</ele>
        <time>2016-10-23T09:11:59.000Z</time>
      </trkpt>
      <trkpt lat="47.58974" lon="6.78565">
        <ele>346</ele>
        <time>2016-10-23T09:12:00.000Z</time>
      </trkpt>
      <trkpt lat="47.5897" lon="6.78569">
        <ele>346</ele>
        <time>2016-10-23T09:12:01.000Z</time>
      </trkpt>
      <trkpt lat="47.58965" lon="6.78574">
        <ele>346</ele>
        <time>2016-10-23T09:12:02.000Z</time>
      </trkpt>
      <trkpt lat="47.5896" lon="6.78577">
        <ele>346</ele>
        <time>2016-10-23T09:12:03.000Z</time>
      </trkpt>
      <trkpt lat="47.58955" lon="6.7858">
        <ele>346</ele>
        <time>2016-10-23T09:12:04.001Z</time>
      </trkpt>
      <trkpt lat="47.58949" lon="6.78581">
        <ele>346</ele>
        <time>2016-10-23T09:12:05.000Z</time>
      </trkpt>
      <trkpt lat="47.58944" lon="6.78582">
        <ele>346</ele>
        <time>2016-10-23T09:12:06.000Z</time>
      </trkpt>
      <trkpt lat="47.58938" lon="6.78585">
        <ele>348</ele>
        <time>2016-10-23T09:12:07.000Z</time>
      </trkpt>
      <trkpt lat="47.58932" lon="6.78585">
        <ele>348</ele>
        <time>2016-10-23T09:12:08.000Z</time>
      </trkpt>
      <trkpt lat="47.58926" lon="6.78584">
        <ele>347</ele>
        <time>2016-10-23T09:12:09.000Z</time>
      </trkpt>
      <trkpt lat="47.58921" lon="6.78584">
        <ele>347</ele>
        <time>2016-10-23T09:12:10.000Z</time>
      </trkpt>
      <trkpt lat="47.58916" lon="6.78584">
        <ele>346</ele>
        <time>2016-10-23T09:12:11.000Z</time>
      </trkpt>
      <trkpt lat="47.5891" lon="6.7858">
        <ele>346</ele>
        <time>2016-10-23T09:12:12.000Z</time>
      </trkpt>
      <trkpt lat="47.58905" lon="6.7858">
        <ele>346</ele>
        <time>2016-10-23T09:12:13.000Z</time>
      </trkpt>
      <trkpt lat="47.58902" lon="6.78579">
        <ele>346</ele>
        <time>2016-10-23T09:12:14.000Z</time>
      </trkpt>
      <trkpt lat="47.58898" lon="6.7858">
        <ele>346</ele>
        <time>2016-10-23T09:12:15.000Z</time>
      </trkpt>
      <trkpt lat="47.58894" lon="6.7858">
        <ele>346</ele>
        <time>2016-10-23T09:12:16.000Z</time>
      </trkpt>
      <trkpt lat="47.58891" lon="6.78578">
        <ele>346</ele>
        <time>2016-10-23T09:12:17.000Z</time>
      </trkpt>
      <trkpt lat="47.58887" lon="6.78577">
        <ele>346</ele>
        <time>2016-10-23T09:12:18.000Z</time>
      </trkpt>
      <trkpt lat="47.58883" lon="6.78576">
        <ele>346</ele>
        <time>2016-10-23T09:12:19.000Z</time>
      </trkpt>
      <trkpt lat="47.58876" lon="6.78576">
        <ele>346</ele>
        <time>2016-10-23T09:12:20.000Z</time>
      </trkpt>
      <trkpt lat="47.5887" lon="6.78575">
        <ele>347</ele>
        <time>2016-10-23T09:12:21.000Z</time>
      </trkpt>
      <trkpt lat="47.58865" lon="6.78574">
        <ele>347</ele>
        <time>2016-10-23T09:12:22.000Z</time>
      </trkpt>
      <trkpt lat="47.58861" lon="6.78574">
        <ele>347</ele>
        <time>2016-10-23T09:12:23.000Z</time>
      </trkpt>
      <trkpt lat="47.58857" lon="6.78571">
        <ele>347</ele>
        <time>2016-10-23T09:12:24.000Z</time>
      </trkpt>
      <trkpt lat="47.58853" lon="6.78569">
        <ele>347</ele>
        <time>2016-10-23T09:12:25.000Z</time>
      </trkpt>
      <trkpt lat="47.58849" lon="6.78567">
        <ele>347</ele>
        <time>2016-10-23T09:12:26.000Z</time>
      </trkpt>
      <trkpt lat="47.58844" lon="6.78565">
        <ele>347</ele>
        <time>2016-10-23T09:12:27.000Z</time>
      </trkpt>
      <trkpt lat="47.58839" lon="6.78562">
        <ele>347</ele>
        <time>2016-10-23T09:12:28.000Z</time>
      </trkpt>
      <trkpt lat="47.58834" lon="6.7856">
        <ele>347</ele>
        <time>2016-10-23T09:12:29.000Z</time>
      </trkpt>
      <trkpt lat="47.58829" lon="6.78558">
        <ele>347</ele>
        <time>2016-10-23T09:12:30.000Z</time>
      </trkpt>
      <trkpt lat="47.58824" lon="6.78556">
        <ele>347</ele>
        <time>2016-10-23T09:12:31.000Z</time>
      </trkpt>
      <trkpt lat="47.58821" lon="6.78554">
        <ele>347</ele>
        <time>2016-10-23T09:12:32.000Z</time>
      </trkpt>
      <trkpt lat="47.58818" lon="6.78552">
        <ele>347</ele>
        <time>2016-10-23T09:12:33.000Z</time>
      </trkpt>
      <trkpt lat="47.58812" lon="6.78548">
        <ele>347</ele>
        <time>2016-10-23T09:12:34.000Z</time>
      </trkpt>
      <trkpt lat="47.58806" lon="6.78545">
        <ele>347</ele>
        <time>2016-10-23T09:12:35.000Z</time>
      </trkpt>
      <trkpt lat="47.58799" lon="6.78545">
        <ele>347</ele>
        <time>2016-10-23T09:12:36.000Z</time>
      </trkpt>
      <trkpt lat="47.58796" lon="6.78544">
        <ele>347</ele>
        <time>2016-10-23T09:12:37.000Z</time>
      </trkpt>
      <trkpt lat="47.5879" lon="6.78547">
        <ele>347</ele>
        <time>2016-10-23T09:12:38.000Z</time>
      </trkpt>
      <trkpt lat="47.58786" lon="6.78548">
        <ele>347</ele>
        <time>2016-10-23T09:12:39.000Z</time>
      </trkpt>
      <trkpt lat="47.58782" lon="6.78547">
        <ele>347</ele>
        <time>2016-10-23T09:12:40.000Z</time>
      </trkpt>
      <trkpt lat="47.58778" lon="6.78548">
        <ele>347</ele>
        <time>2016-10-23T09:12:41.000Z</time>
      </trkpt>
      <trkpt lat="47.58776" lon="6.78546">
        <ele>347</ele>
        <time>2016-10-23T09:12:42.000Z</time>
      </trkpt>
      <trkpt lat="47.58772" lon="6.78548">
        <ele>347</ele>
        <time>2016-10-23T09:12:43.000Z</time>
      </trkpt>
      <trkpt lat="47.58767" lon="6.7855">
        <ele>347</ele>
        <time>2016-10-23T09:12:44.000Z</time>
      </trkpt>
      <trkpt lat="47.58762" lon="6.78553">
        <ele>347</ele>
        <time>2016-10-23T09:12:45.000Z</time>
      </trkpt>
      <trkpt lat="47.58758" lon="6.78555">
        <ele>347</ele>
        <time>2016-10-23T09:12:46.000Z</time>
      </trkpt>
      <trkpt lat="47.58755" lon="6.78558">
        <ele>347</ele>
        <time>2016-10-23T09:12:47.000Z</time>
      </trkpt>
      <trkpt lat="47.58752" lon="6.7856">
        <ele>348</ele>
        <time>2016-10-23T09:12:48.000Z</time>
      </trkpt>
      <trkpt lat="47.58749" lon="6.78562">
        <ele>347</ele>
        <time>2016-10-23T09:12:49.000Z</time>
      </trkpt>
      <trkpt lat="47.58745" lon="6.78564">
        <ele>347</ele>
        <time>2016-10-23T09:12:51.000Z</time>
      </trkpt>
      <trkpt lat="47.58743" lon="6.78565">
        <ele>347</ele>
        <time>2016-10-23T09:12:52.000Z</time>
      </trkpt>
      <trkpt lat="47.5874" lon="6.78567">
        <ele>347</ele>
        <time>2016-10-23T09:12:54.000Z</time>
      </trkpt>
      <trkpt lat="47.58737" lon="6.78568">
        <ele>347</ele>
        <time>2016-10-23T09:12:55.000Z</time>
      </trkpt>
      <trkpt lat="47.58733" lon="6.78569">
        <ele>347</ele>
        <time>2016-10-23T09:12:56.000Z</time>
      </trkpt>
      <trkpt lat="47.58729" lon="6.78571">
        <ele>347</ele>
        <time>2016-10-23T09:12:57.000Z</time>
      </trkpt>
      <trkpt lat="47.58726" lon="6.78572">
        <ele>347</ele>
        <time>2016-10-23T09:12:58.000Z</time>
      </trkpt>
      <trkpt lat="47.58723" lon="6.78574">
        <ele>347</ele>
        <time>2016-10-23T09:12:59.000Z</time>
      </trkpt>
      <trkpt lat="47.5872" lon="6.78576">
        <ele>347</ele>
        <time>2016-10-23T09:13:00.000Z</time>
      </trkpt>
      <trkpt lat="47.58718" lon="6.78578">
        <ele>347</ele>
        <time>2016-10-23T09:13:01.000Z</time>
      </trkpt>
      <trkpt lat="47.58716" lon="6.78579">
        <ele>347</ele>
        <time>2016-10-23T09:13:02.000Z</time>
      </trkpt>
      <trkpt lat="47.58713" lon="6.78582">
        <ele>347</ele>
        <time>2016-10-23T09:13:03.000Z</time>
      </trkpt>
      <trkpt lat="47.5871" lon="6.78585">
        <ele>349</ele>
        <time>2016-10-23T09:13:04.000Z</time>
      </trkpt>
      <trkpt lat="47.58706" lon="6.78587">
        <ele>349</ele>
        <time>2016-10-23T09:13:05.000Z</time>
      </trkpt>
      <trkpt lat="47.58702" lon="6.7859">
        <ele>348</ele>
        <time>2016-10-23T09:13:06.000Z</time>
      </trkpt>
      <trkpt lat="47.58699" lon="6.78592">
        <ele>348</ele>
        <time>2016-10-23T09:13:07.000Z</time>
      </trkpt>
      <trkpt lat="47.58695" lon="6.78594">
        <ele>348</ele>
        <time>2016-10-23T09:13:08.000Z</time>
      </trkpt>
      <trkpt lat="47.58692" lon="6.78596">
        <ele>348</ele>
        <time>2016-10-23T09:13:09.000Z</time>
      </trkpt>
      <trkpt lat="47.58688" lon="6.78598">
        <ele>348</ele>
        <time>2016-10-23T09:13:10.000Z</time>
      </trkpt>
      <trkpt lat="47.58684" lon="6.786">
        <ele>348</ele>
        <time>2016-10-23T09:13:11.000Z</time>
      </trkpt>
      <trkpt lat="47.5868" lon="6.78602">
        <ele>348</ele>
        <time>2016-10-23T09:13:12.000Z</time>
      </trkpt>
      <trkpt lat="47.58676" lon="6.78604">
        <ele>348</ele>
        <time>2016-10-23T09:13:13.000Z</time>
      </trkpt>
      <trkpt lat="47.58672" lon="6.78606">
        <ele>348</ele>
        <time>2016-10-23T09:13:14.000Z</time>
      </trkpt>
      <trkpt lat="47.58668" lon="6.78608">
        <ele>348</ele>
        <time>2016-10-23T09:13:15.000Z</time>
      </trkpt>
      <trkpt lat="47.58664" lon="6.7861">
        <ele>347</ele>
        <time>2016-10-23T09:13:16.000Z</time>
      </trkpt>
      <trkpt lat="47.5866" lon="6.78612">
        <ele>347</ele>
        <time>2016-10-23T09:13:17.000Z</time>
      </trkpt>
      <trkpt lat="47.58657" lon="6.78614">
        <ele>347</ele>
        <time>2016-10-23T09:13:18.000Z</time>
      </trkpt>
      <trkpt lat="47.58653" lon="6.78617">
        <ele>347</ele>
        <time>2016-10-23T09:13:19.000Z</time>
      </trkpt>
      <trkpt lat="47.5865" lon="6.78619">
        <ele>347</ele>
        <time>2016-10-23T09:13:20.000Z</time>
      </trkpt>
      <trkpt lat="47.58647" lon="6.78622">
        <ele>347</ele>
        <time>2016-10-23T09:13:21.000Z</time>
      </trkpt>
      <trkpt lat="47.58644" lon="6.78625">
        <ele>347</ele>
        <time>2016-10-23T09:13:22.000Z</time>
      </trkpt>
      <trkpt lat="47.58641" lon="6.78627">
        <ele>347</ele>
        <time>2016-10-23T09:13:23.000Z</time>
      </trkpt>
      <trkpt lat="47.58638" lon="6.7863">
        <ele>347</ele>
        <time>2016-10-23T09:13:24.000Z</time>
      </trkpt>
      <trkpt lat="47.58636" lon="6.78632">
        <ele>347</ele>
        <time>2016-10-23T09:13:25.000Z</time>
      </trkpt>
      <trkpt lat="47.58633" lon="6.78634">
        <ele>347</ele>
        <time>2016-10-23T09:13:26.000Z</time>
      </trkpt>
      <trkpt lat="47.58632" lon="6.78636">
        <ele>347</ele>
        <time>2016-10-23T09:13:27.000Z</time>
      </trkpt>
      <trkpt lat="47.5863" lon="6.78638">
        <ele>347</ele>
        <time>2016-10-23T09:13:28.000Z</time>
      </trkpt>
      <trkpt lat="47.58627" lon="6.78639">
        <ele>347</ele>
        <time>2016-10-23T09:13:29.000Z</time>
      </trkpt>
      <trkpt lat="47.58625" lon="6.78641">
        <ele>347</ele>
        <time>2016-10-23T09:13:30.000Z</time>
      </trkpt>
      <trkpt lat="47.58621" lon="6.78642">
        <ele>347</ele>
        <time>2016-10-23T09:13:31.000Z</time>
      </trkpt>
      <trkpt lat="47.58617" lon="6.78644">
        <ele>347</ele>
        <time>2016-10-23T09:13:32.000Z</time>
      </trkpt>
      <trkpt lat="47.58614" lon="6.78646">
        <ele>347</ele>
        <time>2016-10-23T09:13:33.000Z</time>
      </trkpt>
      <trkpt lat="47.5861" lon="6.78649">
        <ele>347</ele>
        <time>2016-10-23T09:13:34.000Z</time>
      </trkpt>
      <trkpt lat="47.58606" lon="6.78652">
        <ele>347</ele>
        <time>2016-10-23T09:13:35.000Z</time>
      </trkpt>
      <trkpt lat="47.58602" lon="6.78655">
        <ele>347</ele>
        <time>2016-10-23T09:13:36.000Z</time>
      </trkpt>
      <trkpt lat="47.58599" lon="6.78658">
        <ele>347</ele>
        <time>2016-10-23T09:13:37.000Z</time>
      </trkpt>
      <trkpt lat="47.58595" lon="6.78661">
        <ele>347</ele>
        <time>2016-10-23T09:13:38.000Z</time>
      </trkpt>
      <trkpt lat="47.58591" lon="6.78664">
        <ele>348</ele>
        <time>2016-10-23T09:13:39.000Z</time>
      </trkpt>
      <trkpt lat="47.58588" lon="6.78668">
        <ele>348</ele>
        <time>2016-10-23T09:13:40.000Z</time>
      </trkpt>
      <trkpt lat="47.58585" lon="6.78672">
        <ele>349</ele>
        <time>2016-10-23T09:13:41.000Z</time>
      </trkpt>
      <trkpt lat="47.58583" lon="6.78677">
        <ele>348</ele>
        <time>2016-10-23T09:13:42.000Z</time>
      </trkpt>
      <trkpt lat="47.58581" lon="6.78683">
        <ele>348</ele>
        <time>2016-10-23T09:13:43.000Z</time>
      </trkpt>
      <trkpt lat="47.5858" lon="6.78688">
        <ele>348</ele>
        <time>2016-10-23T09:13:44.000Z</time>
      </trkpt>
      <trkpt lat="47.58578" lon="6.78694">
        <ele>348</ele>
        <time>2016-10-23T09:13:45.000Z</time>
      </trkpt>
      <trkpt lat="47.58577" lon="6.787">
        <ele>348</ele>
        <time>2016-10-23T09:13:46.000Z</time>
      </trkpt>
      <trkpt lat="47.58576" lon="6.78706">
        <ele>348</ele>
        <time>2016-10-23T09:13:47.000Z</time>
      </trkpt>
      <trkpt lat="47.58576" lon="6.78713">
        <ele>348</ele>
        <time>2016-10-23T09:13:48.000Z</time>
      </trkpt>
      <trkpt lat="47.58575" lon="6.78719">
        <ele>349</ele>
        <time>2016-10-23T09:13:49.000Z</time>
      </trkpt>
      <trkpt lat="47.58575" lon="6.78726">
        <ele>349</ele>
        <time>2016-10-23T09:13:50.000Z</time>
      </trkpt>
      <trkpt lat="47.58575" lon="6.78732">
        <ele>349</ele>
        <time>2016-10-23T09:13:51.000Z</time>
      </trkpt>
      <trkpt lat="47.58574" lon="6.78738">
        <ele>349</ele>
        <time>2016-10-23T09:13:52.000Z</time>
      </trkpt>
      <trkpt lat="47.58573" lon="6.78745">
        <ele>350</ele>
        <time>2016-10-23T09:13:53.000Z</time>
      </trkpt>
      <trkpt lat="47.58573" lon="6.78751">
        <ele>350</ele>
        <time>2016-10-23T09:13:54.000Z</time>
      </trkpt>
      <trkpt lat="47.58572" lon="6.78756">
        <ele>350</ele>
        <time>2016-10-23T09:13:55.000Z</time>
      </trkpt>
      <trkpt lat="47.5857" lon="6.78762">
        <ele>350</ele>
        <time>2016-10-23T09:13:56.000Z</time>
      </trkpt>
      <trkpt lat="47.58569" lon="6.78766">
        <ele>350</ele>
        <time>2016-10-23T09:13:57.000Z</time>
      </trkpt>
      <trkpt lat="47.58566" lon="6.78769">
        <ele>350</ele>
        <time>2016-10-23T09:13:58.000Z</time>
      </trkpt>
      <trkpt lat="47.58565" lon="6.7877">
        <ele>350</ele>
        <time>2016-10-23T09:13:59.000Z</time>
      </trkpt>
      <trkpt lat="47.58562" lon="6.78765">
        <ele>350</ele>
        <time>2016-10-23T09:14:06.000Z</time>
      </trkpt>
      <trkpt lat="47.58561" lon="6.78765">
        <ele>350</ele>
        <time>2016-10-23T09:14:07.000Z</time>
      </trkpt>
      <trkpt lat="47.58559" lon="6.78766">
        <ele>350</ele>
        <time>2016-10-23T09:14:08.000Z</time>
      </trkpt>
      <trkpt lat="47.58556" lon="6.78766">
        <ele>350</ele>
        <time>2016-10-23T09:14:09.000Z</time>
      </trkpt>
      <trkpt lat="47.58553" lon="6.78767">
        <ele>349</ele>
        <time>2016-10-23T09:14:10.000Z</time>
      </trkpt>
      <trkpt lat="47.58549" lon="6.78768">
        <ele>349</ele>
        <time>2016-10-23T09:14:11.000Z</time>
      </trkpt>
      <trkpt lat="47.58545" lon="6.78769">
        <ele>349</ele>
        <time>2016-10-23T09:14:12.000Z</time>
      </trkpt>
      <trkpt lat="47.58539" lon="6.78774">
        <ele>349</ele>
        <time>2016-10-23T09:14:13.000Z</time>
      </trkpt>
      <trkpt lat="47.58535" lon="6.78777">
        <ele>349</ele>
        <time>2016-10-23T09:14:14.000Z</time>
      </trkpt>
      <trkpt lat="47.5853" lon="6.7878">
        <ele>349</ele>
        <time>2016-10-23T09:14:15.000Z</time>
      </trkpt>
      <trkpt lat="47.58526" lon="6.78784">
        <ele>349</ele>
        <time>2016-10-23T09:14:16.000Z</time>
      </trkpt>
      <trkpt lat="47.58523" lon="6.78791">
        <ele>349</ele>
        <time>2016-10-23T09:14:17.000Z</time>
      </trkpt>
      <trkpt lat="47.58519" lon="6.78797">
        <ele>349</ele>
        <time>2016-10-23T09:14:18.000Z</time>
      </trkpt>
      <trkpt lat="47.58516" lon="6.788">
        <ele>349</ele>
        <time>2016-10-23T09:14:19.000Z</time>
      </trkpt>
      <trkpt lat="47.58513" lon="6.788">
        <ele>349</ele>
        <time>2016-10-23T09:14:20.000Z</time>
      </trkpt>
      <trkpt lat="47.5851" lon="6.78802">
        <ele>349</ele>
        <time>2016-10-23T09:14:21.000Z</time>
      </trkpt>
      <trkpt lat="47.58506" lon="6.78805">
        <ele>349</ele>
        <time>2016-10-23T09:14:22.000Z</time>
      </trkpt>
      <trkpt lat="47.58503" lon="6.78808">
        <ele>349</ele>
        <time>2016-10-23T09:14:23.000Z</time>
      </trkpt>
      <trkpt lat="47.58499" lon="6.78816">
        <ele>347</ele>
        <time>2016-10-23T09:14:24.000Z</time>
      </trkpt>
      <trkpt lat="47.58494" lon="6.78819">
        <ele>347</ele>
        <time>2016-10-23T09:14:25.000Z</time>
      </trkpt>
      <trkpt lat="47.5849" lon="6.78823">
        <ele>347</ele>
        <time>2016-10-23T09:14:26.000Z</time>
      </trkpt>
      <trkpt lat="47.58486" lon="6.78827">
        <ele>347</ele>
        <time>2016-10-23T09:14:27.000Z</time>
      </trkpt>
      <trkpt lat="47.58481" lon="6.7883">
        <ele>346</ele>
        <time>2016-10-23T09:14:28.000Z</time>
      </trkpt>
      <trkpt lat="47.58476" lon="6.78834">
        <ele>347</ele>
        <time>2016-10-23T09:14:29.000Z</time>
      </trkpt>
      <trkpt lat="47.58471" lon="6.78837">
        <ele>347</ele>
        <time>2016-10-23T09:14:30.000Z</time>
      </trkpt>
      <trkpt lat="47.58466" lon="6.78841">
        <ele>347</ele>
        <time>2016-10-23T09:14:31.000Z</time>
      </trkpt>
      <trkpt lat="47.58461" lon="6.78845">
        <ele>347</ele>
        <time>2016-10-23T09:14:32.000Z</time>
      </trkpt>
      <trkpt lat="47.58457" lon="6.7885">
        <ele>347</ele>
        <time>2016-10-23T09:14:33.000Z</time>
      </trkpt>
      <trkpt lat="47.58451" lon="6.78854">
        <ele>347</ele>
        <time>2016-10-23T09:14:34.000Z</time>
      </trkpt>
      <trkpt lat="47.58447" lon="6.78859">
        <ele>347</ele>
        <time>2016-10-23T09:14:35.000Z</time>
      </trkpt>
      <trkpt lat="47.58441" lon="6.78864">
        <ele>346</ele>
        <time>2016-10-23T09:14:36.000Z</time>
      </trkpt>
      <trkpt lat="47.58436" lon="6.78867">
        <ele>346</ele>
        <time>2016-10-23T09:14:37.000Z</time>
      </trkpt>
      <trkpt lat="47.58431" lon="6.78869">
        <ele>346</ele>
        <time>2016-10-23T09:14:38.000Z</time>
      </trkpt>
      <trkpt lat="47.58427" lon="6.78874">
        <ele>346</ele>
        <time>2016-10-23T09:14:39.000Z</time>
      </trkpt>
      <trkpt lat="47.58423" lon="6.78878">
        <ele>347</ele>
        <time>2016-10-23T09:14:40.000Z</time>
      </trkpt>
      <trkpt lat="47.58419" lon="6.78883">
        <ele>347</ele>
        <time>2016-10-23T09:14:41.000Z</time>
      </trkpt>
      <trkpt lat="47.58414" lon="6.78887">
        <ele>346</ele>
        <time>2016-10-23T09:14:42.001Z</time>
      </trkpt>
      <trkpt lat="47.58411" lon="6.78891">
        <ele>346</ele>
        <time>2016-10-23T09:14:43.000Z</time>
      </trkpt>
      <trkpt lat="47.58407" lon="6.78894">
        <ele>346</ele>
        <time>2016-10-23T09:14:44.000Z</time>
      </trkpt>
      <trkpt lat="47.58402" lon="6.78898">
        <ele>346</ele>
        <time>2016-10-23T09:14:45.000Z</time>
      </trkpt>
      <trkpt lat="47.58397" lon="6.78902">
        <ele>346</ele>
        <time>2016-10-23T09:14:46.000Z</time>
      </trkpt>
      <trkpt lat="47.58394" lon="6.78907">
        <ele>346</ele>
        <time>2016-10-23T09:14:47.000Z</time>
      </trkpt>
      <trkpt lat="47.58389" lon="6.7891">
        <ele>346</ele>
        <time>2016-10-23T09:14:48.000Z</time>
      </trkpt>
      <trkpt lat="47.58385" lon="6.78914">
        <ele>346</ele>
        <time>2016-10-23T09:14:48.998Z</time>
      </trkpt>
      <trkpt lat="47.5838" lon="6.78919">
        <ele>347</ele>
        <time>2016-10-23T09:14:50.000Z</time>
      </trkpt>
      <trkpt lat="47.58374" lon="6.78923">
        <ele>346</ele>
        <time>2016-10-23T09:14:51.000Z</time>
      </trkpt>
      <trkpt lat="47.58369" lon="6.78926">
        <ele>346</ele>
        <time>2016-10-23T09:14:52.000Z</time>
      </trkpt>
      <trkpt lat="47.58364" lon="6.78928">
        <ele>346</ele>
        <time>2016-10-23T09:14:53.000Z</time>
      </trkpt>
      <trkpt lat="47.58359" lon="6.78929">
        <ele>346</ele>
        <time>2016-10-23T09:14:54.000Z</time>
      </trkpt>
      <trkpt lat="47.58354" lon="6.78929">
        <ele>346</ele>
        <time>2016-10-23T09:14:55.000Z</time>
      </trkpt>
      <trkpt lat="47.58348" lon="6.78926">
        <ele>346</ele>
        <time>2016-10-23T09:14:56.000Z</time>
      </trkpt>
      <trkpt lat="47.58342" lon="6.78923">
        <ele>346</ele>
        <time>2016-10-23T09:14:57.000Z</time>
      </trkpt>
      <trkpt lat="47.58335" lon="6.7892">
        <ele>345</ele>
        <time>2016-10-23T09:14:58.000Z</time>
      </trkpt>
      <trkpt lat="47.58329" lon="6.78916">
        <ele>345</ele>
        <time>2016-10-23T09:14:59.000Z</time>
      </trkpt>
      <trkpt lat="47.58324" lon="6.78912">
        <ele>345</ele>
        <time>2016-10-23T09:15:00.000Z</time>
      </trkpt>
      <trkpt lat="47.58319" lon="6.78912">
        <ele>345</ele>
        <time>2016-10-23T09:15:01.000Z</time>
      </trkpt>
      <trkpt lat="47.58314" lon="6.78911">
        <ele>345</ele>
        <time>2016-10-23T09:15:02.000Z</time>
      </trkpt>
      <trkpt lat="47.5831" lon="6.78909">
        <ele>345</ele>
        <time>2016-10-23T09:15:03.000Z</time>
      </trkpt>
      <trkpt lat="47.58305" lon="6.78908">
        <ele>346</ele>
        <time>2016-10-23T09:15:04.000Z</time>
      </trkpt>
      <trkpt lat="47.583" lon="6.78908">
        <ele>346</ele>
        <time>2016-10-23T09:15:05.000Z</time>
      </trkpt>
      <trkpt lat="47.58295" lon="6.78908">
        <ele>346</ele>
        <time>2016-10-23T09:15:05.999Z</time>
      </trkpt>
      <trkpt lat="47.58292" lon="6.78913">
        <ele>346</ele>
        <time>2016-10-23T09:15:07.000Z</time>
      </trkpt>
      <trkpt lat="47.58287" lon="6.78916">
        <ele>346</ele>
        <time>2016-10-23T09:15:08.000Z</time>
      </trkpt>
      <trkpt lat="47.58282" lon="6.78918">
        <ele>347</ele>
        <time>2016-10-23T09:15:09.000Z</time>
      </trkpt>
      <trkpt lat="47.58278" lon="6.78921">
        <ele>347</ele>
        <time>2016-10-23T09:15:10.000Z</time>
      </trkpt>
      <trkpt lat="47.58274" lon="6.78925">
        <ele>347</ele>
        <time>2016-10-23T09:15:11.000Z</time>
      </trkpt>
      <trkpt lat="47.5827" lon="6.78929">
        <ele>347</ele>
        <time>2016-10-23T09:15:12.000Z</time>
      </trkpt>
      <trkpt lat="47.58267" lon="6.78933">
        <ele>347</ele>
        <time>2016-10-23T09:15:13.000Z</time>
      </trkpt>
      <trkpt lat="47.58264" lon="6.78936">
        <ele>347</ele>
        <time>2016-10-23T09:15:14.000Z</time>
      </trkpt>
      <trkpt lat="47.5826" lon="6.78938">
        <ele>347</ele>
        <time>2016-10-23T09:15:15.000Z</time>
      </trkpt>
      <trkpt lat="47.58256" lon="6.78941">
        <ele>347</ele>
        <time>2016-10-23T09:15:16.000Z</time>
      </trkpt>
      <trkpt lat="47.58252" lon="6.78945">
        <ele>347</ele>
        <time>2016-10-23T09:15:17.000Z</time>
      </trkpt>
      <trkpt lat="47.58248" lon="6.78948">
        <ele>349</ele>
        <time>2016-10-23T09:15:18.000Z</time>
      </trkpt>
      <trkpt lat="47.58244" lon="6.78951">
        <ele>349</ele>
        <time>2016-10-23T09:15:19.000Z</time>
      </trkpt>
      <trkpt lat="47.58241" lon="6.78953">
        <ele>349</ele>
        <time>2016-10-23T09:15:20.000Z</time>
      </trkpt>
      <trkpt lat="47.58237" lon="6.78955">
        <ele>350</ele>
        <time>2016-10-23T09:15:21.000Z</time>
      </trkpt>
      <trkpt lat="47.58234" lon="6.78957">
        <ele>350</ele>
        <time>2016-10-23T09:15:22.000Z</time>
      </trkpt>
      <trkpt lat="47.58229" lon="6.7896">
        <ele>350</ele>
        <time>2016-10-23T09:15:23.000Z</time>
      </trkpt>
      <trkpt lat="47.58225" lon="6.78962">
        <ele>350</ele>
        <time>2016-10-23T09:15:24.000Z</time>
      </trkpt>
      <trkpt lat="47.58222" lon="6.78966">
        <ele>350</ele>
        <time>2016-10-23T09:15:24.999Z</time>
      </trkpt>
      <trkpt lat="47.58219" lon="6.78967">
        <ele>350</ele>
        <time>2016-10-23T09:15:26.000Z</time>
      </trkpt>
      <trkpt lat="47.58216" lon="6.7897">
        <ele>350</ele>
        <time>2016-10-23T09:15:27.000Z</time>
      </trkpt>
      <trkpt lat="47.58214" lon="6.78973">
        <ele>350</ele>
        <time>2016-10-23T09:15:28.000Z</time>
      </trkpt>
      <trkpt lat="47.58211" lon="6.78976">
        <ele>350</ele>
        <time>2016-10-23T09:15:29.000Z</time>
      </trkpt>
      <trkpt lat="47.58208" lon="6.78979">
        <ele>350</ele>
        <time>2016-10-23T09:15:30.000Z</time>
      </trkpt>
      <trkpt lat="47.58205" lon="6.78981">
        <ele>350</ele>
        <time>2016-10-23T09:15:31.000Z</time>
      </trkpt>
      <trkpt lat="47.58202" lon="6.78983">
        <ele>350</ele>
        <time>2016-10-23T09:15:32.000Z</time>
      </trkpt>
      <trkpt lat="47.58198" lon="6.78985">
        <ele>351</ele>
        <time>2016-10-23T09:15:33.000Z</time>
      </trkpt>
      <trkpt lat="47.58195" lon="6.78988">
        <ele>351</ele>
        <time>2016-10-23T09:15:34.000Z</time>
      </trkpt>
      <trkpt lat="47.58191" lon="6.7899">
        <ele>351</ele>
        <time>2016-10-23T09:15:35.001Z</time>
      </trkpt>
      <trkpt lat="47.58188" lon="6.78992">
        <ele>351</ele>
        <time>2016-10-23T09:15:36.000Z</time>
      </trkpt>
      <trkpt lat="47.58185" lon="6.78993">
        <ele>351</ele>
        <time>2016-10-23T09:15:37.000Z</time>
      </trkpt>
      <trkpt lat="47.58182" lon="6.78995">
        <ele>351</ele>
        <time>2016-10-23T09:15:38.000Z</time>
      </trkpt>
      <trkpt lat="47.58179" lon="6.78997">
        <ele>351</ele>
        <time>2016-10-23T09:15:39.000Z</time>
      </trkpt>
      <trkpt lat="47.58177" lon="6.78999">
        <ele>351</ele>
        <time>2016-10-23T09:15:40.000Z</time>
      </trkpt>
      <trkpt lat="47.58174" lon="6.79001">
        <ele>352</ele>
        <time>2016-10-23T09:15:41.000Z</time>
      </trkpt>
      <trkpt lat="47.58171" lon="6.79002">
        <ele>352</ele>
        <time>2016-10-23T09:15:42.000Z</time>
      </trkpt>
      <trkpt lat="47.58168" lon="6.79004">
        <ele>352</ele>
        <time>2016-10-23T09:15:43.000Z</time>
      </trkpt>
      <trkpt lat="47.58166" lon="6.79006">
        <ele>353</ele>
        <time>2016-10-23T09:15:44.000Z</time>
      </trkpt>
      <trkpt lat="47.58163" lon="6.79008">
        <ele>354</ele>
        <time>2016-10-23T09:15:45.000Z</time>
      </trkpt>
      <trkpt lat="47.5816" lon="6.7901">
        <ele>354</ele>
        <time>2016-10-23T09:15:46.000Z</time>
      </trkpt>
      <trkpt lat="47.58158" lon="6.79013">
        <ele>354</ele>
        <time>2016-10-23T09:15:47.000Z</time>
      </trkpt>
      <trkpt lat="47.58156" lon="6.79017">
        <ele>355</ele>
        <time>2016-10-23T09:15:48.000Z</time>
      </trkpt>
      <trkpt lat="47.58156" lon="6.79023">
        <ele>355</ele>
        <time>2016-10-23T09:15:49.000Z</time>
      </trkpt>
      <trkpt lat="47.58156" lon="6.79029">
        <ele>356</ele>
        <time>2016-10-23T09:15:50.000Z</time>
      </trkpt>
      <trkpt lat="47.58156" lon="6.79036">
        <ele>356</ele>
        <time>2016-10-23T09:15:51.000Z</time>
      </trkpt>
      <trkpt lat="47.58156" lon="6.79042">
        <ele>356</ele>
        <time>2016-10-23T09:15:52.000Z</time>
      </trkpt>
      <trkpt lat="47.58156" lon="6.79048">
        <ele>356</ele>
        <time>2016-10-23T09:15:53.000Z</time>
      </trkpt>
      <trkpt lat="47.58156" lon="6.79054">
        <ele>356</ele>
        <time>2016-10-23T09:15:54.000Z</time>
      </trkpt>
      <trkpt lat="47.58155" lon="6.7906">
        <ele>356</ele>
        <time>2016-10-23T09:15:55.000Z</time>
      </trkpt>
      <trkpt lat="47.58156" lon="6.79066">
        <ele>356</ele>
        <time>2016-10-23T09:15:56.000Z</time>
      </trkpt>
      <trkpt lat="47.58156" lon="6.79071">
        <ele>356</ele>
        <time>2016-10-23T09:15:57.000Z</time>
      </trkpt>
      <trkpt lat="47.58156" lon="6.79077">
        <ele>355</ele>
        <time>2016-10-23T09:15:58.000Z</time>
      </trkpt>
      <trkpt lat="47.58156" lon="6.79083">
        <ele>355</ele>
        <time>2016-10-23T09:15:59.000Z</time>
      </trkpt>
      <trkpt lat="47.58155" lon="6.79089">
        <ele>356</ele>
        <time>2016-10-23T09:16:00.000Z</time>
      </trkpt>
      <trkpt lat="47.58155" lon="6.79094">
        <ele>357</ele>
        <time>2016-10-23T09:16:01.000Z</time>
      </trkpt>
      <trkpt lat="47.58154" lon="6.79098">
        <ele>357</ele>
        <time>2016-10-23T09:16:02.000Z</time>
      </trkpt>
      <trkpt lat="47.58153" lon="6.79102">
        <ele>358</ele>
        <time>2016-10-23T09:16:03.000Z</time>
      </trkpt>
      <trkpt lat="47.58151" lon="6.79105">
        <ele>358</ele>
        <time>2016-10-23T09:16:04.000Z</time>
      </trkpt>
      <trkpt lat="47.5815" lon="6.79108">
        <ele>358</ele>
        <time>2016-10-23T09:16:05.000Z</time>
      </trkpt>
      <trkpt lat="47.58148" lon="6.79111">
        <ele>358</ele>
        <time>2016-10-23T09:16:06.000Z</time>
      </trkpt>
      <trkpt lat="47.58147" lon="6.79114">
        <ele>359</ele>
        <time>2016-10-23T09:16:07.000Z</time>
      </trkpt>
      <trkpt lat="47.58145" lon="6.79118">
        <ele>359</ele>
        <time>2016-10-23T09:16:08.000Z</time>
      </trkpt>
      <trkpt lat="47.58144" lon="6.79121">
        <ele>359</ele>
        <time>2016-10-23T09:16:09.000Z</time>
      </trkpt>
      <trkpt lat="47.58143" lon="6.79124">
        <ele>359</ele>
        <time>2016-10-23T09:16:10.000Z</time>
      </trkpt>
      <trkpt lat="47.58141" lon="6.79127">
        <ele>359</ele>
        <time>2016-10-23T09:16:11.000Z</time>
      </trkpt>
      <trkpt lat="47.5814" lon="6.7913">
        <ele>359</ele>
        <time>2016-10-23T09:16:12.000Z</time>
      </trkpt>
      <trkpt lat="47.58139" lon="6.79134">
        <ele>360</ele>
        <time>2016-10-23T09:16:13.000Z</time>
      </trkpt>
      <trkpt lat="47.58138" lon="6.79138">
        <ele>360</ele>
        <time>2016-10-23T09:16:14.000Z</time>
      </trkpt>
      <trkpt lat="47.58138" lon="6.79142">
        <ele>360</ele>
        <time>2016-10-23T09:16:15.000Z</time>
      </trkpt>
      <trkpt lat="47.58138" lon="6.79145">
        <ele>360</ele>
        <time>2016-10-23T09:16:16.000Z</time>
      </trkpt>
      <trkpt lat="47.58138" lon="6.79148">
        <ele>360</ele>
        <time>2016-10-23T09:16:17.000Z</time>
      </trkpt>
      <trkpt lat="47.58137" lon="6.79154">
        <ele>360</ele>
        <time>2016-10-23T09:16:19.000Z</time>
      </trkpt>
      <trkpt lat="47.58137" lon="6.79158">
        <ele>360</ele>
        <time>2016-10-23T09:16:20.000Z</time>
      </trkpt>
      <trkpt lat="47.58137" lon="6.79162">
        <ele>360</ele>
        <time>2016-10-23T09:16:21.000Z</time>
      </trkpt>
      <trkpt lat="47.58137" lon="6.79166">
        <ele>360</ele>
        <time>2016-10-23T09:16:22.000Z</time>
      </trkpt>
      <trkpt lat="47.58137" lon="6.7917">
        <ele>362</ele>
        <time>2016-10-23T09:16:23.000Z</time>
      </trkpt>
      <trkpt lat="47.58137" lon="6.79173">
        <ele>362</ele>
        <time>2016-10-23T09:16:24.000Z</time>
      </trkpt>
      <trkpt lat="47.58136" lon="6.79179">
        <ele>362</ele>
        <time>2016-10-23T09:16:26.000Z</time>
      </trkpt>
      <trkpt lat="47.58135" lon="6.79182">
        <ele>363</ele>
        <time>2016-10-23T09:16:27.000Z</time>
      </trkpt>
      <trkpt lat="47.58135" lon="6.79187">
        <ele>363</ele>
        <time>2016-10-23T09:16:29.000Z</time>
      </trkpt>
      <trkpt lat="47.58134" lon="6.7919">
        <ele>363</ele>
        <time>2016-10-23T09:16:30.000Z</time>
      </trkpt>
      <trkpt lat="47.58134" lon="6.79194">
        <ele>363</ele>
        <time>2016-10-23T09:16:32.000Z</time>
      </trkpt>
      <trkpt lat="47.58134" lon="6.79196">
        <ele>363</ele>
        <time>2016-10-23T09:16:33.000Z</time>
      </trkpt>
      <trkpt lat="47.58131" lon="6.79201">
        <ele>363</ele>
        <time>2016-10-23T09:16:39.000Z</time>
      </trkpt>
      <trkpt lat="47.5813" lon="6.79202">
        <ele>363</ele>
        <time>2016-10-23T09:16:40.000Z</time>
      </trkpt>
      <trkpt lat="47.58127" lon="6.79205">
        <ele>364</ele>
        <time>2016-10-23T09:16:45.000Z</time>
      </trkpt>
      <trkpt lat="47.58127" lon="6.79206">
        <ele>364</ele>
        <time>2016-10-23T09:16:46.000Z</time>
      </trkpt>
      <trkpt lat="47.58123" lon="6.79204">
        <ele>364</ele>
        <time>2016-10-23T09:16:49.000Z</time>
      </trkpt>
      <trkpt lat="47.58122" lon="6.79203">
        <ele>364</ele>
        <time>2016-10-23T09:16:50.000Z</time>
      </trkpt>
      <trkpt lat="47.58118" lon="6.79202">
        <ele>364</ele>
        <time>2016-10-23T09:16:52.000Z</time>
      </trkpt>
      <trkpt lat="47.58117" lon="6.79201">
        <ele>364</ele>
        <time>2016-10-23T09:16:53.000Z</time>
      </trkpt>
      <trkpt lat="47.58113" lon="6.792">
        <ele>364</ele>
        <time>2016-10-23T09:16:55.000Z</time>
      </trkpt>
      <trkpt lat="47.58111" lon="6.792">
        <ele>364</ele>
        <time>2016-10-23T09:16:56.000Z</time>
      </trkpt>
      <trkpt lat="47.58108" lon="6.79195">
        <ele>364</ele>
        <time>2016-10-23T09:16:59.000Z</time>
      </trkpt>
      <trkpt lat="47.58108" lon="6.79193">
        <ele>364</ele>
        <time>2016-10-23T09:17:00.000Z</time>
      </trkpt>
      <trkpt lat="47.58106" lon="6.79188">
        <ele>364</ele>
        <time>2016-10-23T09:17:02.000Z</time>
      </trkpt>
      <trkpt lat="47.58105" lon="6.79187">
        <ele>364</ele>
        <time>2016-10-23T09:17:03.000Z</time>
      </trkpt>
      <trkpt lat="47.581" lon="6.79185">
        <ele>365</ele>
        <time>2016-10-23T09:17:06.000Z</time>
      </trkpt>
      <trkpt lat="47.58099" lon="6.79185">
        <ele>365</ele>
        <time>2016-10-23T09:17:07.000Z</time>
      </trkpt>
      <trkpt lat="47.58095" lon="6.79185">
        <ele>365</ele>
        <time>2016-10-23T09:17:09.000Z</time>
      </trkpt>
      <trkpt lat="47.58093" lon="6.79185">
        <ele>365</ele>
        <time>2016-10-23T09:17:10.000Z</time>
      </trkpt>
      <trkpt lat="47.5809" lon="6.79184">
        <ele>365</ele>
        <time>2016-10-23T09:17:12.000Z</time>
      </trkpt>
      <trkpt lat="47.58088" lon="6.79184">
        <ele>365</ele>
        <time>2016-10-23T09:17:13.000Z</time>
      </trkpt>
      <trkpt lat="47.58084" lon="6.79182">
        <ele>365</ele>
        <time>2016-10-23T09:17:15.000Z</time>
      </trkpt>
      <trkpt lat="47.58082" lon="6.79181">
        <ele>370</ele>
        <time>2016-10-23T09:17:16.000Z</time>
      </trkpt>
      <trkpt lat="47.58078" lon="6.79179">
        <ele>370</ele>
        <time>2016-10-23T09:17:19.000Z</time>
      </trkpt>
      <trkpt lat="47.58076" lon="6.79179">
        <ele>370</ele>
        <time>2016-10-23T09:17:20.000Z</time>
      </trkpt>
      <trkpt lat="47.58072" lon="6.79178">
        <ele>370</ele>
        <time>2016-10-23T09:17:23.000Z</time>
      </trkpt>
      <trkpt lat="47.5807" lon="6.79177">
        <ele>371</ele>
        <time>2016-10-23T09:17:24.000Z</time>
      </trkpt>
      <trkpt lat="47.58067" lon="6.79175">
        <ele>371</ele>
        <time>2016-10-23T09:17:26.000Z</time>
      </trkpt>
      <trkpt lat="47.58066" lon="6.79174">
        <ele>371</ele>
        <time>2016-10-23T09:17:27.000Z</time>
      </trkpt>
      <trkpt lat="47.58062" lon="6.79171">
        <ele>372</ele>
        <time>2016-10-23T09:17:30.000Z</time>
      </trkpt>
      <trkpt lat="47.58061" lon="6.7917">
        <ele>372</ele>
        <time>2016-10-23T09:17:31.000Z</time>
      </trkpt>
      <trkpt lat="47.58058" lon="6.79167">
        <ele>372</ele>
        <time>2016-10-23T09:17:34.000Z</time>
      </trkpt>
      <trkpt lat="47.58058" lon="6.79165">
        <ele>370</ele>
        <time>2016-10-23T09:17:35.000Z</time>
      </trkpt>
      <trkpt lat="47.58056" lon="6.79162">
        <ele>371</ele>
        <time>2016-10-23T09:17:37.000Z</time>
      </trkpt>
      <trkpt lat="47.58055" lon="6.79159">
        <ele>371</ele>
        <time>2016-10-23T09:17:38.000Z</time>
      </trkpt>
      <trkpt lat="47.58053" lon="6.79155">
        <ele>371</ele>
        <time>2016-10-23T09:17:40.000Z</time>
      </trkpt>
      <trkpt lat="47.58052" lon="6.79154">
        <ele>371</ele>
        <time>2016-10-23T09:17:41.000Z</time>
      </trkpt>
      <trkpt lat="47.58049" lon="6.79149">
        <ele>372</ele>
        <time>2016-10-23T09:17:44.000Z</time>
      </trkpt>
      <trkpt lat="47.58048" lon="6.79148">
        <ele>372</ele>
        <time>2016-10-23T09:17:45.000Z</time>
      </trkpt>
      <trkpt lat="47.58046" lon="6.79145">
        <ele>372</ele>
        <time>2016-10-23T09:17:47.000Z</time>
      </trkpt>
      <trkpt lat="47.58044" lon="6.79143">
        <ele>372</ele>
        <time>2016-10-23T09:17:48.000Z</time>
      </trkpt>
      <trkpt lat="47.5804" lon="6.79141">
        <ele>373</ele>
        <time>2016-10-23T09:17:50.000Z</time>
      </trkpt>
      <trkpt lat="47.58038" lon="6.79141">
        <ele>373</ele>
        <time>2016-10-23T09:17:51.000Z</time>
      </trkpt>
      <trkpt lat="47.58034" lon="6.79141">
        <ele>373</ele>
        <time>2016-10-23T09:17:54.000Z</time>
      </trkpt>
      <trkpt lat="47.58033" lon="6.79141">
        <ele>373</ele>
        <time>2016-10-23T09:17:55.000Z</time>
      </trkpt>
      <trkpt lat="47.58029" lon="6.79144">
        <ele>374</ele>
        <time>2016-10-23T09:17:58.000Z</time>
      </trkpt>
      <trkpt lat="47.58028" lon="6.79145">
        <ele>374</ele>
        <time>2016-10-23T09:17:59.000Z</time>
      </trkpt>
      <trkpt lat="47.58023" lon="6.79145">
        <ele>374</ele>
        <time>2016-10-23T09:18:02.000Z</time>
      </trkpt>
      <trkpt lat="47.58022" lon="6.79145">
        <ele>375</ele>
        <time>2016-10-23T09:18:03.000Z</time>
      </trkpt>
      <trkpt lat="47.58019" lon="6.79145">
        <ele>375</ele>
        <time>2016-10-23T09:18:06.000Z</time>
      </trkpt>
      <trkpt lat="47.58017" lon="6.79145">
        <ele>375</ele>
        <time>2016-10-23T09:18:07.000Z</time>
      </trkpt>
      <trkpt lat="47.58013" lon="6.79145">
        <ele>375</ele>
        <time>2016-10-23T09:18:10.000Z</time>
      </trkpt>
      <trkpt lat="47.58011" lon="6.79145">
        <ele>376</ele>
        <time>2016-10-23T09:18:11.000Z</time>
      </trkpt>
      <trkpt lat="47.58008" lon="6.79146">
        <ele>376</ele>
        <time>2016-10-23T09:18:14.000Z</time>
      </trkpt>
      <trkpt lat="47.58006" lon="6.79147">
        <ele>376</ele>
        <time>2016-10-23T09:18:15.000Z</time>
      </trkpt>
      <trkpt lat="47.58002" lon="6.79147">
        <ele>376</ele>
        <time>2016-10-23T09:18:19.000Z</time>
      </trkpt>
      <trkpt lat="47.58001" lon="6.79148">
        <ele>376</ele>
        <time>2016-10-23T09:18:20.000Z</time>
      </trkpt>
      <trkpt lat="47.57998" lon="6.79149">
        <ele>384</ele>
        <time>2016-10-23T09:18:23.000Z</time>
      </trkpt>
      <trkpt lat="47.57997" lon="6.79149">
        <ele>384</ele>
        <time>2016-10-23T09:18:24.000Z</time>
      </trkpt>
      <trkpt lat="47.57993" lon="6.79147">
        <ele>384</ele>
        <time>2016-10-23T09:18:27.000Z</time>
      </trkpt>
      <trkpt lat="47.57992" lon="6.79146">
        <ele>385</ele>
        <time>2016-10-23T09:18:28.000Z</time>
      </trkpt>
      <trkpt lat="47.57988" lon="6.79143">
        <ele>385</ele>
        <time>2016-10-23T09:18:32.000Z</time>
      </trkpt>
      <trkpt lat="47.57987" lon="6.79142">
        <ele>385</ele>
        <time>2016-10-23T09:18:33.000Z</time>
      </trkpt>
      <trkpt lat="47.57985" lon="6.79138">
        <ele>386</ele>
        <time>2016-10-23T09:18:36.000Z</time>
      </trkpt>
      <trkpt lat="47.57985" lon="6.79137">
        <ele>386</ele>
        <time>2016-10-23T09:18:37.000Z</time>
      </trkpt>
      <trkpt lat="47.57982" lon="6.79131">
        <ele>386</ele>
        <time>2016-10-23T09:18:40.000Z</time>
      </trkpt>
      <trkpt lat="47.57982" lon="6.79129">
        <ele>386</ele>
        <time>2016-10-23T09:18:41.000Z</time>
      </trkpt>
      <trkpt lat="47.57981" lon="6.79123">
        <ele>386</ele>
        <time>2016-10-23T09:18:44.000Z</time>
      </trkpt>
      <trkpt lat="47.57981" lon="6.79121">
        <ele>386</ele>
        <time>2016-10-23T09:18:45.000Z</time>
      </trkpt>
      <trkpt lat="47.5798" lon="6.79115">
        <ele>386</ele>
        <time>2016-10-23T09:18:48.000Z</time>
      </trkpt>
      <trkpt lat="47.57979" lon="6.79114">
        <ele>386</ele>
        <time>2016-10-23T09:18:49.000Z</time>
      </trkpt>
      <trkpt lat="47.57976" lon="6.79111">
        <ele>387</ele>
        <time>2016-10-23T09:18:51.000Z</time>
      </trkpt>
      <trkpt lat="47.57975" lon="6.7911">
        <ele>387</ele>
        <time>2016-10-23T09:18:52.000Z</time>
      </trkpt>
      <trkpt lat="47.57972" lon="6.79107">
        <ele>387</ele>
        <time>2016-10-23T09:18:54.000Z</time>
      </trkpt>
      <trkpt lat="47.57971" lon="6.79106">
        <ele>387</ele>
        <time>2016-10-23T09:18:55.000Z</time>
      </trkpt>
      <trkpt lat="47.57966" lon="6.79105">
        <ele>388</ele>
        <time>2016-10-23T09:18:58.000Z</time>
      </trkpt>
      <trkpt lat="47.57965" lon="6.79105">
        <ele>388</ele>
        <time>2016-10-23T09:18:59.000Z</time>
      </trkpt>
      <trkpt lat="47.5796" lon="6.79104">
        <ele>388</ele>
        <time>2016-10-23T09:19:03.000Z</time>
      </trkpt>
      <trkpt lat="47.5796" lon="6.79104">
        <ele>388</ele>
        <time>2016-10-23T09:19:04.000Z</time>
      </trkpt>
      <trkpt lat="47.57956" lon="6.79107">
        <ele>389</ele>
        <time>2016-10-23T09:19:10.000Z</time>
      </trkpt>
      <trkpt lat="47.57954" lon="6.79108">
        <ele>389</ele>
        <time>2016-10-23T09:19:11.000Z</time>
      </trkpt>
      <trkpt lat="47.57952" lon="6.7911">
        <ele>389</ele>
        <time>2016-10-23T09:19:12.000Z</time>
      </trkpt>
      <trkpt lat="47.57949" lon="6.79111">
        <ele>389</ele>
        <time>2016-10-23T09:19:13.000Z</time>
      </trkpt>
      <trkpt lat="47.57946" lon="6.79112">
        <ele>390</ele>
        <time>2016-10-23T09:19:14.000Z</time>
      </trkpt>
      <trkpt lat="47.57943" lon="6.79113">
        <ele>390</ele>
        <time>2016-10-23T09:19:15.000Z</time>
      </trkpt>
      <trkpt lat="47.5794" lon="6.79112">
        <ele>390</ele>
        <time>2016-10-23T09:19:16.000Z</time>
      </trkpt>
      <trkpt lat="47.57937" lon="6.7911">
        <ele>391</ele>
        <time>2016-10-23T09:19:17.000Z</time>
      </trkpt>
      <trkpt lat="47.57934" lon="6.79109">
        <ele>391</ele>
        <time>2016-10-23T09:19:18.000Z</time>
      </trkpt>
      <trkpt lat="47.57932" lon="6.79107">
        <ele>391</ele>
        <time>2016-10-23T09:19:19.000Z</time>
      </trkpt>
      <trkpt lat="47.5793" lon="6.79106">
        <ele>392</ele>
        <time>2016-10-23T09:19:20.000Z</time>
      </trkpt>
      <trkpt lat="47.57927" lon="6.79106">
        <ele>392</ele>
        <time>2016-10-23T09:19:21.000Z</time>
      </trkpt>
      <trkpt lat="47.57925" lon="6.79105">
        <ele>392</ele>
        <time>2016-10-23T09:19:22.000Z</time>
      </trkpt>
      <trkpt lat="47.57922" lon="6.79103">
        <ele>393</ele>
        <time>2016-10-23T09:19:23.000Z</time>
      </trkpt>
      <trkpt lat="47.57919" lon="6.79102">
        <ele>393</ele>
        <time>2016-10-23T09:19:25.000Z</time>
      </trkpt>
      <trkpt lat="47.57916" lon="6.79102">
        <ele>396</ele>
        <time>2016-10-23T09:19:26.000Z</time>
      </trkpt>
      <trkpt lat="47.57913" lon="6.79101">
        <ele>396</ele>
        <time>2016-10-23T09:19:28.000Z</time>
      </trkpt>
      <trkpt lat="47.57911" lon="6.791">
        <ele>396</ele>
        <time>2016-10-23T09:19:29.000Z</time>
      </trkpt>
      <trkpt lat="47.57907" lon="6.79099">
        <ele>396</ele>
        <time>2016-10-23T09:19:31.000Z</time>
      </trkpt>
      <trkpt lat="47.57905" lon="6.79099">
        <ele>396</ele>
        <time>2016-10-23T09:19:32.000Z</time>
      </trkpt>
      <trkpt lat="47.57901" lon="6.79099">
        <ele>396</ele>
        <time>2016-10-23T09:19:34.000Z</time>
      </trkpt>
      <trkpt lat="47.57899" lon="6.79099">
        <ele>395</ele>
        <time>2016-10-23T09:19:35.000Z</time>
      </trkpt>
      <trkpt lat="47.57895" lon="6.79099">
        <ele>395</ele>
        <time>2016-10-23T09:19:37.000Z</time>
      </trkpt>
      <trkpt lat="47.57893" lon="6.79099">
        <ele>395</ele>
        <time>2016-10-23T09:19:38.000Z</time>
      </trkpt>
      <trkpt lat="47.57889" lon="6.79099">
        <ele>395</ele>
        <time>2016-10-23T09:19:40.000Z</time>
      </trkpt>
      <trkpt lat="47.57887" lon="6.79099">
        <ele>395</ele>
        <time>2016-10-23T09:19:41.000Z</time>
      </trkpt>
      <trkpt lat="47.57884" lon="6.791">
        <ele>395</ele>
        <time>2016-10-23T09:19:42.000Z</time>
      </trkpt>
      <trkpt lat="47.57882" lon="6.79101">
        <ele>394</ele>
        <time>2016-10-23T09:19:43.000Z</time>
      </trkpt>
      <trkpt lat="47.57879" lon="6.79102">
        <ele>394</ele>
        <time>2016-10-23T09:19:44.000Z</time>
      </trkpt>
      <trkpt lat="47.57876" lon="6.79102">
        <ele>394</ele>
        <time>2016-10-23T09:19:45.000Z</time>
      </trkpt>
      <trkpt lat="47.57872" lon="6.79104">
        <ele>394</ele>
        <time>2016-10-23T09:19:46.000Z</time>
      </trkpt>
      <trkpt lat="47.57869" lon="6.79105">
        <ele>394</ele>
        <time>2016-10-23T09:19:47.000Z</time>
      </trkpt>
      <trkpt lat="47.57866" lon="6.79106">
        <ele>394</ele>
        <time>2016-10-23T09:19:48.000Z</time>
      </trkpt>
      <trkpt lat="47.57862" lon="6.79108">
        <ele>394</ele>
        <time>2016-10-23T09:19:49.000Z</time>
      </trkpt>
      <trkpt lat="47.57859" lon="6.79109">
        <ele>393</ele>
        <time>2016-10-23T09:19:50.000Z</time>
      </trkpt>
      <trkpt lat="47.57855" lon="6.7911">
        <ele>393</ele>
        <time>2016-10-23T09:19:51.000Z</time>
      </trkpt>
      <trkpt lat="47.57852" lon="6.79111">
        <ele>393</ele>
        <time>2016-10-23T09:19:52.000Z</time>
      </trkpt>
      <trkpt lat="47.57849" lon="6.79113">
        <ele>393</ele>
        <time>2016-10-23T09:19:53.000Z</time>
      </trkpt>
      <trkpt lat="47.57846" lon="6.79115">
        <ele>393</ele>
        <time>2016-10-23T09:19:54.000Z</time>
      </trkpt>
      <trkpt lat="47.57843" lon="6.79118">
        <ele>393</ele>
        <time>2016-10-23T09:19:55.000Z</time>
      </trkpt>
      <trkpt lat="47.5784" lon="6.79121">
        <ele>393</ele>
        <time>2016-10-23T09:19:56.000Z</time>
      </trkpt>
      <trkpt lat="47.57838" lon="6.79124">
        <ele>393</ele>
        <time>2016-10-23T09:19:57.000Z</time>
      </trkpt>
      <trkpt lat="47.57835" lon="6.79128">
        <ele>393</ele>
        <time>2016-10-23T09:19:58.000Z</time>
      </trkpt>
      <trkpt lat="47.57833" lon="6.79133">
        <ele>391</ele>
        <time>2016-10-23T09:19:59.000Z</time>
      </trkpt>
      <trkpt lat="47.57831" lon="6.79137">
        <ele>392</ele>
        <time>2016-10-23T09:20:00.000Z</time>
      </trkpt>
      <trkpt lat="47.5783" lon="6.79142">
        <ele>392</ele>
        <time>2016-10-23T09:20:01.000Z</time>
      </trkpt>
      <trkpt lat="47.57828" lon="6.79147">
        <ele>392</ele>
        <time>2016-10-23T09:20:02.000Z</time>
      </trkpt>
      <trkpt lat="47.57826" lon="6.79151">
        <ele>392</ele>
        <time>2016-10-23T09:20:03.000Z</time>
      </trkpt>
      <trkpt lat="47.57824" lon="6.79155">
        <ele>392</ele>
        <time>2016-10-23T09:20:04.000Z</time>
      </trkpt>
      <trkpt lat="47.57823" lon="6.79159">
        <ele>392</ele>
        <time>2016-10-23T09:20:05.000Z</time>
      </trkpt>
      <trkpt lat="47.57822" lon="6.79163">
        <ele>392</ele>
        <time>2016-10-23T09:20:06.000Z</time>
      </trkpt>
      <trkpt lat="47.57821" lon="6.79168">
        <ele>393</ele>
        <time>2016-10-23T09:20:07.000Z</time>
      </trkpt>
      <trkpt lat="47.57821" lon="6.79172">
        <ele>393</ele>
        <time>2016-10-23T09:20:08.000Z</time>
      </trkpt>
      <trkpt lat="47.5782" lon="6.79176">
        <ele>393</ele>
        <time>2016-10-23T09:20:09.000Z</time>
      </trkpt>
      <trkpt lat="47.5782" lon="6.7918">
        <ele>393</ele>
        <time>2016-10-23T09:20:10.000Z</time>
      </trkpt>
      <trkpt lat="47.57819" lon="6.79183">
        <ele>393</ele>
        <time>2016-10-23T09:20:11.000Z</time>
      </trkpt>
      <trkpt lat="47.57818" lon="6.79189">
        <ele>393</ele>
        <time>2016-10-23T09:20:13.000Z</time>
      </trkpt>
      <trkpt lat="47.57818" lon="6.7919">
        <ele>393</ele>
        <time>2016-10-23T09:20:14.000Z</time>
      </trkpt>
      <trkpt lat="47.57816" lon="6.79196">
        <ele>394</ele>
        <time>2016-10-23T09:20:19.000Z</time>
      </trkpt>
      <trkpt lat="47.57816" lon="6.79198">
        <ele>394</ele>
        <time>2016-10-23T09:20:20.000Z</time>
      </trkpt>
      <trkpt lat="47.57816" lon="6.79204">
        <ele>394</ele>
        <time>2016-10-23T09:20:25.000Z</time>
      </trkpt>
      <trkpt lat="47.57817" lon="6.79205">
        <ele>394</ele>
        <time>2016-10-23T09:20:26.000Z</time>
      </trkpt>
      <trkpt lat="47.57818" lon="6.79211">
        <ele>394</ele>
        <time>2016-10-23T09:20:29.000Z</time>
      </trkpt>
      <trkpt lat="47.57819" lon="6.79214">
        <ele>394</ele>
        <time>2016-10-23T09:20:30.000Z</time>
      </trkpt>
      <trkpt lat="47.57819" lon="6.79217">
        <ele>394</ele>
        <time>2016-10-23T09:20:31.000Z</time>
      </trkpt>
      <trkpt lat="47.5782" lon="6.7922">
        <ele>394</ele>
        <time>2016-10-23T09:20:32.000Z</time>
      </trkpt>
      <trkpt lat="47.57821" lon="6.79224">
        <ele>394</ele>
        <time>2016-10-23T09:20:33.000Z</time>
      </trkpt>
      <trkpt lat="47.57822" lon="6.79228">
        <ele>394</ele>
        <time>2016-10-23T09:20:34.000Z</time>
      </trkpt>
      <trkpt lat="47.57823" lon="6.79232">
        <ele>395</ele>
        <time>2016-10-23T09:20:35.000Z</time>
      </trkpt>
      <trkpt lat="47.57824" lon="6.79236">
        <ele>395</ele>
        <time>2016-10-23T09:20:35.999Z</time>
      </trkpt>
      <trkpt lat="47.57825" lon="6.79241">
        <ele>395</ele>
        <time>2016-10-23T09:20:37.000Z</time>
      </trkpt>
      <trkpt lat="47.57826" lon="6.79246">
        <ele>395</ele>
        <time>2016-10-23T09:20:38.000Z</time>
      </trkpt>
      <trkpt lat="47.57827" lon="6.7925">
        <ele>396</ele>
        <time>2016-10-23T09:20:39.000Z</time>
      </trkpt>
      <trkpt lat="47.57828" lon="6.79254">
        <ele>396</ele>
        <time>2016-10-23T09:20:40.000Z</time>
      </trkpt>
      <trkpt lat="47.57829" lon="6.79258">
        <ele>396</ele>
        <time>2016-10-23T09:20:41.000Z</time>
      </trkpt>
      <trkpt lat="47.5783" lon="6.79261">
        <ele>396</ele>
        <time>2016-10-23T09:20:42.000Z</time>
      </trkpt>
      <trkpt lat="47.57831" lon="6.79266">
        <ele>396</ele>
        <time>2016-10-23T09:20:44.000Z</time>
      </trkpt>
      <trkpt lat="47.57832" lon="6.79269">
        <ele>396</ele>
        <time>2016-10-23T09:20:45.000Z</time>
      </trkpt>
      <trkpt lat="47.57833" lon="6.79274">
        <ele>396</ele>
        <time>2016-10-23T09:20:47.000Z</time>
      </trkpt>
      <trkpt lat="47.57833" lon="6.79277">
        <ele>397</ele>
        <time>2016-10-23T09:20:48.000Z</time>
      </trkpt>
      <trkpt lat="47.57834" lon="6.79282">
        <ele>397</ele>
        <time>2016-10-23T09:20:50.000Z</time>
      </trkpt>
      <trkpt lat="47.57835" lon="6.79284">
        <ele>397</ele>
        <time>2016-10-23T09:20:51.000Z</time>
      </trkpt>
      <trkpt lat="47.57835" lon="6.79289">
        <ele>397</ele>
        <time>2016-10-23T09:20:53.000Z</time>
      </trkpt>
      <trkpt lat="47.57835" lon="6.79292">
        <ele>397</ele>
        <time>2016-10-23T09:20:54.000Z</time>
      </trkpt>
      <trkpt lat="47.57836" lon="6.79298">
        <ele>397</ele>
        <time>2016-10-23T09:20:56.000Z</time>
      </trkpt>
      <trkpt lat="47.57837" lon="6.793">
        <ele>397</ele>
        <time>2016-10-23T09:20:57.000Z</time>
      </trkpt>
      <trkpt lat="47.57838" lon="6.79305">
        <ele>397</ele>
        <time>2016-10-23T09:20:59.000Z</time>
      </trkpt>
      <trkpt lat="47.57838" lon="6.79307">
        <ele>397</ele>
        <time>2016-10-23T09:21:00.000Z</time>
      </trkpt>
      <trkpt lat="47.57839" lon="6.79313">
        <ele>397</ele>
        <time>2016-10-23T09:21:03.000Z</time>
      </trkpt>
      <trkpt lat="47.57839" lon="6.79314">
        <ele>397</ele>
        <time>2016-10-23T09:21:04.000Z</time>
      </trkpt>
      <trkpt lat="47.5784" lon="6.79309">
        <ele>397</ele>
        <time>2016-10-23T09:21:26.000Z</time>
      </trkpt>
      <trkpt lat="47.57839" lon="6.79306">
        <ele>397</ele>
        <time>2016-10-23T09:21:27.000Z</time>
      </trkpt>
      <trkpt lat="47.57838" lon="6.79302">
        <ele>397</ele>
        <time>2016-10-23T09:21:28.000Z</time>
      </trkpt>
      <trkpt lat="47.57837" lon="6.79297">
        <ele>397</ele>
        <time>2016-10-23T09:21:29.000Z</time>
      </trkpt>
      <trkpt lat="47.57836" lon="6.79292">
        <ele>397</ele>
        <time>2016-10-23T09:21:30.000Z</time>
      </trkpt>
      <trkpt lat="47.57835" lon="6.79286">
        <ele>397</ele>
        <time>2016-10-23T09:21:31.000Z</time>
      </trkpt>
      <trkpt lat="47.57834" lon="6.7928">
        <ele>397</ele>
        <time>2016-10-23T09:21:32.000Z</time>
      </trkpt>
      <trkpt lat="47.57834" lon="6.79273">
        <ele>397</ele>
        <time>2016-10-23T09:21:33.000Z</time>
      </trkpt>
      <trkpt lat="47.57833" lon="6.79266">
        <ele>396</ele>
        <time>2016-10-23T09:21:34.000Z</time>
      </trkpt>
      <trkpt lat="47.57836" lon="6.79255">
        <ele>396</ele>
        <time>2016-10-23T09:21:35.000Z</time>
      </trkpt>
      <trkpt lat="47.57837" lon="6.79248">
        <ele>396</ele>
        <time>2016-10-23T09:21:36.000Z</time>
      </trkpt>
      <trkpt lat="47.57837" lon="6.79239">
        <ele>395</ele>
        <time>2016-10-23T09:21:37.000Z</time>
      </trkpt>
      <trkpt lat="47.57834" lon="6.79231">
        <ele>395</ele>
        <time>2016-10-23T09:21:38.000Z</time>
      </trkpt>
      <trkpt lat="47.57831" lon="6.79225">
        <ele>394</ele>
        <time>2016-10-23T09:21:39.000Z</time>
      </trkpt>
      <trkpt lat="47.57829" lon="6.79218">
        <ele>394</ele>
        <time>2016-10-23T09:21:40.000Z</time>
      </trkpt>
      <trkpt lat="47.57827" lon="6.79213">
        <ele>394</ele>
        <time>2016-10-23T09:21:41.000Z</time>
      </trkpt>
      <trkpt lat="47.57823" lon="6.79209">
        <ele>394</ele>
        <time>2016-10-23T09:21:42.000Z</time>
      </trkpt>
      <trkpt lat="47.5782" lon="6.79208">
        <ele>394</ele>
        <time>2016-10-23T09:21:43.000Z</time>
      </trkpt>
      <trkpt lat="47.57816" lon="6.79208">
        <ele>394</ele>
        <time>2016-10-23T09:21:44.000Z</time>
      </trkpt>
      <trkpt lat="47.57811" lon="6.7921">
        <ele>394</ele>
        <time>2016-10-23T09:21:45.000Z</time>
      </trkpt>
      <trkpt lat="47.5781" lon="6.79211">
        <ele>394</ele>
        <time>2016-10-23T09:21:46.000Z</time>
      </trkpt>
      <trkpt lat="47.57808" lon="6.79212">
        <ele>394</ele>
        <time>2016-10-23T09:21:47.001Z</time>
      </trkpt>
      <trkpt lat="47.57804" lon="6.79213">
        <ele>394</ele>
        <time>2016-10-23T09:21:48.000Z</time>
      </trkpt>
      <trkpt lat="47.57801" lon="6.79214">
        <ele>394</ele>
        <time>2016-10-23T09:21:49.000Z</time>
      </trkpt>
      <trkpt lat="47.57797" lon="6.79215">
        <ele>394</ele>
        <time>2016-10-23T09:21:50.000Z</time>
      </trkpt>
      <trkpt lat="47.57794" lon="6.79217">
        <ele>394</ele>
        <time>2016-10-23T09:21:51.000Z</time>
      </trkpt>
      <trkpt lat="47.57791" lon="6.7922">
        <ele>394</ele>
        <time>2016-10-23T09:21:52.000Z</time>
      </trkpt>
      <trkpt lat="47.57787" lon="6.79223">
        <ele>394</ele>
        <time>2016-10-23T09:21:53.000Z</time>
      </trkpt>
      <trkpt lat="47.57784" lon="6.79226">
        <ele>394</ele>
        <time>2016-10-23T09:21:53.998Z</time>
      </trkpt>
      <trkpt lat="47.57781" lon="6.79231">
        <ele>394</ele>
        <time>2016-10-23T09:21:55.000Z</time>
      </trkpt>
      <trkpt lat="47.57778" lon="6.79235">
        <ele>394</ele>
        <time>2016-10-23T09:21:56.000Z</time>
      </trkpt>
      <trkpt lat="47.57774" lon="6.79237">
        <ele>394</ele>
        <time>2016-10-23T09:21:57.000Z</time>
      </trkpt>
      <trkpt lat="47.57771" lon="6.7924">
        <ele>394</ele>
        <time>2016-10-23T09:21:58.000Z</time>
      </trkpt>
      <trkpt lat="47.57767" lon="6.79242">
        <ele>394</ele>
        <time>2016-10-23T09:21:59.000Z</time>
      </trkpt>
      <trkpt lat="47.57764" lon="6.79245">
        <ele>394</ele>
        <time>2016-10-23T09:22:00.000Z</time>
      </trkpt>
      <trkpt lat="47.5776" lon="6.79248">
        <ele>394</ele>
        <time>2016-10-23T09:22:01.000Z</time>
      </trkpt>
      <trkpt lat="47.57756" lon="6.79251">
        <ele>394</ele>
        <time>2016-10-23T09:22:02.000Z</time>
      </trkpt>
      <trkpt lat="47.57752" lon="6.79254">
        <ele>394</ele>
        <time>2016-10-23T09:22:03.000Z</time>
      </trkpt>
      <trkpt lat="47.57748" lon="6.79257">
        <ele>394</ele>
        <time>2016-10-23T09:22:04.000Z</time>
      </trkpt>
      <trkpt lat="47.57744" lon="6.7926">
        <ele>394</ele>
        <time>2016-10-23T09:22:05.000Z</time>
      </trkpt>
      <trkpt lat="47.5774" lon="6.79263">
        <ele>395</ele>
        <time>2016-10-23T09:22:06.000Z</time>
      </trkpt>
      <trkpt lat="47.57736" lon="6.79266">
        <ele>395</ele>
        <time>2016-10-23T09:22:07.000Z</time>
      </trkpt>
      <trkpt lat="47.57732" lon="6.79269">
        <ele>395</ele>
        <time>2016-10-23T09:22:08.000Z</time>
      </trkpt>
      <trkpt lat="47.57728" lon="6.79272">
        <ele>395</ele>
        <time>2016-10-23T09:22:09.000Z</time>
      </trkpt>
      <trkpt lat="47.57725" lon="6.79276">
        <ele>395</ele>
        <time>2016-10-23T09:22:10.000Z</time>
      </trkpt>
      <trkpt lat="47.57721" lon="6.79279">
        <ele>395</ele>
        <time>2016-10-23T09:22:11.000Z</time>
      </trkpt>
      <trkpt lat="47.57717" lon="6.79282">
        <ele>395</ele>
        <time>2016-10-23T09:22:12.000Z</time>
      </trkpt>
      <trkpt lat="47.57714" lon="6.79285">
        <ele>395</ele>
        <time>2016-10-23T09:22:13.000Z</time>
      </trkpt>
      <trkpt lat="47.5771" lon="6.79288">
        <ele>395</ele>
        <time>2016-10-23T09:22:14.000Z</time>
      </trkpt>
      <trkpt lat="47.57706" lon="6.7929">
        <ele>395</ele>
        <time>2016-10-23T09:22:15.000Z</time>
      </trkpt>
      <trkpt lat="47.57702" lon="6.79293">
        <ele>395</ele>
        <time>2016-10-23T09:22:16.000Z</time>
      </trkpt>
      <trkpt lat="47.57698" lon="6.79296">
        <ele>395</ele>
        <time>2016-10-23T09:22:17.000Z</time>
      </trkpt>
      <trkpt lat="47.57695" lon="6.79298">
        <ele>395</ele>
        <time>2016-10-23T09:22:18.000Z</time>
      </trkpt>
      <trkpt lat="47.57691" lon="6.79301">
        <ele>395</ele>
        <time>2016-10-23T09:22:19.000Z</time>
      </trkpt>
      <trkpt lat="47.57687" lon="6.79304">
        <ele>395</ele>
        <time>2016-10-23T09:22:20.000Z</time>
      </trkpt>
      <trkpt lat="47.57683" lon="6.79307">
        <ele>395</ele>
        <time>2016-10-23T09:22:21.000Z</time>
      </trkpt>
      <trkpt lat="47.5768" lon="6.7931">
        <ele>395</ele>
        <time>2016-10-23T09:22:22.000Z</time>
      </trkpt>
      <trkpt lat="47.57677" lon="6.79312">
        <ele>396</ele>
        <time>2016-10-23T09:22:23.000Z</time>
      </trkpt>
      <trkpt lat="47.57674" lon="6.79314">
        <ele>396</ele>
        <time>2016-10-23T09:22:24.000Z</time>
      </trkpt>
      <trkpt lat="47.57671" lon="6.79317">
        <ele>396</ele>
        <time>2016-10-23T09:22:25.000Z</time>
      </trkpt>
      <trkpt lat="47.57668" lon="6.79319">
        <ele>396</ele>
        <time>2016-10-23T09:22:26.000Z</time>
      </trkpt>
      <trkpt lat="47.57665" lon="6.79322">
        <ele>396</ele>
        <time>2016-10-23T09:22:27.000Z</time>
      </trkpt>
      <trkpt lat="47.57663" lon="6.79324">
        <ele>396</ele>
        <time>2016-10-23T09:22:28.000Z</time>
      </trkpt>
      <trkpt lat="47.5766" lon="6.79327">
        <ele>396</ele>
        <time>2016-10-23T09:22:29.000Z</time>
      </trkpt>
      <trkpt lat="47.57658" lon="6.7933">
        <ele>396</ele>
        <time>2016-10-23T09:22:30.000Z</time>
      </trkpt>
      <trkpt lat="47.57655" lon="6.79333">
        <ele>396</ele>
        <time>2016-10-23T09:22:31.000Z</time>
      </trkpt>
      <trkpt lat="47.57653" lon="6.79336">
        <ele>396</ele>
        <time>2016-10-23T09:22:32.000Z</time>
      </trkpt>
      <trkpt lat="47.57651" lon="6.7934">
        <ele>396</ele>
        <time>2016-10-23T09:22:33.000Z</time>
      </trkpt>
      <trkpt lat="47.57649" lon="6.79344">
        <ele>396</ele>
        <time>2016-10-23T09:22:34.000Z</time>
      </trkpt>
      <trkpt lat="47.57647" lon="6.79348">
        <ele>396</ele>
        <time>2016-10-23T09:22:35.000Z</time>
      </trkpt>
      <trkpt lat="47.57645" lon="6.79352">
        <ele>396</ele>
        <time>2016-10-23T09:22:36.000Z</time>
      </trkpt>
      <trkpt lat="47.57644" lon="6.79357">
        <ele>396</ele>
        <time>2016-10-23T09:22:37.000Z</time>
      </trkpt>
      <trkpt lat="47.57642" lon="6.79361">
        <ele>396</ele>
        <time>2016-10-23T09:22:38.000Z</time>
      </trkpt>
      <trkpt lat="47.5764" lon="6.79366">
        <ele>396</ele>
        <time>2016-10-23T09:22:39.000Z</time>
      </trkpt>
      <trkpt lat="47.57639" lon="6.7937">
        <ele>396</ele>
        <time>2016-10-23T09:22:39.999Z</time>
      </trkpt>
      <trkpt lat="47.57637" lon="6.79375">
        <ele>396</ele>
        <time>2016-10-23T09:22:41.000Z</time>
      </trkpt>
      <trkpt lat="47.57635" lon="6.7938">
        <ele>396</ele>
        <time>2016-10-23T09:22:42.000Z</time>
      </trkpt>
      <trkpt lat="47.57634" lon="6.79384">
        <ele>396</ele>
        <time>2016-10-23T09:22:43.000Z</time>
      </trkpt>
      <trkpt lat="47.57632" lon="6.79389">
        <ele>397</ele>
        <time>2016-10-23T09:22:44.000Z</time>
      </trkpt>
      <trkpt lat="47.5763" lon="6.79393">
        <ele>397</ele>
        <time>2016-10-23T09:22:45.000Z</time>
      </trkpt>
      <trkpt lat="47.57629" lon="6.79397">
        <ele>397</ele>
        <time>2016-10-23T09:22:46.000Z</time>
      </trkpt>
      <trkpt lat="47.57627" lon="6.79401">
        <ele>397</ele>
        <time>2016-10-23T09:22:47.000Z</time>
      </trkpt>
      <trkpt lat="47.57626" lon="6.79406">
        <ele>397</ele>
        <time>2016-10-23T09:22:48.000Z</time>
      </trkpt>
      <trkpt lat="47.57624" lon="6.7941">
        <ele>396</ele>
        <time>2016-10-23T09:22:49.000Z</time>
      </trkpt>
      <trkpt lat="47.57623" lon="6.79415">
        <ele>396</ele>
        <time>2016-10-23T09:22:50.000Z</time>
      </trkpt>
      <trkpt lat="47.57621" lon="6.79419">
        <ele>398</ele>
        <time>2016-10-23T09:22:51.000Z</time>
      </trkpt>
      <trkpt lat="47.5762" lon="6.79424">
        <ele>398</ele>
        <time>2016-10-23T09:22:52.000Z</time>
      </trkpt>
      <trkpt lat="47.57619" lon="6.79429">
        <ele>398</ele>
        <time>2016-10-23T09:22:53.000Z</time>
      </trkpt>
      <trkpt lat="47.57617" lon="6.79433">
        <ele>398</ele>
        <time>2016-10-23T09:22:54.000Z</time>
      </trkpt>
      <trkpt lat="47.57615" lon="6.79437">
        <ele>398</ele>
        <time>2016-10-23T09:22:55.000Z</time>
      </trkpt>
      <trkpt lat="47.57614" lon="6.79441">
        <ele>398</ele>
        <time>2016-10-23T09:22:56.000Z</time>
      </trkpt>
      <trkpt lat="47.57612" lon="6.79446">
        <ele>398</ele>
        <time>2016-10-23T09:22:57.000Z</time>
      </trkpt>
      <trkpt lat="47.57611" lon="6.7945">
        <ele>398</ele>
        <time>2016-10-23T09:22:58.000Z</time>
      </trkpt>
      <trkpt lat="47.57609" lon="6.79455">
        <ele>398</ele>
        <time>2016-10-23T09:22:59.000Z</time>
      </trkpt>
      <trkpt lat="47.57608" lon="6.7946">
        <ele>398</ele>
        <time>2016-10-23T09:23:00.000Z</time>
      </trkpt>
      <trkpt lat="47.57606" lon="6.79465">
        <ele>398</ele>
        <time>2016-10-23T09:23:01.000Z</time>
      </trkpt>
      <trkpt lat="47.57605" lon="6.7947">
        <ele>398</ele>
        <time>2016-10-23T09:23:02.000Z</time>
      </trkpt>
      <trkpt lat="47.57603" lon="6.79475">
        <ele>398</ele>
        <time>2016-10-23T09:23:03.000Z</time>
      </trkpt>
      <trkpt lat="47.57602" lon="6.7948">
        <ele>398</ele>
        <time>2016-10-23T09:23:04.000Z</time>
      </trkpt>
      <trkpt lat="47.57601" lon="6.79485">
        <ele>398</ele>
        <time>2016-10-23T09:23:05.000Z</time>
      </trkpt>
      <trkpt lat="47.57599" lon="6.7949">
        <ele>398</ele>
        <time>2016-10-23T09:23:06.000Z</time>
      </trkpt>
      <trkpt lat="47.57598" lon="6.79495">
        <ele>398</ele>
        <time>2016-10-23T09:23:07.000Z</time>
      </trkpt>
      <trkpt lat="47.57596" lon="6.795">
        <ele>398</ele>
        <time>2016-10-23T09:23:08.000Z</time>
      </trkpt>
      <trkpt lat="47.57595" lon="6.79504">
        <ele>399</ele>
        <time>2016-10-23T09:23:09.000Z</time>
      </trkpt>
      <trkpt lat="47.57594" lon="6.79509">
        <ele>399</ele>
        <time>2016-10-23T09:23:10.000Z</time>
      </trkpt>
      <trkpt lat="47.57592" lon="6.79515">
        <ele>399</ele>
        <time>2016-10-23T09:23:11.112Z</time>
      </trkpt>
      <trkpt lat="47.5759" lon="6.79524">
        <ele>400</ele>
        <time>2016-10-23T09:23:13.000Z</time>
      </trkpt>
      <trkpt lat="47.57588" lon="6.79529">
        <ele>400</ele>
        <time>2016-10-23T09:23:14.000Z</time>
      </trkpt>
      <trkpt lat="47.57587" lon="6.79533">
        <ele>400</ele>
        <time>2016-10-23T09:23:15.000Z</time>
      </trkpt>
      <trkpt lat="47.57586" lon="6.79538">
        <ele>400</ele>
        <time>2016-10-23T09:23:16.000Z</time>
      </trkpt>
      <trkpt lat="47.57584" lon="6.79542">
        <ele>400</ele>
        <time>2016-10-23T09:23:17.000Z</time>
      </trkpt>
      <trkpt lat="47.57583" lon="6.79547">
        <ele>399</ele>
        <time>2016-10-23T09:23:18.000Z</time>
      </trkpt>
      <trkpt lat="47.57581" lon="6.79552">
        <ele>400</ele>
        <time>2016-10-23T09:23:19.000Z</time>
      </trkpt>
      <trkpt lat="47.5758" lon="6.79558">
        <ele>400</ele>
        <time>2016-10-23T09:23:20.000Z</time>
      </trkpt>
      <trkpt lat="47.57578" lon="6.79563">
        <ele>400</ele>
        <time>2016-10-23T09:23:21.000Z</time>
      </trkpt>
      <trkpt lat="47.57577" lon="6.79568">
        <ele>400</ele>
        <time>2016-10-23T09:23:22.000Z</time>
      </trkpt>
      <trkpt lat="47.57576" lon="6.79573">
        <ele>400</ele>
        <time>2016-10-23T09:23:23.000Z</time>
      </trkpt>
      <trkpt lat="47.57575" lon="6.79578">
        <ele>400</ele>
        <time>2016-10-23T09:23:24.000Z</time>
      </trkpt>
      <trkpt lat="47.57574" lon="6.79584">
        <ele>401</ele>
        <time>2016-10-23T09:23:25.000Z</time>
      </trkpt>
      <trkpt lat="47.57574" lon="6.79589">
        <ele>401</ele>
        <time>2016-10-23T09:23:26.000Z</time>
      </trkpt>
      <trkpt lat="47.57573" lon="6.79594">
        <ele>401</ele>
        <time>2016-10-23T09:23:27.000Z</time>
      </trkpt>
      <trkpt lat="47.57572" lon="6.796">
        <ele>401</ele>
        <time>2016-10-23T09:23:28.000Z</time>
      </trkpt>
      <trkpt lat="47.57572" lon="6.79605">
        <ele>402</ele>
        <time>2016-10-23T09:23:29.000Z</time>
      </trkpt>
      <trkpt lat="47.57572" lon="6.79606">
        <ele>402</ele>
        <time>2016-10-23T09:23:29.106Z</time>
      </trkpt>
      <trkpt lat="47.57571" lon="6.79616">
        <ele>402</ele>
        <time>2016-10-23T09:23:31.000Z</time>
      </trkpt>
      <trkpt lat="47.57571" lon="6.79621">
        <ele>402</ele>
        <time>2016-10-23T09:23:32.000Z</time>
      </trkpt>
      <trkpt lat="47.57571" lon="6.79627">
        <ele>402</ele>
        <time>2016-10-23T09:23:33.000Z</time>
      </trkpt>
      <trkpt lat="47.57571" lon="6.79632">
        <ele>402</ele>
        <time>2016-10-23T09:23:34.000Z</time>
      </trkpt>
      <trkpt lat="47.57571" lon="6.79638">
        <ele>402</ele>
        <time>2016-10-23T09:23:35.000Z</time>
      </trkpt>
      <trkpt lat="47.57572" lon="6.79643">
        <ele>403</ele>
        <time>2016-10-23T09:23:36.000Z</time>
      </trkpt>
      <trkpt lat="47.57572" lon="6.79648">
        <ele>403</ele>
        <time>2016-10-23T09:23:37.000Z</time>
      </trkpt>
      <trkpt lat="47.57573" lon="6.79653">
        <ele>403</ele>
        <time>2016-10-23T09:23:38.000Z</time>
      </trkpt>
      <trkpt lat="47.57573" lon="6.79658">
        <ele>403</ele>
        <time>2016-10-23T09:23:39.000Z</time>
      </trkpt>
      <trkpt lat="47.57574" lon="6.79663">
        <ele>403</ele>
        <time>2016-10-23T09:23:40.000Z</time>
      </trkpt>
      <trkpt lat="47.57574" lon="6.79668">
        <ele>404</ele>
        <time>2016-10-23T09:23:41.000Z</time>
      </trkpt>
      <trkpt lat="47.57574" lon="6.79672">
        <ele>404</ele>
        <time>2016-10-23T09:23:42.000Z</time>
      </trkpt>
      <trkpt lat="47.57575" lon="6.79677">
        <ele>405</ele>
        <time>2016-10-23T09:23:43.000Z</time>
      </trkpt>
      <trkpt lat="47.57575" lon="6.79678">
        <ele>405</ele>
        <time>2016-10-23T09:23:43.111Z</time>
      </trkpt>
      <trkpt lat="47.57575" lon="6.79686">
        <ele>405</ele>
        <time>2016-10-23T09:23:45.000Z</time>
      </trkpt>
      <trkpt lat="47.57575" lon="6.79691">
        <ele>405</ele>
        <time>2016-10-23T09:23:46.000Z</time>
      </trkpt>
      <trkpt lat="47.57575" lon="6.79695">
        <ele>406</ele>
        <time>2016-10-23T09:23:47.000Z</time>
      </trkpt>
      <trkpt lat="47.57575" lon="6.79699">
        <ele>406</ele>
        <time>2016-10-23T09:23:48.000Z</time>
      </trkpt>
      <trkpt lat="47.57575" lon="6.79703">
        <ele>406</ele>
        <time>2016-10-23T09:23:49.000Z</time>
      </trkpt>
      <trkpt lat="47.57574" lon="6.79706">
        <ele>406</ele>
        <time>2016-10-23T09:23:50.000Z</time>
      </trkpt>
      <trkpt lat="47.57574" lon="6.7971">
        <ele>407</ele>
        <time>2016-10-23T09:23:51.000Z</time>
      </trkpt>
      <trkpt lat="47.57573" lon="6.79714">
        <ele>407</ele>
        <time>2016-10-23T09:23:52.000Z</time>
      </trkpt>
      <trkpt lat="47.57573" lon="6.79717">
        <ele>407</ele>
        <time>2016-10-23T09:23:53.000Z</time>
      </trkpt>
      <trkpt lat="47.57572" lon="6.79721">
        <ele>407</ele>
        <time>2016-10-23T09:23:54.000Z</time>
      </trkpt>
      <trkpt lat="47.57571" lon="6.79725">
        <ele>407</ele>
        <time>2016-10-23T09:23:55.000Z</time>
      </trkpt>
      <trkpt lat="47.57571" lon="6.79729">
        <ele>408</ele>
        <time>2016-10-23T09:23:56.000Z</time>
      </trkpt>
      <trkpt lat="47.5757" lon="6.79733">
        <ele>408</ele>
        <time>2016-10-23T09:23:57.000Z</time>
      </trkpt>
      <trkpt lat="47.57568" lon="6.79736">
        <ele>408</ele>
        <time>2016-10-23T09:23:58.000Z</time>
      </trkpt>
      <trkpt lat="47.57567" lon="6.7974">
        <ele>408</ele>
        <time>2016-10-23T09:23:59.000Z</time>
      </trkpt>
      <trkpt lat="47.57566" lon="6.79744">
        <ele>408</ele>
        <time>2016-10-23T09:24:00.000Z</time>
      </trkpt>
      <trkpt lat="47.57565" lon="6.79748">
        <ele>408</ele>
        <time>2016-10-23T09:24:01.000Z</time>
      </trkpt>
      <trkpt lat="47.57563" lon="6.79751">
        <ele>410</ele>
        <time>2016-10-23T09:24:02.000Z</time>
      </trkpt>
      <trkpt lat="47.57561" lon="6.79754">
        <ele>410</ele>
        <time>2016-10-23T09:24:03.000Z</time>
      </trkpt>
      <trkpt lat="47.57559" lon="6.79756">
        <ele>410</ele>
        <time>2016-10-23T09:24:04.000Z</time>
      </trkpt>
      <trkpt lat="47.57557" lon="6.79759">
        <ele>410</ele>
        <time>2016-10-23T09:24:05.000Z</time>
      </trkpt>
      <trkpt lat="47.57555" lon="6.79762">
        <ele>410</ele>
        <time>2016-10-23T09:24:06.000Z</time>
      </trkpt>
      <trkpt lat="47.57554" lon="6.79765">
        <ele>410</ele>
        <time>2016-10-23T09:24:07.000Z</time>
      </trkpt>
      <trkpt lat="47.57553" lon="6.79769">
        <ele>410</ele>
        <time>2016-10-23T09:24:08.000Z</time>
      </trkpt>
      <trkpt lat="47.57552" lon="6.79772">
        <ele>410</ele>
        <time>2016-10-23T09:24:09.000Z</time>
      </trkpt>
      <trkpt lat="47.57552" lon="6.79776">
        <ele>410</ele>
        <time>2016-10-23T09:24:10.000Z</time>
      </trkpt>
      <trkpt lat="47.57551" lon="6.79779">
        <ele>410</ele>
        <time>2016-10-23T09:24:11.000Z</time>
      </trkpt>
      <trkpt lat="47.57548" lon="6.79784">
        <ele>410</ele>
        <time>2016-10-23T09:24:13.000Z</time>
      </trkpt>
      <trkpt lat="47.57547" lon="6.79787">
        <ele>410</ele>
        <time>2016-10-23T09:24:14.000Z</time>
      </trkpt>
      <trkpt lat="47.57545" lon="6.79792">
        <ele>410</ele>
        <time>2016-10-23T09:24:16.000Z</time>
      </trkpt>
      <trkpt lat="47.57544" lon="6.79795">
        <ele>410</ele>
        <time>2016-10-23T09:24:17.000Z</time>
      </trkpt>
      <trkpt lat="47.57541" lon="6.798">
        <ele>410</ele>
        <time>2016-10-23T09:24:19.000Z</time>
      </trkpt>
      <trkpt lat="47.5754" lon="6.79802">
        <ele>410</ele>
        <time>2016-10-23T09:24:20.000Z</time>
      </trkpt>
      <trkpt lat="47.57538" lon="6.79808">
        <ele>410</ele>
        <time>2016-10-23T09:24:22.000Z</time>
      </trkpt>
      <trkpt lat="47.57537" lon="6.7981">
        <ele>410</ele>
        <time>2016-10-23T09:24:23.000Z</time>
      </trkpt>
      <trkpt lat="47.57535" lon="6.79816">
        <ele>410</ele>
        <time>2016-10-23T09:24:25.000Z</time>
      </trkpt>
      <trkpt lat="47.57533" lon="6.79818">
        <ele>410</ele>
        <time>2016-10-23T09:24:26.000Z</time>
      </trkpt>
      <trkpt lat="47.5753" lon="6.79823">
        <ele>410</ele>
        <time>2016-10-23T09:24:28.000Z</time>
      </trkpt>
      <trkpt lat="47.57529" lon="6.79825">
        <ele>410</ele>
        <time>2016-10-23T09:24:29.000Z</time>
      </trkpt>
      <trkpt lat="47.57526" lon="6.7983">
        <ele>410</ele>
        <time>2016-10-23T09:24:31.000Z</time>
      </trkpt>
      <trkpt lat="47.57525" lon="6.79833">
        <ele>410</ele>
        <time>2016-10-23T09:24:32.000Z</time>
      </trkpt>
      <trkpt lat="47.57522" lon="6.79838">
        <ele>411</ele>
        <time>2016-10-23T09:24:34.000Z</time>
      </trkpt>
      <trkpt lat="47.5752" lon="6.7984">
        <ele>411</ele>
        <time>2016-10-23T09:24:35.000Z</time>
      </trkpt>
      <trkpt lat="47.57517" lon="6.79844">
        <ele>411</ele>
        <time>2016-10-23T09:24:37.000Z</time>
      </trkpt>
      <trkpt lat="47.57515" lon="6.79846">
        <ele>411</ele>
        <time>2016-10-23T09:24:38.000Z</time>
      </trkpt>
      <trkpt lat="47.57512" lon="6.7985">
        <ele>411</ele>
        <time>2016-10-23T09:24:40.000Z</time>
      </trkpt>
      <trkpt lat="47.5751" lon="6.79852">
        <ele>411</ele>
        <time>2016-10-23T09:24:41.000Z</time>
      </trkpt>
      <trkpt lat="47.57507" lon="6.79855">
        <ele>412</ele>
        <time>2016-10-23T09:24:43.000Z</time>
      </trkpt>
      <trkpt lat="47.57505" lon="6.79857">
        <ele>412</ele>
        <time>2016-10-23T09:24:44.000Z</time>
      </trkpt>
      <trkpt lat="47.57502" lon="6.7986">
        <ele>412</ele>
        <time>2016-10-23T09:24:46.000Z</time>
      </trkpt>
      <trkpt lat="47.57501" lon="6.79861">
        <ele>412</ele>
        <time>2016-10-23T09:24:47.000Z</time>
      </trkpt>
      <trkpt lat="47.57498" lon="6.79863">
        <ele>413</ele>
        <time>2016-10-23T09:24:49.000Z</time>
      </trkpt>
      <trkpt lat="47.57496" lon="6.79864">
        <ele>413</ele>
        <time>2016-10-23T09:24:50.000Z</time>
      </trkpt>
      <trkpt lat="47.57493" lon="6.79868">
        <ele>413</ele>
        <time>2016-10-23T09:24:52.000Z</time>
      </trkpt>
      <trkpt lat="47.57491" lon="6.79869">
        <ele>413</ele>
        <time>2016-10-23T09:24:53.000Z</time>
      </trkpt>
      <trkpt lat="47.57488" lon="6.79871">
        <ele>413</ele>
        <time>2016-10-23T09:24:55.000Z</time>
      </trkpt>
      <trkpt lat="47.57486" lon="6.79872">
        <ele>413</ele>
        <time>2016-10-23T09:24:56.000Z</time>
      </trkpt>
      <trkpt lat="47.57482" lon="6.79874">
        <ele>413</ele>
        <time>2016-10-23T09:24:58.000Z</time>
      </trkpt>
      <trkpt lat="47.57481" lon="6.79876">
        <ele>413</ele>
        <time>2016-10-23T09:24:59.000Z</time>
      </trkpt>
      <trkpt lat="47.57478" lon="6.79879">
        <ele>414</ele>
        <time>2016-10-23T09:25:01.000Z</time>
      </trkpt>
      <trkpt lat="47.57476" lon="6.79881">
        <ele>414</ele>
        <time>2016-10-23T09:25:02.000Z</time>
      </trkpt>
      <trkpt lat="47.57474" lon="6.79884">
        <ele>414</ele>
        <time>2016-10-23T09:25:04.000Z</time>
      </trkpt>
      <trkpt lat="47.57473" lon="6.79885">
        <ele>414</ele>
        <time>2016-10-23T09:25:05.000Z</time>
      </trkpt>
      <trkpt lat="47.57471" lon="6.79889">
        <ele>414</ele>
        <time>2016-10-23T09:25:07.000Z</time>
      </trkpt>
      <trkpt lat="47.5747" lon="6.79892">
        <ele>414</ele>
        <time>2016-10-23T09:25:08.000Z</time>
      </trkpt>
      <trkpt lat="47.57468" lon="6.79896">
        <ele>414</ele>
        <time>2016-10-23T09:25:10.000Z</time>
      </trkpt>
      <trkpt lat="47.57467" lon="6.79899">
        <ele>414</ele>
        <time>2016-10-23T09:25:11.000Z</time>
      </trkpt>
      <trkpt lat="47.57465" lon="6.79904">
        <ele>414</ele>
        <time>2016-10-23T09:25:13.000Z</time>
      </trkpt>
      <trkpt lat="47.57464" lon="6.79906">
        <ele>414</ele>
        <time>2016-10-23T09:25:14.000Z</time>
      </trkpt>
      <trkpt lat="47.57462" lon="6.79912">
        <ele>414</ele>
        <time>2016-10-23T09:25:16.000Z</time>
      </trkpt>
      <trkpt lat="47.57462" lon="6.79915">
        <ele>414</ele>
        <time>2016-10-23T09:25:17.000Z</time>
      </trkpt>
      <trkpt lat="47.57461" lon="6.79918">
        <ele>414</ele>
        <time>2016-10-23T09:25:18.000Z</time>
      </trkpt>
      <trkpt lat="47.5746" lon="6.79921">
        <ele>414</ele>
        <time>2016-10-23T09:25:19.000Z</time>
      </trkpt>
      <trkpt lat="47.57459" lon="6.79925">
        <ele>414</ele>
        <time>2016-10-23T09:25:20.000Z</time>
      </trkpt>
      <trkpt lat="47.57458" lon="6.79928">
        <ele>414</ele>
        <time>2016-10-23T09:25:21.000Z</time>
      </trkpt>
      <trkpt lat="47.57458" lon="6.79931">
        <ele>414</ele>
        <time>2016-10-23T09:25:22.000Z</time>
      </trkpt>
      <trkpt lat="47.57457" lon="6.79935">
        <ele>414</ele>
        <time>2016-10-23T09:25:23.000Z</time>
      </trkpt>
      <trkpt lat="47.57456" lon="6.79939">
        <ele>414</ele>
        <time>2016-10-23T09:25:24.001Z</time>
      </trkpt>
      <trkpt lat="47.57455" lon="6.79942">
        <ele>414</ele>
        <time>2016-10-23T09:25:25.000Z</time>
      </trkpt>
      <trkpt lat="47.57454" lon="6.79947">
        <ele>414</ele>
        <time>2016-10-23T09:25:26.000Z</time>
      </trkpt>
      <trkpt lat="47.57453" lon="6.79951">
        <ele>414</ele>
        <time>2016-10-23T09:25:27.000Z</time>
      </trkpt>
      <trkpt lat="47.57452" lon="6.79954">
        <ele>414</ele>
        <time>2016-10-23T09:25:28.000Z</time>
      </trkpt>
      <trkpt lat="47.5745" lon="6.79958">
        <ele>414</ele>
        <time>2016-10-23T09:25:29.000Z</time>
      </trkpt>
      <trkpt lat="47.57449" lon="6.79962">
        <ele>414</ele>
        <time>2016-10-23T09:25:30.000Z</time>
      </trkpt>
      <trkpt lat="47.57448" lon="6.79966">
        <ele>414</ele>
        <time>2016-10-23T09:25:31.000Z</time>
      </trkpt>
      <trkpt lat="47.57447" lon="6.7997">
        <ele>414</ele>
        <time>2016-10-23T09:25:32.000Z</time>
      </trkpt>
      <trkpt lat="47.57446" lon="6.79974">
        <ele>414</ele>
        <time>2016-10-23T09:25:33.000Z</time>
      </trkpt>
      <trkpt lat="47.57445" lon="6.79978">
        <ele>414</ele>
        <time>2016-10-23T09:25:34.000Z</time>
      </trkpt>
      <trkpt lat="47.57444" lon="6.79982">
        <ele>414</ele>
        <time>2016-10-23T09:25:35.000Z</time>
      </trkpt>
      <trkpt lat="47.57442" lon="6.79986">
        <ele>414</ele>
        <time>2016-10-23T09:25:36.000Z</time>
      </trkpt>
      <trkpt lat="47.57441" lon="6.7999">
        <ele>414</ele>
        <time>2016-10-23T09:25:37.000Z</time>
      </trkpt>
      <trkpt lat="47.57439" lon="6.79994">
        <ele>414</ele>
        <time>2016-10-23T09:25:38.000Z</time>
      </trkpt>
      <trkpt lat="47.57438" lon="6.79998">
        <ele>414</ele>
        <time>2016-10-23T09:25:39.000Z</time>
      </trkpt>
      <trkpt lat="47.57435" lon="6.8">
        <ele>413</ele>
        <time>2016-10-23T09:25:40.000Z</time>
      </trkpt>
      <trkpt lat="47.57433" lon="6.80003">
        <ele>413</ele>
        <time>2016-10-23T09:25:41.000Z</time>
      </trkpt>
      <trkpt lat="47.57431" lon="6.80006">
        <ele>413</ele>
        <time>2016-10-23T09:25:42.001Z</time>
      </trkpt>
      <trkpt lat="47.57428" lon="6.80008">
        <ele>413</ele>
        <time>2016-10-23T09:25:43.000Z</time>
      </trkpt>
      <trkpt lat="47.57425" lon="6.80012">
        <ele>413</ele>
        <time>2016-10-23T09:25:44.000Z</time>
      </trkpt>
      <trkpt lat="47.57422" lon="6.80015">
        <ele>413</ele>
        <time>2016-10-23T09:25:45.000Z</time>
      </trkpt>
      <trkpt lat="47.57418" lon="6.80018">
        <ele>413</ele>
        <time>2016-10-23T09:25:46.000Z</time>
      </trkpt>
      <trkpt lat="47.57412" lon="6.80023">
        <ele>413</ele>
        <time>2016-10-23T09:25:47.000Z</time>
      </trkpt>
      <trkpt lat="47.57408" lon="6.80025">
        <ele>412</ele>
        <time>2016-10-23T09:25:48.000Z</time>
      </trkpt>
      <trkpt lat="47.57403" lon="6.8003">
        <ele>412</ele>
        <time>2016-10-23T09:25:49.000Z</time>
      </trkpt>
      <trkpt lat="47.57398" lon="6.80034">
        <ele>412</ele>
        <time>2016-10-23T09:25:50.000Z</time>
      </trkpt>
      <trkpt lat="47.57393" lon="6.80038">
        <ele>412</ele>
        <time>2016-10-23T09:25:51.000Z</time>
      </trkpt>
      <trkpt lat="47.57393" lon="6.80038">
        <ele>412</ele>
        <time>2016-10-23T09:25:51.108Z</time>
      </trkpt>
      <trkpt lat="47.57384" lon="6.80047">
        <ele>412</ele>
        <time>2016-10-23T09:25:53.000Z</time>
      </trkpt>
      <trkpt lat="47.57379" lon="6.80051">
        <ele>412</ele>
        <time>2016-10-23T09:25:54.000Z</time>
      </trkpt>
      <trkpt lat="47.57375" lon="6.80055">
        <ele>412</ele>
        <time>2016-10-23T09:25:55.000Z</time>
      </trkpt>
      <trkpt lat="47.5737" lon="6.80058">
        <ele>412</ele>
        <time>2016-10-23T09:25:56.000Z</time>
      </trkpt>
      <trkpt lat="47.57365" lon="6.80062">
        <ele>411</ele>
        <time>2016-10-23T09:25:57.000Z</time>
      </trkpt>
      <trkpt lat="47.57361" lon="6.80066">
        <ele>411</ele>
        <time>2016-10-23T09:25:58.000Z</time>
      </trkpt>
      <trkpt lat="47.57356" lon="6.80069">
        <ele>411</ele>
        <time>2016-10-23T09:25:59.000Z</time>
      </trkpt>
      <trkpt lat="47.57352" lon="6.80073">
        <ele>411</ele>
        <time>2016-10-23T09:26:00.000Z</time>
      </trkpt>
      <trkpt lat="47.57347" lon="6.80077">
        <ele>411</ele>
        <time>2016-10-23T09:26:01.000Z</time>
      </trkpt>
      <trkpt lat="47.57343" lon="6.8008">
        <ele>411</ele>
        <time>2016-10-23T09:26:02.000Z</time>
      </trkpt>
      <trkpt lat="47.57339" lon="6.80084">
        <ele>410</ele>
        <time>2016-10-23T09:26:03.000Z</time>
      </trkpt>
      <trkpt lat="47.57335" lon="6.80088">
        <ele>410</ele>
        <time>2016-10-23T09:26:04.000Z</time>
      </trkpt>
      <trkpt lat="47.57331" lon="6.80092">
        <ele>410</ele>
        <time>2016-10-23T09:26:05.000Z</time>
      </trkpt>
      <trkpt lat="47.57327" lon="6.80097">
        <ele>410</ele>
        <time>2016-10-23T09:26:06.000Z</time>
      </trkpt>
      <trkpt lat="47.57323" lon="6.80102">
        <ele>409</ele>
        <time>2016-10-23T09:26:07.000Z</time>
      </trkpt>
      <trkpt lat="47.5732" lon="6.80107">
        <ele>409</ele>
        <time>2016-10-23T09:26:08.000Z</time>
      </trkpt>
      <trkpt lat="47.57317" lon="6.80112">
        <ele>409</ele>
        <time>2016-10-23T09:26:09.000Z</time>
      </trkpt>
      <trkpt lat="47.57316" lon="6.80112">
        <ele>409</ele>
        <time>2016-10-23T09:26:09.107Z</time>
      </trkpt>
      <trkpt lat="47.5731" lon="6.80123">
        <ele>408</ele>
        <time>2016-10-23T09:26:11.000Z</time>
      </trkpt>
      <trkpt lat="47.57307" lon="6.80127">
        <ele>408</ele>
        <time>2016-10-23T09:26:12.000Z</time>
      </trkpt>
      <trkpt lat="47.57303" lon="6.80132">
        <ele>408</ele>
        <time>2016-10-23T09:26:13.000Z</time>
      </trkpt>
      <trkpt lat="47.57299" lon="6.80136">
        <ele>408</ele>
        <time>2016-10-23T09:26:14.000Z</time>
      </trkpt>
      <trkpt lat="47.57294" lon="6.80141">
        <ele>408</ele>
        <time>2016-10-23T09:26:15.000Z</time>
      </trkpt>
      <trkpt lat="47.5729" lon="6.80145">
        <ele>408</ele>
        <time>2016-10-23T09:26:16.000Z</time>
      </trkpt>
      <trkpt lat="47.57286" lon="6.80149">
        <ele>408</ele>
        <time>2016-10-23T09:26:17.000Z</time>
      </trkpt>
      <trkpt lat="47.5728" lon="6.80151">
        <ele>408</ele>
        <time>2016-10-23T09:26:18.000Z</time>
      </trkpt>
      <trkpt lat="47.57277" lon="6.80154">
        <ele>408</ele>
        <time>2016-10-23T09:26:19.000Z</time>
      </trkpt>
      <trkpt lat="47.57271" lon="6.80157">
        <ele>407</ele>
        <time>2016-10-23T09:26:20.000Z</time>
      </trkpt>
      <trkpt lat="47.57266" lon="6.8016">
        <ele>407</ele>
        <time>2016-10-23T09:26:21.000Z</time>
      </trkpt>
      <trkpt lat="47.57261" lon="6.80162">
        <ele>407</ele>
        <time>2016-10-23T09:26:22.000Z</time>
      </trkpt>
      <trkpt lat="47.57255" lon="6.80162">
        <ele>407</ele>
        <time>2016-10-23T09:26:23.000Z</time>
      </trkpt>
      <trkpt lat="47.57249" lon="6.80163">
        <ele>407</ele>
        <time>2016-10-23T09:26:24.000Z</time>
      </trkpt>
      <trkpt lat="47.57244" lon="6.80164">
        <ele>407</ele>
        <time>2016-10-23T09:26:25.000Z</time>
      </trkpt>
      <trkpt lat="47.57238" lon="6.80165">
        <ele>407</ele>
        <time>2016-10-23T09:26:26.000Z</time>
      </trkpt>
      <trkpt lat="47.57232" lon="6.80165">
        <ele>407</ele>
        <time>2016-10-23T09:26:27.000Z</time>
      </trkpt>
      <trkpt lat="47.57227" lon="6.80166">
        <ele>407</ele>
        <time>2016-10-23T09:26:28.000Z</time>
      </trkpt>
      <trkpt lat="47.57222" lon="6.80166">
        <ele>407</ele>
        <time>2016-10-23T09:26:29.000Z</time>
      </trkpt>
      <trkpt lat="47.57215" lon="6.80168">
        <ele>406</ele>
        <time>2016-10-23T09:26:30.000Z</time>
      </trkpt>
      <trkpt lat="47.5721" lon="6.80169">
        <ele>406</ele>
        <time>2016-10-23T09:26:31.000Z</time>
      </trkpt>
      <trkpt lat="47.57204" lon="6.80172">
        <ele>406</ele>
        <time>2016-10-23T09:26:32.000Z</time>
      </trkpt>
      <trkpt lat="47.572" lon="6.80173">
        <ele>406</ele>
        <time>2016-10-23T09:26:33.000Z</time>
      </trkpt>
      <trkpt lat="47.57195" lon="6.80176">
        <ele>406</ele>
        <time>2016-10-23T09:26:34.000Z</time>
      </trkpt>
      <trkpt lat="47.5719" lon="6.80179">
        <ele>406</ele>
        <time>2016-10-23T09:26:35.000Z</time>
      </trkpt>
      <trkpt lat="47.57186" lon="6.80182">
        <ele>406</ele>
        <time>2016-10-23T09:26:36.000Z</time>
      </trkpt>
      <trkpt lat="47.57182" lon="6.80186">
        <ele>406</ele>
        <time>2016-10-23T09:26:37.000Z</time>
      </trkpt>
      <trkpt lat="47.57178" lon="6.8019">
        <ele>406</ele>
        <time>2016-10-23T09:26:38.000Z</time>
      </trkpt>
      <trkpt lat="47.57174" lon="6.80193">
        <ele>406</ele>
        <time>2016-10-23T09:26:39.000Z</time>
      </trkpt>
      <trkpt lat="47.57171" lon="6.80196">
        <ele>406</ele>
        <time>2016-10-23T09:26:40.000Z</time>
      </trkpt>
      <trkpt lat="47.57166" lon="6.80199">
        <ele>408</ele>
        <time>2016-10-23T09:26:41.000Z</time>
      </trkpt>
      <trkpt lat="47.57163" lon="6.80203">
        <ele>408</ele>
        <time>2016-10-23T09:26:42.000Z</time>
      </trkpt>
      <trkpt lat="47.57159" lon="6.80207">
        <ele>408</ele>
        <time>2016-10-23T09:26:43.000Z</time>
      </trkpt>
      <trkpt lat="47.57156" lon="6.80211">
        <ele>408</ele>
        <time>2016-10-23T09:26:44.000Z</time>
      </trkpt>
      <trkpt lat="47.57154" lon="6.80215">
        <ele>408</ele>
        <time>2016-10-23T09:26:45.000Z</time>
      </trkpt>
      <trkpt lat="47.57151" lon="6.80217">
        <ele>408</ele>
        <time>2016-10-23T09:26:46.000Z</time>
      </trkpt>
      <trkpt lat="47.57149" lon="6.80221">
        <ele>408</ele>
        <time>2016-10-23T09:26:47.000Z</time>
      </trkpt>
      <trkpt lat="47.57147" lon="6.80226">
        <ele>408</ele>
        <time>2016-10-23T09:26:48.000Z</time>
      </trkpt>
      <trkpt lat="47.57144" lon="6.8023">
        <ele>408</ele>
        <time>2016-10-23T09:26:49.000Z</time>
      </trkpt>
      <trkpt lat="47.57142" lon="6.80233">
        <ele>408</ele>
        <time>2016-10-23T09:26:50.000Z</time>
      </trkpt>
      <trkpt lat="47.57141" lon="6.80236">
        <ele>408</ele>
        <time>2016-10-23T09:26:51.000Z</time>
      </trkpt>
      <trkpt lat="47.57139" lon="6.80239">
        <ele>408</ele>
        <time>2016-10-23T09:26:52.000Z</time>
      </trkpt>
      <trkpt lat="47.57137" lon="6.80242">
        <ele>408</ele>
        <time>2016-10-23T09:26:53.000Z</time>
      </trkpt>
      <trkpt lat="47.57135" lon="6.80245">
        <ele>408</ele>
        <time>2016-10-23T09:26:54.000Z</time>
      </trkpt>
      <trkpt lat="47.57132" lon="6.80248">
        <ele>408</ele>
        <time>2016-10-23T09:26:55.000Z</time>
      </trkpt>
      <trkpt lat="47.5713" lon="6.80251">
        <ele>408</ele>
        <time>2016-10-23T09:26:56.000Z</time>
      </trkpt>
      <trkpt lat="47.57127" lon="6.80254">
        <ele>408</ele>
        <time>2016-10-23T09:26:57.000Z</time>
      </trkpt>
      <trkpt lat="47.57124" lon="6.80256">
        <ele>408</ele>
        <time>2016-10-23T09:26:58.000Z</time>
      </trkpt>
      <trkpt lat="47.57121" lon="6.80258">
        <ele>408</ele>
        <time>2016-10-23T09:26:59.000Z</time>
      </trkpt>
      <trkpt lat="47.57118" lon="6.8026">
        <ele>408</ele>
        <time>2016-10-23T09:27:00.000Z</time>
      </trkpt>
      <trkpt lat="47.57115" lon="6.80262">
        <ele>409</ele>
        <time>2016-10-23T09:27:01.000Z</time>
      </trkpt>
      <trkpt lat="47.57112" lon="6.80264">
        <ele>409</ele>
        <time>2016-10-23T09:27:02.000Z</time>
      </trkpt>
      <trkpt lat="47.5711" lon="6.80266">
        <ele>409</ele>
        <time>2016-10-23T09:27:03.000Z</time>
      </trkpt>
      <trkpt lat="47.57107" lon="6.80268">
        <ele>409</ele>
        <time>2016-10-23T09:27:04.000Z</time>
      </trkpt>
      <trkpt lat="47.57103" lon="6.8027">
        <ele>409</ele>
        <time>2016-10-23T09:27:05.000Z</time>
      </trkpt>
      <trkpt lat="47.571" lon="6.8027">
        <ele>409</ele>
        <time>2016-10-23T09:27:06.000Z</time>
      </trkpt>
      <trkpt lat="47.57096" lon="6.80272">
        <ele>409</ele>
        <time>2016-10-23T09:27:07.000Z</time>
      </trkpt>
      <trkpt lat="47.57093" lon="6.80273">
        <ele>409</ele>
        <time>2016-10-23T09:27:08.000Z</time>
      </trkpt>
      <trkpt lat="47.5709" lon="6.80275">
        <ele>409</ele>
        <time>2016-10-23T09:27:09.000Z</time>
      </trkpt>
      <trkpt lat="47.57087" lon="6.80277">
        <ele>409</ele>
        <time>2016-10-23T09:27:10.000Z</time>
      </trkpt>
      <trkpt lat="47.57084" lon="6.80279">
        <ele>409</ele>
        <time>2016-10-23T09:27:11.000Z</time>
      </trkpt>
      <trkpt lat="47.5708" lon="6.8028">
        <ele>411</ele>
        <time>2016-10-23T09:27:12.000Z</time>
      </trkpt>
      <trkpt lat="47.57076" lon="6.80283">
        <ele>411</ele>
        <time>2016-10-23T09:27:13.000Z</time>
      </trkpt>
      <trkpt lat="47.57074" lon="6.80286">
        <ele>411</ele>
        <time>2016-10-23T09:27:14.000Z</time>
      </trkpt>
      <trkpt lat="47.57072" lon="6.80289">
        <ele>411</ele>
        <time>2016-10-23T09:27:15.000Z</time>
      </trkpt>
      <trkpt lat="47.57069" lon="6.8029">
        <ele>411</ele>
        <time>2016-10-23T09:27:16.000Z</time>
      </trkpt>
      <trkpt lat="47.57066" lon="6.80291">
        <ele>411</ele>
        <time>2016-10-23T09:27:17.000Z</time>
      </trkpt>
      <trkpt lat="47.57062" lon="6.80291">
        <ele>411</ele>
        <time>2016-10-23T09:27:18.000Z</time>
      </trkpt>
      <trkpt lat="47.5706" lon="6.80293">
        <ele>411</ele>
        <time>2016-10-23T09:27:19.000Z</time>
      </trkpt>
      <trkpt lat="47.57056" lon="6.80294">
        <ele>411</ele>
        <time>2016-10-23T09:27:20.000Z</time>
      </trkpt>
      <trkpt lat="47.57052" lon="6.80295">
        <ele>411</ele>
        <time>2016-10-23T09:27:21.000Z</time>
      </trkpt>
      <trkpt lat="47.5705" lon="6.80297">
        <ele>411</ele>
        <time>2016-10-23T09:27:22.000Z</time>
      </trkpt>
      <trkpt lat="47.57046" lon="6.80298">
        <ele>411</ele>
        <time>2016-10-23T09:27:23.000Z</time>
      </trkpt>
      <trkpt lat="47.57043" lon="6.80301">
        <ele>411</ele>
        <time>2016-10-23T09:27:24.000Z</time>
      </trkpt>
      <trkpt lat="47.5704" lon="6.80303">
        <ele>411</ele>
        <time>2016-10-23T09:27:25.000Z</time>
      </trkpt>
      <trkpt lat="47.57037" lon="6.80305">
        <ele>411</ele>
        <time>2016-10-23T09:27:26.000Z</time>
      </trkpt>
      <trkpt lat="47.57034" lon="6.80307">
        <ele>411</ele>
        <time>2016-10-23T09:27:27.000Z</time>
      </trkpt>
      <trkpt lat="47.57031" lon="6.8031">
        <ele>411</ele>
        <time>2016-10-23T09:27:28.000Z</time>
      </trkpt>
      <trkpt lat="47.57027" lon="6.80312">
        <ele>411</ele>
        <time>2016-10-23T09:27:29.000Z</time>
      </trkpt>
      <trkpt lat="47.57024" lon="6.80313">
        <ele>411</ele>
        <time>2016-10-23T09:27:30.000Z</time>
      </trkpt>
      <trkpt lat="47.57021" lon="6.80315">
        <ele>412</ele>
        <time>2016-10-23T09:27:31.000Z</time>
      </trkpt>
      <trkpt lat="47.57018" lon="6.80317">
        <ele>412</ele>
        <time>2016-10-23T09:27:32.000Z</time>
      </trkpt>
      <trkpt lat="47.57014" lon="6.80316">
        <ele>412</ele>
        <time>2016-10-23T09:27:33.000Z</time>
      </trkpt>
      <trkpt lat="47.57011" lon="6.80317">
        <ele>412</ele>
        <time>2016-10-23T09:27:34.000Z</time>
      </trkpt>
      <trkpt lat="47.57007" lon="6.80317">
        <ele>412</ele>
        <time>2016-10-23T09:27:35.000Z</time>
      </trkpt>
      <trkpt lat="47.57003" lon="6.80318">
        <ele>412</ele>
        <time>2016-10-23T09:27:36.000Z</time>
      </trkpt>
      <trkpt lat="47.56999" lon="6.80318">
        <ele>411</ele>
        <time>2016-10-23T09:27:37.000Z</time>
      </trkpt>
      <trkpt lat="47.56996" lon="6.80319">
        <ele>411</ele>
        <time>2016-10-23T09:27:38.000Z</time>
      </trkpt>
      <trkpt lat="47.56992" lon="6.8032">
        <ele>411</ele>
        <time>2016-10-23T09:27:39.000Z</time>
      </trkpt>
      <trkpt lat="47.56989" lon="6.8032">
        <ele>411</ele>
        <time>2016-10-23T09:27:40.000Z</time>
      </trkpt>
      <trkpt lat="47.56985" lon="6.80322">
        <ele>411</ele>
        <time>2016-10-23T09:27:41.000Z</time>
      </trkpt>
      <trkpt lat="47.56981" lon="6.80323">
        <ele>411</ele>
        <time>2016-10-23T09:27:42.000Z</time>
      </trkpt>
      <trkpt lat="47.56977" lon="6.80322">
        <ele>411</ele>
        <time>2016-10-23T09:27:43.000Z</time>
      </trkpt>
      <trkpt lat="47.56974" lon="6.80323">
        <ele>410</ele>
        <time>2016-10-23T09:27:44.000Z</time>
      </trkpt>
      <trkpt lat="47.5697" lon="6.80323">
        <ele>410</ele>
        <time>2016-10-23T09:27:45.000Z</time>
      </trkpt>
      <trkpt lat="47.56966" lon="6.80323">
        <ele>410</ele>
        <time>2016-10-23T09:27:46.000Z</time>
      </trkpt>
      <trkpt lat="47.56962" lon="6.80324">
        <ele>410</ele>
        <time>2016-10-23T09:27:47.000Z</time>
      </trkpt>
      <trkpt lat="47.56958" lon="6.80324">
        <ele>410</ele>
        <time>2016-10-23T09:27:48.000Z</time>
      </trkpt>
      <trkpt lat="47.56954" lon="6.80324">
        <ele>410</ele>
        <time>2016-10-23T09:27:49.000Z</time>
      </trkpt>
      <trkpt lat="47.5695" lon="6.80324">
        <ele>410</ele>
        <time>2016-10-23T09:27:50.000Z</time>
      </trkpt>
      <trkpt lat="47.56947" lon="6.80325">
        <ele>409</ele>
        <time>2016-10-23T09:27:51.000Z</time>
      </trkpt>
      <trkpt lat="47.56943" lon="6.80325">
        <ele>409</ele>
        <time>2016-10-23T09:27:52.000Z</time>
      </trkpt>
      <trkpt lat="47.56939" lon="6.80325">
        <ele>409</ele>
        <time>2016-10-23T09:27:53.000Z</time>
      </trkpt>
      <trkpt lat="47.56935" lon="6.80325">
        <ele>409</ele>
        <time>2016-10-23T09:27:54.000Z</time>
      </trkpt>
      <trkpt lat="47.56932" lon="6.80325">
        <ele>409</ele>
        <time>2016-10-23T09:27:55.000Z</time>
      </trkpt>
      <trkpt lat="47.56928" lon="6.80325">
        <ele>409</ele>
        <time>2016-10-23T09:27:56.000Z</time>
      </trkpt>
      <trkpt lat="47.56924" lon="6.80325">
        <ele>409</ele>
        <time>2016-10-23T09:27:57.000Z</time>
      </trkpt>
      <trkpt lat="47.5692" lon="6.80325">
        <ele>409</ele>
        <time>2016-10-23T09:27:58.000Z</time>
      </trkpt>
      <trkpt lat="47.56915" lon="6.80326">
        <ele>408</ele>
        <time>2016-10-23T09:27:59.000Z</time>
      </trkpt>
      <trkpt lat="47.5691" lon="6.80326">
        <ele>408</ele>
        <time>2016-10-23T09:28:00.000Z</time>
      </trkpt>
      <trkpt lat="47.56905" lon="6.80325">
        <ele>407</ele>
        <time>2016-10-23T09:28:01.000Z</time>
      </trkpt>
      <trkpt lat="47.56899" lon="6.80324">
        <ele>407</ele>
        <time>2016-10-23T09:28:02.000Z</time>
      </trkpt>
      <trkpt lat="47.56894" lon="6.80323">
        <ele>406</ele>
        <time>2016-10-23T09:28:03.000Z</time>
      </trkpt>
      <trkpt lat="47.56888" lon="6.80323">
        <ele>406</ele>
        <time>2016-10-23T09:28:04.000Z</time>
      </trkpt>
      <trkpt lat="47.56882" lon="6.80322">
        <ele>406</ele>
        <time>2016-10-23T09:28:05.000Z</time>
      </trkpt>
      <trkpt lat="47.56875" lon="6.80319">
        <ele>405</ele>
        <time>2016-10-23T09:28:06.000Z</time>
      </trkpt>
      <trkpt lat="47.56869" lon="6.80317">
        <ele>405</ele>
        <time>2016-10-23T09:28:07.000Z</time>
      </trkpt>
      <trkpt lat="47.56863" lon="6.80314">
        <ele>405</ele>
        <time>2016-10-23T09:28:08.000Z</time>
      </trkpt>
      <trkpt lat="47.56856" lon="6.8031">
        <ele>405</ele>
        <time>2016-10-23T09:28:09.000Z</time>
      </trkpt>
      <trkpt lat="47.5685" lon="6.80305">
        <ele>404</ele>
        <time>2016-10-23T09:28:10.000Z</time>
      </trkpt>
      <trkpt lat="47.56843" lon="6.80301">
        <ele>404</ele>
        <time>2016-10-23T09:28:11.000Z</time>
      </trkpt>
      <trkpt lat="47.56835" lon="6.80296">
        <ele>404</ele>
        <time>2016-10-23T09:28:12.000Z</time>
      </trkpt>
      <trkpt lat="47.56827" lon="6.80291">
        <ele>400</ele>
        <time>2016-10-23T09:28:12.999Z</time>
      </trkpt>
      <trkpt lat="47.5682" lon="6.80286">
        <ele>399</ele>
        <time>2016-10-23T09:28:14.000Z</time>
      </trkpt>
      <trkpt lat="47.56812" lon="6.80281">
        <ele>399</ele>
        <time>2016-10-23T09:28:15.000Z</time>
      </trkpt>
      <trkpt lat="47.56804" lon="6.80276">
        <ele>399</ele>
        <time>2016-10-23T09:28:16.000Z</time>
      </trkpt>
      <trkpt lat="47.56797" lon="6.8027">
        <ele>398</ele>
        <time>2016-10-23T09:28:17.000Z</time>
      </trkpt>
      <trkpt lat="47.56787" lon="6.80263">
        <ele>398</ele>
        <time>2016-10-23T09:28:18.000Z</time>
      </trkpt>
      <trkpt lat="47.56778" lon="6.80254">
        <ele>397</ele>
        <time>2016-10-23T09:28:19.000Z</time>
      </trkpt>
      <trkpt lat="47.56769" lon="6.80248">
        <ele>395</ele>
        <time>2016-10-23T09:28:20.000Z</time>
      </trkpt>
      <trkpt lat="47.56761" lon="6.8024">
        <ele>395</ele>
        <time>2016-10-23T09:28:21.000Z</time>
      </trkpt>
      <trkpt lat="47.56753" lon="6.80231">
        <ele>395</ele>
        <time>2016-10-23T09:28:22.000Z</time>
      </trkpt>
      <trkpt lat="47.56744" lon="6.80222">
        <ele>390</ele>
        <time>2016-10-23T09:28:23.000Z</time>
      </trkpt>
      <trkpt lat="47.56735" lon="6.80214">
        <ele>390</ele>
        <time>2016-10-23T09:28:24.000Z</time>
      </trkpt>
      <trkpt lat="47.56727" lon="6.80206">
        <ele>389</ele>
        <time>2016-10-23T09:28:25.000Z</time>
      </trkpt>
      <trkpt lat="47.56719" lon="6.80198">
        <ele>389</ele>
        <time>2016-10-23T09:28:26.000Z</time>
      </trkpt>
      <trkpt lat="47.56711" lon="6.8019">
        <ele>388</ele>
        <time>2016-10-23T09:28:27.000Z</time>
      </trkpt>
      <trkpt lat="47.56702" lon="6.80182">
        <ele>388</ele>
        <time>2016-10-23T09:28:28.000Z</time>
      </trkpt>
      <trkpt lat="47.56694" lon="6.80174">
        <ele>387</ele>
        <time>2016-10-23T09:28:29.000Z</time>
      </trkpt>
      <trkpt lat="47.56686" lon="6.80167">
        <ele>386</ele>
        <time>2016-10-23T09:28:30.000Z</time>
      </trkpt>
      <trkpt lat="47.56677" lon="6.8016">
        <ele>386</ele>
        <time>2016-10-23T09:28:31.000Z</time>
      </trkpt>
      <trkpt lat="47.56668" lon="6.80153">
        <ele>386</ele>
        <time>2016-10-23T09:28:32.000Z</time>
      </trkpt>
      <trkpt lat="47.56659" lon="6.80149">
        <ele>384</ele>
        <time>2016-10-23T09:28:33.000Z</time>
      </trkpt>
      <trkpt lat="47.5665" lon="6.80144">
        <ele>383</ele>
        <time>2016-10-23T09:28:34.000Z</time>
      </trkpt>
      <trkpt lat="47.56642" lon="6.80139">
        <ele>383</ele>
        <time>2016-10-23T09:28:35.000Z</time>
      </trkpt>
      <trkpt lat="47.56634" lon="6.80135">
        <ele>383</ele>
        <time>2016-10-23T09:28:36.000Z</time>
      </trkpt>
      <trkpt lat="47.56627" lon="6.80129">
        <ele>383</ele>
        <time>2016-10-23T09:28:37.000Z</time>
      </trkpt>
      <trkpt lat="47.56619" lon="6.80123">
        <ele>383</ele>
        <time>2016-10-23T09:28:38.000Z</time>
      </trkpt>
      <trkpt lat="47.56615" lon="6.80117">
        <ele>383</ele>
        <time>2016-10-23T09:28:38.999Z</time>
      </trkpt>
      <trkpt lat="47.56609" lon="6.80114">
        <ele>383</ele>
        <time>2016-10-23T09:28:40.000Z</time>
      </trkpt>
      <trkpt lat="47.56603" lon="6.80111">
        <ele>382</ele>
        <time>2016-10-23T09:28:41.000Z</time>
      </trkpt>
      <trkpt lat="47.56597" lon="6.80109">
        <ele>382</ele>
        <time>2016-10-23T09:28:42.000Z</time>
      </trkpt>
      <trkpt lat="47.5659" lon="6.80108">
        <ele>382</ele>
        <time>2016-10-23T09:28:43.000Z</time>
      </trkpt>
      <trkpt lat="47.56584" lon="6.80106">
        <ele>382</ele>
        <time>2016-10-23T09:28:44.000Z</time>
      </trkpt>
      <trkpt lat="47.56577" lon="6.80106">
        <ele>380</ele>
        <time>2016-10-23T09:28:44.999Z</time>
      </trkpt>
      <trkpt lat="47.56571" lon="6.80108">
        <ele>380</ele>
        <time>2016-10-23T09:28:46.000Z</time>
      </trkpt>
      <trkpt lat="47.56563" lon="6.8011">
        <ele>380</ele>
        <time>2016-10-23T09:28:47.000Z</time>
      </trkpt>
      <trkpt lat="47.56557" lon="6.80112">
        <ele>380</ele>
        <time>2016-10-23T09:28:48.000Z</time>
      </trkpt>
      <trkpt lat="47.5655" lon="6.80114">
        <ele>379</ele>
        <time>2016-10-23T09:28:49.000Z</time>
      </trkpt>
      <trkpt lat="47.56543" lon="6.80115">
        <ele>379</ele>
        <time>2016-10-23T09:28:50.000Z</time>
      </trkpt>
      <trkpt lat="47.56536" lon="6.80116">
        <ele>379</ele>
        <time>2016-10-23T09:28:51.000Z</time>
      </trkpt>
      <trkpt lat="47.56529" lon="6.80117">
        <ele>379</ele>
        <time>2016-10-23T09:28:52.000Z</time>
      </trkpt>
      <trkpt lat="47.56522" lon="6.80118">
        <ele>379</ele>
        <time>2016-10-23T09:28:53.000Z</time>
      </trkpt>
      <trkpt lat="47.56516" lon="6.8012">
        <ele>379</ele>
        <time>2016-10-23T09:28:54.000Z</time>
      </trkpt>
      <trkpt lat="47.56509" lon="6.80122">
        <ele>379</ele>
        <time>2016-10-23T09:28:55.000Z</time>
      </trkpt>
      <trkpt lat="47.56502" lon="6.80123">
        <ele>379</ele>
        <time>2016-10-23T09:28:56.000Z</time>
      </trkpt>
      <trkpt lat="47.56496" lon="6.80125">
        <ele>377</ele>
        <time>2016-10-23T09:28:57.000Z</time>
      </trkpt>
      <trkpt lat="47.56489" lon="6.80127">
        <ele>377</ele>
        <time>2016-10-23T09:28:58.000Z</time>
      </trkpt>
      <trkpt lat="47.56483" lon="6.80128">
        <ele>377</ele>
        <time>2016-10-23T09:28:59.000Z</time>
      </trkpt>
      <trkpt lat="47.56477" lon="6.80129">
        <ele>377</ele>
        <time>2016-10-23T09:29:00.000Z</time>
      </trkpt>
      <trkpt lat="47.56472" lon="6.8013">
        <ele>377</ele>
        <time>2016-10-23T09:29:01.000Z</time>
      </trkpt>
      <trkpt lat="47.56466" lon="6.80131">
        <ele>377</ele>
        <time>2016-10-23T09:29:02.000Z</time>
      </trkpt>
      <trkpt lat="47.5646" lon="6.80131">
        <ele>377</ele>
        <time>2016-10-23T09:29:03.000Z</time>
      </trkpt>
      <trkpt lat="47.56455" lon="6.80132">
        <ele>377</ele>
        <time>2016-10-23T09:29:04.000Z</time>
      </trkpt>
      <trkpt lat="47.56449" lon="6.80133">
        <ele>377</ele>
        <time>2016-10-23T09:29:05.000Z</time>
      </trkpt>
      <trkpt lat="47.56443" lon="6.80135">
        <ele>377</ele>
        <time>2016-10-23T09:29:06.000Z</time>
      </trkpt>
      <trkpt lat="47.56437" lon="6.80135">
        <ele>377</ele>
        <time>2016-10-23T09:29:07.000Z</time>
      </trkpt>
      <trkpt lat="47.56431" lon="6.80134">
        <ele>377</ele>
        <time>2016-10-23T09:29:08.000Z</time>
      </trkpt>
      <trkpt lat="47.56426" lon="6.80134">
        <ele>377</ele>
        <time>2016-10-23T09:29:09.000Z</time>
      </trkpt>
      <trkpt lat="47.56421" lon="6.80133">
        <ele>377</ele>
        <time>2016-10-23T09:29:10.000Z</time>
      </trkpt>
      <trkpt lat="47.56415" lon="6.80132">
        <ele>378</ele>
        <time>2016-10-23T09:29:11.000Z</time>
      </trkpt>
      <trkpt lat="47.56409" lon="6.8013">
        <ele>378</ele>
        <time>2016-10-23T09:29:12.000Z</time>
      </trkpt>
      <trkpt lat="47.56403" lon="6.80128">
        <ele>378</ele>
        <time>2016-10-23T09:29:13.000Z</time>
      </trkpt>
      <trkpt lat="47.56397" lon="6.80127">
        <ele>378</ele>
        <time>2016-10-23T09:29:14.001Z</time>
      </trkpt>
      <trkpt lat="47.5639" lon="6.80124">
        <ele>378</ele>
        <time>2016-10-23T09:29:15.000Z</time>
      </trkpt>
      <trkpt lat="47.56384" lon="6.80123">
        <ele>378</ele>
        <time>2016-10-23T09:29:16.000Z</time>
      </trkpt>
      <trkpt lat="47.56378" lon="6.80121">
        <ele>378</ele>
        <time>2016-10-23T09:29:17.000Z</time>
      </trkpt>
      <trkpt lat="47.56373" lon="6.80121">
        <ele>378</ele>
        <time>2016-10-23T09:29:18.000Z</time>
      </trkpt>
      <trkpt lat="47.56365" lon="6.80116">
        <ele>378</ele>
        <time>2016-10-23T09:29:19.000Z</time>
      </trkpt>
      <trkpt lat="47.56358" lon="6.80113">
        <ele>378</ele>
        <time>2016-10-23T09:29:20.000Z</time>
      </trkpt>
      <trkpt lat="47.56352" lon="6.80109">
        <ele>377</ele>
        <time>2016-10-23T09:29:21.000Z</time>
      </trkpt>
      <trkpt lat="47.56347" lon="6.80108">
        <ele>377</ele>
        <time>2016-10-23T09:29:22.000Z</time>
      </trkpt>
      <trkpt lat="47.56343" lon="6.80107">
        <ele>377</ele>
        <time>2016-10-23T09:29:23.000Z</time>
      </trkpt>
      <trkpt lat="47.5634" lon="6.80106">
        <ele>377</ele>
        <time>2016-10-23T09:29:24.000Z</time>
      </trkpt>
      <trkpt lat="47.56336" lon="6.80105">
        <ele>377</ele>
        <time>2016-10-23T09:29:26.000Z</time>
      </trkpt>
      <trkpt lat="47.56335" lon="6.80104">
        <ele>377</ele>
        <time>2016-10-23T09:29:27.000Z</time>
      </trkpt>
      <trkpt lat="47.56332" lon="6.80103">
        <ele>378</ele>
        <time>2016-10-23T09:29:28.000Z</time>
      </trkpt>
      <trkpt lat="47.5633" lon="6.80103">
        <ele>378</ele>
        <time>2016-10-23T09:29:29.000Z</time>
      </trkpt>
      <trkpt lat="47.56326" lon="6.80103">
        <ele>378</ele>
        <time>2016-10-23T09:29:30.000Z</time>
      </trkpt>
      <trkpt lat="47.56324" lon="6.80103">
        <ele>378</ele>
        <time>2016-10-23T09:29:31.000Z</time>
      </trkpt>
      <trkpt lat="47.5632" lon="6.80104">
        <ele>378</ele>
        <time>2016-10-23T09:29:32.000Z</time>
      </trkpt>
      <trkpt lat="47.56317" lon="6.80104">
        <ele>378</ele>
        <time>2016-10-23T09:29:33.000Z</time>
      </trkpt>
      <trkpt lat="47.56315" lon="6.80105">
        <ele>378</ele>
        <time>2016-10-23T09:29:34.000Z</time>
      </trkpt>
      <trkpt lat="47.56312" lon="6.80105">
        <ele>378</ele>
        <time>2016-10-23T09:29:35.000Z</time>
      </trkpt>
      <trkpt lat="47.5631" lon="6.80107">
        <ele>378</ele>
        <time>2016-10-23T09:29:36.000Z</time>
      </trkpt>
      <trkpt lat="47.56307" lon="6.80108">
        <ele>378</ele>
        <time>2016-10-23T09:29:37.000Z</time>
      </trkpt>
      <trkpt lat="47.56304" lon="6.80109">
        <ele>379</ele>
        <time>2016-10-23T09:29:38.000Z</time>
      </trkpt>
      <trkpt lat="47.56301" lon="6.80111">
        <ele>379</ele>
        <time>2016-10-23T09:29:39.000Z</time>
      </trkpt>
      <trkpt lat="47.56297" lon="6.80113">
        <ele>379</ele>
        <time>2016-10-23T09:29:40.000Z</time>
      </trkpt>
      <trkpt lat="47.56294" lon="6.80114">
        <ele>379</ele>
        <time>2016-10-23T09:29:41.000Z</time>
      </trkpt>
      <trkpt lat="47.5629" lon="6.80116">
        <ele>379</ele>
        <time>2016-10-23T09:29:42.000Z</time>
      </trkpt>
      <trkpt lat="47.56287" lon="6.80118">
        <ele>379</ele>
        <time>2016-10-23T09:29:43.000Z</time>
      </trkpt>
      <trkpt lat="47.56284" lon="6.80121">
        <ele>379</ele>
        <time>2016-10-23T09:29:44.000Z</time>
      </trkpt>
      <trkpt lat="47.56273" lon="6.80126">
        <ele>379</ele>
        <time>2016-10-23T09:29:45.000Z</time>
      </trkpt>
      <trkpt lat="47.56266" lon="6.80127">
        <ele>379</ele>
        <time>2016-10-23T09:29:46.000Z</time>
      </trkpt>
      <trkpt lat="47.5626" lon="6.80127">
        <ele>379</ele>
        <time>2016-10-23T09:29:47.000Z</time>
      </trkpt>
      <trkpt lat="47.56255" lon="6.8013">
        <ele>379</ele>
        <time>2016-10-23T09:29:48.000Z</time>
      </trkpt>
      <trkpt lat="47.5625" lon="6.80132">
        <ele>379</ele>
        <time>2016-10-23T09:29:49.000Z</time>
      </trkpt>
      <trkpt lat="47.56244" lon="6.80133">
        <ele>379</ele>
        <time>2016-10-23T09:29:50.000Z</time>
      </trkpt>
      <trkpt lat="47.56238" lon="6.80136">
        <ele>379</ele>
        <time>2016-10-23T09:29:51.000Z</time>
      </trkpt>
      <trkpt lat="47.56233" lon="6.80138">
        <ele>379</ele>
        <time>2016-10-23T09:29:52.000Z</time>
      </trkpt>
      <trkpt lat="47.56229" lon="6.80142">
        <ele>379</ele>
        <time>2016-10-23T09:29:53.000Z</time>
      </trkpt>
      <trkpt lat="47.56225" lon="6.80146">
        <ele>379</ele>
        <time>2016-10-23T09:29:54.000Z</time>
      </trkpt>
      <trkpt lat="47.56223" lon="6.80147">
        <ele>379</ele>
        <time>2016-10-23T09:29:56.000Z</time>
      </trkpt>
      <trkpt lat="47.5622" lon="6.80149">
        <ele>379</ele>
        <time>2016-10-23T09:29:57.000Z</time>
      </trkpt>
      <trkpt lat="47.56217" lon="6.80151">
        <ele>379</ele>
        <time>2016-10-23T09:29:58.000Z</time>
      </trkpt>
      <trkpt lat="47.56214" lon="6.80152">
        <ele>379</ele>
        <time>2016-10-23T09:29:59.000Z</time>
      </trkpt>
      <trkpt lat="47.5621" lon="6.80152">
        <ele>379</ele>
        <time>2016-10-23T09:30:00.000Z</time>
      </trkpt>
      <trkpt lat="47.56203" lon="6.80145">
        <ele>379</ele>
        <time>2016-10-23T09:30:01.000Z</time>
      </trkpt>
      <trkpt lat="47.562" lon="6.80143">
        <ele>379</ele>
        <time>2016-10-23T09:30:02.000Z</time>
      </trkpt>
      <trkpt lat="47.56196" lon="6.8014">
        <ele>379</ele>
        <time>2016-10-23T09:30:03.000Z</time>
      </trkpt>
      <trkpt lat="47.56193" lon="6.80137">
        <ele>379</ele>
        <time>2016-10-23T09:30:04.000Z</time>
      </trkpt>
      <trkpt lat="47.56189" lon="6.80132">
        <ele>379</ele>
        <time>2016-10-23T09:30:05.000Z</time>
      </trkpt>
      <trkpt lat="47.56186" lon="6.80131">
        <ele>379</ele>
        <time>2016-10-23T09:30:06.000Z</time>
      </trkpt>
      <trkpt lat="47.56183" lon="6.8013">
        <ele>379</ele>
        <time>2016-10-23T09:30:07.000Z</time>
      </trkpt>
      <trkpt lat="47.5618" lon="6.80129">
        <ele>379</ele>
        <time>2016-10-23T09:30:08.000Z</time>
      </trkpt>
      <trkpt lat="47.56178" lon="6.8013">
        <ele>379</ele>
        <time>2016-10-23T09:30:09.000Z</time>
      </trkpt>
      <trkpt lat="47.56172" lon="6.80132">
        <ele>379</ele>
        <time>2016-10-23T09:30:10.000Z</time>
      </trkpt>
      <trkpt lat="47.56169" lon="6.80132">
        <ele>379</ele>
        <time>2016-10-23T09:30:11.000Z</time>
      </trkpt>
      <trkpt lat="47.56165" lon="6.80134">
        <ele>379</ele>
        <time>2016-10-23T09:30:12.000Z</time>
      </trkpt>
      <trkpt lat="47.56161" lon="6.80136">
        <ele>379</ele>
        <time>2016-10-23T09:30:13.000Z</time>
      </trkpt>
      <trkpt lat="47.56156" lon="6.80137">
        <ele>379</ele>
        <time>2016-10-23T09:30:14.000Z</time>
      </trkpt>
      <trkpt lat="47.56152" lon="6.80138">
        <ele>379</ele>
        <time>2016-10-23T09:30:15.000Z</time>
      </trkpt>
      <trkpt lat="47.56148" lon="6.80138">
        <ele>379</ele>
        <time>2016-10-23T09:30:16.000Z</time>
      </trkpt>
      <trkpt lat="47.56144" lon="6.80139">
        <ele>379</ele>
        <time>2016-10-23T09:30:17.000Z</time>
      </trkpt>
      <trkpt lat="47.56141" lon="6.80139">
        <ele>379</ele>
        <time>2016-10-23T09:30:18.000Z</time>
      </trkpt>
      <trkpt lat="47.56137" lon="6.8014">
        <ele>379</ele>
        <time>2016-10-23T09:30:19.000Z</time>
      </trkpt>
      <trkpt lat="47.56134" lon="6.8014">
        <ele>379</ele>
        <time>2016-10-23T09:30:20.000Z</time>
      </trkpt>
      <trkpt lat="47.56131" lon="6.80141">
        <ele>379</ele>
        <time>2016-10-23T09:30:21.000Z</time>
      </trkpt>
      <trkpt lat="47.56128" lon="6.80142">
        <ele>379</ele>
        <time>2016-10-23T09:30:22.000Z</time>
      </trkpt>
      <trkpt lat="47.56124" lon="6.80144">
        <ele>379</ele>
        <time>2016-10-23T09:30:23.000Z</time>
      </trkpt>
      <trkpt lat="47.56121" lon="6.80145">
        <ele>379</ele>
        <time>2016-10-23T09:30:24.000Z</time>
      </trkpt>
      <trkpt lat="47.56117" lon="6.80147">
        <ele>379</ele>
        <time>2016-10-23T09:30:25.000Z</time>
      </trkpt>
      <trkpt lat="47.56114" lon="6.80149">
        <ele>379</ele>
        <time>2016-10-23T09:30:26.000Z</time>
      </trkpt>
      <trkpt lat="47.56112" lon="6.8015">
        <ele>379</ele>
        <time>2016-10-23T09:30:27.000Z</time>
      </trkpt>
      <trkpt lat="47.5611" lon="6.80152">
        <ele>379</ele>
        <time>2016-10-23T09:30:28.000Z</time>
      </trkpt>
      <trkpt lat="47.56108" lon="6.80153">
        <ele>380</ele>
        <time>2016-10-23T09:30:29.000Z</time>
      </trkpt>
      <trkpt lat="47.56105" lon="6.80155">
        <ele>380</ele>
        <time>2016-10-23T09:30:30.000Z</time>
      </trkpt>
      <trkpt lat="47.56104" lon="6.80157">
        <ele>380</ele>
        <time>2016-10-23T09:30:31.000Z</time>
      </trkpt>
      <trkpt lat="47.56102" lon="6.8016">
        <ele>380</ele>
        <time>2016-10-23T09:30:32.000Z</time>
      </trkpt>
      <trkpt lat="47.561" lon="6.80163">
        <ele>380</ele>
        <time>2016-10-23T09:30:33.000Z</time>
      </trkpt>
      <trkpt lat="47.56098" lon="6.80167">
        <ele>380</ele>
        <time>2016-10-23T09:30:34.000Z</time>
      </trkpt>
      <trkpt lat="47.56096" lon="6.8017">
        <ele>380</ele>
        <time>2016-10-23T09:30:35.000Z</time>
      </trkpt>
      <trkpt lat="47.56094" lon="6.80173">
        <ele>380</ele>
        <time>2016-10-23T09:30:36.000Z</time>
      </trkpt>
      <trkpt lat="47.56092" lon="6.80176">
        <ele>380</ele>
        <time>2016-10-23T09:30:37.000Z</time>
      </trkpt>
      <trkpt lat="47.5609" lon="6.80178">
        <ele>380</ele>
        <time>2016-10-23T09:30:38.000Z</time>
      </trkpt>
      <trkpt lat="47.56088" lon="6.80181">
        <ele>380</ele>
        <time>2016-10-23T09:30:39.000Z</time>
      </trkpt>
      <trkpt lat="47.56086" lon="6.80183">
        <ele>380</ele>
        <time>2016-10-23T09:30:40.000Z</time>
      </trkpt>
      <trkpt lat="47.56083" lon="6.80185">
        <ele>381</ele>
        <time>2016-10-23T09:30:41.000Z</time>
      </trkpt>
      <trkpt lat="47.5608" lon="6.80187">
        <ele>382</ele>
        <time>2016-10-23T09:30:42.000Z</time>
      </trkpt>
      <trkpt lat="47.56077" lon="6.80189">
        <ele>382</ele>
        <time>2016-10-23T09:30:43.000Z</time>
      </trkpt>
      <trkpt lat="47.56074" lon="6.8019">
        <ele>382</ele>
        <time>2016-10-23T09:30:44.000Z</time>
      </trkpt>
      <trkpt lat="47.56071" lon="6.80192">
        <ele>382</ele>
        <time>2016-10-23T09:30:45.000Z</time>
      </trkpt>
      <trkpt lat="47.56068" lon="6.80193">
        <ele>382</ele>
        <time>2016-10-23T09:30:46.000Z</time>
      </trkpt>
      <trkpt lat="47.56065" lon="6.80195">
        <ele>382</ele>
        <time>2016-10-23T09:30:47.000Z</time>
      </trkpt>
      <trkpt lat="47.56062" lon="6.80196">
        <ele>382</ele>
        <time>2016-10-23T09:30:48.000Z</time>
      </trkpt>
      <trkpt lat="47.56059" lon="6.80198">
        <ele>382</ele>
        <time>2016-10-23T09:30:49.000Z</time>
      </trkpt>
      <trkpt lat="47.56055" lon="6.802">
        <ele>383</ele>
        <time>2016-10-23T09:30:50.000Z</time>
      </trkpt>
      <trkpt lat="47.56052" lon="6.80202">
        <ele>383</ele>
        <time>2016-10-23T09:30:51.000Z</time>
      </trkpt>
      <trkpt lat="47.56049" lon="6.80203">
        <ele>383</ele>
        <time>2016-10-23T09:30:52.000Z</time>
      </trkpt>
      <trkpt lat="47.56046" lon="6.80205">
        <ele>383</ele>
        <time>2016-10-23T09:30:53.000Z</time>
      </trkpt>
      <trkpt lat="47.56042" lon="6.80206">
        <ele>383</ele>
        <time>2016-10-23T09:30:54.000Z</time>
      </trkpt>
      <trkpt lat="47.56039" lon="6.80207">
        <ele>383</ele>
        <time>2016-10-23T09:30:55.000Z</time>
      </trkpt>
      <trkpt lat="47.56036" lon="6.80207">
        <ele>383</ele>
        <time>2016-10-23T09:30:56.000Z</time>
      </trkpt>
      <trkpt lat="47.56032" lon="6.80206">
        <ele>383</ele>
        <time>2016-10-23T09:30:57.000Z</time>
      </trkpt>
      <trkpt lat="47.56029" lon="6.80206">
        <ele>383</ele>
        <time>2016-10-23T09:30:58.000Z</time>
      </trkpt>
      <trkpt lat="47.56025" lon="6.80205">
        <ele>383</ele>
        <time>2016-10-23T09:30:59.000Z</time>
      </trkpt>
      <trkpt lat="47.56022" lon="6.80203">
        <ele>383</ele>
        <time>2016-10-23T09:31:00.000Z</time>
      </trkpt>
      <trkpt lat="47.56019" lon="6.80201">
        <ele>383</ele>
        <time>2016-10-23T09:31:01.000Z</time>
      </trkpt>
      <trkpt lat="47.56016" lon="6.80198">
        <ele>383</ele>
        <time>2016-10-23T09:31:02.000Z</time>
      </trkpt>
      <trkpt lat="47.56014" lon="6.80195">
        <ele>383</ele>
        <time>2016-10-23T09:31:03.000Z</time>
      </trkpt>
      <trkpt lat="47.56012" lon="6.80191">
        <ele>383</ele>
        <time>2016-10-23T09:31:04.000Z</time>
      </trkpt>
      <trkpt lat="47.56011" lon="6.80187">
        <ele>383</ele>
        <time>2016-10-23T09:31:05.000Z</time>
      </trkpt>
      <trkpt lat="47.56011" lon="6.80182">
        <ele>383</ele>
        <time>2016-10-23T09:31:06.000Z</time>
      </trkpt>
      <trkpt lat="47.56011" lon="6.80177">
        <ele>382</ele>
        <time>2016-10-23T09:31:07.000Z</time>
      </trkpt>
      <trkpt lat="47.56012" lon="6.80172">
        <ele>382</ele>
        <time>2016-10-23T09:31:08.000Z</time>
      </trkpt>
      <trkpt lat="47.56013" lon="6.80168">
        <ele>382</ele>
        <time>2016-10-23T09:31:09.000Z</time>
      </trkpt>
      <trkpt lat="47.56014" lon="6.80164">
        <ele>382</ele>
        <time>2016-10-23T09:31:10.000Z</time>
      </trkpt>
      <trkpt lat="47.56015" lon="6.8016">
        <ele>382</ele>
        <time>2016-10-23T09:31:11.000Z</time>
      </trkpt>
      <trkpt lat="47.56016" lon="6.80157">
        <ele>381</ele>
        <time>2016-10-23T09:31:12.000Z</time>
      </trkpt>
      <trkpt lat="47.56016" lon="6.80153">
        <ele>381</ele>
        <time>2016-10-23T09:31:13.000Z</time>
      </trkpt>
      <trkpt lat="47.56017" lon="6.80149">
        <ele>381</ele>
        <time>2016-10-23T09:31:14.000Z</time>
      </trkpt>
      <trkpt lat="47.56019" lon="6.80146">
        <ele>381</ele>
        <time>2016-10-23T09:31:15.000Z</time>
      </trkpt>
      <trkpt lat="47.5602" lon="6.80142">
        <ele>381</ele>
        <time>2016-10-23T09:31:16.000Z</time>
      </trkpt>
      <trkpt lat="47.56021" lon="6.80138">
        <ele>381</ele>
        <time>2016-10-23T09:31:17.000Z</time>
      </trkpt>
      <trkpt lat="47.56022" lon="6.80134">
        <ele>381</ele>
        <time>2016-10-23T09:31:18.000Z</time>
      </trkpt>
      <trkpt lat="47.56023" lon="6.8013">
        <ele>381</ele>
        <time>2016-10-23T09:31:19.000Z</time>
      </trkpt>
      <trkpt lat="47.56024" lon="6.80126">
        <ele>381</ele>
        <time>2016-10-23T09:31:20.000Z</time>
      </trkpt>
      <trkpt lat="47.56025" lon="6.80122">
        <ele>381</ele>
        <time>2016-10-23T09:31:21.000Z</time>
      </trkpt>
      <trkpt lat="47.56026" lon="6.80117">
        <ele>381</ele>
        <time>2016-10-23T09:31:22.000Z</time>
      </trkpt>
      <trkpt lat="47.56026" lon="6.80113">
        <ele>381</ele>
        <time>2016-10-23T09:31:23.000Z</time>
      </trkpt>
      <trkpt lat="47.56027" lon="6.80109">
        <ele>381</ele>
        <time>2016-10-23T09:31:24.000Z</time>
      </trkpt>
      <trkpt lat="47.56027" lon="6.80105">
        <ele>381</ele>
        <time>2016-10-23T09:31:25.000Z</time>
      </trkpt>
      <trkpt lat="47.56027" lon="6.80102">
        <ele>381</ele>
        <time>2016-10-23T09:31:26.000Z</time>
      </trkpt>
      <trkpt lat="47.56027" lon="6.80098">
        <ele>381</ele>
        <time>2016-10-23T09:31:27.000Z</time>
      </trkpt>
      <trkpt lat="47.56027" lon="6.80094">
        <ele>381</ele>
        <time>2016-10-23T09:31:28.000Z</time>
      </trkpt>
      <trkpt lat="47.56027" lon="6.8009">
        <ele>381</ele>
        <time>2016-10-23T09:31:29.000Z</time>
      </trkpt>
      <trkpt lat="47.56027" lon="6.80086">
        <ele>381</ele>
        <time>2016-10-23T09:31:30.000Z</time>
      </trkpt>
      <trkpt lat="47.56026" lon="6.80082">
        <ele>382</ele>
        <time>2016-10-23T09:31:31.000Z</time>
      </trkpt>
      <trkpt lat="47.56026" lon="6.80078">
        <ele>382</ele>
        <time>2016-10-23T09:31:32.000Z</time>
      </trkpt>
      <trkpt lat="47.56026" lon="6.80074">
        <ele>382</ele>
        <time>2016-10-23T09:31:33.000Z</time>
      </trkpt>
      <trkpt lat="47.56027" lon="6.8007">
        <ele>382</ele>
        <time>2016-10-23T09:31:34.000Z</time>
      </trkpt>
      <trkpt lat="47.56027" lon="6.80067">
        <ele>382</ele>
        <time>2016-10-23T09:31:35.000Z</time>
      </trkpt>
      <trkpt lat="47.56026" lon="6.80061">
        <ele>382</ele>
        <time>2016-10-23T09:31:37.000Z</time>
      </trkpt>
      <trkpt lat="47.56026" lon="6.80057">
        <ele>382</ele>
        <time>2016-10-23T09:31:38.000Z</time>
      </trkpt>
      <trkpt lat="47.56026" lon="6.80053">
        <ele>382</ele>
        <time>2016-10-23T09:31:39.000Z</time>
      </trkpt>
      <trkpt lat="47.56027" lon="6.80049">
        <ele>382</ele>
        <time>2016-10-23T09:31:40.000Z</time>
      </trkpt>
      <trkpt lat="47.56027" lon="6.80045">
        <ele>382</ele>
        <time>2016-10-23T09:31:41.000Z</time>
      </trkpt>
      <trkpt lat="47.56028" lon="6.8004">
        <ele>382</ele>
        <time>2016-10-23T09:31:42.000Z</time>
      </trkpt>
      <trkpt lat="47.56028" lon="6.80035">
        <ele>382</ele>
        <time>2016-10-23T09:31:43.000Z</time>
      </trkpt>
      <trkpt lat="47.56029" lon="6.80031">
        <ele>382</ele>
        <time>2016-10-23T09:31:44.000Z</time>
      </trkpt>
      <trkpt lat="47.56029" lon="6.80027">
        <ele>382</ele>
        <time>2016-10-23T09:31:45.000Z</time>
      </trkpt>
      <trkpt lat="47.56029" lon="6.80024">
        <ele>382</ele>
        <time>2016-10-23T09:31:46.000Z</time>
      </trkpt>
      <trkpt lat="47.56027" lon="6.80017">
        <ele>382</ele>
        <time>2016-10-23T09:31:48.000Z</time>
      </trkpt>
      <trkpt lat="47.56026" lon="6.80014">
        <ele>382</ele>
        <time>2016-10-23T09:31:49.000Z</time>
      </trkpt>
      <trkpt lat="47.56026" lon="6.80011">
        <ele>382</ele>
        <time>2016-10-23T09:31:50.000Z</time>
      </trkpt>
      <trkpt lat="47.56026" lon="6.80007">
        <ele>382</ele>
        <time>2016-10-23T09:31:51.000Z</time>
      </trkpt>
      <trkpt lat="47.56026" lon="6.80003">
        <ele>382</ele>
        <time>2016-10-23T09:31:52.000Z</time>
      </trkpt>
      <trkpt lat="47.56026" lon="6.79999">
        <ele>383</ele>
        <time>2016-10-23T09:31:53.000Z</time>
      </trkpt>
      <trkpt lat="47.56027" lon="6.79996">
        <ele>383</ele>
        <time>2016-10-23T09:31:54.000Z</time>
      </trkpt>
      <trkpt lat="47.56027" lon="6.79992">
        <ele>383</ele>
        <time>2016-10-23T09:31:55.000Z</time>
      </trkpt>
      <trkpt lat="47.56026" lon="6.79986">
        <ele>383</ele>
        <time>2016-10-23T09:31:57.000Z</time>
      </trkpt>
      <trkpt lat="47.56026" lon="6.79983">
        <ele>383</ele>
        <time>2016-10-23T09:31:58.000Z</time>
      </trkpt>
      <trkpt lat="47.56026" lon="6.79979">
        <ele>383</ele>
        <time>2016-10-23T09:31:59.000Z</time>
      </trkpt>
      <trkpt lat="47.56026" lon="6.79975">
        <ele>383</ele>
        <time>2016-10-23T09:32:00.000Z</time>
      </trkpt>
      <trkpt lat="47.56026" lon="6.7997">
        <ele>383</ele>
        <time>2016-10-23T09:32:01.000Z</time>
      </trkpt>
      <trkpt lat="47.56026" lon="6.79965">
        <ele>383</ele>
        <time>2016-10-23T09:32:02.000Z</time>
      </trkpt>
      <trkpt lat="47.56026" lon="6.7996">
        <ele>383</ele>
        <time>2016-10-23T09:32:03.000Z</time>
      </trkpt>
      <trkpt lat="47.56026" lon="6.79955">
        <ele>383</ele>
        <time>2016-10-23T09:32:04.000Z</time>
      </trkpt>
      <trkpt lat="47.56026" lon="6.7995">
        <ele>383</ele>
        <time>2016-10-23T09:32:05.000Z</time>
      </trkpt>
      <trkpt lat="47.56026" lon="6.79945">
        <ele>384</ele>
        <time>2016-10-23T09:32:06.000Z</time>
      </trkpt>
      <trkpt lat="47.56026" lon="6.79939">
        <ele>384</ele>
        <time>2016-10-23T09:32:07.000Z</time>
      </trkpt>
      <trkpt lat="47.56026" lon="6.79932">
        <ele>384</ele>
        <time>2016-10-23T09:32:08.000Z</time>
      </trkpt>
      <trkpt lat="47.56026" lon="6.79925">
        <ele>384</ele>
        <time>2016-10-23T09:32:09.000Z</time>
      </trkpt>
      <trkpt lat="47.56026" lon="6.79918">
        <ele>384</ele>
        <time>2016-10-23T09:32:10.000Z</time>
      </trkpt>
      <trkpt lat="47.56025" lon="6.79911">
        <ele>385</ele>
        <time>2016-10-23T09:32:11.000Z</time>
      </trkpt>
      <trkpt lat="47.56025" lon="6.79903">
        <ele>385</ele>
        <time>2016-10-23T09:32:12.000Z</time>
      </trkpt>
      <trkpt lat="47.56024" lon="6.79896">
        <ele>385</ele>
        <time>2016-10-23T09:32:13.000Z</time>
      </trkpt>
      <trkpt lat="47.56023" lon="6.79889">
        <ele>385</ele>
        <time>2016-10-23T09:32:14.000Z</time>
      </trkpt>
      <trkpt lat="47.56023" lon="6.79881">
        <ele>385</ele>
        <time>2016-10-23T09:32:14.999Z</time>
      </trkpt>
      <trkpt lat="47.56022" lon="6.79873">
        <ele>385</ele>
        <time>2016-10-23T09:32:16.000Z</time>
      </trkpt>
      <trkpt lat="47.56022" lon="6.79865">
        <ele>385</ele>
        <time>2016-10-23T09:32:17.000Z</time>
      </trkpt>
      <trkpt lat="47.56021" lon="6.79857">
        <ele>385</ele>
        <time>2016-10-23T09:32:18.000Z</time>
      </trkpt>
      <trkpt lat="47.56021" lon="6.79849">
        <ele>385</ele>
        <time>2016-10-23T09:32:19.000Z</time>
      </trkpt>
      <trkpt lat="47.5602" lon="6.79842">
        <ele>385</ele>
        <time>2016-10-23T09:32:20.000Z</time>
      </trkpt>
      <trkpt lat="47.56019" lon="6.79834">
        <ele>385</ele>
        <time>2016-10-23T09:32:20.999Z</time>
      </trkpt>
      <trkpt lat="47.56019" lon="6.79826">
        <ele>386</ele>
        <time>2016-10-23T09:32:22.000Z</time>
      </trkpt>
      <trkpt lat="47.56018" lon="6.79819">
        <ele>386</ele>
        <time>2016-10-23T09:32:23.000Z</time>
      </trkpt>
      <trkpt lat="47.56017" lon="6.79812">
        <ele>386</ele>
        <time>2016-10-23T09:32:24.000Z</time>
      </trkpt>
      <trkpt lat="47.56016" lon="6.79805">
        <ele>386</ele>
        <time>2016-10-23T09:32:25.000Z</time>
      </trkpt>
      <trkpt lat="47.56015" lon="6.79798">
        <ele>386</ele>
        <time>2016-10-23T09:32:26.000Z</time>
      </trkpt>
      <trkpt lat="47.56013" lon="6.79791">
        <ele>386</ele>
        <time>2016-10-23T09:32:27.000Z</time>
      </trkpt>
      <trkpt lat="47.56013" lon="6.79784">
        <ele>386</ele>
        <time>2016-10-23T09:32:28.000Z</time>
      </trkpt>
      <trkpt lat="47.56012" lon="6.79777">
        <ele>386</ele>
        <time>2016-10-23T09:32:29.000Z</time>
      </trkpt>
      <trkpt lat="47.56011" lon="6.7977">
        <ele>386</ele>
        <time>2016-10-23T09:32:30.000Z</time>
      </trkpt>
      <trkpt lat="47.5601" lon="6.79763">
        <ele>386</ele>
        <time>2016-10-23T09:32:31.000Z</time>
      </trkpt>
      <trkpt lat="47.56009" lon="6.79757">
        <ele>387</ele>
        <time>2016-10-23T09:32:32.000Z</time>
      </trkpt>
      <trkpt lat="47.56008" lon="6.79749">
        <ele>387</ele>
        <time>2016-10-23T09:32:33.000Z</time>
      </trkpt>
      <trkpt lat="47.56006" lon="6.79742">
        <ele>387</ele>
        <time>2016-10-23T09:32:34.000Z</time>
      </trkpt>
      <trkpt lat="47.56004" lon="6.79735">
        <ele>387</ele>
        <time>2016-10-23T09:32:35.000Z</time>
      </trkpt>
      <trkpt lat="47.56001" lon="6.79728">
        <ele>387</ele>
        <time>2016-10-23T09:32:36.000Z</time>
      </trkpt>
      <trkpt lat="47.55997" lon="6.79721">
        <ele>388</ele>
        <time>2016-10-23T09:32:37.000Z</time>
      </trkpt>
      <trkpt lat="47.55993" lon="6.79715">
        <ele>388</ele>
        <time>2016-10-23T09:32:38.000Z</time>
      </trkpt>
      <trkpt lat="47.55989" lon="6.7971">
        <ele>388</ele>
        <time>2016-10-23T09:32:39.000Z</time>
      </trkpt>
      <trkpt lat="47.55984" lon="6.79706">
        <ele>388</ele>
        <time>2016-10-23T09:32:40.000Z</time>
      </trkpt>
      <trkpt lat="47.5598" lon="6.79703">
        <ele>388</ele>
        <time>2016-10-23T09:32:41.000Z</time>
      </trkpt>
      <trkpt lat="47.55975" lon="6.797">
        <ele>388</ele>
        <time>2016-10-23T09:32:42.000Z</time>
      </trkpt>
      <trkpt lat="47.55971" lon="6.79697">
        <ele>388</ele>
        <time>2016-10-23T09:32:43.000Z</time>
      </trkpt>
      <trkpt lat="47.55967" lon="6.79694">
        <ele>388</ele>
        <time>2016-10-23T09:32:44.000Z</time>
      </trkpt>
      <trkpt lat="47.55964" lon="6.79691">
        <ele>388</ele>
        <time>2016-10-23T09:32:45.000Z</time>
      </trkpt>
      <trkpt lat="47.5596" lon="6.79686">
        <ele>388</ele>
        <time>2016-10-23T09:32:46.000Z</time>
      </trkpt>
      <trkpt lat="47.55956" lon="6.79684">
        <ele>388</ele>
        <time>2016-10-23T09:32:47.000Z</time>
      </trkpt>
      <trkpt lat="47.55952" lon="6.79681">
        <ele>388</ele>
        <time>2016-10-23T09:32:48.000Z</time>
      </trkpt>
      <trkpt lat="47.55949" lon="6.79679">
        <ele>388</ele>
        <time>2016-10-23T09:32:49.000Z</time>
      </trkpt>
      <trkpt lat="47.55943" lon="6.79677">
        <ele>388</ele>
        <time>2016-10-23T09:32:50.000Z</time>
      </trkpt>
      <trkpt lat="47.5594" lon="6.79675">
        <ele>388</ele>
        <time>2016-10-23T09:32:51.000Z</time>
      </trkpt>
      <trkpt lat="47.55937" lon="6.79672">
        <ele>388</ele>
        <time>2016-10-23T09:32:52.000Z</time>
      </trkpt>
      <trkpt lat="47.55935" lon="6.79669">
        <ele>388</ele>
        <time>2016-10-23T09:32:53.000Z</time>
      </trkpt>
      <trkpt lat="47.55931" lon="6.79666">
        <ele>388</ele>
        <time>2016-10-23T09:32:54.000Z</time>
      </trkpt>
      <trkpt lat="47.55927" lon="6.79662">
        <ele>388</ele>
        <time>2016-10-23T09:32:55.000Z</time>
      </trkpt>
      <trkpt lat="47.55923" lon="6.79658">
        <ele>388</ele>
        <time>2016-10-23T09:32:56.000Z</time>
      </trkpt>
      <trkpt lat="47.5592" lon="6.79654">
        <ele>388</ele>
        <time>2016-10-23T09:32:57.000Z</time>
      </trkpt>
      <trkpt lat="47.55916" lon="6.79651">
        <ele>388</ele>
        <time>2016-10-23T09:32:58.000Z</time>
      </trkpt>
      <trkpt lat="47.55912" lon="6.79647">
        <ele>388</ele>
        <time>2016-10-23T09:32:59.000Z</time>
      </trkpt>
      <trkpt lat="47.55911" lon="6.79644">
        <ele>388</ele>
        <time>2016-10-23T09:33:00.000Z</time>
      </trkpt>
      <trkpt lat="47.55912" lon="6.7964">
        <ele>388</ele>
        <time>2016-10-23T09:33:01.000Z</time>
      </trkpt>
      <trkpt lat="47.55912" lon="6.79635">
        <ele>388</ele>
        <time>2016-10-23T09:33:02.000Z</time>
      </trkpt>
      <trkpt lat="47.55912" lon="6.79631">
        <ele>389</ele>
        <time>2016-10-23T09:33:02.999Z</time>
      </trkpt>
      <trkpt lat="47.55914" lon="6.79625">
        <ele>389</ele>
        <time>2016-10-23T09:33:04.000Z</time>
      </trkpt>
      <trkpt lat="47.55913" lon="6.7962">
        <ele>389</ele>
        <time>2016-10-23T09:33:05.000Z</time>
      </trkpt>
      <trkpt lat="47.55913" lon="6.79615">
        <ele>389</ele>
        <time>2016-10-23T09:33:06.000Z</time>
      </trkpt>
      <trkpt lat="47.55914" lon="6.79609">
        <ele>389</ele>
        <time>2016-10-23T09:33:07.000Z</time>
      </trkpt>
      <trkpt lat="47.55913" lon="6.79603">
        <ele>389</ele>
        <time>2016-10-23T09:33:07.999Z</time>
      </trkpt>
      <trkpt lat="47.55914" lon="6.79598">
        <ele>389</ele>
        <time>2016-10-23T09:33:09.000Z</time>
      </trkpt>
      <trkpt lat="47.55913" lon="6.79592">
        <ele>389</ele>
        <time>2016-10-23T09:33:10.000Z</time>
      </trkpt>
      <trkpt lat="47.55913" lon="6.79587">
        <ele>389</ele>
        <time>2016-10-23T09:33:11.000Z</time>
      </trkpt>
      <trkpt lat="47.55913" lon="6.79582">
        <ele>389</ele>
        <time>2016-10-23T09:33:12.000Z</time>
      </trkpt>
      <trkpt lat="47.55914" lon="6.79577">
        <ele>390</ele>
        <time>2016-10-23T09:33:13.000Z</time>
      </trkpt>
      <trkpt lat="47.55914" lon="6.79572">
        <ele>390</ele>
        <time>2016-10-23T09:33:14.000Z</time>
      </trkpt>
      <trkpt lat="47.55915" lon="6.79566">
        <ele>391</ele>
        <time>2016-10-23T09:33:15.000Z</time>
      </trkpt>
      <trkpt lat="47.55915" lon="6.79561">
        <ele>391</ele>
        <time>2016-10-23T09:33:16.000Z</time>
      </trkpt>
      <trkpt lat="47.55916" lon="6.79556">
        <ele>391</ele>
        <time>2016-10-23T09:33:17.000Z</time>
      </trkpt>
      <trkpt lat="47.55916" lon="6.79551">
        <ele>392</ele>
        <time>2016-10-23T09:33:18.000Z</time>
      </trkpt>
      <trkpt lat="47.55916" lon="6.79546">
        <ele>392</ele>
        <time>2016-10-23T09:33:19.000Z</time>
      </trkpt>
      <trkpt lat="47.55917" lon="6.79541">
        <ele>392</ele>
        <time>2016-10-23T09:33:20.000Z</time>
      </trkpt>
      <trkpt lat="47.55917" lon="6.79535">
        <ele>393</ele>
        <time>2016-10-23T09:33:21.000Z</time>
      </trkpt>
      <trkpt lat="47.55917" lon="6.79529">
        <ele>393</ele>
        <time>2016-10-23T09:33:22.000Z</time>
      </trkpt>
      <trkpt lat="47.55918" lon="6.79524">
        <ele>393</ele>
        <time>2016-10-23T09:33:23.000Z</time>
      </trkpt>
      <trkpt lat="47.55918" lon="6.79519">
        <ele>393</ele>
        <time>2016-10-23T09:33:24.000Z</time>
      </trkpt>
      <trkpt lat="47.55918" lon="6.79515">
        <ele>393</ele>
        <time>2016-10-23T09:33:25.000Z</time>
      </trkpt>
      <trkpt lat="47.55919" lon="6.79511">
        <ele>394</ele>
        <time>2016-10-23T09:33:26.000Z</time>
      </trkpt>
      <trkpt lat="47.55919" lon="6.79508">
        <ele>394</ele>
        <time>2016-10-23T09:33:27.000Z</time>
      </trkpt>
      <trkpt lat="47.55919" lon="6.79502">
        <ele>394</ele>
        <time>2016-10-23T09:33:29.000Z</time>
      </trkpt>
      <trkpt lat="47.5592" lon="6.79499">
        <ele>394</ele>
        <time>2016-10-23T09:33:30.000Z</time>
      </trkpt>
      <trkpt lat="47.55921" lon="6.79495">
        <ele>394</ele>
        <time>2016-10-23T09:33:31.000Z</time>
      </trkpt>
      <trkpt lat="47.55922" lon="6.79492">
        <ele>394</ele>
        <time>2016-10-23T09:33:32.000Z</time>
      </trkpt>
      <trkpt lat="47.55923" lon="6.79488">
        <ele>395</ele>
        <time>2016-10-23T09:33:33.000Z</time>
      </trkpt>
      <trkpt lat="47.55925" lon="6.79484">
        <ele>395</ele>
        <time>2016-10-23T09:33:34.000Z</time>
      </trkpt>
      <trkpt lat="47.55927" lon="6.79482">
        <ele>395</ele>
        <time>2016-10-23T09:33:35.000Z</time>
      </trkpt>
      <trkpt lat="47.55928" lon="6.79479">
        <ele>395</ele>
        <time>2016-10-23T09:33:36.000Z</time>
      </trkpt>
      <trkpt lat="47.5593" lon="6.79476">
        <ele>395</ele>
        <time>2016-10-23T09:33:37.000Z</time>
      </trkpt>
      <trkpt lat="47.55931" lon="6.79472">
        <ele>395</ele>
        <time>2016-10-23T09:33:38.000Z</time>
      </trkpt>
      <trkpt lat="47.55933" lon="6.79468">
        <ele>395</ele>
        <time>2016-10-23T09:33:39.000Z</time>
      </trkpt>
      <trkpt lat="47.55934" lon="6.79464">
        <ele>395</ele>
        <time>2016-10-23T09:33:40.000Z</time>
      </trkpt>
      <trkpt lat="47.55936" lon="6.7946">
        <ele>395</ele>
        <time>2016-10-23T09:33:41.000Z</time>
      </trkpt>
      <trkpt lat="47.55936" lon="6.79455">
        <ele>395</ele>
        <time>2016-10-23T09:33:42.000Z</time>
      </trkpt>
      <trkpt lat="47.55937" lon="6.79451">
        <ele>395</ele>
        <time>2016-10-23T09:33:43.000Z</time>
      </trkpt>
      <trkpt lat="47.55937" lon="6.79447">
        <ele>395</ele>
        <time>2016-10-23T09:33:44.000Z</time>
      </trkpt>
      <trkpt lat="47.55936" lon="6.79443">
        <ele>395</ele>
        <time>2016-10-23T09:33:45.000Z</time>
      </trkpt>
      <trkpt lat="47.55936" lon="6.79439">
        <ele>395</ele>
        <time>2016-10-23T09:33:46.000Z</time>
      </trkpt>
      <trkpt lat="47.55935" lon="6.79434">
        <ele>395</ele>
        <time>2016-10-23T09:33:47.000Z</time>
      </trkpt>
      <trkpt lat="47.55934" lon="6.7943">
        <ele>395</ele>
        <time>2016-10-23T09:33:48.000Z</time>
      </trkpt>
      <trkpt lat="47.55933" lon="6.79425">
        <ele>395</ele>
        <time>2016-10-23T09:33:49.000Z</time>
      </trkpt>
      <trkpt lat="47.55933" lon="6.79421">
        <ele>395</ele>
        <time>2016-10-23T09:33:50.000Z</time>
      </trkpt>
      <trkpt lat="47.55932" lon="6.79416">
        <ele>396</ele>
        <time>2016-10-23T09:33:51.000Z</time>
      </trkpt>
      <trkpt lat="47.55931" lon="6.79412">
        <ele>396</ele>
        <time>2016-10-23T09:33:52.000Z</time>
      </trkpt>
      <trkpt lat="47.5593" lon="6.79407">
        <ele>396</ele>
        <time>2016-10-23T09:33:53.000Z</time>
      </trkpt>
      <trkpt lat="47.55929" lon="6.79402">
        <ele>396</ele>
        <time>2016-10-23T09:33:54.000Z</time>
      </trkpt>
      <trkpt lat="47.55928" lon="6.79397">
        <ele>396</ele>
        <time>2016-10-23T09:33:55.000Z</time>
      </trkpt>
      <trkpt lat="47.55927" lon="6.79392">
        <ele>396</ele>
        <time>2016-10-23T09:33:56.000Z</time>
      </trkpt>
      <trkpt lat="47.55926" lon="6.79387">
        <ele>396</ele>
        <time>2016-10-23T09:33:57.000Z</time>
      </trkpt>
      <trkpt lat="47.55925" lon="6.79382">
        <ele>396</ele>
        <time>2016-10-23T09:33:58.000Z</time>
      </trkpt>
      <trkpt lat="47.55925" lon="6.79376">
        <ele>396</ele>
        <time>2016-10-23T09:33:59.000Z</time>
      </trkpt>
      <trkpt lat="47.55924" lon="6.79371">
        <ele>396</ele>
        <time>2016-10-23T09:34:00.000Z</time>
      </trkpt>
      <trkpt lat="47.55923" lon="6.79366">
        <ele>396</ele>
        <time>2016-10-23T09:34:01.000Z</time>
      </trkpt>
      <trkpt lat="47.55922" lon="6.7936">
        <ele>396</ele>
        <time>2016-10-23T09:34:02.000Z</time>
      </trkpt>
      <trkpt lat="47.55922" lon="6.79355">
        <ele>396</ele>
        <time>2016-10-23T09:34:02.999Z</time>
      </trkpt>
      <trkpt lat="47.55921" lon="6.79349">
        <ele>396</ele>
        <time>2016-10-23T09:34:04.000Z</time>
      </trkpt>
      <trkpt lat="47.5592" lon="6.79344">
        <ele>396</ele>
        <time>2016-10-23T09:34:05.000Z</time>
      </trkpt>
      <trkpt lat="47.55919" lon="6.79338">
        <ele>396</ele>
        <time>2016-10-23T09:34:06.001Z</time>
      </trkpt>
      <trkpt lat="47.55917" lon="6.79333">
        <ele>396</ele>
        <time>2016-10-23T09:34:07.000Z</time>
      </trkpt>
      <trkpt lat="47.55915" lon="6.79328">
        <ele>396</ele>
        <time>2016-10-23T09:34:08.000Z</time>
      </trkpt>
      <trkpt lat="47.55915" lon="6.79322">
        <ele>396</ele>
        <time>2016-10-23T09:34:09.000Z</time>
      </trkpt>
      <trkpt lat="47.55914" lon="6.79317">
        <ele>396</ele>
        <time>2016-10-23T09:34:10.000Z</time>
      </trkpt>
      <trkpt lat="47.55914" lon="6.79311">
        <ele>397</ele>
        <time>2016-10-23T09:34:11.000Z</time>
      </trkpt>
      <trkpt lat="47.55914" lon="6.79306">
        <ele>397</ele>
        <time>2016-10-23T09:34:12.000Z</time>
      </trkpt>
      <trkpt lat="47.55914" lon="6.793">
        <ele>397</ele>
        <time>2016-10-23T09:34:13.000Z</time>
      </trkpt>
      <trkpt lat="47.55913" lon="6.79295">
        <ele>397</ele>
        <time>2016-10-23T09:34:14.000Z</time>
      </trkpt>
      <trkpt lat="47.55913" lon="6.79289">
        <ele>397</ele>
        <time>2016-10-23T09:34:15.000Z</time>
      </trkpt>
      <trkpt lat="47.55912" lon="6.79283">
        <ele>397</ele>
        <time>2016-10-23T09:34:16.000Z</time>
      </trkpt>
      <trkpt lat="47.55912" lon="6.79277">
        <ele>397</ele>
        <time>2016-10-23T09:34:17.000Z</time>
      </trkpt>
      <trkpt lat="47.55911" lon="6.79271">
        <ele>397</ele>
        <time>2016-10-23T09:34:18.000Z</time>
      </trkpt>
      <trkpt lat="47.5591" lon="6.79265">
        <ele>397</ele>
        <time>2016-10-23T09:34:19.000Z</time>
      </trkpt>
      <trkpt lat="47.55909" lon="6.79259">
        <ele>397</ele>
        <time>2016-10-23T09:34:20.000Z</time>
      </trkpt>
      <trkpt lat="47.55907" lon="6.79252">
        <ele>397</ele>
        <time>2016-10-23T09:34:21.000Z</time>
      </trkpt>
      <trkpt lat="47.55906" lon="6.79246">
        <ele>397</ele>
        <time>2016-10-23T09:34:22.000Z</time>
      </trkpt>
      <trkpt lat="47.55906" lon="6.7924">
        <ele>397</ele>
        <time>2016-10-23T09:34:23.000Z</time>
      </trkpt>
      <trkpt lat="47.55905" lon="6.79234">
        <ele>397</ele>
        <time>2016-10-23T09:34:24.000Z</time>
      </trkpt>
      <trkpt lat="47.55905" lon="6.79228">
        <ele>397</ele>
        <time>2016-10-23T09:34:25.000Z</time>
      </trkpt>
      <trkpt lat="47.55904" lon="6.79222">
        <ele>397</ele>
        <time>2016-10-23T09:34:26.000Z</time>
      </trkpt>
      <trkpt lat="47.55903" lon="6.79216">
        <ele>398</ele>
        <time>2016-10-23T09:34:27.000Z</time>
      </trkpt>
      <trkpt lat="47.55902" lon="6.7921">
        <ele>398</ele>
        <time>2016-10-23T09:34:28.000Z</time>
      </trkpt>
      <trkpt lat="47.55902" lon="6.79203">
        <ele>398</ele>
        <time>2016-10-23T09:34:29.000Z</time>
      </trkpt>
      <trkpt lat="47.55901" lon="6.79197">
        <ele>398</ele>
        <time>2016-10-23T09:34:30.000Z</time>
      </trkpt>
      <trkpt lat="47.559" lon="6.79191">
        <ele>398</ele>
        <time>2016-10-23T09:34:31.000Z</time>
      </trkpt>
      <trkpt lat="47.559" lon="6.79185">
        <ele>397</ele>
        <time>2016-10-23T09:34:32.000Z</time>
      </trkpt>
      <trkpt lat="47.55899" lon="6.79179">
        <ele>397</ele>
        <time>2016-10-23T09:34:33.000Z</time>
      </trkpt>
      <trkpt lat="47.55898" lon="6.79174">
        <ele>397</ele>
        <time>2016-10-23T09:34:34.000Z</time>
      </trkpt>
      <trkpt lat="47.55897" lon="6.79169">
        <ele>397</ele>
        <time>2016-10-23T09:34:35.000Z</time>
      </trkpt>
      <trkpt lat="47.55896" lon="6.79164">
        <ele>396</ele>
        <time>2016-10-23T09:34:36.000Z</time>
      </trkpt>
      <trkpt lat="47.55896" lon="6.79159">
        <ele>396</ele>
        <time>2016-10-23T09:34:37.000Z</time>
      </trkpt>
      <trkpt lat="47.55895" lon="6.79154">
        <ele>396</ele>
        <time>2016-10-23T09:34:38.000Z</time>
      </trkpt>
      <trkpt lat="47.55895" lon="6.79149">
        <ele>396</ele>
        <time>2016-10-23T09:34:39.000Z</time>
      </trkpt>
      <trkpt lat="47.55894" lon="6.79144">
        <ele>396</ele>
        <time>2016-10-23T09:34:40.000Z</time>
      </trkpt>
      <trkpt lat="47.55894" lon="6.79139">
        <ele>396</ele>
        <time>2016-10-23T09:34:41.000Z</time>
      </trkpt>
      <trkpt lat="47.55893" lon="6.79134">
        <ele>396</ele>
        <time>2016-10-23T09:34:42.000Z</time>
      </trkpt>
      <trkpt lat="47.55891" lon="6.79128">
        <ele>396</ele>
        <time>2016-10-23T09:34:43.000Z</time>
      </trkpt>
      <trkpt lat="47.5589" lon="6.79123">
        <ele>395</ele>
        <time>2016-10-23T09:34:44.000Z</time>
      </trkpt>
      <trkpt lat="47.55889" lon="6.79117">
        <ele>395</ele>
        <time>2016-10-23T09:34:45.000Z</time>
      </trkpt>
      <trkpt lat="47.55888" lon="6.7911">
        <ele>395</ele>
        <time>2016-10-23T09:34:46.000Z</time>
      </trkpt>
      <trkpt lat="47.55887" lon="6.79103">
        <ele>395</ele>
        <time>2016-10-23T09:34:47.000Z</time>
      </trkpt>
      <trkpt lat="47.55886" lon="6.79097">
        <ele>395</ele>
        <time>2016-10-23T09:34:48.000Z</time>
      </trkpt>
      <trkpt lat="47.55885" lon="6.7909">
        <ele>394</ele>
        <time>2016-10-23T09:34:49.000Z</time>
      </trkpt>
      <trkpt lat="47.55884" lon="6.79083">
        <ele>391</ele>
        <time>2016-10-23T09:34:50.000Z</time>
      </trkpt>
      <trkpt lat="47.55882" lon="6.79076">
        <ele>391</ele>
        <time>2016-10-23T09:34:51.000Z</time>
      </trkpt>
      <trkpt lat="47.5588" lon="6.79069">
        <ele>391</ele>
        <time>2016-10-23T09:34:52.000Z</time>
      </trkpt>
      <trkpt lat="47.55879" lon="6.79061">
        <ele>391</ele>
        <time>2016-10-23T09:34:53.000Z</time>
      </trkpt>
      <trkpt lat="47.55877" lon="6.79054">
        <ele>391</ele>
        <time>2016-10-23T09:34:54.000Z</time>
      </trkpt>
      <trkpt lat="47.55875" lon="6.79045">
        <ele>391</ele>
        <time>2016-10-23T09:34:55.000Z</time>
      </trkpt>
      <trkpt lat="47.55874" lon="6.79037">
        <ele>390</ele>
        <time>2016-10-23T09:34:56.000Z</time>
      </trkpt>
      <trkpt lat="47.55872" lon="6.79029">
        <ele>390</ele>
        <time>2016-10-23T09:34:57.000Z</time>
      </trkpt>
      <trkpt lat="47.5587" lon="6.7902">
        <ele>390</ele>
        <time>2016-10-23T09:34:58.000Z</time>
      </trkpt>
      <trkpt lat="47.55868" lon="6.79012">
        <ele>390</ele>
        <time>2016-10-23T09:34:59.000Z</time>
      </trkpt>
      <trkpt lat="47.55865" lon="6.79002">
        <ele>390</ele>
        <time>2016-10-23T09:35:00.000Z</time>
      </trkpt>
      <trkpt lat="47.55863" lon="6.78992">
        <ele>386</ele>
        <time>2016-10-23T09:35:01.000Z</time>
      </trkpt>
      <trkpt lat="47.55861" lon="6.78982">
        <ele>386</ele>
        <time>2016-10-23T09:35:02.000Z</time>
      </trkpt>
      <trkpt lat="47.55858" lon="6.78971">
        <ele>386</ele>
        <time>2016-10-23T09:35:03.000Z</time>
      </trkpt>
      <trkpt lat="47.55856" lon="6.7896">
        <ele>385</ele>
        <time>2016-10-23T09:35:04.000Z</time>
      </trkpt>
      <trkpt lat="47.55854" lon="6.78949">
        <ele>385</ele>
        <time>2016-10-23T09:35:05.000Z</time>
      </trkpt>
      <trkpt lat="47.55851" lon="6.78936">
        <ele>384</ele>
        <time>2016-10-23T09:35:06.000Z</time>
      </trkpt>
      <trkpt lat="47.55848" lon="6.78923">
        <ele>383</ele>
        <time>2016-10-23T09:35:07.000Z</time>
      </trkpt>
      <trkpt lat="47.55845" lon="6.7891">
        <ele>381</ele>
        <time>2016-10-23T09:35:08.000Z</time>
      </trkpt>
      <trkpt lat="47.55841" lon="6.78897">
        <ele>381</ele>
        <time>2016-10-23T09:35:09.000Z</time>
      </trkpt>
      <trkpt lat="47.55838" lon="6.78884">
        <ele>380</ele>
        <time>2016-10-23T09:35:10.000Z</time>
      </trkpt>
      <trkpt lat="47.55835" lon="6.7887">
        <ele>379</ele>
        <time>2016-10-23T09:35:11.000Z</time>
      </trkpt>
      <trkpt lat="47.55832" lon="6.78856">
        <ele>379</ele>
        <time>2016-10-23T09:35:12.000Z</time>
      </trkpt>
      <trkpt lat="47.55829" lon="6.78842">
        <ele>377</ele>
        <time>2016-10-23T09:35:13.000Z</time>
      </trkpt>
      <trkpt lat="47.55826" lon="6.78828">
        <ele>375</ele>
        <time>2016-10-23T09:35:14.000Z</time>
      </trkpt>
      <trkpt lat="47.55824" lon="6.78814">
        <ele>375</ele>
        <time>2016-10-23T09:35:15.000Z</time>
      </trkpt>
      <trkpt lat="47.55821" lon="6.788">
        <ele>375</ele>
        <time>2016-10-23T09:35:16.000Z</time>
      </trkpt>
      <trkpt lat="47.55817" lon="6.78787">
        <ele>375</ele>
        <time>2016-10-23T09:35:17.000Z</time>
      </trkpt>
      <trkpt lat="47.55815" lon="6.78774">
        <ele>374</ele>
        <time>2016-10-23T09:35:18.000Z</time>
      </trkpt>
      <trkpt lat="47.55813" lon="6.78761">
        <ele>374</ele>
        <time>2016-10-23T09:35:19.000Z</time>
      </trkpt>
      <trkpt lat="47.55811" lon="6.78748">
        <ele>371</ele>
        <time>2016-10-23T09:35:20.000Z</time>
      </trkpt>
      <trkpt lat="47.5581" lon="6.78736">
        <ele>371</ele>
        <time>2016-10-23T09:35:21.000Z</time>
      </trkpt>
      <trkpt lat="47.5581" lon="6.78724">
        <ele>371</ele>
        <time>2016-10-23T09:35:22.000Z</time>
      </trkpt>
      <trkpt lat="47.55809" lon="6.78713">
        <ele>371</ele>
        <time>2016-10-23T09:35:23.000Z</time>
      </trkpt>
      <trkpt lat="47.55809" lon="6.78702">
        <ele>371</ele>
        <time>2016-10-23T09:35:24.000Z</time>
      </trkpt>
      <trkpt lat="47.55809" lon="6.78692">
        <ele>371</ele>
        <time>2016-10-23T09:35:25.000Z</time>
      </trkpt>
      <trkpt lat="47.55809" lon="6.78684">
        <ele>371</ele>
        <time>2016-10-23T09:35:26.000Z</time>
      </trkpt>
      <trkpt lat="47.55808" lon="6.78676">
        <ele>371</ele>
        <time>2016-10-23T09:35:27.000Z</time>
      </trkpt>
      <trkpt lat="47.55806" lon="6.7867">
        <ele>371</ele>
        <time>2016-10-23T09:35:28.000Z</time>
      </trkpt>
      <trkpt lat="47.558" lon="6.78667">
        <ele>371</ele>
        <time>2016-10-23T09:35:29.000Z</time>
      </trkpt>
      <trkpt lat="47.55795" lon="6.78667">
        <ele>371</ele>
        <time>2016-10-23T09:35:30.000Z</time>
      </trkpt>
      <trkpt lat="47.55791" lon="6.78667">
        <ele>368</ele>
        <time>2016-10-23T09:35:31.000Z</time>
      </trkpt>
      <trkpt lat="47.55787" lon="6.78666">
        <ele>368</ele>
        <time>2016-10-23T09:35:32.000Z</time>
      </trkpt>
      <trkpt lat="47.55784" lon="6.78665">
        <ele>368</ele>
        <time>2016-10-23T09:35:33.000Z</time>
      </trkpt>
      <trkpt lat="47.5578" lon="6.78663">
        <ele>368</ele>
        <time>2016-10-23T09:35:34.000Z</time>
      </trkpt>
      <trkpt lat="47.55776" lon="6.78663">
        <ele>368</ele>
        <time>2016-10-23T09:35:35.000Z</time>
      </trkpt>
      <trkpt lat="47.55773" lon="6.78661">
        <ele>368</ele>
        <time>2016-10-23T09:35:36.000Z</time>
      </trkpt>
      <trkpt lat="47.55769" lon="6.78661">
        <ele>368</ele>
        <time>2016-10-23T09:35:37.000Z</time>
      </trkpt>
      <trkpt lat="47.55766" lon="6.7866">
        <ele>368</ele>
        <time>2016-10-23T09:35:38.000Z</time>
      </trkpt>
      <trkpt lat="47.55763" lon="6.78658">
        <ele>368</ele>
        <time>2016-10-23T09:35:39.000Z</time>
      </trkpt>
      <trkpt lat="47.55759" lon="6.78656">
        <ele>368</ele>
        <time>2016-10-23T09:35:41.000Z</time>
      </trkpt>
      <trkpt lat="47.55757" lon="6.78655">
        <ele>368</ele>
        <time>2016-10-23T09:35:42.000Z</time>
      </trkpt>
      <trkpt lat="47.55754" lon="6.78654">
        <ele>368</ele>
        <time>2016-10-23T09:35:43.000Z</time>
      </trkpt>
      <trkpt lat="47.55751" lon="6.78654">
        <ele>368</ele>
        <time>2016-10-23T09:35:44.000Z</time>
      </trkpt>
      <trkpt lat="47.55747" lon="6.78654">
        <ele>368</ele>
        <time>2016-10-23T09:35:45.000Z</time>
      </trkpt>
      <trkpt lat="47.55743" lon="6.78655">
        <ele>368</ele>
        <time>2016-10-23T09:35:46.000Z</time>
      </trkpt>
      <trkpt lat="47.55739" lon="6.78655">
        <ele>368</ele>
        <time>2016-10-23T09:35:47.000Z</time>
      </trkpt>
      <trkpt lat="47.55734" lon="6.78654">
        <ele>368</ele>
        <time>2016-10-23T09:35:48.000Z</time>
      </trkpt>
      <trkpt lat="47.55731" lon="6.78652">
        <ele>368</ele>
        <time>2016-10-23T09:35:49.000Z</time>
      </trkpt>
      <trkpt lat="47.55727" lon="6.78652">
        <ele>368</ele>
        <time>2016-10-23T09:35:50.000Z</time>
      </trkpt>
      <trkpt lat="47.55724" lon="6.78652">
        <ele>368</ele>
        <time>2016-10-23T09:35:51.000Z</time>
      </trkpt>
      <trkpt lat="47.5572" lon="6.78652">
        <ele>368</ele>
        <time>2016-10-23T09:35:52.000Z</time>
      </trkpt>
      <trkpt lat="47.55717" lon="6.78652">
        <ele>368</ele>
        <time>2016-10-23T09:35:53.000Z</time>
      </trkpt>
      <trkpt lat="47.55714" lon="6.78652">
        <ele>368</ele>
        <time>2016-10-23T09:35:54.000Z</time>
      </trkpt>
      <trkpt lat="47.55711" lon="6.78653">
        <ele>369</ele>
        <time>2016-10-23T09:35:55.000Z</time>
      </trkpt>
      <trkpt lat="47.55707" lon="6.78652">
        <ele>369</ele>
        <time>2016-10-23T09:35:56.000Z</time>
      </trkpt>
      <trkpt lat="47.55704" lon="6.78652">
        <ele>369</ele>
        <time>2016-10-23T09:35:57.000Z</time>
      </trkpt>
      <trkpt lat="47.557" lon="6.78652">
        <ele>369</ele>
        <time>2016-10-23T09:35:58.000Z</time>
      </trkpt>
      <trkpt lat="47.55697" lon="6.78651">
        <ele>369</ele>
        <time>2016-10-23T09:35:59.000Z</time>
      </trkpt>
      <trkpt lat="47.55693" lon="6.78652">
        <ele>370</ele>
        <time>2016-10-23T09:36:00.000Z</time>
      </trkpt>
      <trkpt lat="47.55689" lon="6.78653">
        <ele>370</ele>
        <time>2016-10-23T09:36:01.000Z</time>
      </trkpt>
      <trkpt lat="47.55686" lon="6.78654">
        <ele>370</ele>
        <time>2016-10-23T09:36:02.000Z</time>
      </trkpt>
      <trkpt lat="47.55683" lon="6.78655">
        <ele>371</ele>
        <time>2016-10-23T09:36:03.000Z</time>
      </trkpt>
      <trkpt lat="47.55681" lon="6.78655">
        <ele>371</ele>
        <time>2016-10-23T09:36:04.000Z</time>
      </trkpt>
      <trkpt lat="47.55678" lon="6.78655">
        <ele>371</ele>
        <time>2016-10-23T09:36:05.000Z</time>
      </trkpt>
      <trkpt lat="47.55676" lon="6.78655">
        <ele>372</ele>
        <time>2016-10-23T09:36:06.000Z</time>
      </trkpt>
      <trkpt lat="47.55673" lon="6.78655">
        <ele>372</ele>
        <time>2016-10-23T09:36:07.000Z</time>
      </trkpt>
      <trkpt lat="47.55671" lon="6.78655">
        <ele>372</ele>
        <time>2016-10-23T09:36:08.000Z</time>
      </trkpt>
      <trkpt lat="47.55668" lon="6.78655">
        <ele>372</ele>
        <time>2016-10-23T09:36:09.000Z</time>
      </trkpt>
      <trkpt lat="47.55664" lon="6.78655">
        <ele>374</ele>
        <time>2016-10-23T09:36:10.000Z</time>
      </trkpt>
      <trkpt lat="47.55661" lon="6.78655">
        <ele>374</ele>
        <time>2016-10-23T09:36:11.000Z</time>
      </trkpt>
      <trkpt lat="47.55658" lon="6.78654">
        <ele>374</ele>
        <time>2016-10-23T09:36:12.000Z</time>
      </trkpt>
      <trkpt lat="47.55654" lon="6.78654">
        <ele>374</ele>
        <time>2016-10-23T09:36:13.000Z</time>
      </trkpt>
      <trkpt lat="47.5565" lon="6.78653">
        <ele>373</ele>
        <time>2016-10-23T09:36:14.000Z</time>
      </trkpt>
      <trkpt lat="47.55647" lon="6.78653">
        <ele>373</ele>
        <time>2016-10-23T09:36:15.000Z</time>
      </trkpt>
      <trkpt lat="47.55643" lon="6.78653">
        <ele>373</ele>
        <time>2016-10-23T09:36:16.000Z</time>
      </trkpt>
      <trkpt lat="47.5564" lon="6.78653">
        <ele>373</ele>
        <time>2016-10-23T09:36:17.000Z</time>
      </trkpt>
      <trkpt lat="47.55636" lon="6.78654">
        <ele>373</ele>
        <time>2016-10-23T09:36:18.000Z</time>
      </trkpt>
      <trkpt lat="47.55633" lon="6.78654">
        <ele>373</ele>
        <time>2016-10-23T09:36:19.000Z</time>
      </trkpt>
      <trkpt lat="47.5563" lon="6.78655">
        <ele>373</ele>
        <time>2016-10-23T09:36:20.000Z</time>
      </trkpt>
      <trkpt lat="47.55627" lon="6.78656">
        <ele>374</ele>
        <time>2016-10-23T09:36:21.000Z</time>
      </trkpt>
      <trkpt lat="47.55624" lon="6.78656">
        <ele>374</ele>
        <time>2016-10-23T09:36:22.000Z</time>
      </trkpt>
      <trkpt lat="47.5562" lon="6.78657">
        <ele>374</ele>
        <time>2016-10-23T09:36:23.000Z</time>
      </trkpt>
      <trkpt lat="47.55617" lon="6.78657">
        <ele>374</ele>
        <time>2016-10-23T09:36:24.000Z</time>
      </trkpt>
      <trkpt lat="47.55615" lon="6.78658">
        <ele>374</ele>
        <time>2016-10-23T09:36:25.000Z</time>
      </trkpt>
      <trkpt lat="47.55612" lon="6.78658">
        <ele>374</ele>
        <time>2016-10-23T09:36:26.000Z</time>
      </trkpt>
      <trkpt lat="47.55609" lon="6.78658">
        <ele>374</ele>
        <time>2016-10-23T09:36:27.000Z</time>
      </trkpt>
      <trkpt lat="47.55606" lon="6.78658">
        <ele>375</ele>
        <time>2016-10-23T09:36:28.000Z</time>
      </trkpt>
      <trkpt lat="47.55603" lon="6.78658">
        <ele>375</ele>
        <time>2016-10-23T09:36:29.000Z</time>
      </trkpt>
      <trkpt lat="47.55601" lon="6.78659">
        <ele>375</ele>
        <time>2016-10-23T09:36:30.000Z</time>
      </trkpt>
      <trkpt lat="47.55597" lon="6.78659">
        <ele>375</ele>
        <time>2016-10-23T09:36:31.998Z</time>
      </trkpt>
      <trkpt lat="47.55596" lon="6.78659">
        <ele>376</ele>
        <time>2016-10-23T09:36:33.000Z</time>
      </trkpt>
      <trkpt lat="47.55593" lon="6.78659">
        <ele>376</ele>
        <time>2016-10-23T09:36:35.000Z</time>
      </trkpt>
      <trkpt lat="47.55591" lon="6.7866">
        <ele>376</ele>
        <time>2016-10-23T09:36:36.000Z</time>
      </trkpt>
      <trkpt lat="47.55588" lon="6.7866">
        <ele>376</ele>
        <time>2016-10-23T09:36:37.000Z</time>
      </trkpt>
      <trkpt lat="47.55585" lon="6.7866">
        <ele>377</ele>
        <time>2016-10-23T09:36:38.000Z</time>
      </trkpt>
      <trkpt lat="47.55582" lon="6.78661">
        <ele>377</ele>
        <time>2016-10-23T09:36:38.999Z</time>
      </trkpt>
      <trkpt lat="47.55578" lon="6.7866">
        <ele>377</ele>
        <time>2016-10-23T09:36:40.000Z</time>
      </trkpt>
      <trkpt lat="47.55574" lon="6.7866">
        <ele>377</ele>
        <time>2016-10-23T09:36:41.000Z</time>
      </trkpt>
      <trkpt lat="47.55571" lon="6.7866">
        <ele>377</ele>
        <time>2016-10-23T09:36:42.000Z</time>
      </trkpt>
      <trkpt lat="47.55567" lon="6.7866">
        <ele>376</ele>
        <time>2016-10-23T09:36:43.000Z</time>
      </trkpt>
      <trkpt lat="47.55564" lon="6.78661">
        <ele>376</ele>
        <time>2016-10-23T09:36:44.000Z</time>
      </trkpt>
      <trkpt lat="47.55561" lon="6.78662">
        <ele>376</ele>
        <time>2016-10-23T09:36:45.000Z</time>
      </trkpt>
      <trkpt lat="47.55558" lon="6.78662">
        <ele>376</ele>
        <time>2016-10-23T09:36:46.000Z</time>
      </trkpt>
      <trkpt lat="47.55555" lon="6.78663">
        <ele>376</ele>
        <time>2016-10-23T09:36:47.000Z</time>
      </trkpt>
      <trkpt lat="47.55552" lon="6.78663">
        <ele>376</ele>
        <time>2016-10-23T09:36:48.000Z</time>
      </trkpt>
      <trkpt lat="47.55548" lon="6.78663">
        <ele>376</ele>
        <time>2016-10-23T09:36:49.000Z</time>
      </trkpt>
      <trkpt lat="47.55544" lon="6.78663">
        <ele>376</ele>
        <time>2016-10-23T09:36:49.999Z</time>
      </trkpt>
      <trkpt lat="47.5554" lon="6.78663">
        <ele>376</ele>
        <time>2016-10-23T09:36:51.000Z</time>
      </trkpt>
      <trkpt lat="47.55537" lon="6.78663">
        <ele>376</ele>
        <time>2016-10-23T09:36:52.000Z</time>
      </trkpt>
      <trkpt lat="47.55534" lon="6.78663">
        <ele>376</ele>
        <time>2016-10-23T09:36:53.000Z</time>
      </trkpt>
      <trkpt lat="47.5553" lon="6.78664">
        <ele>376</ele>
        <time>2016-10-23T09:36:54.000Z</time>
      </trkpt>
      <trkpt lat="47.55527" lon="6.78663">
        <ele>376</ele>
        <time>2016-10-23T09:36:55.000Z</time>
      </trkpt>
      <trkpt lat="47.55523" lon="6.78663">
        <ele>376</ele>
        <time>2016-10-23T09:36:56.000Z</time>
      </trkpt>
      <trkpt lat="47.5552" lon="6.78662">
        <ele>376</ele>
        <time>2016-10-23T09:36:57.000Z</time>
      </trkpt>
      <trkpt lat="47.55517" lon="6.78661">
        <ele>376</ele>
        <time>2016-10-23T09:36:58.000Z</time>
      </trkpt>
      <trkpt lat="47.55513" lon="6.7866">
        <ele>376</ele>
        <time>2016-10-23T09:36:59.000Z</time>
      </trkpt>
      <trkpt lat="47.5551" lon="6.78659">
        <ele>377</ele>
        <time>2016-10-23T09:37:00.000Z</time>
      </trkpt>
      <trkpt lat="47.55503" lon="6.78656">
        <ele>377</ele>
        <time>2016-10-23T09:37:01.000Z</time>
      </trkpt>
      <trkpt lat="47.55498" lon="6.78654">
        <ele>376</ele>
        <time>2016-10-23T09:37:02.000Z</time>
      </trkpt>
      <trkpt lat="47.55493" lon="6.78652">
        <ele>375</ele>
        <time>2016-10-23T09:37:03.000Z</time>
      </trkpt>
      <trkpt lat="47.55488" lon="6.78652">
        <ele>375</ele>
        <time>2016-10-23T09:37:04.000Z</time>
      </trkpt>
      <trkpt lat="47.55485" lon="6.78654">
        <ele>375</ele>
        <time>2016-10-23T09:37:05.000Z</time>
      </trkpt>
      <trkpt lat="47.5548" lon="6.78653">
        <ele>374</ele>
        <time>2016-10-23T09:37:06.000Z</time>
      </trkpt>
      <trkpt lat="47.55476" lon="6.78653">
        <ele>374</ele>
        <time>2016-10-23T09:37:07.000Z</time>
      </trkpt>
      <trkpt lat="47.55472" lon="6.78654">
        <ele>374</ele>
        <time>2016-10-23T09:37:08.000Z</time>
      </trkpt>
      <trkpt lat="47.55468" lon="6.78656">
        <ele>373</ele>
        <time>2016-10-23T09:37:09.000Z</time>
      </trkpt>
      <trkpt lat="47.55463" lon="6.7866">
        <ele>373</ele>
        <time>2016-10-23T09:37:10.000Z</time>
      </trkpt>
      <trkpt lat="47.55459" lon="6.78663">
        <ele>373</ele>
        <time>2016-10-23T09:37:11.000Z</time>
      </trkpt>
      <trkpt lat="47.55454" lon="6.78665">
        <ele>373</ele>
        <time>2016-10-23T09:37:12.000Z</time>
      </trkpt>
      <trkpt lat="47.55449" lon="6.78668">
        <ele>376</ele>
        <time>2016-10-23T09:37:13.000Z</time>
      </trkpt>
      <trkpt lat="47.55445" lon="6.7867">
        <ele>375</ele>
        <time>2016-10-23T09:37:14.000Z</time>
      </trkpt>
      <trkpt lat="47.55439" lon="6.78675">
        <ele>375</ele>
        <time>2016-10-23T09:37:15.000Z</time>
      </trkpt>
      <trkpt lat="47.55434" lon="6.78679">
        <ele>375</ele>
        <time>2016-10-23T09:37:16.000Z</time>
      </trkpt>
      <trkpt lat="47.55429" lon="6.78682">
        <ele>375</ele>
        <time>2016-10-23T09:37:17.000Z</time>
      </trkpt>
      <trkpt lat="47.55425" lon="6.78687">
        <ele>375</ele>
        <time>2016-10-23T09:37:18.000Z</time>
      </trkpt>
      <trkpt lat="47.55419" lon="6.7869">
        <ele>375</ele>
        <time>2016-10-23T09:37:19.000Z</time>
      </trkpt>
      <trkpt lat="47.55413" lon="6.78693">
        <ele>371</ele>
        <time>2016-10-23T09:37:20.000Z</time>
      </trkpt>
      <trkpt lat="47.55408" lon="6.78697">
        <ele>371</ele>
        <time>2016-10-23T09:37:21.000Z</time>
      </trkpt>
      <trkpt lat="47.55402" lon="6.787">
        <ele>371</ele>
        <time>2016-10-23T09:37:22.000Z</time>
      </trkpt>
      <trkpt lat="47.55397" lon="6.78702">
        <ele>371</ele>
        <time>2016-10-23T09:37:23.000Z</time>
      </trkpt>
      <trkpt lat="47.5539" lon="6.78705">
        <ele>371</ele>
        <time>2016-10-23T09:37:24.000Z</time>
      </trkpt>
      <trkpt lat="47.55382" lon="6.78707">
        <ele>370</ele>
        <time>2016-10-23T09:37:25.000Z</time>
      </trkpt>
      <trkpt lat="47.55375" lon="6.78711">
        <ele>370</ele>
        <time>2016-10-23T09:37:26.000Z</time>
      </trkpt>
      <trkpt lat="47.55368" lon="6.78714">
        <ele>370</ele>
        <time>2016-10-23T09:37:27.000Z</time>
      </trkpt>
      <trkpt lat="47.55361" lon="6.78717">
        <ele>370</ele>
        <time>2016-10-23T09:37:28.000Z</time>
      </trkpt>
      <trkpt lat="47.55354" lon="6.78719">
        <ele>370</ele>
        <time>2016-10-23T09:37:29.000Z</time>
      </trkpt>
      <trkpt lat="47.55346" lon="6.78722">
        <ele>370</ele>
        <time>2016-10-23T09:37:30.000Z</time>
      </trkpt>
      <trkpt lat="47.55338" lon="6.78727">
        <ele>370</ele>
        <time>2016-10-23T09:37:31.000Z</time>
      </trkpt>
      <trkpt lat="47.55329" lon="6.78731">
        <ele>366</ele>
        <time>2016-10-23T09:37:32.000Z</time>
      </trkpt>
      <trkpt lat="47.55321" lon="6.78736">
        <ele>366</ele>
        <time>2016-10-23T09:37:33.000Z</time>
      </trkpt>
      <trkpt lat="47.5532" lon="6.78741">
        <ele>367</ele>
        <time>2016-10-23T09:37:34.000Z</time>
      </trkpt>
      <trkpt lat="47.55314" lon="6.78747">
        <ele>366</ele>
        <time>2016-10-23T09:37:35.000Z</time>
      </trkpt>
      <trkpt lat="47.55308" lon="6.78753">
        <ele>368</ele>
        <time>2016-10-23T09:37:36.000Z</time>
      </trkpt>
      <trkpt lat="47.553" lon="6.78756">
        <ele>367</ele>
        <time>2016-10-23T09:37:37.000Z</time>
      </trkpt>
      <trkpt lat="47.55294" lon="6.78762">
        <ele>366</ele>
        <time>2016-10-23T09:37:38.000Z</time>
      </trkpt>
      <trkpt lat="47.55288" lon="6.78766">
        <ele>366</ele>
        <time>2016-10-23T09:37:39.000Z</time>
      </trkpt>
      <trkpt lat="47.55281" lon="6.78771">
        <ele>366</ele>
        <time>2016-10-23T09:37:40.000Z</time>
      </trkpt>
      <trkpt lat="47.55275" lon="6.78775">
        <ele>365</ele>
        <time>2016-10-23T09:37:41.000Z</time>
      </trkpt>
      <trkpt lat="47.55268" lon="6.78777">
        <ele>365</ele>
        <time>2016-10-23T09:37:42.000Z</time>
      </trkpt>
      <trkpt lat="47.5526" lon="6.78778">
        <ele>365</ele>
        <time>2016-10-23T09:37:43.000Z</time>
      </trkpt>
      <trkpt lat="47.55253" lon="6.78779">
        <ele>365</ele>
        <time>2016-10-23T09:37:44.000Z</time>
      </trkpt>
      <trkpt lat="47.55245" lon="6.78778">
        <ele>360</ele>
        <time>2016-10-23T09:37:45.000Z</time>
      </trkpt>
      <trkpt lat="47.55237" lon="6.78776">
        <ele>360</ele>
        <time>2016-10-23T09:37:46.000Z</time>
      </trkpt>
      <trkpt lat="47.55227" lon="6.78773">
        <ele>360</ele>
        <time>2016-10-23T09:37:47.000Z</time>
      </trkpt>
      <trkpt lat="47.55218" lon="6.7877">
        <ele>359</ele>
        <time>2016-10-23T09:37:48.000Z</time>
      </trkpt>
      <trkpt lat="47.5521" lon="6.78765">
        <ele>359</ele>
        <time>2016-10-23T09:37:49.000Z</time>
      </trkpt>
      <trkpt lat="47.55202" lon="6.78759">
        <ele>358</ele>
        <time>2016-10-23T09:37:50.000Z</time>
      </trkpt>
      <trkpt lat="47.55194" lon="6.78753">
        <ele>358</ele>
        <time>2016-10-23T09:37:51.000Z</time>
      </trkpt>
      <trkpt lat="47.55187" lon="6.78745">
        <ele>356</ele>
        <time>2016-10-23T09:37:52.000Z</time>
      </trkpt>
      <trkpt lat="47.55177" lon="6.78737">
        <ele>355</ele>
        <time>2016-10-23T09:37:53.000Z</time>
      </trkpt>
      <trkpt lat="47.55169" lon="6.78729">
        <ele>355</ele>
        <time>2016-10-23T09:37:54.000Z</time>
      </trkpt>
      <trkpt lat="47.5516" lon="6.78724">
        <ele>353</ele>
        <time>2016-10-23T09:37:55.000Z</time>
      </trkpt>
      <trkpt lat="47.55151" lon="6.78718">
        <ele>352</ele>
        <time>2016-10-23T09:37:56.000Z</time>
      </trkpt>
      <trkpt lat="47.55142" lon="6.78712">
        <ele>352</ele>
        <time>2016-10-23T09:37:57.000Z</time>
      </trkpt>
      <trkpt lat="47.55133" lon="6.78707">
        <ele>351</ele>
        <time>2016-10-23T09:37:58.000Z</time>
      </trkpt>
      <trkpt lat="47.55124" lon="6.78702">
        <ele>351</ele>
        <time>2016-10-23T09:37:59.000Z</time>
      </trkpt>
      <trkpt lat="47.55114" lon="6.78697">
        <ele>351</ele>
        <time>2016-10-23T09:38:00.000Z</time>
      </trkpt>
      <trkpt lat="47.55106" lon="6.78693">
        <ele>350</ele>
        <time>2016-10-23T09:38:01.000Z</time>
      </trkpt>
      <trkpt lat="47.55097" lon="6.78688">
        <ele>350</ele>
        <time>2016-10-23T09:38:02.000Z</time>
      </trkpt>
      <trkpt lat="47.55089" lon="6.78683">
        <ele>350</ele>
        <time>2016-10-23T09:38:03.000Z</time>
      </trkpt>
      <trkpt lat="47.5508" lon="6.78677">
        <ele>348</ele>
        <time>2016-10-23T09:38:04.000Z</time>
      </trkpt>
      <trkpt lat="47.55072" lon="6.78672">
        <ele>348</ele>
        <time>2016-10-23T09:38:05.000Z</time>
      </trkpt>
      <trkpt lat="47.55063" lon="6.78667">
        <ele>348</ele>
        <time>2016-10-23T09:38:06.000Z</time>
      </trkpt>
      <trkpt lat="47.55055" lon="6.7866">
        <ele>348</ele>
        <time>2016-10-23T09:38:07.000Z</time>
      </trkpt>
      <trkpt lat="47.55047" lon="6.78656">
        <ele>347</ele>
        <time>2016-10-23T09:38:08.000Z</time>
      </trkpt>
      <trkpt lat="47.55039" lon="6.78652">
        <ele>347</ele>
        <time>2016-10-23T09:38:09.000Z</time>
      </trkpt>
      <trkpt lat="47.55031" lon="6.7865">
        <ele>347</ele>
        <time>2016-10-23T09:38:09.999Z</time>
      </trkpt>
      <trkpt lat="47.55024" lon="6.78644">
        <ele>347</ele>
        <time>2016-10-23T09:38:11.000Z</time>
      </trkpt>
      <trkpt lat="47.55018" lon="6.78641">
        <ele>347</ele>
        <time>2016-10-23T09:38:12.000Z</time>
      </trkpt>
      <trkpt lat="47.55013" lon="6.78638">
        <ele>347</ele>
        <time>2016-10-23T09:38:13.000Z</time>
      </trkpt>
      <trkpt lat="47.55008" lon="6.78634">
        <ele>347</ele>
        <time>2016-10-23T09:38:14.000Z</time>
      </trkpt>
      <trkpt lat="47.55002" lon="6.78629">
        <ele>347</ele>
        <time>2016-10-23T09:38:15.000Z</time>
      </trkpt>
      <trkpt lat="47.54995" lon="6.78626">
        <ele>347</ele>
        <time>2016-10-23T09:38:16.000Z</time>
      </trkpt>
      <trkpt lat="47.54991" lon="6.78624">
        <ele>347</ele>
        <time>2016-10-23T09:38:17.000Z</time>
      </trkpt>
      <trkpt lat="47.54986" lon="6.78619">
        <ele>347</ele>
        <time>2016-10-23T09:38:18.000Z</time>
      </trkpt>
      <trkpt lat="47.54981" lon="6.78615">
        <ele>347</ele>
        <time>2016-10-23T09:38:19.000Z</time>
      </trkpt>
      <trkpt lat="47.54976" lon="6.7861">
        <ele>346</ele>
        <time>2016-10-23T09:38:20.000Z</time>
      </trkpt>
      <trkpt lat="47.54972" lon="6.78605">
        <ele>346</ele>
        <time>2016-10-23T09:38:21.000Z</time>
      </trkpt>
      <trkpt lat="47.54969" lon="6.78599">
        <ele>346</ele>
        <time>2016-10-23T09:38:22.000Z</time>
      </trkpt>
      <trkpt lat="47.54965" lon="6.78594">
        <ele>346</ele>
        <time>2016-10-23T09:38:23.000Z</time>
      </trkpt>
      <trkpt lat="47.54961" lon="6.78587">
        <ele>346</ele>
        <time>2016-10-23T09:38:24.000Z</time>
      </trkpt>
      <trkpt lat="47.54957" lon="6.78582">
        <ele>344</ele>
        <time>2016-10-23T09:38:25.000Z</time>
      </trkpt>
      <trkpt lat="47.54952" lon="6.78575">
        <ele>344</ele>
        <time>2016-10-23T09:38:26.000Z</time>
      </trkpt>
      <trkpt lat="47.54947" lon="6.7857">
        <ele>344</ele>
        <time>2016-10-23T09:38:27.000Z</time>
      </trkpt>
      <trkpt lat="47.54943" lon="6.78563">
        <ele>344</ele>
        <time>2016-10-23T09:38:28.000Z</time>
      </trkpt>
      <trkpt lat="47.54939" lon="6.78556">
        <ele>344</ele>
        <time>2016-10-23T09:38:29.000Z</time>
      </trkpt>
      <trkpt lat="47.54935" lon="6.78549">
        <ele>343</ele>
        <time>2016-10-23T09:38:30.000Z</time>
      </trkpt>
      <trkpt lat="47.54932" lon="6.78543">
        <ele>343</ele>
        <time>2016-10-23T09:38:31.000Z</time>
      </trkpt>
      <trkpt lat="47.54929" lon="6.78536">
        <ele>343</ele>
        <time>2016-10-23T09:38:32.000Z</time>
      </trkpt>
      <trkpt lat="47.54924" lon="6.78529">
        <ele>342</ele>
        <time>2016-10-23T09:38:33.000Z</time>
      </trkpt>
      <trkpt lat="47.54919" lon="6.78522">
        <ele>342</ele>
        <time>2016-10-23T09:38:34.000Z</time>
      </trkpt>
      <trkpt lat="47.54913" lon="6.78515">
        <ele>340</ele>
        <time>2016-10-23T09:38:35.000Z</time>
      </trkpt>
      <trkpt lat="47.54907" lon="6.78511">
        <ele>340</ele>
        <time>2016-10-23T09:38:36.001Z</time>
      </trkpt>
      <trkpt lat="47.54902" lon="6.78506">
        <ele>340</ele>
        <time>2016-10-23T09:38:37.000Z</time>
      </trkpt>
      <trkpt lat="47.54896" lon="6.78501">
        <ele>339</ele>
        <time>2016-10-23T09:38:38.000Z</time>
      </trkpt>
      <trkpt lat="47.54888" lon="6.78499">
        <ele>335</ele>
        <time>2016-10-23T09:38:39.000Z</time>
      </trkpt>
      <trkpt lat="47.5488" lon="6.78495">
        <ele>334</ele>
        <time>2016-10-23T09:38:40.000Z</time>
      </trkpt>
      <trkpt lat="47.54872" lon="6.78494">
        <ele>334</ele>
        <time>2016-10-23T09:38:41.000Z</time>
      </trkpt>
      <trkpt lat="47.54867" lon="6.78492">
        <ele>334</ele>
        <time>2016-10-23T09:38:42.000Z</time>
      </trkpt>
      <trkpt lat="47.5486" lon="6.78492">
        <ele>334</ele>
        <time>2016-10-23T09:38:43.000Z</time>
      </trkpt>
      <trkpt lat="47.54852" lon="6.78493">
        <ele>334</ele>
        <time>2016-10-23T09:38:44.000Z</time>
      </trkpt>
      <trkpt lat="47.54845" lon="6.78494">
        <ele>335</ele>
        <time>2016-10-23T09:38:45.000Z</time>
      </trkpt>
      <trkpt lat="47.54833" lon="6.78495">
        <ele>335</ele>
        <time>2016-10-23T09:38:46.000Z</time>
      </trkpt>
      <trkpt lat="47.54823" lon="6.78496">
        <ele>333</ele>
        <time>2016-10-23T09:38:47.000Z</time>
      </trkpt>
      <trkpt lat="47.54812" lon="6.78497">
        <ele>332</ele>
        <time>2016-10-23T09:38:48.000Z</time>
      </trkpt>
      <trkpt lat="47.54801" lon="6.78496">
        <ele>331</ele>
        <time>2016-10-23T09:38:49.000Z</time>
      </trkpt>
      <trkpt lat="47.54791" lon="6.78496">
        <ele>330</ele>
        <time>2016-10-23T09:38:50.001Z</time>
      </trkpt>
      <trkpt lat="47.54777" lon="6.78495">
        <ele>329</ele>
        <time>2016-10-23T09:38:51.000Z</time>
      </trkpt>
      <trkpt lat="47.54767" lon="6.78498">
        <ele>329</ele>
        <time>2016-10-23T09:38:52.000Z</time>
      </trkpt>
      <trkpt lat="47.54757" lon="6.78501">
        <ele>331</ele>
        <time>2016-10-23T09:38:53.000Z</time>
      </trkpt>
      <trkpt lat="47.54747" lon="6.78503">
        <ele>329</ele>
        <time>2016-10-23T09:38:54.000Z</time>
      </trkpt>
      <trkpt lat="47.54738" lon="6.7851">
        <ele>329</ele>
        <time>2016-10-23T09:38:55.000Z</time>
      </trkpt>
      <trkpt lat="47.5473" lon="6.7852">
        <ele>329</ele>
        <time>2016-10-23T09:38:56.000Z</time>
      </trkpt>
      <trkpt lat="47.54721" lon="6.78527">
        <ele>329</ele>
        <time>2016-10-23T09:38:57.000Z</time>
      </trkpt>
      <trkpt lat="47.54715" lon="6.78537">
        <ele>329</ele>
        <time>2016-10-23T09:38:58.000Z</time>
      </trkpt>
      <trkpt lat="47.54707" lon="6.78544">
        <ele>329</ele>
        <time>2016-10-23T09:38:59.000Z</time>
      </trkpt>
      <trkpt lat="47.547" lon="6.78551">
        <ele>328</ele>
        <time>2016-10-23T09:39:00.000Z</time>
      </trkpt>
      <trkpt lat="47.54696" lon="6.78556">
        <ele>328</ele>
        <time>2016-10-23T09:39:01.000Z</time>
      </trkpt>
      <trkpt lat="47.5469" lon="6.78562">
        <ele>328</ele>
        <time>2016-10-23T09:39:02.001Z</time>
      </trkpt>
      <trkpt lat="47.54685" lon="6.78568">
        <ele>328</ele>
        <time>2016-10-23T09:39:03.000Z</time>
      </trkpt>
      <trkpt lat="47.5468" lon="6.7857">
        <ele>327</ele>
        <time>2016-10-23T09:39:04.000Z</time>
      </trkpt>
      <trkpt lat="47.54674" lon="6.7857">
        <ele>327</ele>
        <time>2016-10-23T09:39:05.000Z</time>
      </trkpt>
      <trkpt lat="47.5467" lon="6.78568">
        <ele>327</ele>
        <time>2016-10-23T09:39:06.000Z</time>
      </trkpt>
      <trkpt lat="47.54665" lon="6.78563">
        <ele>326</ele>
        <time>2016-10-23T09:39:07.000Z</time>
      </trkpt>
      <trkpt lat="47.54663" lon="6.78557">
        <ele>325</ele>
        <time>2016-10-23T09:39:08.000Z</time>
      </trkpt>
      <trkpt lat="47.5466" lon="6.7855">
        <ele>325</ele>
        <time>2016-10-23T09:39:09.000Z</time>
      </trkpt>
      <trkpt lat="47.54656" lon="6.78545">
        <ele>325</ele>
        <time>2016-10-23T09:39:10.000Z</time>
      </trkpt>
      <trkpt lat="47.54653" lon="6.78538">
        <ele>325</ele>
        <time>2016-10-23T09:39:11.000Z</time>
      </trkpt>
      <trkpt lat="47.54649" lon="6.78532">
        <ele>325</ele>
        <time>2016-10-23T09:39:11.999Z</time>
      </trkpt>
      <trkpt lat="47.54644" lon="6.78529">
        <ele>325</ele>
        <time>2016-10-23T09:39:13.000Z</time>
      </trkpt>
      <trkpt lat="47.54639" lon="6.78524">
        <ele>325</ele>
        <time>2016-10-23T09:39:14.000Z</time>
      </trkpt>
      <trkpt lat="47.54635" lon="6.78518">
        <ele>325</ele>
        <time>2016-10-23T09:39:15.000Z</time>
      </trkpt>
      <trkpt lat="47.54631" lon="6.78514">
        <ele>325</ele>
        <time>2016-10-23T09:39:16.000Z</time>
      </trkpt>
      <trkpt lat="47.54628" lon="6.7851">
        <ele>325</ele>
        <time>2016-10-23T09:39:17.000Z</time>
      </trkpt>
      <trkpt lat="47.54627" lon="6.78503">
        <ele>325</ele>
        <time>2016-10-23T09:39:18.000Z</time>
      </trkpt>
      <trkpt lat="47.5463" lon="6.78498">
        <ele>323</ele>
        <time>2016-10-23T09:39:19.000Z</time>
      </trkpt>
      <trkpt lat="47.54631" lon="6.78491">
        <ele>323</ele>
        <time>2016-10-23T09:39:20.000Z</time>
      </trkpt>
      <trkpt lat="47.54631" lon="6.78484">
        <ele>323</ele>
        <time>2016-10-23T09:39:21.000Z</time>
      </trkpt>
      <trkpt lat="47.54633" lon="6.78477">
        <ele>323</ele>
        <time>2016-10-23T09:39:22.000Z</time>
      </trkpt>
      <trkpt lat="47.54634" lon="6.7847">
        <ele>323</ele>
        <time>2016-10-23T09:39:23.000Z</time>
      </trkpt>
      <trkpt lat="47.54635" lon="6.78461">
        <ele>323</ele>
        <time>2016-10-23T09:39:23.999Z</time>
      </trkpt>
      <trkpt lat="47.54637" lon="6.78452">
        <ele>323</ele>
        <time>2016-10-23T09:39:25.000Z</time>
      </trkpt>
      <trkpt lat="47.54638" lon="6.78443">
        <ele>323</ele>
        <time>2016-10-23T09:39:25.999Z</time>
      </trkpt>
      <trkpt lat="47.54641" lon="6.78435">
        <ele>323</ele>
        <time>2016-10-23T09:39:27.000Z</time>
      </trkpt>
      <trkpt lat="47.54643" lon="6.78427">
        <ele>323</ele>
        <time>2016-10-23T09:39:28.000Z</time>
      </trkpt>
      <trkpt lat="47.54646" lon="6.78419">
        <ele>323</ele>
        <time>2016-10-23T09:39:29.000Z</time>
      </trkpt>
      <trkpt lat="47.54649" lon="6.78411">
        <ele>322</ele>
        <time>2016-10-23T09:39:30.000Z</time>
      </trkpt>
      <trkpt lat="47.54652" lon="6.78406">
        <ele>322</ele>
        <time>2016-10-23T09:39:31.000Z</time>
      </trkpt>
      <trkpt lat="47.54656" lon="6.78401">
        <ele>322</ele>
        <time>2016-10-23T09:39:32.000Z</time>
      </trkpt>
      <trkpt lat="47.54662" lon="6.78395">
        <ele>322</ele>
        <time>2016-10-23T09:39:33.000Z</time>
      </trkpt>
      <trkpt lat="47.54668" lon="6.78389">
        <ele>322</ele>
        <time>2016-10-23T09:39:34.000Z</time>
      </trkpt>
      <trkpt lat="47.54672" lon="6.78385">
        <ele>322</ele>
        <time>2016-10-23T09:39:35.000Z</time>
      </trkpt>
      <trkpt lat="47.54677" lon="6.7838">
        <ele>322</ele>
        <time>2016-10-23T09:39:36.000Z</time>
      </trkpt>
      <trkpt lat="47.54681" lon="6.78375">
        <ele>322</ele>
        <time>2016-10-23T09:39:37.000Z</time>
      </trkpt>
      <trkpt lat="47.54684" lon="6.78369">
        <ele>322</ele>
        <time>2016-10-23T09:39:38.000Z</time>
      </trkpt>
      <trkpt lat="47.54688" lon="6.78364">
        <ele>322</ele>
        <time>2016-10-23T09:39:39.000Z</time>
      </trkpt>
      <trkpt lat="47.54691" lon="6.78358">
        <ele>322</ele>
        <time>2016-10-23T09:39:40.000Z</time>
      </trkpt>
      <trkpt lat="47.54694" lon="6.78352">
        <ele>322</ele>
        <time>2016-10-23T09:39:41.000Z</time>
      </trkpt>
      <trkpt lat="47.54698" lon="6.78344">
        <ele>322</ele>
        <time>2016-10-23T09:39:42.000Z</time>
      </trkpt>
      <trkpt lat="47.547" lon="6.78336">
        <ele>322</ele>
        <time>2016-10-23T09:39:43.000Z</time>
      </trkpt>
      <trkpt lat="47.54703" lon="6.78328">
        <ele>321</ele>
        <time>2016-10-23T09:39:44.000Z</time>
      </trkpt>
      <trkpt lat="47.54705" lon="6.7832">
        <ele>321</ele>
        <time>2016-10-23T09:39:45.000Z</time>
      </trkpt>
      <trkpt lat="47.54708" lon="6.78311">
        <ele>321</ele>
        <time>2016-10-23T09:39:46.000Z</time>
      </trkpt>
      <trkpt lat="47.54711" lon="6.78303">
        <ele>321</ele>
        <time>2016-10-23T09:39:47.000Z</time>
      </trkpt>
      <trkpt lat="47.54713" lon="6.78296">
        <ele>321</ele>
        <time>2016-10-23T09:39:48.000Z</time>
      </trkpt>
      <trkpt lat="47.54715" lon="6.78288">
        <ele>321</ele>
        <time>2016-10-23T09:39:49.000Z</time>
      </trkpt>
      <trkpt lat="47.54718" lon="6.78282">
        <ele>321</ele>
        <time>2016-10-23T09:39:50.000Z</time>
      </trkpt>
      <trkpt lat="47.5472" lon="6.78275">
        <ele>321</ele>
        <time>2016-10-23T09:39:51.000Z</time>
      </trkpt>
      <trkpt lat="47.54723" lon="6.78269">
        <ele>321</ele>
        <time>2016-10-23T09:39:52.000Z</time>
      </trkpt>
      <trkpt lat="47.54725" lon="6.7826">
        <ele>321</ele>
        <time>2016-10-23T09:39:53.000Z</time>
      </trkpt>
      <trkpt lat="47.54726" lon="6.78253">
        <ele>321</ele>
        <time>2016-10-23T09:39:54.000Z</time>
      </trkpt>
      <trkpt lat="47.54729" lon="6.78245">
        <ele>321</ele>
        <time>2016-10-23T09:39:55.000Z</time>
      </trkpt>
      <trkpt lat="47.54731" lon="6.7824">
        <ele>321</ele>
        <time>2016-10-23T09:39:56.000Z</time>
      </trkpt>
      <trkpt lat="47.54735" lon="6.78232">
        <ele>321</ele>
        <time>2016-10-23T09:39:57.000Z</time>
      </trkpt>
      <trkpt lat="47.54737" lon="6.78224">
        <ele>321</ele>
        <time>2016-10-23T09:39:58.000Z</time>
      </trkpt>
      <trkpt lat="47.5474" lon="6.78216">
        <ele>321</ele>
        <time>2016-10-23T09:39:59.000Z</time>
      </trkpt>
      <trkpt lat="47.54743" lon="6.78209">
        <ele>321</ele>
        <time>2016-10-23T09:40:00.000Z</time>
      </trkpt>
      <trkpt lat="47.54745" lon="6.78202">
        <ele>321</ele>
        <time>2016-10-23T09:40:01.000Z</time>
      </trkpt>
      <trkpt lat="47.54748" lon="6.78193">
        <ele>321</ele>
        <time>2016-10-23T09:40:02.000Z</time>
      </trkpt>
      <trkpt lat="47.54751" lon="6.78186">
        <ele>322</ele>
        <time>2016-10-23T09:40:03.000Z</time>
      </trkpt>
      <trkpt lat="47.54754" lon="6.7818">
        <ele>321</ele>
        <time>2016-10-23T09:40:04.000Z</time>
      </trkpt>
      <trkpt lat="47.54756" lon="6.78173">
        <ele>321</ele>
        <time>2016-10-23T09:40:05.000Z</time>
      </trkpt>
      <trkpt lat="47.54759" lon="6.78167">
        <ele>322</ele>
        <time>2016-10-23T09:40:06.000Z</time>
      </trkpt>
      <trkpt lat="47.54761" lon="6.7816">
        <ele>322</ele>
        <time>2016-10-23T09:40:07.000Z</time>
      </trkpt>
      <trkpt lat="47.54763" lon="6.78152">
        <ele>323</ele>
        <time>2016-10-23T09:40:08.000Z</time>
      </trkpt>
      <trkpt lat="47.54765" lon="6.78145">
        <ele>323</ele>
        <time>2016-10-23T09:40:09.000Z</time>
      </trkpt>
      <trkpt lat="47.54767" lon="6.78138">
        <ele>323</ele>
        <time>2016-10-23T09:40:10.000Z</time>
      </trkpt>
      <trkpt lat="47.54768" lon="6.78132">
        <ele>323</ele>
        <time>2016-10-23T09:40:11.000Z</time>
      </trkpt>
      <trkpt lat="47.5477" lon="6.78125">
        <ele>323</ele>
        <time>2016-10-23T09:40:12.000Z</time>
      </trkpt>
      <trkpt lat="47.54772" lon="6.78118">
        <ele>324</ele>
        <time>2016-10-23T09:40:13.000Z</time>
      </trkpt>
      <trkpt lat="47.54772" lon="6.78111">
        <ele>324</ele>
        <time>2016-10-23T09:40:14.000Z</time>
      </trkpt>
      <trkpt lat="47.54775" lon="6.78105">
        <ele>324</ele>
        <time>2016-10-23T09:40:15.000Z</time>
      </trkpt>
      <trkpt lat="47.54777" lon="6.78099">
        <ele>324</ele>
        <time>2016-10-23T09:40:15.999Z</time>
      </trkpt>
      <trkpt lat="47.54779" lon="6.78092">
        <ele>324</ele>
        <time>2016-10-23T09:40:17.000Z</time>
      </trkpt>
      <trkpt lat="47.54779" lon="6.78087">
        <ele>324</ele>
        <time>2016-10-23T09:40:18.000Z</time>
      </trkpt>
      <trkpt lat="47.54782" lon="6.7808">
        <ele>326</ele>
        <time>2016-10-23T09:40:19.000Z</time>
      </trkpt>
      <trkpt lat="47.54783" lon="6.78072">
        <ele>326</ele>
        <time>2016-10-23T09:40:20.000Z</time>
      </trkpt>
      <trkpt lat="47.54784" lon="6.78065">
        <ele>326</ele>
        <time>2016-10-23T09:40:21.000Z</time>
      </trkpt>
      <trkpt lat="47.54785" lon="6.78058">
        <ele>326</ele>
        <time>2016-10-23T09:40:22.000Z</time>
      </trkpt>
      <trkpt lat="47.54785" lon="6.78052">
        <ele>326</ele>
        <time>2016-10-23T09:40:23.000Z</time>
      </trkpt>
      <trkpt lat="47.54785" lon="6.78046">
        <ele>326</ele>
        <time>2016-10-23T09:40:24.000Z</time>
      </trkpt>
      <trkpt lat="47.54785" lon="6.7804">
        <ele>327</ele>
        <time>2016-10-23T09:40:25.000Z</time>
      </trkpt>
      <trkpt lat="47.54784" lon="6.78034">
        <ele>327</ele>
        <time>2016-10-23T09:40:26.000Z</time>
      </trkpt>
      <trkpt lat="47.54784" lon="6.78028">
        <ele>327</ele>
        <time>2016-10-23T09:40:27.000Z</time>
      </trkpt>
      <trkpt lat="47.54784" lon="6.78023">
        <ele>327</ele>
        <time>2016-10-23T09:40:28.000Z</time>
      </trkpt>
      <trkpt lat="47.54785" lon="6.78018">
        <ele>327</ele>
        <time>2016-10-23T09:40:29.000Z</time>
      </trkpt>
      <trkpt lat="47.54785" lon="6.78013">
        <ele>327</ele>
        <time>2016-10-23T09:40:29.999Z</time>
      </trkpt>
      <trkpt lat="47.54785" lon="6.78009">
        <ele>327</ele>
        <time>2016-10-23T09:40:31.002Z</time>
      </trkpt>
      <trkpt lat="47.54786" lon="6.78005">
        <ele>327</ele>
        <time>2016-10-23T09:40:32.000Z</time>
      </trkpt>
      <trkpt lat="47.54785" lon="6.78">
        <ele>331</ele>
        <time>2016-10-23T09:40:34.000Z</time>
      </trkpt>
      <trkpt lat="47.54783" lon="6.77997">
        <ele>331</ele>
        <time>2016-10-23T09:40:35.000Z</time>
      </trkpt>
      <trkpt lat="47.54781" lon="6.77996">
        <ele>331</ele>
        <time>2016-10-23T09:40:36.000Z</time>
      </trkpt>
      <trkpt lat="47.54779" lon="6.77995">
        <ele>331</ele>
        <time>2016-10-23T09:40:36.999Z</time>
      </trkpt>
      <trkpt lat="47.54775" lon="6.77997">
        <ele>331</ele>
        <time>2016-10-23T09:40:38.000Z</time>
      </trkpt>
      <trkpt lat="47.54771" lon="6.77998">
        <ele>331</ele>
        <time>2016-10-23T09:40:39.000Z</time>
      </trkpt>
      <trkpt lat="47.54768" lon="6.77999">
        <ele>330</ele>
        <time>2016-10-23T09:40:39.999Z</time>
      </trkpt>
      <trkpt lat="47.54763" lon="6.78001">
        <ele>328</ele>
        <time>2016-10-23T09:40:41.000Z</time>
      </trkpt>
      <trkpt lat="47.54756" lon="6.78004">
        <ele>328</ele>
        <time>2016-10-23T09:40:42.000Z</time>
      </trkpt>
      <trkpt lat="47.54752" lon="6.78006">
        <ele>328</ele>
        <time>2016-10-23T09:40:43.000Z</time>
      </trkpt>
      <trkpt lat="47.54748" lon="6.78007">
        <ele>328</ele>
        <time>2016-10-23T09:40:44.000Z</time>
      </trkpt>
      <trkpt lat="47.54744" lon="6.78009">
        <ele>328</ele>
        <time>2016-10-23T09:40:45.000Z</time>
      </trkpt>
      <trkpt lat="47.5474" lon="6.78011">
        <ele>328</ele>
        <time>2016-10-23T09:40:46.000Z</time>
      </trkpt>
      <trkpt lat="47.54737" lon="6.78013">
        <ele>328</ele>
        <time>2016-10-23T09:40:47.000Z</time>
      </trkpt>
      <trkpt lat="47.54731" lon="6.78015">
        <ele>328</ele>
        <time>2016-10-23T09:40:48.000Z</time>
      </trkpt>
      <trkpt lat="47.54727" lon="6.78017">
        <ele>328</ele>
        <time>2016-10-23T09:40:49.000Z</time>
      </trkpt>
      <trkpt lat="47.54723" lon="6.78018">
        <ele>328</ele>
        <time>2016-10-23T09:40:50.000Z</time>
      </trkpt>
      <trkpt lat="47.54717" lon="6.78021">
        <ele>328</ele>
        <time>2016-10-23T09:40:51.000Z</time>
      </trkpt>
      <trkpt lat="47.54713" lon="6.78023">
        <ele>328</ele>
        <time>2016-10-23T09:40:52.000Z</time>
      </trkpt>
      <trkpt lat="47.54709" lon="6.78026">
        <ele>327</ele>
        <time>2016-10-23T09:40:53.000Z</time>
      </trkpt>
      <trkpt lat="47.54705" lon="6.7803">
        <ele>327</ele>
        <time>2016-10-23T09:40:54.000Z</time>
      </trkpt>
      <trkpt lat="47.547" lon="6.78032">
        <ele>327</ele>
        <time>2016-10-23T09:40:55.000Z</time>
      </trkpt>
      <trkpt lat="47.54696" lon="6.78034">
        <ele>327</ele>
        <time>2016-10-23T09:40:56.000Z</time>
      </trkpt>
      <trkpt lat="47.54691" lon="6.78036">
        <ele>327</ele>
        <time>2016-10-23T09:40:57.000Z</time>
      </trkpt>
      <trkpt lat="47.54687" lon="6.78035">
        <ele>327</ele>
        <time>2016-10-23T09:40:58.000Z</time>
      </trkpt>
      <trkpt lat="47.54682" lon="6.78035">
        <ele>327</ele>
        <time>2016-10-23T09:40:59.000Z</time>
      </trkpt>
      <trkpt lat="47.54678" lon="6.78035">
        <ele>327</ele>
        <time>2016-10-23T09:41:00.000Z</time>
      </trkpt>
      <trkpt lat="47.54674" lon="6.78036">
        <ele>327</ele>
        <time>2016-10-23T09:41:01.000Z</time>
      </trkpt>
      <trkpt lat="47.5467" lon="6.78036">
        <ele>327</ele>
        <time>2016-10-23T09:41:02.000Z</time>
      </trkpt>
      <trkpt lat="47.54667" lon="6.78035">
        <ele>327</ele>
        <time>2016-10-23T09:41:03.000Z</time>
      </trkpt>
      <trkpt lat="47.54663" lon="6.78036">
        <ele>327</ele>
        <time>2016-10-23T09:41:04.000Z</time>
      </trkpt>
      <trkpt lat="47.5466" lon="6.78035">
        <ele>327</ele>
        <time>2016-10-23T09:41:05.000Z</time>
      </trkpt>
      <trkpt lat="47.54657" lon="6.78034">
        <ele>327</ele>
        <time>2016-10-23T09:41:06.000Z</time>
      </trkpt>
      <trkpt lat="47.54653" lon="6.78031">
        <ele>328</ele>
        <time>2016-10-23T09:41:07.000Z</time>
      </trkpt>
      <trkpt lat="47.54649" lon="6.7803">
        <ele>328</ele>
        <time>2016-10-23T09:41:08.000Z</time>
      </trkpt>
      <trkpt lat="47.54646" lon="6.78029">
        <ele>328</ele>
        <time>2016-10-23T09:41:09.000Z</time>
      </trkpt>
      <trkpt lat="47.54642" lon="6.78027">
        <ele>328</ele>
        <time>2016-10-23T09:41:10.000Z</time>
      </trkpt>
      <trkpt lat="47.54639" lon="6.78026">
        <ele>328</ele>
        <time>2016-10-23T09:41:11.000Z</time>
      </trkpt>
      <trkpt lat="47.54635" lon="6.78024">
        <ele>328</ele>
        <time>2016-10-23T09:41:12.000Z</time>
      </trkpt>
      <trkpt lat="47.5463" lon="6.78023">
        <ele>328</ele>
        <time>2016-10-23T09:41:13.000Z</time>
      </trkpt>
      <trkpt lat="47.54626" lon="6.78021">
        <ele>327</ele>
        <time>2016-10-23T09:41:14.000Z</time>
      </trkpt>
      <trkpt lat="47.54621" lon="6.78019">
        <ele>327</ele>
        <time>2016-10-23T09:41:15.001Z</time>
      </trkpt>
      <trkpt lat="47.54617" lon="6.78018">
        <ele>327</ele>
        <time>2016-10-23T09:41:16.000Z</time>
      </trkpt>
      <trkpt lat="47.54612" lon="6.78016">
        <ele>327</ele>
        <time>2016-10-23T09:41:17.000Z</time>
      </trkpt>
      <trkpt lat="47.54608" lon="6.78014">
        <ele>327</ele>
        <time>2016-10-23T09:41:18.000Z</time>
      </trkpt>
      <trkpt lat="47.54604" lon="6.78012">
        <ele>328</ele>
        <time>2016-10-23T09:41:19.000Z</time>
      </trkpt>
      <trkpt lat="47.546" lon="6.7801">
        <ele>328</ele>
        <time>2016-10-23T09:41:20.000Z</time>
      </trkpt>
      <trkpt lat="47.54596" lon="6.7801">
        <ele>328</ele>
        <time>2016-10-23T09:41:21.000Z</time>
      </trkpt>
      <trkpt lat="47.54591" lon="6.78009">
        <ele>328</ele>
        <time>2016-10-23T09:41:22.000Z</time>
      </trkpt>
      <trkpt lat="47.54586" lon="6.78008">
        <ele>328</ele>
        <time>2016-10-23T09:41:23.000Z</time>
      </trkpt>
      <trkpt lat="47.54582" lon="6.78007">
        <ele>327</ele>
        <time>2016-10-23T09:41:24.000Z</time>
      </trkpt>
      <trkpt lat="47.54577" lon="6.78006">
        <ele>327</ele>
        <time>2016-10-23T09:41:25.000Z</time>
      </trkpt>
      <trkpt lat="47.54573" lon="6.78007">
        <ele>327</ele>
        <time>2016-10-23T09:41:26.000Z</time>
      </trkpt>
      <trkpt lat="47.54569" lon="6.78006">
        <ele>327</ele>
        <time>2016-10-23T09:41:27.001Z</time>
      </trkpt>
      <trkpt lat="47.54563" lon="6.78004">
        <ele>326</ele>
        <time>2016-10-23T09:41:28.000Z</time>
      </trkpt>
      <trkpt lat="47.54559" lon="6.78004">
        <ele>326</ele>
        <time>2016-10-23T09:41:29.000Z</time>
      </trkpt>
      <trkpt lat="47.54553" lon="6.78003">
        <ele>326</ele>
        <time>2016-10-23T09:41:30.000Z</time>
      </trkpt>
      <trkpt lat="47.54548" lon="6.78002">
        <ele>326</ele>
        <time>2016-10-23T09:41:31.000Z</time>
      </trkpt>
      <trkpt lat="47.54543" lon="6.78002">
        <ele>326</ele>
        <time>2016-10-23T09:41:32.000Z</time>
      </trkpt>
      <trkpt lat="47.54538" lon="6.78001">
        <ele>325</ele>
        <time>2016-10-23T09:41:33.000Z</time>
      </trkpt>
      <trkpt lat="47.54534" lon="6.78">
        <ele>325</ele>
        <time>2016-10-23T09:41:34.000Z</time>
      </trkpt>
      <trkpt lat="47.54527" lon="6.78002">
        <ele>325</ele>
        <time>2016-10-23T09:41:35.000Z</time>
      </trkpt>
      <trkpt lat="47.54522" lon="6.78001">
        <ele>325</ele>
        <time>2016-10-23T09:41:36.001Z</time>
      </trkpt>
      <trkpt lat="47.54518" lon="6.78001">
        <ele>325</ele>
        <time>2016-10-23T09:41:37.000Z</time>
      </trkpt>
      <trkpt lat="47.54514" lon="6.78">
        <ele>325</ele>
        <time>2016-10-23T09:41:38.000Z</time>
      </trkpt>
      <trkpt lat="47.54508" lon="6.77998">
        <ele>326</ele>
        <time>2016-10-23T09:41:39.000Z</time>
      </trkpt>
      <trkpt lat="47.54504" lon="6.77999">
        <ele>326</ele>
        <time>2016-10-23T09:41:40.000Z</time>
      </trkpt>
      <trkpt lat="47.54499" lon="6.77998">
        <ele>325</ele>
        <time>2016-10-23T09:41:41.001Z</time>
      </trkpt>
      <trkpt lat="47.54492" lon="6.77995">
        <ele>325</ele>
        <time>2016-10-23T09:41:42.000Z</time>
      </trkpt>
      <trkpt lat="47.54486" lon="6.77995">
        <ele>326</ele>
        <time>2016-10-23T09:41:43.000Z</time>
      </trkpt>
      <trkpt lat="47.54481" lon="6.77994">
        <ele>326</ele>
        <time>2016-10-23T09:41:43.999Z</time>
      </trkpt>
      <trkpt lat="47.54477" lon="6.77995">
        <ele>326</ele>
        <time>2016-10-23T09:41:45.000Z</time>
      </trkpt>
      <trkpt lat="47.54472" lon="6.77997">
        <ele>326</ele>
        <time>2016-10-23T09:41:46.000Z</time>
      </trkpt>
      <trkpt lat="47.54468" lon="6.77996">
        <ele>326</ele>
        <time>2016-10-23T09:41:47.000Z</time>
      </trkpt>
      <trkpt lat="47.54463" lon="6.77996">
        <ele>326</ele>
        <time>2016-10-23T09:41:48.000Z</time>
      </trkpt>
      <trkpt lat="47.54458" lon="6.77996">
        <ele>326</ele>
        <time>2016-10-23T09:41:49.000Z</time>
      </trkpt>
      <trkpt lat="47.54453" lon="6.77995">
        <ele>326</ele>
        <time>2016-10-23T09:41:49.999Z</time>
      </trkpt>
      <trkpt lat="47.54448" lon="6.77996">
        <ele>326</ele>
        <time>2016-10-23T09:41:51.000Z</time>
      </trkpt>
      <trkpt lat="47.54443" lon="6.77995">
        <ele>326</ele>
        <time>2016-10-23T09:41:52.000Z</time>
      </trkpt>
      <trkpt lat="47.54437" lon="6.77994">
        <ele>326</ele>
        <time>2016-10-23T09:41:53.000Z</time>
      </trkpt>
      <trkpt lat="47.54434" lon="6.77992">
        <ele>326</ele>
        <time>2016-10-23T09:41:54.000Z</time>
      </trkpt>
      <trkpt lat="47.54429" lon="6.77991">
        <ele>326</ele>
        <time>2016-10-23T09:41:54.999Z</time>
      </trkpt>
      <trkpt lat="47.54424" lon="6.77991">
        <ele>325</ele>
        <time>2016-10-23T09:41:56.000Z</time>
      </trkpt>
      <trkpt lat="47.54419" lon="6.77991">
        <ele>325</ele>
        <time>2016-10-23T09:41:57.000Z</time>
      </trkpt>
      <trkpt lat="47.54414" lon="6.7799">
        <ele>326</ele>
        <time>2016-10-23T09:41:58.000Z</time>
      </trkpt>
      <trkpt lat="47.54409" lon="6.7799">
        <ele>326</ele>
        <time>2016-10-23T09:41:59.000Z</time>
      </trkpt>
      <trkpt lat="47.54404" lon="6.77988">
        <ele>326</ele>
        <time>2016-10-23T09:42:00.000Z</time>
      </trkpt>
      <trkpt lat="47.54398" lon="6.77988">
        <ele>326</ele>
        <time>2016-10-23T09:42:01.000Z</time>
      </trkpt>
      <trkpt lat="47.54393" lon="6.77987">
        <ele>326</ele>
        <time>2016-10-23T09:42:02.000Z</time>
      </trkpt>
      <trkpt lat="47.54388" lon="6.77986">
        <ele>326</ele>
        <time>2016-10-23T09:42:03.000Z</time>
      </trkpt>
      <trkpt lat="47.54383" lon="6.77985">
        <ele>326</ele>
        <time>2016-10-23T09:42:04.000Z</time>
      </trkpt>
      <trkpt lat="47.54379" lon="6.77985">
        <ele>326</ele>
        <time>2016-10-23T09:42:04.999Z</time>
      </trkpt>
      <trkpt lat="47.54374" lon="6.77984">
        <ele>326</ele>
        <time>2016-10-23T09:42:06.000Z</time>
      </trkpt>
      <trkpt lat="47.5437" lon="6.77984">
        <ele>326</ele>
        <time>2016-10-23T09:42:07.000Z</time>
      </trkpt>
      <trkpt lat="47.54365" lon="6.77982">
        <ele>326</ele>
        <time>2016-10-23T09:42:08.000Z</time>
      </trkpt>
      <trkpt lat="47.54361" lon="6.77982">
        <ele>326</ele>
        <time>2016-10-23T09:42:09.000Z</time>
      </trkpt>
      <trkpt lat="47.54357" lon="6.77982">
        <ele>326</ele>
        <time>2016-10-23T09:42:10.000Z</time>
      </trkpt>
      <trkpt lat="47.54353" lon="6.77983">
        <ele>326</ele>
        <time>2016-10-23T09:42:11.000Z</time>
      </trkpt>
      <trkpt lat="47.54349" lon="6.77983">
        <ele>326</ele>
        <time>2016-10-23T09:42:12.000Z</time>
      </trkpt>
      <trkpt lat="47.54344" lon="6.77983">
        <ele>326</ele>
        <time>2016-10-23T09:42:13.000Z</time>
      </trkpt>
      <trkpt lat="47.5434" lon="6.77982">
        <ele>326</ele>
        <time>2016-10-23T09:42:14.000Z</time>
      </trkpt>
      <trkpt lat="47.54335" lon="6.77981">
        <ele>326</ele>
        <time>2016-10-23T09:42:14.998Z</time>
      </trkpt>
      <trkpt lat="47.54329" lon="6.77979">
        <ele>327</ele>
        <time>2016-10-23T09:42:16.000Z</time>
      </trkpt>
      <trkpt lat="47.54325" lon="6.77977">
        <ele>327</ele>
        <time>2016-10-23T09:42:17.000Z</time>
      </trkpt>
      <trkpt lat="47.54322" lon="6.77977">
        <ele>327</ele>
        <time>2016-10-23T09:42:18.000Z</time>
      </trkpt>
      <trkpt lat="47.54317" lon="6.77976">
        <ele>327</ele>
        <time>2016-10-23T09:42:19.000Z</time>
      </trkpt>
      <trkpt lat="47.54313" lon="6.77975">
        <ele>327</ele>
        <time>2016-10-23T09:42:20.000Z</time>
      </trkpt>
      <trkpt lat="47.54307" lon="6.77974">
        <ele>327</ele>
        <time>2016-10-23T09:42:21.000Z</time>
      </trkpt>
      <trkpt lat="47.54302" lon="6.77973">
        <ele>327</ele>
        <time>2016-10-23T09:42:21.999Z</time>
      </trkpt>
      <trkpt lat="47.54298" lon="6.77973">
        <ele>327</ele>
        <time>2016-10-23T09:42:23.000Z</time>
      </trkpt>
      <trkpt lat="47.54294" lon="6.77974">
        <ele>327</ele>
        <time>2016-10-23T09:42:24.000Z</time>
      </trkpt>
      <trkpt lat="47.54289" lon="6.77973">
        <ele>327</ele>
        <time>2016-10-23T09:42:25.000Z</time>
      </trkpt>
      <trkpt lat="47.54284" lon="6.77973">
        <ele>327</ele>
        <time>2016-10-23T09:42:26.000Z</time>
      </trkpt>
      <trkpt lat="47.54279" lon="6.7797">
        <ele>327</ele>
        <time>2016-10-23T09:42:27.000Z</time>
      </trkpt>
      <trkpt lat="47.54274" lon="6.7797">
        <ele>327</ele>
        <time>2016-10-23T09:42:28.000Z</time>
      </trkpt>
      <trkpt lat="47.54269" lon="6.7797">
        <ele>327</ele>
        <time>2016-10-23T09:42:29.000Z</time>
      </trkpt>
      <trkpt lat="47.54265" lon="6.77971">
        <ele>327</ele>
        <time>2016-10-23T09:42:30.000Z</time>
      </trkpt>
      <trkpt lat="47.54261" lon="6.77972">
        <ele>327</ele>
        <time>2016-10-23T09:42:31.002Z</time>
      </trkpt>
      <trkpt lat="47.54253" lon="6.77968">
        <ele>327</ele>
        <time>2016-10-23T09:42:32.000Z</time>
      </trkpt>
      <trkpt lat="47.54247" lon="6.77965">
        <ele>327</ele>
        <time>2016-10-23T09:42:33.000Z</time>
      </trkpt>
      <trkpt lat="47.54241" lon="6.77963">
        <ele>327</ele>
        <time>2016-10-23T09:42:34.000Z</time>
      </trkpt>
      <trkpt lat="47.54236" lon="6.77962">
        <ele>327</ele>
        <time>2016-10-23T09:42:34.999Z</time>
      </trkpt>
      <trkpt lat="47.54231" lon="6.77964">
        <ele>327</ele>
        <time>2016-10-23T09:42:36.000Z</time>
      </trkpt>
      <trkpt lat="47.54225" lon="6.77964">
        <ele>327</ele>
        <time>2016-10-23T09:42:37.001Z</time>
      </trkpt>
      <trkpt lat="47.54219" lon="6.77965">
        <ele>327</ele>
        <time>2016-10-23T09:42:38.000Z</time>
      </trkpt>
      <trkpt lat="47.54214" lon="6.77964">
        <ele>327</ele>
        <time>2016-10-23T09:42:39.000Z</time>
      </trkpt>
      <trkpt lat="47.54207" lon="6.77964">
        <ele>327</ele>
        <time>2016-10-23T09:42:40.000Z</time>
      </trkpt>
      <trkpt lat="47.54201" lon="6.77963">
        <ele>327</ele>
        <time>2016-10-23T09:42:41.000Z</time>
      </trkpt>
      <trkpt lat="47.54196" lon="6.77963">
        <ele>327</ele>
        <time>2016-10-23T09:42:42.000Z</time>
      </trkpt>
      <trkpt lat="47.5419" lon="6.77962">
        <ele>327</ele>
        <time>2016-10-23T09:42:43.000Z</time>
      </trkpt>
      <trkpt lat="47.54185" lon="6.77959">
        <ele>327</ele>
        <time>2016-10-23T09:42:44.000Z</time>
      </trkpt>
      <trkpt lat="47.5418" lon="6.77958">
        <ele>326</ele>
        <time>2016-10-23T09:42:44.999Z</time>
      </trkpt>
      <trkpt lat="47.54174" lon="6.77958">
        <ele>326</ele>
        <time>2016-10-23T09:42:46.002Z</time>
      </trkpt>
      <trkpt lat="47.54167" lon="6.77957">
        <ele>326</ele>
        <time>2016-10-23T09:42:47.000Z</time>
      </trkpt>
      <trkpt lat="47.54161" lon="6.77957">
        <ele>326</ele>
        <time>2016-10-23T09:42:48.000Z</time>
      </trkpt>
      <trkpt lat="47.54154" lon="6.77958">
        <ele>326</ele>
        <time>2016-10-23T09:42:49.000Z</time>
      </trkpt>
      <trkpt lat="47.54149" lon="6.77957">
        <ele>326</ele>
        <time>2016-10-23T09:42:50.000Z</time>
      </trkpt>
      <trkpt lat="47.54144" lon="6.77956">
        <ele>326</ele>
        <time>2016-10-23T09:42:51.000Z</time>
      </trkpt>
      <trkpt lat="47.54138" lon="6.77955">
        <ele>326</ele>
        <time>2016-10-23T09:42:52.000Z</time>
      </trkpt>
      <trkpt lat="47.54133" lon="6.77954">
        <ele>326</ele>
        <time>2016-10-23T09:42:53.000Z</time>
      </trkpt>
      <trkpt lat="47.54127" lon="6.77951">
        <ele>326</ele>
        <time>2016-10-23T09:42:54.000Z</time>
      </trkpt>
      <trkpt lat="47.54122" lon="6.77953">
        <ele>326</ele>
        <time>2016-10-23T09:42:55.000Z</time>
      </trkpt>
      <trkpt lat="47.54117" lon="6.77952">
        <ele>326</ele>
        <time>2016-10-23T09:42:56.000Z</time>
      </trkpt>
      <trkpt lat="47.54111" lon="6.7795">
        <ele>326</ele>
        <time>2016-10-23T09:42:57.000Z</time>
      </trkpt>
      <trkpt lat="47.54105" lon="6.77949">
        <ele>326</ele>
        <time>2016-10-23T09:42:58.000Z</time>
      </trkpt>
      <trkpt lat="47.541" lon="6.77949">
        <ele>326</ele>
        <time>2016-10-23T09:42:59.000Z</time>
      </trkpt>
      <trkpt lat="47.54094" lon="6.77949">
        <ele>326</ele>
        <time>2016-10-23T09:43:00.000Z</time>
      </trkpt>
      <trkpt lat="47.54087" lon="6.77949">
        <ele>326</ele>
        <time>2016-10-23T09:43:01.000Z</time>
      </trkpt>
      <trkpt lat="47.54084" lon="6.77951">
        <ele>326</ele>
        <time>2016-10-23T09:43:02.000Z</time>
      </trkpt>
      <trkpt lat="47.54079" lon="6.77949">
        <ele>326</ele>
        <time>2016-10-23T09:43:03.000Z</time>
      </trkpt>
      <trkpt lat="47.54073" lon="6.77948">
        <ele>326</ele>
        <time>2016-10-23T09:43:03.999Z</time>
      </trkpt>
      <trkpt lat="47.54067" lon="6.77947">
        <ele>326</ele>
        <time>2016-10-23T09:43:05.000Z</time>
      </trkpt>
      <trkpt lat="47.54062" lon="6.77947">
        <ele>326</ele>
        <time>2016-10-23T09:43:06.000Z</time>
      </trkpt>
      <trkpt lat="47.54055" lon="6.77947">
        <ele>326</ele>
        <time>2016-10-23T09:43:07.000Z</time>
      </trkpt>
      <trkpt lat="47.5405" lon="6.77946">
        <ele>326</ele>
        <time>2016-10-23T09:43:07.999Z</time>
      </trkpt>
      <trkpt lat="47.54046" lon="6.77946">
        <ele>326</ele>
        <time>2016-10-23T09:43:09.000Z</time>
      </trkpt>
      <trkpt lat="47.54041" lon="6.77947">
        <ele>326</ele>
        <time>2016-10-23T09:43:10.000Z</time>
      </trkpt>
      <trkpt lat="47.54034" lon="6.77946">
        <ele>326</ele>
        <time>2016-10-23T09:43:11.000Z</time>
      </trkpt>
      <trkpt lat="47.54029" lon="6.77946">
        <ele>326</ele>
        <time>2016-10-23T09:43:12.000Z</time>
      </trkpt>
      <trkpt lat="47.54024" lon="6.77946">
        <ele>326</ele>
        <time>2016-10-23T09:43:13.000Z</time>
      </trkpt>
      <trkpt lat="47.54019" lon="6.77948">
        <ele>326</ele>
        <time>2016-10-23T09:43:14.000Z</time>
      </trkpt>
      <trkpt lat="47.54015" lon="6.77948">
        <ele>326</ele>
        <time>2016-10-23T09:43:14.999Z</time>
      </trkpt>
      <trkpt lat="47.54009" lon="6.77949">
        <ele>326</ele>
        <time>2016-10-23T09:43:16.000Z</time>
      </trkpt>
      <trkpt lat="47.54004" lon="6.7795">
        <ele>326</ele>
        <time>2016-10-23T09:43:17.000Z</time>
      </trkpt>
      <trkpt lat="47.53999" lon="6.7795">
        <ele>327</ele>
        <time>2016-10-23T09:43:18.000Z</time>
      </trkpt>
      <trkpt lat="47.53994" lon="6.7795">
        <ele>327</ele>
        <time>2016-10-23T09:43:19.000Z</time>
      </trkpt>
      <trkpt lat="47.53989" lon="6.7795">
        <ele>327</ele>
        <time>2016-10-23T09:43:20.000Z</time>
      </trkpt>
      <trkpt lat="47.53984" lon="6.77951">
        <ele>327</ele>
        <time>2016-10-23T09:43:21.000Z</time>
      </trkpt>
      <trkpt lat="47.53981" lon="6.77952">
        <ele>327</ele>
        <time>2016-10-23T09:43:22.000Z</time>
      </trkpt>
      <trkpt lat="47.53974" lon="6.77951">
        <ele>328</ele>
        <time>2016-10-23T09:43:23.000Z</time>
      </trkpt>
      <trkpt lat="47.53969" lon="6.77951">
        <ele>328</ele>
        <time>2016-10-23T09:43:24.000Z</time>
      </trkpt>
      <trkpt lat="47.53963" lon="6.7795">
        <ele>328</ele>
        <time>2016-10-23T09:43:25.000Z</time>
      </trkpt>
      <trkpt lat="47.53959" lon="6.77949">
        <ele>328</ele>
        <time>2016-10-23T09:43:26.000Z</time>
      </trkpt>
      <trkpt lat="47.53954" lon="6.7795">
        <ele>328</ele>
        <time>2016-10-23T09:43:27.000Z</time>
      </trkpt>
      <trkpt lat="47.53948" lon="6.7795">
        <ele>328</ele>
        <time>2016-10-23T09:43:28.000Z</time>
      </trkpt>
      <trkpt lat="47.53942" lon="6.7795">
        <ele>328</ele>
        <time>2016-10-23T09:43:29.000Z</time>
      </trkpt>
      <trkpt lat="47.53939" lon="6.77953">
        <ele>328</ele>
        <time>2016-10-23T09:43:30.001Z</time>
      </trkpt>
      <trkpt lat="47.53933" lon="6.77952">
        <ele>329</ele>
        <time>2016-10-23T09:43:31.000Z</time>
      </trkpt>
      <trkpt lat="47.53929" lon="6.77952">
        <ele>329</ele>
        <time>2016-10-23T09:43:32.000Z</time>
      </trkpt>
      <trkpt lat="47.53925" lon="6.77954">
        <ele>329</ele>
        <time>2016-10-23T09:43:33.000Z</time>
      </trkpt>
      <trkpt lat="47.53921" lon="6.77955">
        <ele>329</ele>
        <time>2016-10-23T09:43:34.000Z</time>
      </trkpt>
      <trkpt lat="47.53917" lon="6.77955">
        <ele>329</ele>
        <time>2016-10-23T09:43:35.000Z</time>
      </trkpt>
      <trkpt lat="47.53914" lon="6.77955">
        <ele>331</ele>
        <time>2016-10-23T09:43:36.000Z</time>
      </trkpt>
      <trkpt lat="47.53911" lon="6.77955">
        <ele>331</ele>
        <time>2016-10-23T09:43:37.000Z</time>
      </trkpt>
      <trkpt lat="47.53909" lon="6.77955">
        <ele>331</ele>
        <time>2016-10-23T09:43:38.000Z</time>
      </trkpt>
      <trkpt lat="47.53906" lon="6.77954">
        <ele>331</ele>
        <time>2016-10-23T09:43:39.000Z</time>
      </trkpt>
      <trkpt lat="47.53902" lon="6.77954">
        <ele>331</ele>
        <time>2016-10-23T09:43:41.000Z</time>
      </trkpt>
      <trkpt lat="47.53899" lon="6.77952">
        <ele>331</ele>
        <time>2016-10-23T09:43:42.000Z</time>
      </trkpt>
      <trkpt lat="47.53897" lon="6.77951">
        <ele>331</ele>
        <time>2016-10-23T09:43:43.000Z</time>
      </trkpt>
      <trkpt lat="47.53894" lon="6.77949">
        <ele>331</ele>
        <time>2016-10-23T09:43:44.000Z</time>
      </trkpt>
      <trkpt lat="47.53892" lon="6.77946">
        <ele>332</ele>
        <time>2016-10-23T09:43:45.000Z</time>
      </trkpt>
      <trkpt lat="47.5389" lon="6.77944">
        <ele>332</ele>
        <time>2016-10-23T09:43:46.000Z</time>
      </trkpt>
      <trkpt lat="47.53887" lon="6.77941">
        <ele>332</ele>
        <time>2016-10-23T09:43:47.000Z</time>
      </trkpt>
      <trkpt lat="47.53885" lon="6.77939">
        <ele>332</ele>
        <time>2016-10-23T09:43:48.000Z</time>
      </trkpt>
      <trkpt lat="47.53882" lon="6.77936">
        <ele>332</ele>
        <time>2016-10-23T09:43:49.000Z</time>
      </trkpt>
      <trkpt lat="47.5388" lon="6.77933">
        <ele>332</ele>
        <time>2016-10-23T09:43:50.000Z</time>
      </trkpt>
      <trkpt lat="47.53876" lon="6.77929">
        <ele>332</ele>
        <time>2016-10-23T09:43:52.000Z</time>
      </trkpt>
      <trkpt lat="47.53875" lon="6.77928">
        <ele>332</ele>
        <time>2016-10-23T09:43:53.000Z</time>
      </trkpt>
      <trkpt lat="47.53871" lon="6.77924">
        <ele>332</ele>
        <time>2016-10-23T09:43:56.000Z</time>
      </trkpt>
      <trkpt lat="47.5387" lon="6.77923">
        <ele>333</ele>
        <time>2016-10-23T09:43:57.000Z</time>
      </trkpt>
      <trkpt lat="47.53868" lon="6.77919">
        <ele>333</ele>
        <time>2016-10-23T09:44:00.000Z</time>
      </trkpt>
      <trkpt lat="47.53867" lon="6.77918">
        <ele>333</ele>
        <time>2016-10-23T09:44:01.000Z</time>
      </trkpt>
      <trkpt lat="47.53868" lon="6.77913">
        <ele>337</ele>
        <time>2016-10-23T09:44:04.000Z</time>
      </trkpt>
      <trkpt lat="47.53868" lon="6.7791">
        <ele>337</ele>
        <time>2016-10-23T09:44:05.000Z</time>
      </trkpt>
      <trkpt lat="47.53868" lon="6.77904">
        <ele>337</ele>
        <time>2016-10-23T09:44:07.000Z</time>
      </trkpt>
      <trkpt lat="47.53868" lon="6.77902">
        <ele>337</ele>
        <time>2016-10-23T09:44:07.999Z</time>
      </trkpt>
      <trkpt lat="47.53867" lon="6.77895">
        <ele>338</ele>
        <time>2016-10-23T09:44:11.000Z</time>
      </trkpt>
      <trkpt lat="47.53868" lon="6.77893">
        <ele>338</ele>
        <time>2016-10-23T09:44:12.000Z</time>
      </trkpt>
      <trkpt lat="47.53867" lon="6.77888">
        <ele>338</ele>
        <time>2016-10-23T09:44:14.000Z</time>
      </trkpt>
      <trkpt lat="47.53867" lon="6.77886">
        <ele>338</ele>
        <time>2016-10-23T09:44:15.000Z</time>
      </trkpt>
      <trkpt lat="47.53868" lon="6.77881">
        <ele>338</ele>
        <time>2016-10-23T09:44:17.000Z</time>
      </trkpt>
      <trkpt lat="47.53868" lon="6.77879">
        <ele>338</ele>
        <time>2016-10-23T09:44:18.000Z</time>
      </trkpt>
      <trkpt lat="47.53867" lon="6.77873">
        <ele>339</ele>
        <time>2016-10-23T09:44:21.000Z</time>
      </trkpt>
      <trkpt lat="47.53867" lon="6.77871">
        <ele>339</ele>
        <time>2016-10-23T09:44:22.000Z</time>
      </trkpt>
      <trkpt lat="47.53865" lon="6.77866">
        <ele>339</ele>
        <time>2016-10-23T09:44:25.000Z</time>
      </trkpt>
      <trkpt lat="47.53864" lon="6.77864">
        <ele>339</ele>
        <time>2016-10-23T09:44:26.000Z</time>
      </trkpt>
      <trkpt lat="47.53863" lon="6.77859">
        <ele>340</ele>
        <time>2016-10-23T09:44:31.000Z</time>
      </trkpt>
      <trkpt lat="47.53862" lon="6.77857">
        <ele>340</ele>
        <time>2016-10-23T09:44:32.000Z</time>
      </trkpt>
      <trkpt lat="47.5386" lon="6.77852">
        <ele>340</ele>
        <time>2016-10-23T09:44:36.000Z</time>
      </trkpt>
      <trkpt lat="47.5386" lon="6.7785">
        <ele>340</ele>
        <time>2016-10-23T09:44:37.000Z</time>
      </trkpt>
      <trkpt lat="47.53859" lon="6.77845">
        <ele>340</ele>
        <time>2016-10-23T09:44:41.000Z</time>
      </trkpt>
      <trkpt lat="47.53859" lon="6.77843">
        <ele>341</ele>
        <time>2016-10-23T09:44:42.000Z</time>
      </trkpt>
      <trkpt lat="47.53857" lon="6.77837">
        <ele>341</ele>
        <time>2016-10-23T09:44:46.000Z</time>
      </trkpt>
      <trkpt lat="47.53856" lon="6.77836">
        <ele>341</ele>
        <time>2016-10-23T09:44:47.000Z</time>
      </trkpt>
      <trkpt lat="47.53854" lon="6.77831">
        <ele>345</ele>
        <time>2016-10-23T09:44:50.000Z</time>
      </trkpt>
      <trkpt lat="47.53854" lon="6.7783">
        <ele>345</ele>
        <time>2016-10-23T09:44:51.000Z</time>
      </trkpt>
      <trkpt lat="47.53854" lon="6.77823">
        <ele>345</ele>
        <time>2016-10-23T09:44:55.000Z</time>
      </trkpt>
      <trkpt lat="47.53853" lon="6.77821">
        <ele>345</ele>
        <time>2016-10-23T09:44:56.000Z</time>
      </trkpt>
      <trkpt lat="47.53852" lon="6.77816">
        <ele>345</ele>
        <time>2016-10-23T09:44:59.000Z</time>
      </trkpt>
      <trkpt lat="47.53851" lon="6.77814">
        <ele>345</ele>
        <time>2016-10-23T09:45:00.000Z</time>
      </trkpt>
      <trkpt lat="47.53849" lon="6.77811">
        <ele>345</ele>
        <time>2016-10-23T09:45:03.000Z</time>
      </trkpt>
      <trkpt lat="47.53848" lon="6.7781">
        <ele>345</ele>
        <time>2016-10-23T09:45:04.000Z</time>
      </trkpt>
      <trkpt lat="47.53844" lon="6.77806">
        <ele>346</ele>
        <time>2016-10-23T09:45:07.000Z</time>
      </trkpt>
      <trkpt lat="47.53843" lon="6.77805">
        <ele>346</ele>
        <time>2016-10-23T09:45:08.000Z</time>
      </trkpt>
      <trkpt lat="47.53841" lon="6.778">
        <ele>346</ele>
        <time>2016-10-23T09:45:12.000Z</time>
      </trkpt>
      <trkpt lat="47.5384" lon="6.77798">
        <ele>346</ele>
        <time>2016-10-23T09:45:13.000Z</time>
      </trkpt>
      <trkpt lat="47.53839" lon="6.77792">
        <ele>346</ele>
        <time>2016-10-23T09:45:17.000Z</time>
      </trkpt>
      <trkpt lat="47.53838" lon="6.77791">
        <ele>346</ele>
        <time>2016-10-23T09:45:18.001Z</time>
      </trkpt>
      <trkpt lat="47.53836" lon="6.77787">
        <ele>346</ele>
        <time>2016-10-23T09:45:20.000Z</time>
      </trkpt>
      <trkpt lat="47.53835" lon="6.77785">
        <ele>346</ele>
        <time>2016-10-23T09:45:21.000Z</time>
      </trkpt>
      <trkpt lat="47.53836" lon="6.7778">
        <ele>347</ele>
        <time>2016-10-23T09:45:23.999Z</time>
      </trkpt>
      <trkpt lat="47.53836" lon="6.77779">
        <ele>347</ele>
        <time>2016-10-23T09:45:25.000Z</time>
      </trkpt>
      <trkpt lat="47.53837" lon="6.77773">
        <ele>347</ele>
        <time>2016-10-23T09:45:28.000Z</time>
      </trkpt>
      <trkpt lat="47.53837" lon="6.77771">
        <ele>347</ele>
        <time>2016-10-23T09:45:29.001Z</time>
      </trkpt>
      <trkpt lat="47.53835" lon="6.77766">
        <ele>348</ele>
        <time>2016-10-23T09:45:33.000Z</time>
      </trkpt>
      <trkpt lat="47.53835" lon="6.77764">
        <ele>348</ele>
        <time>2016-10-23T09:45:34.000Z</time>
      </trkpt>
      <trkpt lat="47.53831" lon="6.7776">
        <ele>350</ele>
        <time>2016-10-23T09:45:38.000Z</time>
      </trkpt>
      <trkpt lat="47.5383" lon="6.77759">
        <ele>350</ele>
        <time>2016-10-23T09:45:39.000Z</time>
      </trkpt>
      <trkpt lat="47.53828" lon="6.77755">
        <ele>349</ele>
        <time>2016-10-23T09:45:42.000Z</time>
      </trkpt>
      <trkpt lat="47.53827" lon="6.77753">
        <ele>350</ele>
        <time>2016-10-23T09:45:43.000Z</time>
      </trkpt>
      <trkpt lat="47.53825" lon="6.77749">
        <ele>352</ele>
        <time>2016-10-23T09:45:46.000Z</time>
      </trkpt>
      <trkpt lat="47.53824" lon="6.77748">
        <ele>352</ele>
        <time>2016-10-23T09:45:47.000Z</time>
      </trkpt>
      <trkpt lat="47.53821" lon="6.77745">
        <ele>353</ele>
        <time>2016-10-23T09:45:51.000Z</time>
      </trkpt>
      <trkpt lat="47.5382" lon="6.77744">
        <ele>353</ele>
        <time>2016-10-23T09:45:52.000Z</time>
      </trkpt>
      <trkpt lat="47.53817" lon="6.7774">
        <ele>354</ele>
        <time>2016-10-23T09:45:56.000Z</time>
      </trkpt>
      <trkpt lat="47.53817" lon="6.77739">
        <ele>354</ele>
        <time>2016-10-23T09:45:57.000Z</time>
      </trkpt>
      <trkpt lat="47.53815" lon="6.77734">
        <ele>355</ele>
        <time>2016-10-23T09:46:01.000Z</time>
      </trkpt>
      <trkpt lat="47.53814" lon="6.77733">
        <ele>355</ele>
        <time>2016-10-23T09:46:02.000Z</time>
      </trkpt>
      <trkpt lat="47.53811" lon="6.77729">
        <ele>356</ele>
        <time>2016-10-23T09:46:06.000Z</time>
      </trkpt>
      <trkpt lat="47.53811" lon="6.77727">
        <ele>356</ele>
        <time>2016-10-23T09:46:07.000Z</time>
      </trkpt>
      <trkpt lat="47.53811" lon="6.77721">
        <ele>357</ele>
        <time>2016-10-23T09:46:11.000Z</time>
      </trkpt>
      <trkpt lat="47.53811" lon="6.7772">
        <ele>357</ele>
        <time>2016-10-23T09:46:12.000Z</time>
      </trkpt>
      <trkpt lat="47.5381" lon="6.77714">
        <ele>358</ele>
        <time>2016-10-23T09:46:16.000Z</time>
      </trkpt>
      <trkpt lat="47.53809" lon="6.77712">
        <ele>358</ele>
        <time>2016-10-23T09:46:17.000Z</time>
      </trkpt>
      <trkpt lat="47.53806" lon="6.77707">
        <ele>358</ele>
        <time>2016-10-23T09:46:20.000Z</time>
      </trkpt>
      <trkpt lat="47.53805" lon="6.77707">
        <ele>358</ele>
        <time>2016-10-23T09:46:21.000Z</time>
      </trkpt>
      <trkpt lat="47.53802" lon="6.77707">
        <ele>358</ele>
        <time>2016-10-23T09:46:26.000Z</time>
      </trkpt>
      <trkpt lat="47.538" lon="6.77707">
        <ele>359</ele>
        <time>2016-10-23T09:46:27.000Z</time>
      </trkpt>
      <trkpt lat="47.53796" lon="6.77708">
        <ele>359</ele>
        <time>2016-10-23T09:46:30.000Z</time>
      </trkpt>
      <trkpt lat="47.53795" lon="6.77708">
        <ele>359</ele>
        <time>2016-10-23T09:46:31.000Z</time>
      </trkpt>
      <trkpt lat="47.53793" lon="6.77711">
        <ele>359</ele>
        <time>2016-10-23T09:46:34.000Z</time>
      </trkpt>
      <trkpt lat="47.53792" lon="6.77712">
        <ele>358</ele>
        <time>2016-10-23T09:46:35.000Z</time>
      </trkpt>
      <trkpt lat="47.53789" lon="6.77715">
        <ele>358</ele>
        <time>2016-10-23T09:46:37.000Z</time>
      </trkpt>
      <trkpt lat="47.53788" lon="6.77715">
        <ele>358</ele>
        <time>2016-10-23T09:46:38.000Z</time>
      </trkpt>
      <trkpt lat="47.53784" lon="6.77713">
        <ele>359</ele>
        <time>2016-10-23T09:46:43.000Z</time>
      </trkpt>
      <trkpt lat="47.53783" lon="6.77713">
        <ele>359</ele>
        <time>2016-10-23T09:46:44.000Z</time>
      </trkpt>
      <trkpt lat="47.53779" lon="6.77709">
        <ele>359</ele>
        <time>2016-10-23T09:46:48.000Z</time>
      </trkpt>
      <trkpt lat="47.53778" lon="6.77708">
        <ele>359</ele>
        <time>2016-10-23T09:46:49.000Z</time>
      </trkpt>
      <trkpt lat="47.53775" lon="6.77705">
        <ele>360</ele>
        <time>2016-10-23T09:46:52.000Z</time>
      </trkpt>
      <trkpt lat="47.53774" lon="6.77704">
        <ele>360</ele>
        <time>2016-10-23T09:46:53.000Z</time>
      </trkpt>
      <trkpt lat="47.5377" lon="6.777">
        <ele>360</ele>
        <time>2016-10-23T09:46:56.000Z</time>
      </trkpt>
      <trkpt lat="47.53769" lon="6.77698">
        <ele>360</ele>
        <time>2016-10-23T09:46:57.000Z</time>
      </trkpt>
      <trkpt lat="47.53765" lon="6.77694">
        <ele>361</ele>
        <time>2016-10-23T09:47:00.000Z</time>
      </trkpt>
      <trkpt lat="47.53764" lon="6.77693">
        <ele>361</ele>
        <time>2016-10-23T09:47:01.000Z</time>
      </trkpt>
      <trkpt lat="47.53762" lon="6.77688">
        <ele>362</ele>
        <time>2016-10-23T09:47:04.000Z</time>
      </trkpt>
      <trkpt lat="47.53762" lon="6.77686">
        <ele>362</ele>
        <time>2016-10-23T09:47:05.000Z</time>
      </trkpt>
      <trkpt lat="47.53759" lon="6.77681">
        <ele>363</ele>
        <time>2016-10-23T09:47:08.000Z</time>
      </trkpt>
      <trkpt lat="47.53759" lon="6.77679">
        <ele>363</ele>
        <time>2016-10-23T09:47:09.000Z</time>
      </trkpt>
      <trkpt lat="47.53758" lon="6.77673">
        <ele>364</ele>
        <time>2016-10-23T09:47:13.000Z</time>
      </trkpt>
      <trkpt lat="47.53757" lon="6.77672">
        <ele>364</ele>
        <time>2016-10-23T09:47:14.000Z</time>
      </trkpt>
      <trkpt lat="47.53754" lon="6.7767">
        <ele>365</ele>
        <time>2016-10-23T09:47:16.000Z</time>
      </trkpt>
      <trkpt lat="47.53752" lon="6.7767">
        <ele>365</ele>
        <time>2016-10-23T09:47:17.000Z</time>
      </trkpt>
      <trkpt lat="47.53749" lon="6.77669">
        <ele>365</ele>
        <time>2016-10-23T09:47:19.000Z</time>
      </trkpt>
      <trkpt lat="47.53747" lon="6.77668">
        <ele>365</ele>
        <time>2016-10-23T09:47:20.000Z</time>
      </trkpt>
      <trkpt lat="47.53745" lon="6.77663">
        <ele>366</ele>
        <time>2016-10-23T09:47:23.000Z</time>
      </trkpt>
      <trkpt lat="47.53745" lon="6.77662">
        <ele>366</ele>
        <time>2016-10-23T09:47:24.000Z</time>
      </trkpt>
      <trkpt lat="47.53744" lon="6.77657">
        <ele>367</ele>
        <time>2016-10-23T09:47:27.000Z</time>
      </trkpt>
      <trkpt lat="47.53743" lon="6.77654">
        <ele>367</ele>
        <time>2016-10-23T09:47:28.000Z</time>
      </trkpt>
      <trkpt lat="47.53741" lon="6.7765">
        <ele>367</ele>
        <time>2016-10-23T09:47:30.000Z</time>
      </trkpt>
      <trkpt lat="47.5374" lon="6.77649">
        <ele>367</ele>
        <time>2016-10-23T09:47:31.000Z</time>
      </trkpt>
      <trkpt lat="47.53738" lon="6.77644">
        <ele>367</ele>
        <time>2016-10-23T09:47:34.000Z</time>
      </trkpt>
      <trkpt lat="47.53738" lon="6.77642">
        <ele>367</ele>
        <time>2016-10-23T09:47:35.000Z</time>
      </trkpt>
      <trkpt lat="47.53735" lon="6.77638">
        <ele>368</ele>
        <time>2016-10-23T09:47:38.000Z</time>
      </trkpt>
      <trkpt lat="47.53735" lon="6.77636">
        <ele>368</ele>
        <time>2016-10-23T09:47:39.000Z</time>
      </trkpt>
      <trkpt lat="47.53733" lon="6.7763">
        <ele>368</ele>
        <time>2016-10-23T09:47:43.000Z</time>
      </trkpt>
      <trkpt lat="47.53732" lon="6.77628">
        <ele>368</ele>
        <time>2016-10-23T09:47:44.000Z</time>
      </trkpt>
      <trkpt lat="47.53731" lon="6.77623">
        <ele>369</ele>
        <time>2016-10-23T09:47:46.000Z</time>
      </trkpt>
      <trkpt lat="47.5373" lon="6.77621">
        <ele>369</ele>
        <time>2016-10-23T09:47:47.000Z</time>
      </trkpt>
      <trkpt lat="47.53729" lon="6.77617">
        <ele>369</ele>
        <time>2016-10-23T09:47:49.000Z</time>
      </trkpt>
      <trkpt lat="47.53728" lon="6.77615">
        <ele>369</ele>
        <time>2016-10-23T09:47:50.000Z</time>
      </trkpt>
      <trkpt lat="47.53726" lon="6.77611">
        <ele>369</ele>
        <time>2016-10-23T09:47:52.000Z</time>
      </trkpt>
      <trkpt lat="47.53725" lon="6.7761">
        <ele>369</ele>
        <time>2016-10-23T09:47:53.000Z</time>
      </trkpt>
      <trkpt lat="47.53722" lon="6.77607">
        <ele>369</ele>
        <time>2016-10-23T09:47:55.000Z</time>
      </trkpt>
      <trkpt lat="47.5372" lon="6.77605">
        <ele>369</ele>
        <time>2016-10-23T09:47:56.000Z</time>
      </trkpt>
      <trkpt lat="47.53718" lon="6.77599">
        <ele>370</ele>
        <time>2016-10-23T09:47:59.000Z</time>
      </trkpt>
      <trkpt lat="47.53718" lon="6.77598">
        <ele>370</ele>
        <time>2016-10-23T09:48:00.000Z</time>
      </trkpt>
      <trkpt lat="47.53716" lon="6.77593">
        <ele>370</ele>
        <time>2016-10-23T09:48:03.000Z</time>
      </trkpt>
      <trkpt lat="47.53715" lon="6.77592">
        <ele>370</ele>
        <time>2016-10-23T09:48:04.000Z</time>
      </trkpt>
      <trkpt lat="47.53715" lon="6.77585">
        <ele>370</ele>
        <time>2016-10-23T09:48:09.000Z</time>
      </trkpt>
      <trkpt lat="47.53714" lon="6.77584">
        <ele>370</ele>
        <time>2016-10-23T09:48:10.000Z</time>
      </trkpt>
      <trkpt lat="47.5371" lon="6.7758">
        <ele>376</ele>
        <time>2016-10-23T09:48:13.000Z</time>
      </trkpt>
      <trkpt lat="47.53709" lon="6.77578">
        <ele>376</ele>
        <time>2016-10-23T09:48:14.000Z</time>
      </trkpt>
      <trkpt lat="47.53707" lon="6.77574">
        <ele>376</ele>
        <time>2016-10-23T09:48:17.000Z</time>
      </trkpt>
      <trkpt lat="47.53707" lon="6.77572">
        <ele>376</ele>
        <time>2016-10-23T09:48:18.000Z</time>
      </trkpt>
      <trkpt lat="47.53704" lon="6.77567">
        <ele>376</ele>
        <time>2016-10-23T09:48:21.000Z</time>
      </trkpt>
      <trkpt lat="47.53704" lon="6.77565">
        <ele>376</ele>
        <time>2016-10-23T09:48:22.000Z</time>
      </trkpt>
      <trkpt lat="47.53702" lon="6.7756">
        <ele>376</ele>
        <time>2016-10-23T09:48:24.000Z</time>
      </trkpt>
      <trkpt lat="47.53701" lon="6.77557">
        <ele>376</ele>
        <time>2016-10-23T09:48:25.000Z</time>
      </trkpt>
      <trkpt lat="47.53698" lon="6.77553">
        <ele>377</ele>
        <time>2016-10-23T09:48:28.000Z</time>
      </trkpt>
      <trkpt lat="47.53697" lon="6.77552">
        <ele>377</ele>
        <time>2016-10-23T09:48:29.000Z</time>
      </trkpt>
      <trkpt lat="47.53694" lon="6.77548">
        <ele>377</ele>
        <time>2016-10-23T09:48:31.000Z</time>
      </trkpt>
      <trkpt lat="47.53693" lon="6.77546">
        <ele>377</ele>
        <time>2016-10-23T09:48:32.000Z</time>
      </trkpt>
      <trkpt lat="47.5369" lon="6.77541">
        <ele>377</ele>
        <time>2016-10-23T09:48:34.000Z</time>
      </trkpt>
      <trkpt lat="47.53689" lon="6.77539">
        <ele>377</ele>
        <time>2016-10-23T09:48:35.000Z</time>
      </trkpt>
      <trkpt lat="47.53687" lon="6.77533">
        <ele>377</ele>
        <time>2016-10-23T09:48:37.000Z</time>
      </trkpt>
      <trkpt lat="47.53686" lon="6.77531">
        <ele>378</ele>
        <time>2016-10-23T09:48:38.000Z</time>
      </trkpt>
      <trkpt lat="47.53685" lon="6.77526">
        <ele>378</ele>
        <time>2016-10-23T09:48:41.000Z</time>
      </trkpt>
      <trkpt lat="47.53684" lon="6.77524">
        <ele>378</ele>
        <time>2016-10-23T09:48:42.000Z</time>
      </trkpt>
      <trkpt lat="47.53681" lon="6.77521">
        <ele>378</ele>
        <time>2016-10-23T09:48:44.000Z</time>
      </trkpt>
      <trkpt lat="47.5368" lon="6.77519">
        <ele>378</ele>
        <time>2016-10-23T09:48:45.000Z</time>
      </trkpt>
      <trkpt lat="47.53677" lon="6.77515">
        <ele>378</ele>
        <time>2016-10-23T09:48:47.000Z</time>
      </trkpt>
      <trkpt lat="47.53676" lon="6.77513">
        <ele>378</ele>
        <time>2016-10-23T09:48:48.000Z</time>
      </trkpt>
      <trkpt lat="47.53672" lon="6.77509">
        <ele>379</ele>
        <time>2016-10-23T09:48:51.000Z</time>
      </trkpt>
      <trkpt lat="47.5367" lon="6.77508">
        <ele>379</ele>
        <time>2016-10-23T09:48:52.000Z</time>
      </trkpt>
      <trkpt lat="47.53667" lon="6.77506">
        <ele>379</ele>
        <time>2016-10-23T09:48:54.000Z</time>
      </trkpt>
      <trkpt lat="47.53666" lon="6.77504">
        <ele>378</ele>
        <time>2016-10-23T09:48:55.000Z</time>
      </trkpt>
      <trkpt lat="47.53665" lon="6.77499">
        <ele>379</ele>
        <time>2016-10-23T09:48:57.000Z</time>
      </trkpt>
      <trkpt lat="47.53664" lon="6.77497">
        <ele>379</ele>
        <time>2016-10-23T09:48:58.000Z</time>
      </trkpt>
      <trkpt lat="47.53662" lon="6.77493">
        <ele>378</ele>
        <time>2016-10-23T09:49:00.000Z</time>
      </trkpt>
      <trkpt lat="47.53662" lon="6.7749">
        <ele>378</ele>
        <time>2016-10-23T09:49:01.000Z</time>
      </trkpt>
      <trkpt lat="47.53661" lon="6.77485">
        <ele>378</ele>
        <time>2016-10-23T09:49:03.000Z</time>
      </trkpt>
      <trkpt lat="47.5366" lon="6.77483">
        <ele>378</ele>
        <time>2016-10-23T09:49:04.000Z</time>
      </trkpt>
      <trkpt lat="47.53657" lon="6.77479">
        <ele>378</ele>
        <time>2016-10-23T09:49:06.000Z</time>
      </trkpt>
      <trkpt lat="47.53656" lon="6.77477">
        <ele>378</ele>
        <time>2016-10-23T09:49:07.000Z</time>
      </trkpt>
      <trkpt lat="47.53653" lon="6.77474">
        <ele>378</ele>
        <time>2016-10-23T09:49:09.000Z</time>
      </trkpt>
      <trkpt lat="47.53652" lon="6.77472">
        <ele>377</ele>
        <time>2016-10-23T09:49:10.000Z</time>
      </trkpt>
      <trkpt lat="47.5365" lon="6.77471">
        <ele>377</ele>
        <time>2016-10-23T09:49:11.000Z</time>
      </trkpt>
      <trkpt lat="47.53648" lon="6.77469">
        <ele>377</ele>
        <time>2016-10-23T09:49:12.000Z</time>
      </trkpt>
      <trkpt lat="47.53646" lon="6.77467">
        <ele>377</ele>
        <time>2016-10-23T09:49:13.000Z</time>
      </trkpt>
      <trkpt lat="47.53644" lon="6.77465">
        <ele>377</ele>
        <time>2016-10-23T09:49:14.000Z</time>
      </trkpt>
      <trkpt lat="47.53641" lon="6.77463">
        <ele>377</ele>
        <time>2016-10-23T09:49:15.000Z</time>
      </trkpt>
      <trkpt lat="47.53639" lon="6.7746">
        <ele>377</ele>
        <time>2016-10-23T09:49:16.000Z</time>
      </trkpt>
      <trkpt lat="47.53637" lon="6.77456">
        <ele>377</ele>
        <time>2016-10-23T09:49:17.000Z</time>
      </trkpt>
      <trkpt lat="47.53635" lon="6.77453">
        <ele>377</ele>
        <time>2016-10-23T09:49:18.000Z</time>
      </trkpt>
      <trkpt lat="47.53633" lon="6.7745">
        <ele>377</ele>
        <time>2016-10-23T09:49:19.000Z</time>
      </trkpt>
      <trkpt lat="47.5363" lon="6.77447">
        <ele>377</ele>
        <time>2016-10-23T09:49:20.000Z</time>
      </trkpt>
      <trkpt lat="47.53628" lon="6.77444">
        <ele>377</ele>
        <time>2016-10-23T09:49:21.000Z</time>
      </trkpt>
      <trkpt lat="47.53626" lon="6.77442">
        <ele>377</ele>
        <time>2016-10-23T09:49:22.000Z</time>
      </trkpt>
      <trkpt lat="47.53623" lon="6.7744">
        <ele>377</ele>
        <time>2016-10-23T09:49:23.000Z</time>
      </trkpt>
      <trkpt lat="47.5362" lon="6.77437">
        <ele>377</ele>
        <time>2016-10-23T09:49:24.000Z</time>
      </trkpt>
      <trkpt lat="47.53617" lon="6.77435">
        <ele>377</ele>
        <time>2016-10-23T09:49:25.000Z</time>
      </trkpt>
      <trkpt lat="47.53614" lon="6.77433">
        <ele>377</ele>
        <time>2016-10-23T09:49:26.000Z</time>
      </trkpt>
      <trkpt lat="47.53611" lon="6.7743">
        <ele>376</ele>
        <time>2016-10-23T09:49:27.000Z</time>
      </trkpt>
      <trkpt lat="47.53608" lon="6.77428">
        <ele>376</ele>
        <time>2016-10-23T09:49:28.000Z</time>
      </trkpt>
      <trkpt lat="47.53605" lon="6.77425">
        <ele>376</ele>
        <time>2016-10-23T09:49:29.000Z</time>
      </trkpt>
      <trkpt lat="47.53603" lon="6.77422">
        <ele>376</ele>
        <time>2016-10-23T09:49:30.000Z</time>
      </trkpt>
      <trkpt lat="47.536" lon="6.77419">
        <ele>376</ele>
        <time>2016-10-23T09:49:31.000Z</time>
      </trkpt>
      <trkpt lat="47.53598" lon="6.77416">
        <ele>378</ele>
        <time>2016-10-23T09:49:32.000Z</time>
      </trkpt>
      <trkpt lat="47.53596" lon="6.77413">
        <ele>378</ele>
        <time>2016-10-23T09:49:33.000Z</time>
      </trkpt>
      <trkpt lat="47.53594" lon="6.7741">
        <ele>378</ele>
        <time>2016-10-23T09:49:34.000Z</time>
      </trkpt>
      <trkpt lat="47.53591" lon="6.77407">
        <ele>378</ele>
        <time>2016-10-23T09:49:35.000Z</time>
      </trkpt>
      <trkpt lat="47.53588" lon="6.77404">
        <ele>378</ele>
        <time>2016-10-23T09:49:36.000Z</time>
      </trkpt>
      <trkpt lat="47.53586" lon="6.77402">
        <ele>378</ele>
        <time>2016-10-23T09:49:37.000Z</time>
      </trkpt>
      <trkpt lat="47.53583" lon="6.774">
        <ele>374</ele>
        <time>2016-10-23T09:49:38.000Z</time>
      </trkpt>
      <trkpt lat="47.53581" lon="6.77397">
        <ele>374</ele>
        <time>2016-10-23T09:49:39.000Z</time>
      </trkpt>
      <trkpt lat="47.53578" lon="6.77395">
        <ele>374</ele>
        <time>2016-10-23T09:49:40.000Z</time>
      </trkpt>
      <trkpt lat="47.53576" lon="6.77392">
        <ele>374</ele>
        <time>2016-10-23T09:49:41.000Z</time>
      </trkpt>
      <trkpt lat="47.53573" lon="6.7739">
        <ele>374</ele>
        <time>2016-10-23T09:49:42.000Z</time>
      </trkpt>
      <trkpt lat="47.5357" lon="6.77386">
        <ele>374</ele>
        <time>2016-10-23T09:49:43.000Z</time>
      </trkpt>
      <trkpt lat="47.53567" lon="6.77383">
        <ele>374</ele>
        <time>2016-10-23T09:49:44.000Z</time>
      </trkpt>
      <trkpt lat="47.53564" lon="6.77379">
        <ele>374</ele>
        <time>2016-10-23T09:49:45.000Z</time>
      </trkpt>
      <trkpt lat="47.53561" lon="6.77375">
        <ele>374</ele>
        <time>2016-10-23T09:49:46.000Z</time>
      </trkpt>
      <trkpt lat="47.5355" lon="6.77364">
        <ele>374</ele>
        <time>2016-10-23T09:49:47.000Z</time>
      </trkpt>
      <trkpt lat="47.53551" lon="6.77359">
        <ele>374</ele>
        <time>2016-10-23T09:49:48.000Z</time>
      </trkpt>
      <trkpt lat="47.53547" lon="6.77353">
        <ele>374</ele>
        <time>2016-10-23T09:49:49.000Z</time>
      </trkpt>
      <trkpt lat="47.53544" lon="6.77348">
        <ele>374</ele>
        <time>2016-10-23T09:49:50.000Z</time>
      </trkpt>
      <trkpt lat="47.53544" lon="6.77345">
        <ele>374</ele>
        <time>2016-10-23T09:49:51.000Z</time>
      </trkpt>
      <trkpt lat="47.53541" lon="6.77341">
        <ele>374</ele>
        <time>2016-10-23T09:49:52.000Z</time>
      </trkpt>
      <trkpt lat="47.53538" lon="6.77336">
        <ele>373</ele>
        <time>2016-10-23T09:49:53.000Z</time>
      </trkpt>
      <trkpt lat="47.53536" lon="6.77331">
        <ele>376</ele>
        <time>2016-10-23T09:49:54.000Z</time>
      </trkpt>
      <trkpt lat="47.53533" lon="6.77326">
        <ele>375</ele>
        <time>2016-10-23T09:49:55.000Z</time>
      </trkpt>
      <trkpt lat="47.53531" lon="6.77321">
        <ele>375</ele>
        <time>2016-10-23T09:49:56.000Z</time>
      </trkpt>
      <trkpt lat="47.53527" lon="6.77317">
        <ele>375</ele>
        <time>2016-10-23T09:49:57.000Z</time>
      </trkpt>
      <trkpt lat="47.53525" lon="6.77312">
        <ele>375</ele>
        <time>2016-10-23T09:49:58.000Z</time>
      </trkpt>
      <trkpt lat="47.53523" lon="6.77307">
        <ele>375</ele>
        <time>2016-10-23T09:49:59.000Z</time>
      </trkpt>
      <trkpt lat="47.53521" lon="6.77301">
        <ele>375</ele>
        <time>2016-10-23T09:50:00.000Z</time>
      </trkpt>
      <trkpt lat="47.53519" lon="6.77295">
        <ele>375</ele>
        <time>2016-10-23T09:50:01.000Z</time>
      </trkpt>
      <trkpt lat="47.53518" lon="6.77289">
        <ele>375</ele>
        <time>2016-10-23T09:50:02.000Z</time>
      </trkpt>
      <trkpt lat="47.53517" lon="6.77282">
        <ele>375</ele>
        <time>2016-10-23T09:50:03.000Z</time>
      </trkpt>
      <trkpt lat="47.53514" lon="6.77275">
        <ele>375</ele>
        <time>2016-10-23T09:50:04.000Z</time>
      </trkpt>
      <trkpt lat="47.53511" lon="6.7727">
        <ele>375</ele>
        <time>2016-10-23T09:50:05.000Z</time>
      </trkpt>
      <trkpt lat="47.535" lon="6.77263">
        <ele>370</ele>
        <time>2016-10-23T09:50:06.000Z</time>
      </trkpt>
      <trkpt lat="47.53493" lon="6.77259">
        <ele>371</ele>
        <time>2016-10-23T09:50:07.000Z</time>
      </trkpt>
      <trkpt lat="47.53488" lon="6.77257">
        <ele>370</ele>
        <time>2016-10-23T09:50:08.000Z</time>
      </trkpt>
      <trkpt lat="47.53483" lon="6.77255">
        <ele>370</ele>
        <time>2016-10-23T09:50:11.000Z</time>
      </trkpt>
      <trkpt lat="47.53482" lon="6.77254">
        <ele>370</ele>
        <time>2016-10-23T09:50:12.000Z</time>
      </trkpt>
      <trkpt lat="47.53481" lon="6.77252">
        <ele>370</ele>
        <time>2016-10-23T09:50:13.000Z</time>
      </trkpt>
      <trkpt lat="47.53478" lon="6.77247">
        <ele>370</ele>
        <time>2016-10-23T09:50:14.000Z</time>
      </trkpt>
      <trkpt lat="47.53475" lon="6.77242">
        <ele>370</ele>
        <time>2016-10-23T09:50:15.000Z</time>
      </trkpt>
      <trkpt lat="47.53473" lon="6.7724">
        <ele>369</ele>
        <time>2016-10-23T09:50:16.000Z</time>
      </trkpt>
      <trkpt lat="47.5347" lon="6.77238">
        <ele>369</ele>
        <time>2016-10-23T09:50:17.000Z</time>
      </trkpt>
      <trkpt lat="47.53467" lon="6.77236">
        <ele>369</ele>
        <time>2016-10-23T09:50:18.000Z</time>
      </trkpt>
      <trkpt lat="47.53463" lon="6.77235">
        <ele>369</ele>
        <time>2016-10-23T09:50:19.000Z</time>
      </trkpt>
      <trkpt lat="47.53459" lon="6.77232">
        <ele>369</ele>
        <time>2016-10-23T09:50:20.000Z</time>
      </trkpt>
      <trkpt lat="47.53454" lon="6.7723">
        <ele>368</ele>
        <time>2016-10-23T09:50:21.000Z</time>
      </trkpt>
      <trkpt lat="47.53438" lon="6.77228">
        <ele>368</ele>
        <time>2016-10-23T09:50:22.000Z</time>
      </trkpt>
      <trkpt lat="47.53428" lon="6.77227">
        <ele>367</ele>
        <time>2016-10-23T09:50:23.000Z</time>
      </trkpt>
      <trkpt lat="47.53421" lon="6.77225">
        <ele>367</ele>
        <time>2016-10-23T09:50:24.000Z</time>
      </trkpt>
      <trkpt lat="47.53414" lon="6.77225">
        <ele>365</ele>
        <time>2016-10-23T09:50:25.000Z</time>
      </trkpt>
      <trkpt lat="47.53408" lon="6.77224">
        <ele>365</ele>
        <time>2016-10-23T09:50:26.000Z</time>
      </trkpt>
      <trkpt lat="47.53399" lon="6.77222">
        <ele>365</ele>
        <time>2016-10-23T09:50:27.000Z</time>
      </trkpt>
      <trkpt lat="47.53392" lon="6.77218">
        <ele>365</ele>
        <time>2016-10-23T09:50:28.000Z</time>
      </trkpt>
      <trkpt lat="47.53385" lon="6.77215">
        <ele>365</ele>
        <time>2016-10-23T09:50:29.000Z</time>
      </trkpt>
      <trkpt lat="47.53379" lon="6.77214">
        <ele>365</ele>
        <time>2016-10-23T09:50:30.000Z</time>
      </trkpt>
      <trkpt lat="47.53373" lon="6.77216">
        <ele>365</ele>
        <time>2016-10-23T09:50:31.000Z</time>
      </trkpt>
      <trkpt lat="47.53367" lon="6.77216">
        <ele>365</ele>
        <time>2016-10-23T09:50:32.000Z</time>
      </trkpt>
      <trkpt lat="47.5336" lon="6.77217">
        <ele>365</ele>
        <time>2016-10-23T09:50:33.000Z</time>
      </trkpt>
      <trkpt lat="47.53354" lon="6.77217">
        <ele>365</ele>
        <time>2016-10-23T09:50:34.000Z</time>
      </trkpt>
      <trkpt lat="47.53348" lon="6.77218">
        <ele>365</ele>
        <time>2016-10-23T09:50:35.000Z</time>
      </trkpt>
      <trkpt lat="47.53343" lon="6.77218">
        <ele>365</ele>
        <time>2016-10-23T09:50:36.000Z</time>
      </trkpt>
      <trkpt lat="47.53339" lon="6.77215">
        <ele>365</ele>
        <time>2016-10-23T09:50:37.000Z</time>
      </trkpt>
      <trkpt lat="47.53335" lon="6.77216">
        <ele>365</ele>
        <time>2016-10-23T09:50:38.000Z</time>
      </trkpt>
      <trkpt lat="47.53331" lon="6.77215">
        <ele>366</ele>
        <time>2016-10-23T09:50:39.000Z</time>
      </trkpt>
      <trkpt lat="47.53327" lon="6.77214">
        <ele>366</ele>
        <time>2016-10-23T09:50:40.000Z</time>
      </trkpt>
      <trkpt lat="47.53322" lon="6.77214">
        <ele>366</ele>
        <time>2016-10-23T09:50:41.000Z</time>
      </trkpt>
      <trkpt lat="47.53318" lon="6.77215">
        <ele>366</ele>
        <time>2016-10-23T09:50:42.000Z</time>
      </trkpt>
      <trkpt lat="47.53315" lon="6.77216">
        <ele>366</ele>
        <time>2016-10-23T09:50:43.000Z</time>
      </trkpt>
      <trkpt lat="47.53315" lon="6.77213">
        <ele>366</ele>
        <time>2016-10-23T09:50:44.000Z</time>
      </trkpt>
      <trkpt lat="47.53312" lon="6.77211">
        <ele>367</ele>
        <time>2016-10-23T09:50:45.000Z</time>
      </trkpt>
      <trkpt lat="47.53309" lon="6.7721">
        <ele>367</ele>
        <time>2016-10-23T09:50:46.000Z</time>
      </trkpt>
      <trkpt lat="47.53306" lon="6.7721">
        <ele>367</ele>
        <time>2016-10-23T09:50:47.000Z</time>
      </trkpt>
      <trkpt lat="47.53303" lon="6.7721">
        <ele>367</ele>
        <time>2016-10-23T09:50:48.000Z</time>
      </trkpt>
      <trkpt lat="47.53301" lon="6.77211">
        <ele>367</ele>
        <time>2016-10-23T09:50:49.000Z</time>
      </trkpt>
      <trkpt lat="47.53298" lon="6.77211">
        <ele>367</ele>
        <time>2016-10-23T09:50:50.000Z</time>
      </trkpt>
      <trkpt lat="47.53296" lon="6.77212">
        <ele>367</ele>
        <time>2016-10-23T09:50:51.000Z</time>
      </trkpt>
      <trkpt lat="47.53293" lon="6.77212">
        <ele>367</ele>
        <time>2016-10-23T09:50:52.000Z</time>
      </trkpt>
      <trkpt lat="47.5329" lon="6.77212">
        <ele>367</ele>
        <time>2016-10-23T09:50:53.000Z</time>
      </trkpt>
      <trkpt lat="47.53287" lon="6.77211">
        <ele>367</ele>
        <time>2016-10-23T09:50:54.000Z</time>
      </trkpt>
      <trkpt lat="47.53283" lon="6.77211">
        <ele>367</ele>
        <time>2016-10-23T09:50:55.000Z</time>
      </trkpt>
      <trkpt lat="47.5328" lon="6.77211">
        <ele>367</ele>
        <time>2016-10-23T09:50:56.000Z</time>
      </trkpt>
      <trkpt lat="47.53277" lon="6.77211">
        <ele>367</ele>
        <time>2016-10-23T09:50:57.000Z</time>
      </trkpt>
      <trkpt lat="47.53273" lon="6.77211">
        <ele>367</ele>
        <time>2016-10-23T09:50:58.000Z</time>
      </trkpt>
      <trkpt lat="47.5327" lon="6.77211">
        <ele>367</ele>
        <time>2016-10-23T09:50:59.000Z</time>
      </trkpt>
      <trkpt lat="47.53266" lon="6.77211">
        <ele>368</ele>
        <time>2016-10-23T09:51:00.000Z</time>
      </trkpt>
      <trkpt lat="47.53263" lon="6.77211">
        <ele>368</ele>
        <time>2016-10-23T09:51:01.000Z</time>
      </trkpt>
      <trkpt lat="47.5326" lon="6.7721">
        <ele>368</ele>
        <time>2016-10-23T09:51:02.000Z</time>
      </trkpt>
      <trkpt lat="47.53257" lon="6.7721">
        <ele>368</ele>
        <time>2016-10-23T09:51:03.000Z</time>
      </trkpt>
      <trkpt lat="47.53254" lon="6.77209">
        <ele>368</ele>
        <time>2016-10-23T09:51:04.000Z</time>
      </trkpt>
      <trkpt lat="47.53251" lon="6.77209">
        <ele>368</ele>
        <time>2016-10-23T09:51:05.000Z</time>
      </trkpt>
      <trkpt lat="47.53248" lon="6.77209">
        <ele>370</ele>
        <time>2016-10-23T09:51:06.000Z</time>
      </trkpt>
      <trkpt lat="47.53245" lon="6.77209">
        <ele>370</ele>
        <time>2016-10-23T09:51:07.000Z</time>
      </trkpt>
      <trkpt lat="47.53243" lon="6.7721">
        <ele>370</ele>
        <time>2016-10-23T09:51:08.000Z</time>
      </trkpt>
      <trkpt lat="47.5324" lon="6.7721">
        <ele>370</ele>
        <time>2016-10-23T09:51:09.000Z</time>
      </trkpt>
      <trkpt lat="47.53238" lon="6.7721">
        <ele>370</ele>
        <time>2016-10-23T09:51:10.000Z</time>
      </trkpt>
      <trkpt lat="47.53236" lon="6.7721">
        <ele>370</ele>
        <time>2016-10-23T09:51:11.000Z</time>
      </trkpt>
      <trkpt lat="47.53233" lon="6.77214">
        <ele>370</ele>
        <time>2016-10-23T09:51:16.000Z</time>
      </trkpt>
      <trkpt lat="47.53231" lon="6.77214">
        <ele>370</ele>
        <time>2016-10-23T09:51:17.000Z</time>
      </trkpt>
      <trkpt lat="47.53229" lon="6.77214">
        <ele>370</ele>
        <time>2016-10-23T09:51:18.000Z</time>
      </trkpt>
      <trkpt lat="47.53226" lon="6.77215">
        <ele>370</ele>
        <time>2016-10-23T09:51:19.000Z</time>
      </trkpt>
      <trkpt lat="47.53223" lon="6.77215">
        <ele>370</ele>
        <time>2016-10-23T09:51:20.000Z</time>
      </trkpt>
      <trkpt lat="47.5322" lon="6.77215">
        <ele>370</ele>
        <time>2016-10-23T09:51:21.000Z</time>
      </trkpt>
      <trkpt lat="47.53216" lon="6.77215">
        <ele>370</ele>
        <time>2016-10-23T09:51:22.000Z</time>
      </trkpt>
      <trkpt lat="47.53214" lon="6.77215">
        <ele>370</ele>
        <time>2016-10-23T09:51:23.000Z</time>
      </trkpt>
      <trkpt lat="47.5321" lon="6.77215">
        <ele>370</ele>
        <time>2016-10-23T09:51:24.000Z</time>
      </trkpt>
      <trkpt lat="47.53206" lon="6.77214">
        <ele>370</ele>
        <time>2016-10-23T09:51:25.000Z</time>
      </trkpt>
      <trkpt lat="47.53202" lon="6.77214">
        <ele>370</ele>
        <time>2016-10-23T09:51:26.000Z</time>
      </trkpt>
      <trkpt lat="47.53198" lon="6.77214">
        <ele>370</ele>
        <time>2016-10-23T09:51:27.000Z</time>
      </trkpt>
      <trkpt lat="47.53193" lon="6.77213">
        <ele>370</ele>
        <time>2016-10-23T09:51:28.000Z</time>
      </trkpt>
      <trkpt lat="47.53189" lon="6.77213">
        <ele>370</ele>
        <time>2016-10-23T09:51:29.000Z</time>
      </trkpt>
      <trkpt lat="47.53185" lon="6.77213">
        <ele>370</ele>
        <time>2016-10-23T09:51:30.000Z</time>
      </trkpt>
      <trkpt lat="47.53181" lon="6.77212">
        <ele>370</ele>
        <time>2016-10-23T09:51:31.000Z</time>
      </trkpt>
      <trkpt lat="47.53177" lon="6.77212">
        <ele>370</ele>
        <time>2016-10-23T09:51:32.000Z</time>
      </trkpt>
      <trkpt lat="47.53173" lon="6.77211">
        <ele>370</ele>
        <time>2016-10-23T09:51:33.000Z</time>
      </trkpt>
      <trkpt lat="47.53168" lon="6.77211">
        <ele>370</ele>
        <time>2016-10-23T09:51:34.000Z</time>
      </trkpt>
      <trkpt lat="47.53164" lon="6.77211">
        <ele>371</ele>
        <time>2016-10-23T09:51:35.000Z</time>
      </trkpt>
      <trkpt lat="47.5316" lon="6.77211">
        <ele>371</ele>
        <time>2016-10-23T09:51:36.000Z</time>
      </trkpt>
      <trkpt lat="47.53156" lon="6.77211">
        <ele>371</ele>
        <time>2016-10-23T09:51:37.000Z</time>
      </trkpt>
      <trkpt lat="47.53153" lon="6.7721">
        <ele>371</ele>
        <time>2016-10-23T09:51:38.000Z</time>
      </trkpt>
      <trkpt lat="47.53149" lon="6.7721">
        <ele>371</ele>
        <time>2016-10-23T09:51:39.000Z</time>
      </trkpt>
      <trkpt lat="47.53146" lon="6.77209">
        <ele>371</ele>
        <time>2016-10-23T09:51:40.000Z</time>
      </trkpt>
      <trkpt lat="47.53142" lon="6.77209">
        <ele>371</ele>
        <time>2016-10-23T09:51:41.000Z</time>
      </trkpt>
      <trkpt lat="47.53139" lon="6.77209">
        <ele>371</ele>
        <time>2016-10-23T09:51:42.000Z</time>
      </trkpt>
      <trkpt lat="47.53135" lon="6.77209">
        <ele>371</ele>
        <time>2016-10-23T09:51:43.000Z</time>
      </trkpt>
      <trkpt lat="47.53131" lon="6.7721">
        <ele>371</ele>
        <time>2016-10-23T09:51:44.000Z</time>
      </trkpt>
      <trkpt lat="47.53128" lon="6.7721">
        <ele>371</ele>
        <time>2016-10-23T09:51:45.000Z</time>
      </trkpt>
      <trkpt lat="47.53124" lon="6.7721">
        <ele>371</ele>
        <time>2016-10-23T09:51:46.000Z</time>
      </trkpt>
      <trkpt lat="47.5312" lon="6.7721">
        <ele>371</ele>
        <time>2016-10-23T09:51:47.000Z</time>
      </trkpt>
      <trkpt lat="47.53116" lon="6.7721">
        <ele>371</ele>
        <time>2016-10-23T09:51:48.000Z</time>
      </trkpt>
      <trkpt lat="47.53112" lon="6.77211">
        <ele>371</ele>
        <time>2016-10-23T09:51:49.000Z</time>
      </trkpt>
      <trkpt lat="47.53107" lon="6.77211">
        <ele>371</ele>
        <time>2016-10-23T09:51:50.000Z</time>
      </trkpt>
      <trkpt lat="47.53103" lon="6.77211">
        <ele>371</ele>
        <time>2016-10-23T09:51:51.000Z</time>
      </trkpt>
      <trkpt lat="47.53098" lon="6.77212">
        <ele>371</ele>
        <time>2016-10-23T09:51:52.000Z</time>
      </trkpt>
      <trkpt lat="47.53094" lon="6.77212">
        <ele>371</ele>
        <time>2016-10-23T09:51:53.000Z</time>
      </trkpt>
      <trkpt lat="47.53089" lon="6.77212">
        <ele>371</ele>
        <time>2016-10-23T09:51:54.000Z</time>
      </trkpt>
      <trkpt lat="47.53085" lon="6.77213">
        <ele>371</ele>
        <time>2016-10-23T09:51:55.000Z</time>
      </trkpt>
      <trkpt lat="47.53081" lon="6.77213">
        <ele>371</ele>
        <time>2016-10-23T09:51:56.000Z</time>
      </trkpt>
      <trkpt lat="47.53077" lon="6.77213">
        <ele>371</ele>
        <time>2016-10-23T09:51:57.000Z</time>
      </trkpt>
      <trkpt lat="47.53073" lon="6.77213">
        <ele>371</ele>
        <time>2016-10-23T09:51:58.000Z</time>
      </trkpt>
      <trkpt lat="47.5307" lon="6.77213">
        <ele>371</ele>
        <time>2016-10-23T09:51:59.000Z</time>
      </trkpt>
      <trkpt lat="47.53066" lon="6.77213">
        <ele>371</ele>
        <time>2016-10-23T09:52:00.000Z</time>
      </trkpt>
      <trkpt lat="47.53063" lon="6.77213">
        <ele>371</ele>
        <time>2016-10-23T09:52:01.000Z</time>
      </trkpt>
      <trkpt lat="47.5306" lon="6.77213">
        <ele>371</ele>
        <time>2016-10-23T09:52:02.000Z</time>
      </trkpt>
      <trkpt lat="47.53057" lon="6.77213">
        <ele>371</ele>
        <time>2016-10-23T09:52:03.000Z</time>
      </trkpt>
      <trkpt lat="47.53054" lon="6.77214">
        <ele>371</ele>
        <time>2016-10-23T09:52:04.000Z</time>
      </trkpt>
      <trkpt lat="47.5305" lon="6.77214">
        <ele>371</ele>
        <time>2016-10-23T09:52:05.000Z</time>
      </trkpt>
      <trkpt lat="47.53047" lon="6.77214">
        <ele>371</ele>
        <time>2016-10-23T09:52:06.000Z</time>
      </trkpt>
      <trkpt lat="47.53045" lon="6.77214">
        <ele>371</ele>
        <time>2016-10-23T09:52:07.000Z</time>
      </trkpt>
      <trkpt lat="47.53042" lon="6.77215">
        <ele>371</ele>
        <time>2016-10-23T09:52:08.000Z</time>
      </trkpt>
      <trkpt lat="47.5304" lon="6.77215">
        <ele>371</ele>
        <time>2016-10-23T09:52:09.000Z</time>
      </trkpt>
      <trkpt lat="47.53036" lon="6.77217">
        <ele>371</ele>
        <time>2016-10-23T09:52:11.000Z</time>
      </trkpt>
      <trkpt lat="47.53034" lon="6.77218">
        <ele>371</ele>
        <time>2016-10-23T09:52:12.000Z</time>
      </trkpt>
      <trkpt lat="47.5303" lon="6.77219">
        <ele>371</ele>
        <time>2016-10-23T09:52:14.000Z</time>
      </trkpt>
      <trkpt lat="47.53028" lon="6.77219">
        <ele>371</ele>
        <time>2016-10-23T09:52:15.000Z</time>
      </trkpt>
      <trkpt lat="47.53024" lon="6.7722">
        <ele>371</ele>
        <time>2016-10-23T09:52:17.000Z</time>
      </trkpt>
      <trkpt lat="47.53022" lon="6.7722">
        <ele>371</ele>
        <time>2016-10-23T09:52:18.000Z</time>
      </trkpt>
      <trkpt lat="47.53018" lon="6.7722">
        <ele>372</ele>
        <time>2016-10-23T09:52:20.000Z</time>
      </trkpt>
      <trkpt lat="47.53016" lon="6.7722">
        <ele>372</ele>
        <time>2016-10-23T09:52:21.000Z</time>
      </trkpt>
      <trkpt lat="47.53013" lon="6.7722">
        <ele>372</ele>
        <time>2016-10-23T09:52:22.000Z</time>
      </trkpt>
      <trkpt lat="47.5301" lon="6.7722">
        <ele>372</ele>
        <time>2016-10-23T09:52:23.000Z</time>
      </trkpt>
      <trkpt lat="47.53007" lon="6.7722">
        <ele>372</ele>
        <time>2016-10-23T09:52:24.000Z</time>
      </trkpt>
      <trkpt lat="47.53003" lon="6.77219">
        <ele>372</ele>
        <time>2016-10-23T09:52:25.000Z</time>
      </trkpt>
      <trkpt lat="47.53" lon="6.77219">
        <ele>372</ele>
        <time>2016-10-23T09:52:26.000Z</time>
      </trkpt>
      <trkpt lat="47.52996" lon="6.7722">
        <ele>373</ele>
        <time>2016-10-23T09:52:27.000Z</time>
      </trkpt>
      <trkpt lat="47.52992" lon="6.7722">
        <ele>373</ele>
        <time>2016-10-23T09:52:28.000Z</time>
      </trkpt>
      <trkpt lat="47.52989" lon="6.77221">
        <ele>373</ele>
        <time>2016-10-23T09:52:29.000Z</time>
      </trkpt>
      <trkpt lat="47.52985" lon="6.77221">
        <ele>373</ele>
        <time>2016-10-23T09:52:30.000Z</time>
      </trkpt>
      <trkpt lat="47.52981" lon="6.77222">
        <ele>373</ele>
        <time>2016-10-23T09:52:31.000Z</time>
      </trkpt>
      <trkpt lat="47.52978" lon="6.77222">
        <ele>373</ele>
        <time>2016-10-23T09:52:32.000Z</time>
      </trkpt>
      <trkpt lat="47.52974" lon="6.77223">
        <ele>373</ele>
        <time>2016-10-23T09:52:33.000Z</time>
      </trkpt>
      <trkpt lat="47.52971" lon="6.77223">
        <ele>373</ele>
        <time>2016-10-23T09:52:34.000Z</time>
      </trkpt>
      <trkpt lat="47.52967" lon="6.77223">
        <ele>373</ele>
        <time>2016-10-23T09:52:35.000Z</time>
      </trkpt>
      <trkpt lat="47.52964" lon="6.77223">
        <ele>373</ele>
        <time>2016-10-23T09:52:36.000Z</time>
      </trkpt>
      <trkpt lat="47.52961" lon="6.77224">
        <ele>373</ele>
        <time>2016-10-23T09:52:37.000Z</time>
      </trkpt>
      <trkpt lat="47.52957" lon="6.77225">
        <ele>374</ele>
        <time>2016-10-23T09:52:39.000Z</time>
      </trkpt>
      <trkpt lat="47.52955" lon="6.77225">
        <ele>374</ele>
        <time>2016-10-23T09:52:40.000Z</time>
      </trkpt>
      <trkpt lat="47.52951" lon="6.77226">
        <ele>374</ele>
        <time>2016-10-23T09:52:42.000Z</time>
      </trkpt>
      <trkpt lat="47.5295" lon="6.77226">
        <ele>374</ele>
        <time>2016-10-23T09:52:43.000Z</time>
      </trkpt>
      <trkpt lat="47.52947" lon="6.77225">
        <ele>374</ele>
        <time>2016-10-23T09:52:45.000Z</time>
      </trkpt>
      <trkpt lat="47.52944" lon="6.77224">
        <ele>374</ele>
        <time>2016-10-23T09:52:46.000Z</time>
      </trkpt>
      <trkpt lat="47.5294" lon="6.77223">
        <ele>374</ele>
        <time>2016-10-23T09:52:47.000Z</time>
      </trkpt>
      <trkpt lat="47.52937" lon="6.77222">
        <ele>374</ele>
        <time>2016-10-23T09:52:48.000Z</time>
      </trkpt>
      <trkpt lat="47.52933" lon="6.77222">
        <ele>374</ele>
        <time>2016-10-23T09:52:49.000Z</time>
      </trkpt>
      <trkpt lat="47.5293" lon="6.77222">
        <ele>374</ele>
        <time>2016-10-23T09:52:50.000Z</time>
      </trkpt>
      <trkpt lat="47.52927" lon="6.77221">
        <ele>374</ele>
        <time>2016-10-23T09:52:51.000Z</time>
      </trkpt>
      <trkpt lat="47.52924" lon="6.7722">
        <ele>374</ele>
        <time>2016-10-23T09:52:52.000Z</time>
      </trkpt>
      <trkpt lat="47.52921" lon="6.77219">
        <ele>374</ele>
        <time>2016-10-23T09:52:53.000Z</time>
      </trkpt>
      <trkpt lat="47.52919" lon="6.77219">
        <ele>374</ele>
        <time>2016-10-23T09:52:54.000Z</time>
      </trkpt>
      <trkpt lat="47.52915" lon="6.77218">
        <ele>376</ele>
        <time>2016-10-23T09:52:56.000Z</time>
      </trkpt>
      <trkpt lat="47.52913" lon="6.77217">
        <ele>376</ele>
        <time>2016-10-23T09:52:57.000Z</time>
      </trkpt>
      <trkpt lat="47.52909" lon="6.77216">
        <ele>376</ele>
        <time>2016-10-23T09:52:59.000Z</time>
      </trkpt>
      <trkpt lat="47.52907" lon="6.77216">
        <ele>376</ele>
        <time>2016-10-23T09:53:00.000Z</time>
      </trkpt>
      <trkpt lat="47.52904" lon="6.77215">
        <ele>376</ele>
        <time>2016-10-23T09:53:01.000Z</time>
      </trkpt>
      <trkpt lat="47.52902" lon="6.77215">
        <ele>376</ele>
        <time>2016-10-23T09:53:02.000Z</time>
      </trkpt>
      <trkpt lat="47.52898" lon="6.77215">
        <ele>376</ele>
        <time>2016-10-23T09:53:05.000Z</time>
      </trkpt>
      <trkpt lat="47.52896" lon="6.77216">
        <ele>376</ele>
        <time>2016-10-23T09:53:06.000Z</time>
      </trkpt>
      <trkpt lat="47.52891" lon="6.77216">
        <ele>376</ele>
        <time>2016-10-23T09:53:09.000Z</time>
      </trkpt>
      <trkpt lat="47.5289" lon="6.77216">
        <ele>376</ele>
        <time>2016-10-23T09:53:10.000Z</time>
      </trkpt>
      <trkpt lat="47.52887" lon="6.77216">
        <ele>376</ele>
        <time>2016-10-23T09:53:12.000Z</time>
      </trkpt>
      <trkpt lat="47.52886" lon="6.77216">
        <ele>376</ele>
        <time>2016-10-23T09:53:13.000Z</time>
      </trkpt>
      <trkpt lat="47.52882" lon="6.77217">
        <ele>377</ele>
        <time>2016-10-23T09:53:17.000Z</time>
      </trkpt>
      <trkpt lat="47.52881" lon="6.77217">
        <ele>377</ele>
        <time>2016-10-23T09:53:18.000Z</time>
      </trkpt>
      <trkpt lat="47.52878" lon="6.77218">
        <ele>377</ele>
        <time>2016-10-23T09:53:27.000Z</time>
      </trkpt>
      <trkpt lat="47.52877" lon="6.77218">
        <ele>377</ele>
        <time>2016-10-23T09:53:28.000Z</time>
      </trkpt>
      <trkpt lat="47.52872" lon="6.77219">
        <ele>377</ele>
        <time>2016-10-23T09:53:33.000Z</time>
      </trkpt>
      <trkpt lat="47.52871" lon="6.77219">
        <ele>377</ele>
        <time>2016-10-23T09:53:34.000Z</time>
      </trkpt>
      <trkpt lat="47.52867" lon="6.77219">
        <ele>377</ele>
        <time>2016-10-23T09:53:36.000Z</time>
      </trkpt>
      <trkpt lat="47.52866" lon="6.77219">
        <ele>377</ele>
        <time>2016-10-23T09:53:37.000Z</time>
      </trkpt>
      <trkpt lat="47.52862" lon="6.77221">
        <ele>377</ele>
        <time>2016-10-23T09:53:40.000Z</time>
      </trkpt>
      <trkpt lat="47.52858" lon="6.77223">
        <ele>377</ele>
        <time>2016-10-23T09:53:41.000Z</time>
      </trkpt>
      <trkpt lat="47.52854" lon="6.77224">
        <ele>377</ele>
        <time>2016-10-23T09:53:43.000Z</time>
      </trkpt>
      <trkpt lat="47.52853" lon="6.77224">
        <ele>378</ele>
        <time>2016-10-23T09:53:44.000Z</time>
      </trkpt>
      <trkpt lat="47.52848" lon="6.77225">
        <ele>378</ele>
        <time>2016-10-23T09:53:46.000Z</time>
      </trkpt>
      <trkpt lat="47.52847" lon="6.77225">
        <ele>378</ele>
        <time>2016-10-23T09:53:47.000Z</time>
      </trkpt>
      <trkpt lat="47.52843" lon="6.77222">
        <ele>378</ele>
        <time>2016-10-23T09:53:49.000Z</time>
      </trkpt>
      <trkpt lat="47.52842" lon="6.77221">
        <ele>378</ele>
        <time>2016-10-23T09:53:50.000Z</time>
      </trkpt>
      <trkpt lat="47.52839" lon="6.7722">
        <ele>378</ele>
        <time>2016-10-23T09:53:51.000Z</time>
      </trkpt>
      <trkpt lat="47.52837" lon="6.77219">
        <ele>378</ele>
        <time>2016-10-23T09:53:52.000Z</time>
      </trkpt>
      <trkpt lat="47.52833" lon="6.77219">
        <ele>380</ele>
        <time>2016-10-23T09:53:53.000Z</time>
      </trkpt>
      <trkpt lat="47.5283" lon="6.77219">
        <ele>380</ele>
        <time>2016-10-23T09:53:54.000Z</time>
      </trkpt>
      <trkpt lat="47.52826" lon="6.77219">
        <ele>380</ele>
        <time>2016-10-23T09:53:55.000Z</time>
      </trkpt>
      <trkpt lat="47.52822" lon="6.77219">
        <ele>380</ele>
        <time>2016-10-23T09:53:56.000Z</time>
      </trkpt>
      <trkpt lat="47.52819" lon="6.77219">
        <ele>380</ele>
        <time>2016-10-23T09:53:57.000Z</time>
      </trkpt>
      <trkpt lat="47.52815" lon="6.77219">
        <ele>380</ele>
        <time>2016-10-23T09:53:58.000Z</time>
      </trkpt>
      <trkpt lat="47.52811" lon="6.77219">
        <ele>380</ele>
        <time>2016-10-23T09:53:59.000Z</time>
      </trkpt>
      <trkpt lat="47.52807" lon="6.77219">
        <ele>380</ele>
        <time>2016-10-23T09:54:00.000Z</time>
      </trkpt>
      <trkpt lat="47.52803" lon="6.7722">
        <ele>380</ele>
        <time>2016-10-23T09:54:01.000Z</time>
      </trkpt>
      <trkpt lat="47.52799" lon="6.77221">
        <ele>380</ele>
        <time>2016-10-23T09:54:02.000Z</time>
      </trkpt>
      <trkpt lat="47.52795" lon="6.77222">
        <ele>380</ele>
        <time>2016-10-23T09:54:03.000Z</time>
      </trkpt>
      <trkpt lat="47.52791" lon="6.77222">
        <ele>381</ele>
        <time>2016-10-23T09:54:04.000Z</time>
      </trkpt>
      <trkpt lat="47.52788" lon="6.77223">
        <ele>381</ele>
        <time>2016-10-23T09:54:05.000Z</time>
      </trkpt>
      <trkpt lat="47.52785" lon="6.77223">
        <ele>381</ele>
        <time>2016-10-23T09:54:06.000Z</time>
      </trkpt>
      <trkpt lat="47.52783" lon="6.77222">
        <ele>381</ele>
        <time>2016-10-23T09:54:07.000Z</time>
      </trkpt>
      <trkpt lat="47.5278" lon="6.77222">
        <ele>381</ele>
        <time>2016-10-23T09:54:08.000Z</time>
      </trkpt>
      <trkpt lat="47.52777" lon="6.77221">
        <ele>381</ele>
        <time>2016-10-23T09:54:09.000Z</time>
      </trkpt>
      <trkpt lat="47.52775" lon="6.77221">
        <ele>381</ele>
        <time>2016-10-23T09:54:10.000Z</time>
      </trkpt>
      <trkpt lat="47.52772" lon="6.77221">
        <ele>381</ele>
        <time>2016-10-23T09:54:11.000Z</time>
      </trkpt>
      <trkpt lat="47.5277" lon="6.77221">
        <ele>381</ele>
        <time>2016-10-23T09:54:12.000Z</time>
      </trkpt>
      <trkpt lat="47.52766" lon="6.77221">
        <ele>381</ele>
        <time>2016-10-23T09:54:14.000Z</time>
      </trkpt>
      <trkpt lat="47.52765" lon="6.77221">
        <ele>381</ele>
        <time>2016-10-23T09:54:15.000Z</time>
      </trkpt>
      <trkpt lat="47.52761" lon="6.7722">
        <ele>381</ele>
        <time>2016-10-23T09:54:18.000Z</time>
      </trkpt>
      <trkpt lat="47.52759" lon="6.77221">
        <ele>381</ele>
        <time>2016-10-23T09:54:19.000Z</time>
      </trkpt>
      <trkpt lat="47.52756" lon="6.77222">
        <ele>381</ele>
        <time>2016-10-23T09:54:20.000Z</time>
      </trkpt>
      <trkpt lat="47.52754" lon="6.77222">
        <ele>381</ele>
        <time>2016-10-23T09:54:21.000Z</time>
      </trkpt>
      <trkpt lat="47.5275" lon="6.77221">
        <ele>381</ele>
        <time>2016-10-23T09:54:23.000Z</time>
      </trkpt>
      <trkpt lat="47.52748" lon="6.77222">
        <ele>384</ele>
        <time>2016-10-23T09:54:24.000Z</time>
      </trkpt>
      <trkpt lat="47.52745" lon="6.77223">
        <ele>384</ele>
        <time>2016-10-23T09:54:28.000Z</time>
      </trkpt>
      <trkpt lat="47.52743" lon="6.77223">
        <ele>384</ele>
        <time>2016-10-23T09:54:29.000Z</time>
      </trkpt>
      <trkpt lat="47.52739" lon="6.77223">
        <ele>384</ele>
        <time>2016-10-23T09:54:31.000Z</time>
      </trkpt>
      <trkpt lat="47.52737" lon="6.77223">
        <ele>384</ele>
        <time>2016-10-23T09:54:32.000Z</time>
      </trkpt>
      <trkpt lat="47.52733" lon="6.77224">
        <ele>384</ele>
        <time>2016-10-23T09:54:34.000Z</time>
      </trkpt>
      <trkpt lat="47.52732" lon="6.77225">
        <ele>384</ele>
        <time>2016-10-23T09:54:35.000Z</time>
      </trkpt>
      <trkpt lat="47.52729" lon="6.77226">
        <ele>384</ele>
        <time>2016-10-23T09:54:36.000Z</time>
      </trkpt>
      <trkpt lat="47.52725" lon="6.77227">
        <ele>384</ele>
        <time>2016-10-23T09:54:37.000Z</time>
      </trkpt>
      <trkpt lat="47.52721" lon="6.77228">
        <ele>384</ele>
        <time>2016-10-23T09:54:38.000Z</time>
      </trkpt>
      <trkpt lat="47.52716" lon="6.77229">
        <ele>384</ele>
        <time>2016-10-23T09:54:39.000Z</time>
      </trkpt>
      <trkpt lat="47.52712" lon="6.77229">
        <ele>384</ele>
        <time>2016-10-23T09:54:40.000Z</time>
      </trkpt>
      <trkpt lat="47.52707" lon="6.7723">
        <ele>384</ele>
        <time>2016-10-23T09:54:41.000Z</time>
      </trkpt>
      <trkpt lat="47.52702" lon="6.77232">
        <ele>385</ele>
        <time>2016-10-23T09:54:42.000Z</time>
      </trkpt>
      <trkpt lat="47.52698" lon="6.77234">
        <ele>385</ele>
        <time>2016-10-23T09:54:43.000Z</time>
      </trkpt>
      <trkpt lat="47.52693" lon="6.77236">
        <ele>385</ele>
        <time>2016-10-23T09:54:44.000Z</time>
      </trkpt>
      <trkpt lat="47.52688" lon="6.77238">
        <ele>385</ele>
        <time>2016-10-23T09:54:45.000Z</time>
      </trkpt>
      <trkpt lat="47.52684" lon="6.7724">
        <ele>385</ele>
        <time>2016-10-23T09:54:46.000Z</time>
      </trkpt>
      <trkpt lat="47.52679" lon="6.77243">
        <ele>385</ele>
        <time>2016-10-23T09:54:47.000Z</time>
      </trkpt>
      <trkpt lat="47.52673" lon="6.77245">
        <ele>386</ele>
        <time>2016-10-23T09:54:48.000Z</time>
      </trkpt>
      <trkpt lat="47.52669" lon="6.77248">
        <ele>386</ele>
        <time>2016-10-23T09:54:49.000Z</time>
      </trkpt>
      <trkpt lat="47.52664" lon="6.77251">
        <ele>386</ele>
        <time>2016-10-23T09:54:50.000Z</time>
      </trkpt>
      <trkpt lat="47.5266" lon="6.77253">
        <ele>386</ele>
        <time>2016-10-23T09:54:51.000Z</time>
      </trkpt>
      <trkpt lat="47.52656" lon="6.77255">
        <ele>387</ele>
        <time>2016-10-23T09:54:52.000Z</time>
      </trkpt>
      <trkpt lat="47.52652" lon="6.77256">
        <ele>387</ele>
        <time>2016-10-23T09:54:53.000Z</time>
      </trkpt>
      <trkpt lat="47.52648" lon="6.77257">
        <ele>387</ele>
        <time>2016-10-23T09:54:54.000Z</time>
      </trkpt>
      <trkpt lat="47.52644" lon="6.77258">
        <ele>387</ele>
        <time>2016-10-23T09:54:55.000Z</time>
      </trkpt>
      <trkpt lat="47.5264" lon="6.77259">
        <ele>387</ele>
        <time>2016-10-23T09:54:56.000Z</time>
      </trkpt>
      <trkpt lat="47.52636" lon="6.77261">
        <ele>387</ele>
        <time>2016-10-23T09:54:57.000Z</time>
      </trkpt>
      <trkpt lat="47.52632" lon="6.77262">
        <ele>387</ele>
        <time>2016-10-23T09:54:58.000Z</time>
      </trkpt>
      <trkpt lat="47.52628" lon="6.77264">
        <ele>387</ele>
        <time>2016-10-23T09:54:59.000Z</time>
      </trkpt>
      <trkpt lat="47.52625" lon="6.77266">
        <ele>387</ele>
        <time>2016-10-23T09:55:00.000Z</time>
      </trkpt>
      <trkpt lat="47.52623" lon="6.77268">
        <ele>387</ele>
        <time>2016-10-23T09:55:01.000Z</time>
      </trkpt>
      <trkpt lat="47.5262" lon="6.7727">
        <ele>387</ele>
        <time>2016-10-23T09:55:02.000Z</time>
      </trkpt>
      <trkpt lat="47.52619" lon="6.77271">
        <ele>387</ele>
        <time>2016-10-23T09:55:03.000Z</time>
      </trkpt>
      <trkpt lat="47.52616" lon="6.77273">
        <ele>387</ele>
        <time>2016-10-23T09:55:04.000Z</time>
      </trkpt>
      <trkpt lat="47.52613" lon="6.77276">
        <ele>387</ele>
        <time>2016-10-23T09:55:05.000Z</time>
      </trkpt>
      <trkpt lat="47.5261" lon="6.77278">
        <ele>387</ele>
        <time>2016-10-23T09:55:06.000Z</time>
      </trkpt>
      <trkpt lat="47.52606" lon="6.77282">
        <ele>387</ele>
        <time>2016-10-23T09:55:07.000Z</time>
      </trkpt>
      <trkpt lat="47.52603" lon="6.77285">
        <ele>387</ele>
        <time>2016-10-23T09:55:08.000Z</time>
      </trkpt>
      <trkpt lat="47.52599" lon="6.77288">
        <ele>387</ele>
        <time>2016-10-23T09:55:09.000Z</time>
      </trkpt>
      <trkpt lat="47.52596" lon="6.77292">
        <ele>387</ele>
        <time>2016-10-23T09:55:10.000Z</time>
      </trkpt>
      <trkpt lat="47.52593" lon="6.77295">
        <ele>387</ele>
        <time>2016-10-23T09:55:11.000Z</time>
      </trkpt>
      <trkpt lat="47.52589" lon="6.77299">
        <ele>387</ele>
        <time>2016-10-23T09:55:12.000Z</time>
      </trkpt>
      <trkpt lat="47.52586" lon="6.77302">
        <ele>387</ele>
        <time>2016-10-23T09:55:13.000Z</time>
      </trkpt>
      <trkpt lat="47.52581" lon="6.77306">
        <ele>385</ele>
        <time>2016-10-23T09:55:14.000Z</time>
      </trkpt>
      <trkpt lat="47.52575" lon="6.77309">
        <ele>385</ele>
        <time>2016-10-23T09:55:15.000Z</time>
      </trkpt>
      <trkpt lat="47.52569" lon="6.77312">
        <ele>385</ele>
        <time>2016-10-23T09:55:16.000Z</time>
      </trkpt>
      <trkpt lat="47.52563" lon="6.77315">
        <ele>385</ele>
        <time>2016-10-23T09:55:17.000Z</time>
      </trkpt>
      <trkpt lat="47.52557" lon="6.77317">
        <ele>385</ele>
        <time>2016-10-23T09:55:18.000Z</time>
      </trkpt>
      <trkpt lat="47.52552" lon="6.77319">
        <ele>385</ele>
        <time>2016-10-23T09:55:19.000Z</time>
      </trkpt>
      <trkpt lat="47.52547" lon="6.77322">
        <ele>385</ele>
        <time>2016-10-23T09:55:20.000Z</time>
      </trkpt>
      <trkpt lat="47.52542" lon="6.77326">
        <ele>385</ele>
        <time>2016-10-23T09:55:21.000Z</time>
      </trkpt>
      <trkpt lat="47.52538" lon="6.77329">
        <ele>385</ele>
        <time>2016-10-23T09:55:22.000Z</time>
      </trkpt>
      <trkpt lat="47.52534" lon="6.77334">
        <ele>387</ele>
        <time>2016-10-23T09:55:23.000Z</time>
      </trkpt>
      <trkpt lat="47.5253" lon="6.77338">
        <ele>387</ele>
        <time>2016-10-23T09:55:24.000Z</time>
      </trkpt>
      <trkpt lat="47.52526" lon="6.77341">
        <ele>387</ele>
        <time>2016-10-23T09:55:25.000Z</time>
      </trkpt>
      <trkpt lat="47.52523" lon="6.77345">
        <ele>387</ele>
        <time>2016-10-23T09:55:26.000Z</time>
      </trkpt>
      <trkpt lat="47.52519" lon="6.77348">
        <ele>387</ele>
        <time>2016-10-23T09:55:27.000Z</time>
      </trkpt>
      <trkpt lat="47.52515" lon="6.7735">
        <ele>387</ele>
        <time>2016-10-23T09:55:28.000Z</time>
      </trkpt>
      <trkpt lat="47.52512" lon="6.77352">
        <ele>387</ele>
        <time>2016-10-23T09:55:29.000Z</time>
      </trkpt>
      <trkpt lat="47.52509" lon="6.77353">
        <ele>387</ele>
        <time>2016-10-23T09:55:30.000Z</time>
      </trkpt>
      <trkpt lat="47.52506" lon="6.77354">
        <ele>387</ele>
        <time>2016-10-23T09:55:31.000Z</time>
      </trkpt>
      <trkpt lat="47.52504" lon="6.77356">
        <ele>387</ele>
        <time>2016-10-23T09:55:32.000Z</time>
      </trkpt>
      <trkpt lat="47.52501" lon="6.77357">
        <ele>387</ele>
        <time>2016-10-23T09:55:33.000Z</time>
      </trkpt>
      <trkpt lat="47.52498" lon="6.77358">
        <ele>388</ele>
        <time>2016-10-23T09:55:34.000Z</time>
      </trkpt>
      <trkpt lat="47.52496" lon="6.77359">
        <ele>389</ele>
        <time>2016-10-23T09:55:35.000Z</time>
      </trkpt>
      <trkpt lat="47.52493" lon="6.77361">
        <ele>389</ele>
        <time>2016-10-23T09:55:36.000Z</time>
      </trkpt>
      <trkpt lat="47.5249" lon="6.77362">
        <ele>389</ele>
        <time>2016-10-23T09:55:37.000Z</time>
      </trkpt>
      <trkpt lat="47.52488" lon="6.77363">
        <ele>389</ele>
        <time>2016-10-23T09:55:38.000Z</time>
      </trkpt>
      <trkpt lat="47.52485" lon="6.77364">
        <ele>389</ele>
        <time>2016-10-23T09:55:40.000Z</time>
      </trkpt>
      <trkpt lat="47.52483" lon="6.77365">
        <ele>389</ele>
        <time>2016-10-23T09:55:41.000Z</time>
      </trkpt>
      <trkpt lat="47.5248" lon="6.77366">
        <ele>389</ele>
        <time>2016-10-23T09:55:43.000Z</time>
      </trkpt>
      <trkpt lat="47.52478" lon="6.77366">
        <ele>389</ele>
        <time>2016-10-23T09:55:44.000Z</time>
      </trkpt>
      <trkpt lat="47.52473" lon="6.77366">
        <ele>390</ele>
        <time>2016-10-23T09:55:46.000Z</time>
      </trkpt>
      <trkpt lat="47.52472" lon="6.77367">
        <ele>390</ele>
        <time>2016-10-23T09:55:47.000Z</time>
      </trkpt>
      <trkpt lat="47.52469" lon="6.77369">
        <ele>390</ele>
        <time>2016-10-23T09:55:49.000Z</time>
      </trkpt>
      <trkpt lat="47.52467" lon="6.7737">
        <ele>390</ele>
        <time>2016-10-23T09:55:50.000Z</time>
      </trkpt>
      <trkpt lat="47.52466" lon="6.77372">
        <ele>390</ele>
        <time>2016-10-23T09:55:51.000Z</time>
      </trkpt>
      <trkpt lat="47.52463" lon="6.77374">
        <ele>390</ele>
        <time>2016-10-23T09:55:52.000Z</time>
      </trkpt>
      <trkpt lat="47.52461" lon="6.77377">
        <ele>390</ele>
        <time>2016-10-23T09:55:53.000Z</time>
      </trkpt>
      <trkpt lat="47.52457" lon="6.7738">
        <ele>390</ele>
        <time>2016-10-23T09:55:54.000Z</time>
      </trkpt>
      <trkpt lat="47.52454" lon="6.77384">
        <ele>391</ele>
        <time>2016-10-23T09:55:55.000Z</time>
      </trkpt>
      <trkpt lat="47.52451" lon="6.77386">
        <ele>391</ele>
        <time>2016-10-23T09:55:56.000Z</time>
      </trkpt>
      <trkpt lat="47.52449" lon="6.77388">
        <ele>391</ele>
        <time>2016-10-23T09:55:57.000Z</time>
      </trkpt>
      <trkpt lat="47.52446" lon="6.77389">
        <ele>391</ele>
        <time>2016-10-23T09:55:58.000Z</time>
      </trkpt>
      <trkpt lat="47.52444" lon="6.77391">
        <ele>391</ele>
        <time>2016-10-23T09:55:59.000Z</time>
      </trkpt>
      <trkpt lat="47.52441" lon="6.77393">
        <ele>391</ele>
        <time>2016-10-23T09:56:00.000Z</time>
      </trkpt>
      <trkpt lat="47.52438" lon="6.77395">
        <ele>391</ele>
        <time>2016-10-23T09:56:01.000Z</time>
      </trkpt>
      <trkpt lat="47.52435" lon="6.77398">
        <ele>391</ele>
        <time>2016-10-23T09:56:02.000Z</time>
      </trkpt>
      <trkpt lat="47.52432" lon="6.774">
        <ele>391</ele>
        <time>2016-10-23T09:56:03.000Z</time>
      </trkpt>
      <trkpt lat="47.52429" lon="6.77403">
        <ele>392</ele>
        <time>2016-10-23T09:56:04.000Z</time>
      </trkpt>
      <trkpt lat="47.52426" lon="6.77407">
        <ele>392</ele>
        <time>2016-10-23T09:56:05.000Z</time>
      </trkpt>
      <trkpt lat="47.52425" lon="6.7741">
        <ele>392</ele>
        <time>2016-10-23T09:56:06.000Z</time>
      </trkpt>
      <trkpt lat="47.52423" lon="6.77413">
        <ele>392</ele>
        <time>2016-10-23T09:56:07.000Z</time>
      </trkpt>
      <trkpt lat="47.52422" lon="6.77415">
        <ele>393</ele>
        <time>2016-10-23T09:56:08.000Z</time>
      </trkpt>
      <trkpt lat="47.52419" lon="6.77419">
        <ele>393</ele>
        <time>2016-10-23T09:56:10.000Z</time>
      </trkpt>
      <trkpt lat="47.52418" lon="6.77421">
        <ele>393</ele>
        <time>2016-10-23T09:56:11.000Z</time>
      </trkpt>
      <trkpt lat="47.52416" lon="6.77425">
        <ele>393</ele>
        <time>2016-10-23T09:56:13.000Z</time>
      </trkpt>
      <trkpt lat="47.52414" lon="6.77428">
        <ele>392</ele>
        <time>2016-10-23T09:56:14.000Z</time>
      </trkpt>
      <trkpt lat="47.52412" lon="6.77432">
        <ele>392</ele>
        <time>2016-10-23T09:56:15.000Z</time>
      </trkpt>
      <trkpt lat="47.5241" lon="6.77436">
        <ele>392</ele>
        <time>2016-10-23T09:56:16.000Z</time>
      </trkpt>
      <trkpt lat="47.52408" lon="6.77439">
        <ele>392</ele>
        <time>2016-10-23T09:56:17.000Z</time>
      </trkpt>
      <trkpt lat="47.52406" lon="6.77442">
        <ele>392</ele>
        <time>2016-10-23T09:56:18.000Z</time>
      </trkpt>
      <trkpt lat="47.52404" lon="6.77446">
        <ele>392</ele>
        <time>2016-10-23T09:56:19.000Z</time>
      </trkpt>
      <trkpt lat="47.52403" lon="6.77448">
        <ele>392</ele>
        <time>2016-10-23T09:56:20.000Z</time>
      </trkpt>
      <trkpt lat="47.52401" lon="6.77451">
        <ele>392</ele>
        <time>2016-10-23T09:56:21.000Z</time>
      </trkpt>
      <trkpt lat="47.52399" lon="6.77453">
        <ele>392</ele>
        <time>2016-10-23T09:56:22.000Z</time>
      </trkpt>
      <trkpt lat="47.52396" lon="6.77455">
        <ele>391</ele>
        <time>2016-10-23T09:56:23.000Z</time>
      </trkpt>
      <trkpt lat="47.52393" lon="6.77457">
        <ele>391</ele>
        <time>2016-10-23T09:56:24.000Z</time>
      </trkpt>
      <trkpt lat="47.5239" lon="6.77458">
        <ele>391</ele>
        <time>2016-10-23T09:56:25.000Z</time>
      </trkpt>
      <trkpt lat="47.52388" lon="6.77461">
        <ele>391</ele>
        <time>2016-10-23T09:56:26.000Z</time>
      </trkpt>
      <trkpt lat="47.52385" lon="6.77464">
        <ele>391</ele>
        <time>2016-10-23T09:56:27.000Z</time>
      </trkpt>
      <trkpt lat="47.52383" lon="6.77467">
        <ele>391</ele>
        <time>2016-10-23T09:56:28.000Z</time>
      </trkpt>
      <trkpt lat="47.52381" lon="6.77471">
        <ele>391</ele>
        <time>2016-10-23T09:56:29.000Z</time>
      </trkpt>
      <trkpt lat="47.52378" lon="6.77473">
        <ele>391</ele>
        <time>2016-10-23T09:56:30.000Z</time>
      </trkpt>
      <trkpt lat="47.52375" lon="6.77476">
        <ele>391</ele>
        <time>2016-10-23T09:56:31.000Z</time>
      </trkpt>
      <trkpt lat="47.52373" lon="6.77479">
        <ele>391</ele>
        <time>2016-10-23T09:56:32.000Z</time>
      </trkpt>
      <trkpt lat="47.5237" lon="6.77482">
        <ele>391</ele>
        <time>2016-10-23T09:56:33.000Z</time>
      </trkpt>
      <trkpt lat="47.52368" lon="6.77485">
        <ele>391</ele>
        <time>2016-10-23T09:56:34.000Z</time>
      </trkpt>
      <trkpt lat="47.52365" lon="6.77487">
        <ele>391</ele>
        <time>2016-10-23T09:56:35.000Z</time>
      </trkpt>
      <trkpt lat="47.52363" lon="6.77489">
        <ele>391</ele>
        <time>2016-10-23T09:56:36.000Z</time>
      </trkpt>
      <trkpt lat="47.5236" lon="6.77491">
        <ele>391</ele>
        <time>2016-10-23T09:56:37.000Z</time>
      </trkpt>
      <trkpt lat="47.52358" lon="6.77494">
        <ele>390</ele>
        <time>2016-10-23T09:56:38.000Z</time>
      </trkpt>
      <trkpt lat="47.52355" lon="6.77496">
        <ele>390</ele>
        <time>2016-10-23T09:56:39.000Z</time>
      </trkpt>
      <trkpt lat="47.52352" lon="6.77498">
        <ele>390</ele>
        <time>2016-10-23T09:56:40.000Z</time>
      </trkpt>
      <trkpt lat="47.52349" lon="6.77501">
        <ele>389</ele>
        <time>2016-10-23T09:56:41.000Z</time>
      </trkpt>
      <trkpt lat="47.52345" lon="6.77503">
        <ele>389</ele>
        <time>2016-10-23T09:56:42.000Z</time>
      </trkpt>
      <trkpt lat="47.52342" lon="6.77505">
        <ele>389</ele>
        <time>2016-10-23T09:56:43.000Z</time>
      </trkpt>
      <trkpt lat="47.52338" lon="6.77508">
        <ele>389</ele>
        <time>2016-10-23T09:56:44.000Z</time>
      </trkpt>
      <trkpt lat="47.52335" lon="6.7751">
        <ele>389</ele>
        <time>2016-10-23T09:56:45.000Z</time>
      </trkpt>
      <trkpt lat="47.52332" lon="6.77512">
        <ele>388</ele>
        <time>2016-10-23T09:56:46.000Z</time>
      </trkpt>
      <trkpt lat="47.52329" lon="6.77515">
        <ele>388</ele>
        <time>2016-10-23T09:56:47.000Z</time>
      </trkpt>
      <trkpt lat="47.52325" lon="6.77517">
        <ele>388</ele>
        <time>2016-10-23T09:56:48.000Z</time>
      </trkpt>
      <trkpt lat="47.52322" lon="6.77519">
        <ele>388</ele>
        <time>2016-10-23T09:56:49.000Z</time>
      </trkpt>
      <trkpt lat="47.52319" lon="6.77522">
        <ele>388</ele>
        <time>2016-10-23T09:56:50.000Z</time>
      </trkpt>
      <trkpt lat="47.52316" lon="6.77524">
        <ele>388</ele>
        <time>2016-10-23T09:56:51.000Z</time>
      </trkpt>
      <trkpt lat="47.52313" lon="6.77526">
        <ele>388</ele>
        <time>2016-10-23T09:56:52.000Z</time>
      </trkpt>
      <trkpt lat="47.52309" lon="6.77528">
        <ele>388</ele>
        <time>2016-10-23T09:56:53.000Z</time>
      </trkpt>
      <trkpt lat="47.52305" lon="6.77531">
        <ele>387</ele>
        <time>2016-10-23T09:56:54.000Z</time>
      </trkpt>
      <trkpt lat="47.52301" lon="6.77533">
        <ele>387</ele>
        <time>2016-10-23T09:56:55.000Z</time>
      </trkpt>
      <trkpt lat="47.52296" lon="6.77537">
        <ele>387</ele>
        <time>2016-10-23T09:56:56.000Z</time>
      </trkpt>
      <trkpt lat="47.52293" lon="6.77539">
        <ele>387</ele>
        <time>2016-10-23T09:56:57.000Z</time>
      </trkpt>
      <trkpt lat="47.52289" lon="6.77541">
        <ele>387</ele>
        <time>2016-10-23T09:56:58.000Z</time>
      </trkpt>
      <trkpt lat="47.52286" lon="6.77544">
        <ele>387</ele>
        <time>2016-10-23T09:56:59.000Z</time>
      </trkpt>
      <trkpt lat="47.52282" lon="6.77546">
        <ele>387</ele>
        <time>2016-10-23T09:57:00.000Z</time>
      </trkpt>
      <trkpt lat="47.52279" lon="6.77548">
        <ele>387</ele>
        <time>2016-10-23T09:57:01.000Z</time>
      </trkpt>
      <trkpt lat="47.52275" lon="6.7755">
        <ele>387</ele>
        <time>2016-10-23T09:57:02.000Z</time>
      </trkpt>
      <trkpt lat="47.52271" lon="6.77552">
        <ele>387</ele>
        <time>2016-10-23T09:57:03.000Z</time>
      </trkpt>
      <trkpt lat="47.52268" lon="6.77555">
        <ele>387</ele>
        <time>2016-10-23T09:57:04.000Z</time>
      </trkpt>
      <trkpt lat="47.52265" lon="6.77558">
        <ele>387</ele>
        <time>2016-10-23T09:57:05.000Z</time>
      </trkpt>
      <trkpt lat="47.52261" lon="6.77561">
        <ele>387</ele>
        <time>2016-10-23T09:57:06.000Z</time>
      </trkpt>
      <trkpt lat="47.52257" lon="6.77564">
        <ele>387</ele>
        <time>2016-10-23T09:57:07.000Z</time>
      </trkpt>
      <trkpt lat="47.52253" lon="6.77566">
        <ele>387</ele>
        <time>2016-10-23T09:57:08.000Z</time>
      </trkpt>
      <trkpt lat="47.52248" lon="6.77568">
        <ele>387</ele>
        <time>2016-10-23T09:57:09.000Z</time>
      </trkpt>
      <trkpt lat="47.52244" lon="6.77571">
        <ele>387</ele>
        <time>2016-10-23T09:57:10.000Z</time>
      </trkpt>
      <trkpt lat="47.5224" lon="6.77573">
        <ele>387</ele>
        <time>2016-10-23T09:57:11.000Z</time>
      </trkpt>
      <trkpt lat="47.52237" lon="6.77576">
        <ele>387</ele>
        <time>2016-10-23T09:57:12.000Z</time>
      </trkpt>
      <trkpt lat="47.52231" lon="6.77578">
        <ele>387</ele>
        <time>2016-10-23T09:57:13.000Z</time>
      </trkpt>
      <trkpt lat="47.52227" lon="6.77584">
        <ele>386</ele>
        <time>2016-10-23T09:57:14.000Z</time>
      </trkpt>
      <trkpt lat="47.52223" lon="6.77588">
        <ele>386</ele>
        <time>2016-10-23T09:57:15.000Z</time>
      </trkpt>
      <trkpt lat="47.5222" lon="6.77591">
        <ele>386</ele>
        <time>2016-10-23T09:57:16.000Z</time>
      </trkpt>
      <trkpt lat="47.52214" lon="6.77594">
        <ele>387</ele>
        <time>2016-10-23T09:57:17.000Z</time>
      </trkpt>
      <trkpt lat="47.5221" lon="6.77598">
        <ele>387</ele>
        <time>2016-10-23T09:57:18.000Z</time>
      </trkpt>
      <trkpt lat="47.52205" lon="6.776">
        <ele>387</ele>
        <time>2016-10-23T09:57:19.000Z</time>
      </trkpt>
      <trkpt lat="47.52201" lon="6.77604">
        <ele>387</ele>
        <time>2016-10-23T09:57:20.000Z</time>
      </trkpt>
      <trkpt lat="47.52196" lon="6.77607">
        <ele>387</ele>
        <time>2016-10-23T09:57:21.000Z</time>
      </trkpt>
      <trkpt lat="47.52192" lon="6.77611">
        <ele>387</ele>
        <time>2016-10-23T09:57:22.000Z</time>
      </trkpt>
      <trkpt lat="47.52187" lon="6.77615">
        <ele>387</ele>
        <time>2016-10-23T09:57:23.000Z</time>
      </trkpt>
      <trkpt lat="47.52183" lon="6.77619">
        <ele>387</ele>
        <time>2016-10-23T09:57:24.000Z</time>
      </trkpt>
      <trkpt lat="47.52179" lon="6.77622">
        <ele>387</ele>
        <time>2016-10-23T09:57:25.000Z</time>
      </trkpt>
      <trkpt lat="47.52175" lon="6.77625">
        <ele>387</ele>
        <time>2016-10-23T09:57:26.000Z</time>
      </trkpt>
      <trkpt lat="47.52172" lon="6.77628">
        <ele>387</ele>
        <time>2016-10-23T09:57:27.000Z</time>
      </trkpt>
      <trkpt lat="47.52167" lon="6.77631">
        <ele>387</ele>
        <time>2016-10-23T09:57:28.000Z</time>
      </trkpt>
      <trkpt lat="47.52162" lon="6.77634">
        <ele>390</ele>
        <time>2016-10-23T09:57:29.000Z</time>
      </trkpt>
      <trkpt lat="47.52159" lon="6.77636">
        <ele>390</ele>
        <time>2016-10-23T09:57:30.000Z</time>
      </trkpt>
      <trkpt lat="47.52154" lon="6.77638">
        <ele>390</ele>
        <time>2016-10-23T09:57:31.000Z</time>
      </trkpt>
      <trkpt lat="47.5215" lon="6.7764">
        <ele>390</ele>
        <time>2016-10-23T09:57:32.001Z</time>
      </trkpt>
      <trkpt lat="47.52145" lon="6.77642">
        <ele>390</ele>
        <time>2016-10-23T09:57:33.001Z</time>
      </trkpt>
      <trkpt lat="47.52142" lon="6.77643">
        <ele>390</ele>
        <time>2016-10-23T09:57:34.000Z</time>
      </trkpt>
      <trkpt lat="47.52137" lon="6.77645">
        <ele>390</ele>
        <time>2016-10-23T09:57:35.000Z</time>
      </trkpt>
      <trkpt lat="47.52132" lon="6.77649">
        <ele>390</ele>
        <time>2016-10-23T09:57:36.000Z</time>
      </trkpt>
      <trkpt lat="47.52127" lon="6.77651">
        <ele>391</ele>
        <time>2016-10-23T09:57:37.000Z</time>
      </trkpt>
      <trkpt lat="47.52124" lon="6.77654">
        <ele>391</ele>
        <time>2016-10-23T09:57:38.000Z</time>
      </trkpt>
      <trkpt lat="47.52119" lon="6.77656">
        <ele>391</ele>
        <time>2016-10-23T09:57:38.999Z</time>
      </trkpt>
      <trkpt lat="47.52117" lon="6.7766">
        <ele>391</ele>
        <time>2016-10-23T09:57:40.000Z</time>
      </trkpt>
      <trkpt lat="47.52114" lon="6.77662">
        <ele>391</ele>
        <time>2016-10-23T09:57:41.000Z</time>
      </trkpt>
      <trkpt lat="47.52112" lon="6.77661">
        <ele>391</ele>
        <time>2016-10-23T09:57:42.000Z</time>
      </trkpt>
      <trkpt lat="47.52108" lon="6.77663">
        <ele>391</ele>
        <time>2016-10-23T09:57:43.000Z</time>
      </trkpt>
      <trkpt lat="47.52104" lon="6.77664">
        <ele>392</ele>
        <time>2016-10-23T09:57:44.000Z</time>
      </trkpt>
      <trkpt lat="47.52102" lon="6.77666">
        <ele>392</ele>
        <time>2016-10-23T09:57:45.000Z</time>
      </trkpt>
      <trkpt lat="47.52098" lon="6.77667">
        <ele>392</ele>
        <time>2016-10-23T09:57:47.000Z</time>
      </trkpt>
      <trkpt lat="47.52097" lon="6.77665">
        <ele>392</ele>
        <time>2016-10-23T09:57:48.000Z</time>
      </trkpt>
      <trkpt lat="47.52096" lon="6.77662">
        <ele>392</ele>
        <time>2016-10-23T09:57:49.000Z</time>
      </trkpt>
      <trkpt lat="47.52096" lon="6.77657">
        <ele>392</ele>
        <time>2016-10-23T09:57:50.000Z</time>
      </trkpt>
      <trkpt lat="47.52096" lon="6.77652">
        <ele>392</ele>
        <time>2016-10-23T09:57:51.000Z</time>
      </trkpt>
      <trkpt lat="47.52096" lon="6.77648">
        <ele>392</ele>
        <time>2016-10-23T09:57:52.000Z</time>
      </trkpt>
      <trkpt lat="47.52097" lon="6.77644">
        <ele>391</ele>
        <time>2016-10-23T09:57:53.000Z</time>
      </trkpt>
      <trkpt lat="47.52097" lon="6.7764">
        <ele>391</ele>
        <time>2016-10-23T09:57:54.000Z</time>
      </trkpt>
      <trkpt lat="47.52097" lon="6.77636">
        <ele>391</ele>
        <time>2016-10-23T09:57:55.000Z</time>
      </trkpt>
      <trkpt lat="47.52098" lon="6.77631">
        <ele>391</ele>
        <time>2016-10-23T09:57:56.000Z</time>
      </trkpt>
      <trkpt lat="47.52101" lon="6.77624">
        <ele>391</ele>
        <time>2016-10-23T09:57:57.000Z</time>
      </trkpt>
      <trkpt lat="47.52103" lon="6.77619">
        <ele>391</ele>
        <time>2016-10-23T09:57:58.000Z</time>
      </trkpt>
      <trkpt lat="47.52103" lon="6.77614">
        <ele>391</ele>
        <time>2016-10-23T09:57:59.000Z</time>
      </trkpt>
      <trkpt lat="47.52103" lon="6.77609">
        <ele>391</ele>
        <time>2016-10-23T09:58:00.000Z</time>
      </trkpt>
      <trkpt lat="47.52102" lon="6.77601">
        <ele>391</ele>
        <time>2016-10-23T09:58:01.000Z</time>
      </trkpt>
      <trkpt lat="47.52102" lon="6.77595">
        <ele>391</ele>
        <time>2016-10-23T09:58:02.000Z</time>
      </trkpt>
      <trkpt lat="47.52102" lon="6.77588">
        <ele>391</ele>
        <time>2016-10-23T09:58:03.000Z</time>
      </trkpt>
      <trkpt lat="47.52102" lon="6.77584">
        <ele>391</ele>
        <time>2016-10-23T09:58:04.000Z</time>
      </trkpt>
      <trkpt lat="47.52102" lon="6.77578">
        <ele>390</ele>
        <time>2016-10-23T09:58:05.000Z</time>
      </trkpt>
      <trkpt lat="47.52102" lon="6.77571">
        <ele>390</ele>
        <time>2016-10-23T09:58:06.000Z</time>
      </trkpt>
      <trkpt lat="47.52102" lon="6.77564">
        <ele>390</ele>
        <time>2016-10-23T09:58:07.000Z</time>
      </trkpt>
      <trkpt lat="47.52099" lon="6.77559">
        <ele>390</ele>
        <time>2016-10-23T09:58:08.000Z</time>
      </trkpt>
      <trkpt lat="47.52096" lon="6.77555">
        <ele>390</ele>
        <time>2016-10-23T09:58:09.000Z</time>
      </trkpt>
      <trkpt lat="47.52093" lon="6.77551">
        <ele>390</ele>
        <time>2016-10-23T09:58:10.000Z</time>
      </trkpt>
      <trkpt lat="47.5209" lon="6.77548">
        <ele>390</ele>
        <time>2016-10-23T09:58:11.000Z</time>
      </trkpt>
      <trkpt lat="47.52088" lon="6.77545">
        <ele>390</ele>
        <time>2016-10-23T09:58:12.000Z</time>
      </trkpt>
      <trkpt lat="47.52085" lon="6.77543">
        <ele>390</ele>
        <time>2016-10-23T09:58:13.000Z</time>
      </trkpt>
      <trkpt lat="47.52079" lon="6.77543">
        <ele>391</ele>
        <time>2016-10-23T09:58:14.000Z</time>
      </trkpt>
      <trkpt lat="47.52073" lon="6.77543">
        <ele>391</ele>
        <time>2016-10-23T09:58:15.000Z</time>
      </trkpt>
      <trkpt lat="47.52068" lon="6.77542">
        <ele>391</ele>
        <time>2016-10-23T09:58:16.000Z</time>
      </trkpt>
      <trkpt lat="47.52063" lon="6.7754">
        <ele>390</ele>
        <time>2016-10-23T09:58:16.999Z</time>
      </trkpt>
      <trkpt lat="47.52063" lon="6.7754">
        <ele>390</ele>
        <time>2016-10-23T09:58:18.000Z</time>
      </trkpt>
      <trkpt lat="47.52058" lon="6.77538">
        <ele>390</ele>
        <time>2016-10-23T09:58:19.000Z</time>
      </trkpt>
      <trkpt lat="47.52053" lon="6.77537">
        <ele>390</ele>
        <time>2016-10-23T09:58:20.000Z</time>
      </trkpt>
      <trkpt lat="47.52048" lon="6.77536">
        <ele>390</ele>
        <time>2016-10-23T09:58:21.000Z</time>
      </trkpt>
      <trkpt lat="47.52043" lon="6.77535">
        <ele>390</ele>
        <time>2016-10-23T09:58:22.000Z</time>
      </trkpt>
      <trkpt lat="47.52038" lon="6.77533">
        <ele>390</ele>
        <time>2016-10-23T09:58:23.000Z</time>
      </trkpt>
      <trkpt lat="47.52031" lon="6.77534">
        <ele>390</ele>
        <time>2016-10-23T09:58:24.000Z</time>
      </trkpt>
      <trkpt lat="47.52026" lon="6.77534">
        <ele>390</ele>
        <time>2016-10-23T09:58:24.998Z</time>
      </trkpt>
      <trkpt lat="47.52019" lon="6.77535">
        <ele>390</ele>
        <time>2016-10-23T09:58:26.000Z</time>
      </trkpt>
      <trkpt lat="47.52011" lon="6.77532">
        <ele>390</ele>
        <time>2016-10-23T09:58:27.000Z</time>
      </trkpt>
      <trkpt lat="47.52006" lon="6.77533">
        <ele>390</ele>
        <time>2016-10-23T09:58:28.000Z</time>
      </trkpt>
      <trkpt lat="47.52" lon="6.77532">
        <ele>390</ele>
        <time>2016-10-23T09:58:29.000Z</time>
      </trkpt>
      <trkpt lat="47.51995" lon="6.77529">
        <ele>390</ele>
        <time>2016-10-23T09:58:30.000Z</time>
      </trkpt>
      <trkpt lat="47.5199" lon="6.77527">
        <ele>390</ele>
        <time>2016-10-23T09:58:31.000Z</time>
      </trkpt>
      <trkpt lat="47.51986" lon="6.77527">
        <ele>390</ele>
        <time>2016-10-23T09:58:32.000Z</time>
      </trkpt>
      <trkpt lat="47.51982" lon="6.77525">
        <ele>390</ele>
        <time>2016-10-23T09:58:33.000Z</time>
      </trkpt>
      <trkpt lat="47.51978" lon="6.77523">
        <ele>390</ele>
        <time>2016-10-23T09:58:34.000Z</time>
      </trkpt>
      <trkpt lat="47.51972" lon="6.77523">
        <ele>390</ele>
        <time>2016-10-23T09:58:35.000Z</time>
      </trkpt>
      <trkpt lat="47.51967" lon="6.77522">
        <ele>390</ele>
        <time>2016-10-23T09:58:35.999Z</time>
      </trkpt>
      <trkpt lat="47.51965" lon="6.7752">
        <ele>390</ele>
        <time>2016-10-23T09:58:38.000Z</time>
      </trkpt>
      <trkpt lat="47.51963" lon="6.77518">
        <ele>390</ele>
        <time>2016-10-23T09:58:39.000Z</time>
      </trkpt>
      <trkpt lat="47.51956" lon="6.77515">
        <ele>390</ele>
        <time>2016-10-23T09:58:40.000Z</time>
      </trkpt>
      <trkpt lat="47.51952" lon="6.77513">
        <ele>389</ele>
        <time>2016-10-23T09:58:40.999Z</time>
      </trkpt>
      <trkpt lat="47.51947" lon="6.77512">
        <ele>389</ele>
        <time>2016-10-23T09:58:42.000Z</time>
      </trkpt>
      <trkpt lat="47.51943" lon="6.7751">
        <ele>389</ele>
        <time>2016-10-23T09:58:43.000Z</time>
      </trkpt>
      <trkpt lat="47.51937" lon="6.77511">
        <ele>389</ele>
        <time>2016-10-23T09:58:44.000Z</time>
      </trkpt>
      <trkpt lat="47.51933" lon="6.77513">
        <ele>389</ele>
        <time>2016-10-23T09:58:45.000Z</time>
      </trkpt>
      <trkpt lat="47.51928" lon="6.77512">
        <ele>389</ele>
        <time>2016-10-23T09:58:46.000Z</time>
      </trkpt>
      <trkpt lat="47.51922" lon="6.77511">
        <ele>389</ele>
        <time>2016-10-23T09:58:47.000Z</time>
      </trkpt>
      <trkpt lat="47.51919" lon="6.77509">
        <ele>389</ele>
        <time>2016-10-23T09:58:48.000Z</time>
      </trkpt>
      <trkpt lat="47.51914" lon="6.77508">
        <ele>388</ele>
        <time>2016-10-23T09:58:49.000Z</time>
      </trkpt>
      <trkpt lat="47.51909" lon="6.77506">
        <ele>388</ele>
        <time>2016-10-23T09:58:50.000Z</time>
      </trkpt>
      <trkpt lat="47.51906" lon="6.77503">
        <ele>388</ele>
        <time>2016-10-23T09:58:51.000Z</time>
      </trkpt>
      <trkpt lat="47.51898" lon="6.77501">
        <ele>388</ele>
        <time>2016-10-23T09:58:52.000Z</time>
      </trkpt>
      <trkpt lat="47.51893" lon="6.775">
        <ele>388</ele>
        <time>2016-10-23T09:58:53.000Z</time>
      </trkpt>
      <trkpt lat="47.51888" lon="6.775">
        <ele>387</ele>
        <time>2016-10-23T09:58:54.000Z</time>
      </trkpt>
      <trkpt lat="47.51881" lon="6.77498">
        <ele>387</ele>
        <time>2016-10-23T09:58:55.000Z</time>
      </trkpt>
      <trkpt lat="47.51877" lon="6.77497">
        <ele>387</ele>
        <time>2016-10-23T09:58:56.000Z</time>
      </trkpt>
      <trkpt lat="47.51869" lon="6.77497">
        <ele>387</ele>
        <time>2016-10-23T09:58:57.000Z</time>
      </trkpt>
      <trkpt lat="47.51862" lon="6.77498">
        <ele>387</ele>
        <time>2016-10-23T09:58:58.000Z</time>
      </trkpt>
      <trkpt lat="47.51857" lon="6.77498">
        <ele>387</ele>
        <time>2016-10-23T09:58:59.001Z</time>
      </trkpt>
      <trkpt lat="47.5185" lon="6.775">
        <ele>387</ele>
        <time>2016-10-23T09:59:00.000Z</time>
      </trkpt>
      <trkpt lat="47.51846" lon="6.775">
        <ele>387</ele>
        <time>2016-10-23T09:59:01.000Z</time>
      </trkpt>
      <trkpt lat="47.5184" lon="6.77499">
        <ele>387</ele>
        <time>2016-10-23T09:59:02.000Z</time>
      </trkpt>
      <trkpt lat="47.51835" lon="6.77498">
        <ele>387</ele>
        <time>2016-10-23T09:59:03.000Z</time>
      </trkpt>
      <trkpt lat="47.5183" lon="6.77497">
        <ele>387</ele>
        <time>2016-10-23T09:59:04.000Z</time>
      </trkpt>
      <trkpt lat="47.51826" lon="6.77496">
        <ele>387</ele>
        <time>2016-10-23T09:59:05.000Z</time>
      </trkpt>
      <trkpt lat="47.51822" lon="6.77495">
        <ele>387</ele>
        <time>2016-10-23T09:59:06.000Z</time>
      </trkpt>
      <trkpt lat="47.51817" lon="6.77493">
        <ele>387</ele>
        <time>2016-10-23T09:59:07.000Z</time>
      </trkpt>
      <trkpt lat="47.51813" lon="6.77492">
        <ele>388</ele>
        <time>2016-10-23T09:59:08.000Z</time>
      </trkpt>
      <trkpt lat="47.5181" lon="6.7749">
        <ele>388</ele>
        <time>2016-10-23T09:59:09.000Z</time>
      </trkpt>
      <trkpt lat="47.5181" lon="6.77484">
        <ele>388</ele>
        <time>2016-10-23T09:59:14.000Z</time>
      </trkpt>
      <trkpt lat="47.5181" lon="6.77483">
        <ele>388</ele>
        <time>2016-10-23T09:59:14.999Z</time>
      </trkpt>
      <trkpt lat="47.51806" lon="6.7748">
        <ele>388</ele>
        <time>2016-10-23T09:59:30.000Z</time>
      </trkpt>
      <trkpt lat="47.51805" lon="6.7748">
        <ele>388</ele>
        <time>2016-10-23T09:59:31.000Z</time>
      </trkpt>
      <trkpt lat="47.51803" lon="6.77474">
        <ele>388</ele>
        <time>2016-10-23T09:59:37.000Z</time>
      </trkpt>
      <trkpt lat="47.51803" lon="6.77474">
        <ele>388</ele>
        <time>2016-10-23T09:59:38.000Z</time>
      </trkpt>
      <trkpt lat="47.51804" lon="6.7748">
        <ele>388</ele>
        <time>2016-10-23T10:01:52.000Z</time>
      </trkpt>
      <trkpt lat="47.51804" lon="6.77481">
        <ele>388</ele>
        <time>2016-10-23T10:01:53.000Z</time>
      </trkpt>
      <trkpt lat="47.51808" lon="6.77484">
        <ele>388</ele>
        <time>2016-10-23T10:06:11.000Z</time>
      </trkpt>
      <trkpt lat="47.51808" lon="6.77485">
        <ele>388</ele>
        <time>2016-10-23T10:06:12.000Z</time>
      </trkpt>
      <trkpt lat="47.51807" lon="6.7748">
        <ele>388</ele>
        <time>2016-10-23T10:07:01.000Z</time>
      </trkpt>
      <trkpt lat="47.51806" lon="6.7748">
        <ele>388</ele>
        <time>2016-10-23T10:07:02.000Z</time>
      </trkpt>
      <trkpt lat="47.51803" lon="6.77481">
        <ele>388</ele>
        <time>2016-10-23T10:13:05.000Z</time>
      </trkpt>
    </trkseg>
  </trk>
</gpx>